<?xml version='1.0' encoding='UTF-8'?><gpx version="1.1" creator="JPX - https://github.com/jenetics/jpx" xmlns="http://www.topografix.com/GPX/1/1"><trk><trkseg><trkpt lat="44.9970861" lon="9.7881133"><ele>67.0</ele><time>2026-04-19T06:06:54.856Z</time></trkpt><trkpt lat="44.9971527" lon="9.7881619"><ele>67.0</ele><time>2026-04-19T06:06:57.857Z</time></trkpt><trkpt lat="44.9972087" lon="9.7882469"><ele>67.0</ele><time>2026-04-19T06:06:59.855Z</time></trkpt><trkpt lat="44.9971505" lon="9.7883211"><ele>67.0</ele><time>2026-04-19T06:07:09.863Z</time></trkpt><trkpt lat="44.9971913" lon="9.7882351"><ele>67.0</ele><time>2026-04-19T06:07:32.866Z</time></trkpt><trkpt lat="44.9972184" lon="9.7881352"><ele>67.0</ele><time>2026-04-19T06:07:38.865Z</time></trkpt><trkpt lat="44.9971789" lon="9.7880533"><ele>67.0</ele><time>2026-04-19T06:07:41.862Z</time></trkpt><trkpt lat="44.9971753" lon="9.7879454"><ele>67.0</ele><time>2026-04-19T06:07:44.873Z</time></trkpt><trkpt lat="44.9971921" lon="9.7878554"><ele>67.0</ele><time>2026-04-19T06:07:46.866Z</time></trkpt><trkpt lat="44.9972195" lon="9.7877648"><ele>67.0</ele><time>2026-04-19T06:07:48.861Z</time></trkpt><trkpt lat="44.9972602" lon="9.7876856"><ele>67.0</ele><time>2026-04-19T06:07:50.876Z</time></trkpt><trkpt lat="44.9973026" lon="9.7876171"><ele>67.0</ele><time>2026-04-19T06:07:52.897Z</time></trkpt><trkpt lat="44.9973365" lon="9.787538"><ele>67.0</ele><time>2026-04-19T06:07:56.878Z</time></trkpt><trkpt lat="44.9973219" lon="9.7876382"><ele>67.0</ele><time>2026-04-19T06:08:30.891Z</time></trkpt><trkpt lat="44.997268" lon="9.787709"><ele>67.0</ele><time>2026-04-19T06:08:34.897Z</time></trkpt><trkpt lat="44.9972139" lon="9.7877785"><ele>67.0</ele><time>2026-04-19T06:08:37.882Z</time></trkpt><trkpt lat="44.9971657" lon="9.7878533"><ele>67.0</ele><time>2026-04-19T06:08:40.888Z</time></trkpt><trkpt lat="44.9971247" lon="9.7879315"><ele>67.0</ele><time>2026-04-19T06:08:43.89Z</time></trkpt><trkpt lat="44.9970587" lon="9.7879453"><ele>67.0</ele><time>2026-04-19T06:08:46.886Z</time></trkpt><trkpt lat="44.9969971" lon="9.7878704"><ele>67.0</ele><time>2026-04-19T06:08:49.899Z</time></trkpt><trkpt lat="44.9969275" lon="9.7877879"><ele>67.0</ele><time>2026-04-19T06:08:52.888Z</time></trkpt><trkpt lat="44.9968567" lon="9.7877078"><ele>67.0</ele><time>2026-04-19T06:08:55.887Z</time></trkpt><trkpt lat="44.996806" lon="9.7876483"><ele>67.0</ele><time>2026-04-19T06:08:57.862Z</time></trkpt><trkpt lat="44.996749" lon="9.7875891"><ele>67.0</ele><time>2026-04-19T06:08:59.858Z</time></trkpt><trkpt lat="44.9966991" lon="9.7875263"><ele>67.0</ele><time>2026-04-19T06:09:01.898Z</time></trkpt><trkpt lat="44.9966494" lon="9.7874597"><ele>67.0</ele><time>2026-04-19T06:09:03.871Z</time></trkpt><trkpt lat="44.9965796" lon="9.7873717"><ele>66.85714285714286</ele><time>2026-04-19T06:09:06.885Z</time></trkpt><trkpt lat="44.9965321" lon="9.7873104"><ele>66.71428571428571</ele><time>2026-04-19T06:09:08.877Z</time></trkpt><trkpt lat="44.9964857" lon="9.7872447"><ele>66.57142857142857</ele><time>2026-04-19T06:09:10.888Z</time></trkpt><trkpt lat="44.9964307" lon="9.7871851"><ele>66.42857142857143</ele><time>2026-04-19T06:09:12.898Z</time></trkpt><trkpt lat="44.9963843" lon="9.7871078"><ele>66.28571428571429</ele><time>2026-04-19T06:09:14.893Z</time></trkpt><trkpt lat="44.9963312" lon="9.7870373"><ele>66.14285714285714</ele><time>2026-04-19T06:09:16.895Z</time></trkpt><trkpt lat="44.9962807" lon="9.7869753"><ele>66.0</ele><time>2026-04-19T06:09:18.893Z</time></trkpt><trkpt lat="44.9962299" lon="9.7869179"><ele>66.0</ele><time>2026-04-19T06:09:20.886Z</time></trkpt><trkpt lat="44.9961698" lon="9.786862"><ele>66.0</ele><time>2026-04-19T06:09:22.898Z</time></trkpt><trkpt lat="44.9961042" lon="9.7868031"><ele>66.0</ele><time>2026-04-19T06:09:24.894Z</time></trkpt><trkpt lat="44.9960339" lon="9.7867497"><ele>66.0</ele><time>2026-04-19T06:09:26.897Z</time></trkpt><trkpt lat="44.9959753" lon="9.786691"><ele>66.0</ele><time>2026-04-19T06:09:28.896Z</time></trkpt><trkpt lat="44.9959019" lon="9.7866518"><ele>66.0</ele><time>2026-04-19T06:09:30.903Z</time></trkpt><trkpt lat="44.9958435" lon="9.7865998"><ele>66.0</ele><time>2026-04-19T06:09:32.886Z</time></trkpt><trkpt lat="44.9957808" lon="9.7865495"><ele>66.16666666666667</ele><time>2026-04-19T06:09:34.893Z</time></trkpt><trkpt lat="44.9957119" lon="9.7864931"><ele>66.33333333333333</ele><time>2026-04-19T06:09:36.891Z</time></trkpt><trkpt lat="44.9956402" lon="9.7864446"><ele>66.5</ele><time>2026-04-19T06:09:38.892Z</time></trkpt><trkpt lat="44.9955712" lon="9.7864001"><ele>66.66666666666666</ele><time>2026-04-19T06:09:40.898Z</time></trkpt><trkpt lat="44.9954991" lon="9.7863525"><ele>66.83333333333333</ele><time>2026-04-19T06:09:42.897Z</time></trkpt><trkpt lat="44.9954273" lon="9.7863079"><ele>67.0</ele><time>2026-04-19T06:09:44.894Z</time></trkpt><trkpt lat="44.9953572" lon="9.7862699"><ele>67.0</ele><time>2026-04-19T06:09:46.895Z</time></trkpt><trkpt lat="44.9952769" lon="9.7862357"><ele>67.0</ele><time>2026-04-19T06:09:48.904Z</time></trkpt><trkpt lat="44.9952021" lon="9.7861942"><ele>67.0</ele><time>2026-04-19T06:09:50.893Z</time></trkpt><trkpt lat="44.9951359" lon="9.7861372"><ele>67.0</ele><time>2026-04-19T06:09:52.884Z</time></trkpt><trkpt lat="44.995066" lon="9.7860867"><ele>67.0</ele><time>2026-04-19T06:09:54.893Z</time></trkpt><trkpt lat="44.9949908" lon="9.7860476"><ele>67.0</ele><time>2026-04-19T06:09:56.901Z</time></trkpt><trkpt lat="44.9949243" lon="9.7860053"><ele>67.0</ele><time>2026-04-19T06:09:58.904Z</time></trkpt><trkpt lat="44.9948409" lon="9.7859572"><ele>67.0</ele><time>2026-04-19T06:10:00.9Z</time></trkpt><trkpt lat="44.9947647" lon="9.7859176"><ele>67.0</ele><time>2026-04-19T06:10:02.904Z</time></trkpt><trkpt lat="44.9946841" lon="9.7858665"><ele>67.0</ele><time>2026-04-19T06:10:04.892Z</time></trkpt><trkpt lat="44.9946109" lon="9.7858091"><ele>67.0</ele><time>2026-04-19T06:10:06.888Z</time></trkpt><trkpt lat="44.9945366" lon="9.7857552"><ele>67.0</ele><time>2026-04-19T06:10:08.897Z</time></trkpt><trkpt lat="44.994462" lon="9.7857042"><ele>67.0</ele><time>2026-04-19T06:10:10.893Z</time></trkpt><trkpt lat="44.9943913" lon="9.7856583"><ele>67.0</ele><time>2026-04-19T06:10:12.891Z</time></trkpt><trkpt lat="44.9943152" lon="9.7856156"><ele>67.0</ele><time>2026-04-19T06:10:14.899Z</time></trkpt><trkpt lat="44.9942328" lon="9.7855753"><ele>67.0</ele><time>2026-04-19T06:10:16.901Z</time></trkpt><trkpt lat="44.9941524" lon="9.785524"><ele>67.0</ele><time>2026-04-19T06:10:18.891Z</time></trkpt><trkpt lat="44.9940815" lon="9.7854862"><ele>67.0</ele><time>2026-04-19T06:10:20.892Z</time></trkpt><trkpt lat="44.9939979" lon="9.7854435"><ele>66.83333333333333</ele><time>2026-04-19T06:10:22.879Z</time></trkpt><trkpt lat="44.99392" lon="9.7853882"><ele>66.66666666666666</ele><time>2026-04-19T06:10:24.888Z</time></trkpt><trkpt lat="44.9938466" lon="9.78534"><ele>66.5</ele><time>2026-04-19T06:10:26.89Z</time></trkpt><trkpt lat="44.9937714" lon="9.7852951"><ele>66.33333333333333</ele><time>2026-04-19T06:10:28.881Z</time></trkpt><trkpt lat="44.9936905" lon="9.7852504"><ele>66.16666666666667</ele><time>2026-04-19T06:10:30.899Z</time></trkpt><trkpt lat="44.9936067" lon="9.785218"><ele>66.0</ele><time>2026-04-19T06:10:32.875Z</time></trkpt><trkpt lat="44.9935146" lon="9.7851778"><ele>66.0</ele><time>2026-04-19T06:10:34.868Z</time></trkpt><trkpt lat="44.9934379" lon="9.7851374"><ele>66.0</ele><time>2026-04-19T06:10:36.871Z</time></trkpt><trkpt lat="44.9933536" lon="9.7851128"><ele>66.0</ele><time>2026-04-19T06:10:38.901Z</time></trkpt><trkpt lat="44.9932715" lon="9.7850778"><ele>66.0</ele><time>2026-04-19T06:10:40.874Z</time></trkpt><trkpt lat="44.993189" lon="9.7850283"><ele>66.0</ele><time>2026-04-19T06:10:42.881Z</time></trkpt><trkpt lat="44.9931073" lon="9.7849952"><ele>66.0</ele><time>2026-04-19T06:10:44.897Z</time></trkpt><trkpt lat="44.9930355" lon="9.7849653"><ele>66.0</ele><time>2026-04-19T06:10:46.89Z</time></trkpt><trkpt lat="44.9929545" lon="9.7849275"><ele>66.0</ele><time>2026-04-19T06:10:48.88Z</time></trkpt><trkpt lat="44.9928722" lon="9.784896"><ele>66.0</ele><time>2026-04-19T06:10:50.906Z</time></trkpt><trkpt lat="44.9927869" lon="9.7848663"><ele>66.0</ele><time>2026-04-19T06:10:52.899Z</time></trkpt><trkpt lat="44.9927086" lon="9.7848349"><ele>66.0</ele><time>2026-04-19T06:10:54.893Z</time></trkpt><trkpt lat="44.9926258" lon="9.7848105"><ele>66.0</ele><time>2026-04-19T06:10:56.893Z</time></trkpt><trkpt lat="44.9925411" lon="9.78478"><ele>66.0</ele><time>2026-04-19T06:10:58.897Z</time></trkpt><trkpt lat="44.9924504" lon="9.7847692"><ele>66.0</ele><time>2026-04-19T06:11:00.884Z</time></trkpt><trkpt lat="44.9923691" lon="9.7847575"><ele>66.0</ele><time>2026-04-19T06:11:02.895Z</time></trkpt><trkpt lat="44.9922859" lon="9.7847321"><ele>66.0</ele><time>2026-04-19T06:11:04.878Z</time></trkpt><trkpt lat="44.9922031" lon="9.7847037"><ele>66.0</ele><time>2026-04-19T06:11:06.898Z</time></trkpt><trkpt lat="44.9921172" lon="9.7846741"><ele>66.0</ele><time>2026-04-19T06:11:08.876Z</time></trkpt><trkpt lat="44.9920346" lon="9.7846557"><ele>66.0</ele><time>2026-04-19T06:11:10.889Z</time></trkpt><trkpt lat="44.9919515" lon="9.7846227"><ele>66.0</ele><time>2026-04-19T06:11:12.878Z</time></trkpt><trkpt lat="44.9918634" lon="9.7845895"><ele>66.0</ele><time>2026-04-19T06:11:14.897Z</time></trkpt><trkpt lat="44.9917773" lon="9.7845654"><ele>66.0</ele><time>2026-04-19T06:11:16.887Z</time></trkpt><trkpt lat="44.9916883" lon="9.7845349"><ele>66.0</ele><time>2026-04-19T06:11:18.893Z</time></trkpt><trkpt lat="44.991607" lon="9.7844934"><ele>66.0</ele><time>2026-04-19T06:11:20.901Z</time></trkpt><trkpt lat="44.9915321" lon="9.7844631"><ele>66.0</ele><time>2026-04-19T06:11:22.883Z</time></trkpt><trkpt lat="44.9914559" lon="9.7844186"><ele>66.0</ele><time>2026-04-19T06:11:24.904Z</time></trkpt><trkpt lat="44.9913707" lon="9.7843792"><ele>66.0</ele><time>2026-04-19T06:11:26.897Z</time></trkpt><trkpt lat="44.9912823" lon="9.784351"><ele>66.0</ele><time>2026-04-19T06:11:28.898Z</time></trkpt><trkpt lat="44.9911946" lon="9.7843144"><ele>66.0</ele><time>2026-04-19T06:11:30.888Z</time></trkpt><trkpt lat="44.9911118" lon="9.78427"><ele>66.0</ele><time>2026-04-19T06:11:32.894Z</time></trkpt><trkpt lat="44.991024" lon="9.7842404"><ele>65.66666666666667</ele><time>2026-04-19T06:11:34.912Z</time></trkpt><trkpt lat="44.9909413" lon="9.7841952"><ele>65.33333333333333</ele><time>2026-04-19T06:11:36.905Z</time></trkpt><trkpt lat="44.9908645" lon="9.7841533"><ele>65.0</ele><time>2026-04-19T06:11:38.872Z</time></trkpt><trkpt lat="44.9907856" lon="9.784108"><ele>64.66666666666666</ele><time>2026-04-19T06:11:40.896Z</time></trkpt><trkpt lat="44.9907031" lon="9.7840667"><ele>64.33333333333333</ele><time>2026-04-19T06:11:42.874Z</time></trkpt><trkpt lat="44.9906215" lon="9.7840324"><ele>64.0</ele><time>2026-04-19T06:11:44.908Z</time></trkpt><trkpt lat="44.9905383" lon="9.7839952"><ele>63.99999999999999</ele><time>2026-04-19T06:11:46.9Z</time></trkpt><trkpt lat="44.9904493" lon="9.783962"><ele>64.0</ele><time>2026-04-19T06:11:48.896Z</time></trkpt><trkpt lat="44.9903713" lon="9.7839191"><ele>64.0</ele><time>2026-04-19T06:11:50.904Z</time></trkpt><trkpt lat="44.9902951" lon="9.7838864"><ele>64.0</ele><time>2026-04-19T06:11:52.892Z</time></trkpt><trkpt lat="44.9902186" lon="9.7838463"><ele>63.99999999999999</ele><time>2026-04-19T06:11:54.892Z</time></trkpt><trkpt lat="44.9901315" lon="9.7838081"><ele>64.0</ele><time>2026-04-19T06:11:56.895Z</time></trkpt><trkpt lat="44.9900504" lon="9.7837668"><ele>64.2</ele><time>2026-04-19T06:11:58.901Z</time></trkpt><trkpt lat="44.9899689" lon="9.7837289"><ele>64.4</ele><time>2026-04-19T06:12:00.902Z</time></trkpt><trkpt lat="44.9898818" lon="9.7836822"><ele>64.6</ele><time>2026-04-19T06:12:02.893Z</time></trkpt><trkpt lat="44.9897936" lon="9.7836357"><ele>64.8</ele><time>2026-04-19T06:12:04.899Z</time></trkpt><trkpt lat="44.98971" lon="9.7835789"><ele>65.0</ele><time>2026-04-19T06:12:06.866Z</time></trkpt><trkpt lat="44.9896181" lon="9.7835233"><ele>65.2</ele><time>2026-04-19T06:12:08.894Z</time></trkpt><trkpt lat="44.9895342" lon="9.7834772"><ele>65.4</ele><time>2026-04-19T06:12:10.894Z</time></trkpt><trkpt lat="44.9894469" lon="9.7834224"><ele>65.6</ele><time>2026-04-19T06:12:12.902Z</time></trkpt><trkpt lat="44.9893582" lon="9.7833925"><ele>65.8</ele><time>2026-04-19T06:12:14.899Z</time></trkpt><trkpt lat="44.989278" lon="9.7833478"><ele>66.0</ele><time>2026-04-19T06:12:16.895Z</time></trkpt><trkpt lat="44.9891943" lon="9.7832927"><ele>66.0</ele><time>2026-04-19T06:12:18.892Z</time></trkpt><trkpt lat="44.9891473" lon="9.7831674"><ele>66.0</ele><time>2026-04-19T06:12:20.91Z</time></trkpt><trkpt lat="44.9891688" lon="9.7830506"><ele>66.0</ele><time>2026-04-19T06:12:22.895Z</time></trkpt><trkpt lat="44.9892042" lon="9.782939"><ele>66.0</ele><time>2026-04-19T06:12:24.895Z</time></trkpt><trkpt lat="44.989208" lon="9.7828086"><ele>66.0</ele><time>2026-04-19T06:12:26.886Z</time></trkpt><trkpt lat="44.9891556" lon="9.7827137"><ele>65.83333333333333</ele><time>2026-04-19T06:12:28.893Z</time></trkpt><trkpt lat="44.9890754" lon="9.7826683"><ele>65.66666666666667</ele><time>2026-04-19T06:12:30.886Z</time></trkpt><trkpt lat="44.9889885" lon="9.7826456"><ele>65.5</ele><time>2026-04-19T06:12:32.903Z</time></trkpt><trkpt lat="44.9889036" lon="9.782619"><ele>65.33333333333334</ele><time>2026-04-19T06:12:34.907Z</time></trkpt><trkpt lat="44.988828" lon="9.7825952"><ele>65.16666666666667</ele><time>2026-04-19T06:12:36.902Z</time></trkpt><trkpt lat="44.9887387" lon="9.7825741"><ele>65.0</ele><time>2026-04-19T06:12:38.88Z</time></trkpt><trkpt lat="44.9886551" lon="9.7825529"><ele>65.0</ele><time>2026-04-19T06:12:40.919Z</time></trkpt><trkpt lat="44.9885674" lon="9.7825297"><ele>65.0</ele><time>2026-04-19T06:12:42.898Z</time></trkpt><trkpt lat="44.9884808" lon="9.7825078"><ele>65.0</ele><time>2026-04-19T06:12:44.898Z</time></trkpt><trkpt lat="44.9883984" lon="9.782478"><ele>65.0</ele><time>2026-04-19T06:12:46.876Z</time></trkpt><trkpt lat="44.9883219" lon="9.7824572"><ele>65.0</ele><time>2026-04-19T06:12:48.896Z</time></trkpt><trkpt lat="44.9882329" lon="9.7824334"><ele>65.0</ele><time>2026-04-19T06:12:50.899Z</time></trkpt><trkpt lat="44.9881432" lon="9.7824089"><ele>64.83333333333334</ele><time>2026-04-19T06:12:52.907Z</time></trkpt><trkpt lat="44.9880606" lon="9.78238"><ele>64.66666666666667</ele><time>2026-04-19T06:12:54.9Z</time></trkpt><trkpt lat="44.9879807" lon="9.7823574"><ele>64.5</ele><time>2026-04-19T06:12:56.894Z</time></trkpt><trkpt lat="44.9878948" lon="9.7823399"><ele>64.33333333333333</ele><time>2026-04-19T06:12:58.897Z</time></trkpt><trkpt lat="44.9878067" lon="9.782317"><ele>64.16666666666666</ele><time>2026-04-19T06:13:00.878Z</time></trkpt><trkpt lat="44.9877206" lon="9.7822899"><ele>64.0</ele><time>2026-04-19T06:13:02.896Z</time></trkpt><trkpt lat="44.9876411" lon="9.7822574"><ele>63.99999999999999</ele><time>2026-04-19T06:13:04.89Z</time></trkpt><trkpt lat="44.9875561" lon="9.7822397"><ele>64.0</ele><time>2026-04-19T06:13:06.892Z</time></trkpt><trkpt lat="44.9874796" lon="9.7822177"><ele>64.0</ele><time>2026-04-19T06:13:08.898Z</time></trkpt><trkpt lat="44.9873924" lon="9.7821933"><ele>64.0</ele><time>2026-04-19T06:13:10.898Z</time></trkpt><trkpt lat="44.9873082" lon="9.7821729"><ele>63.99999999999999</ele><time>2026-04-19T06:13:12.896Z</time></trkpt><trkpt lat="44.9872258" lon="9.7821442"><ele>64.0</ele><time>2026-04-19T06:13:14.885Z</time></trkpt><trkpt lat="44.9871381" lon="9.7821225"><ele>64.33333333333333</ele><time>2026-04-19T06:13:16.892Z</time></trkpt><trkpt lat="44.9870567" lon="9.7820994"><ele>64.66666666666666</ele><time>2026-04-19T06:13:18.897Z</time></trkpt><trkpt lat="44.9869751" lon="9.782074"><ele>65.0</ele><time>2026-04-19T06:13:20.898Z</time></trkpt><trkpt lat="44.9868923" lon="9.7820535"><ele>65.33333333333333</ele><time>2026-04-19T06:13:22.902Z</time></trkpt><trkpt lat="44.9868058" lon="9.7820293"><ele>65.66666666666667</ele><time>2026-04-19T06:13:24.903Z</time></trkpt><trkpt lat="44.9867218" lon="9.7820015"><ele>66.0</ele><time>2026-04-19T06:13:26.892Z</time></trkpt><trkpt lat="44.9866379" lon="9.7819718"><ele>66.0</ele><time>2026-04-19T06:13:28.894Z</time></trkpt><trkpt lat="44.9865527" lon="9.7819246"><ele>66.0</ele><time>2026-04-19T06:13:30.894Z</time></trkpt><trkpt lat="44.986492" lon="9.7818389"><ele>66.0</ele><time>2026-04-19T06:13:32.893Z</time></trkpt><trkpt lat="44.9864841" lon="9.7817165"><ele>66.0</ele><time>2026-04-19T06:13:34.872Z</time></trkpt><trkpt lat="44.9864993" lon="9.7815999"><ele>66.0</ele><time>2026-04-19T06:13:36.895Z</time></trkpt><trkpt lat="44.9865225" lon="9.7814882"><ele>66.0</ele><time>2026-04-19T06:13:38.885Z</time></trkpt><trkpt lat="44.9865354" lon="9.7813684"><ele>66.0</ele><time>2026-04-19T06:13:40.896Z</time></trkpt><trkpt lat="44.9865473" lon="9.781248"><ele>66.0</ele><time>2026-04-19T06:13:42.894Z</time></trkpt><trkpt lat="44.9865578" lon="9.7811364"><ele>66.0</ele><time>2026-04-19T06:13:44.9Z</time></trkpt><trkpt lat="44.9865722" lon="9.7810219"><ele>66.0</ele><time>2026-04-19T06:13:46.878Z</time></trkpt><trkpt lat="44.9865884" lon="9.7809006"><ele>66.0</ele><time>2026-04-19T06:13:48.894Z</time></trkpt><trkpt lat="44.9866069" lon="9.7807841"><ele>66.0</ele><time>2026-04-19T06:13:50.908Z</time></trkpt><trkpt lat="44.9866028" lon="9.7806667"><ele>65.83333333333333</ele><time>2026-04-19T06:13:52.898Z</time></trkpt><trkpt lat="44.9865628" lon="9.7805607"><ele>65.66666666666667</ele><time>2026-04-19T06:13:54.905Z</time></trkpt><trkpt lat="44.9864886" lon="9.78049"><ele>65.5</ele><time>2026-04-19T06:13:56.888Z</time></trkpt><trkpt lat="44.9864162" lon="9.780442"><ele>65.33333333333334</ele><time>2026-04-19T06:13:58.901Z</time></trkpt><trkpt lat="44.9863367" lon="9.7803949"><ele>65.16666666666667</ele><time>2026-04-19T06:14:00.883Z</time></trkpt><trkpt lat="44.9862537" lon="9.7803522"><ele>65.0</ele><time>2026-04-19T06:14:02.891Z</time></trkpt><trkpt lat="44.9861735" lon="9.780308"><ele>65.0</ele><time>2026-04-19T06:14:04.892Z</time></trkpt><trkpt lat="44.9860966" lon="9.7802693"><ele>65.0</ele><time>2026-04-19T06:14:06.892Z</time></trkpt><trkpt lat="44.986012" lon="9.7802411"><ele>65.0</ele><time>2026-04-19T06:14:08.896Z</time></trkpt><trkpt lat="44.9859296" lon="9.7801982"><ele>65.0</ele><time>2026-04-19T06:14:10.889Z</time></trkpt><trkpt lat="44.9858478" lon="9.7801588"><ele>65.0</ele><time>2026-04-19T06:14:12.895Z</time></trkpt><trkpt lat="44.9857724" lon="9.7801176"><ele>65.0</ele><time>2026-04-19T06:14:14.903Z</time></trkpt><trkpt lat="44.9856984" lon="9.7800738"><ele>65.16666666666667</ele><time>2026-04-19T06:14:16.896Z</time></trkpt><trkpt lat="44.9856208" lon="9.7800324"><ele>65.33333333333334</ele><time>2026-04-19T06:14:18.896Z</time></trkpt><trkpt lat="44.9855432" lon="9.78"><ele>65.5</ele><time>2026-04-19T06:14:20.897Z</time></trkpt><trkpt lat="44.9854662" lon="9.7799649"><ele>65.66666666666667</ele><time>2026-04-19T06:14:22.9Z</time></trkpt><trkpt lat="44.9853892" lon="9.7799243"><ele>65.83333333333333</ele><time>2026-04-19T06:14:24.891Z</time></trkpt><trkpt lat="44.9853113" lon="9.7798835"><ele>66.0</ele><time>2026-04-19T06:14:26.901Z</time></trkpt><trkpt lat="44.9852331" lon="9.7798445"><ele>66.0</ele><time>2026-04-19T06:14:28.889Z</time></trkpt><trkpt lat="44.9851539" lon="9.779802"><ele>66.0</ele><time>2026-04-19T06:14:30.898Z</time></trkpt><trkpt lat="44.9850728" lon="9.7797633"><ele>66.0</ele><time>2026-04-19T06:14:32.875Z</time></trkpt><trkpt lat="44.9849961" lon="9.7797266"><ele>66.0</ele><time>2026-04-19T06:14:34.896Z</time></trkpt><trkpt lat="44.9849235" lon="9.7796874"><ele>66.0</ele><time>2026-04-19T06:14:36.895Z</time></trkpt><trkpt lat="44.9848479" lon="9.7796439"><ele>66.0</ele><time>2026-04-19T06:14:38.894Z</time></trkpt><trkpt lat="44.9847719" lon="9.7796139"><ele>65.83333333333333</ele><time>2026-04-19T06:14:40.902Z</time></trkpt><trkpt lat="44.984695" lon="9.7795743"><ele>65.66666666666667</ele><time>2026-04-19T06:14:42.89Z</time></trkpt><trkpt lat="44.9846201" lon="9.7795336"><ele>65.5</ele><time>2026-04-19T06:14:44.902Z</time></trkpt><trkpt lat="44.9845435" lon="9.7794937"><ele>65.33333333333334</ele><time>2026-04-19T06:14:46.906Z</time></trkpt><trkpt lat="44.9844667" lon="9.7794528"><ele>65.16666666666667</ele><time>2026-04-19T06:14:48.894Z</time></trkpt><trkpt lat="44.984389" lon="9.7794125"><ele>65.0</ele><time>2026-04-19T06:14:50.885Z</time></trkpt><trkpt lat="44.9843059" lon="9.7793792"><ele>65.16666666666667</ele><time>2026-04-19T06:14:52.897Z</time></trkpt><trkpt lat="44.9842299" lon="9.7793392"><ele>65.33333333333334</ele><time>2026-04-19T06:14:54.896Z</time></trkpt><trkpt lat="44.9841531" lon="9.7792988"><ele>65.5</ele><time>2026-04-19T06:14:56.895Z</time></trkpt><trkpt lat="44.9840749" lon="9.7792575"><ele>65.66666666666667</ele><time>2026-04-19T06:14:58.894Z</time></trkpt><trkpt lat="44.9839969" lon="9.7792197"><ele>65.83333333333333</ele><time>2026-04-19T06:15:00.905Z</time></trkpt><trkpt lat="44.9839105" lon="9.7791805"><ele>66.0</ele><time>2026-04-19T06:15:02.893Z</time></trkpt><trkpt lat="44.9838333" lon="9.7791339"><ele>66.33333333333333</ele><time>2026-04-19T06:15:04.892Z</time></trkpt><trkpt lat="44.9837573" lon="9.7790949"><ele>66.66666666666667</ele><time>2026-04-19T06:15:06.883Z</time></trkpt><trkpt lat="44.9836809" lon="9.7790556"><ele>67.0</ele><time>2026-04-19T06:15:08.898Z</time></trkpt><trkpt lat="44.9836022" lon="9.7790144"><ele>67.33333333333334</ele><time>2026-04-19T06:15:10.897Z</time></trkpt><trkpt lat="44.98352" lon="9.7789703"><ele>67.66666666666667</ele><time>2026-04-19T06:15:12.864Z</time></trkpt><trkpt lat="44.9834451" lon="9.7789352"><ele>68.0</ele><time>2026-04-19T06:15:14.891Z</time></trkpt><trkpt lat="44.9833639" lon="9.7788919"><ele>68.33333333333334</ele><time>2026-04-19T06:15:16.894Z</time></trkpt><trkpt lat="44.983287" lon="9.7788484"><ele>68.66666666666667</ele><time>2026-04-19T06:15:18.894Z</time></trkpt><trkpt lat="44.9832136" lon="9.77881"><ele>69.0</ele><time>2026-04-19T06:15:20.901Z</time></trkpt><trkpt lat="44.9831415" lon="9.7787705"><ele>69.33333333333333</ele><time>2026-04-19T06:15:22.876Z</time></trkpt><trkpt lat="44.98306" lon="9.7787288"><ele>69.66666666666666</ele><time>2026-04-19T06:15:24.893Z</time></trkpt><trkpt lat="44.9829813" lon="9.7786865"><ele>70.0</ele><time>2026-04-19T06:15:26.873Z</time></trkpt><trkpt lat="44.9829114" lon="9.7786476"><ele>70.0</ele><time>2026-04-19T06:15:28.894Z</time></trkpt><trkpt lat="44.9828365" lon="9.7786118"><ele>70.0</ele><time>2026-04-19T06:15:30.896Z</time></trkpt><trkpt lat="44.9827599" lon="9.7785721"><ele>70.0</ele><time>2026-04-19T06:15:32.861Z</time></trkpt><trkpt lat="44.9826853" lon="9.7785427"><ele>70.0</ele><time>2026-04-19T06:15:34.859Z</time></trkpt><trkpt lat="44.9826054" lon="9.7785306"><ele>70.0</ele><time>2026-04-19T06:15:36.881Z</time></trkpt><trkpt lat="44.9825552" lon="9.7784644"><ele>70.0</ele><time>2026-04-19T06:15:38.889Z</time></trkpt><trkpt lat="44.9825582" lon="9.7783323"><ele>70.0</ele><time>2026-04-19T06:15:40.902Z</time></trkpt><trkpt lat="44.9825744" lon="9.7782292"><ele>70.0</ele><time>2026-04-19T06:15:42.867Z</time></trkpt><trkpt lat="44.9825894" lon="9.7781157"><ele>70.0</ele><time>2026-04-19T06:15:44.899Z</time></trkpt><trkpt lat="44.9826019" lon="9.7780078"><ele>70.0</ele><time>2026-04-19T06:15:46.9Z</time></trkpt><trkpt lat="44.9826163" lon="9.7779096"><ele>70.0</ele><time>2026-04-19T06:15:48.904Z</time></trkpt><trkpt lat="44.9826366" lon="9.7777952"><ele>70.0</ele><time>2026-04-19T06:15:50.889Z</time></trkpt><trkpt lat="44.9826556" lon="9.7776797"><ele>70.33333333333333</ele><time>2026-04-19T06:15:52.897Z</time></trkpt><trkpt lat="44.9826762" lon="9.7775667"><ele>70.66666666666666</ele><time>2026-04-19T06:15:54.898Z</time></trkpt><trkpt lat="44.9826974" lon="9.7774562"><ele>71.0</ele><time>2026-04-19T06:15:56.881Z</time></trkpt><trkpt lat="44.9827185" lon="9.7773511"><ele>71.33333333333333</ele><time>2026-04-19T06:15:58.892Z</time></trkpt><trkpt lat="44.9827288" lon="9.7772384"><ele>71.66666666666667</ele><time>2026-04-19T06:16:00.904Z</time></trkpt><trkpt lat="44.9827505" lon="9.7771306"><ele>72.0</ele><time>2026-04-19T06:16:02.9Z</time></trkpt><trkpt lat="44.9827757" lon="9.7770228"><ele>72.0</ele><time>2026-04-19T06:16:04.931Z</time></trkpt><trkpt lat="44.9827982" lon="9.7769159"><ele>72.0</ele><time>2026-04-19T06:16:06.89Z</time></trkpt><trkpt lat="44.9828151" lon="9.7767966"><ele>72.0</ele><time>2026-04-19T06:16:08.91Z</time></trkpt><trkpt lat="44.9828339" lon="9.7766901"><ele>72.0</ele><time>2026-04-19T06:16:10.901Z</time></trkpt><trkpt lat="44.9828565" lon="9.7765818"><ele>72.0</ele><time>2026-04-19T06:16:12.889Z</time></trkpt><trkpt lat="44.9828784" lon="9.7764781"><ele>72.0</ele><time>2026-04-19T06:16:14.901Z</time></trkpt><trkpt lat="44.9828959" lon="9.7763724"><ele>71.83333333333333</ele><time>2026-04-19T06:16:16.9Z</time></trkpt><trkpt lat="44.9829124" lon="9.7762645"><ele>71.66666666666667</ele><time>2026-04-19T06:16:18.901Z</time></trkpt><trkpt lat="44.9829302" lon="9.7761571"><ele>71.5</ele><time>2026-04-19T06:16:20.897Z</time></trkpt><trkpt lat="44.9829515" lon="9.7760504"><ele>71.33333333333334</ele><time>2026-04-19T06:16:22.909Z</time></trkpt><trkpt lat="44.9829716" lon="9.7759384"><ele>71.16666666666667</ele><time>2026-04-19T06:16:24.899Z</time></trkpt><trkpt lat="44.9829848" lon="9.7758355"><ele>71.0</ele><time>2026-04-19T06:16:26.899Z</time></trkpt><trkpt lat="44.9830035" lon="9.7757287"><ele>71.0</ele><time>2026-04-19T06:16:28.902Z</time></trkpt><trkpt lat="44.9830266" lon="9.7756331"><ele>71.0</ele><time>2026-04-19T06:16:30.899Z</time></trkpt><trkpt lat="44.983041" lon="9.7755224"><ele>71.0</ele><time>2026-04-19T06:16:32.89Z</time></trkpt><trkpt lat="44.9830627" lon="9.7754246"><ele>71.0</ele><time>2026-04-19T06:16:34.898Z</time></trkpt><trkpt lat="44.9830789" lon="9.7753138"><ele>71.0</ele><time>2026-04-19T06:16:36.876Z</time></trkpt><trkpt lat="44.9830996" lon="9.7752041"><ele>71.0</ele><time>2026-04-19T06:16:38.894Z</time></trkpt><trkpt lat="44.9831221" lon="9.7750939"><ele>70.83333333333334</ele><time>2026-04-19T06:16:40.895Z</time></trkpt><trkpt lat="44.9831401" lon="9.7749834"><ele>70.66666666666667</ele><time>2026-04-19T06:16:42.894Z</time></trkpt><trkpt lat="44.9831645" lon="9.7748817"><ele>70.5</ele><time>2026-04-19T06:16:44.896Z</time></trkpt><trkpt lat="44.9831806" lon="9.7747656"><ele>70.33333333333333</ele><time>2026-04-19T06:16:46.905Z</time></trkpt><trkpt lat="44.9832032" lon="9.7746552"><ele>70.16666666666666</ele><time>2026-04-19T06:16:48.879Z</time></trkpt><trkpt lat="44.9832214" lon="9.7745571"><ele>70.0</ele><time>2026-04-19T06:16:50.892Z</time></trkpt><trkpt lat="44.983238" lon="9.7744475"><ele>70.16666666666666</ele><time>2026-04-19T06:16:52.89Z</time></trkpt><trkpt lat="44.9832587" lon="9.7743348"><ele>70.33333333333333</ele><time>2026-04-19T06:16:54.9Z</time></trkpt><trkpt lat="44.9832754" lon="9.7742327"><ele>70.5</ele><time>2026-04-19T06:16:56.902Z</time></trkpt><trkpt lat="44.9832965" lon="9.7741287"><ele>70.66666666666667</ele><time>2026-04-19T06:16:58.904Z</time></trkpt><trkpt lat="44.9833142" lon="9.7740182"><ele>70.83333333333334</ele><time>2026-04-19T06:17:00.904Z</time></trkpt><trkpt lat="44.9833347" lon="9.7739153"><ele>71.0</ele><time>2026-04-19T06:17:02.904Z</time></trkpt><trkpt lat="44.9833521" lon="9.773807"><ele>71.16666666666667</ele><time>2026-04-19T06:17:04.897Z</time></trkpt><trkpt lat="44.9833731" lon="9.7736946"><ele>71.33333333333334</ele><time>2026-04-19T06:17:06.907Z</time></trkpt><trkpt lat="44.9833908" lon="9.7735854"><ele>71.5</ele><time>2026-04-19T06:17:08.89Z</time></trkpt><trkpt lat="44.9834076" lon="9.7734757"><ele>71.66666666666667</ele><time>2026-04-19T06:17:10.894Z</time></trkpt><trkpt lat="44.9834272" lon="9.7733653"><ele>71.83333333333333</ele><time>2026-04-19T06:17:12.871Z</time></trkpt><trkpt lat="44.9834441" lon="9.7732652"><ele>72.0</ele><time>2026-04-19T06:17:14.891Z</time></trkpt><trkpt lat="44.9834198" lon="9.7731483"><ele>71.83333333333333</ele><time>2026-04-19T06:17:17.89Z</time></trkpt><trkpt lat="44.9833362" lon="9.7731019"><ele>71.66666666666667</ele><time>2026-04-19T06:17:20.901Z</time></trkpt><trkpt lat="44.9832679" lon="9.7730624"><ele>71.5</ele><time>2026-04-19T06:17:22.899Z</time></trkpt><trkpt lat="44.983192" lon="9.7730303"><ele>71.33333333333334</ele><time>2026-04-19T06:17:24.9Z</time></trkpt><trkpt lat="44.9831201" lon="9.7729989"><ele>71.16666666666667</ele><time>2026-04-19T06:17:26.902Z</time></trkpt><trkpt lat="44.9830438" lon="9.772966"><ele>71.0</ele><time>2026-04-19T06:17:28.899Z</time></trkpt><trkpt lat="44.9829683" lon="9.7729292"><ele>71.0</ele><time>2026-04-19T06:17:30.885Z</time></trkpt><trkpt lat="44.9828882" lon="9.7728826"><ele>71.0</ele><time>2026-04-19T06:17:32.895Z</time></trkpt><trkpt lat="44.982813" lon="9.7728449"><ele>71.0</ele><time>2026-04-19T06:17:34.894Z</time></trkpt><trkpt lat="44.9827394" lon="9.7728014"><ele>71.0</ele><time>2026-04-19T06:17:36.899Z</time></trkpt><trkpt lat="44.9826686" lon="9.7727599"><ele>71.0</ele><time>2026-04-19T06:17:38.897Z</time></trkpt><trkpt lat="44.9825949" lon="9.7727207"><ele>71.0</ele><time>2026-04-19T06:17:40.891Z</time></trkpt><trkpt lat="44.9825251" lon="9.7726822"><ele>71.0</ele><time>2026-04-19T06:17:42.893Z</time></trkpt><trkpt lat="44.9824525" lon="9.772641"><ele>71.0</ele><time>2026-04-19T06:17:44.896Z</time></trkpt><trkpt lat="44.9823806" lon="9.7725964"><ele>71.0</ele><time>2026-04-19T06:17:46.899Z</time></trkpt><trkpt lat="44.9823068" lon="9.7725613"><ele>71.0</ele><time>2026-04-19T06:17:48.908Z</time></trkpt><trkpt lat="44.9822294" lon="9.7725137"><ele>71.0</ele><time>2026-04-19T06:17:50.88Z</time></trkpt><trkpt lat="44.9821526" lon="9.7724704"><ele>71.0</ele><time>2026-04-19T06:17:52.873Z</time></trkpt><trkpt lat="44.982081" lon="9.7724316"><ele>71.0</ele><time>2026-04-19T06:17:54.892Z</time></trkpt><trkpt lat="44.9820114" lon="9.7723918"><ele>71.0</ele><time>2026-04-19T06:17:56.908Z</time></trkpt><trkpt lat="44.9819311" lon="9.7723521"><ele>71.0</ele><time>2026-04-19T06:17:58.899Z</time></trkpt><trkpt lat="44.9818532" lon="9.7723163"><ele>71.0</ele><time>2026-04-19T06:18:00.911Z</time></trkpt><trkpt lat="44.981779" lon="9.7722854"><ele>71.0</ele><time>2026-04-19T06:18:02.897Z</time></trkpt><trkpt lat="44.9817052" lon="9.7722422"><ele>71.0</ele><time>2026-04-19T06:18:04.894Z</time></trkpt><trkpt lat="44.9816275" lon="9.7722003"><ele>71.0</ele><time>2026-04-19T06:18:06.896Z</time></trkpt><trkpt lat="44.9815496" lon="9.7721534"><ele>71.0</ele><time>2026-04-19T06:18:08.894Z</time></trkpt><trkpt lat="44.9814714" lon="9.7721136"><ele>71.0</ele><time>2026-04-19T06:18:10.908Z</time></trkpt><trkpt lat="44.9813919" lon="9.7720712"><ele>71.0</ele><time>2026-04-19T06:18:12.892Z</time></trkpt><trkpt lat="44.9813123" lon="9.7720277"><ele>71.0</ele><time>2026-04-19T06:18:14.9Z</time></trkpt><trkpt lat="44.981233" lon="9.7719794"><ele>71.0</ele><time>2026-04-19T06:18:16.9Z</time></trkpt><trkpt lat="44.9811603" lon="9.7719411"><ele>71.0</ele><time>2026-04-19T06:18:18.895Z</time></trkpt><trkpt lat="44.9810879" lon="9.7719046"><ele>71.0</ele><time>2026-04-19T06:18:20.899Z</time></trkpt><trkpt lat="44.9810076" lon="9.771865"><ele>71.0</ele><time>2026-04-19T06:18:22.915Z</time></trkpt><trkpt lat="44.9809341" lon="9.7718239"><ele>71.0</ele><time>2026-04-19T06:18:24.899Z</time></trkpt><trkpt lat="44.9808564" lon="9.7717782"><ele>71.0</ele><time>2026-04-19T06:18:26.882Z</time></trkpt><trkpt lat="44.9807772" lon="9.771738"><ele>71.0</ele><time>2026-04-19T06:18:28.895Z</time></trkpt><trkpt lat="44.9807036" lon="9.771693"><ele>71.0</ele><time>2026-04-19T06:18:30.88Z</time></trkpt><trkpt lat="44.980626" lon="9.771649"><ele>71.0</ele><time>2026-04-19T06:18:32.893Z</time></trkpt><trkpt lat="44.9805464" lon="9.7716071"><ele>71.0</ele><time>2026-04-19T06:18:34.897Z</time></trkpt><trkpt lat="44.9804662" lon="9.7715688"><ele>71.0</ele><time>2026-04-19T06:18:36.899Z</time></trkpt><trkpt lat="44.9803904" lon="9.77153"><ele>71.0</ele><time>2026-04-19T06:18:38.91Z</time></trkpt><trkpt lat="44.980316" lon="9.771493"><ele>71.0</ele><time>2026-04-19T06:18:40.892Z</time></trkpt><trkpt lat="44.9802395" lon="9.7714495"><ele>71.0</ele><time>2026-04-19T06:18:42.895Z</time></trkpt><trkpt lat="44.980165" lon="9.7714075"><ele>71.0</ele><time>2026-04-19T06:18:44.901Z</time></trkpt><trkpt lat="44.9800861" lon="9.7713616"><ele>71.0</ele><time>2026-04-19T06:18:46.892Z</time></trkpt><trkpt lat="44.9800117" lon="9.7713226"><ele>71.0</ele><time>2026-04-19T06:18:48.893Z</time></trkpt><trkpt lat="44.9799447" lon="9.7712808"><ele>71.0</ele><time>2026-04-19T06:18:50.896Z</time></trkpt><trkpt lat="44.9798688" lon="9.7712376"><ele>71.0</ele><time>2026-04-19T06:18:52.903Z</time></trkpt><trkpt lat="44.9798014" lon="9.7712078"><ele>71.16666666666667</ele><time>2026-04-19T06:18:54.895Z</time></trkpt><trkpt lat="44.9797087" lon="9.7711947"><ele>71.33333333333334</ele><time>2026-04-19T06:18:57.901Z</time></trkpt><trkpt lat="44.9796777" lon="9.7712879"><ele>71.5</ele><time>2026-04-19T06:18:59.904Z</time></trkpt><trkpt lat="44.9796528" lon="9.7714"><ele>71.66666666666667</ele><time>2026-04-19T06:19:01.884Z</time></trkpt><trkpt lat="44.9796245" lon="9.7715104"><ele>71.83333333333333</ele><time>2026-04-19T06:19:03.897Z</time></trkpt><trkpt lat="44.9795924" lon="9.7716264"><ele>72.0</ele><time>2026-04-19T06:19:05.893Z</time></trkpt><trkpt lat="44.979556" lon="9.7717422"><ele>72.0</ele><time>2026-04-19T06:19:07.893Z</time></trkpt><trkpt lat="44.9795337" lon="9.7718522"><ele>72.0</ele><time>2026-04-19T06:19:09.872Z</time></trkpt><trkpt lat="44.979506" lon="9.7719724"><ele>72.0</ele><time>2026-04-19T06:19:11.905Z</time></trkpt><trkpt lat="44.979479" lon="9.7720955"><ele>72.0</ele><time>2026-04-19T06:19:13.89Z</time></trkpt><trkpt lat="44.9794423" lon="9.772196"><ele>72.0</ele><time>2026-04-19T06:19:15.895Z</time></trkpt><trkpt lat="44.9793851" lon="9.7722753"><ele>72.0</ele><time>2026-04-19T06:19:17.9Z</time></trkpt><trkpt lat="44.9792944" lon="9.7722933"><ele>72.2</ele><time>2026-04-19T06:19:19.894Z</time></trkpt><trkpt lat="44.9792051" lon="9.7722317"><ele>72.4</ele><time>2026-04-19T06:19:21.898Z</time></trkpt><trkpt lat="44.9791159" lon="9.7721918"><ele>72.6</ele><time>2026-04-19T06:19:23.886Z</time></trkpt><trkpt lat="44.9790374" lon="9.7721431"><ele>72.8</ele><time>2026-04-19T06:19:25.909Z</time></trkpt><trkpt lat="44.9789575" lon="9.7720825"><ele>73.0</ele><time>2026-04-19T06:19:27.898Z</time></trkpt><trkpt lat="44.9788696" lon="9.7720247"><ele>73.2</ele><time>2026-04-19T06:19:29.898Z</time></trkpt><trkpt lat="44.9787801" lon="9.7719685"><ele>73.4</ele><time>2026-04-19T06:19:31.904Z</time></trkpt><trkpt lat="44.9786834" lon="9.7719223"><ele>73.60000000000001</ele><time>2026-04-19T06:19:33.893Z</time></trkpt><trkpt lat="44.9785995" lon="9.7718671"><ele>73.8</ele><time>2026-04-19T06:19:35.891Z</time></trkpt><trkpt lat="44.9785134" lon="9.7718197"><ele>74.0</ele><time>2026-04-19T06:19:37.877Z</time></trkpt><trkpt lat="44.9784185" lon="9.7717675"><ele>74.2</ele><time>2026-04-19T06:19:39.9Z</time></trkpt><trkpt lat="44.978331" lon="9.7717156"><ele>74.4</ele><time>2026-04-19T06:19:41.899Z</time></trkpt><trkpt lat="44.9782414" lon="9.7716685"><ele>74.6</ele><time>2026-04-19T06:19:43.907Z</time></trkpt><trkpt lat="44.9781439" lon="9.7716225"><ele>74.8</ele><time>2026-04-19T06:19:45.893Z</time></trkpt><trkpt lat="44.9780511" lon="9.7715707"><ele>75.0</ele><time>2026-04-19T06:19:47.91Z</time></trkpt><trkpt lat="44.9779582" lon="9.7715349"><ele>75.0</ele><time>2026-04-19T06:19:49.896Z</time></trkpt><trkpt lat="44.9778631" lon="9.7715031"><ele>75.0</ele><time>2026-04-19T06:19:51.9Z</time></trkpt><trkpt lat="44.9777596" lon="9.7714754"><ele>75.0</ele><time>2026-04-19T06:19:53.897Z</time></trkpt><trkpt lat="44.9776753" lon="9.7714423"><ele>75.0</ele><time>2026-04-19T06:19:55.904Z</time></trkpt><trkpt lat="44.9775812" lon="9.7713993"><ele>75.0</ele><time>2026-04-19T06:19:57.899Z</time></trkpt><trkpt lat="44.9774892" lon="9.7713513"><ele>75.0</ele><time>2026-04-19T06:19:59.899Z</time></trkpt><trkpt lat="44.9773984" lon="9.7713134"><ele>75.0</ele><time>2026-04-19T06:20:01.891Z</time></trkpt><trkpt lat="44.9773085" lon="9.7712699"><ele>75.0</ele><time>2026-04-19T06:20:03.906Z</time></trkpt><trkpt lat="44.9772134" lon="9.7712256"><ele>75.0</ele><time>2026-04-19T06:20:05.898Z</time></trkpt><trkpt lat="44.9771273" lon="9.7711828"><ele>75.0</ele><time>2026-04-19T06:20:07.862Z</time></trkpt><trkpt lat="44.9770369" lon="9.7711399"><ele>75.0</ele><time>2026-04-19T06:20:09.897Z</time></trkpt><trkpt lat="44.9769467" lon="9.7710963"><ele>75.0</ele><time>2026-04-19T06:20:11.894Z</time></trkpt><trkpt lat="44.9768545" lon="9.7710594"><ele>75.0</ele><time>2026-04-19T06:20:13.898Z</time></trkpt><trkpt lat="44.9767655" lon="9.771014"><ele>75.0</ele><time>2026-04-19T06:20:15.9Z</time></trkpt><trkpt lat="44.9766706" lon="9.7709662"><ele>75.0</ele><time>2026-04-19T06:20:17.874Z</time></trkpt><trkpt lat="44.9765771" lon="9.7709277"><ele>74.8</ele><time>2026-04-19T06:20:19.898Z</time></trkpt><trkpt lat="44.9764836" lon="9.7708812"><ele>74.6</ele><time>2026-04-19T06:20:21.902Z</time></trkpt><trkpt lat="44.9763926" lon="9.7708383"><ele>74.4</ele><time>2026-04-19T06:20:23.908Z</time></trkpt><trkpt lat="44.9763039" lon="9.7707944"><ele>74.2</ele><time>2026-04-19T06:20:25.903Z</time></trkpt><trkpt lat="44.9762199" lon="9.7707505"><ele>74.0</ele><time>2026-04-19T06:20:27.9Z</time></trkpt><trkpt lat="44.9761343" lon="9.7707133"><ele>74.0</ele><time>2026-04-19T06:20:29.899Z</time></trkpt><trkpt lat="44.9760402" lon="9.7706637"><ele>74.0</ele><time>2026-04-19T06:20:31.9Z</time></trkpt><trkpt lat="44.9759567" lon="9.7706227"><ele>74.0</ele><time>2026-04-19T06:20:33.899Z</time></trkpt><trkpt lat="44.9758694" lon="9.7705848"><ele>74.0</ele><time>2026-04-19T06:20:35.886Z</time></trkpt><trkpt lat="44.9757764" lon="9.7705484"><ele>74.0</ele><time>2026-04-19T06:20:37.925Z</time></trkpt><trkpt lat="44.9756867" lon="9.7705079"><ele>73.8</ele><time>2026-04-19T06:20:39.907Z</time></trkpt><trkpt lat="44.9755957" lon="9.7704627"><ele>73.60000000000001</ele><time>2026-04-19T06:20:41.906Z</time></trkpt><trkpt lat="44.9755089" lon="9.7704108"><ele>73.4</ele><time>2026-04-19T06:20:43.899Z</time></trkpt><trkpt lat="44.9754279" lon="9.7703296"><ele>73.2</ele><time>2026-04-19T06:20:45.902Z</time></trkpt><trkpt lat="44.9753727" lon="9.7702242"><ele>73.0</ele><time>2026-04-19T06:20:47.893Z</time></trkpt><trkpt lat="44.9753765" lon="9.7700963"><ele>73.0</ele><time>2026-04-19T06:20:49.901Z</time></trkpt><trkpt lat="44.9753827" lon="9.769968"><ele>73.0</ele><time>2026-04-19T06:20:51.894Z</time></trkpt><trkpt lat="44.9753354" lon="9.7698534"><ele>73.0</ele><time>2026-04-19T06:20:53.905Z</time></trkpt><trkpt lat="44.9752578" lon="9.769808"><ele>73.0</ele><time>2026-04-19T06:20:55.904Z</time></trkpt><trkpt lat="44.9751649" lon="9.7697753"><ele>73.0</ele><time>2026-04-19T06:20:57.906Z</time></trkpt><trkpt lat="44.9750744" lon="9.7697375"><ele>73.16666666666666</ele><time>2026-04-19T06:20:59.904Z</time></trkpt><trkpt lat="44.9749877" lon="9.7697049"><ele>73.33333333333333</ele><time>2026-04-19T06:21:01.9Z</time></trkpt><trkpt lat="44.9748984" lon="9.769673"><ele>73.5</ele><time>2026-04-19T06:21:03.876Z</time></trkpt><trkpt lat="44.9748142" lon="9.7696322"><ele>73.66666666666667</ele><time>2026-04-19T06:21:05.898Z</time></trkpt><trkpt lat="44.9747325" lon="9.769594"><ele>73.83333333333334</ele><time>2026-04-19T06:21:07.894Z</time></trkpt><trkpt lat="44.9746526" lon="9.7695679"><ele>74.0</ele><time>2026-04-19T06:21:09.894Z</time></trkpt><trkpt lat="44.9745792" lon="9.7695383"><ele>74.0</ele><time>2026-04-19T06:21:11.897Z</time></trkpt><trkpt lat="44.974502" lon="9.7695513"><ele>74.0</ele><time>2026-04-19T06:21:13.896Z</time></trkpt><trkpt lat="44.9744545" lon="9.769634"><ele>74.0</ele><time>2026-04-19T06:21:15.898Z</time></trkpt><trkpt lat="44.9744238" lon="9.7697473"><ele>74.0</ele><time>2026-04-19T06:21:17.9Z</time></trkpt><trkpt lat="44.974391" lon="9.7698733"><ele>74.0</ele><time>2026-04-19T06:21:19.87Z</time></trkpt><trkpt lat="44.9743663" lon="9.7699978"><ele>74.0</ele><time>2026-04-19T06:21:21.901Z</time></trkpt><trkpt lat="44.9743346" lon="9.7701321"><ele>74.0</ele><time>2026-04-19T06:21:23.902Z</time></trkpt><trkpt lat="44.9743056" lon="9.7702635"><ele>74.0</ele><time>2026-04-19T06:21:25.897Z</time></trkpt><trkpt lat="44.9742738" lon="9.7703926"><ele>74.0</ele><time>2026-04-19T06:21:27.906Z</time></trkpt><trkpt lat="44.9742449" lon="9.7705316"><ele>74.0</ele><time>2026-04-19T06:21:29.902Z</time></trkpt><trkpt lat="44.9742132" lon="9.7706635"><ele>74.0</ele><time>2026-04-19T06:21:31.902Z</time></trkpt><trkpt lat="44.9741893" lon="9.7707999"><ele>74.2</ele><time>2026-04-19T06:21:33.909Z</time></trkpt><trkpt lat="44.9741636" lon="9.7709289"><ele>74.4</ele><time>2026-04-19T06:21:35.894Z</time></trkpt><trkpt lat="44.9741408" lon="9.7710597"><ele>74.6</ele><time>2026-04-19T06:21:37.901Z</time></trkpt><trkpt lat="44.9741224" lon="9.7711971"><ele>74.8</ele><time>2026-04-19T06:21:39.894Z</time></trkpt><trkpt lat="44.9740958" lon="9.771327"><ele>75.0</ele><time>2026-04-19T06:21:41.897Z</time></trkpt><trkpt lat="44.9740674" lon="9.7714546"><ele>75.0</ele><time>2026-04-19T06:21:43.896Z</time></trkpt><trkpt lat="44.9740441" lon="9.7715952"><ele>75.0</ele><time>2026-04-19T06:21:45.898Z</time></trkpt><trkpt lat="44.9740127" lon="9.7717257"><ele>75.0</ele><time>2026-04-19T06:21:47.905Z</time></trkpt><trkpt lat="44.9739915" lon="9.7718587"><ele>75.0</ele><time>2026-04-19T06:21:49.903Z</time></trkpt><trkpt lat="44.9739698" lon="9.7719965"><ele>75.0</ele><time>2026-04-19T06:21:51.901Z</time></trkpt><trkpt lat="44.9739435" lon="9.7721271"><ele>74.8</ele><time>2026-04-19T06:21:53.896Z</time></trkpt><trkpt lat="44.9739095" lon="9.7722577"><ele>74.6</ele><time>2026-04-19T06:21:55.9Z</time></trkpt><trkpt lat="44.9738897" lon="9.7723871"><ele>74.4</ele><time>2026-04-19T06:21:57.894Z</time></trkpt><trkpt lat="44.9738682" lon="9.7725192"><ele>74.2</ele><time>2026-04-19T06:21:59.909Z</time></trkpt><trkpt lat="44.973849" lon="9.7726492"><ele>74.0</ele><time>2026-04-19T06:22:01.895Z</time></trkpt><trkpt lat="44.973827" lon="9.7727775"><ele>74.0</ele><time>2026-04-19T06:22:03.891Z</time></trkpt><trkpt lat="44.9738068" lon="9.7729089"><ele>74.0</ele><time>2026-04-19T06:22:05.917Z</time></trkpt><trkpt lat="44.9737801" lon="9.7730352"><ele>74.0</ele><time>2026-04-19T06:22:07.909Z</time></trkpt><trkpt lat="44.9737554" lon="9.7731618"><ele>74.0</ele><time>2026-04-19T06:22:09.891Z</time></trkpt><trkpt lat="44.9737295" lon="9.7732911"><ele>74.0</ele><time>2026-04-19T06:22:11.898Z</time></trkpt><trkpt lat="44.9737107" lon="9.7734254"><ele>73.60000000000001</ele><time>2026-04-19T06:22:13.894Z</time></trkpt><trkpt lat="44.9736823" lon="9.7735565"><ele>73.2</ele><time>2026-04-19T06:22:15.897Z</time></trkpt><trkpt lat="44.9736598" lon="9.7736863"><ele>72.80000000000001</ele><time>2026-04-19T06:22:17.898Z</time></trkpt><trkpt lat="44.9736371" lon="9.7738155"><ele>72.4</ele><time>2026-04-19T06:22:19.899Z</time></trkpt><trkpt lat="44.9736131" lon="9.7739455"><ele>72.0</ele><time>2026-04-19T06:22:21.895Z</time></trkpt><trkpt lat="44.973595" lon="9.774077"><ele>72.0</ele><time>2026-04-19T06:22:23.908Z</time></trkpt><trkpt lat="44.9735777" lon="9.7742078"><ele>72.0</ele><time>2026-04-19T06:22:25.898Z</time></trkpt><trkpt lat="44.9735478" lon="9.7743369"><ele>72.0</ele><time>2026-04-19T06:22:27.897Z</time></trkpt><trkpt lat="44.9735246" lon="9.7744666"><ele>72.0</ele><time>2026-04-19T06:22:29.872Z</time></trkpt><trkpt lat="44.973507" lon="9.7746026"><ele>72.0</ele><time>2026-04-19T06:22:31.894Z</time></trkpt><trkpt lat="44.9734869" lon="9.7747415"><ele>72.0</ele><time>2026-04-19T06:22:33.901Z</time></trkpt><trkpt lat="44.9734634" lon="9.7748714"><ele>72.0</ele><time>2026-04-19T06:22:35.905Z</time></trkpt><trkpt lat="44.9734445" lon="9.7750104"><ele>72.0</ele><time>2026-04-19T06:22:37.898Z</time></trkpt><trkpt lat="44.9734241" lon="9.7751446"><ele>72.0</ele><time>2026-04-19T06:22:39.9Z</time></trkpt><trkpt lat="44.9734056" lon="9.7752825"><ele>72.0</ele><time>2026-04-19T06:22:41.898Z</time></trkpt><trkpt lat="44.9733828" lon="9.7754123"><ele>72.0</ele><time>2026-04-19T06:22:43.898Z</time></trkpt><trkpt lat="44.9733679" lon="9.775541"><ele>72.0</ele><time>2026-04-19T06:22:45.902Z</time></trkpt><trkpt lat="44.9733439" lon="9.7756701"><ele>72.0</ele><time>2026-04-19T06:22:47.901Z</time></trkpt><trkpt lat="44.9733259" lon="9.7758071"><ele>72.0</ele><time>2026-04-19T06:22:49.871Z</time></trkpt><trkpt lat="44.9733027" lon="9.7759465"><ele>72.0</ele><time>2026-04-19T06:22:51.901Z</time></trkpt><trkpt lat="44.9732873" lon="9.7760869"><ele>72.0</ele><time>2026-04-19T06:22:53.876Z</time></trkpt><trkpt lat="44.9732625" lon="9.7762148"><ele>72.0</ele><time>2026-04-19T06:22:55.9Z</time></trkpt><trkpt lat="44.9732385" lon="9.776352"><ele>72.0</ele><time>2026-04-19T06:22:57.891Z</time></trkpt><trkpt lat="44.973223" lon="9.7764778"><ele>72.0</ele><time>2026-04-19T06:22:59.894Z</time></trkpt><trkpt lat="44.9732049" lon="9.7766193"><ele>72.0</ele><time>2026-04-19T06:23:01.885Z</time></trkpt><trkpt lat="44.9731945" lon="9.7767508"><ele>72.2</ele><time>2026-04-19T06:23:03.905Z</time></trkpt><trkpt lat="44.9731733" lon="9.7768822"><ele>72.4</ele><time>2026-04-19T06:23:05.898Z</time></trkpt><trkpt lat="44.9731526" lon="9.7770075"><ele>72.6</ele><time>2026-04-19T06:23:07.894Z</time></trkpt><trkpt lat="44.9731338" lon="9.777147"><ele>72.8</ele><time>2026-04-19T06:23:09.901Z</time></trkpt><trkpt lat="44.9731111" lon="9.7772826"><ele>73.0</ele><time>2026-04-19T06:23:11.907Z</time></trkpt><trkpt lat="44.9730802" lon="9.7774181"><ele>73.0</ele><time>2026-04-19T06:23:13.9Z</time></trkpt><trkpt lat="44.9730602" lon="9.7775536"><ele>73.0</ele><time>2026-04-19T06:23:15.897Z</time></trkpt><trkpt lat="44.9730364" lon="9.7776919"><ele>73.0</ele><time>2026-04-19T06:23:17.887Z</time></trkpt><trkpt lat="44.9730112" lon="9.7778283"><ele>73.0</ele><time>2026-04-19T06:23:19.905Z</time></trkpt><trkpt lat="44.9729914" lon="9.7779728"><ele>73.0</ele><time>2026-04-19T06:23:21.9Z</time></trkpt><trkpt lat="44.9729728" lon="9.7781054"><ele>72.6</ele><time>2026-04-19T06:23:23.898Z</time></trkpt><trkpt lat="44.9729493" lon="9.7782396"><ele>72.19999999999999</ele><time>2026-04-19T06:23:25.901Z</time></trkpt><trkpt lat="44.9729272" lon="9.7783738"><ele>71.8</ele><time>2026-04-19T06:23:27.908Z</time></trkpt><trkpt lat="44.9729037" lon="9.7785079"><ele>71.39999999999999</ele><time>2026-04-19T06:23:29.899Z</time></trkpt><trkpt lat="44.9728795" lon="9.7786443"><ele>71.0</ele><time>2026-04-19T06:23:31.896Z</time></trkpt><trkpt lat="44.9728523" lon="9.7787797"><ele>71.0</ele><time>2026-04-19T06:23:33.911Z</time></trkpt><trkpt lat="44.9728152" lon="9.7789081"><ele>71.0</ele><time>2026-04-19T06:23:35.901Z</time></trkpt><trkpt lat="44.9727733" lon="9.7790275"><ele>71.0</ele><time>2026-04-19T06:23:37.904Z</time></trkpt><trkpt lat="44.9727421" lon="9.7791544"><ele>71.0</ele><time>2026-04-19T06:23:39.888Z</time></trkpt><trkpt lat="44.9727072" lon="9.779286"><ele>71.0</ele><time>2026-04-19T06:23:41.907Z</time></trkpt><trkpt lat="44.972665" lon="9.7794134"><ele>70.8</ele><time>2026-04-19T06:23:43.899Z</time></trkpt><trkpt lat="44.972622" lon="9.7795364"><ele>70.6</ele><time>2026-04-19T06:23:45.905Z</time></trkpt><trkpt lat="44.9725835" lon="9.779659"><ele>70.4</ele><time>2026-04-19T06:23:47.899Z</time></trkpt><trkpt lat="44.9725442" lon="9.7797778"><ele>70.2</ele><time>2026-04-19T06:23:49.905Z</time></trkpt><trkpt lat="44.9725071" lon="9.7799029"><ele>70.0</ele><time>2026-04-19T06:23:51.899Z</time></trkpt><trkpt lat="44.9724628" lon="9.7800387"><ele>70.4</ele><time>2026-04-19T06:23:53.896Z</time></trkpt><trkpt lat="44.9724264" lon="9.7801557"><ele>70.8</ele><time>2026-04-19T06:23:55.896Z</time></trkpt><trkpt lat="44.9723831" lon="9.7802774"><ele>71.2</ele><time>2026-04-19T06:23:57.9Z</time></trkpt><trkpt lat="44.9723441" lon="9.7803997"><ele>71.6</ele><time>2026-04-19T06:23:59.887Z</time></trkpt><trkpt lat="44.9723098" lon="9.780519"><ele>72.0</ele><time>2026-04-19T06:24:01.871Z</time></trkpt><trkpt lat="44.9722722" lon="9.7806427"><ele>72.0</ele><time>2026-04-19T06:24:03.895Z</time></trkpt><trkpt lat="44.9722292" lon="9.7807596"><ele>72.0</ele><time>2026-04-19T06:24:05.9Z</time></trkpt><trkpt lat="44.9721979" lon="9.7808834"><ele>72.0</ele><time>2026-04-19T06:24:07.897Z</time></trkpt><trkpt lat="44.9721637" lon="9.7810072"><ele>72.0</ele><time>2026-04-19T06:24:09.887Z</time></trkpt><trkpt lat="44.9721314" lon="9.7811198"><ele>72.0</ele><time>2026-04-19T06:24:11.9Z</time></trkpt><trkpt lat="44.9720965" lon="9.7812378"><ele>71.8</ele><time>2026-04-19T06:24:13.901Z</time></trkpt><trkpt lat="44.9720535" lon="9.7813486"><ele>71.6</ele><time>2026-04-19T06:24:15.904Z</time></trkpt><trkpt lat="44.9720208" lon="9.7814701"><ele>71.39999999999999</ele><time>2026-04-19T06:24:17.908Z</time></trkpt><trkpt lat="44.9719848" lon="9.7815896"><ele>71.2</ele><time>2026-04-19T06:24:19.89Z</time></trkpt><trkpt lat="44.9719244" lon="9.7816895"><ele>71.0</ele><time>2026-04-19T06:24:21.887Z</time></trkpt><trkpt lat="44.9718283" lon="9.7817164"><ele>71.0</ele><time>2026-04-19T06:24:23.897Z</time></trkpt><trkpt lat="44.9717312" lon="9.7816894"><ele>71.0</ele><time>2026-04-19T06:24:25.907Z</time></trkpt><trkpt lat="44.9716332" lon="9.7816583"><ele>71.0</ele><time>2026-04-19T06:24:27.905Z</time></trkpt><trkpt lat="44.9715409" lon="9.7816203"><ele>71.0</ele><time>2026-04-19T06:24:29.905Z</time></trkpt><trkpt lat="44.9714424" lon="9.7815876"><ele>71.0</ele><time>2026-04-19T06:24:31.9Z</time></trkpt><trkpt lat="44.9713488" lon="9.7815559"><ele>71.2</ele><time>2026-04-19T06:24:33.902Z</time></trkpt><trkpt lat="44.9712566" lon="9.7815237"><ele>71.39999999999999</ele><time>2026-04-19T06:24:35.902Z</time></trkpt><trkpt lat="44.9711642" lon="9.7814909"><ele>71.6</ele><time>2026-04-19T06:24:37.908Z</time></trkpt><trkpt lat="44.9710794" lon="9.7814564"><ele>71.8</ele><time>2026-04-19T06:24:39.897Z</time></trkpt><trkpt lat="44.9709801" lon="9.7814271"><ele>72.0</ele><time>2026-04-19T06:24:41.903Z</time></trkpt><trkpt lat="44.9708899" lon="9.7813884"><ele>72.33333333333333</ele><time>2026-04-19T06:24:43.904Z</time></trkpt><trkpt lat="44.970796" lon="9.7813527"><ele>72.66666666666667</ele><time>2026-04-19T06:24:45.896Z</time></trkpt><trkpt lat="44.9707082" lon="9.7813202"><ele>73.0</ele><time>2026-04-19T06:24:47.908Z</time></trkpt><trkpt lat="44.9706276" lon="9.7812943"><ele>73.33333333333334</ele><time>2026-04-19T06:24:49.903Z</time></trkpt><trkpt lat="44.9705469" lon="9.7812786"><ele>73.66666666666667</ele><time>2026-04-19T06:24:51.902Z</time></trkpt><trkpt lat="44.970455" lon="9.7813042"><ele>74.0</ele><time>2026-04-19T06:24:53.876Z</time></trkpt><trkpt lat="44.9703788" lon="9.7813824"><ele>74.0</ele><time>2026-04-19T06:24:55.892Z</time></trkpt><trkpt lat="44.9703222" lon="9.7814824"><ele>74.0</ele><time>2026-04-19T06:24:57.9Z</time></trkpt><trkpt lat="44.9702883" lon="9.7816038"><ele>74.0</ele><time>2026-04-19T06:24:59.901Z</time></trkpt><trkpt lat="44.9702587" lon="9.7817203"><ele>74.0</ele><time>2026-04-19T06:25:01.897Z</time></trkpt><trkpt lat="44.9702395" lon="9.7818482"><ele>74.0</ele><time>2026-04-19T06:25:03.892Z</time></trkpt><trkpt lat="44.9702056" lon="9.7819676"><ele>74.0</ele><time>2026-04-19T06:25:05.901Z</time></trkpt><trkpt lat="44.9701887" lon="9.7820918"><ele>74.0</ele><time>2026-04-19T06:25:07.901Z</time></trkpt><trkpt lat="44.9701575" lon="9.7822102"><ele>74.0</ele><time>2026-04-19T06:25:09.895Z</time></trkpt><trkpt lat="44.9701349" lon="9.7823279"><ele>74.0</ele><time>2026-04-19T06:25:11.895Z</time></trkpt><trkpt lat="44.9701189" lon="9.7824485"><ele>74.0</ele><time>2026-04-19T06:25:13.893Z</time></trkpt><trkpt lat="44.9701109" lon="9.7825648"><ele>74.0</ele><time>2026-04-19T06:25:15.896Z</time></trkpt><trkpt lat="44.9700928" lon="9.7826754"><ele>74.0</ele><time>2026-04-19T06:25:17.894Z</time></trkpt><trkpt lat="44.9700822" lon="9.7827862"><ele>74.0</ele><time>2026-04-19T06:25:19.899Z</time></trkpt><trkpt lat="44.9700807" lon="9.7828953"><ele>74.0</ele><time>2026-04-19T06:25:21.903Z</time></trkpt><trkpt lat="44.9700448" lon="9.7829694"><ele>74.0</ele><time>2026-04-19T06:25:24.895Z</time></trkpt><trkpt lat="44.969966" lon="9.7829515"><ele>74.0</ele><time>2026-04-19T06:25:27.902Z</time></trkpt><trkpt lat="44.9698938" lon="9.7829253"><ele>74.0</ele><time>2026-04-19T06:25:29.901Z</time></trkpt><trkpt lat="44.9698242" lon="9.7829045"><ele>74.0</ele><time>2026-04-19T06:25:31.898Z</time></trkpt><trkpt lat="44.9697441" lon="9.7828874"><ele>74.5</ele><time>2026-04-19T06:25:33.891Z</time></trkpt><trkpt lat="44.96966" lon="9.7828711"><ele>75.0</ele><time>2026-04-19T06:25:35.896Z</time></trkpt><trkpt lat="44.9695796" lon="9.7828548"><ele>75.5</ele><time>2026-04-19T06:25:37.893Z</time></trkpt><trkpt lat="44.9694957" lon="9.7828322"><ele>76.0</ele><time>2026-04-19T06:25:39.91Z</time></trkpt><trkpt lat="44.969415" lon="9.7828031"><ele>76.5</ele><time>2026-04-19T06:25:41.897Z</time></trkpt><trkpt lat="44.969331" lon="9.7827722"><ele>77.0</ele><time>2026-04-19T06:25:43.893Z</time></trkpt><trkpt lat="44.9692579" lon="9.7827465"><ele>77.16666666666667</ele><time>2026-04-19T06:25:45.891Z</time></trkpt><trkpt lat="44.9691803" lon="9.7827134"><ele>77.33333333333334</ele><time>2026-04-19T06:25:47.894Z</time></trkpt><trkpt lat="44.9690973" lon="9.7826701"><ele>77.5</ele><time>2026-04-19T06:25:49.904Z</time></trkpt><trkpt lat="44.9690083" lon="9.782638"><ele>77.66666666666667</ele><time>2026-04-19T06:25:51.904Z</time></trkpt><trkpt lat="44.9689221" lon="9.7825927"><ele>77.83333333333333</ele><time>2026-04-19T06:25:53.877Z</time></trkpt><trkpt lat="44.9688329" lon="9.7825516"><ele>78.0</ele><time>2026-04-19T06:25:55.898Z</time></trkpt><trkpt lat="44.9687414" lon="9.7825076"><ele>78.0</ele><time>2026-04-19T06:25:57.897Z</time></trkpt><trkpt lat="44.9686562" lon="9.7824669"><ele>78.0</ele><time>2026-04-19T06:25:59.898Z</time></trkpt><trkpt lat="44.9685628" lon="9.782443"><ele>78.0</ele><time>2026-04-19T06:26:01.895Z</time></trkpt><trkpt lat="44.9684765" lon="9.7823971"><ele>78.0</ele><time>2026-04-19T06:26:03.902Z</time></trkpt><trkpt lat="44.9683961" lon="9.782348"><ele>78.0</ele><time>2026-04-19T06:26:05.893Z</time></trkpt><trkpt lat="44.9683191" lon="9.7822994"><ele>78.0</ele><time>2026-04-19T06:26:07.866Z</time></trkpt><trkpt lat="44.9682284" lon="9.7822537"><ele>77.8</ele><time>2026-04-19T06:26:09.895Z</time></trkpt><trkpt lat="44.9681408" lon="9.7822192"><ele>77.6</ele><time>2026-04-19T06:26:11.897Z</time></trkpt><trkpt lat="44.968045" lon="9.7821858"><ele>77.4</ele><time>2026-04-19T06:26:13.899Z</time></trkpt><trkpt lat="44.967957" lon="9.7821421"><ele>77.2</ele><time>2026-04-19T06:26:15.908Z</time></trkpt><trkpt lat="44.9678667" lon="9.7821045"><ele>77.0</ele><time>2026-04-19T06:26:17.895Z</time></trkpt><trkpt lat="44.9677751" lon="9.7820657"><ele>77.0</ele><time>2026-04-19T06:26:19.894Z</time></trkpt><trkpt lat="44.9676845" lon="9.7820206"><ele>77.0</ele><time>2026-04-19T06:26:21.914Z</time></trkpt><trkpt lat="44.9675958" lon="9.7819763"><ele>77.0</ele><time>2026-04-19T06:26:23.895Z</time></trkpt><trkpt lat="44.9675074" lon="9.7819293"><ele>77.0</ele><time>2026-04-19T06:26:25.895Z</time></trkpt><trkpt lat="44.9674239" lon="9.7818768"><ele>77.0</ele><time>2026-04-19T06:26:27.896Z</time></trkpt><trkpt lat="44.967337" lon="9.7818445"><ele>77.0</ele><time>2026-04-19T06:26:29.898Z</time></trkpt><trkpt lat="44.9672591" lon="9.7817991"><ele>77.0</ele><time>2026-04-19T06:26:31.904Z</time></trkpt><trkpt lat="44.9671571" lon="9.7817566"><ele>77.0</ele><time>2026-04-19T06:26:33.906Z</time></trkpt><trkpt lat="44.9670674" lon="9.7817161"><ele>77.0</ele><time>2026-04-19T06:26:35.902Z</time></trkpt><trkpt lat="44.9669707" lon="9.7816733"><ele>77.0</ele><time>2026-04-19T06:26:37.865Z</time></trkpt><trkpt lat="44.9668841" lon="9.7816523"><ele>77.0</ele><time>2026-04-19T06:26:39.885Z</time></trkpt><trkpt lat="44.9668095" lon="9.7816109"><ele>77.0</ele><time>2026-04-19T06:26:41.899Z</time></trkpt><trkpt lat="44.9667245" lon="9.78163"><ele>77.0</ele><time>2026-04-19T06:26:43.897Z</time></trkpt><trkpt lat="44.9666731" lon="9.7817282"><ele>77.0</ele><time>2026-04-19T06:26:45.899Z</time></trkpt><trkpt lat="44.9666251" lon="9.7818336"><ele>77.0</ele><time>2026-04-19T06:26:47.892Z</time></trkpt><trkpt lat="44.9665786" lon="9.7819473"><ele>77.0</ele><time>2026-04-19T06:26:49.893Z</time></trkpt><trkpt lat="44.966529" lon="9.7820399"><ele>77.0</ele><time>2026-04-19T06:26:51.886Z</time></trkpt><trkpt lat="44.9664752" lon="9.7820977"><ele>77.0</ele><time>2026-04-19T06:26:53.897Z</time></trkpt><trkpt lat="44.9664139" lon="9.7821396"><ele>77.0</ele><time>2026-04-19T06:26:55.901Z</time></trkpt><trkpt lat="44.966338" lon="9.7821462"><ele>77.0</ele><time>2026-04-19T06:26:57.894Z</time></trkpt><trkpt lat="44.9662696" lon="9.7821395"><ele>77.0</ele><time>2026-04-19T06:26:59.894Z</time></trkpt><trkpt lat="44.9662052" lon="9.7821268"><ele>77.0</ele><time>2026-04-19T06:27:01.898Z</time></trkpt><trkpt lat="44.9661229" lon="9.7820983"><ele>77.0</ele><time>2026-04-19T06:27:04.89Z</time></trkpt><trkpt lat="44.9660355" lon="9.7820757"><ele>77.0</ele><time>2026-04-19T06:27:07.888Z</time></trkpt><trkpt lat="44.965945" lon="9.7820587"><ele>77.0</ele><time>2026-04-19T06:27:10.892Z</time></trkpt><trkpt lat="44.9658583" lon="9.7820529"><ele>77.0</ele><time>2026-04-19T06:27:13.892Z</time></trkpt><trkpt lat="44.9657904" lon="9.7820352"><ele>77.0</ele><time>2026-04-19T06:27:15.898Z</time></trkpt><trkpt lat="44.9657264" lon="9.7820154"><ele>77.0</ele><time>2026-04-19T06:27:17.901Z</time></trkpt><trkpt lat="44.9656613" lon="9.781999"><ele>77.0</ele><time>2026-04-19T06:27:19.881Z</time></trkpt><trkpt lat="44.9655976" lon="9.7819871"><ele>77.0</ele><time>2026-04-19T06:27:21.912Z</time></trkpt><trkpt lat="44.9655314" lon="9.7819699"><ele>77.16666666666667</ele><time>2026-04-19T06:27:23.907Z</time></trkpt><trkpt lat="44.9654627" lon="9.7819545"><ele>77.33333333333334</ele><time>2026-04-19T06:27:25.902Z</time></trkpt><trkpt lat="44.9653974" lon="9.7819506"><ele>77.5</ele><time>2026-04-19T06:27:27.89Z</time></trkpt><trkpt lat="44.9653213" lon="9.7819443"><ele>77.66666666666667</ele><time>2026-04-19T06:27:29.896Z</time></trkpt><trkpt lat="44.9652486" lon="9.7819289"><ele>77.83333333333333</ele><time>2026-04-19T06:27:31.903Z</time></trkpt><trkpt lat="44.9651523" lon="9.7819057"><ele>78.0</ele><time>2026-04-19T06:27:34.893Z</time></trkpt><trkpt lat="44.9650837" lon="9.7818859"><ele>78.0</ele><time>2026-04-19T06:27:36.913Z</time></trkpt><trkpt lat="44.965004" lon="9.7818853"><ele>78.0</ele><time>2026-04-19T06:27:38.886Z</time></trkpt><trkpt lat="44.9649358" lon="9.7818621"><ele>78.0</ele><time>2026-04-19T06:27:40.896Z</time></trkpt><trkpt lat="44.9648673" lon="9.7818434"><ele>78.0</ele><time>2026-04-19T06:27:42.903Z</time></trkpt><trkpt lat="44.9647945" lon="9.7818376"><ele>78.0</ele><time>2026-04-19T06:27:44.895Z</time></trkpt><trkpt lat="44.9647139" lon="9.7818312"><ele>78.0</ele><time>2026-04-19T06:27:46.892Z</time></trkpt><trkpt lat="44.9646363" lon="9.7818183"><ele>78.0</ele><time>2026-04-19T06:27:48.907Z</time></trkpt><trkpt lat="44.9645666" lon="9.7818061"><ele>78.0</ele><time>2026-04-19T06:27:50.919Z</time></trkpt><trkpt lat="44.9644912" lon="9.7817823"><ele>78.0</ele><time>2026-04-19T06:27:52.891Z</time></trkpt><trkpt lat="44.9644152" lon="9.7817797"><ele>78.0</ele><time>2026-04-19T06:27:54.893Z</time></trkpt><trkpt lat="44.9643411" lon="9.7817662"><ele>78.0</ele><time>2026-04-19T06:27:56.906Z</time></trkpt><trkpt lat="44.9642666" lon="9.781751"><ele>78.0</ele><time>2026-04-19T06:27:58.881Z</time></trkpt><trkpt lat="44.9641892" lon="9.7817333"><ele>77.66666666666667</ele><time>2026-04-19T06:28:00.9Z</time></trkpt><trkpt lat="44.9641137" lon="9.7817087"><ele>77.33333333333333</ele><time>2026-04-19T06:28:02.897Z</time></trkpt><trkpt lat="44.9640389" lon="9.7816898"><ele>77.0</ele><time>2026-04-19T06:28:04.901Z</time></trkpt><trkpt lat="44.9639666" lon="9.7816713"><ele>76.66666666666666</ele><time>2026-04-19T06:28:06.896Z</time></trkpt><trkpt lat="44.9638952" lon="9.7816642"><ele>76.33333333333333</ele><time>2026-04-19T06:28:08.895Z</time></trkpt><trkpt lat="44.9638199" lon="9.7816548"><ele>76.0</ele><time>2026-04-19T06:28:10.897Z</time></trkpt><trkpt lat="44.9637419" lon="9.781646"><ele>76.0</ele><time>2026-04-19T06:28:12.884Z</time></trkpt><trkpt lat="44.9636672" lon="9.7816306"><ele>76.0</ele><time>2026-04-19T06:28:14.9Z</time></trkpt><trkpt lat="44.9635927" lon="9.7816131"><ele>76.0</ele><time>2026-04-19T06:28:16.896Z</time></trkpt><trkpt lat="44.9635241" lon="9.7815967"><ele>76.0</ele><time>2026-04-19T06:28:18.874Z</time></trkpt><trkpt lat="44.9634475" lon="9.7815946"><ele>76.0</ele><time>2026-04-19T06:28:20.908Z</time></trkpt><trkpt lat="44.9633641" lon="9.7815915"><ele>76.0</ele><time>2026-04-19T06:28:22.903Z</time></trkpt><trkpt lat="44.9632858" lon="9.7815768"><ele>76.33333333333333</ele><time>2026-04-19T06:28:24.911Z</time></trkpt><trkpt lat="44.9632081" lon="9.7815664"><ele>76.66666666666666</ele><time>2026-04-19T06:28:26.909Z</time></trkpt><trkpt lat="44.963121" lon="9.7815477"><ele>77.0</ele><time>2026-04-19T06:28:28.907Z</time></trkpt><trkpt lat="44.9630404" lon="9.7815313"><ele>77.33333333333333</ele><time>2026-04-19T06:28:30.89Z</time></trkpt><trkpt lat="44.9629649" lon="9.78152"><ele>77.66666666666667</ele><time>2026-04-19T06:28:32.9Z</time></trkpt><trkpt lat="44.9628853" lon="9.7815065"><ele>78.0</ele><time>2026-04-19T06:28:34.874Z</time></trkpt><trkpt lat="44.9628004" lon="9.7814925"><ele>78.0</ele><time>2026-04-19T06:28:36.893Z</time></trkpt><trkpt lat="44.9627168" lon="9.781477"><ele>78.0</ele><time>2026-04-19T06:28:38.892Z</time></trkpt><trkpt lat="44.962634" lon="9.7814578"><ele>78.0</ele><time>2026-04-19T06:28:40.913Z</time></trkpt><trkpt lat="44.9625527" lon="9.7814461"><ele>78.0</ele><time>2026-04-19T06:28:42.897Z</time></trkpt><trkpt lat="44.9624655" lon="9.7814306"><ele>78.0</ele><time>2026-04-19T06:28:44.9Z</time></trkpt><trkpt lat="44.9623852" lon="9.7814115"><ele>78.0</ele><time>2026-04-19T06:28:46.892Z</time></trkpt><trkpt lat="44.9623072" lon="9.7814034"><ele>77.66666666666667</ele><time>2026-04-19T06:28:48.913Z</time></trkpt><trkpt lat="44.9622226" lon="9.781385"><ele>77.33333333333333</ele><time>2026-04-19T06:28:50.898Z</time></trkpt><trkpt lat="44.9621427" lon="9.7813678"><ele>77.0</ele><time>2026-04-19T06:28:52.903Z</time></trkpt><trkpt lat="44.9620583" lon="9.7813572"><ele>76.66666666666666</ele><time>2026-04-19T06:28:54.892Z</time></trkpt><trkpt lat="44.9619755" lon="9.781343"><ele>76.33333333333333</ele><time>2026-04-19T06:28:56.905Z</time></trkpt><trkpt lat="44.9618952" lon="9.7813258"><ele>76.0</ele><time>2026-04-19T06:28:58.897Z</time></trkpt><trkpt lat="44.9618117" lon="9.7813071"><ele>76.0</ele><time>2026-04-19T06:29:00.904Z</time></trkpt><trkpt lat="44.9617303" lon="9.7812884"><ele>76.0</ele><time>2026-04-19T06:29:02.9Z</time></trkpt><trkpt lat="44.961636" lon="9.7812677"><ele>76.0</ele><time>2026-04-19T06:29:04.902Z</time></trkpt><trkpt lat="44.9615499" lon="9.7812583"><ele>76.0</ele><time>2026-04-19T06:29:06.893Z</time></trkpt><trkpt lat="44.9614639" lon="9.7812384"><ele>76.0</ele><time>2026-04-19T06:29:08.902Z</time></trkpt><trkpt lat="44.9613851" lon="9.7812196"><ele>76.0</ele><time>2026-04-19T06:29:10.895Z</time></trkpt><trkpt lat="44.9613037" lon="9.7812"><ele>76.0</ele><time>2026-04-19T06:29:12.897Z</time></trkpt><trkpt lat="44.9612228" lon="9.7811884"><ele>76.0</ele><time>2026-04-19T06:29:14.896Z</time></trkpt><trkpt lat="44.9611386" lon="9.7811731"><ele>76.0</ele><time>2026-04-19T06:29:16.9Z</time></trkpt><trkpt lat="44.9610493" lon="9.7811569"><ele>76.0</ele><time>2026-04-19T06:29:18.9Z</time></trkpt><trkpt lat="44.9609585" lon="9.781144"><ele>76.0</ele><time>2026-04-19T06:29:20.891Z</time></trkpt><trkpt lat="44.9608743" lon="9.7811352"><ele>76.0</ele><time>2026-04-19T06:29:22.898Z</time></trkpt><trkpt lat="44.9607883" lon="9.7811207"><ele>76.33333333333333</ele><time>2026-04-19T06:29:24.908Z</time></trkpt><trkpt lat="44.9607074" lon="9.7810992"><ele>76.66666666666666</ele><time>2026-04-19T06:29:26.903Z</time></trkpt><trkpt lat="44.9606182" lon="9.7810757"><ele>77.0</ele><time>2026-04-19T06:29:28.904Z</time></trkpt><trkpt lat="44.9605259" lon="9.7810549"><ele>77.33333333333333</ele><time>2026-04-19T06:29:30.89Z</time></trkpt><trkpt lat="44.9604345" lon="9.7810426"><ele>77.66666666666667</ele><time>2026-04-19T06:29:32.896Z</time></trkpt><trkpt lat="44.9603451" lon="9.7810234"><ele>78.0</ele><time>2026-04-19T06:29:34.891Z</time></trkpt><trkpt lat="44.9602624" lon="9.7809943"><ele>78.16666666666667</ele><time>2026-04-19T06:29:36.895Z</time></trkpt><trkpt lat="44.9601744" lon="9.7809664"><ele>78.33333333333333</ele><time>2026-04-19T06:29:38.879Z</time></trkpt><trkpt lat="44.9600872" lon="9.7809445"><ele>78.5</ele><time>2026-04-19T06:29:40.886Z</time></trkpt><trkpt lat="44.9600045" lon="9.7809216"><ele>78.66666666666666</ele><time>2026-04-19T06:29:42.89Z</time></trkpt><trkpt lat="44.9599223" lon="9.7809034"><ele>78.83333333333333</ele><time>2026-04-19T06:29:44.905Z</time></trkpt><trkpt lat="44.959845" lon="9.7808855"><ele>79.0</ele><time>2026-04-19T06:29:46.9Z</time></trkpt><trkpt lat="44.9597654" lon="9.7808596"><ele>79.16666666666666</ele><time>2026-04-19T06:29:48.897Z</time></trkpt><trkpt lat="44.9596829" lon="9.7808403"><ele>79.33333333333333</ele><time>2026-04-19T06:29:50.894Z</time></trkpt><trkpt lat="44.9596062" lon="9.7808151"><ele>79.5</ele><time>2026-04-19T06:29:52.893Z</time></trkpt><trkpt lat="44.9595221" lon="9.7808087"><ele>79.66666666666667</ele><time>2026-04-19T06:29:54.899Z</time></trkpt><trkpt lat="44.9594445" lon="9.7807898"><ele>79.83333333333334</ele><time>2026-04-19T06:29:56.912Z</time></trkpt><trkpt lat="44.959365" lon="9.7807656"><ele>80.0</ele><time>2026-04-19T06:29:58.902Z</time></trkpt><trkpt lat="44.9592766" lon="9.7807447"><ele>79.66666666666667</ele><time>2026-04-19T06:30:00.907Z</time></trkpt><trkpt lat="44.9591922" lon="9.780727"><ele>79.33333333333334</ele><time>2026-04-19T06:30:02.914Z</time></trkpt><trkpt lat="44.9591067" lon="9.7807136"><ele>79.0</ele><time>2026-04-19T06:30:04.899Z</time></trkpt><trkpt lat="44.9590259" lon="9.7806836"><ele>78.66666666666667</ele><time>2026-04-19T06:30:06.901Z</time></trkpt><trkpt lat="44.9589448" lon="9.7806652"><ele>78.33333333333333</ele><time>2026-04-19T06:30:08.899Z</time></trkpt><trkpt lat="44.9588636" lon="9.7806415"><ele>78.0</ele><time>2026-04-19T06:30:10.887Z</time></trkpt><trkpt lat="44.9587787" lon="9.7806216"><ele>78.0</ele><time>2026-04-19T06:30:12.898Z</time></trkpt><trkpt lat="44.9586998" lon="9.7806063"><ele>78.0</ele><time>2026-04-19T06:30:14.902Z</time></trkpt><trkpt lat="44.9586182" lon="9.7805857"><ele>78.0</ele><time>2026-04-19T06:30:16.894Z</time></trkpt><trkpt lat="44.9585416" lon="9.780558"><ele>78.0</ele><time>2026-04-19T06:30:18.901Z</time></trkpt><trkpt lat="44.9584567" lon="9.7805373"><ele>78.0</ele><time>2026-04-19T06:30:20.903Z</time></trkpt><trkpt lat="44.9583728" lon="9.780522"><ele>78.0</ele><time>2026-04-19T06:30:22.895Z</time></trkpt><trkpt lat="44.9583037" lon="9.7805079"><ele>78.16666666666667</ele><time>2026-04-19T06:30:24.903Z</time></trkpt><trkpt lat="44.958226" lon="9.7804757"><ele>78.33333333333333</ele><time>2026-04-19T06:30:26.902Z</time></trkpt><trkpt lat="44.9581413" lon="9.7804522"><ele>78.5</ele><time>2026-04-19T06:30:28.904Z</time></trkpt><trkpt lat="44.9580543" lon="9.7804156"><ele>78.66666666666666</ele><time>2026-04-19T06:30:30.898Z</time></trkpt><trkpt lat="44.957974" lon="9.780389"><ele>78.83333333333333</ele><time>2026-04-19T06:30:32.9Z</time></trkpt><trkpt lat="44.9578926" lon="9.7803695"><ele>79.0</ele><time>2026-04-19T06:30:34.905Z</time></trkpt><trkpt lat="44.9578092" lon="9.7803536"><ele>79.0</ele><time>2026-04-19T06:30:36.901Z</time></trkpt><trkpt lat="44.9577276" lon="9.7803307"><ele>79.0</ele><time>2026-04-19T06:30:38.897Z</time></trkpt><trkpt lat="44.9576519" lon="9.7803122"><ele>79.0</ele><time>2026-04-19T06:30:40.881Z</time></trkpt><trkpt lat="44.9575704" lon="9.7802953"><ele>79.0</ele><time>2026-04-19T06:30:42.906Z</time></trkpt><trkpt lat="44.9574917" lon="9.7802871"><ele>79.0</ele><time>2026-04-19T06:30:44.902Z</time></trkpt><trkpt lat="44.9574148" lon="9.7802698"><ele>79.0</ele><time>2026-04-19T06:30:46.895Z</time></trkpt><trkpt lat="44.9573372" lon="9.780247"><ele>79.16666666666666</ele><time>2026-04-19T06:30:48.906Z</time></trkpt><trkpt lat="44.9572499" lon="9.7802256"><ele>79.33333333333333</ele><time>2026-04-19T06:30:50.887Z</time></trkpt><trkpt lat="44.9571639" lon="9.7801998"><ele>79.5</ele><time>2026-04-19T06:30:52.893Z</time></trkpt><trkpt lat="44.9570823" lon="9.7801842"><ele>79.66666666666667</ele><time>2026-04-19T06:30:54.896Z</time></trkpt><trkpt lat="44.9569989" lon="9.7801633"><ele>79.83333333333334</ele><time>2026-04-19T06:30:56.9Z</time></trkpt><trkpt lat="44.9569197" lon="9.7801539"><ele>80.0</ele><time>2026-04-19T06:30:58.894Z</time></trkpt><trkpt lat="44.9568346" lon="9.7801389"><ele>80.0</ele><time>2026-04-19T06:31:00.899Z</time></trkpt><trkpt lat="44.9567477" lon="9.7801332"><ele>80.0</ele><time>2026-04-19T06:31:02.881Z</time></trkpt><trkpt lat="44.9566624" lon="9.7801136"><ele>80.0</ele><time>2026-04-19T06:31:04.903Z</time></trkpt><trkpt lat="44.9565752" lon="9.780091"><ele>80.0</ele><time>2026-04-19T06:31:06.914Z</time></trkpt><trkpt lat="44.9564919" lon="9.7800684"><ele>80.0</ele><time>2026-04-19T06:31:08.899Z</time></trkpt><trkpt lat="44.9564081" lon="9.7800422"><ele>80.0</ele><time>2026-04-19T06:31:10.901Z</time></trkpt><trkpt lat="44.9563349" lon="9.7800149"><ele>80.16666666666667</ele><time>2026-04-19T06:31:12.901Z</time></trkpt><trkpt lat="44.9562598" lon="9.7799798"><ele>80.33333333333334</ele><time>2026-04-19T06:31:14.877Z</time></trkpt><trkpt lat="44.9561833" lon="9.7799574"><ele>80.5</ele><time>2026-04-19T06:31:16.896Z</time></trkpt><trkpt lat="44.9561022" lon="9.7799408"><ele>80.66666666666667</ele><time>2026-04-19T06:31:18.905Z</time></trkpt><trkpt lat="44.9560159" lon="9.7799467"><ele>80.83333333333333</ele><time>2026-04-19T06:31:20.892Z</time></trkpt><trkpt lat="44.9559378" lon="9.779992"><ele>81.0</ele><time>2026-04-19T06:31:22.898Z</time></trkpt><trkpt lat="44.9558706" lon="9.7800613"><ele>81.16666666666667</ele><time>2026-04-19T06:31:24.904Z</time></trkpt><trkpt lat="44.9558103" lon="9.7801542"><ele>81.33333333333333</ele><time>2026-04-19T06:31:26.898Z</time></trkpt><trkpt lat="44.955769" lon="9.7802483"><ele>81.5</ele><time>2026-04-19T06:31:28.896Z</time></trkpt><trkpt lat="44.9557285" lon="9.7803531"><ele>81.66666666666666</ele><time>2026-04-19T06:31:30.896Z</time></trkpt><trkpt lat="44.9556954" lon="9.7804554"><ele>81.83333333333333</ele><time>2026-04-19T06:31:32.918Z</time></trkpt><trkpt lat="44.9556721" lon="9.7805774"><ele>82.0</ele><time>2026-04-19T06:31:34.898Z</time></trkpt><trkpt lat="44.9556568" lon="9.7806874"><ele>82.0</ele><time>2026-04-19T06:31:36.907Z</time></trkpt><trkpt lat="44.9556379" lon="9.7808028"><ele>82.0</ele><time>2026-04-19T06:31:38.891Z</time></trkpt><trkpt lat="44.9556215" lon="9.7809146"><ele>82.0</ele><time>2026-04-19T06:31:40.897Z</time></trkpt><trkpt lat="44.9556002" lon="9.7810213"><ele>82.0</ele><time>2026-04-19T06:31:42.903Z</time></trkpt><trkpt lat="44.9555828" lon="9.7811352"><ele>82.0</ele><time>2026-04-19T06:31:44.904Z</time></trkpt><trkpt lat="44.9555602" lon="9.7812388"><ele>82.0</ele><time>2026-04-19T06:31:46.898Z</time></trkpt><trkpt lat="44.9555388" lon="9.781355"><ele>82.0</ele><time>2026-04-19T06:31:48.894Z</time></trkpt><trkpt lat="44.9555246" lon="9.7814698"><ele>82.0</ele><time>2026-04-19T06:31:50.902Z</time></trkpt><trkpt lat="44.9555042" lon="9.7815813"><ele>82.0</ele><time>2026-04-19T06:31:52.872Z</time></trkpt><trkpt lat="44.9554825" lon="9.781699"><ele>82.0</ele><time>2026-04-19T06:31:54.897Z</time></trkpt><trkpt lat="44.9554661" lon="9.7818089"><ele>82.0</ele><time>2026-04-19T06:31:56.897Z</time></trkpt><trkpt lat="44.9554501" lon="9.7819227"><ele>82.0</ele><time>2026-04-19T06:31:58.896Z</time></trkpt><trkpt lat="44.9554315" lon="9.7820346"><ele>82.0</ele><time>2026-04-19T06:32:00.894Z</time></trkpt><trkpt lat="44.9554133" lon="9.7821532"><ele>82.0</ele><time>2026-04-19T06:32:02.892Z</time></trkpt><trkpt lat="44.9553941" lon="9.7822739"><ele>82.0</ele><time>2026-04-19T06:32:04.903Z</time></trkpt><trkpt lat="44.9553727" lon="9.7823834"><ele>82.0</ele><time>2026-04-19T06:32:06.899Z</time></trkpt><trkpt lat="44.9553483" lon="9.7824952"><ele>82.0</ele><time>2026-04-19T06:32:08.895Z</time></trkpt><trkpt lat="44.9553243" lon="9.7826088"><ele>82.0</ele><time>2026-04-19T06:32:10.897Z</time></trkpt><trkpt lat="44.9553058" lon="9.7827168"><ele>81.83333333333333</ele><time>2026-04-19T06:32:12.904Z</time></trkpt><trkpt lat="44.9552793" lon="9.7828284"><ele>81.66666666666666</ele><time>2026-04-19T06:32:14.903Z</time></trkpt><trkpt lat="44.955255" lon="9.7829541"><ele>81.5</ele><time>2026-04-19T06:32:16.892Z</time></trkpt><trkpt lat="44.9552336" lon="9.7830664"><ele>81.33333333333333</ele><time>2026-04-19T06:32:18.926Z</time></trkpt><trkpt lat="44.9552113" lon="9.7831975"><ele>81.16666666666667</ele><time>2026-04-19T06:32:20.903Z</time></trkpt><trkpt lat="44.9551872" lon="9.7833114"><ele>81.0</ele><time>2026-04-19T06:32:22.896Z</time></trkpt><trkpt lat="44.9551595" lon="9.7834283"><ele>81.0</ele><time>2026-04-19T06:32:24.89Z</time></trkpt><trkpt lat="44.9551385" lon="9.7835517"><ele>81.0</ele><time>2026-04-19T06:32:26.901Z</time></trkpt><trkpt lat="44.9551072" lon="9.7836642"><ele>81.0</ele><time>2026-04-19T06:32:28.907Z</time></trkpt><trkpt lat="44.9550867" lon="9.7837879"><ele>81.0</ele><time>2026-04-19T06:32:30.898Z</time></trkpt><trkpt lat="44.9550684" lon="9.7839089"><ele>81.0</ele><time>2026-04-19T06:32:32.885Z</time></trkpt><trkpt lat="44.9550484" lon="9.7840276"><ele>81.0</ele><time>2026-04-19T06:32:34.905Z</time></trkpt><trkpt lat="44.955008" lon="9.7841175"><ele>81.0</ele><time>2026-04-19T06:32:36.902Z</time></trkpt><trkpt lat="44.9549383" lon="9.7840892"><ele>81.0</ele><time>2026-04-19T06:32:38.86Z</time></trkpt><trkpt lat="44.9548589" lon="9.7840662"><ele>81.0</ele><time>2026-04-19T06:32:40.889Z</time></trkpt><trkpt lat="44.9547901" lon="9.7840464"><ele>81.0</ele><time>2026-04-19T06:32:42.892Z</time></trkpt><trkpt lat="44.9547214" lon="9.7840305"><ele>81.0</ele><time>2026-04-19T06:32:44.903Z</time></trkpt><trkpt lat="44.9546512" lon="9.7840182"><ele>81.0</ele><time>2026-04-19T06:32:46.889Z</time></trkpt><trkpt lat="44.954573" lon="9.7839984"><ele>81.0</ele><time>2026-04-19T06:32:48.873Z</time></trkpt><trkpt lat="44.9544947" lon="9.7839869"><ele>81.0</ele><time>2026-04-19T06:32:50.892Z</time></trkpt><trkpt lat="44.95442" lon="9.783974"><ele>81.0</ele><time>2026-04-19T06:32:52.891Z</time></trkpt><trkpt lat="44.9543387" lon="9.7839611"><ele>81.0</ele><time>2026-04-19T06:32:54.901Z</time></trkpt><trkpt lat="44.9542672" lon="9.7839435"><ele>81.0</ele><time>2026-04-19T06:32:56.902Z</time></trkpt><trkpt lat="44.9541941" lon="9.7839238"><ele>81.0</ele><time>2026-04-19T06:32:58.894Z</time></trkpt><trkpt lat="44.9541177" lon="9.7838973"><ele>81.0</ele><time>2026-04-19T06:33:00.897Z</time></trkpt><trkpt lat="44.9540461" lon="9.7838833"><ele>81.0</ele><time>2026-04-19T06:33:02.894Z</time></trkpt><trkpt lat="44.9539683" lon="9.7838645"><ele>81.0</ele><time>2026-04-19T06:33:04.894Z</time></trkpt><trkpt lat="44.9538892" lon="9.7838528"><ele>81.0</ele><time>2026-04-19T06:33:06.906Z</time></trkpt><trkpt lat="44.9538077" lon="9.7838367"><ele>81.0</ele><time>2026-04-19T06:33:08.897Z</time></trkpt><trkpt lat="44.9537244" lon="9.7838175"><ele>81.0</ele><time>2026-04-19T06:33:10.893Z</time></trkpt><trkpt lat="44.9536431" lon="9.7838006"><ele>81.0</ele><time>2026-04-19T06:33:12.901Z</time></trkpt><trkpt lat="44.9535731" lon="9.783788"><ele>81.0</ele><time>2026-04-19T06:33:14.904Z</time></trkpt><trkpt lat="44.9534975" lon="9.7837748"><ele>81.0</ele><time>2026-04-19T06:33:16.902Z</time></trkpt><trkpt lat="44.9534234" lon="9.7837627"><ele>81.0</ele><time>2026-04-19T06:33:18.903Z</time></trkpt><trkpt lat="44.9533504" lon="9.7837441"><ele>81.0</ele><time>2026-04-19T06:33:20.891Z</time></trkpt><trkpt lat="44.9532733" lon="9.7837259"><ele>81.0</ele><time>2026-04-19T06:33:22.9Z</time></trkpt><trkpt lat="44.9531974" lon="9.7837081"><ele>81.0</ele><time>2026-04-19T06:33:24.893Z</time></trkpt><trkpt lat="44.9531212" lon="9.783689"><ele>81.0</ele><time>2026-04-19T06:33:26.9Z</time></trkpt><trkpt lat="44.9530393" lon="9.7836684"><ele>81.0</ele><time>2026-04-19T06:33:28.894Z</time></trkpt><trkpt lat="44.9529536" lon="9.7836482"><ele>81.0</ele><time>2026-04-19T06:33:30.898Z</time></trkpt><trkpt lat="44.9528685" lon="9.7836327"><ele>81.0</ele><time>2026-04-19T06:33:32.889Z</time></trkpt><trkpt lat="44.9527881" lon="9.7836181"><ele>81.0</ele><time>2026-04-19T06:33:34.896Z</time></trkpt><trkpt lat="44.952713" lon="9.7836043"><ele>81.0</ele><time>2026-04-19T06:33:36.908Z</time></trkpt><trkpt lat="44.9526387" lon="9.7835857"><ele>81.0</ele><time>2026-04-19T06:33:38.906Z</time></trkpt><trkpt lat="44.952557" lon="9.7835646"><ele>81.0</ele><time>2026-04-19T06:33:40.898Z</time></trkpt><trkpt lat="44.9524751" lon="9.7835462"><ele>81.0</ele><time>2026-04-19T06:33:42.897Z</time></trkpt><trkpt lat="44.9523896" lon="9.7835235"><ele>81.0</ele><time>2026-04-19T06:33:44.902Z</time></trkpt><trkpt lat="44.9523018" lon="9.783511"><ele>81.0</ele><time>2026-04-19T06:33:46.899Z</time></trkpt><trkpt lat="44.9522188" lon="9.7834922"><ele>81.0</ele><time>2026-04-19T06:33:48.901Z</time></trkpt><trkpt lat="44.9521413" lon="9.7834671"><ele>81.0</ele><time>2026-04-19T06:33:50.903Z</time></trkpt><trkpt lat="44.9520626" lon="9.7834546"><ele>81.0</ele><time>2026-04-19T06:33:52.899Z</time></trkpt><trkpt lat="44.9519844" lon="9.7834306"><ele>81.0</ele><time>2026-04-19T06:33:54.896Z</time></trkpt><trkpt lat="44.9518949" lon="9.7834093"><ele>81.0</ele><time>2026-04-19T06:33:56.899Z</time></trkpt><trkpt lat="44.9518094" lon="9.7833957"><ele>81.0</ele><time>2026-04-19T06:33:58.9Z</time></trkpt><trkpt lat="44.9517408" lon="9.7833782"><ele>81.0</ele><time>2026-04-19T06:34:00.894Z</time></trkpt><trkpt lat="44.9516578" lon="9.7833695"><ele>81.5</ele><time>2026-04-19T06:34:02.892Z</time></trkpt><trkpt lat="44.9515768" lon="9.7833492"><ele>82.0</ele><time>2026-04-19T06:34:04.906Z</time></trkpt><trkpt lat="44.951497" lon="9.783338"><ele>82.5</ele><time>2026-04-19T06:34:06.874Z</time></trkpt><trkpt lat="44.9514161" lon="9.7833285"><ele>83.0</ele><time>2026-04-19T06:34:08.908Z</time></trkpt><trkpt lat="44.9513385" lon="9.7833362"><ele>83.5</ele><time>2026-04-19T06:34:10.898Z</time></trkpt><trkpt lat="44.9512521" lon="9.7833398"><ele>84.0</ele><time>2026-04-19T06:34:12.896Z</time></trkpt><trkpt lat="44.9511677" lon="9.7833253"><ele>84.0</ele><time>2026-04-19T06:34:14.881Z</time></trkpt><trkpt lat="44.9510842" lon="9.7833104"><ele>84.0</ele><time>2026-04-19T06:34:16.891Z</time></trkpt><trkpt lat="44.9510056" lon="9.7833113"><ele>84.0</ele><time>2026-04-19T06:34:18.904Z</time></trkpt><trkpt lat="44.9509217" lon="9.7833"><ele>84.0</ele><time>2026-04-19T06:34:20.899Z</time></trkpt><trkpt lat="44.9508393" lon="9.7832923"><ele>84.0</ele><time>2026-04-19T06:34:22.897Z</time></trkpt><trkpt lat="44.9507576" lon="9.7832772"><ele>84.0</ele><time>2026-04-19T06:34:24.902Z</time></trkpt><trkpt lat="44.9506736" lon="9.78327"><ele>83.83333333333333</ele><time>2026-04-19T06:34:26.904Z</time></trkpt><trkpt lat="44.9505912" lon="9.78326"><ele>83.66666666666667</ele><time>2026-04-19T06:34:28.899Z</time></trkpt><trkpt lat="44.9505095" lon="9.7832368"><ele>83.5</ele><time>2026-04-19T06:34:30.901Z</time></trkpt><trkpt lat="44.9504232" lon="9.7832174"><ele>83.33333333333334</ele><time>2026-04-19T06:34:32.881Z</time></trkpt><trkpt lat="44.9503412" lon="9.7831896"><ele>83.16666666666667</ele><time>2026-04-19T06:34:34.9Z</time></trkpt><trkpt lat="44.9502642" lon="9.7831593"><ele>83.0</ele><time>2026-04-19T06:34:36.909Z</time></trkpt><trkpt lat="44.9501849" lon="9.7831319"><ele>83.0</ele><time>2026-04-19T06:34:38.893Z</time></trkpt><trkpt lat="44.9501035" lon="9.7830991"><ele>83.0</ele><time>2026-04-19T06:34:40.93Z</time></trkpt><trkpt lat="44.9500242" lon="9.7830683"><ele>83.0</ele><time>2026-04-19T06:34:42.895Z</time></trkpt><trkpt lat="44.9499458" lon="9.7830368"><ele>83.0</ele><time>2026-04-19T06:34:44.883Z</time></trkpt><trkpt lat="44.9498663" lon="9.7829991"><ele>83.0</ele><time>2026-04-19T06:34:46.902Z</time></trkpt><trkpt lat="44.9497833" lon="9.7829701"><ele>83.0</ele><time>2026-04-19T06:34:48.897Z</time></trkpt><trkpt lat="44.9496989" lon="9.7829416"><ele>83.0</ele><time>2026-04-19T06:34:50.903Z</time></trkpt><trkpt lat="44.949615" lon="9.782911"><ele>83.0</ele><time>2026-04-19T06:34:52.902Z</time></trkpt><trkpt lat="44.9495293" lon="9.782888"><ele>83.0</ele><time>2026-04-19T06:34:54.9Z</time></trkpt><trkpt lat="44.9494479" lon="9.7828526"><ele>83.0</ele><time>2026-04-19T06:34:56.885Z</time></trkpt><trkpt lat="44.9493668" lon="9.7828265"><ele>83.0</ele><time>2026-04-19T06:34:58.897Z</time></trkpt><trkpt lat="44.9492853" lon="9.7827904"><ele>83.0</ele><time>2026-04-19T06:35:00.897Z</time></trkpt><trkpt lat="44.9492041" lon="9.7827618"><ele>83.0</ele><time>2026-04-19T06:35:02.895Z</time></trkpt><trkpt lat="44.9491219" lon="9.7827247"><ele>83.0</ele><time>2026-04-19T06:35:04.894Z</time></trkpt><trkpt lat="44.949047" lon="9.7826896"><ele>83.0</ele><time>2026-04-19T06:35:06.894Z</time></trkpt><trkpt lat="44.9489684" lon="9.7826541"><ele>83.0</ele><time>2026-04-19T06:35:08.898Z</time></trkpt><trkpt lat="44.9488903" lon="9.7826326"><ele>83.0</ele><time>2026-04-19T06:35:10.894Z</time></trkpt><trkpt lat="44.9488064" lon="9.7826028"><ele>83.0</ele><time>2026-04-19T06:35:12.89Z</time></trkpt><trkpt lat="44.9487313" lon="9.7825712"><ele>83.0</ele><time>2026-04-19T06:35:14.896Z</time></trkpt><trkpt lat="44.9486533" lon="9.7825352"><ele>83.0</ele><time>2026-04-19T06:35:16.881Z</time></trkpt><trkpt lat="44.9485748" lon="9.7825161"><ele>83.0</ele><time>2026-04-19T06:35:18.904Z</time></trkpt><trkpt lat="44.9484934" lon="9.7824909"><ele>83.0</ele><time>2026-04-19T06:35:20.891Z</time></trkpt><trkpt lat="44.9484112" lon="9.7824685"><ele>83.0</ele><time>2026-04-19T06:35:22.899Z</time></trkpt><trkpt lat="44.9483343" lon="9.7824393"><ele>83.0</ele><time>2026-04-19T06:35:24.901Z</time></trkpt><trkpt lat="44.9482586" lon="9.782407"><ele>83.16666666666667</ele><time>2026-04-19T06:35:26.9Z</time></trkpt><trkpt lat="44.9481876" lon="9.7823726"><ele>83.33333333333334</ele><time>2026-04-19T06:35:28.917Z</time></trkpt><trkpt lat="44.948113" lon="9.7823379"><ele>83.5</ele><time>2026-04-19T06:35:30.907Z</time></trkpt><trkpt lat="44.9480376" lon="9.7823121"><ele>83.66666666666667</ele><time>2026-04-19T06:35:32.905Z</time></trkpt><trkpt lat="44.9479666" lon="9.7822844"><ele>83.83333333333333</ele><time>2026-04-19T06:35:34.904Z</time></trkpt><trkpt lat="44.9478919" lon="9.782255"><ele>84.0</ele><time>2026-04-19T06:35:36.904Z</time></trkpt><trkpt lat="44.947825" lon="9.7822239"><ele>84.0</ele><time>2026-04-19T06:35:38.883Z</time></trkpt><trkpt lat="44.9477645" lon="9.7821787"><ele>84.0</ele><time>2026-04-19T06:35:40.886Z</time></trkpt><trkpt lat="44.9477428" lon="9.7820819"><ele>84.0</ele><time>2026-04-19T06:35:42.902Z</time></trkpt><trkpt lat="44.9477624" lon="9.7819789"><ele>84.0</ele><time>2026-04-19T06:35:44.901Z</time></trkpt><trkpt lat="44.9477755" lon="9.7818831"><ele>84.0</ele><time>2026-04-19T06:35:46.896Z</time></trkpt><trkpt lat="44.9477898" lon="9.7817888"><ele>84.0</ele><time>2026-04-19T06:35:48.901Z</time></trkpt><trkpt lat="44.9477997" lon="9.7816484"><ele>83.83333333333333</ele><time>2026-04-19T06:35:51.901Z</time></trkpt><trkpt lat="44.9478157" lon="9.7815385"><ele>83.66666666666667</ele><time>2026-04-19T06:35:53.89Z</time></trkpt><trkpt lat="44.9478338" lon="9.781429"><ele>83.5</ele><time>2026-04-19T06:35:55.905Z</time></trkpt><trkpt lat="44.9478466" lon="9.7813119"><ele>83.33333333333334</ele><time>2026-04-19T06:35:57.902Z</time></trkpt><trkpt lat="44.9478588" lon="9.7812002"><ele>83.16666666666667</ele><time>2026-04-19T06:35:59.906Z</time></trkpt><trkpt lat="44.9478693" lon="9.7810831"><ele>83.0</ele><time>2026-04-19T06:36:01.899Z</time></trkpt><trkpt lat="44.9478771" lon="9.7809695"><ele>83.0</ele><time>2026-04-19T06:36:03.907Z</time></trkpt><trkpt lat="44.947897" lon="9.7808601"><ele>83.0</ele><time>2026-04-19T06:36:05.9Z</time></trkpt><trkpt lat="44.9479096" lon="9.7807523"><ele>83.0</ele><time>2026-04-19T06:36:07.894Z</time></trkpt><trkpt lat="44.9479239" lon="9.7806457"><ele>83.0</ele><time>2026-04-19T06:36:09.9Z</time></trkpt><trkpt lat="44.9479384" lon="9.780535"><ele>83.0</ele><time>2026-04-19T06:36:11.905Z</time></trkpt><trkpt lat="44.9479582" lon="9.7804259"><ele>83.0</ele><time>2026-04-19T06:36:13.902Z</time></trkpt><trkpt lat="44.9479703" lon="9.7803107"><ele>83.0</ele><time>2026-04-19T06:36:15.893Z</time></trkpt><trkpt lat="44.9479791" lon="9.7801924"><ele>83.0</ele><time>2026-04-19T06:36:17.896Z</time></trkpt><trkpt lat="44.9479936" lon="9.7800897"><ele>83.0</ele><time>2026-04-19T06:36:19.879Z</time></trkpt><trkpt lat="44.9480058" lon="9.779976"><ele>83.0</ele><time>2026-04-19T06:36:21.902Z</time></trkpt><trkpt lat="44.9480156" lon="9.7798639"><ele>83.0</ele><time>2026-04-19T06:36:23.898Z</time></trkpt><trkpt lat="44.9480357" lon="9.7797524"><ele>83.0</ele><time>2026-04-19T06:36:25.893Z</time></trkpt><trkpt lat="44.9480493" lon="9.7796406"><ele>83.33333333333334</ele><time>2026-04-19T06:36:27.884Z</time></trkpt><trkpt lat="44.9480602" lon="9.7795257"><ele>83.66666666666667</ele><time>2026-04-19T06:36:29.899Z</time></trkpt><trkpt lat="44.9480698" lon="9.7794178"><ele>84.0</ele><time>2026-04-19T06:36:31.88Z</time></trkpt><trkpt lat="44.9480834" lon="9.7793098"><ele>84.33333333333333</ele><time>2026-04-19T06:36:33.899Z</time></trkpt><trkpt lat="44.9480887" lon="9.7791909"><ele>84.66666666666666</ele><time>2026-04-19T06:36:35.899Z</time></trkpt><trkpt lat="44.9480975" lon="9.7790886"><ele>85.0</ele><time>2026-04-19T06:36:37.896Z</time></trkpt><trkpt lat="44.9481119" lon="9.7789743"><ele>85.0</ele><time>2026-04-19T06:36:39.885Z</time></trkpt><trkpt lat="44.9481219" lon="9.7788601"><ele>85.0</ele><time>2026-04-19T06:36:41.906Z</time></trkpt><trkpt lat="44.9481291" lon="9.7787457"><ele>85.0</ele><time>2026-04-19T06:36:43.893Z</time></trkpt><trkpt lat="44.9481485" lon="9.7786363"><ele>85.0</ele><time>2026-04-19T06:36:45.906Z</time></trkpt><trkpt lat="44.9481578" lon="9.7785218"><ele>85.0</ele><time>2026-04-19T06:36:47.902Z</time></trkpt><trkpt lat="44.9481638" lon="9.7784083"><ele>85.0</ele><time>2026-04-19T06:36:49.9Z</time></trkpt><trkpt lat="44.9481332" lon="9.7783212"><ele>84.83333333333333</ele><time>2026-04-19T06:36:51.903Z</time></trkpt><trkpt lat="44.9480648" lon="9.7782655"><ele>84.66666666666666</ele><time>2026-04-19T06:36:53.905Z</time></trkpt><trkpt lat="44.9479833" lon="9.7782279"><ele>84.5</ele><time>2026-04-19T06:36:55.897Z</time></trkpt><trkpt lat="44.9479074" lon="9.7781908"><ele>84.33333333333333</ele><time>2026-04-19T06:36:57.905Z</time></trkpt><trkpt lat="44.9478252" lon="9.7781493"><ele>84.16666666666667</ele><time>2026-04-19T06:36:59.891Z</time></trkpt><trkpt lat="44.9477459" lon="9.7781084"><ele>84.0</ele><time>2026-04-19T06:37:01.902Z</time></trkpt><trkpt lat="44.9476668" lon="9.7780708"><ele>84.0</ele><time>2026-04-19T06:37:03.901Z</time></trkpt><trkpt lat="44.9475873" lon="9.7780307"><ele>84.0</ele><time>2026-04-19T06:37:05.899Z</time></trkpt><trkpt lat="44.9475069" lon="9.7779876"><ele>84.0</ele><time>2026-04-19T06:37:07.875Z</time></trkpt><trkpt lat="44.9474301" lon="9.7779478"><ele>84.0</ele><time>2026-04-19T06:37:09.901Z</time></trkpt><trkpt lat="44.9473549" lon="9.7779074"><ele>84.0</ele><time>2026-04-19T06:37:11.902Z</time></trkpt><trkpt lat="44.9472741" lon="9.7778692"><ele>84.0</ele><time>2026-04-19T06:37:13.896Z</time></trkpt><trkpt lat="44.9472024" lon="9.7778311"><ele>84.33333333333333</ele><time>2026-04-19T06:37:15.909Z</time></trkpt><trkpt lat="44.9471198" lon="9.7777962"><ele>84.66666666666667</ele><time>2026-04-19T06:37:17.9Z</time></trkpt><trkpt lat="44.9470349" lon="9.7777572"><ele>85.0</ele><time>2026-04-19T06:37:19.901Z</time></trkpt><trkpt lat="44.9469552" lon="9.7777232"><ele>85.33333333333334</ele><time>2026-04-19T06:37:21.902Z</time></trkpt><trkpt lat="44.9468717" lon="9.7776862"><ele>85.66666666666667</ele><time>2026-04-19T06:37:23.901Z</time></trkpt><trkpt lat="44.9467926" lon="9.7776452"><ele>86.0</ele><time>2026-04-19T06:37:25.906Z</time></trkpt><trkpt lat="44.9467175" lon="9.777604"><ele>86.33333333333334</ele><time>2026-04-19T06:37:27.882Z</time></trkpt><trkpt lat="44.9466382" lon="9.777568"><ele>86.66666666666667</ele><time>2026-04-19T06:37:29.904Z</time></trkpt><trkpt lat="44.9465541" lon="9.7775262"><ele>87.0</ele><time>2026-04-19T06:37:31.892Z</time></trkpt><trkpt lat="44.9464738" lon="9.7774831"><ele>87.33333333333333</ele><time>2026-04-19T06:37:33.904Z</time></trkpt><trkpt lat="44.9463889" lon="9.7774386"><ele>87.66666666666666</ele><time>2026-04-19T06:37:35.882Z</time></trkpt><trkpt lat="44.9463155" lon="9.7773889"><ele>88.0</ele><time>2026-04-19T06:37:37.896Z</time></trkpt><trkpt lat="44.9462411" lon="9.7773412"><ele>88.0</ele><time>2026-04-19T06:37:39.891Z</time></trkpt><trkpt lat="44.9461663" lon="9.7772932"><ele>88.0</ele><time>2026-04-19T06:37:41.898Z</time></trkpt><trkpt lat="44.9460877" lon="9.7772482"><ele>88.0</ele><time>2026-04-19T06:37:43.897Z</time></trkpt><trkpt lat="44.9460055" lon="9.7771927"><ele>88.0</ele><time>2026-04-19T06:37:45.893Z</time></trkpt><trkpt lat="44.9459314" lon="9.7771435"><ele>88.0</ele><time>2026-04-19T06:37:47.896Z</time></trkpt><trkpt lat="44.9458475" lon="9.7771026"><ele>88.0</ele><time>2026-04-19T06:37:49.896Z</time></trkpt><trkpt lat="44.9457602" lon="9.7770518"><ele>88.0</ele><time>2026-04-19T06:37:51.902Z</time></trkpt><trkpt lat="44.9456738" lon="9.776999"><ele>88.0</ele><time>2026-04-19T06:37:53.898Z</time></trkpt><trkpt lat="44.9455906" lon="9.7769513"><ele>88.0</ele><time>2026-04-19T06:37:55.9Z</time></trkpt><trkpt lat="44.9455064" lon="9.7769138"><ele>88.0</ele><time>2026-04-19T06:37:57.902Z</time></trkpt><trkpt lat="44.9454183" lon="9.7768961"><ele>88.0</ele><time>2026-04-19T06:37:59.887Z</time></trkpt><trkpt lat="44.9453255" lon="9.7768843"><ele>88.0</ele><time>2026-04-19T06:38:01.913Z</time></trkpt><trkpt lat="44.9452336" lon="9.7768849"><ele>88.0</ele><time>2026-04-19T06:38:03.904Z</time></trkpt><trkpt lat="44.9451427" lon="9.7768878"><ele>88.0</ele><time>2026-04-19T06:38:05.902Z</time></trkpt><trkpt lat="44.9450531" lon="9.7769035"><ele>88.0</ele><time>2026-04-19T06:38:07.898Z</time></trkpt><trkpt lat="44.9449549" lon="9.7769274"><ele>88.0</ele><time>2026-04-19T06:38:09.901Z</time></trkpt><trkpt lat="44.9448634" lon="9.7769514"><ele>88.0</ele><time>2026-04-19T06:38:11.897Z</time></trkpt><trkpt lat="44.9447779" lon="9.7769845"><ele>88.0</ele><time>2026-04-19T06:38:13.9Z</time></trkpt><trkpt lat="44.9446842" lon="9.7770282"><ele>88.0</ele><time>2026-04-19T06:38:15.908Z</time></trkpt><trkpt lat="44.944591" lon="9.7770699"><ele>88.0</ele><time>2026-04-19T06:38:17.907Z</time></trkpt><trkpt lat="44.9445028" lon="9.7770982"><ele>88.0</ele><time>2026-04-19T06:38:19.895Z</time></trkpt><trkpt lat="44.9444067" lon="9.7770995"><ele>88.0</ele><time>2026-04-19T06:38:21.905Z</time></trkpt><trkpt lat="44.9443144" lon="9.777079"><ele>88.0</ele><time>2026-04-19T06:38:23.9Z</time></trkpt><trkpt lat="44.9442184" lon="9.7770355"><ele>88.0</ele><time>2026-04-19T06:38:25.91Z</time></trkpt><trkpt lat="44.9441366" lon="9.7769984"><ele>88.0</ele><time>2026-04-19T06:38:27.896Z</time></trkpt><trkpt lat="44.9440481" lon="9.7769554"><ele>88.0</ele><time>2026-04-19T06:38:29.902Z</time></trkpt><trkpt lat="44.9439591" lon="9.7769088"><ele>88.0</ele><time>2026-04-19T06:38:31.905Z</time></trkpt><trkpt lat="44.9438731" lon="9.7768671"><ele>88.0</ele><time>2026-04-19T06:38:33.898Z</time></trkpt><trkpt lat="44.9437835" lon="9.7768338"><ele>88.0</ele><time>2026-04-19T06:38:35.905Z</time></trkpt><trkpt lat="44.9436957" lon="9.7768064"><ele>88.0</ele><time>2026-04-19T06:38:37.902Z</time></trkpt><trkpt lat="44.9436053" lon="9.7767997"><ele>88.0</ele><time>2026-04-19T06:38:39.904Z</time></trkpt><trkpt lat="44.9435137" lon="9.7768053"><ele>88.2</ele><time>2026-04-19T06:38:41.911Z</time></trkpt><trkpt lat="44.9434181" lon="9.7768083"><ele>88.4</ele><time>2026-04-19T06:38:43.896Z</time></trkpt><trkpt lat="44.9433225" lon="9.7768083"><ele>88.60000000000001</ele><time>2026-04-19T06:38:45.905Z</time></trkpt><trkpt lat="44.9432276" lon="9.7768123"><ele>88.80000000000001</ele><time>2026-04-19T06:38:47.893Z</time></trkpt><trkpt lat="44.9431308" lon="9.7768083"><ele>89.0</ele><time>2026-04-19T06:38:49.896Z</time></trkpt><trkpt lat="44.9430347" lon="9.7767975"><ele>89.0</ele><time>2026-04-19T06:38:51.897Z</time></trkpt><trkpt lat="44.9429412" lon="9.7767718"><ele>89.0</ele><time>2026-04-19T06:38:53.9Z</time></trkpt><trkpt lat="44.9428455" lon="9.7767387"><ele>89.0</ele><time>2026-04-19T06:38:55.911Z</time></trkpt><trkpt lat="44.942755" lon="9.7767095"><ele>89.0</ele><time>2026-04-19T06:38:57.908Z</time></trkpt><trkpt lat="44.9426723" lon="9.7766807"><ele>89.0</ele><time>2026-04-19T06:38:59.903Z</time></trkpt><trkpt lat="44.9425871" lon="9.7766459"><ele>88.80000000000001</ele><time>2026-04-19T06:39:01.899Z</time></trkpt><trkpt lat="44.942494" lon="9.7766381"><ele>88.60000000000001</ele><time>2026-04-19T06:39:03.875Z</time></trkpt><trkpt lat="44.9423972" lon="9.7766302"><ele>88.4</ele><time>2026-04-19T06:39:05.897Z</time></trkpt><trkpt lat="44.9423036" lon="9.7766155"><ele>88.2</ele><time>2026-04-19T06:39:07.901Z</time></trkpt><trkpt lat="44.942216" lon="9.7765997"><ele>88.0</ele><time>2026-04-19T06:39:09.897Z</time></trkpt><trkpt lat="44.9421186" lon="9.7765849"><ele>88.0</ele><time>2026-04-19T06:39:11.893Z</time></trkpt><trkpt lat="44.9420305" lon="9.7765618"><ele>88.0</ele><time>2026-04-19T06:39:13.897Z</time></trkpt><trkpt lat="44.9419413" lon="9.7765472"><ele>88.0</ele><time>2026-04-19T06:39:15.902Z</time></trkpt><trkpt lat="44.9418517" lon="9.7765225"><ele>88.0</ele><time>2026-04-19T06:39:17.9Z</time></trkpt><trkpt lat="44.9417577" lon="9.7764956"><ele>88.0</ele><time>2026-04-19T06:39:19.9Z</time></trkpt><trkpt lat="44.9416618" lon="9.7764749"><ele>88.2</ele><time>2026-04-19T06:39:21.896Z</time></trkpt><trkpt lat="44.9415702" lon="9.7764522"><ele>88.4</ele><time>2026-04-19T06:39:23.9Z</time></trkpt><trkpt lat="44.9414767" lon="9.7764319"><ele>88.60000000000001</ele><time>2026-04-19T06:39:25.876Z</time></trkpt><trkpt lat="44.9413829" lon="9.7764015"><ele>88.80000000000001</ele><time>2026-04-19T06:39:27.905Z</time></trkpt><trkpt lat="44.9412821" lon="9.7763704"><ele>89.0</ele><time>2026-04-19T06:39:29.909Z</time></trkpt><trkpt lat="44.9411926" lon="9.7763408"><ele>89.0</ele><time>2026-04-19T06:39:31.901Z</time></trkpt><trkpt lat="44.9411053" lon="9.7763115"><ele>89.0</ele><time>2026-04-19T06:39:33.905Z</time></trkpt><trkpt lat="44.9410127" lon="9.7762852"><ele>89.0</ele><time>2026-04-19T06:39:35.907Z</time></trkpt><trkpt lat="44.9409207" lon="9.7762351"><ele>89.0</ele><time>2026-04-19T06:39:37.91Z</time></trkpt><trkpt lat="44.9408301" lon="9.7761965"><ele>89.0</ele><time>2026-04-19T06:39:39.902Z</time></trkpt><trkpt lat="44.9407397" lon="9.7761708"><ele>89.2</ele><time>2026-04-19T06:39:41.902Z</time></trkpt><trkpt lat="44.9406487" lon="9.7761414"><ele>89.4</ele><time>2026-04-19T06:39:43.902Z</time></trkpt><trkpt lat="44.9405591" lon="9.7761111"><ele>89.6</ele><time>2026-04-19T06:39:45.902Z</time></trkpt><trkpt lat="44.9404715" lon="9.7761002"><ele>89.8</ele><time>2026-04-19T06:39:47.893Z</time></trkpt><trkpt lat="44.9403749" lon="9.7760892"><ele>90.0</ele><time>2026-04-19T06:39:49.907Z</time></trkpt><trkpt lat="44.9402791" lon="9.7760809"><ele>90.0</ele><time>2026-04-19T06:39:51.904Z</time></trkpt><trkpt lat="44.9401866" lon="9.7760813"><ele>90.0</ele><time>2026-04-19T06:39:53.9Z</time></trkpt><trkpt lat="44.940084" lon="9.7760714"><ele>90.0</ele><time>2026-04-19T06:39:55.897Z</time></trkpt><trkpt lat="44.9399914" lon="9.776065"><ele>90.0</ele><time>2026-04-19T06:39:57.865Z</time></trkpt><trkpt lat="44.939897" lon="9.7760504"><ele>90.0</ele><time>2026-04-19T06:39:59.897Z</time></trkpt><trkpt lat="44.9398047" lon="9.7760396"><ele>90.33333333333333</ele><time>2026-04-19T06:40:01.907Z</time></trkpt><trkpt lat="44.9397148" lon="9.7760196"><ele>90.66666666666667</ele><time>2026-04-19T06:40:03.894Z</time></trkpt><trkpt lat="44.9396307" lon="9.775992"><ele>91.0</ele><time>2026-04-19T06:40:05.901Z</time></trkpt><trkpt lat="44.9395533" lon="9.7759693"><ele>91.33333333333334</ele><time>2026-04-19T06:40:07.896Z</time></trkpt><trkpt lat="44.9394764" lon="9.7759452"><ele>91.66666666666667</ele><time>2026-04-19T06:40:09.902Z</time></trkpt><trkpt lat="44.9393871" lon="9.7759204"><ele>92.0</ele><time>2026-04-19T06:40:11.887Z</time></trkpt><trkpt lat="44.9392922" lon="9.7759003"><ele>92.19999999999999</ele><time>2026-04-19T06:40:13.899Z</time></trkpt><trkpt lat="44.9392071" lon="9.7758746"><ele>92.4</ele><time>2026-04-19T06:40:15.894Z</time></trkpt><trkpt lat="44.9391097" lon="9.7758515"><ele>92.6</ele><time>2026-04-19T06:40:17.902Z</time></trkpt><trkpt lat="44.9390161" lon="9.7758314"><ele>92.80000000000001</ele><time>2026-04-19T06:40:19.889Z</time></trkpt><trkpt lat="44.9389182" lon="9.7758224"><ele>93.0</ele><time>2026-04-19T06:40:21.905Z</time></trkpt><trkpt lat="44.9388215" lon="9.7757867"><ele>93.0</ele><time>2026-04-19T06:40:23.901Z</time></trkpt><trkpt lat="44.9387352" lon="9.775761"><ele>93.0</ele><time>2026-04-19T06:40:25.907Z</time></trkpt><trkpt lat="44.9386364" lon="9.7757416"><ele>93.0</ele><time>2026-04-19T06:40:27.894Z</time></trkpt><trkpt lat="44.9385441" lon="9.7757063"><ele>93.0</ele><time>2026-04-19T06:40:29.903Z</time></trkpt><trkpt lat="44.9384503" lon="9.7756879"><ele>93.0</ele><time>2026-04-19T06:40:31.903Z</time></trkpt><trkpt lat="44.9383555" lon="9.7756672"><ele>93.2</ele><time>2026-04-19T06:40:33.9Z</time></trkpt><trkpt lat="44.9382627" lon="9.775642"><ele>93.4</ele><time>2026-04-19T06:40:35.9Z</time></trkpt><trkpt lat="44.9381736" lon="9.7756033"><ele>93.60000000000001</ele><time>2026-04-19T06:40:37.893Z</time></trkpt><trkpt lat="44.9380835" lon="9.7755818"><ele>93.80000000000001</ele><time>2026-04-19T06:40:39.906Z</time></trkpt><trkpt lat="44.9379946" lon="9.7755427"><ele>94.0</ele><time>2026-04-19T06:40:41.898Z</time></trkpt><trkpt lat="44.9379006" lon="9.7755098"><ele>94.0</ele><time>2026-04-19T06:40:43.897Z</time></trkpt><trkpt lat="44.9378039" lon="9.7754788"><ele>94.0</ele><time>2026-04-19T06:40:45.886Z</time></trkpt><trkpt lat="44.9377104" lon="9.7754451"><ele>94.0</ele><time>2026-04-19T06:40:47.907Z</time></trkpt><trkpt lat="44.9376157" lon="9.7754103"><ele>94.0</ele><time>2026-04-19T06:40:49.906Z</time></trkpt><trkpt lat="44.9375246" lon="9.7753691"><ele>94.0</ele><time>2026-04-19T06:40:51.888Z</time></trkpt><trkpt lat="44.9374321" lon="9.7753386"><ele>94.0</ele><time>2026-04-19T06:40:53.901Z</time></trkpt><trkpt lat="44.9373356" lon="9.7753049"><ele>94.0</ele><time>2026-04-19T06:40:55.903Z</time></trkpt><trkpt lat="44.9372501" lon="9.775272"><ele>94.0</ele><time>2026-04-19T06:40:57.895Z</time></trkpt><trkpt lat="44.9371563" lon="9.7752341"><ele>94.0</ele><time>2026-04-19T06:40:59.904Z</time></trkpt><trkpt lat="44.9370558" lon="9.7752058"><ele>94.0</ele><time>2026-04-19T06:41:01.912Z</time></trkpt><trkpt lat="44.9369597" lon="9.775174"><ele>94.0</ele><time>2026-04-19T06:41:03.903Z</time></trkpt><trkpt lat="44.9368648" lon="9.7751452"><ele>94.0</ele><time>2026-04-19T06:41:05.894Z</time></trkpt><trkpt lat="44.936772" lon="9.775115"><ele>94.0</ele><time>2026-04-19T06:41:07.873Z</time></trkpt><trkpt lat="44.9366792" lon="9.775086"><ele>94.0</ele><time>2026-04-19T06:41:09.898Z</time></trkpt><trkpt lat="44.936588" lon="9.7750578"><ele>94.0</ele><time>2026-04-19T06:41:11.897Z</time></trkpt><trkpt lat="44.9364875" lon="9.7750331"><ele>93.6</ele><time>2026-04-19T06:41:13.901Z</time></trkpt><trkpt lat="44.9363904" lon="9.7750057"><ele>93.2</ele><time>2026-04-19T06:41:15.895Z</time></trkpt><trkpt lat="44.9362882" lon="9.7749841"><ele>92.8</ele><time>2026-04-19T06:41:17.898Z</time></trkpt><trkpt lat="44.9361939" lon="9.7749632"><ele>92.39999999999999</ele><time>2026-04-19T06:41:19.901Z</time></trkpt><trkpt lat="44.9360988" lon="9.7749481"><ele>92.0</ele><time>2026-04-19T06:41:21.911Z</time></trkpt><trkpt lat="44.936001" lon="9.7749285"><ele>92.0</ele><time>2026-04-19T06:41:23.903Z</time></trkpt><trkpt lat="44.9359004" lon="9.7749119"><ele>92.0</ele><time>2026-04-19T06:41:25.867Z</time></trkpt><trkpt lat="44.9358044" lon="9.7749046"><ele>92.0</ele><time>2026-04-19T06:41:27.868Z</time></trkpt><trkpt lat="44.9357077" lon="9.7748917"><ele>92.0</ele><time>2026-04-19T06:41:29.9Z</time></trkpt><trkpt lat="44.9356113" lon="9.7748782"><ele>92.0</ele><time>2026-04-19T06:41:31.896Z</time></trkpt><trkpt lat="44.9355178" lon="9.7748685"><ele>92.0</ele><time>2026-04-19T06:41:33.895Z</time></trkpt><trkpt lat="44.9354236" lon="9.7748507"><ele>92.0</ele><time>2026-04-19T06:41:35.902Z</time></trkpt><trkpt lat="44.9353252" lon="9.7748334"><ele>92.0</ele><time>2026-04-19T06:41:37.882Z</time></trkpt><trkpt lat="44.935224" lon="9.7748195"><ele>92.0</ele><time>2026-04-19T06:41:39.896Z</time></trkpt><trkpt lat="44.9351262" lon="9.7748107"><ele>92.0</ele><time>2026-04-19T06:41:41.89Z</time></trkpt><trkpt lat="44.9350271" lon="9.7747987"><ele>92.39999999999999</ele><time>2026-04-19T06:41:43.899Z</time></trkpt><trkpt lat="44.9349252" lon="9.7747799"><ele>92.8</ele><time>2026-04-19T06:41:45.916Z</time></trkpt><trkpt lat="44.9348226" lon="9.7747762"><ele>93.2</ele><time>2026-04-19T06:41:47.881Z</time></trkpt><trkpt lat="44.9347278" lon="9.7747648"><ele>93.6</ele><time>2026-04-19T06:41:49.898Z</time></trkpt><trkpt lat="44.9346243" lon="9.7747482"><ele>94.0</ele><time>2026-04-19T06:41:51.893Z</time></trkpt><trkpt lat="44.9345281" lon="9.7747364"><ele>94.0</ele><time>2026-04-19T06:41:53.892Z</time></trkpt><trkpt lat="44.934433" lon="9.7747194"><ele>94.0</ele><time>2026-04-19T06:41:55.878Z</time></trkpt><trkpt lat="44.9343414" lon="9.7747092"><ele>94.0</ele><time>2026-04-19T06:41:57.882Z</time></trkpt><trkpt lat="44.9342454" lon="9.774685"><ele>94.0</ele><time>2026-04-19T06:41:59.9Z</time></trkpt><trkpt lat="44.9341477" lon="9.7746707"><ele>94.0</ele><time>2026-04-19T06:42:01.898Z</time></trkpt><trkpt lat="44.9340526" lon="9.7746625"><ele>94.6</ele><time>2026-04-19T06:42:03.888Z</time></trkpt><trkpt lat="44.9339617" lon="9.7746607"><ele>95.2</ele><time>2026-04-19T06:42:05.905Z</time></trkpt><trkpt lat="44.9338665" lon="9.7746511"><ele>95.8</ele><time>2026-04-19T06:42:07.889Z</time></trkpt><trkpt lat="44.9337776" lon="9.7746318"><ele>96.39999999999999</ele><time>2026-04-19T06:42:09.898Z</time></trkpt><trkpt lat="44.9336847" lon="9.7746227"><ele>97.0</ele><time>2026-04-19T06:42:11.891Z</time></trkpt><trkpt lat="44.9335922" lon="9.7746099"><ele>97.0</ele><time>2026-04-19T06:42:13.9Z</time></trkpt><trkpt lat="44.9334949" lon="9.7745964"><ele>97.0</ele><time>2026-04-19T06:42:15.903Z</time></trkpt><trkpt lat="44.9334032" lon="9.774587"><ele>97.0</ele><time>2026-04-19T06:42:17.856Z</time></trkpt><trkpt lat="44.9333062" lon="9.7745778"><ele>97.0</ele><time>2026-04-19T06:42:19.859Z</time></trkpt><trkpt lat="44.9332098" lon="9.774569"><ele>97.0</ele><time>2026-04-19T06:42:21.864Z</time></trkpt><trkpt lat="44.9331126" lon="9.7745655"><ele>96.8</ele><time>2026-04-19T06:42:23.864Z</time></trkpt><trkpt lat="44.9330148" lon="9.7745532"><ele>96.6</ele><time>2026-04-19T06:42:25.863Z</time></trkpt><trkpt lat="44.9329221" lon="9.7745455"><ele>96.39999999999999</ele><time>2026-04-19T06:42:27.876Z</time></trkpt><trkpt lat="44.9328312" lon="9.7745378"><ele>96.19999999999999</ele><time>2026-04-19T06:42:29.863Z</time></trkpt><trkpt lat="44.9327358" lon="9.7745255"><ele>96.0</ele><time>2026-04-19T06:42:31.864Z</time></trkpt><trkpt lat="44.9326355" lon="9.774513"><ele>96.0</ele><time>2026-04-19T06:42:33.865Z</time></trkpt><trkpt lat="44.9325416" lon="9.7745023"><ele>96.0</ele><time>2026-04-19T06:42:35.862Z</time></trkpt><trkpt lat="44.9324438" lon="9.7744834"><ele>96.0</ele><time>2026-04-19T06:42:37.884Z</time></trkpt><trkpt lat="44.9323413" lon="9.7744627"><ele>96.0</ele><time>2026-04-19T06:42:39.878Z</time></trkpt><trkpt lat="44.9322385" lon="9.774431"><ele>96.0</ele><time>2026-04-19T06:42:41.906Z</time></trkpt><trkpt lat="44.9321459" lon="9.7744003"><ele>96.0</ele><time>2026-04-19T06:42:43.889Z</time></trkpt><trkpt lat="44.9320561" lon="9.7743753"><ele>96.0</ele><time>2026-04-19T06:42:45.893Z</time></trkpt><trkpt lat="44.9319689" lon="9.7743635"><ele>96.0</ele><time>2026-04-19T06:42:47.895Z</time></trkpt><trkpt lat="44.9318971" lon="9.7743371"><ele>96.0</ele><time>2026-04-19T06:42:49.902Z</time></trkpt><trkpt lat="44.9318247" lon="9.7743154"><ele>96.0</ele><time>2026-04-19T06:42:51.866Z</time></trkpt><trkpt lat="44.9317447" lon="9.7742913"><ele>96.0</ele><time>2026-04-19T06:42:53.896Z</time></trkpt><trkpt lat="44.931653" lon="9.7742586"><ele>96.0</ele><time>2026-04-19T06:42:55.88Z</time></trkpt><trkpt lat="44.9315708" lon="9.7742277"><ele>96.0</ele><time>2026-04-19T06:42:57.88Z</time></trkpt><trkpt lat="44.9314855" lon="9.774205"><ele>96.0</ele><time>2026-04-19T06:42:59.9Z</time></trkpt><trkpt lat="44.931403" lon="9.774178"><ele>96.0</ele><time>2026-04-19T06:43:01.882Z</time></trkpt><trkpt lat="44.9313137" lon="9.7741557"><ele>96.0</ele><time>2026-04-19T06:43:03.877Z</time></trkpt><trkpt lat="44.9312188" lon="9.7741308"><ele>96.0</ele><time>2026-04-19T06:43:05.892Z</time></trkpt><trkpt lat="44.9311287" lon="9.7741029"><ele>96.0</ele><time>2026-04-19T06:43:07.896Z</time></trkpt><trkpt lat="44.9310408" lon="9.7740857"><ele>96.0</ele><time>2026-04-19T06:43:09.892Z</time></trkpt><trkpt lat="44.9309516" lon="9.7740632"><ele>96.0</ele><time>2026-04-19T06:43:11.897Z</time></trkpt><trkpt lat="44.9308617" lon="9.7740326"><ele>96.0</ele><time>2026-04-19T06:43:13.897Z</time></trkpt><trkpt lat="44.9307663" lon="9.7740031"><ele>96.0</ele><time>2026-04-19T06:43:15.907Z</time></trkpt><trkpt lat="44.9306667" lon="9.7739785"><ele>96.19999999999999</ele><time>2026-04-19T06:43:17.879Z</time></trkpt><trkpt lat="44.9305774" lon="9.7739512"><ele>96.39999999999999</ele><time>2026-04-19T06:43:19.904Z</time></trkpt><trkpt lat="44.9304805" lon="9.7739277"><ele>96.6</ele><time>2026-04-19T06:43:21.879Z</time></trkpt><trkpt lat="44.9303854" lon="9.7739027"><ele>96.8</ele><time>2026-04-19T06:43:23.89Z</time></trkpt><trkpt lat="44.9302923" lon="9.7738795"><ele>97.0</ele><time>2026-04-19T06:43:25.893Z</time></trkpt><trkpt lat="44.9302026" lon="9.7738641"><ele>97.0</ele><time>2026-04-19T06:43:27.91Z</time></trkpt><trkpt lat="44.9301075" lon="9.7738391"><ele>97.0</ele><time>2026-04-19T06:43:29.9Z</time></trkpt><trkpt lat="44.9300159" lon="9.7738162"><ele>97.0</ele><time>2026-04-19T06:43:31.903Z</time></trkpt><trkpt lat="44.9299187" lon="9.7737947"><ele>97.0</ele><time>2026-04-19T06:43:33.889Z</time></trkpt><trkpt lat="44.9298147" lon="9.7737605"><ele>97.0</ele><time>2026-04-19T06:43:35.896Z</time></trkpt><trkpt lat="44.9297171" lon="9.7737289"><ele>97.19999999999999</ele><time>2026-04-19T06:43:37.901Z</time></trkpt><trkpt lat="44.9296208" lon="9.7736853"><ele>97.4</ele><time>2026-04-19T06:43:39.891Z</time></trkpt><trkpt lat="44.9295267" lon="9.7736302"><ele>97.6</ele><time>2026-04-19T06:43:41.899Z</time></trkpt><trkpt lat="44.9294509" lon="9.7735652"><ele>97.80000000000001</ele><time>2026-04-19T06:43:43.885Z</time></trkpt><trkpt lat="44.9293559" lon="9.7734951"><ele>98.0</ele><time>2026-04-19T06:43:45.892Z</time></trkpt><trkpt lat="44.9292702" lon="9.7734117"><ele>98.66666666666666</ele><time>2026-04-19T06:43:47.877Z</time></trkpt><trkpt lat="44.9291881" lon="9.773338"><ele>99.33333333333333</ele><time>2026-04-19T06:43:49.896Z</time></trkpt><trkpt lat="44.9291097" lon="9.7732804"><ele>100.0</ele><time>2026-04-19T06:43:51.87Z</time></trkpt><trkpt lat="44.9290375" lon="9.7732242"><ele>100.66666666666666</ele><time>2026-04-19T06:43:53.894Z</time></trkpt><trkpt lat="44.9289761" lon="9.7731903"><ele>101.33333333333333</ele><time>2026-04-19T06:43:55.876Z</time></trkpt><trkpt lat="44.9289006" lon="9.7731763"><ele>102.0</ele><time>2026-04-19T06:43:57.895Z</time></trkpt><trkpt lat="44.9288185" lon="9.7731616"><ele>102.0</ele><time>2026-04-19T06:43:59.898Z</time></trkpt><trkpt lat="44.9287409" lon="9.7731331"><ele>102.0</ele><time>2026-04-19T06:44:01.892Z</time></trkpt><trkpt lat="44.9286404" lon="9.7731088"><ele>102.0</ele><time>2026-04-19T06:44:03.893Z</time></trkpt><trkpt lat="44.9285369" lon="9.7731102"><ele>102.0</ele><time>2026-04-19T06:44:05.894Z</time></trkpt><trkpt lat="44.9284343" lon="9.7731066"><ele>102.0</ele><time>2026-04-19T06:44:07.903Z</time></trkpt><trkpt lat="44.9283312" lon="9.7730919"><ele>101.39999999999999</ele><time>2026-04-19T06:44:09.895Z</time></trkpt><trkpt lat="44.9282285" lon="9.773074"><ele>100.8</ele><time>2026-04-19T06:44:11.878Z</time></trkpt><trkpt lat="44.9281341" lon="9.7730574"><ele>100.2</ele><time>2026-04-19T06:44:13.904Z</time></trkpt><trkpt lat="44.928041" lon="9.7730372"><ele>99.6</ele><time>2026-04-19T06:44:15.904Z</time></trkpt><trkpt lat="44.9279513" lon="9.7730144"><ele>99.0</ele><time>2026-04-19T06:44:17.887Z</time></trkpt><trkpt lat="44.9278674" lon="9.7729942"><ele>99.0</ele><time>2026-04-19T06:44:19.898Z</time></trkpt><trkpt lat="44.9277735" lon="9.7729673"><ele>99.0</ele><time>2026-04-19T06:44:21.888Z</time></trkpt><trkpt lat="44.9276879" lon="9.7729566"><ele>99.0</ele><time>2026-04-19T06:44:23.895Z</time></trkpt><trkpt lat="44.9275927" lon="9.7729437"><ele>99.0</ele><time>2026-04-19T06:44:25.896Z</time></trkpt><trkpt lat="44.9275082" lon="9.7729206"><ele>99.0</ele><time>2026-04-19T06:44:27.899Z</time></trkpt><trkpt lat="44.9274292" lon="9.7728937"><ele>99.0</ele><time>2026-04-19T06:44:29.897Z</time></trkpt><trkpt lat="44.927338" lon="9.7728684"><ele>99.2</ele><time>2026-04-19T06:44:31.9Z</time></trkpt><trkpt lat="44.9272462" lon="9.7728549"><ele>99.4</ele><time>2026-04-19T06:44:33.899Z</time></trkpt><trkpt lat="44.9271596" lon="9.7728354"><ele>99.6</ele><time>2026-04-19T06:44:35.886Z</time></trkpt><trkpt lat="44.9270704" lon="9.772819"><ele>99.8</ele><time>2026-04-19T06:44:37.894Z</time></trkpt><trkpt lat="44.9269714" lon="9.7728012"><ele>100.0</ele><time>2026-04-19T06:44:39.897Z</time></trkpt><trkpt lat="44.9268804" lon="9.7727784"><ele>100.0</ele><time>2026-04-19T06:44:41.894Z</time></trkpt><trkpt lat="44.9267907" lon="9.772753"><ele>100.0</ele><time>2026-04-19T06:44:43.898Z</time></trkpt><trkpt lat="44.9266995" lon="9.7727355"><ele>100.0</ele><time>2026-04-19T06:44:45.882Z</time></trkpt><trkpt lat="44.92661" lon="9.7727114"><ele>100.0</ele><time>2026-04-19T06:44:47.904Z</time></trkpt><trkpt lat="44.926517" lon="9.7726944"><ele>100.0</ele><time>2026-04-19T06:44:49.906Z</time></trkpt><trkpt lat="44.9264219" lon="9.7726833"><ele>100.4</ele><time>2026-04-19T06:44:51.897Z</time></trkpt><trkpt lat="44.9263274" lon="9.7726658"><ele>100.8</ele><time>2026-04-19T06:44:53.897Z</time></trkpt><trkpt lat="44.9262401" lon="9.7726465"><ele>101.19999999999999</ele><time>2026-04-19T06:44:55.902Z</time></trkpt><trkpt lat="44.9261494" lon="9.7726218"><ele>101.6</ele><time>2026-04-19T06:44:57.905Z</time></trkpt><trkpt lat="44.926055" lon="9.7726069"><ele>102.0</ele><time>2026-04-19T06:44:59.905Z</time></trkpt><trkpt lat="44.9259654" lon="9.7725803"><ele>102.19999999999999</ele><time>2026-04-19T06:45:01.898Z</time></trkpt><trkpt lat="44.9258779" lon="9.7725549"><ele>102.4</ele><time>2026-04-19T06:45:03.904Z</time></trkpt><trkpt lat="44.9257873" lon="9.7725379"><ele>102.6</ele><time>2026-04-19T06:45:05.902Z</time></trkpt><trkpt lat="44.9256979" lon="9.7725168"><ele>102.80000000000001</ele><time>2026-04-19T06:45:07.892Z</time></trkpt><trkpt lat="44.9255996" lon="9.7724913"><ele>103.0</ele><time>2026-04-19T06:45:09.88Z</time></trkpt><trkpt lat="44.9255034" lon="9.7724648"><ele>103.0</ele><time>2026-04-19T06:45:11.899Z</time></trkpt><trkpt lat="44.9254048" lon="9.7724331"><ele>103.0</ele><time>2026-04-19T06:45:13.898Z</time></trkpt><trkpt lat="44.925314" lon="9.7724295"><ele>103.0</ele><time>2026-04-19T06:45:15.903Z</time></trkpt><trkpt lat="44.9252209" lon="9.772413"><ele>103.0</ele><time>2026-04-19T06:45:17.894Z</time></trkpt><trkpt lat="44.9251263" lon="9.772392"><ele>103.0</ele><time>2026-04-19T06:45:19.895Z</time></trkpt><trkpt lat="44.925038" lon="9.7723677"><ele>102.83333333333334</ele><time>2026-04-19T06:45:21.909Z</time></trkpt><trkpt lat="44.9249498" lon="9.7723447"><ele>102.66666666666667</ele><time>2026-04-19T06:45:23.899Z</time></trkpt><trkpt lat="44.9248715" lon="9.7723121"><ele>102.5</ele><time>2026-04-19T06:45:25.899Z</time></trkpt><trkpt lat="44.924787" lon="9.7722831"><ele>102.33333333333334</ele><time>2026-04-19T06:45:27.897Z</time></trkpt><trkpt lat="44.9246959" lon="9.7722595"><ele>102.16666666666667</ele><time>2026-04-19T06:45:29.89Z</time></trkpt><trkpt lat="44.9246058" lon="9.7722398"><ele>102.0</ele><time>2026-04-19T06:45:31.901Z</time></trkpt><trkpt lat="44.9245107" lon="9.7722281"><ele>102.0</ele><time>2026-04-19T06:45:33.897Z</time></trkpt><trkpt lat="44.9244094" lon="9.7722143"><ele>102.0</ele><time>2026-04-19T06:45:35.905Z</time></trkpt><trkpt lat="44.9243049" lon="9.7721913"><ele>102.0</ele><time>2026-04-19T06:45:37.902Z</time></trkpt><trkpt lat="44.9242047" lon="9.7721654"><ele>102.0</ele><time>2026-04-19T06:45:39.881Z</time></trkpt><trkpt lat="44.9241065" lon="9.7721397"><ele>102.0</ele><time>2026-04-19T06:45:41.9Z</time></trkpt><trkpt lat="44.9240156" lon="9.7721188"><ele>101.6</ele><time>2026-04-19T06:45:43.894Z</time></trkpt><trkpt lat="44.9239128" lon="9.7721063"><ele>101.19999999999999</ele><time>2026-04-19T06:45:45.896Z</time></trkpt><trkpt lat="44.9238111" lon="9.7720859"><ele>100.8</ele><time>2026-04-19T06:45:47.897Z</time></trkpt><trkpt lat="44.9237177" lon="9.7720604"><ele>100.4</ele><time>2026-04-19T06:45:49.909Z</time></trkpt><trkpt lat="44.9236231" lon="9.7720444"><ele>100.0</ele><time>2026-04-19T06:45:51.897Z</time></trkpt><trkpt lat="44.9235296" lon="9.7720239"><ele>100.0</ele><time>2026-04-19T06:45:53.904Z</time></trkpt><trkpt lat="44.9234397" lon="9.7719946"><ele>100.0</ele><time>2026-04-19T06:45:55.9Z</time></trkpt><trkpt lat="44.923341" lon="9.7719764"><ele>100.0</ele><time>2026-04-19T06:45:57.906Z</time></trkpt><trkpt lat="44.9232516" lon="9.7719512"><ele>100.0</ele><time>2026-04-19T06:45:59.9Z</time></trkpt><trkpt lat="44.9231565" lon="9.7719322"><ele>100.0</ele><time>2026-04-19T06:46:01.901Z</time></trkpt><trkpt lat="44.9230659" lon="9.7719112"><ele>100.6</ele><time>2026-04-19T06:46:03.899Z</time></trkpt><trkpt lat="44.922974" lon="9.7718969"><ele>101.2</ele><time>2026-04-19T06:46:05.895Z</time></trkpt><trkpt lat="44.9228819" lon="9.7718685"><ele>101.80000000000001</ele><time>2026-04-19T06:46:07.9Z</time></trkpt><trkpt lat="44.9227951" lon="9.7718513"><ele>102.4</ele><time>2026-04-19T06:46:09.89Z</time></trkpt><trkpt lat="44.9227131" lon="9.7718329"><ele>103.0</ele><time>2026-04-19T06:46:11.906Z</time></trkpt><trkpt lat="44.9226171" lon="9.7718227"><ele>103.60000000000001</ele><time>2026-04-19T06:46:13.904Z</time></trkpt><trkpt lat="44.9225249" lon="9.7718277"><ele>104.2</ele><time>2026-04-19T06:46:15.897Z</time></trkpt><trkpt lat="44.9224309" lon="9.7718257"><ele>104.8</ele><time>2026-04-19T06:46:17.893Z</time></trkpt><trkpt lat="44.9223368" lon="9.7718152"><ele>105.4</ele><time>2026-04-19T06:46:19.896Z</time></trkpt><trkpt lat="44.9222402" lon="9.7718006"><ele>106.0</ele><time>2026-04-19T06:46:21.897Z</time></trkpt><trkpt lat="44.9221454" lon="9.7717832"><ele>106.0</ele><time>2026-04-19T06:46:23.891Z</time></trkpt><trkpt lat="44.9220525" lon="9.7717546"><ele>106.0</ele><time>2026-04-19T06:46:25.898Z</time></trkpt><trkpt lat="44.9219631" lon="9.771727"><ele>106.0</ele><time>2026-04-19T06:46:27.901Z</time></trkpt><trkpt lat="44.9218754" lon="9.7716947"><ele>106.0</ele><time>2026-04-19T06:46:29.9Z</time></trkpt><trkpt lat="44.92178" lon="9.7716711"><ele>106.0</ele><time>2026-04-19T06:46:31.887Z</time></trkpt><trkpt lat="44.9216904" lon="9.7716506"><ele>106.0</ele><time>2026-04-19T06:46:33.899Z</time></trkpt><trkpt lat="44.9216016" lon="9.771621"><ele>106.0</ele><time>2026-04-19T06:46:35.901Z</time></trkpt><trkpt lat="44.9215171" lon="9.7715868"><ele>106.0</ele><time>2026-04-19T06:46:37.903Z</time></trkpt><trkpt lat="44.9214272" lon="9.7715644"><ele>106.0</ele><time>2026-04-19T06:46:39.89Z</time></trkpt><trkpt lat="44.9213395" lon="9.7715469"><ele>106.0</ele><time>2026-04-19T06:46:41.9Z</time></trkpt><trkpt lat="44.9212459" lon="9.7715211"><ele>106.0</ele><time>2026-04-19T06:46:43.9Z</time></trkpt><trkpt lat="44.9211545" lon="9.7714959"><ele>106.0</ele><time>2026-04-19T06:46:45.904Z</time></trkpt><trkpt lat="44.9210639" lon="9.7714749"><ele>106.0</ele><time>2026-04-19T06:46:47.883Z</time></trkpt><trkpt lat="44.920982" lon="9.7714491"><ele>106.0</ele><time>2026-04-19T06:46:49.903Z</time></trkpt><trkpt lat="44.9208863" lon="9.7714183"><ele>106.0</ele><time>2026-04-19T06:46:51.906Z</time></trkpt><trkpt lat="44.9207956" lon="9.7713869"><ele>106.50000000000001</ele><time>2026-04-19T06:46:53.893Z</time></trkpt><trkpt lat="44.9207108" lon="9.771362"><ele>107.0</ele><time>2026-04-19T06:46:55.908Z</time></trkpt><trkpt lat="44.9206282" lon="9.7713413"><ele>107.5</ele><time>2026-04-19T06:46:57.893Z</time></trkpt><trkpt lat="44.9205412" lon="9.7713112"><ele>108.0</ele><time>2026-04-19T06:46:59.901Z</time></trkpt><trkpt lat="44.9204554" lon="9.7712869"><ele>108.50000000000001</ele><time>2026-04-19T06:47:01.9Z</time></trkpt><trkpt lat="44.9203648" lon="9.7712599"><ele>109.0</ele><time>2026-04-19T06:47:03.906Z</time></trkpt><trkpt lat="44.9202781" lon="9.7712443"><ele>109.00000000000001</ele><time>2026-04-19T06:47:05.915Z</time></trkpt><trkpt lat="44.9201866" lon="9.7712169"><ele>109.0</ele><time>2026-04-19T06:47:07.914Z</time></trkpt><trkpt lat="44.9200962" lon="9.7711864"><ele>109.0</ele><time>2026-04-19T06:47:09.897Z</time></trkpt><trkpt lat="44.9200065" lon="9.7711599"><ele>109.0</ele><time>2026-04-19T06:47:11.914Z</time></trkpt><trkpt lat="44.9199235" lon="9.7711345"><ele>109.00000000000001</ele><time>2026-04-19T06:47:13.892Z</time></trkpt><trkpt lat="44.9198386" lon="9.7711133"><ele>109.0</ele><time>2026-04-19T06:47:15.906Z</time></trkpt><trkpt lat="44.9197509" lon="9.7710822"><ele>109.16666666666667</ele><time>2026-04-19T06:47:17.904Z</time></trkpt><trkpt lat="44.9196679" lon="9.7710479"><ele>109.33333333333334</ele><time>2026-04-19T06:47:19.899Z</time></trkpt><trkpt lat="44.9195789" lon="9.7710225"><ele>109.5</ele><time>2026-04-19T06:47:21.891Z</time></trkpt><trkpt lat="44.9194906" lon="9.7710067"><ele>109.66666666666666</ele><time>2026-04-19T06:47:23.901Z</time></trkpt><trkpt lat="44.9194111" lon="9.7709837"><ele>109.83333333333333</ele><time>2026-04-19T06:47:25.896Z</time></trkpt><trkpt lat="44.9193269" lon="9.7709658"><ele>110.0</ele><time>2026-04-19T06:47:27.896Z</time></trkpt><trkpt lat="44.9192435" lon="9.770946"><ele>109.66666666666666</ele><time>2026-04-19T06:47:29.9Z</time></trkpt><trkpt lat="44.9191662" lon="9.770921"><ele>109.33333333333333</ele><time>2026-04-19T06:47:31.903Z</time></trkpt><trkpt lat="44.9191035" lon="9.7709002"><ele>109.0</ele><time>2026-04-19T06:47:33.894Z</time></trkpt><trkpt lat="44.9190348" lon="9.7709027"><ele>108.66666666666666</ele><time>2026-04-19T06:47:36.906Z</time></trkpt><trkpt lat="44.918969" lon="9.7710017"><ele>108.33333333333333</ele><time>2026-04-19T06:47:39.897Z</time></trkpt><trkpt lat="44.9189341" lon="9.7711154"><ele>108.0</ele><time>2026-04-19T06:47:41.892Z</time></trkpt><trkpt lat="44.9189075" lon="9.7712388"><ele>107.60000000000001</ele><time>2026-04-19T06:47:43.896Z</time></trkpt><trkpt lat="44.9188884" lon="9.7713622"><ele>107.20000000000002</ele><time>2026-04-19T06:47:45.906Z</time></trkpt><trkpt lat="44.918857" lon="9.7714845"><ele>106.8</ele><time>2026-04-19T06:47:47.904Z</time></trkpt><trkpt lat="44.918831" lon="9.7716179"><ele>106.4</ele><time>2026-04-19T06:47:49.904Z</time></trkpt><trkpt lat="44.918802" lon="9.7717485"><ele>106.0</ele><time>2026-04-19T06:47:51.913Z</time></trkpt><trkpt lat="44.9187754" lon="9.7718789"><ele>105.8</ele><time>2026-04-19T06:47:53.897Z</time></trkpt><trkpt lat="44.918754" lon="9.7720075"><ele>105.6</ele><time>2026-04-19T06:47:55.904Z</time></trkpt><trkpt lat="44.9187367" lon="9.7721388"><ele>105.4</ele><time>2026-04-19T06:47:57.901Z</time></trkpt><trkpt lat="44.9187113" lon="9.7722629"><ele>105.2</ele><time>2026-04-19T06:47:59.894Z</time></trkpt><trkpt lat="44.918687" lon="9.7723964"><ele>105.0</ele><time>2026-04-19T06:48:01.903Z</time></trkpt><trkpt lat="44.9186649" lon="9.7725237"><ele>105.0</ele><time>2026-04-19T06:48:03.897Z</time></trkpt><trkpt lat="44.9186471" lon="9.7726518"><ele>105.0</ele><time>2026-04-19T06:48:05.907Z</time></trkpt><trkpt lat="44.9186278" lon="9.7727819"><ele>105.0</ele><time>2026-04-19T06:48:07.895Z</time></trkpt><trkpt lat="44.918583" lon="9.7729162"><ele>105.0</ele><time>2026-04-19T06:48:09.896Z</time></trkpt><trkpt lat="44.9185102" lon="9.7730209"><ele>105.0</ele><time>2026-04-19T06:48:11.899Z</time></trkpt><trkpt lat="44.9184181" lon="9.7730626"><ele>105.6</ele><time>2026-04-19T06:48:13.907Z</time></trkpt><trkpt lat="44.9183202" lon="9.773074"><ele>106.2</ele><time>2026-04-19T06:48:15.902Z</time></trkpt><trkpt lat="44.9182137" lon="9.7730504"><ele>106.80000000000001</ele><time>2026-04-19T06:48:17.895Z</time></trkpt><trkpt lat="44.9181138" lon="9.7730218"><ele>107.4</ele><time>2026-04-19T06:48:19.881Z</time></trkpt><trkpt lat="44.9180103" lon="9.7730065"><ele>108.0</ele><time>2026-04-19T06:48:21.903Z</time></trkpt><trkpt lat="44.9179078" lon="9.7729817"><ele>108.0</ele><time>2026-04-19T06:48:23.902Z</time></trkpt><trkpt lat="44.9178042" lon="9.7729583"><ele>108.00000000000001</ele><time>2026-04-19T06:48:25.903Z</time></trkpt><trkpt lat="44.9177038" lon="9.7729352"><ele>108.00000000000001</ele><time>2026-04-19T06:48:27.904Z</time></trkpt><trkpt lat="44.9176045" lon="9.772915"><ele>108.0</ele><time>2026-04-19T06:48:29.882Z</time></trkpt><trkpt lat="44.9175081" lon="9.7728901"><ele>108.0</ele><time>2026-04-19T06:48:31.901Z</time></trkpt><trkpt lat="44.9174056" lon="9.7728679"><ele>108.0</ele><time>2026-04-19T06:48:33.901Z</time></trkpt><trkpt lat="44.9173111" lon="9.7728451"><ele>108.00000000000001</ele><time>2026-04-19T06:48:35.893Z</time></trkpt><trkpt lat="44.9172115" lon="9.7728175"><ele>108.00000000000001</ele><time>2026-04-19T06:48:37.902Z</time></trkpt><trkpt lat="44.9171128" lon="9.7727955"><ele>108.0</ele><time>2026-04-19T06:48:39.906Z</time></trkpt><trkpt lat="44.9170222" lon="9.7727691"><ele>108.0</ele><time>2026-04-19T06:48:41.903Z</time></trkpt><trkpt lat="44.9169332" lon="9.7727408"><ele>108.0</ele><time>2026-04-19T06:48:43.897Z</time></trkpt><trkpt lat="44.9168356" lon="9.7727206"><ele>108.00000000000001</ele><time>2026-04-19T06:48:45.909Z</time></trkpt><trkpt lat="44.9167494" lon="9.7726974"><ele>108.00000000000001</ele><time>2026-04-19T06:48:47.896Z</time></trkpt><trkpt lat="44.916647" lon="9.7726748"><ele>108.0</ele><time>2026-04-19T06:48:49.909Z</time></trkpt><trkpt lat="44.9165475" lon="9.7726458"><ele>108.0</ele><time>2026-04-19T06:48:51.886Z</time></trkpt><trkpt lat="44.9164476" lon="9.7726231"><ele>108.0</ele><time>2026-04-19T06:48:53.882Z</time></trkpt><trkpt lat="44.9163487" lon="9.7726024"><ele>108.00000000000001</ele><time>2026-04-19T06:48:55.905Z</time></trkpt><trkpt lat="44.9162484" lon="9.7725708"><ele>108.00000000000001</ele><time>2026-04-19T06:48:57.904Z</time></trkpt><trkpt lat="44.9161539" lon="9.7725394"><ele>108.0</ele><time>2026-04-19T06:48:59.908Z</time></trkpt><trkpt lat="44.9160534" lon="9.7725225"><ele>108.0</ele><time>2026-04-19T06:49:01.896Z</time></trkpt><trkpt lat="44.9159483" lon="9.7725002"><ele>108.60000000000001</ele><time>2026-04-19T06:49:03.901Z</time></trkpt><trkpt lat="44.9158487" lon="9.7724663"><ele>109.20000000000002</ele><time>2026-04-19T06:49:05.902Z</time></trkpt><trkpt lat="44.9157492" lon="9.7724418"><ele>109.8</ele><time>2026-04-19T06:49:07.899Z</time></trkpt><trkpt lat="44.915642" lon="9.7724218"><ele>110.4</ele><time>2026-04-19T06:49:09.904Z</time></trkpt><trkpt lat="44.9155396" lon="9.7723951"><ele>111.0</ele><time>2026-04-19T06:49:11.902Z</time></trkpt><trkpt lat="44.91543" lon="9.7723653"><ele>111.0</ele><time>2026-04-19T06:49:13.908Z</time></trkpt><trkpt lat="44.9153255" lon="9.7723417"><ele>111.0</ele><time>2026-04-19T06:49:15.895Z</time></trkpt><trkpt lat="44.915226" lon="9.7723074"><ele>111.0</ele><time>2026-04-19T06:49:17.903Z</time></trkpt><trkpt lat="44.9151266" lon="9.7722839"><ele>111.0</ele><time>2026-04-19T06:49:19.906Z</time></trkpt><trkpt lat="44.9150191" lon="9.7722629"><ele>111.0</ele><time>2026-04-19T06:49:21.896Z</time></trkpt><trkpt lat="44.9149169" lon="9.7722434"><ele>111.0</ele><time>2026-04-19T06:49:23.9Z</time></trkpt><trkpt lat="44.9148178" lon="9.7722122"><ele>111.0</ele><time>2026-04-19T06:49:25.903Z</time></trkpt><trkpt lat="44.9147195" lon="9.7721878"><ele>111.0</ele><time>2026-04-19T06:49:27.903Z</time></trkpt><trkpt lat="44.9146236" lon="9.7721558"><ele>111.0</ele><time>2026-04-19T06:49:29.908Z</time></trkpt><trkpt lat="44.9145203" lon="9.7721281"><ele>111.0</ele><time>2026-04-19T06:49:31.907Z</time></trkpt><trkpt lat="44.9144156" lon="9.7721079"><ele>111.0</ele><time>2026-04-19T06:49:33.909Z</time></trkpt><trkpt lat="44.9143145" lon="9.7720852"><ele>111.0</ele><time>2026-04-19T06:49:35.903Z</time></trkpt><trkpt lat="44.9142108" lon="9.7720579"><ele>111.0</ele><time>2026-04-19T06:49:37.902Z</time></trkpt><trkpt lat="44.9141084" lon="9.7720278"><ele>111.0</ele><time>2026-04-19T06:49:39.898Z</time></trkpt><trkpt lat="44.914015" lon="9.771998"><ele>111.0</ele><time>2026-04-19T06:49:41.909Z</time></trkpt><trkpt lat="44.9139132" lon="9.7719792"><ele>110.8</ele><time>2026-04-19T06:49:43.912Z</time></trkpt><trkpt lat="44.9138066" lon="9.77195"><ele>110.6</ele><time>2026-04-19T06:49:45.919Z</time></trkpt><trkpt lat="44.91371" lon="9.7719266"><ele>110.4</ele><time>2026-04-19T06:49:47.9Z</time></trkpt><trkpt lat="44.91361" lon="9.7719042"><ele>110.2</ele><time>2026-04-19T06:49:49.9Z</time></trkpt><trkpt lat="44.9135054" lon="9.7718774"><ele>110.0</ele><time>2026-04-19T06:49:51.905Z</time></trkpt><trkpt lat="44.9134072" lon="9.7718599"><ele>110.2</ele><time>2026-04-19T06:49:53.907Z</time></trkpt><trkpt lat="44.9133139" lon="9.7718395"><ele>110.4</ele><time>2026-04-19T06:49:55.901Z</time></trkpt><trkpt lat="44.9132261" lon="9.7718152"><ele>110.6</ele><time>2026-04-19T06:49:57.899Z</time></trkpt><trkpt lat="44.9131355" lon="9.7717931"><ele>110.8</ele><time>2026-04-19T06:49:59.9Z</time></trkpt><trkpt lat="44.9130378" lon="9.7717737"><ele>111.0</ele><time>2026-04-19T06:50:01.898Z</time></trkpt><trkpt lat="44.912937" lon="9.7717562"><ele>111.0</ele><time>2026-04-19T06:50:03.891Z</time></trkpt><trkpt lat="44.9128425" lon="9.7717291"><ele>111.0</ele><time>2026-04-19T06:50:05.904Z</time></trkpt><trkpt lat="44.9127456" lon="9.7716915"><ele>111.0</ele><time>2026-04-19T06:50:07.897Z</time></trkpt><trkpt lat="44.9126508" lon="9.7716654"><ele>111.0</ele><time>2026-04-19T06:50:09.894Z</time></trkpt><trkpt lat="44.912548" lon="9.7716422"><ele>111.0</ele><time>2026-04-19T06:50:11.905Z</time></trkpt><trkpt lat="44.9124535" lon="9.7716137"><ele>110.8</ele><time>2026-04-19T06:50:13.902Z</time></trkpt><trkpt lat="44.912361" lon="9.7715906"><ele>110.6</ele><time>2026-04-19T06:50:15.896Z</time></trkpt><trkpt lat="44.9122598" lon="9.7715675"><ele>110.4</ele><time>2026-04-19T06:50:17.903Z</time></trkpt><trkpt lat="44.9121632" lon="9.7715366"><ele>110.2</ele><time>2026-04-19T06:50:19.894Z</time></trkpt><trkpt lat="44.912067" lon="9.7715197"><ele>110.0</ele><time>2026-04-19T06:50:21.906Z</time></trkpt><trkpt lat="44.9119695" lon="9.7714997"><ele>110.0</ele><time>2026-04-19T06:50:23.875Z</time></trkpt><trkpt lat="44.9118723" lon="9.7714739"><ele>110.0</ele><time>2026-04-19T06:50:25.894Z</time></trkpt><trkpt lat="44.9117781" lon="9.7714487"><ele>110.0</ele><time>2026-04-19T06:50:27.899Z</time></trkpt><trkpt lat="44.9116809" lon="9.7714257"><ele>110.0</ele><time>2026-04-19T06:50:29.896Z</time></trkpt><trkpt lat="44.9115863" lon="9.7713963"><ele>110.0</ele><time>2026-04-19T06:50:31.882Z</time></trkpt><trkpt lat="44.9114865" lon="9.7713737"><ele>110.6</ele><time>2026-04-19T06:50:33.9Z</time></trkpt><trkpt lat="44.911391" lon="9.7713455"><ele>111.2</ele><time>2026-04-19T06:50:35.904Z</time></trkpt><trkpt lat="44.9112913" lon="9.7713204"><ele>111.80000000000001</ele><time>2026-04-19T06:50:37.902Z</time></trkpt><trkpt lat="44.9112008" lon="9.7712895"><ele>112.4</ele><time>2026-04-19T06:50:39.903Z</time></trkpt><trkpt lat="44.9110984" lon="9.771273"><ele>113.0</ele><time>2026-04-19T06:50:41.906Z</time></trkpt><trkpt lat="44.9110059" lon="9.7712505"><ele>113.0</ele><time>2026-04-19T06:50:43.895Z</time></trkpt><trkpt lat="44.9109113" lon="9.7712259"><ele>113.00000000000001</ele><time>2026-04-19T06:50:45.907Z</time></trkpt><trkpt lat="44.9108165" lon="9.7712006"><ele>113.00000000000001</ele><time>2026-04-19T06:50:47.899Z</time></trkpt><trkpt lat="44.9107257" lon="9.7711804"><ele>113.0</ele><time>2026-04-19T06:50:49.896Z</time></trkpt><trkpt lat="44.9106351" lon="9.7711528"><ele>113.0</ele><time>2026-04-19T06:50:51.893Z</time></trkpt><trkpt lat="44.9105383" lon="9.7711287"><ele>113.60000000000001</ele><time>2026-04-19T06:50:53.901Z</time></trkpt><trkpt lat="44.9104413" lon="9.7711011"><ele>114.20000000000002</ele><time>2026-04-19T06:50:55.907Z</time></trkpt><trkpt lat="44.9103482" lon="9.7710829"><ele>114.8</ele><time>2026-04-19T06:50:57.897Z</time></trkpt><trkpt lat="44.9102562" lon="9.771058"><ele>115.4</ele><time>2026-04-19T06:50:59.901Z</time></trkpt><trkpt lat="44.9101644" lon="9.7710324"><ele>116.0</ele><time>2026-04-19T06:51:01.902Z</time></trkpt><trkpt lat="44.9100648" lon="9.7710087"><ele>117.0</ele><time>2026-04-19T06:51:03.909Z</time></trkpt><trkpt lat="44.9099683" lon="9.7709877"><ele>118.0</ele><time>2026-04-19T06:51:05.896Z</time></trkpt><trkpt lat="44.9098652" lon="9.7709657"><ele>119.0</ele><time>2026-04-19T06:51:07.897Z</time></trkpt><trkpt lat="44.9097712" lon="9.7709371"><ele>120.0</ele><time>2026-04-19T06:51:09.881Z</time></trkpt><trkpt lat="44.9096756" lon="9.7709093"><ele>121.0</ele><time>2026-04-19T06:51:11.872Z</time></trkpt><trkpt lat="44.9095843" lon="9.7708839"><ele>121.0</ele><time>2026-04-19T06:51:13.906Z</time></trkpt><trkpt lat="44.9094921" lon="9.7708545"><ele>121.0</ele><time>2026-04-19T06:51:15.904Z</time></trkpt><trkpt lat="44.909401" lon="9.770836"><ele>121.0</ele><time>2026-04-19T06:51:17.878Z</time></trkpt><trkpt lat="44.9093131" lon="9.7708133"><ele>121.0</ele><time>2026-04-19T06:51:19.898Z</time></trkpt><trkpt lat="44.9092286" lon="9.7707914"><ele>121.0</ele><time>2026-04-19T06:51:21.901Z</time></trkpt><trkpt lat="44.9091385" lon="9.7707657"><ele>121.4</ele><time>2026-04-19T06:51:23.904Z</time></trkpt><trkpt lat="44.9090459" lon="9.770751"><ele>121.8</ele><time>2026-04-19T06:51:25.898Z</time></trkpt><trkpt lat="44.9089489" lon="9.7707251"><ele>122.20000000000002</ele><time>2026-04-19T06:51:27.896Z</time></trkpt><trkpt lat="44.9088557" lon="9.770694"><ele>122.60000000000001</ele><time>2026-04-19T06:51:29.895Z</time></trkpt><trkpt lat="44.9087661" lon="9.7706696"><ele>123.0</ele><time>2026-04-19T06:51:31.903Z</time></trkpt><trkpt lat="44.908674" lon="9.7706415"><ele>123.0</ele><time>2026-04-19T06:51:33.9Z</time></trkpt><trkpt lat="44.9085873" lon="9.7706185"><ele>123.00000000000001</ele><time>2026-04-19T06:51:35.906Z</time></trkpt><trkpt lat="44.9084951" lon="9.7706019"><ele>123.00000000000001</ele><time>2026-04-19T06:51:37.903Z</time></trkpt><trkpt lat="44.9083986" lon="9.7705868"><ele>123.0</ele><time>2026-04-19T06:51:39.904Z</time></trkpt><trkpt lat="44.9083132" lon="9.7705627"><ele>123.0</ele><time>2026-04-19T06:51:41.903Z</time></trkpt><trkpt lat="44.9082171" lon="9.7705308"><ele>122.80000000000001</ele><time>2026-04-19T06:51:43.896Z</time></trkpt><trkpt lat="44.908128" lon="9.7705046"><ele>122.60000000000001</ele><time>2026-04-19T06:51:45.891Z</time></trkpt><trkpt lat="44.9080368" lon="9.7704856"><ele>122.39999999999999</ele><time>2026-04-19T06:51:47.908Z</time></trkpt><trkpt lat="44.9079458" lon="9.7704614"><ele>122.19999999999999</ele><time>2026-04-19T06:51:49.899Z</time></trkpt><trkpt lat="44.9078562" lon="9.770442"><ele>122.0</ele><time>2026-04-19T06:51:51.896Z</time></trkpt><trkpt lat="44.9077624" lon="9.7704216"><ele>122.0</ele><time>2026-04-19T06:51:53.901Z</time></trkpt><trkpt lat="44.9076783" lon="9.7703884"><ele>121.99999999999999</ele><time>2026-04-19T06:51:55.906Z</time></trkpt><trkpt lat="44.9075855" lon="9.7703835"><ele>121.99999999999999</ele><time>2026-04-19T06:51:57.894Z</time></trkpt><trkpt lat="44.9074837" lon="9.7703726"><ele>122.0</ele><time>2026-04-19T06:51:59.896Z</time></trkpt><trkpt lat="44.9073903" lon="9.7703444"><ele>122.0</ele><time>2026-04-19T06:52:01.899Z</time></trkpt><trkpt lat="44.9072969" lon="9.7703325"><ele>121.83333333333333</ele><time>2026-04-19T06:52:03.891Z</time></trkpt><trkpt lat="44.9072094" lon="9.7703263"><ele>121.66666666666666</ele><time>2026-04-19T06:52:05.904Z</time></trkpt><trkpt lat="44.9071248" lon="9.7703095"><ele>121.5</ele><time>2026-04-19T06:52:08.89Z</time></trkpt><trkpt lat="44.9070452" lon="9.7703038"><ele>121.33333333333334</ele><time>2026-04-19T06:52:10.891Z</time></trkpt><trkpt lat="44.9069744" lon="9.7702812"><ele>121.16666666666667</ele><time>2026-04-19T06:52:12.909Z</time></trkpt><trkpt lat="44.9069079" lon="9.7702668"><ele>121.0</ele><time>2026-04-19T06:52:14.903Z</time></trkpt><trkpt lat="44.9068324" lon="9.7702898"><ele>121.0</ele><time>2026-04-19T06:52:16.898Z</time></trkpt><trkpt lat="44.9067585" lon="9.7703703"><ele>121.0</ele><time>2026-04-19T06:52:18.902Z</time></trkpt><trkpt lat="44.9067232" lon="9.7704989"><ele>121.0</ele><time>2026-04-19T06:52:20.886Z</time></trkpt><trkpt lat="44.906701" lon="9.7706419"><ele>121.0</ele><time>2026-04-19T06:52:22.907Z</time></trkpt><trkpt lat="44.9066823" lon="9.7707754"><ele>121.0</ele><time>2026-04-19T06:52:24.908Z</time></trkpt><trkpt lat="44.9066635" lon="9.7709195"><ele>121.4</ele><time>2026-04-19T06:52:26.898Z</time></trkpt><trkpt lat="44.9066434" lon="9.7710626"><ele>121.8</ele><time>2026-04-19T06:52:28.912Z</time></trkpt><trkpt lat="44.9066173" lon="9.7712004"><ele>122.20000000000002</ele><time>2026-04-19T06:52:30.904Z</time></trkpt><trkpt lat="44.9065948" lon="9.7713413"><ele>122.60000000000001</ele><time>2026-04-19T06:52:32.897Z</time></trkpt><trkpt lat="44.9065718" lon="9.7714808"><ele>123.0</ele><time>2026-04-19T06:52:34.893Z</time></trkpt><trkpt lat="44.9065476" lon="9.7716322"><ele>123.0</ele><time>2026-04-19T06:52:36.896Z</time></trkpt><trkpt lat="44.9065321" lon="9.7717945"><ele>123.00000000000001</ele><time>2026-04-19T06:52:38.887Z</time></trkpt><trkpt lat="44.9065429" lon="9.7719592"><ele>123.00000000000001</ele><time>2026-04-19T06:52:40.897Z</time></trkpt><trkpt lat="44.9065502" lon="9.7720544"><ele>123.0</ele><time>2026-04-19T06:52:41.901Z</time></trkpt><trkpt lat="44.9065572" lon="9.7721434"><ele>123.0</ele><time>2026-04-19T06:52:42.905Z</time></trkpt><trkpt lat="44.906581" lon="9.7723022"><ele>122.80000000000001</ele><time>2026-04-19T06:52:44.904Z</time></trkpt><trkpt lat="44.9066103" lon="9.7724488"><ele>122.60000000000001</ele><time>2026-04-19T06:52:46.903Z</time></trkpt><trkpt lat="44.9066556" lon="9.7725882"><ele>122.39999999999999</ele><time>2026-04-19T06:52:48.907Z</time></trkpt><trkpt lat="44.906688" lon="9.7727267"><ele>122.19999999999999</ele><time>2026-04-19T06:52:50.885Z</time></trkpt><trkpt lat="44.9067208" lon="9.772859"><ele>122.0</ele><time>2026-04-19T06:52:52.909Z</time></trkpt><trkpt lat="44.906749" lon="9.7729853"><ele>121.6</ele><time>2026-04-19T06:52:54.894Z</time></trkpt><trkpt lat="44.90677" lon="9.7731202"><ele>121.19999999999999</ele><time>2026-04-19T06:52:56.885Z</time></trkpt><trkpt lat="44.9067921" lon="9.7732666"><ele>120.8</ele><time>2026-04-19T06:52:58.901Z</time></trkpt><trkpt lat="44.9068329" lon="9.7733946"><ele>120.4</ele><time>2026-04-19T06:53:00.908Z</time></trkpt><trkpt lat="44.9068886" lon="9.773533"><ele>120.0</ele><time>2026-04-19T06:53:02.908Z</time></trkpt><trkpt lat="44.9069389" lon="9.7736808"><ele>120.0</ele><time>2026-04-19T06:53:04.902Z</time></trkpt><trkpt lat="44.9069977" lon="9.7738176"><ele>120.0</ele><time>2026-04-19T06:53:06.918Z</time></trkpt><trkpt lat="44.9070478" lon="9.7739588"><ele>120.0</ele><time>2026-04-19T06:53:08.904Z</time></trkpt><trkpt lat="44.9071008" lon="9.7741081"><ele>120.0</ele><time>2026-04-19T06:53:10.897Z</time></trkpt><trkpt lat="44.907144" lon="9.7742485"><ele>119.5</ele><time>2026-04-19T06:53:12.905Z</time></trkpt><trkpt lat="44.9072014" lon="9.7744003"><ele>119.0</ele><time>2026-04-19T06:53:14.903Z</time></trkpt><trkpt lat="44.9072526" lon="9.7745465"><ele>118.5</ele><time>2026-04-19T06:53:16.868Z</time></trkpt><trkpt lat="44.9073107" lon="9.7746989"><ele>118.0</ele><time>2026-04-19T06:53:18.897Z</time></trkpt><trkpt lat="44.9073678" lon="9.7748524"><ele>118.0</ele><time>2026-04-19T06:53:20.906Z</time></trkpt><trkpt lat="44.9073966" lon="9.7749332"><ele>118.0</ele><time>2026-04-19T06:53:21.897Z</time></trkpt><trkpt lat="44.9074239" lon="9.7750171"><ele>118.0</ele><time>2026-04-19T06:53:22.9Z</time></trkpt><trkpt lat="44.9074567" lon="9.7750969"><ele>118.0</ele><time>2026-04-19T06:53:23.902Z</time></trkpt><trkpt lat="44.9074834" lon="9.7751792"><ele>118.0</ele><time>2026-04-19T06:53:24.897Z</time></trkpt><trkpt lat="44.907511" lon="9.7752606"><ele>118.0</ele><time>2026-04-19T06:53:25.9Z</time></trkpt><trkpt lat="44.9075426" lon="9.7753439"><ele>118.0</ele><time>2026-04-19T06:53:26.886Z</time></trkpt><trkpt lat="44.9076039" lon="9.7754954"><ele>118.5</ele><time>2026-04-19T06:53:28.904Z</time></trkpt><trkpt lat="44.9076593" lon="9.7756403"><ele>119.0</ele><time>2026-04-19T06:53:30.891Z</time></trkpt><trkpt lat="44.9077165" lon="9.775787"><ele>119.5</ele><time>2026-04-19T06:53:32.898Z</time></trkpt><trkpt lat="44.9077683" lon="9.7759419"><ele>120.0</ele><time>2026-04-19T06:53:34.887Z</time></trkpt><trkpt lat="44.9078195" lon="9.7760919"><ele>120.0</ele><time>2026-04-19T06:53:36.869Z</time></trkpt><trkpt lat="44.907876" lon="9.7762456"><ele>120.0</ele><time>2026-04-19T06:53:38.901Z</time></trkpt><trkpt lat="44.9079354" lon="9.7763957"><ele>120.0</ele><time>2026-04-19T06:53:40.895Z</time></trkpt><trkpt lat="44.9079906" lon="9.7765515"><ele>120.0</ele><time>2026-04-19T06:53:42.908Z</time></trkpt><trkpt lat="44.9080447" lon="9.776695"><ele>120.0</ele><time>2026-04-19T06:53:44.872Z</time></trkpt><trkpt lat="44.9081011" lon="9.7768334"><ele>120.0</ele><time>2026-04-19T06:53:46.885Z</time></trkpt><trkpt lat="44.9081552" lon="9.7769876"><ele>120.0</ele><time>2026-04-19T06:53:48.903Z</time></trkpt><trkpt lat="44.9082154" lon="9.7771428"><ele>120.0</ele><time>2026-04-19T06:53:50.899Z</time></trkpt><trkpt lat="44.9082688" lon="9.7772873"><ele>120.0</ele><time>2026-04-19T06:53:52.889Z</time></trkpt><trkpt lat="44.9083182" lon="9.777428"><ele>120.0</ele><time>2026-04-19T06:53:54.907Z</time></trkpt><trkpt lat="44.9083735" lon="9.7775745"><ele>120.0</ele><time>2026-04-19T06:53:56.901Z</time></trkpt><trkpt lat="44.9084343" lon="9.7777252"><ele>120.0</ele><time>2026-04-19T06:53:58.892Z</time></trkpt><trkpt lat="44.9084853" lon="9.7778645"><ele>120.0</ele><time>2026-04-19T06:54:00.898Z</time></trkpt><trkpt lat="44.9085301" lon="9.7780098"><ele>120.0</ele><time>2026-04-19T06:54:02.907Z</time></trkpt><trkpt lat="44.9085798" lon="9.7781566"><ele>120.0</ele><time>2026-04-19T06:54:04.906Z</time></trkpt><trkpt lat="44.908634" lon="9.7782967"><ele>120.0</ele><time>2026-04-19T06:54:06.896Z</time></trkpt><trkpt lat="44.9086877" lon="9.7784478"><ele>120.2</ele><time>2026-04-19T06:54:08.914Z</time></trkpt><trkpt lat="44.9087351" lon="9.7786012"><ele>120.4</ele><time>2026-04-19T06:54:10.868Z</time></trkpt><trkpt lat="44.9087773" lon="9.7787515"><ele>120.6</ele><time>2026-04-19T06:54:12.901Z</time></trkpt><trkpt lat="44.9088139" lon="9.7788887"><ele>120.8</ele><time>2026-04-19T06:54:14.907Z</time></trkpt><trkpt lat="44.9088474" lon="9.7790255"><ele>121.0</ele><time>2026-04-19T06:54:16.911Z</time></trkpt><trkpt lat="44.9088789" lon="9.7791876"><ele>121.0</ele><time>2026-04-19T06:54:18.9Z</time></trkpt><trkpt lat="44.908902" lon="9.7792707"><ele>121.0</ele><time>2026-04-19T06:54:19.893Z</time></trkpt><trkpt lat="44.9089226" lon="9.7794295"><ele>121.0</ele><time>2026-04-19T06:54:21.9Z</time></trkpt><trkpt lat="44.908954" lon="9.7795875"><ele>121.0</ele><time>2026-04-19T06:54:23.898Z</time></trkpt><trkpt lat="44.9089795" lon="9.7797413"><ele>121.0</ele><time>2026-04-19T06:54:25.902Z</time></trkpt><trkpt lat="44.9090085" lon="9.7799034"><ele>120.4</ele><time>2026-04-19T06:54:27.896Z</time></trkpt><trkpt lat="44.9090203" lon="9.7800658"><ele>119.8</ele><time>2026-04-19T06:54:29.905Z</time></trkpt><trkpt lat="44.9090281" lon="9.7802146"><ele>119.20000000000002</ele><time>2026-04-19T06:54:31.9Z</time></trkpt><trkpt lat="44.9090366" lon="9.7803697"><ele>118.60000000000001</ele><time>2026-04-19T06:54:33.885Z</time></trkpt><trkpt lat="44.9090461" lon="9.7805246"><ele>118.0</ele><time>2026-04-19T06:54:35.897Z</time></trkpt><trkpt lat="44.9090511" lon="9.7806854"><ele>117.60000000000001</ele><time>2026-04-19T06:54:37.918Z</time></trkpt><trkpt lat="44.9090597" lon="9.7808448"><ele>117.20000000000002</ele><time>2026-04-19T06:54:39.913Z</time></trkpt><trkpt lat="44.9090497" lon="9.7809977"><ele>116.8</ele><time>2026-04-19T06:54:41.899Z</time></trkpt><trkpt lat="44.9090398" lon="9.7811528"><ele>116.4</ele><time>2026-04-19T06:54:43.907Z</time></trkpt><trkpt lat="44.9090276" lon="9.7812967"><ele>116.0</ele><time>2026-04-19T06:54:45.898Z</time></trkpt><trkpt lat="44.9090184" lon="9.7814487"><ele>116.0</ele><time>2026-04-19T06:54:47.914Z</time></trkpt><trkpt lat="44.9089998" lon="9.7816023"><ele>116.0</ele><time>2026-04-19T06:54:49.908Z</time></trkpt><trkpt lat="44.9089819" lon="9.7817563"><ele>116.0</ele><time>2026-04-19T06:54:51.904Z</time></trkpt><trkpt lat="44.9089627" lon="9.7819071"><ele>116.0</ele><time>2026-04-19T06:54:53.902Z</time></trkpt><trkpt lat="44.9089502" lon="9.782055"><ele>116.0</ele><time>2026-04-19T06:54:55.895Z</time></trkpt><trkpt lat="44.9089328" lon="9.7822004"><ele>116.0</ele><time>2026-04-19T06:54:57.895Z</time></trkpt><trkpt lat="44.9089055" lon="9.7823303"><ele>116.0</ele><time>2026-04-19T06:54:59.902Z</time></trkpt><trkpt lat="44.9088797" lon="9.7824549"><ele>116.0</ele><time>2026-04-19T06:55:01.903Z</time></trkpt><trkpt lat="44.9088268" lon="9.7825622"><ele>116.0</ele><time>2026-04-19T06:55:03.911Z</time></trkpt><trkpt lat="44.9087427" lon="9.7826304"><ele>116.0</ele><time>2026-04-19T06:55:05.903Z</time></trkpt><trkpt lat="44.9086521" lon="9.7826457"><ele>116.0</ele><time>2026-04-19T06:55:07.908Z</time></trkpt><trkpt lat="44.9085679" lon="9.7826132"><ele>116.0</ele><time>2026-04-19T06:55:09.915Z</time></trkpt><trkpt lat="44.9084741" lon="9.7825753"><ele>116.0</ele><time>2026-04-19T06:55:11.908Z</time></trkpt><trkpt lat="44.9083794" lon="9.7825361"><ele>116.0</ele><time>2026-04-19T06:55:13.9Z</time></trkpt><trkpt lat="44.9082807" lon="9.7825076"><ele>116.0</ele><time>2026-04-19T06:55:15.887Z</time></trkpt><trkpt lat="44.908191" lon="9.7824733"><ele>116.0</ele><time>2026-04-19T06:55:17.896Z</time></trkpt><trkpt lat="44.908094" lon="9.7824412"><ele>116.0</ele><time>2026-04-19T06:55:19.894Z</time></trkpt><trkpt lat="44.9079953" lon="9.7824053"><ele>116.0</ele><time>2026-04-19T06:55:21.9Z</time></trkpt><trkpt lat="44.9078939" lon="9.7823649"><ele>116.0</ele><time>2026-04-19T06:55:23.909Z</time></trkpt><trkpt lat="44.9077942" lon="9.782334"><ele>116.0</ele><time>2026-04-19T06:55:25.899Z</time></trkpt><trkpt lat="44.9076957" lon="9.7822955"><ele>116.0</ele><time>2026-04-19T06:55:27.897Z</time></trkpt><trkpt lat="44.9076145" lon="9.7822452"><ele>116.0</ele><time>2026-04-19T06:55:29.894Z</time></trkpt><trkpt lat="44.9075215" lon="9.7822009"><ele>116.0</ele><time>2026-04-19T06:55:31.9Z</time></trkpt><trkpt lat="44.9074269" lon="9.7821697"><ele>116.0</ele><time>2026-04-19T06:55:33.895Z</time></trkpt><trkpt lat="44.9073293" lon="9.7821418"><ele>116.0</ele><time>2026-04-19T06:55:35.881Z</time></trkpt><trkpt lat="44.907221" lon="9.782117"><ele>116.4</ele><time>2026-04-19T06:55:37.896Z</time></trkpt><trkpt lat="44.9071146" lon="9.7820771"><ele>116.8</ele><time>2026-04-19T06:55:39.901Z</time></trkpt><trkpt lat="44.9070158" lon="9.7820414"><ele>117.20000000000002</ele><time>2026-04-19T06:55:41.907Z</time></trkpt><trkpt lat="44.9069161" lon="9.7820081"><ele>117.60000000000001</ele><time>2026-04-19T06:55:43.908Z</time></trkpt><trkpt lat="44.9068183" lon="9.7819732"><ele>118.0</ele><time>2026-04-19T06:55:45.902Z</time></trkpt><trkpt lat="44.9067262" lon="9.7819227"><ele>118.0</ele><time>2026-04-19T06:55:47.897Z</time></trkpt><trkpt lat="44.9066382" lon="9.7818848"><ele>118.00000000000001</ele><time>2026-04-19T06:55:49.896Z</time></trkpt><trkpt lat="44.906549" lon="9.7818601"><ele>118.00000000000001</ele><time>2026-04-19T06:55:51.894Z</time></trkpt><trkpt lat="44.906448" lon="9.7818264"><ele>118.0</ele><time>2026-04-19T06:55:53.902Z</time></trkpt><trkpt lat="44.9063481" lon="9.7817904"><ele>118.0</ele><time>2026-04-19T06:55:55.901Z</time></trkpt><trkpt lat="44.9062564" lon="9.7817386"><ele>118.0</ele><time>2026-04-19T06:55:57.899Z</time></trkpt><trkpt lat="44.906164" lon="9.7817078"><ele>118.00000000000001</ele><time>2026-04-19T06:55:59.905Z</time></trkpt><trkpt lat="44.9060628" lon="9.7816772"><ele>118.00000000000001</ele><time>2026-04-19T06:56:01.905Z</time></trkpt><trkpt lat="44.9059656" lon="9.7816553"><ele>118.0</ele><time>2026-04-19T06:56:03.901Z</time></trkpt><trkpt lat="44.9058682" lon="9.7816245"><ele>118.0</ele><time>2026-04-19T06:56:05.894Z</time></trkpt><trkpt lat="44.905772" lon="9.7815905"><ele>118.60000000000001</ele><time>2026-04-19T06:56:07.893Z</time></trkpt><trkpt lat="44.9056779" lon="9.7815589"><ele>119.20000000000002</ele><time>2026-04-19T06:56:09.896Z</time></trkpt><trkpt lat="44.9055854" lon="9.7815218"><ele>119.8</ele><time>2026-04-19T06:56:11.897Z</time></trkpt><trkpt lat="44.9054926" lon="9.7814866"><ele>120.4</ele><time>2026-04-19T06:56:13.908Z</time></trkpt><trkpt lat="44.9053996" lon="9.7814589"><ele>121.0</ele><time>2026-04-19T06:56:15.896Z</time></trkpt><trkpt lat="44.9053024" lon="9.7814297"><ele>121.0</ele><time>2026-04-19T06:56:17.898Z</time></trkpt><trkpt lat="44.9052086" lon="9.7813996"><ele>121.0</ele><time>2026-04-19T06:56:19.899Z</time></trkpt><trkpt lat="44.9051169" lon="9.7813582"><ele>121.0</ele><time>2026-04-19T06:56:21.893Z</time></trkpt><trkpt lat="44.905022" lon="9.7813211"><ele>121.0</ele><time>2026-04-19T06:56:23.906Z</time></trkpt><trkpt lat="44.9049293" lon="9.7812898"><ele>121.0</ele><time>2026-04-19T06:56:25.895Z</time></trkpt><trkpt lat="44.9048345" lon="9.7812572"><ele>121.6</ele><time>2026-04-19T06:56:27.899Z</time></trkpt><trkpt lat="44.9047451" lon="9.7812303"><ele>122.19999999999999</ele><time>2026-04-19T06:56:29.884Z</time></trkpt><trkpt lat="44.9046529" lon="9.7811895"><ele>122.80000000000001</ele><time>2026-04-19T06:56:31.902Z</time></trkpt><trkpt lat="44.904565" lon="9.7811556"><ele>123.4</ele><time>2026-04-19T06:56:33.897Z</time></trkpt><trkpt lat="44.9044701" lon="9.7811316"><ele>124.0</ele><time>2026-04-19T06:56:35.891Z</time></trkpt><trkpt lat="44.9043753" lon="9.781099"><ele>124.0</ele><time>2026-04-19T06:56:37.906Z</time></trkpt><trkpt lat="44.9042781" lon="9.7810632"><ele>124.0</ele><time>2026-04-19T06:56:39.904Z</time></trkpt><trkpt lat="44.9041846" lon="9.7810315"><ele>124.0</ele><time>2026-04-19T06:56:41.903Z</time></trkpt><trkpt lat="44.9040929" lon="9.7809939"><ele>124.0</ele><time>2026-04-19T06:56:43.898Z</time></trkpt><trkpt lat="44.9040053" lon="9.7809517"><ele>124.0</ele><time>2026-04-19T06:56:45.911Z</time></trkpt><trkpt lat="44.9039142" lon="9.7809239"><ele>124.16666666666667</ele><time>2026-04-19T06:56:47.909Z</time></trkpt><trkpt lat="44.9038284" lon="9.7808892"><ele>124.33333333333334</ele><time>2026-04-19T06:56:49.902Z</time></trkpt><trkpt lat="44.9037377" lon="9.7808607"><ele>124.5</ele><time>2026-04-19T06:56:51.889Z</time></trkpt><trkpt lat="44.9036566" lon="9.7808392"><ele>124.66666666666666</ele><time>2026-04-19T06:56:53.9Z</time></trkpt><trkpt lat="44.9035635" lon="9.7808287"><ele>124.83333333333333</ele><time>2026-04-19T06:56:55.913Z</time></trkpt><trkpt lat="44.9034898" lon="9.7808833"><ele>125.0</ele><time>2026-04-19T06:56:57.899Z</time></trkpt><trkpt lat="44.9034403" lon="9.7809866"><ele>125.8</ele><time>2026-04-19T06:56:59.905Z</time></trkpt><trkpt lat="44.9033752" lon="9.7810931"><ele>126.6</ele><time>2026-04-19T06:57:01.901Z</time></trkpt><trkpt lat="44.9033189" lon="9.7812047"><ele>127.4</ele><time>2026-04-19T06:57:03.896Z</time></trkpt><trkpt lat="44.9032696" lon="9.7813176"><ele>128.2</ele><time>2026-04-19T06:57:05.906Z</time></trkpt><trkpt lat="44.9032148" lon="9.7814282"><ele>129.0</ele><time>2026-04-19T06:57:07.897Z</time></trkpt><trkpt lat="44.9031679" lon="9.7815347"><ele>129.0</ele><time>2026-04-19T06:57:09.907Z</time></trkpt><trkpt lat="44.9031272" lon="9.7816439"><ele>129.0</ele><time>2026-04-19T06:57:11.903Z</time></trkpt><trkpt lat="44.9030929" lon="9.7817548"><ele>129.0</ele><time>2026-04-19T06:57:13.9Z</time></trkpt><trkpt lat="44.9030721" lon="9.7818555"><ele>129.0</ele><time>2026-04-19T06:57:15.908Z</time></trkpt><trkpt lat="44.903049" lon="9.7819634"><ele>129.0</ele><time>2026-04-19T06:57:17.898Z</time></trkpt><trkpt lat="44.9030356" lon="9.7820849"><ele>129.0</ele><time>2026-04-19T06:57:19.899Z</time></trkpt><trkpt lat="44.9030284" lon="9.7822156"><ele>128.8</ele><time>2026-04-19T06:57:21.903Z</time></trkpt><trkpt lat="44.9030104" lon="9.7823449"><ele>128.60000000000002</ele><time>2026-04-19T06:57:23.892Z</time></trkpt><trkpt lat="44.9029712" lon="9.7824728"><ele>128.4</ele><time>2026-04-19T06:57:25.916Z</time></trkpt><trkpt lat="44.9029276" lon="9.7825928"><ele>128.20000000000002</ele><time>2026-04-19T06:57:27.897Z</time></trkpt><trkpt lat="44.9028755" lon="9.7826923"><ele>128.0</ele><time>2026-04-19T06:57:29.902Z</time></trkpt><trkpt lat="44.9028183" lon="9.7827882"><ele>127.80000000000001</ele><time>2026-04-19T06:57:31.899Z</time></trkpt><trkpt lat="44.9027533" lon="9.7829017"><ele>127.60000000000001</ele><time>2026-04-19T06:57:33.903Z</time></trkpt><trkpt lat="44.9026988" lon="9.7830006"><ele>127.39999999999999</ele><time>2026-04-19T06:57:35.899Z</time></trkpt><trkpt lat="44.9026385" lon="9.7830965"><ele>127.19999999999999</ele><time>2026-04-19T06:57:37.906Z</time></trkpt><trkpt lat="44.9025763" lon="9.7831949"><ele>127.0</ele><time>2026-04-19T06:57:39.905Z</time></trkpt><trkpt lat="44.9025153" lon="9.7832913"><ele>127.0</ele><time>2026-04-19T06:57:41.905Z</time></trkpt><trkpt lat="44.9024606" lon="9.7833938"><ele>126.99999999999999</ele><time>2026-04-19T06:57:43.904Z</time></trkpt><trkpt lat="44.9024024" lon="9.783486"><ele>126.99999999999999</ele><time>2026-04-19T06:57:45.902Z</time></trkpt><trkpt lat="44.9023391" lon="9.7835917"><ele>127.0</ele><time>2026-04-19T06:57:47.891Z</time></trkpt><trkpt lat="44.9022779" lon="9.7837004"><ele>127.0</ele><time>2026-04-19T06:57:49.908Z</time></trkpt><trkpt lat="44.902219" lon="9.7838168"><ele>127.39999999999999</ele><time>2026-04-19T06:57:51.898Z</time></trkpt><trkpt lat="44.9021596" lon="9.783917"><ele>127.79999999999998</ele><time>2026-04-19T06:57:53.9Z</time></trkpt><trkpt lat="44.9020972" lon="9.7840135"><ele>128.2</ele><time>2026-04-19T06:57:55.898Z</time></trkpt><trkpt lat="44.9020354" lon="9.7841216"><ele>128.6</ele><time>2026-04-19T06:57:57.909Z</time></trkpt><trkpt lat="44.9019747" lon="9.7842156"><ele>129.0</ele><time>2026-04-19T06:57:59.902Z</time></trkpt><trkpt lat="44.9019141" lon="9.7843232"><ele>129.2</ele><time>2026-04-19T06:58:01.904Z</time></trkpt><trkpt lat="44.9018441" lon="9.7844244"><ele>129.4</ele><time>2026-04-19T06:58:03.901Z</time></trkpt><trkpt lat="44.9017742" lon="9.7845267"><ele>129.6</ele><time>2026-04-19T06:58:05.904Z</time></trkpt><trkpt lat="44.9017084" lon="9.784645"><ele>129.8</ele><time>2026-04-19T06:58:07.901Z</time></trkpt><trkpt lat="44.9016422" lon="9.7847691"><ele>130.0</ele><time>2026-04-19T06:58:09.905Z</time></trkpt><trkpt lat="44.9015714" lon="9.7848867"><ele>130.0</ele><time>2026-04-19T06:58:11.903Z</time></trkpt><trkpt lat="44.901514" lon="9.7850045"><ele>130.0</ele><time>2026-04-19T06:58:13.895Z</time></trkpt><trkpt lat="44.9014651" lon="9.7851328"><ele>130.0</ele><time>2026-04-19T06:58:15.865Z</time></trkpt><trkpt lat="44.9014303" lon="9.7852858"><ele>130.0</ele><time>2026-04-19T06:58:17.864Z</time></trkpt><trkpt lat="44.9013997" lon="9.7854332"><ele>130.0</ele><time>2026-04-19T06:58:19.879Z</time></trkpt><trkpt lat="44.9013774" lon="9.7855817"><ele>129.8</ele><time>2026-04-19T06:58:21.893Z</time></trkpt><trkpt lat="44.9013541" lon="9.7857376"><ele>129.6</ele><time>2026-04-19T06:58:23.87Z</time></trkpt><trkpt lat="44.901337" lon="9.785883"><ele>129.4</ele><time>2026-04-19T06:58:25.865Z</time></trkpt><trkpt lat="44.9013198" lon="9.7860268"><ele>129.2</ele><time>2026-04-19T06:58:27.884Z</time></trkpt><trkpt lat="44.9012966" lon="9.7861795"><ele>129.0</ele><time>2026-04-19T06:58:29.897Z</time></trkpt><trkpt lat="44.9012761" lon="9.7863232"><ele>128.2</ele><time>2026-04-19T06:58:31.875Z</time></trkpt><trkpt lat="44.9012512" lon="9.7864655"><ele>127.4</ele><time>2026-04-19T06:58:33.901Z</time></trkpt><trkpt lat="44.9012229" lon="9.7866058"><ele>126.6</ele><time>2026-04-19T06:58:35.869Z</time></trkpt><trkpt lat="44.9012006" lon="9.7867502"><ele>125.8</ele><time>2026-04-19T06:58:37.887Z</time></trkpt><trkpt lat="44.9011756" lon="9.7869001"><ele>125.0</ele><time>2026-04-19T06:58:39.905Z</time></trkpt><trkpt lat="44.9011557" lon="9.7870396"><ele>125.0</ele><time>2026-04-19T06:58:41.902Z</time></trkpt><trkpt lat="44.9011389" lon="9.7871762"><ele>125.0</ele><time>2026-04-19T06:58:43.89Z</time></trkpt><trkpt lat="44.9011226" lon="9.7873201"><ele>125.0</ele><time>2026-04-19T06:58:45.882Z</time></trkpt><trkpt lat="44.9010977" lon="9.7874627"><ele>125.0</ele><time>2026-04-19T06:58:47.895Z</time></trkpt><trkpt lat="44.9010762" lon="9.7876058"><ele>125.0</ele><time>2026-04-19T06:58:49.896Z</time></trkpt><trkpt lat="44.9010492" lon="9.7877446"><ele>125.6</ele><time>2026-04-19T06:58:51.892Z</time></trkpt><trkpt lat="44.901027" lon="9.7879006"><ele>126.2</ele><time>2026-04-19T06:58:53.89Z</time></trkpt><trkpt lat="44.9010074" lon="9.7880531"><ele>126.80000000000001</ele><time>2026-04-19T06:58:55.881Z</time></trkpt><trkpt lat="44.9009823" lon="9.7882055"><ele>127.4</ele><time>2026-04-19T06:58:57.905Z</time></trkpt><trkpt lat="44.9009576" lon="9.7883563"><ele>128.0</ele><time>2026-04-19T06:58:59.92Z</time></trkpt><trkpt lat="44.9009445" lon="9.7884804"><ele>127.99999999999999</ele><time>2026-04-19T06:59:01.89Z</time></trkpt><trkpt lat="44.9009302" lon="9.7886012"><ele>128.0</ele><time>2026-04-19T06:59:03.905Z</time></trkpt><trkpt lat="44.9009108" lon="9.7887182"><ele>128.0</ele><time>2026-04-19T06:59:05.901Z</time></trkpt><trkpt lat="44.9008924" lon="9.7888124"><ele>128.0</ele><time>2026-04-19T06:59:07.885Z</time></trkpt><trkpt lat="44.9008866" lon="9.788907"><ele>127.99999999999999</ele><time>2026-04-19T06:59:09.9Z</time></trkpt><trkpt lat="44.9009205" lon="9.7890182"><ele>128.0</ele><time>2026-04-19T06:59:11.911Z</time></trkpt><trkpt lat="44.900958" lon="9.7891489"><ele>128.0</ele><time>2026-04-19T06:59:13.9Z</time></trkpt><trkpt lat="44.901001" lon="9.7892666"><ele>128.0</ele><time>2026-04-19T06:59:15.907Z</time></trkpt><trkpt lat="44.9010503" lon="9.7893904"><ele>128.0</ele><time>2026-04-19T06:59:17.906Z</time></trkpt><trkpt lat="44.9010931" lon="9.7895167"><ele>128.0</ele><time>2026-04-19T06:59:19.89Z</time></trkpt><trkpt lat="44.9011463" lon="9.789636"><ele>128.0</ele><time>2026-04-19T06:59:21.903Z</time></trkpt><trkpt lat="44.9011856" lon="9.7897656"><ele>128.0</ele><time>2026-04-19T06:59:23.897Z</time></trkpt><trkpt lat="44.9011811" lon="9.7898893"><ele>128.0</ele><time>2026-04-19T06:59:25.903Z</time></trkpt><trkpt lat="44.9011278" lon="9.7899912"><ele>128.0</ele><time>2026-04-19T06:59:27.907Z</time></trkpt><trkpt lat="44.9010607" lon="9.7900914"><ele>128.0</ele><time>2026-04-19T06:59:29.911Z</time></trkpt><trkpt lat="44.9010133" lon="9.7902092"><ele>128.0</ele><time>2026-04-19T06:59:31.889Z</time></trkpt><trkpt lat="44.9009793" lon="9.7903337"><ele>128.0</ele><time>2026-04-19T06:59:33.914Z</time></trkpt><trkpt lat="44.9009498" lon="9.7904532"><ele>128.0</ele><time>2026-04-19T06:59:35.907Z</time></trkpt><trkpt lat="44.9009273" lon="9.7905775"><ele>128.0</ele><time>2026-04-19T06:59:37.874Z</time></trkpt><trkpt lat="44.900899" lon="9.7907168"><ele>128.0</ele><time>2026-04-19T06:59:39.905Z</time></trkpt><trkpt lat="44.9008715" lon="9.7908422"><ele>128.0</ele><time>2026-04-19T06:59:41.901Z</time></trkpt><trkpt lat="44.900855" lon="9.7909748"><ele>128.20000000000002</ele><time>2026-04-19T06:59:43.895Z</time></trkpt><trkpt lat="44.9008362" lon="9.7911056"><ele>128.4</ele><time>2026-04-19T06:59:45.902Z</time></trkpt><trkpt lat="44.9008164" lon="9.7912479"><ele>128.60000000000002</ele><time>2026-04-19T06:59:47.906Z</time></trkpt><trkpt lat="44.9007878" lon="9.7913871"><ele>128.8</ele><time>2026-04-19T06:59:49.899Z</time></trkpt><trkpt lat="44.9007676" lon="9.7915282"><ele>129.0</ele><time>2026-04-19T06:59:51.913Z</time></trkpt><trkpt lat="44.9007408" lon="9.7916592"><ele>129.0</ele><time>2026-04-19T06:59:53.891Z</time></trkpt><trkpt lat="44.9007221" lon="9.7918006"><ele>129.0</ele><time>2026-04-19T06:59:55.899Z</time></trkpt><trkpt lat="44.9006974" lon="9.7919612"><ele>129.0</ele><time>2026-04-19T06:59:57.891Z</time></trkpt><trkpt lat="44.9006727" lon="9.7921011"><ele>129.0</ele><time>2026-04-19T06:59:59.907Z</time></trkpt><trkpt lat="44.9006498" lon="9.7922427"><ele>129.0</ele><time>2026-04-19T07:00:01.896Z</time></trkpt><trkpt lat="44.9006256" lon="9.7923875"><ele>129.0</ele><time>2026-04-19T07:00:03.903Z</time></trkpt><trkpt lat="44.9005998" lon="9.7925239"><ele>129.0</ele><time>2026-04-19T07:00:05.913Z</time></trkpt><trkpt lat="44.9005722" lon="9.7926719"><ele>129.0</ele><time>2026-04-19T07:00:07.901Z</time></trkpt><trkpt lat="44.9005485" lon="9.7928182"><ele>129.0</ele><time>2026-04-19T07:00:09.899Z</time></trkpt><trkpt lat="44.9005237" lon="9.7929692"><ele>129.0</ele><time>2026-04-19T07:00:11.905Z</time></trkpt><trkpt lat="44.90051" lon="9.7931144"><ele>128.8</ele><time>2026-04-19T07:00:13.91Z</time></trkpt><trkpt lat="44.9004803" lon="9.7932457"><ele>128.60000000000002</ele><time>2026-04-19T07:00:15.876Z</time></trkpt><trkpt lat="44.9004564" lon="9.7933847"><ele>128.4</ele><time>2026-04-19T07:00:17.883Z</time></trkpt><trkpt lat="44.9004378" lon="9.793532"><ele>128.20000000000002</ele><time>2026-04-19T07:00:19.889Z</time></trkpt><trkpt lat="44.9004121" lon="9.7936801"><ele>128.0</ele><time>2026-04-19T07:00:21.869Z</time></trkpt><trkpt lat="44.9003941" lon="9.7938162"><ele>127.60000000000001</ele><time>2026-04-19T07:00:23.899Z</time></trkpt><trkpt lat="44.9003683" lon="9.7939624"><ele>127.20000000000002</ele><time>2026-04-19T07:00:25.878Z</time></trkpt><trkpt lat="44.9003429" lon="9.7941155"><ele>126.8</ele><time>2026-04-19T07:00:27.901Z</time></trkpt><trkpt lat="44.9003236" lon="9.7942597"><ele>126.4</ele><time>2026-04-19T07:00:29.896Z</time></trkpt><trkpt lat="44.9002949" lon="9.7943983"><ele>126.0</ele><time>2026-04-19T07:00:31.894Z</time></trkpt><trkpt lat="44.9002724" lon="9.7945338"><ele>126.0</ele><time>2026-04-19T07:00:33.901Z</time></trkpt><trkpt lat="44.9002474" lon="9.7946733"><ele>126.0</ele><time>2026-04-19T07:00:35.91Z</time></trkpt><trkpt lat="44.9002322" lon="9.7948018"><ele>126.0</ele><time>2026-04-19T07:00:37.904Z</time></trkpt><trkpt lat="44.9002046" lon="9.7949358"><ele>126.0</ele><time>2026-04-19T07:00:39.92Z</time></trkpt><trkpt lat="44.9001767" lon="9.7950668"><ele>126.0</ele><time>2026-04-19T07:00:41.89Z</time></trkpt><trkpt lat="44.9001392" lon="9.7951902"><ele>126.4</ele><time>2026-04-19T07:00:43.907Z</time></trkpt><trkpt lat="44.9000627" lon="9.7952835"><ele>126.8</ele><time>2026-04-19T07:00:45.895Z</time></trkpt><trkpt lat="44.8999692" lon="9.795307"><ele>127.20000000000002</ele><time>2026-04-19T07:00:47.901Z</time></trkpt><trkpt lat="44.8998689" lon="9.7952807"><ele>127.60000000000001</ele><time>2026-04-19T07:00:49.905Z</time></trkpt><trkpt lat="44.8997705" lon="9.79525"><ele>128.0</ele><time>2026-04-19T07:00:51.905Z</time></trkpt><trkpt lat="44.8996723" lon="9.7952243"><ele>128.0</ele><time>2026-04-19T07:00:53.902Z</time></trkpt><trkpt lat="44.8995688" lon="9.7951918"><ele>128.0</ele><time>2026-04-19T07:00:55.887Z</time></trkpt><trkpt lat="44.8994707" lon="9.7951596"><ele>128.0</ele><time>2026-04-19T07:00:57.888Z</time></trkpt><trkpt lat="44.8993619" lon="9.7951329"><ele>128.0</ele><time>2026-04-19T07:00:59.896Z</time></trkpt><trkpt lat="44.8992652" lon="9.7951047"><ele>128.0</ele><time>2026-04-19T07:01:01.903Z</time></trkpt><trkpt lat="44.8991628" lon="9.7951128"><ele>128.6</ele><time>2026-04-19T07:01:03.894Z</time></trkpt><trkpt lat="44.8990858" lon="9.7952026"><ele>129.20000000000002</ele><time>2026-04-19T07:01:05.905Z</time></trkpt><trkpt lat="44.8990327" lon="9.7953054"><ele>129.8</ele><time>2026-04-19T07:01:07.904Z</time></trkpt><trkpt lat="44.8990028" lon="9.7954397"><ele>130.4</ele><time>2026-04-19T07:01:09.906Z</time></trkpt><trkpt lat="44.8989719" lon="9.795581"><ele>131.0</ele><time>2026-04-19T07:01:11.906Z</time></trkpt><trkpt lat="44.898939" lon="9.7957028"><ele>131.0</ele><time>2026-04-19T07:01:13.891Z</time></trkpt><trkpt lat="44.8989048" lon="9.7958287"><ele>131.0</ele><time>2026-04-19T07:01:15.874Z</time></trkpt><trkpt lat="44.8988759" lon="9.7959534"><ele>131.0</ele><time>2026-04-19T07:01:17.913Z</time></trkpt><trkpt lat="44.8988439" lon="9.7960797"><ele>131.0</ele><time>2026-04-19T07:01:19.905Z</time></trkpt><trkpt lat="44.8988108" lon="9.7962177"><ele>131.0</ele><time>2026-04-19T07:01:21.905Z</time></trkpt><trkpt lat="44.8987829" lon="9.7963433"><ele>131.2</ele><time>2026-04-19T07:01:23.899Z</time></trkpt><trkpt lat="44.8987523" lon="9.7964751"><ele>131.39999999999998</ele><time>2026-04-19T07:01:25.897Z</time></trkpt><trkpt lat="44.8987162" lon="9.7966069"><ele>131.6</ele><time>2026-04-19T07:01:27.916Z</time></trkpt><trkpt lat="44.8986876" lon="9.796751"><ele>131.79999999999998</ele><time>2026-04-19T07:01:29.895Z</time></trkpt><trkpt lat="44.8986567" lon="9.7968815"><ele>132.0</ele><time>2026-04-19T07:01:31.903Z</time></trkpt><trkpt lat="44.8986313" lon="9.7970148"><ele>131.4</ele><time>2026-04-19T07:01:33.908Z</time></trkpt><trkpt lat="44.8986027" lon="9.7971429"><ele>130.79999999999998</ele><time>2026-04-19T07:01:35.902Z</time></trkpt><trkpt lat="44.8985812" lon="9.7972791"><ele>130.2</ele><time>2026-04-19T07:01:37.882Z</time></trkpt><trkpt lat="44.8985511" lon="9.7974205"><ele>129.6</ele><time>2026-04-19T07:01:39.91Z</time></trkpt><trkpt lat="44.8985242" lon="9.7975746"><ele>129.0</ele><time>2026-04-19T07:01:41.899Z</time></trkpt><trkpt lat="44.8984905" lon="9.7977173"><ele>129.0</ele><time>2026-04-19T07:01:43.901Z</time></trkpt><trkpt lat="44.8984577" lon="9.7978577"><ele>129.0</ele><time>2026-04-19T07:01:45.872Z</time></trkpt><trkpt lat="44.8984239" lon="9.7979924"><ele>129.0</ele><time>2026-04-19T07:01:47.901Z</time></trkpt><trkpt lat="44.8983843" lon="9.7981361"><ele>129.0</ele><time>2026-04-19T07:01:49.908Z</time></trkpt><trkpt lat="44.8983378" lon="9.7982734"><ele>129.0</ele><time>2026-04-19T07:01:51.904Z</time></trkpt><trkpt lat="44.8982845" lon="9.7984218"><ele>129.8</ele><time>2026-04-19T07:01:53.877Z</time></trkpt><trkpt lat="44.8982374" lon="9.7985653"><ele>130.60000000000002</ele><time>2026-04-19T07:01:55.892Z</time></trkpt><trkpt lat="44.8981967" lon="9.7986887"><ele>131.4</ele><time>2026-04-19T07:01:57.909Z</time></trkpt><trkpt lat="44.8981502" lon="9.7988231"><ele>132.20000000000002</ele><time>2026-04-19T07:01:59.891Z</time></trkpt><trkpt lat="44.8980999" lon="9.7989553"><ele>133.0</ele><time>2026-04-19T07:02:01.892Z</time></trkpt><trkpt lat="44.8980495" lon="9.7990825"><ele>133.0</ele><time>2026-04-19T07:02:03.903Z</time></trkpt><trkpt lat="44.8980019" lon="9.7992179"><ele>133.0</ele><time>2026-04-19T07:02:05.902Z</time></trkpt><trkpt lat="44.8979562" lon="9.7993656"><ele>133.0</ele><time>2026-04-19T07:02:07.904Z</time></trkpt><trkpt lat="44.8979108" lon="9.799504"><ele>133.0</ele><time>2026-04-19T07:02:09.912Z</time></trkpt><trkpt lat="44.8978626" lon="9.7996404"><ele>133.0</ele><time>2026-04-19T07:02:11.915Z</time></trkpt><trkpt lat="44.8977993" lon="9.7997686"><ele>132.8</ele><time>2026-04-19T07:02:13.905Z</time></trkpt><trkpt lat="44.8977229" lon="9.799887"><ele>132.60000000000002</ele><time>2026-04-19T07:02:15.908Z</time></trkpt><trkpt lat="44.8976513" lon="9.8000019"><ele>132.39999999999998</ele><time>2026-04-19T07:02:17.875Z</time></trkpt><trkpt lat="44.8975796" lon="9.8001222"><ele>132.2</ele><time>2026-04-19T07:02:19.901Z</time></trkpt><trkpt lat="44.8975002" lon="9.8002346"><ele>132.0</ele><time>2026-04-19T07:02:21.915Z</time></trkpt><trkpt lat="44.8974215" lon="9.8003312"><ele>131.6</ele><time>2026-04-19T07:02:23.906Z</time></trkpt><trkpt lat="44.8973422" lon="9.8004405"><ele>131.2</ele><time>2026-04-19T07:02:25.907Z</time></trkpt><trkpt lat="44.8972648" lon="9.8005354"><ele>130.8</ele><time>2026-04-19T07:02:27.893Z</time></trkpt><trkpt lat="44.8971926" lon="9.8006153"><ele>130.4</ele><time>2026-04-19T07:02:29.902Z</time></trkpt><trkpt lat="44.8971274" lon="9.8006917"><ele>130.0</ele><time>2026-04-19T07:02:31.881Z</time></trkpt><trkpt lat="44.8970645" lon="9.8007971"><ele>130.0</ele><time>2026-04-19T07:02:33.892Z</time></trkpt><trkpt lat="44.8970097" lon="9.8008923"><ele>130.0</ele><time>2026-04-19T07:02:35.901Z</time></trkpt><trkpt lat="44.896972" lon="9.8009895"><ele>130.0</ele><time>2026-04-19T07:02:37.904Z</time></trkpt><trkpt lat="44.8969414" lon="9.8010818"><ele>130.0</ele><time>2026-04-19T07:02:39.909Z</time></trkpt><trkpt lat="44.8969045" lon="9.8011893"><ele>130.0</ele><time>2026-04-19T07:02:41.903Z</time></trkpt><trkpt lat="44.8968691" lon="9.801301"><ele>130.0</ele><time>2026-04-19T07:02:43.898Z</time></trkpt><trkpt lat="44.8968272" lon="9.8014239"><ele>130.0</ele><time>2026-04-19T07:02:45.882Z</time></trkpt><trkpt lat="44.8967878" lon="9.8015353"><ele>130.0</ele><time>2026-04-19T07:02:47.898Z</time></trkpt><trkpt lat="44.896756" lon="9.8016361"><ele>130.0</ele><time>2026-04-19T07:02:49.905Z</time></trkpt><trkpt lat="44.896715" lon="9.8017537"><ele>130.0</ele><time>2026-04-19T07:02:51.871Z</time></trkpt><trkpt lat="44.8966371" lon="9.8018453"><ele>130.0</ele><time>2026-04-19T07:02:53.902Z</time></trkpt><trkpt lat="44.8965265" lon="9.8018725"><ele>130.2</ele><time>2026-04-19T07:02:55.896Z</time></trkpt><trkpt lat="44.8964028" lon="9.8018442"><ele>130.4</ele><time>2026-04-19T07:02:57.897Z</time></trkpt><trkpt lat="44.8963351" lon="9.8018438"><ele>130.6</ele><time>2026-04-19T07:02:58.904Z</time></trkpt><trkpt lat="44.896267" lon="9.8018573"><ele>130.8</ele><time>2026-04-19T07:02:59.909Z</time></trkpt><trkpt lat="44.8962029" lon="9.8018683"><ele>131.0</ele><time>2026-04-19T07:03:00.901Z</time></trkpt><trkpt lat="44.8960777" lon="9.8018712"><ele>131.0</ele><time>2026-04-19T07:03:02.905Z</time></trkpt><trkpt lat="44.8959623" lon="9.8018694"><ele>131.0</ele><time>2026-04-19T07:03:04.906Z</time></trkpt><trkpt lat="44.8958553" lon="9.801861"><ele>131.0</ele><time>2026-04-19T07:03:06.902Z</time></trkpt><trkpt lat="44.8957627" lon="9.8018832"><ele>131.0</ele><time>2026-04-19T07:03:08.908Z</time></trkpt><trkpt lat="44.8956821" lon="9.8019501"><ele>131.0</ele><time>2026-04-19T07:03:10.906Z</time></trkpt><trkpt lat="44.8956161" lon="9.8020628"><ele>131.0</ele><time>2026-04-19T07:03:12.901Z</time></trkpt><trkpt lat="44.8955759" lon="9.8021915"><ele>131.0</ele><time>2026-04-19T07:03:14.9Z</time></trkpt><trkpt lat="44.8955366" lon="9.8023232"><ele>131.0</ele><time>2026-04-19T07:03:16.912Z</time></trkpt><trkpt lat="44.8954975" lon="9.8024569"><ele>131.0</ele><time>2026-04-19T07:03:18.903Z</time></trkpt><trkpt lat="44.8954554" lon="9.8025808"><ele>131.0</ele><time>2026-04-19T07:03:20.891Z</time></trkpt><trkpt lat="44.8954191" lon="9.802713"><ele>131.0</ele><time>2026-04-19T07:03:22.901Z</time></trkpt><trkpt lat="44.8953866" lon="9.802842"><ele>131.0</ele><time>2026-04-19T07:03:24.903Z</time></trkpt><trkpt lat="44.8953547" lon="9.8029585"><ele>131.0</ele><time>2026-04-19T07:03:26.881Z</time></trkpt><trkpt lat="44.8953185" lon="9.8030838"><ele>131.0</ele><time>2026-04-19T07:03:28.902Z</time></trkpt><trkpt lat="44.8952829" lon="9.8032081"><ele>131.0</ele><time>2026-04-19T07:03:30.9Z</time></trkpt><trkpt lat="44.8952468" lon="9.8033379"><ele>131.0</ele><time>2026-04-19T07:03:32.905Z</time></trkpt><trkpt lat="44.895205" lon="9.8034592"><ele>131.0</ele><time>2026-04-19T07:03:34.901Z</time></trkpt><trkpt lat="44.8951676" lon="9.8035874"><ele>131.0</ele><time>2026-04-19T07:03:36.902Z</time></trkpt><trkpt lat="44.8951277" lon="9.8037172"><ele>131.0</ele><time>2026-04-19T07:03:38.904Z</time></trkpt><trkpt lat="44.8950899" lon="9.8038469"><ele>131.0</ele><time>2026-04-19T07:03:40.903Z</time></trkpt><trkpt lat="44.8950553" lon="9.8039717"><ele>131.6</ele><time>2026-04-19T07:03:42.906Z</time></trkpt><trkpt lat="44.8950232" lon="9.8041013"><ele>132.2</ele><time>2026-04-19T07:03:44.899Z</time></trkpt><trkpt lat="44.8949844" lon="9.8042242"><ele>132.8</ele><time>2026-04-19T07:03:46.892Z</time></trkpt><trkpt lat="44.8949525" lon="9.8043577"><ele>133.4</ele><time>2026-04-19T07:03:48.907Z</time></trkpt><trkpt lat="44.8949205" lon="9.8044827"><ele>134.0</ele><time>2026-04-19T07:03:50.908Z</time></trkpt><trkpt lat="44.8948794" lon="9.8046032"><ele>134.4</ele><time>2026-04-19T07:03:52.905Z</time></trkpt><trkpt lat="44.8948383" lon="9.8047314"><ele>134.8</ele><time>2026-04-19T07:03:54.873Z</time></trkpt><trkpt lat="44.8948079" lon="9.8048458"><ele>135.2</ele><time>2026-04-19T07:03:56.893Z</time></trkpt><trkpt lat="44.8947717" lon="9.8049571"><ele>135.6</ele><time>2026-04-19T07:03:58.908Z</time></trkpt><trkpt lat="44.8947357" lon="9.8050774"><ele>136.0</ele><time>2026-04-19T07:04:00.901Z</time></trkpt><trkpt lat="44.894701" lon="9.8051943"><ele>136.0</ele><time>2026-04-19T07:04:02.897Z</time></trkpt><trkpt lat="44.894634" lon="9.8052736"><ele>136.0</ele><time>2026-04-19T07:04:04.899Z</time></trkpt><trkpt lat="44.8945576" lon="9.8052494"><ele>136.0</ele><time>2026-04-19T07:04:06.913Z</time></trkpt><trkpt lat="44.8944815" lon="9.8051963"><ele>136.0</ele><time>2026-04-19T07:04:08.9Z</time></trkpt><trkpt lat="44.8944139" lon="9.8051376"><ele>136.0</ele><time>2026-04-19T07:04:10.897Z</time></trkpt><trkpt lat="44.894326" lon="9.805137"><ele>136.0</ele><time>2026-04-19T07:04:13.908Z</time></trkpt><trkpt lat="44.8942783" lon="9.805243"><ele>136.6</ele><time>2026-04-19T07:04:15.899Z</time></trkpt><trkpt lat="44.8942309" lon="9.8053844"><ele>137.2</ele><time>2026-04-19T07:04:17.902Z</time></trkpt><trkpt lat="44.8941889" lon="9.8055336"><ele>137.8</ele><time>2026-04-19T07:04:19.884Z</time></trkpt><trkpt lat="44.894144" lon="9.8056739"><ele>138.4</ele><time>2026-04-19T07:04:21.897Z</time></trkpt><trkpt lat="44.8941026" lon="9.8058111"><ele>139.0</ele><time>2026-04-19T07:04:23.908Z</time></trkpt><trkpt lat="44.8940705" lon="9.8059441"><ele>138.2</ele><time>2026-04-19T07:04:25.908Z</time></trkpt><trkpt lat="44.8940288" lon="9.8060825"><ele>137.4</ele><time>2026-04-19T07:04:27.902Z</time></trkpt><trkpt lat="44.8939889" lon="9.8062357"><ele>136.6</ele><time>2026-04-19T07:04:29.902Z</time></trkpt><trkpt lat="44.8939524" lon="9.8063843"><ele>135.8</ele><time>2026-04-19T07:04:31.886Z</time></trkpt><trkpt lat="44.8939414" lon="9.8065244"><ele>135.0</ele><time>2026-04-19T07:04:33.908Z</time></trkpt><trkpt lat="44.8939307" lon="9.8066789"><ele>134.5</ele><time>2026-04-19T07:04:35.909Z</time></trkpt><trkpt lat="44.8939151" lon="9.8068405"><ele>134.0</ele><time>2026-04-19T07:04:37.915Z</time></trkpt><trkpt lat="44.8938875" lon="9.8070034"><ele>133.5</ele><time>2026-04-19T07:04:39.898Z</time></trkpt><trkpt lat="44.8938605" lon="9.8071543"><ele>133.0</ele><time>2026-04-19T07:04:41.9Z</time></trkpt><trkpt lat="44.8938341" lon="9.8072983"><ele>133.0</ele><time>2026-04-19T07:04:43.91Z</time></trkpt><trkpt lat="44.8938079" lon="9.8074408"><ele>133.0</ele><time>2026-04-19T07:04:45.902Z</time></trkpt><trkpt lat="44.893778" lon="9.8075818"><ele>133.0</ele><time>2026-04-19T07:04:47.882Z</time></trkpt><trkpt lat="44.89375" lon="9.8077268"><ele>133.0</ele><time>2026-04-19T07:04:49.911Z</time></trkpt><trkpt lat="44.8937205" lon="9.8078577"><ele>133.0</ele><time>2026-04-19T07:04:51.907Z</time></trkpt><trkpt lat="44.893685" lon="9.8079932"><ele>133.0</ele><time>2026-04-19T07:04:53.905Z</time></trkpt><trkpt lat="44.8936438" lon="9.8081287"><ele>133.0</ele><time>2026-04-19T07:04:55.906Z</time></trkpt><trkpt lat="44.8936112" lon="9.8082575"><ele>133.0</ele><time>2026-04-19T07:04:57.903Z</time></trkpt><trkpt lat="44.8935629" lon="9.8083934"><ele>133.0</ele><time>2026-04-19T07:04:59.904Z</time></trkpt><trkpt lat="44.8935192" lon="9.8085386"><ele>133.0</ele><time>2026-04-19T07:05:01.905Z</time></trkpt><trkpt lat="44.8934756" lon="9.8086747"><ele>132.8</ele><time>2026-04-19T07:05:03.901Z</time></trkpt><trkpt lat="44.8934412" lon="9.8088295"><ele>132.60000000000002</ele><time>2026-04-19T07:05:05.876Z</time></trkpt><trkpt lat="44.8934016" lon="9.8089742"><ele>132.39999999999998</ele><time>2026-04-19T07:05:07.905Z</time></trkpt><trkpt lat="44.8933632" lon="9.8091197"><ele>132.2</ele><time>2026-04-19T07:05:09.906Z</time></trkpt><trkpt lat="44.8933174" lon="9.8092632"><ele>132.0</ele><time>2026-04-19T07:05:11.906Z</time></trkpt><trkpt lat="44.8932792" lon="9.8094205"><ele>132.4</ele><time>2026-04-19T07:05:13.894Z</time></trkpt><trkpt lat="44.8932386" lon="9.8095561"><ele>132.79999999999998</ele><time>2026-04-19T07:05:15.903Z</time></trkpt><trkpt lat="44.8931956" lon="9.8096984"><ele>133.2</ele><time>2026-04-19T07:05:17.909Z</time></trkpt><trkpt lat="44.8931325" lon="9.8098246"><ele>133.6</ele><time>2026-04-19T07:05:19.908Z</time></trkpt><trkpt lat="44.8930589" lon="9.8099325"><ele>134.0</ele><time>2026-04-19T07:05:21.906Z</time></trkpt><trkpt lat="44.8929861" lon="9.8100425"><ele>133.8</ele><time>2026-04-19T07:05:23.917Z</time></trkpt><trkpt lat="44.8929225" lon="9.8101673"><ele>133.60000000000002</ele><time>2026-04-19T07:05:25.899Z</time></trkpt><trkpt lat="44.8928748" lon="9.8103008"><ele>133.4</ele><time>2026-04-19T07:05:27.902Z</time></trkpt><trkpt lat="44.8928351" lon="9.8104422"><ele>133.20000000000002</ele><time>2026-04-19T07:05:29.91Z</time></trkpt><trkpt lat="44.8927952" lon="9.810581"><ele>133.0</ele><time>2026-04-19T07:05:31.912Z</time></trkpt><trkpt lat="44.8927481" lon="9.8107318"><ele>133.0</ele><time>2026-04-19T07:05:33.901Z</time></trkpt><trkpt lat="44.8926958" lon="9.8108849"><ele>133.0</ele><time>2026-04-19T07:05:35.904Z</time></trkpt><trkpt lat="44.8926501" lon="9.811041"><ele>133.0</ele><time>2026-04-19T07:05:37.91Z</time></trkpt><trkpt lat="44.8926113" lon="9.811191"><ele>133.0</ele><time>2026-04-19T07:05:39.905Z</time></trkpt><trkpt lat="44.892582" lon="9.811343"><ele>133.0</ele><time>2026-04-19T07:05:41.893Z</time></trkpt><trkpt lat="44.8925491" lon="9.8114896"><ele>133.0</ele><time>2026-04-19T07:05:43.902Z</time></trkpt><trkpt lat="44.8925167" lon="9.8116294"><ele>133.0</ele><time>2026-04-19T07:05:45.9Z</time></trkpt><trkpt lat="44.8924857" lon="9.8117808"><ele>133.0</ele><time>2026-04-19T07:05:47.9Z</time></trkpt><trkpt lat="44.8924512" lon="9.8119313"><ele>133.0</ele><time>2026-04-19T07:05:49.899Z</time></trkpt><trkpt lat="44.8924109" lon="9.8120724"><ele>133.0</ele><time>2026-04-19T07:05:51.901Z</time></trkpt><trkpt lat="44.8923565" lon="9.8122217"><ele>133.0</ele><time>2026-04-19T07:05:53.908Z</time></trkpt><trkpt lat="44.8922987" lon="9.812351"><ele>133.0</ele><time>2026-04-19T07:05:55.904Z</time></trkpt><trkpt lat="44.8922389" lon="9.812481"><ele>133.0</ele><time>2026-04-19T07:05:57.912Z</time></trkpt><trkpt lat="44.8921726" lon="9.8126084"><ele>133.0</ele><time>2026-04-19T07:05:59.901Z</time></trkpt><trkpt lat="44.8921102" lon="9.8127431"><ele>133.25</ele><time>2026-04-19T07:06:01.909Z</time></trkpt><trkpt lat="44.8920475" lon="9.8128763"><ele>133.5</ele><time>2026-04-19T07:06:03.896Z</time></trkpt><trkpt lat="44.8919933" lon="9.8130267"><ele>133.75</ele><time>2026-04-19T07:06:05.906Z</time></trkpt><trkpt lat="44.8919384" lon="9.8131657"><ele>134.0</ele><time>2026-04-19T07:06:07.904Z</time></trkpt><trkpt lat="44.891875" lon="9.8133072"><ele>134.0</ele><time>2026-04-19T07:06:09.908Z</time></trkpt><trkpt lat="44.8918128" lon="9.8134524"><ele>134.0</ele><time>2026-04-19T07:06:11.883Z</time></trkpt><trkpt lat="44.8917556" lon="9.8136016"><ele>134.0</ele><time>2026-04-19T07:06:13.903Z</time></trkpt><trkpt lat="44.8917013" lon="9.8137406"><ele>134.0</ele><time>2026-04-19T07:06:15.905Z</time></trkpt><trkpt lat="44.8916379" lon="9.813876"><ele>133.75</ele><time>2026-04-19T07:06:17.911Z</time></trkpt><trkpt lat="44.8915768" lon="9.8140235"><ele>133.5</ele><time>2026-04-19T07:06:19.903Z</time></trkpt><trkpt lat="44.8915228" lon="9.8141629"><ele>133.25</ele><time>2026-04-19T07:06:21.896Z</time></trkpt><trkpt lat="44.8914716" lon="9.8143036"><ele>133.0</ele><time>2026-04-19T07:06:23.907Z</time></trkpt><trkpt lat="44.8914096" lon="9.8144568"><ele>133.0</ele><time>2026-04-19T07:06:25.905Z</time></trkpt><trkpt lat="44.8913762" lon="9.8145374"><ele>133.0</ele><time>2026-04-19T07:06:26.91Z</time></trkpt><trkpt lat="44.8913472" lon="9.8146174"><ele>133.0</ele><time>2026-04-19T07:06:27.89Z</time></trkpt><trkpt lat="44.8913132" lon="9.8146954"><ele>133.0</ele><time>2026-04-19T07:06:28.907Z</time></trkpt><trkpt lat="44.8912463" lon="9.8148497"><ele>133.0</ele><time>2026-04-19T07:06:30.91Z</time></trkpt><trkpt lat="44.891189" lon="9.8150074"><ele>133.0</ele><time>2026-04-19T07:06:32.909Z</time></trkpt><trkpt lat="44.8911592" lon="9.8150921"><ele>132.57142857142858</ele><time>2026-04-19T07:06:33.902Z</time></trkpt><trkpt lat="44.8911282" lon="9.8151774"><ele>132.14285714285714</ele><time>2026-04-19T07:06:34.913Z</time></trkpt><trkpt lat="44.8910937" lon="9.8152677"><ele>131.71428571428572</ele><time>2026-04-19T07:06:35.899Z</time></trkpt><trkpt lat="44.8910563" lon="9.8153533"><ele>131.28571428571428</ele><time>2026-04-19T07:06:36.899Z</time></trkpt><trkpt lat="44.891021" lon="9.81544"><ele>130.85714285714286</ele><time>2026-04-19T07:06:37.909Z</time></trkpt><trkpt lat="44.890985" lon="9.8155232"><ele>130.42857142857144</ele><time>2026-04-19T07:06:38.894Z</time></trkpt><trkpt lat="44.8909562" lon="9.8156042"><ele>130.0</ele><time>2026-04-19T07:06:39.905Z</time></trkpt><trkpt lat="44.8909196" lon="9.8156887"><ele>129.85714285714286</ele><time>2026-04-19T07:06:40.893Z</time></trkpt><trkpt lat="44.8908815" lon="9.8157727"><ele>129.71428571428572</ele><time>2026-04-19T07:06:41.884Z</time></trkpt><trkpt lat="44.8908421" lon="9.8158506"><ele>129.57142857142856</ele><time>2026-04-19T07:06:42.899Z</time></trkpt><trkpt lat="44.8908066" lon="9.8159325"><ele>129.42857142857144</ele><time>2026-04-19T07:06:43.903Z</time></trkpt><trkpt lat="44.8907659" lon="9.8160048"><ele>129.28571428571428</ele><time>2026-04-19T07:06:44.896Z</time></trkpt><trkpt lat="44.8907238" lon="9.8160741"><ele>129.14285714285714</ele><time>2026-04-19T07:06:45.898Z</time></trkpt><trkpt lat="44.8906889" lon="9.8161533"><ele>129.0</ele><time>2026-04-19T07:06:46.895Z</time></trkpt><trkpt lat="44.8906509" lon="9.8162385"><ele>129.0</ele><time>2026-04-19T07:06:47.899Z</time></trkpt><trkpt lat="44.8906161" lon="9.8163194"><ele>129.0</ele><time>2026-04-19T07:06:48.908Z</time></trkpt><trkpt lat="44.8905512" lon="9.8164678"><ele>129.0</ele><time>2026-04-19T07:06:50.896Z</time></trkpt><trkpt lat="44.8905122" lon="9.8165413"><ele>129.0</ele><time>2026-04-19T07:06:51.882Z</time></trkpt><trkpt lat="44.8904458" lon="9.816678"><ele>129.0</ele><time>2026-04-19T07:06:53.904Z</time></trkpt><trkpt lat="44.8904159" lon="9.8167581"><ele>129.0</ele><time>2026-04-19T07:06:54.886Z</time></trkpt><trkpt lat="44.890356" lon="9.8169066"><ele>129.0</ele><time>2026-04-19T07:06:56.9Z</time></trkpt><trkpt lat="44.8902995" lon="9.8170494"><ele>129.0</ele><time>2026-04-19T07:06:58.906Z</time></trkpt><trkpt lat="44.8902432" lon="9.8171942"><ele>129.0</ele><time>2026-04-19T07:07:00.892Z</time></trkpt><trkpt lat="44.8901848" lon="9.8173416"><ele>129.0</ele><time>2026-04-19T07:07:02.893Z</time></trkpt><trkpt lat="44.8901262" lon="9.8174766"><ele>129.2</ele><time>2026-04-19T07:07:04.905Z</time></trkpt><trkpt lat="44.8900653" lon="9.817612"><ele>129.4</ele><time>2026-04-19T07:07:06.906Z</time></trkpt><trkpt lat="44.8900155" lon="9.8177458"><ele>129.6</ele><time>2026-04-19T07:07:08.908Z</time></trkpt><trkpt lat="44.8899606" lon="9.8178637"><ele>129.8</ele><time>2026-04-19T07:07:10.902Z</time></trkpt><trkpt lat="44.8899134" lon="9.8179843"><ele>130.0</ele><time>2026-04-19T07:07:12.9Z</time></trkpt><trkpt lat="44.8898664" lon="9.8181025"><ele>130.2</ele><time>2026-04-19T07:07:14.897Z</time></trkpt><trkpt lat="44.8898219" lon="9.8182166"><ele>130.4</ele><time>2026-04-19T07:07:16.876Z</time></trkpt><trkpt lat="44.8897777" lon="9.8183281"><ele>130.6</ele><time>2026-04-19T07:07:18.903Z</time></trkpt><trkpt lat="44.8897264" lon="9.8184517"><ele>130.8</ele><time>2026-04-19T07:07:20.897Z</time></trkpt><trkpt lat="44.8896751" lon="9.8185665"><ele>131.0</ele><time>2026-04-19T07:07:22.904Z</time></trkpt><trkpt lat="44.8896258" lon="9.8187001"><ele>130.6</ele><time>2026-04-19T07:07:24.903Z</time></trkpt><trkpt lat="44.8895689" lon="9.8188376"><ele>130.2</ele><time>2026-04-19T07:07:26.896Z</time></trkpt><trkpt lat="44.8895113" lon="9.8189714"><ele>129.8</ele><time>2026-04-19T07:07:28.904Z</time></trkpt><trkpt lat="44.8894468" lon="9.8191131"><ele>129.4</ele><time>2026-04-19T07:07:30.902Z</time></trkpt><trkpt lat="44.889416" lon="9.8191909"><ele>129.0</ele><time>2026-04-19T07:07:31.901Z</time></trkpt><trkpt lat="44.8893567" lon="9.8193364"><ele>129.0</ele><time>2026-04-19T07:07:33.897Z</time></trkpt><trkpt lat="44.8892933" lon="9.8194773"><ele>129.0</ele><time>2026-04-19T07:07:35.897Z</time></trkpt><trkpt lat="44.8892332" lon="9.8196183"><ele>129.0</ele><time>2026-04-19T07:07:37.884Z</time></trkpt><trkpt lat="44.8891763" lon="9.8197678"><ele>129.0</ele><time>2026-04-19T07:07:39.91Z</time></trkpt><trkpt lat="44.8891194" lon="9.8199063"><ele>129.25</ele><time>2026-04-19T07:07:41.91Z</time></trkpt><trkpt lat="44.8890597" lon="9.8200542"><ele>129.5</ele><time>2026-04-19T07:07:43.9Z</time></trkpt><trkpt lat="44.8889962" lon="9.8201953"><ele>129.75</ele><time>2026-04-19T07:07:45.898Z</time></trkpt><trkpt lat="44.8889362" lon="9.820345"><ele>130.0</ele><time>2026-04-19T07:07:47.896Z</time></trkpt><trkpt lat="44.8888742" lon="9.8204978"><ele>130.0</ele><time>2026-04-19T07:07:49.894Z</time></trkpt><trkpt lat="44.8888136" lon="9.8206388"><ele>130.0</ele><time>2026-04-19T07:07:51.905Z</time></trkpt><trkpt lat="44.8887545" lon="9.8207869"><ele>130.0</ele><time>2026-04-19T07:07:53.888Z</time></trkpt><trkpt lat="44.8886952" lon="9.820921"><ele>130.0</ele><time>2026-04-19T07:07:55.897Z</time></trkpt><trkpt lat="44.8886384" lon="9.8210634"><ele>129.8</ele><time>2026-04-19T07:07:57.906Z</time></trkpt><trkpt lat="44.8885828" lon="9.8211951"><ele>129.6</ele><time>2026-04-19T07:07:59.904Z</time></trkpt><trkpt lat="44.8885272" lon="9.8213349"><ele>129.4</ele><time>2026-04-19T07:08:01.898Z</time></trkpt><trkpt lat="44.8884697" lon="9.8214689"><ele>129.2</ele><time>2026-04-19T07:08:03.908Z</time></trkpt><trkpt lat="44.8884173" lon="9.8215937"><ele>129.0</ele><time>2026-04-19T07:08:05.899Z</time></trkpt><trkpt lat="44.8883671" lon="9.8217198"><ele>129.0</ele><time>2026-04-19T07:08:07.902Z</time></trkpt><trkpt lat="44.8883133" lon="9.821841"><ele>129.0</ele><time>2026-04-19T07:08:09.91Z</time></trkpt><trkpt lat="44.8882632" lon="9.8219602"><ele>129.0</ele><time>2026-04-19T07:08:11.907Z</time></trkpt><trkpt lat="44.8882114" lon="9.8220868"><ele>129.0</ele><time>2026-04-19T07:08:13.9Z</time></trkpt><trkpt lat="44.8881557" lon="9.8222046"><ele>129.0</ele><time>2026-04-19T07:08:15.907Z</time></trkpt><trkpt lat="44.8881144" lon="9.8223272"><ele>129.0</ele><time>2026-04-19T07:08:17.901Z</time></trkpt><trkpt lat="44.8880739" lon="9.8224379"><ele>129.0</ele><time>2026-04-19T07:08:19.905Z</time></trkpt><trkpt lat="44.8880301" lon="9.8225476"><ele>129.0</ele><time>2026-04-19T07:08:21.901Z</time></trkpt><trkpt lat="44.8879774" lon="9.8226493"><ele>129.0</ele><time>2026-04-19T07:08:23.899Z</time></trkpt><trkpt lat="44.8879359" lon="9.8227512"><ele>129.0</ele><time>2026-04-19T07:08:25.899Z</time></trkpt><trkpt lat="44.8878905" lon="9.8228545"><ele>129.0</ele><time>2026-04-19T07:08:27.909Z</time></trkpt><trkpt lat="44.8878551" lon="9.8229427"><ele>128.83333333333334</ele><time>2026-04-19T07:08:29.887Z</time></trkpt><trkpt lat="44.8878227" lon="9.8230399"><ele>128.66666666666666</ele><time>2026-04-19T07:08:31.898Z</time></trkpt><trkpt lat="44.8877901" lon="9.8231262"><ele>128.5</ele><time>2026-04-19T07:08:33.893Z</time></trkpt><trkpt lat="44.8877419" lon="9.8232367"><ele>128.33333333333331</ele><time>2026-04-19T07:08:36.905Z</time></trkpt><trkpt lat="44.8877079" lon="9.8233511"><ele>128.16666666666666</ele><time>2026-04-19T07:08:39.913Z</time></trkpt><trkpt lat="44.8876575" lon="9.8234526"><ele>128.0</ele><time>2026-04-19T07:08:42.899Z</time></trkpt><trkpt lat="44.8876147" lon="9.8235303"><ele>128.5</ele><time>2026-04-19T07:08:44.871Z</time></trkpt><trkpt lat="44.8875662" lon="9.82362"><ele>129.0</ele><time>2026-04-19T07:08:46.897Z</time></trkpt><trkpt lat="44.8875084" lon="9.8237364"><ele>129.5</ele><time>2026-04-19T07:08:48.905Z</time></trkpt><trkpt lat="44.8874465" lon="9.8238873"><ele>130.0</ele><time>2026-04-19T07:08:50.9Z</time></trkpt><trkpt lat="44.8874097" lon="9.8239632"><ele>130.5</ele><time>2026-04-19T07:08:51.894Z</time></trkpt><trkpt lat="44.887371" lon="9.8240534"><ele>131.0</ele><time>2026-04-19T07:08:52.9Z</time></trkpt><trkpt lat="44.8873317" lon="9.8241487"><ele>131.0</ele><time>2026-04-19T07:08:53.901Z</time></trkpt><trkpt lat="44.8872896" lon="9.8242319"><ele>131.0</ele><time>2026-04-19T07:08:54.877Z</time></trkpt><trkpt lat="44.8872439" lon="9.8243199"><ele>131.0</ele><time>2026-04-19T07:08:55.903Z</time></trkpt><trkpt lat="44.8872036" lon="9.8244026"><ele>131.0</ele><time>2026-04-19T07:08:56.888Z</time></trkpt><trkpt lat="44.88716" lon="9.8244908"><ele>131.0</ele><time>2026-04-19T07:08:57.911Z</time></trkpt><trkpt lat="44.8871162" lon="9.8245827"><ele>131.0</ele><time>2026-04-19T07:08:58.912Z</time></trkpt><trkpt lat="44.8870753" lon="9.8246779"><ele>130.33333333333331</ele><time>2026-04-19T07:08:59.898Z</time></trkpt><trkpt lat="44.8870272" lon="9.8247665"><ele>129.66666666666666</ele><time>2026-04-19T07:09:00.901Z</time></trkpt><trkpt lat="44.8869839" lon="9.8248593"><ele>129.0</ele><time>2026-04-19T07:09:01.896Z</time></trkpt><trkpt lat="44.8869372" lon="9.8249512"><ele>128.33333333333334</ele><time>2026-04-19T07:09:02.901Z</time></trkpt><trkpt lat="44.8868911" lon="9.8250413"><ele>127.66666666666667</ele><time>2026-04-19T07:09:03.911Z</time></trkpt><trkpt lat="44.886844" lon="9.8251343"><ele>127.0</ele><time>2026-04-19T07:09:04.905Z</time></trkpt><trkpt lat="44.8868013" lon="9.8252277"><ele>126.66666666666667</ele><time>2026-04-19T07:09:05.911Z</time></trkpt><trkpt lat="44.8867587" lon="9.8253268"><ele>126.33333333333334</ele><time>2026-04-19T07:09:06.898Z</time></trkpt><trkpt lat="44.8867112" lon="9.8254208"><ele>126.0</ele><time>2026-04-19T07:09:07.892Z</time></trkpt><trkpt lat="44.8866659" lon="9.8255083"><ele>125.66666666666666</ele><time>2026-04-19T07:09:08.901Z</time></trkpt><trkpt lat="44.8866213" lon="9.8255944"><ele>125.33333333333333</ele><time>2026-04-19T07:09:09.9Z</time></trkpt><trkpt lat="44.8865741" lon="9.8256852"><ele>125.0</ele><time>2026-04-19T07:09:10.896Z</time></trkpt><trkpt lat="44.886531" lon="9.8257758"><ele>124.99999999999999</ele><time>2026-04-19T07:09:11.905Z</time></trkpt><trkpt lat="44.8864844" lon="9.8258645"><ele>125.0</ele><time>2026-04-19T07:09:12.902Z</time></trkpt><trkpt lat="44.8864457" lon="9.8259592"><ele>125.0</ele><time>2026-04-19T07:09:13.904Z</time></trkpt><trkpt lat="44.8864014" lon="9.8260488"><ele>125.0</ele><time>2026-04-19T07:09:14.898Z</time></trkpt><trkpt lat="44.8863615" lon="9.8261425"><ele>124.99999999999999</ele><time>2026-04-19T07:09:15.886Z</time></trkpt><trkpt lat="44.8863237" lon="9.8262331"><ele>125.0</ele><time>2026-04-19T07:09:16.899Z</time></trkpt><trkpt lat="44.8862806" lon="9.8263305"><ele>124.66666666666666</ele><time>2026-04-19T07:09:17.898Z</time></trkpt><trkpt lat="44.8862349" lon="9.8264176"><ele>124.33333333333333</ele><time>2026-04-19T07:09:18.913Z</time></trkpt><trkpt lat="44.8861951" lon="9.8265109"><ele>124.0</ele><time>2026-04-19T07:09:19.904Z</time></trkpt><trkpt lat="44.8861549" lon="9.8266021"><ele>123.66666666666666</ele><time>2026-04-19T07:09:20.897Z</time></trkpt><trkpt lat="44.8861115" lon="9.8267002"><ele>123.33333333333333</ele><time>2026-04-19T07:09:21.899Z</time></trkpt><trkpt lat="44.8860679" lon="9.8267917"><ele>123.0</ele><time>2026-04-19T07:09:22.907Z</time></trkpt><trkpt lat="44.8860254" lon="9.8268761"><ele>122.57142857142858</ele><time>2026-04-19T07:09:23.905Z</time></trkpt><trkpt lat="44.8859821" lon="9.8269602"><ele>122.14285714285714</ele><time>2026-04-19T07:09:24.909Z</time></trkpt><trkpt lat="44.8859409" lon="9.8270505"><ele>121.71428571428572</ele><time>2026-04-19T07:09:25.906Z</time></trkpt><trkpt lat="44.885901" lon="9.8271393"><ele>121.28571428571429</ele><time>2026-04-19T07:09:26.901Z</time></trkpt><trkpt lat="44.8858667" lon="9.8272251"><ele>120.85714285714286</ele><time>2026-04-19T07:09:27.901Z</time></trkpt><trkpt lat="44.8858319" lon="9.8273143"><ele>120.42857142857143</ele><time>2026-04-19T07:09:28.901Z</time></trkpt><trkpt lat="44.8857917" lon="9.8274008"><ele>120.0</ele><time>2026-04-19T07:09:29.9Z</time></trkpt><trkpt lat="44.8857548" lon="9.8274846"><ele>120.0</ele><time>2026-04-19T07:09:30.904Z</time></trkpt><trkpt lat="44.8857202" lon="9.8275631"><ele>120.0</ele><time>2026-04-19T07:09:31.907Z</time></trkpt><trkpt lat="44.8856809" lon="9.8276366"><ele>120.0</ele><time>2026-04-19T07:09:32.908Z</time></trkpt><trkpt lat="44.8856462" lon="9.827716"><ele>120.0</ele><time>2026-04-19T07:09:33.903Z</time></trkpt><trkpt lat="44.8855765" lon="9.8278652"><ele>120.0</ele><time>2026-04-19T07:09:35.882Z</time></trkpt><trkpt lat="44.8855376" lon="9.827937"><ele>120.0</ele><time>2026-04-19T07:09:36.898Z</time></trkpt><trkpt lat="44.8854995" lon="9.8280147"><ele>120.4</ele><time>2026-04-19T07:09:37.904Z</time></trkpt><trkpt lat="44.8854297" lon="9.8281543"><ele>120.8</ele><time>2026-04-19T07:09:39.915Z</time></trkpt><trkpt lat="44.8853622" lon="9.8282766"><ele>121.19999999999999</ele><time>2026-04-19T07:09:41.9Z</time></trkpt><trkpt lat="44.8852901" lon="9.8283566"><ele>121.6</ele><time>2026-04-19T07:09:43.897Z</time></trkpt><trkpt lat="44.8852012" lon="9.8283628"><ele>122.0</ele><time>2026-04-19T07:09:45.898Z</time></trkpt><trkpt lat="44.8851183" lon="9.8283224"><ele>122.85714285714283</ele><time>2026-04-19T07:09:47.908Z</time></trkpt><trkpt lat="44.8850441" lon="9.8282825"><ele>123.71428571428571</ele><time>2026-04-19T07:09:49.903Z</time></trkpt><trkpt lat="44.884988" lon="9.8282306"><ele>124.57142857142856</ele><time>2026-04-19T07:09:51.899Z</time></trkpt><trkpt lat="44.8849279" lon="9.8281628"><ele>125.42857142857142</ele><time>2026-04-19T07:09:54.902Z</time></trkpt><trkpt lat="44.884871" lon="9.8281118"><ele>126.28571428571428</ele><time>2026-04-19T07:09:57.906Z</time></trkpt><trkpt lat="44.8848144" lon="9.828063"><ele>127.14285714285714</ele><time>2026-04-19T07:10:00.904Z</time></trkpt><trkpt lat="44.8847568" lon="9.8280159"><ele>128.0</ele><time>2026-04-19T07:10:03.887Z</time></trkpt><trkpt lat="44.8846904" lon="9.8279599"><ele>127.99999999999999</ele><time>2026-04-19T07:10:07.896Z</time></trkpt><trkpt lat="44.884628" lon="9.827912"><ele>128.0</ele><time>2026-04-19T07:10:10.881Z</time></trkpt><trkpt lat="44.884555" lon="9.8278528"><ele>128.0</ele><time>2026-04-19T07:10:14.908Z</time></trkpt><trkpt lat="44.884488" lon="9.8278006"><ele>128.0</ele><time>2026-04-19T07:10:18.88Z</time></trkpt><trkpt lat="44.8844164" lon="9.8277429"><ele>127.99999999999999</ele><time>2026-04-19T07:10:22.904Z</time></trkpt><trkpt lat="44.8843526" lon="9.8276935"><ele>128.0</ele><time>2026-04-19T07:10:26.903Z</time></trkpt><trkpt lat="44.8842891" lon="9.8276302"><ele>128.33333333333331</ele><time>2026-04-19T07:10:30.886Z</time></trkpt><trkpt lat="44.8842199" lon="9.8275775"><ele>128.66666666666666</ele><time>2026-04-19T07:10:34.886Z</time></trkpt><trkpt lat="44.8841507" lon="9.8275188"><ele>129.0</ele><time>2026-04-19T07:10:38.909Z</time></trkpt><trkpt lat="44.8840829" lon="9.8274683"><ele>129.33333333333334</ele><time>2026-04-19T07:10:42.885Z</time></trkpt><trkpt lat="44.88402" lon="9.8274047"><ele>129.66666666666669</ele><time>2026-04-19T07:10:46.904Z</time></trkpt><trkpt lat="44.883949" lon="9.8273445"><ele>130.0</ele><time>2026-04-19T07:10:50.902Z</time></trkpt><trkpt lat="44.8838825" lon="9.8273004"><ele>130.00000000000003</ele><time>2026-04-19T07:10:54.903Z</time></trkpt><trkpt lat="44.8838114" lon="9.8272523"><ele>130.0</ele><time>2026-04-19T07:10:59.895Z</time></trkpt><trkpt lat="44.8837531" lon="9.8271976"><ele>130.0</ele><time>2026-04-19T07:11:03.892Z</time></trkpt><trkpt lat="44.8836922" lon="9.8271451"><ele>130.0</ele><time>2026-04-19T07:11:07.909Z</time></trkpt><trkpt lat="44.8836276" lon="9.827093"><ele>130.0</ele><time>2026-04-19T07:11:11.896Z</time></trkpt><trkpt lat="44.8835688" lon="9.827043"><ele>130.00000000000003</ele><time>2026-04-19T07:11:15.885Z</time></trkpt><trkpt lat="44.8835046" lon="9.8269862"><ele>130.0</ele><time>2026-04-19T07:11:19.9Z</time></trkpt><trkpt lat="44.8834371" lon="9.8269381"><ele>131.00000000000003</ele><time>2026-04-19T07:11:23.893Z</time></trkpt><trkpt lat="44.8833757" lon="9.8268947"><ele>132.0</ele><time>2026-04-19T07:11:27.906Z</time></trkpt><trkpt lat="44.8833121" lon="9.826846"><ele>133.0</ele><time>2026-04-19T07:11:31.906Z</time></trkpt><trkpt lat="44.883246" lon="9.8267861"><ele>134.0</ele><time>2026-04-19T07:11:35.889Z</time></trkpt><trkpt lat="44.883172" lon="9.826745"><ele>135.0</ele><time>2026-04-19T07:11:39.89Z</time></trkpt><trkpt lat="44.8830999" lon="9.826699"><ele>136.00000000000003</ele><time>2026-04-19T07:11:43.899Z</time></trkpt><trkpt lat="44.8830399" lon="9.8266524"><ele>137.0</ele><time>2026-04-19T07:11:46.897Z</time></trkpt><trkpt lat="44.8829704" lon="9.8266"><ele>137.66666666666666</ele><time>2026-04-19T07:11:49.904Z</time></trkpt><trkpt lat="44.8829076" lon="9.8265432"><ele>138.33333333333331</ele><time>2026-04-19T07:11:52.897Z</time></trkpt><trkpt lat="44.8828315" lon="9.8264933"><ele>139.0</ele><time>2026-04-19T07:11:55.9Z</time></trkpt><trkpt lat="44.8827639" lon="9.8264424"><ele>139.66666666666666</ele><time>2026-04-19T07:11:58.901Z</time></trkpt><trkpt lat="44.8826911" lon="9.8263926"><ele>140.33333333333334</ele><time>2026-04-19T07:12:01.901Z</time></trkpt><trkpt lat="44.8826138" lon="9.8263348"><ele>141.0</ele><time>2026-04-19T07:12:05.905Z</time></trkpt><trkpt lat="44.8825435" lon="9.826276"><ele>141.5</ele><time>2026-04-19T07:12:08.897Z</time></trkpt><trkpt lat="44.8824774" lon="9.8262169"><ele>142.0</ele><time>2026-04-19T07:12:11.885Z</time></trkpt><trkpt lat="44.8824057" lon="9.8261619"><ele>142.5</ele><time>2026-04-19T07:12:14.902Z</time></trkpt><trkpt lat="44.8823352" lon="9.8261116"><ele>143.0</ele><time>2026-04-19T07:12:17.905Z</time></trkpt><trkpt lat="44.8822581" lon="9.8260578"><ele>143.5</ele><time>2026-04-19T07:12:20.883Z</time></trkpt><trkpt lat="44.8821867" lon="9.8259992"><ele>144.0</ele><time>2026-04-19T07:12:23.898Z</time></trkpt><trkpt lat="44.8821121" lon="9.8259405"><ele>144.33333333333334</ele><time>2026-04-19T07:12:26.904Z</time></trkpt><trkpt lat="44.8820351" lon="9.8258673"><ele>144.66666666666666</ele><time>2026-04-19T07:12:29.913Z</time></trkpt><trkpt lat="44.8819519" lon="9.8258088"><ele>145.0</ele><time>2026-04-19T07:12:32.906Z</time></trkpt><trkpt lat="44.8818926" lon="9.8257657"><ele>145.33333333333331</ele><time>2026-04-19T07:12:34.911Z</time></trkpt><trkpt lat="44.8818303" lon="9.8257283"><ele>145.66666666666666</ele><time>2026-04-19T07:12:36.898Z</time></trkpt><trkpt lat="44.8817497" lon="9.8256624"><ele>146.0</ele><time>2026-04-19T07:12:39.908Z</time></trkpt><trkpt lat="44.8816896" lon="9.8256131"><ele>146.28571428571428</ele><time>2026-04-19T07:12:41.906Z</time></trkpt><trkpt lat="44.8816301" lon="9.8255689"><ele>146.57142857142858</ele><time>2026-04-19T07:12:43.904Z</time></trkpt><trkpt lat="44.8815666" lon="9.8255187"><ele>146.85714285714286</ele><time>2026-04-19T07:12:45.909Z</time></trkpt><trkpt lat="44.8815064" lon="9.8254671"><ele>147.14285714285714</ele><time>2026-04-19T07:12:47.899Z</time></trkpt><trkpt lat="44.8814395" lon="9.825416"><ele>147.42857142857142</ele><time>2026-04-19T07:12:49.874Z</time></trkpt><trkpt lat="44.881376" lon="9.8253676"><ele>147.71428571428572</ele><time>2026-04-19T07:12:51.907Z</time></trkpt><trkpt lat="44.8813132" lon="9.8253126"><ele>148.0</ele><time>2026-04-19T07:12:53.92Z</time></trkpt><trkpt lat="44.8812413" lon="9.8252644"><ele>148.0</ele><time>2026-04-19T07:12:55.905Z</time></trkpt><trkpt lat="44.8811811" lon="9.8252107"><ele>148.0</ele><time>2026-04-19T07:12:57.901Z</time></trkpt><trkpt lat="44.8811168" lon="9.8251595"><ele>148.0</ele><time>2026-04-19T07:12:59.904Z</time></trkpt><trkpt lat="44.8810535" lon="9.8251092"><ele>148.0</ele><time>2026-04-19T07:13:01.908Z</time></trkpt><trkpt lat="44.8809919" lon="9.8250664"><ele>148.0</ele><time>2026-04-19T07:13:03.876Z</time></trkpt><trkpt lat="44.8809244" lon="9.8250206"><ele>148.0</ele><time>2026-04-19T07:13:05.904Z</time></trkpt><trkpt lat="44.8808586" lon="9.8249705"><ele>148.0</ele><time>2026-04-19T07:13:07.892Z</time></trkpt><trkpt lat="44.8807938" lon="9.8249219"><ele>148.83333333333334</ele><time>2026-04-19T07:13:09.915Z</time></trkpt><trkpt lat="44.8807349" lon="9.8248626"><ele>149.66666666666669</ele><time>2026-04-19T07:13:11.897Z</time></trkpt><trkpt lat="44.8806695" lon="9.824821"><ele>150.5</ele><time>2026-04-19T07:13:13.922Z</time></trkpt><trkpt lat="44.8806023" lon="9.8247764"><ele>151.33333333333334</ele><time>2026-04-19T07:13:15.911Z</time></trkpt><trkpt lat="44.8805353" lon="9.8247199"><ele>152.16666666666666</ele><time>2026-04-19T07:13:17.91Z</time></trkpt><trkpt lat="44.8804679" lon="9.8246688"><ele>153.0</ele><time>2026-04-19T07:13:19.883Z</time></trkpt><trkpt lat="44.8804011" lon="9.824615"><ele>153.0</ele><time>2026-04-19T07:13:21.908Z</time></trkpt><trkpt lat="44.8803337" lon="9.8245707"><ele>153.0</ele><time>2026-04-19T07:13:23.899Z</time></trkpt><trkpt lat="44.8802712" lon="9.8245199"><ele>153.0</ele><time>2026-04-19T07:13:25.912Z</time></trkpt><trkpt lat="44.8802038" lon="9.8244765"><ele>153.0</ele><time>2026-04-19T07:13:27.901Z</time></trkpt><trkpt lat="44.8801424" lon="9.8244313"><ele>153.0</ele><time>2026-04-19T07:13:29.912Z</time></trkpt><trkpt lat="44.8800811" lon="9.8243895"><ele>153.0</ele><time>2026-04-19T07:13:31.902Z</time></trkpt><trkpt lat="44.8800146" lon="9.8243443"><ele>153.0</ele><time>2026-04-19T07:13:33.914Z</time></trkpt><trkpt lat="44.8799558" lon="9.8242994"><ele>152.85714285714286</ele><time>2026-04-19T07:13:35.91Z</time></trkpt><trkpt lat="44.8798741" lon="9.824236"><ele>152.71428571428572</ele><time>2026-04-19T07:13:38.895Z</time></trkpt><trkpt lat="44.8798155" lon="9.8241898"><ele>152.57142857142856</ele><time>2026-04-19T07:13:40.911Z</time></trkpt><trkpt lat="44.8797529" lon="9.824157"><ele>152.42857142857144</ele><time>2026-04-19T07:13:42.904Z</time></trkpt><trkpt lat="44.8796897" lon="9.8241172"><ele>152.2857142857143</ele><time>2026-04-19T07:13:44.9Z</time></trkpt><trkpt lat="44.8796295" lon="9.8240759"><ele>152.14285714285714</ele><time>2026-04-19T07:13:46.904Z</time></trkpt><trkpt lat="44.8795719" lon="9.8240314"><ele>152.0</ele><time>2026-04-19T07:13:48.887Z</time></trkpt><trkpt lat="44.8795157" lon="9.8239891"><ele>152.0</ele><time>2026-04-19T07:13:50.904Z</time></trkpt><trkpt lat="44.8794518" lon="9.8239461"><ele>152.0</ele><time>2026-04-19T07:13:52.907Z</time></trkpt><trkpt lat="44.8793899" lon="9.8239086"><ele>152.0</ele><time>2026-04-19T07:13:54.909Z</time></trkpt><trkpt lat="44.8793354" lon="9.8238597"><ele>152.0</ele><time>2026-04-19T07:13:56.901Z</time></trkpt><trkpt lat="44.8792735" lon="9.8238152"><ele>152.0</ele><time>2026-04-19T07:13:58.911Z</time></trkpt><trkpt lat="44.8792151" lon="9.8237706"><ele>152.0</ele><time>2026-04-19T07:14:00.903Z</time></trkpt><trkpt lat="44.8791541" lon="9.8237312"><ele>152.0</ele><time>2026-04-19T07:14:02.908Z</time></trkpt><trkpt lat="44.879054" lon="9.8237074"><ele>152.66666666666666</ele><time>2026-04-19T07:14:05.906Z</time></trkpt><trkpt lat="44.8789807" lon="9.8237349"><ele>153.33333333333331</ele><time>2026-04-19T07:14:07.905Z</time></trkpt><trkpt lat="44.878897" lon="9.8238032"><ele>154.0</ele><time>2026-04-19T07:14:09.899Z</time></trkpt><trkpt lat="44.878839" lon="9.8238944"><ele>154.66666666666666</ele><time>2026-04-19T07:14:11.901Z</time></trkpt><trkpt lat="44.8787986" lon="9.8239909"><ele>155.33333333333334</ele><time>2026-04-19T07:14:13.904Z</time></trkpt><trkpt lat="44.8787656" lon="9.8241085"><ele>156.0</ele><time>2026-04-19T07:14:15.911Z</time></trkpt><trkpt lat="44.8787204" lon="9.8242235"><ele>156.0</ele><time>2026-04-19T07:14:17.907Z</time></trkpt><trkpt lat="44.8786833" lon="9.8243391"><ele>156.0</ele><time>2026-04-19T07:14:19.907Z</time></trkpt><trkpt lat="44.8786501" lon="9.8244595"><ele>156.0</ele><time>2026-04-19T07:14:21.871Z</time></trkpt><trkpt lat="44.8786227" lon="9.8245732"><ele>156.0</ele><time>2026-04-19T07:14:23.863Z</time></trkpt><trkpt lat="44.8785849" lon="9.8246808"><ele>156.0</ele><time>2026-04-19T07:14:25.873Z</time></trkpt><trkpt lat="44.8785553" lon="9.8247816"><ele>156.0</ele><time>2026-04-19T07:14:27.873Z</time></trkpt><trkpt lat="44.8785276" lon="9.8248859"><ele>156.0</ele><time>2026-04-19T07:14:29.895Z</time></trkpt><trkpt lat="44.8785044" lon="9.8249817"><ele>156.0</ele><time>2026-04-19T07:14:31.895Z</time></trkpt><trkpt lat="44.8784747" lon="9.8250755"><ele>156.0</ele><time>2026-04-19T07:14:33.902Z</time></trkpt><trkpt lat="44.8784421" lon="9.8251655"><ele>156.0</ele><time>2026-04-19T07:14:35.897Z</time></trkpt><trkpt lat="44.8784147" lon="9.8252716"><ele>156.0</ele><time>2026-04-19T07:14:37.903Z</time></trkpt><trkpt lat="44.8783896" lon="9.8253672"><ele>156.0</ele><time>2026-04-19T07:14:39.908Z</time></trkpt><trkpt lat="44.8783551" lon="9.825474"><ele>156.16666666666666</ele><time>2026-04-19T07:14:41.908Z</time></trkpt><trkpt lat="44.8783159" lon="9.8255825"><ele>156.33333333333334</ele><time>2026-04-19T07:14:43.921Z</time></trkpt><trkpt lat="44.8782776" lon="9.8256954"><ele>156.5</ele><time>2026-04-19T07:14:45.915Z</time></trkpt><trkpt lat="44.8782433" lon="9.8258196"><ele>156.66666666666669</ele><time>2026-04-19T07:14:47.885Z</time></trkpt><trkpt lat="44.878203" lon="9.8259321"><ele>156.83333333333334</ele><time>2026-04-19T07:14:49.898Z</time></trkpt><trkpt lat="44.8781593" lon="9.8260349"><ele>157.0</ele><time>2026-04-19T07:14:51.898Z</time></trkpt><trkpt lat="44.8781102" lon="9.8261565"><ele>157.0</ele><time>2026-04-19T07:14:53.915Z</time></trkpt><trkpt lat="44.8780728" lon="9.8262678"><ele>157.0</ele><time>2026-04-19T07:14:55.91Z</time></trkpt><trkpt lat="44.8780338" lon="9.8263776"><ele>157.0</ele><time>2026-04-19T07:14:57.914Z</time></trkpt><trkpt lat="44.8779965" lon="9.8264762"><ele>157.0</ele><time>2026-04-19T07:14:59.905Z</time></trkpt><trkpt lat="44.8779647" lon="9.8265788"><ele>157.0</ele><time>2026-04-19T07:15:01.901Z</time></trkpt><trkpt lat="44.8779208" lon="9.8266859"><ele>157.0</ele><time>2026-04-19T07:15:03.912Z</time></trkpt><trkpt lat="44.8778631" lon="9.8268124"><ele>156.5</ele><time>2026-04-19T07:15:05.886Z</time></trkpt><trkpt lat="44.8778084" lon="9.826941"><ele>156.0</ele><time>2026-04-19T07:15:07.89Z</time></trkpt><trkpt lat="44.8777761" lon="9.8270191"><ele>155.5</ele><time>2026-04-19T07:15:08.905Z</time></trkpt><trkpt lat="44.8777421" lon="9.8270942"><ele>155.0</ele><time>2026-04-19T07:15:09.899Z</time></trkpt><trkpt lat="44.8776776" lon="9.8272351"><ele>154.5</ele><time>2026-04-19T07:15:11.9Z</time></trkpt><trkpt lat="44.8776264" lon="9.8272894"><ele>154.0</ele><time>2026-04-19T07:15:12.897Z</time></trkpt><trkpt lat="44.8775656" lon="9.8273322"><ele>154.0</ele><time>2026-04-19T07:15:13.906Z</time></trkpt><trkpt lat="44.8774938" lon="9.8273464"><ele>154.0</ele><time>2026-04-19T07:15:14.897Z</time></trkpt><trkpt lat="44.877362" lon="9.8273058"><ele>154.0</ele><time>2026-04-19T07:15:16.887Z</time></trkpt><trkpt lat="44.8772922" lon="9.8272558"><ele>154.0</ele><time>2026-04-19T07:15:17.895Z</time></trkpt><trkpt lat="44.8772239" lon="9.8272198"><ele>154.0</ele><time>2026-04-19T07:15:18.907Z</time></trkpt><trkpt lat="44.8770906" lon="9.8272004"><ele>154.0</ele><time>2026-04-19T07:15:20.899Z</time></trkpt><trkpt lat="44.8770145" lon="9.827217"><ele>154.0</ele><time>2026-04-19T07:15:21.902Z</time></trkpt><trkpt lat="44.8769534" lon="9.8272449"><ele>154.0</ele><time>2026-04-19T07:15:22.891Z</time></trkpt><trkpt lat="44.8768901" lon="9.8272826"><ele>154.0</ele><time>2026-04-19T07:15:23.909Z</time></trkpt><trkpt lat="44.876828" lon="9.827319"><ele>154.0</ele><time>2026-04-19T07:15:24.909Z</time></trkpt><trkpt lat="44.8767345" lon="9.8273773"><ele>154.0</ele><time>2026-04-19T07:15:26.903Z</time></trkpt><trkpt lat="44.8766492" lon="9.8274158"><ele>154.33333333333334</ele><time>2026-04-19T07:15:28.901Z</time></trkpt><trkpt lat="44.8765703" lon="9.8274542"><ele>154.66666666666669</ele><time>2026-04-19T07:15:30.908Z</time></trkpt><trkpt lat="44.8765005" lon="9.8274792"><ele>155.0</ele><time>2026-04-19T07:15:32.894Z</time></trkpt><trkpt lat="44.8764177" lon="9.8275283"><ele>155.33333333333334</ele><time>2026-04-19T07:15:35.904Z</time></trkpt><trkpt lat="44.8763485" lon="9.827573"><ele>155.66666666666666</ele><time>2026-04-19T07:15:38.915Z</time></trkpt><trkpt lat="44.8762762" lon="9.8276429"><ele>156.0</ele><time>2026-04-19T07:15:41.875Z</time></trkpt><trkpt lat="44.8762203" lon="9.8277136"><ele>156.66666666666666</ele><time>2026-04-19T07:15:44.89Z</time></trkpt><trkpt lat="44.8761858" lon="9.8278194"><ele>157.33333333333334</ele><time>2026-04-19T07:15:47.906Z</time></trkpt><trkpt lat="44.8761554" lon="9.8279071"><ele>158.0</ele><time>2026-04-19T07:15:50.901Z</time></trkpt><trkpt lat="44.8761192" lon="9.8279896"><ele>158.66666666666669</ele><time>2026-04-19T07:15:53.896Z</time></trkpt><trkpt lat="44.8760779" lon="9.8280681"><ele>159.33333333333334</ele><time>2026-04-19T07:15:56.889Z</time></trkpt><trkpt lat="44.8760138" lon="9.8281374"><ele>160.0</ele><time>2026-04-19T07:15:59.905Z</time></trkpt><trkpt lat="44.8759357" lon="9.8281832"><ele>160.33333333333334</ele><time>2026-04-19T07:16:02.897Z</time></trkpt><trkpt lat="44.875862" lon="9.8282369"><ele>160.66666666666669</ele><time>2026-04-19T07:16:05.908Z</time></trkpt><trkpt lat="44.8757853" lon="9.8282822"><ele>161.0</ele><time>2026-04-19T07:16:08.91Z</time></trkpt><trkpt lat="44.8757101" lon="9.8283304"><ele>161.33333333333334</ele><time>2026-04-19T07:16:11.896Z</time></trkpt><trkpt lat="44.8756388" lon="9.8283859"><ele>161.66666666666666</ele><time>2026-04-19T07:16:14.889Z</time></trkpt><trkpt lat="44.875572" lon="9.8284395"><ele>162.0</ele><time>2026-04-19T07:16:17.882Z</time></trkpt><trkpt lat="44.8755006" lon="9.8284848"><ele>162.0</ele><time>2026-04-19T07:16:20.902Z</time></trkpt><trkpt lat="44.8754401" lon="9.828536"><ele>162.0</ele><time>2026-04-19T07:16:23.908Z</time></trkpt><trkpt lat="44.8753658" lon="9.8285959"><ele>162.0</ele><time>2026-04-19T07:16:26.913Z</time></trkpt><trkpt lat="44.8752951" lon="9.8286505"><ele>162.0</ele><time>2026-04-19T07:16:29.906Z</time></trkpt><trkpt lat="44.8752239" lon="9.8287182"><ele>162.0</ele><time>2026-04-19T07:16:32.885Z</time></trkpt><trkpt lat="44.8751663" lon="9.8287989"><ele>162.0</ele><time>2026-04-19T07:16:35.898Z</time></trkpt><trkpt lat="44.8751128" lon="9.8289053"><ele>162.5</ele><time>2026-04-19T07:16:38.885Z</time></trkpt><trkpt lat="44.8750854" lon="9.8289868"><ele>163.0</ele><time>2026-04-19T07:16:40.901Z</time></trkpt><trkpt lat="44.875052" lon="9.8291046"><ele>163.5</ele><time>2026-04-19T07:16:43.908Z</time></trkpt><trkpt lat="44.8750416" lon="9.8292371"><ele>164.0</ele><time>2026-04-19T07:16:46.9Z</time></trkpt><trkpt lat="44.8750363" lon="9.829329"><ele>164.5</ele><time>2026-04-19T07:16:48.903Z</time></trkpt><trkpt lat="44.8750346" lon="9.8294415"><ele>165.0</ele><time>2026-04-19T07:16:50.907Z</time></trkpt><trkpt lat="44.8750311" lon="9.8295439"><ele>165.0</ele><time>2026-04-19T07:16:52.906Z</time></trkpt><trkpt lat="44.8750217" lon="9.8296535"><ele>165.0</ele><time>2026-04-19T07:16:54.916Z</time></trkpt><trkpt lat="44.8750099" lon="9.8297821"><ele>165.0</ele><time>2026-04-19T07:16:56.909Z</time></trkpt><trkpt lat="44.8749915" lon="9.8299168"><ele>165.0</ele><time>2026-04-19T07:16:58.9Z</time></trkpt><trkpt lat="44.8749817" lon="9.8300605"><ele>165.0</ele><time>2026-04-19T07:17:00.911Z</time></trkpt><trkpt lat="44.8749685" lon="9.8302017"><ele>165.0</ele><time>2026-04-19T07:17:02.906Z</time></trkpt><trkpt lat="44.8749431" lon="9.8303458"><ele>165.0</ele><time>2026-04-19T07:17:04.909Z</time></trkpt><trkpt lat="44.8749016" lon="9.8304738"><ele>165.0</ele><time>2026-04-19T07:17:06.895Z</time></trkpt><trkpt lat="44.874853" lon="9.8305996"><ele>165.0</ele><time>2026-04-19T07:17:08.904Z</time></trkpt><trkpt lat="44.8748062" lon="9.8307174"><ele>165.0</ele><time>2026-04-19T07:17:10.917Z</time></trkpt><trkpt lat="44.8747439" lon="9.8308112"><ele>165.00000000000003</ele><time>2026-04-19T07:17:12.913Z</time></trkpt><trkpt lat="44.8746871" lon="9.830892"><ele>165.0</ele><time>2026-04-19T07:17:14.906Z</time></trkpt><trkpt lat="44.8746295" lon="9.8309649"><ele>165.0</ele><time>2026-04-19T07:17:16.912Z</time></trkpt><trkpt lat="44.874577" lon="9.8310362"><ele>165.0</ele><time>2026-04-19T07:17:18.913Z</time></trkpt><trkpt lat="44.8745225" lon="9.8311053"><ele>165.0</ele><time>2026-04-19T07:17:20.912Z</time></trkpt><trkpt lat="44.8744722" lon="9.8311692"><ele>165.00000000000003</ele><time>2026-04-19T07:17:22.901Z</time></trkpt><trkpt lat="44.8744252" lon="9.8312314"><ele>165.0</ele><time>2026-04-19T07:17:24.904Z</time></trkpt><trkpt lat="44.8743604" lon="9.8313253"><ele>164.66666666666666</ele><time>2026-04-19T07:17:27.902Z</time></trkpt><trkpt lat="44.8743151" lon="9.8313939"><ele>164.33333333333334</ele><time>2026-04-19T07:17:29.914Z</time></trkpt><trkpt lat="44.8742663" lon="9.8314517"><ele>164.0</ele><time>2026-04-19T07:17:31.911Z</time></trkpt><trkpt lat="44.8741963" lon="9.8315351"><ele>163.66666666666669</ele><time>2026-04-19T07:17:34.897Z</time></trkpt><trkpt lat="44.8741378" lon="9.8316218"><ele>163.33333333333334</ele><time>2026-04-19T07:17:37.906Z</time></trkpt><trkpt lat="44.8740784" lon="9.8317035"><ele>163.0</ele><time>2026-04-19T07:17:40.897Z</time></trkpt><trkpt lat="44.874031" lon="9.8317838"><ele>163.33333333333334</ele><time>2026-04-19T07:17:43.913Z</time></trkpt><trkpt lat="44.8739837" lon="9.8318621"><ele>163.66666666666669</ele><time>2026-04-19T07:17:46.903Z</time></trkpt><trkpt lat="44.8739364" lon="9.8319464"><ele>164.0</ele><time>2026-04-19T07:17:49.907Z</time></trkpt><trkpt lat="44.8739369" lon="9.8320864"><ele>164.33333333333334</ele><time>2026-04-19T07:17:52.903Z</time></trkpt><trkpt lat="44.8739514" lon="9.8321826"><ele>164.66666666666666</ele><time>2026-04-19T07:17:54.88Z</time></trkpt><trkpt lat="44.8739892" lon="9.8322868"><ele>165.0</ele><time>2026-04-19T07:17:56.909Z</time></trkpt><trkpt lat="44.8740226" lon="9.8324112"><ele>165.0</ele><time>2026-04-19T07:17:58.898Z</time></trkpt><trkpt lat="44.8740511" lon="9.8325487"><ele>165.0</ele><time>2026-04-19T07:18:00.916Z</time></trkpt><trkpt lat="44.8740639" lon="9.8327088"><ele>165.0</ele><time>2026-04-19T07:18:02.907Z</time></trkpt><trkpt lat="44.8740614" lon="9.8328759"><ele>165.0</ele><time>2026-04-19T07:18:04.887Z</time></trkpt><trkpt lat="44.8740335" lon="9.8330347"><ele>164.5</ele><time>2026-04-19T07:18:06.913Z</time></trkpt><trkpt lat="44.8739662" lon="9.8331786"><ele>164.0</ele><time>2026-04-19T07:18:08.905Z</time></trkpt><trkpt lat="44.8739177" lon="9.8332429"><ele>163.5</ele><time>2026-04-19T07:18:09.899Z</time></trkpt><trkpt lat="44.8738688" lon="9.8333119"><ele>163.0</ele><time>2026-04-19T07:18:10.912Z</time></trkpt><trkpt lat="44.873813" lon="9.833383"><ele>162.5</ele><time>2026-04-19T07:18:11.91Z</time></trkpt><trkpt lat="44.8737542" lon="9.8334654"><ele>162.0</ele><time>2026-04-19T07:18:12.906Z</time></trkpt><trkpt lat="44.8736947" lon="9.8335537"><ele>161.2</ele><time>2026-04-19T07:18:13.898Z</time></trkpt><trkpt lat="44.8736294" lon="9.8336492"><ele>160.39999999999998</ele><time>2026-04-19T07:18:14.906Z</time></trkpt><trkpt lat="44.8735663" lon="9.8337378"><ele>159.60000000000002</ele><time>2026-04-19T07:18:15.9Z</time></trkpt><trkpt lat="44.8735063" lon="9.833832"><ele>158.8</ele><time>2026-04-19T07:18:16.91Z</time></trkpt><trkpt lat="44.8734478" lon="9.8339284"><ele>158.0</ele><time>2026-04-19T07:18:17.899Z</time></trkpt><trkpt lat="44.873387" lon="9.8340286"><ele>156.4</ele><time>2026-04-19T07:18:18.906Z</time></trkpt><trkpt lat="44.8733272" lon="9.8341197"><ele>154.8</ele><time>2026-04-19T07:18:19.903Z</time></trkpt><trkpt lat="44.8732661" lon="9.8342174"><ele>153.2</ele><time>2026-04-19T07:18:20.906Z</time></trkpt><trkpt lat="44.8732113" lon="9.8343205"><ele>151.6</ele><time>2026-04-19T07:18:21.913Z</time></trkpt><trkpt lat="44.8731597" lon="9.8344202"><ele>150.0</ele><time>2026-04-19T07:18:22.902Z</time></trkpt><trkpt lat="44.873108" lon="9.8345323"><ele>149.33333333333334</ele><time>2026-04-19T07:18:23.907Z</time></trkpt><trkpt lat="44.8730488" lon="9.8346312"><ele>148.66666666666666</ele><time>2026-04-19T07:18:24.892Z</time></trkpt><trkpt lat="44.8729902" lon="9.8347194"><ele>148.0</ele><time>2026-04-19T07:18:25.913Z</time></trkpt><trkpt lat="44.872931" lon="9.834799"><ele>147.33333333333331</ele><time>2026-04-19T07:18:26.914Z</time></trkpt><trkpt lat="44.8728692" lon="9.8348638"><ele>146.66666666666666</ele><time>2026-04-19T07:18:27.9Z</time></trkpt><trkpt lat="44.8728058" lon="9.8349109"><ele>146.0</ele><time>2026-04-19T07:18:28.908Z</time></trkpt><trkpt lat="44.8726926" lon="9.8349876"><ele>146.0</ele><time>2026-04-19T07:18:30.91Z</time></trkpt><trkpt lat="44.8726374" lon="9.835057"><ele>146.0</ele><time>2026-04-19T07:18:31.888Z</time></trkpt><trkpt lat="44.8726021" lon="9.835136"><ele>146.0</ele><time>2026-04-19T07:18:32.904Z</time></trkpt><trkpt lat="44.8725835" lon="9.8352477"><ele>146.0</ele><time>2026-04-19T07:18:33.911Z</time></trkpt><trkpt lat="44.8725764" lon="9.8353451"><ele>146.0</ele><time>2026-04-19T07:18:34.904Z</time></trkpt><trkpt lat="44.8725688" lon="9.8354507"><ele>146.0</ele><time>2026-04-19T07:18:35.91Z</time></trkpt><trkpt lat="44.872565" lon="9.8355633"><ele>146.0</ele><time>2026-04-19T07:18:36.908Z</time></trkpt><trkpt lat="44.8725616" lon="9.8356665"><ele>145.33333333333331</ele><time>2026-04-19T07:18:37.899Z</time></trkpt><trkpt lat="44.8725524" lon="9.8357663"><ele>144.66666666666666</ele><time>2026-04-19T07:18:38.906Z</time></trkpt><trkpt lat="44.8725487" lon="9.8358762"><ele>144.0</ele><time>2026-04-19T07:18:39.9Z</time></trkpt><trkpt lat="44.8725418" lon="9.8359874"><ele>143.33333333333334</ele><time>2026-04-19T07:18:40.905Z</time></trkpt><trkpt lat="44.872534" lon="9.8361011"><ele>142.66666666666669</ele><time>2026-04-19T07:18:41.906Z</time></trkpt><trkpt lat="44.8725273" lon="9.8362087"><ele>142.0</ele><time>2026-04-19T07:18:42.905Z</time></trkpt><trkpt lat="44.8725139" lon="9.8363194"><ele>141.16666666666669</ele><time>2026-04-19T07:18:43.902Z</time></trkpt><trkpt lat="44.8725006" lon="9.8364245"><ele>140.33333333333334</ele><time>2026-04-19T07:18:44.895Z</time></trkpt><trkpt lat="44.8724864" lon="9.8365352"><ele>139.5</ele><time>2026-04-19T07:18:45.904Z</time></trkpt><trkpt lat="44.8724621" lon="9.8366395"><ele>138.66666666666666</ele><time>2026-04-19T07:18:46.9Z</time></trkpt><trkpt lat="44.8724336" lon="9.836747"><ele>137.83333333333331</ele><time>2026-04-19T07:18:47.917Z</time></trkpt><trkpt lat="44.8724067" lon="9.8368388"><ele>137.0</ele><time>2026-04-19T07:18:48.899Z</time></trkpt><trkpt lat="44.8723833" lon="9.8369294"><ele>136.4</ele><time>2026-04-19T07:18:49.906Z</time></trkpt><trkpt lat="44.8723397" lon="9.8370951"><ele>135.79999999999998</ele><time>2026-04-19T07:18:51.902Z</time></trkpt><trkpt lat="44.8722984" lon="9.8372045"><ele>135.2</ele><time>2026-04-19T07:18:53.901Z</time></trkpt><trkpt lat="44.8722131" lon="9.8372534"><ele>134.6</ele><time>2026-04-19T07:18:56.911Z</time></trkpt><trkpt lat="44.8721393" lon="9.837227"><ele>134.0</ele><time>2026-04-19T07:18:58.905Z</time></trkpt><trkpt lat="44.8720534" lon="9.8372104"><ele>134.0</ele><time>2026-04-19T07:19:00.896Z</time></trkpt><trkpt lat="44.8719722" lon="9.8371954"><ele>134.0</ele><time>2026-04-19T07:19:02.906Z</time></trkpt><trkpt lat="44.8718863" lon="9.8371663"><ele>134.0</ele><time>2026-04-19T07:19:04.9Z</time></trkpt><trkpt lat="44.8718099" lon="9.8371423"><ele>134.0</ele><time>2026-04-19T07:19:06.902Z</time></trkpt><trkpt lat="44.871717" lon="9.8371185"><ele>134.0</ele><time>2026-04-19T07:19:08.895Z</time></trkpt><trkpt lat="44.871627" lon="9.8370892"><ele>134.0</ele><time>2026-04-19T07:19:10.907Z</time></trkpt><trkpt lat="44.8715353" lon="9.8370659"><ele>134.0</ele><time>2026-04-19T07:19:12.904Z</time></trkpt><trkpt lat="44.871434" lon="9.8370409"><ele>134.0</ele><time>2026-04-19T07:19:14.902Z</time></trkpt><trkpt lat="44.8713331" lon="9.8370216"><ele>134.0</ele><time>2026-04-19T07:19:16.903Z</time></trkpt><trkpt lat="44.8712353" lon="9.8369938"><ele>134.0</ele><time>2026-04-19T07:19:18.904Z</time></trkpt><trkpt lat="44.8711246" lon="9.8369675"><ele>134.0</ele><time>2026-04-19T07:19:20.898Z</time></trkpt><trkpt lat="44.8710084" lon="9.8369454"><ele>134.0</ele><time>2026-04-19T07:19:22.914Z</time></trkpt><trkpt lat="44.870906" lon="9.8369156"><ele>134.0</ele><time>2026-04-19T07:19:24.904Z</time></trkpt><trkpt lat="44.8707874" lon="9.836891"><ele>134.0</ele><time>2026-04-19T07:19:26.88Z</time></trkpt><trkpt lat="44.8706745" lon="9.8368602"><ele>134.0</ele><time>2026-04-19T07:19:28.899Z</time></trkpt><trkpt lat="44.8705718" lon="9.8368304"><ele>134.0</ele><time>2026-04-19T07:19:30.91Z</time></trkpt><trkpt lat="44.8704663" lon="9.8367931"><ele>134.4</ele><time>2026-04-19T07:19:32.896Z</time></trkpt><trkpt lat="44.8703605" lon="9.836756"><ele>134.8</ele><time>2026-04-19T07:19:34.902Z</time></trkpt><trkpt lat="44.8702527" lon="9.8367294"><ele>135.2</ele><time>2026-04-19T07:19:36.907Z</time></trkpt><trkpt lat="44.8701451" lon="9.8366969"><ele>135.6</ele><time>2026-04-19T07:19:38.903Z</time></trkpt><trkpt lat="44.8700445" lon="9.8366696"><ele>136.0</ele><time>2026-04-19T07:19:40.902Z</time></trkpt><trkpt lat="44.8699336" lon="9.8366496"><ele>136.0</ele><time>2026-04-19T07:19:42.895Z</time></trkpt><trkpt lat="44.8698311" lon="9.8366321"><ele>136.0</ele><time>2026-04-19T07:19:44.913Z</time></trkpt><trkpt lat="44.8697257" lon="9.8366285"><ele>136.0</ele><time>2026-04-19T07:19:46.904Z</time></trkpt><trkpt lat="44.8696135" lon="9.8366138"><ele>136.0</ele><time>2026-04-19T07:19:48.909Z</time></trkpt><trkpt lat="44.8695022" lon="9.8365975"><ele>136.0</ele><time>2026-04-19T07:19:50.896Z</time></trkpt><trkpt lat="44.8693959" lon="9.8365835"><ele>136.0</ele><time>2026-04-19T07:19:52.905Z</time></trkpt><trkpt lat="44.8692829" lon="9.836574"><ele>136.0</ele><time>2026-04-19T07:19:54.901Z</time></trkpt><trkpt lat="44.8691747" lon="9.8365541"><ele>136.0</ele><time>2026-04-19T07:19:56.903Z</time></trkpt><trkpt lat="44.8690636" lon="9.8365422"><ele>136.0</ele><time>2026-04-19T07:19:58.917Z</time></trkpt><trkpt lat="44.8689549" lon="9.8365349"><ele>136.0</ele><time>2026-04-19T07:20:00.898Z</time></trkpt><trkpt lat="44.8688449" lon="9.8365263"><ele>136.0</ele><time>2026-04-19T07:20:02.907Z</time></trkpt><trkpt lat="44.8687391" lon="9.8365055"><ele>136.0</ele><time>2026-04-19T07:20:04.909Z</time></trkpt><trkpt lat="44.8686277" lon="9.8364784"><ele>136.0</ele><time>2026-04-19T07:20:06.9Z</time></trkpt><trkpt lat="44.8685182" lon="9.8364455"><ele>136.0</ele><time>2026-04-19T07:20:08.914Z</time></trkpt><trkpt lat="44.8684209" lon="9.8364114"><ele>136.0</ele><time>2026-04-19T07:20:10.905Z</time></trkpt><trkpt lat="44.8683193" lon="9.8363764"><ele>136.0</ele><time>2026-04-19T07:20:12.9Z</time></trkpt><trkpt lat="44.8682187" lon="9.8363342"><ele>136.0</ele><time>2026-04-19T07:20:14.907Z</time></trkpt><trkpt lat="44.8681175" lon="9.8362878"><ele>136.0</ele><time>2026-04-19T07:20:16.905Z</time></trkpt><trkpt lat="44.868012" lon="9.8362518"><ele>136.0</ele><time>2026-04-19T07:20:18.901Z</time></trkpt><trkpt lat="44.8679158" lon="9.8362044"><ele>136.0</ele><time>2026-04-19T07:20:20.91Z</time></trkpt><trkpt lat="44.8678136" lon="9.836164"><ele>136.0</ele><time>2026-04-19T07:20:22.907Z</time></trkpt><trkpt lat="44.8677143" lon="9.8361236"><ele>136.0</ele><time>2026-04-19T07:20:24.913Z</time></trkpt><trkpt lat="44.86761" lon="9.8360842"><ele>136.0</ele><time>2026-04-19T07:20:26.903Z</time></trkpt><trkpt lat="44.8675023" lon="9.8360469"><ele>136.0</ele><time>2026-04-19T07:20:28.887Z</time></trkpt><trkpt lat="44.8673938" lon="9.836006"><ele>136.0</ele><time>2026-04-19T07:20:30.907Z</time></trkpt><trkpt lat="44.8672959" lon="9.8359681"><ele>136.2</ele><time>2026-04-19T07:20:32.901Z</time></trkpt><trkpt lat="44.8672038" lon="9.8359202"><ele>136.39999999999998</ele><time>2026-04-19T07:20:34.902Z</time></trkpt><trkpt lat="44.8670986" lon="9.8358667"><ele>136.6</ele><time>2026-04-19T07:20:36.905Z</time></trkpt><trkpt lat="44.8669981" lon="9.8358335"><ele>136.79999999999998</ele><time>2026-04-19T07:20:38.908Z</time></trkpt><trkpt lat="44.8668983" lon="9.8357947"><ele>137.0</ele><time>2026-04-19T07:20:40.906Z</time></trkpt><trkpt lat="44.8667923" lon="9.8357532"><ele>137.0</ele><time>2026-04-19T07:20:42.903Z</time></trkpt><trkpt lat="44.8666889" lon="9.8357101"><ele>137.0</ele><time>2026-04-19T07:20:44.907Z</time></trkpt><trkpt lat="44.8665841" lon="9.8356672"><ele>137.0</ele><time>2026-04-19T07:20:46.906Z</time></trkpt><trkpt lat="44.8664914" lon="9.8356212"><ele>137.0</ele><time>2026-04-19T07:20:48.902Z</time></trkpt><trkpt lat="44.8663952" lon="9.8355812"><ele>137.0</ele><time>2026-04-19T07:20:50.902Z</time></trkpt><trkpt lat="44.8662971" lon="9.8355444"><ele>137.0</ele><time>2026-04-19T07:20:52.9Z</time></trkpt><trkpt lat="44.8661945" lon="9.8355067"><ele>137.0</ele><time>2026-04-19T07:20:54.903Z</time></trkpt><trkpt lat="44.8660926" lon="9.8354656"><ele>137.0</ele><time>2026-04-19T07:20:56.906Z</time></trkpt><trkpt lat="44.8659935" lon="9.8354273"><ele>137.0</ele><time>2026-04-19T07:20:58.888Z</time></trkpt><trkpt lat="44.8658965" lon="9.8353883"><ele>137.0</ele><time>2026-04-19T07:21:00.902Z</time></trkpt><trkpt lat="44.8657978" lon="9.8353494"><ele>137.6</ele><time>2026-04-19T07:21:02.902Z</time></trkpt><trkpt lat="44.8657019" lon="9.8353083"><ele>138.2</ele><time>2026-04-19T07:21:04.908Z</time></trkpt><trkpt lat="44.8656045" lon="9.8352698"><ele>138.8</ele><time>2026-04-19T07:21:06.902Z</time></trkpt><trkpt lat="44.8655057" lon="9.8352266"><ele>139.4</ele><time>2026-04-19T07:21:08.916Z</time></trkpt><trkpt lat="44.8654058" lon="9.8351979"><ele>140.0</ele><time>2026-04-19T07:21:10.907Z</time></trkpt><trkpt lat="44.8653099" lon="9.8351582"><ele>139.4</ele><time>2026-04-19T07:21:12.905Z</time></trkpt><trkpt lat="44.8652148" lon="9.8351123"><ele>138.8</ele><time>2026-04-19T07:21:14.911Z</time></trkpt><trkpt lat="44.8651229" lon="9.8350779"><ele>138.2</ele><time>2026-04-19T07:21:16.904Z</time></trkpt><trkpt lat="44.865032" lon="9.8350382"><ele>137.6</ele><time>2026-04-19T07:21:18.91Z</time></trkpt><trkpt lat="44.8649339" lon="9.8350068"><ele>137.0</ele><time>2026-04-19T07:21:20.913Z</time></trkpt><trkpt lat="44.8648386" lon="9.8349726"><ele>137.0</ele><time>2026-04-19T07:21:22.902Z</time></trkpt><trkpt lat="44.8647455" lon="9.8349295"><ele>137.0</ele><time>2026-04-19T07:21:24.909Z</time></trkpt><trkpt lat="44.8646425" lon="9.8348863"><ele>137.0</ele><time>2026-04-19T07:21:26.904Z</time></trkpt><trkpt lat="44.8645526" lon="9.8348483"><ele>137.0</ele><time>2026-04-19T07:21:28.897Z</time></trkpt><trkpt lat="44.8644605" lon="9.8348098"><ele>137.0</ele><time>2026-04-19T07:21:30.912Z</time></trkpt><trkpt lat="44.8643696" lon="9.8347622"><ele>137.2</ele><time>2026-04-19T07:21:32.92Z</time></trkpt><trkpt lat="44.8642772" lon="9.8347062"><ele>137.39999999999998</ele><time>2026-04-19T07:21:34.893Z</time></trkpt><trkpt lat="44.8641809" lon="9.8346599"><ele>137.60000000000002</ele><time>2026-04-19T07:21:36.905Z</time></trkpt><trkpt lat="44.8640865" lon="9.8346136"><ele>137.8</ele><time>2026-04-19T07:21:38.902Z</time></trkpt><trkpt lat="44.8639887" lon="9.8345627"><ele>138.0</ele><time>2026-04-19T07:21:40.903Z</time></trkpt><trkpt lat="44.8638969" lon="9.8345149"><ele>138.0</ele><time>2026-04-19T07:21:42.906Z</time></trkpt><trkpt lat="44.8638032" lon="9.8344611"><ele>138.0</ele><time>2026-04-19T07:21:44.901Z</time></trkpt><trkpt lat="44.8637061" lon="9.834402"><ele>138.0</ele><time>2026-04-19T07:21:46.903Z</time></trkpt><trkpt lat="44.8636073" lon="9.8343462"><ele>138.0</ele><time>2026-04-19T07:21:48.897Z</time></trkpt><trkpt lat="44.8635133" lon="9.8342855"><ele>138.0</ele><time>2026-04-19T07:21:50.901Z</time></trkpt><trkpt lat="44.8634244" lon="9.8342306"><ele>138.20000000000002</ele><time>2026-04-19T07:21:52.909Z</time></trkpt><trkpt lat="44.863335" lon="9.834176"><ele>138.4</ele><time>2026-04-19T07:21:54.912Z</time></trkpt><trkpt lat="44.8632523" lon="9.8341231"><ele>138.60000000000002</ele><time>2026-04-19T07:21:56.904Z</time></trkpt><trkpt lat="44.8631678" lon="9.834061"><ele>138.8</ele><time>2026-04-19T07:21:58.904Z</time></trkpt><trkpt lat="44.8630828" lon="9.8340012"><ele>139.0</ele><time>2026-04-19T07:22:00.9Z</time></trkpt><trkpt lat="44.8629929" lon="9.8339286"><ele>139.0</ele><time>2026-04-19T07:22:02.904Z</time></trkpt><trkpt lat="44.8629055" lon="9.8338734"><ele>139.0</ele><time>2026-04-19T07:22:04.907Z</time></trkpt><trkpt lat="44.8628147" lon="9.8338161"><ele>139.0</ele><time>2026-04-19T07:22:06.911Z</time></trkpt><trkpt lat="44.8627263" lon="9.8337469"><ele>139.0</ele><time>2026-04-19T07:22:08.904Z</time></trkpt><trkpt lat="44.8626413" lon="9.8336796"><ele>139.0</ele><time>2026-04-19T07:22:10.887Z</time></trkpt><trkpt lat="44.8625579" lon="9.8336138"><ele>139.4</ele><time>2026-04-19T07:22:12.906Z</time></trkpt><trkpt lat="44.8624744" lon="9.833546"><ele>139.8</ele><time>2026-04-19T07:22:14.901Z</time></trkpt><trkpt lat="44.8623944" lon="9.8334636"><ele>140.2</ele><time>2026-04-19T07:22:16.897Z</time></trkpt><trkpt lat="44.8623223" lon="9.8333776"><ele>140.6</ele><time>2026-04-19T07:22:18.903Z</time></trkpt><trkpt lat="44.8622456" lon="9.8332928"><ele>141.0</ele><time>2026-04-19T07:22:20.883Z</time></trkpt><trkpt lat="44.86217" lon="9.8332009"><ele>141.4</ele><time>2026-04-19T07:22:22.893Z</time></trkpt><trkpt lat="44.8620845" lon="9.8331215"><ele>141.8</ele><time>2026-04-19T07:22:24.904Z</time></trkpt><trkpt lat="44.8620068" lon="9.8330381"><ele>142.20000000000002</ele><time>2026-04-19T07:22:26.899Z</time></trkpt><trkpt lat="44.8619231" lon="9.8329627"><ele>142.6</ele><time>2026-04-19T07:22:28.904Z</time></trkpt><trkpt lat="44.861841" lon="9.8328779"><ele>143.0</ele><time>2026-04-19T07:22:30.905Z</time></trkpt><trkpt lat="44.8617562" lon="9.8327888"><ele>143.20000000000002</ele><time>2026-04-19T07:22:32.907Z</time></trkpt><trkpt lat="44.8616779" lon="9.8327011"><ele>143.4</ele><time>2026-04-19T07:22:34.909Z</time></trkpt><trkpt lat="44.861596" lon="9.8326264"><ele>143.60000000000002</ele><time>2026-04-19T07:22:36.906Z</time></trkpt><trkpt lat="44.8615086" lon="9.8325473"><ele>143.8</ele><time>2026-04-19T07:22:38.916Z</time></trkpt><trkpt lat="44.8614313" lon="9.8324825"><ele>144.0</ele><time>2026-04-19T07:22:40.894Z</time></trkpt><trkpt lat="44.8613469" lon="9.8324136"><ele>144.0</ele><time>2026-04-19T07:22:42.893Z</time></trkpt><trkpt lat="44.8612593" lon="9.8323535"><ele>144.0</ele><time>2026-04-19T07:22:44.903Z</time></trkpt><trkpt lat="44.8611702" lon="9.8322764"><ele>144.0</ele><time>2026-04-19T07:22:46.903Z</time></trkpt><trkpt lat="44.8610854" lon="9.8322061"><ele>144.0</ele><time>2026-04-19T07:22:48.902Z</time></trkpt><trkpt lat="44.8609979" lon="9.8321391"><ele>144.0</ele><time>2026-04-19T07:22:50.904Z</time></trkpt><trkpt lat="44.8609162" lon="9.8320629"><ele>144.2</ele><time>2026-04-19T07:22:52.907Z</time></trkpt><trkpt lat="44.8608304" lon="9.8319976"><ele>144.4</ele><time>2026-04-19T07:22:54.903Z</time></trkpt><trkpt lat="44.8607473" lon="9.8319256"><ele>144.6</ele><time>2026-04-19T07:22:56.906Z</time></trkpt><trkpt lat="44.8606658" lon="9.8318546"><ele>144.8</ele><time>2026-04-19T07:22:58.908Z</time></trkpt><trkpt lat="44.8605862" lon="9.8317841"><ele>145.0</ele><time>2026-04-19T07:23:00.913Z</time></trkpt><trkpt lat="44.8604973" lon="9.8317114"><ele>144.8</ele><time>2026-04-19T07:23:02.902Z</time></trkpt><trkpt lat="44.8604139" lon="9.8316345"><ele>144.6</ele><time>2026-04-19T07:23:04.901Z</time></trkpt><trkpt lat="44.8603279" lon="9.8315585"><ele>144.4</ele><time>2026-04-19T07:23:06.906Z</time></trkpt><trkpt lat="44.8602453" lon="9.8314744"><ele>144.2</ele><time>2026-04-19T07:23:08.902Z</time></trkpt><trkpt lat="44.8601665" lon="9.8313916"><ele>144.0</ele><time>2026-04-19T07:23:10.888Z</time></trkpt><trkpt lat="44.8600957" lon="9.8313059"><ele>144.0</ele><time>2026-04-19T07:23:12.904Z</time></trkpt><trkpt lat="44.8600143" lon="9.8312213"><ele>144.0</ele><time>2026-04-19T07:23:14.907Z</time></trkpt><trkpt lat="44.8599339" lon="9.8311284"><ele>144.0</ele><time>2026-04-19T07:23:16.912Z</time></trkpt><trkpt lat="44.8598579" lon="9.8310381"><ele>144.0</ele><time>2026-04-19T07:23:18.889Z</time></trkpt><trkpt lat="44.8597807" lon="9.8309432"><ele>144.0</ele><time>2026-04-19T07:23:20.904Z</time></trkpt><trkpt lat="44.8597095" lon="9.8308461"><ele>144.4</ele><time>2026-04-19T07:23:22.907Z</time></trkpt><trkpt lat="44.8596527" lon="9.8307456"><ele>144.8</ele><time>2026-04-19T07:23:24.908Z</time></trkpt><trkpt lat="44.8595904" lon="9.8306441"><ele>145.2</ele><time>2026-04-19T07:23:26.904Z</time></trkpt><trkpt lat="44.8595416" lon="9.8305298"><ele>145.6</ele><time>2026-04-19T07:23:28.899Z</time></trkpt><trkpt lat="44.8594958" lon="9.8304036"><ele>146.0</ele><time>2026-04-19T07:23:30.908Z</time></trkpt><trkpt lat="44.8594428" lon="9.8302846"><ele>146.0</ele><time>2026-04-19T07:23:32.894Z</time></trkpt><trkpt lat="44.8594039" lon="9.8301641"><ele>146.0</ele><time>2026-04-19T07:23:34.905Z</time></trkpt><trkpt lat="44.8593641" lon="9.8300403"><ele>146.0</ele><time>2026-04-19T07:23:36.904Z</time></trkpt><trkpt lat="44.8593291" lon="9.8299241"><ele>146.0</ele><time>2026-04-19T07:23:38.903Z</time></trkpt><trkpt lat="44.8592889" lon="9.8298104"><ele>146.0</ele><time>2026-04-19T07:23:40.902Z</time></trkpt><trkpt lat="44.859238" lon="9.829683"><ele>146.5</ele><time>2026-04-19T07:23:42.901Z</time></trkpt><trkpt lat="44.8592014" lon="9.8295746"><ele>147.0</ele><time>2026-04-19T07:23:44.88Z</time></trkpt><trkpt lat="44.8591652" lon="9.8294652"><ele>147.5</ele><time>2026-04-19T07:23:46.889Z</time></trkpt><trkpt lat="44.859116" lon="9.8293594"><ele>148.0</ele><time>2026-04-19T07:23:48.903Z</time></trkpt><trkpt lat="44.8590691" lon="9.8292548"><ele>148.5</ele><time>2026-04-19T07:23:50.889Z</time></trkpt><trkpt lat="44.8590109" lon="9.8291531"><ele>149.0</ele><time>2026-04-19T07:23:52.901Z</time></trkpt><trkpt lat="44.8589539" lon="9.8290695"><ele>149.0</ele><time>2026-04-19T07:23:54.887Z</time></trkpt><trkpt lat="44.8588881" lon="9.8289916"><ele>149.0</ele><time>2026-04-19T07:23:56.879Z</time></trkpt><trkpt lat="44.8588186" lon="9.828929"><ele>149.0</ele><time>2026-04-19T07:23:58.9Z</time></trkpt><trkpt lat="44.8587477" lon="9.8288606"><ele>149.0</ele><time>2026-04-19T07:24:00.903Z</time></trkpt><trkpt lat="44.8586653" lon="9.8287813"><ele>149.0</ele><time>2026-04-19T07:24:02.906Z</time></trkpt><trkpt lat="44.8585893" lon="9.8287147"><ele>149.0</ele><time>2026-04-19T07:24:04.883Z</time></trkpt><trkpt lat="44.8585098" lon="9.8286412"><ele>149.4</ele><time>2026-04-19T07:24:06.909Z</time></trkpt><trkpt lat="44.8584384" lon="9.8285709"><ele>149.8</ele><time>2026-04-19T07:24:08.905Z</time></trkpt><trkpt lat="44.8583717" lon="9.8285038"><ele>150.2</ele><time>2026-04-19T07:24:10.905Z</time></trkpt><trkpt lat="44.8582956" lon="9.8284287"><ele>150.6</ele><time>2026-04-19T07:24:12.887Z</time></trkpt><trkpt lat="44.8582105" lon="9.8283606"><ele>151.0</ele><time>2026-04-19T07:24:14.887Z</time></trkpt><trkpt lat="44.8581234" lon="9.8282779"><ele>151.2</ele><time>2026-04-19T07:24:16.902Z</time></trkpt><trkpt lat="44.8580418" lon="9.828198"><ele>151.39999999999998</ele><time>2026-04-19T07:24:18.901Z</time></trkpt><trkpt lat="44.857962" lon="9.828118"><ele>151.6</ele><time>2026-04-19T07:24:20.904Z</time></trkpt><trkpt lat="44.8578856" lon="9.8280379"><ele>151.79999999999998</ele><time>2026-04-19T07:24:22.899Z</time></trkpt><trkpt lat="44.8578157" lon="9.8279396"><ele>152.0</ele><time>2026-04-19T07:24:24.9Z</time></trkpt><trkpt lat="44.8577517" lon="9.8278354"><ele>152.0</ele><time>2026-04-19T07:24:26.909Z</time></trkpt><trkpt lat="44.857705" lon="9.8277185"><ele>152.0</ele><time>2026-04-19T07:24:28.904Z</time></trkpt><trkpt lat="44.857667" lon="9.827587"><ele>152.0</ele><time>2026-04-19T07:24:30.904Z</time></trkpt><trkpt lat="44.8576325" lon="9.8274588"><ele>152.0</ele><time>2026-04-19T07:24:32.906Z</time></trkpt><trkpt lat="44.8575953" lon="9.8273355"><ele>152.0</ele><time>2026-04-19T07:24:34.91Z</time></trkpt><trkpt lat="44.8575413" lon="9.8272133"><ele>152.0</ele><time>2026-04-19T07:24:36.905Z</time></trkpt><trkpt lat="44.8574903" lon="9.8270971"><ele>152.0</ele><time>2026-04-19T07:24:38.908Z</time></trkpt><trkpt lat="44.8574386" lon="9.8269815"><ele>152.0</ele><time>2026-04-19T07:24:40.875Z</time></trkpt><trkpt lat="44.8573698" lon="9.8268807"><ele>152.0</ele><time>2026-04-19T07:24:42.901Z</time></trkpt><trkpt lat="44.8573093" lon="9.8267771"><ele>152.0</ele><time>2026-04-19T07:24:44.899Z</time></trkpt><trkpt lat="44.857244" lon="9.8266777"><ele>152.2</ele><time>2026-04-19T07:24:46.897Z</time></trkpt><trkpt lat="44.8571773" lon="9.8265803"><ele>152.39999999999998</ele><time>2026-04-19T07:24:48.911Z</time></trkpt><trkpt lat="44.8571078" lon="9.8264807"><ele>152.60000000000002</ele><time>2026-04-19T07:24:50.904Z</time></trkpt><trkpt lat="44.8570434" lon="9.8263818"><ele>152.8</ele><time>2026-04-19T07:24:52.905Z</time></trkpt><trkpt lat="44.8569686" lon="9.8262803"><ele>153.0</ele><time>2026-04-19T07:24:54.902Z</time></trkpt><trkpt lat="44.8568933" lon="9.8261919"><ele>153.0</ele><time>2026-04-19T07:24:56.909Z</time></trkpt><trkpt lat="44.8568223" lon="9.8260897"><ele>153.0</ele><time>2026-04-19T07:24:58.904Z</time></trkpt><trkpt lat="44.856756" lon="9.8259991"><ele>153.0</ele><time>2026-04-19T07:25:00.904Z</time></trkpt><trkpt lat="44.8566971" lon="9.8258992"><ele>153.0</ele><time>2026-04-19T07:25:02.896Z</time></trkpt><trkpt lat="44.8566273" lon="9.8258124"><ele>153.0</ele><time>2026-04-19T07:25:04.91Z</time></trkpt><trkpt lat="44.8565656" lon="9.8257199"><ele>153.5</ele><time>2026-04-19T07:25:06.916Z</time></trkpt><trkpt lat="44.856509" lon="9.8256328"><ele>154.0</ele><time>2026-04-19T07:25:08.911Z</time></trkpt><trkpt lat="44.8564516" lon="9.8255434"><ele>154.5</ele><time>2026-04-19T07:25:10.912Z</time></trkpt><trkpt lat="44.8563853" lon="9.8254482"><ele>155.0</ele><time>2026-04-19T07:25:12.9Z</time></trkpt><trkpt lat="44.8563242" lon="9.8253701"><ele>155.5</ele><time>2026-04-19T07:25:14.899Z</time></trkpt><trkpt lat="44.8562531" lon="9.8252853"><ele>156.0</ele><time>2026-04-19T07:25:16.906Z</time></trkpt><trkpt lat="44.8561646" lon="9.8252185"><ele>156.0</ele><time>2026-04-19T07:25:18.915Z</time></trkpt><trkpt lat="44.8560567" lon="9.8252071"><ele>156.0</ele><time>2026-04-19T07:25:20.912Z</time></trkpt><trkpt lat="44.8559743" lon="9.8252492"><ele>156.0</ele><time>2026-04-19T07:25:22.903Z</time></trkpt><trkpt lat="44.855897" lon="9.8253317"><ele>156.0</ele><time>2026-04-19T07:25:24.91Z</time></trkpt><trkpt lat="44.8558153" lon="9.8254193"><ele>156.0</ele><time>2026-04-19T07:25:26.89Z</time></trkpt><trkpt lat="44.85573" lon="9.8255008"><ele>156.2</ele><time>2026-04-19T07:25:28.905Z</time></trkpt><trkpt lat="44.8556439" lon="9.8255873"><ele>156.39999999999998</ele><time>2026-04-19T07:25:30.892Z</time></trkpt><trkpt lat="44.8555579" lon="9.8256723"><ele>156.6</ele><time>2026-04-19T07:25:32.917Z</time></trkpt><trkpt lat="44.8554665" lon="9.825766"><ele>156.79999999999998</ele><time>2026-04-19T07:25:34.908Z</time></trkpt><trkpt lat="44.8553786" lon="9.8258552"><ele>157.0</ele><time>2026-04-19T07:25:36.919Z</time></trkpt><trkpt lat="44.8553019" lon="9.825951"><ele>156.79999999999998</ele><time>2026-04-19T07:25:38.902Z</time></trkpt><trkpt lat="44.8552338" lon="9.8260437"><ele>156.6</ele><time>2026-04-19T07:25:40.9Z</time></trkpt><trkpt lat="44.8551679" lon="9.8261312"><ele>156.39999999999998</ele><time>2026-04-19T07:25:42.902Z</time></trkpt><trkpt lat="44.8550971" lon="9.8262172"><ele>156.2</ele><time>2026-04-19T07:25:44.905Z</time></trkpt><trkpt lat="44.8550251" lon="9.826311"><ele>156.0</ele><time>2026-04-19T07:25:46.903Z</time></trkpt><trkpt lat="44.8549391" lon="9.8264322"><ele>155.8</ele><time>2026-04-19T07:25:48.936Z</time></trkpt><trkpt lat="44.8548475" lon="9.8265402"><ele>155.6</ele><time>2026-04-19T07:25:50.894Z</time></trkpt><trkpt lat="44.8547699" lon="9.8266497"><ele>155.4</ele><time>2026-04-19T07:25:52.911Z</time></trkpt><trkpt lat="44.8546946" lon="9.8267367"><ele>155.2</ele><time>2026-04-19T07:25:54.899Z</time></trkpt><trkpt lat="44.8546202" lon="9.8268284"><ele>155.0</ele><time>2026-04-19T07:25:56.916Z</time></trkpt><trkpt lat="44.8545543" lon="9.8269035"><ele>154.83333333333331</ele><time>2026-04-19T07:25:58.895Z</time></trkpt><trkpt lat="44.8544866" lon="9.8269849"><ele>154.66666666666666</ele><time>2026-04-19T07:26:00.908Z</time></trkpt><trkpt lat="44.8544288" lon="9.8270474"><ele>154.5</ele><time>2026-04-19T07:26:02.905Z</time></trkpt><trkpt lat="44.8543639" lon="9.8271198"><ele>154.33333333333334</ele><time>2026-04-19T07:26:04.898Z</time></trkpt><trkpt lat="44.8543061" lon="9.8271739"><ele>154.16666666666669</ele><time>2026-04-19T07:26:06.901Z</time></trkpt><trkpt lat="44.8542489" lon="9.8272463"><ele>154.0</ele><time>2026-04-19T07:26:08.907Z</time></trkpt><trkpt lat="44.8541955" lon="9.8273079"><ele>154.85714285714286</ele><time>2026-04-19T07:26:10.9Z</time></trkpt><trkpt lat="44.8541446" lon="9.8273686"><ele>155.71428571428572</ele><time>2026-04-19T07:26:12.882Z</time></trkpt><trkpt lat="44.8540916" lon="9.8274319"><ele>156.57142857142856</ele><time>2026-04-19T07:26:14.899Z</time></trkpt><trkpt lat="44.8540375" lon="9.8274862"><ele>157.42857142857144</ele><time>2026-04-19T07:26:16.906Z</time></trkpt><trkpt lat="44.8539855" lon="9.8275516"><ele>158.28571428571428</ele><time>2026-04-19T07:26:18.893Z</time></trkpt><trkpt lat="44.8539348" lon="9.8276118"><ele>159.14285714285714</ele><time>2026-04-19T07:26:20.903Z</time></trkpt><trkpt lat="44.85388" lon="9.8276669"><ele>160.0</ele><time>2026-04-19T07:26:22.897Z</time></trkpt><trkpt lat="44.8538179" lon="9.8277202"><ele>160.66666666666669</ele><time>2026-04-19T07:26:24.896Z</time></trkpt><trkpt lat="44.8537514" lon="9.8277598"><ele>161.33333333333334</ele><time>2026-04-19T07:26:26.894Z</time></trkpt><trkpt lat="44.8536827" lon="9.8277872"><ele>162.0</ele><time>2026-04-19T07:26:28.899Z</time></trkpt><trkpt lat="44.8536052" lon="9.8277857"><ele>162.66666666666666</ele><time>2026-04-19T07:26:30.9Z</time></trkpt><trkpt lat="44.8535412" lon="9.8277765"><ele>163.33333333333331</ele><time>2026-04-19T07:26:32.906Z</time></trkpt><trkpt lat="44.8534562" lon="9.8277558"><ele>164.0</ele><time>2026-04-19T07:26:34.884Z</time></trkpt><trkpt lat="44.8533659" lon="9.8277484"><ele>164.39999999999998</ele><time>2026-04-19T07:26:36.895Z</time></trkpt><trkpt lat="44.8532732" lon="9.8277584"><ele>164.8</ele><time>2026-04-19T07:26:38.907Z</time></trkpt><trkpt lat="44.8531863" lon="9.8277668"><ele>165.2</ele><time>2026-04-19T07:26:40.905Z</time></trkpt><trkpt lat="44.8530978" lon="9.8277711"><ele>165.60000000000002</ele><time>2026-04-19T07:26:42.899Z</time></trkpt><trkpt lat="44.8530029" lon="9.8277707"><ele>166.0</ele><time>2026-04-19T07:26:44.898Z</time></trkpt><trkpt lat="44.8529055" lon="9.8277676"><ele>166.0</ele><time>2026-04-19T07:26:46.896Z</time></trkpt><trkpt lat="44.8528086" lon="9.8277364"><ele>166.0</ele><time>2026-04-19T07:26:48.904Z</time></trkpt><trkpt lat="44.8527106" lon="9.8276894"><ele>166.0</ele><time>2026-04-19T07:26:50.906Z</time></trkpt><trkpt lat="44.85262" lon="9.8276166"><ele>166.0</ele><time>2026-04-19T07:26:52.912Z</time></trkpt><trkpt lat="44.8525262" lon="9.827538"><ele>166.0</ele><time>2026-04-19T07:26:54.914Z</time></trkpt><trkpt lat="44.8524254" lon="9.8274511"><ele>165.60000000000002</ele><time>2026-04-19T07:26:56.912Z</time></trkpt><trkpt lat="44.8523406" lon="9.8273705"><ele>165.2</ele><time>2026-04-19T07:26:58.906Z</time></trkpt><trkpt lat="44.8522585" lon="9.8272776"><ele>164.8</ele><time>2026-04-19T07:27:00.914Z</time></trkpt><trkpt lat="44.8521801" lon="9.8271793"><ele>164.39999999999998</ele><time>2026-04-19T07:27:02.91Z</time></trkpt><trkpt lat="44.8521041" lon="9.8270861"><ele>164.0</ele><time>2026-04-19T07:27:04.902Z</time></trkpt><trkpt lat="44.8520312" lon="9.8269992"><ele>164.0</ele><time>2026-04-19T07:27:06.916Z</time></trkpt><trkpt lat="44.8519571" lon="9.8269074"><ele>164.0</ele><time>2026-04-19T07:27:08.908Z</time></trkpt><trkpt lat="44.8518924" lon="9.8268278"><ele>164.0</ele><time>2026-04-19T07:27:10.91Z</time></trkpt><trkpt lat="44.8518197" lon="9.8267508"><ele>164.0</ele><time>2026-04-19T07:27:12.904Z</time></trkpt><trkpt lat="44.8517366" lon="9.8266763"><ele>164.0</ele><time>2026-04-19T07:27:14.907Z</time></trkpt><trkpt lat="44.8516505" lon="9.826624"><ele>163.39999999999998</ele><time>2026-04-19T07:27:16.914Z</time></trkpt><trkpt lat="44.8515554" lon="9.8266018"><ele>162.8</ele><time>2026-04-19T07:27:18.876Z</time></trkpt><trkpt lat="44.8514589" lon="9.8265999"><ele>162.2</ele><time>2026-04-19T07:27:20.897Z</time></trkpt><trkpt lat="44.8513635" lon="9.8266136"><ele>161.60000000000002</ele><time>2026-04-19T07:27:22.897Z</time></trkpt><trkpt lat="44.851269" lon="9.8266195"><ele>161.0</ele><time>2026-04-19T07:27:24.908Z</time></trkpt><trkpt lat="44.8511697" lon="9.8266135"><ele>161.0</ele><time>2026-04-19T07:27:26.877Z</time></trkpt><trkpt lat="44.851067" lon="9.8266159"><ele>161.0</ele><time>2026-04-19T07:27:28.891Z</time></trkpt><trkpt lat="44.8509747" lon="9.826588"><ele>161.0</ele><time>2026-04-19T07:27:30.909Z</time></trkpt><trkpt lat="44.8508762" lon="9.8265377"><ele>161.0</ele><time>2026-04-19T07:27:32.903Z</time></trkpt><trkpt lat="44.8507857" lon="9.8264805"><ele>161.0</ele><time>2026-04-19T07:27:34.9Z</time></trkpt><trkpt lat="44.8507108" lon="9.8264073"><ele>162.0</ele><time>2026-04-19T07:27:36.908Z</time></trkpt><trkpt lat="44.8506363" lon="9.8263237"><ele>163.0</ele><time>2026-04-19T07:27:38.896Z</time></trkpt><trkpt lat="44.8505659" lon="9.8262509"><ele>164.0</ele><time>2026-04-19T07:27:40.909Z</time></trkpt><trkpt lat="44.8504919" lon="9.8261712"><ele>165.0</ele><time>2026-04-19T07:27:42.899Z</time></trkpt><trkpt lat="44.8504233" lon="9.8261167"><ele>166.0</ele><time>2026-04-19T07:27:44.901Z</time></trkpt><trkpt lat="44.8503373" lon="9.8260776"><ele>167.0</ele><time>2026-04-19T07:27:46.919Z</time></trkpt><trkpt lat="44.8502501" lon="9.8260571"><ele>167.0</ele><time>2026-04-19T07:27:48.897Z</time></trkpt><trkpt lat="44.8501481" lon="9.8260724"><ele>167.0</ele><time>2026-04-19T07:27:50.896Z</time></trkpt><trkpt lat="44.850063" lon="9.8260846"><ele>167.0</ele><time>2026-04-19T07:27:52.907Z</time></trkpt><trkpt lat="44.849976" lon="9.8260848"><ele>167.0</ele><time>2026-04-19T07:27:54.909Z</time></trkpt><trkpt lat="44.849889" lon="9.8260828"><ele>167.0</ele><time>2026-04-19T07:27:56.918Z</time></trkpt><trkpt lat="44.8498033" lon="9.8260791"><ele>167.0</ele><time>2026-04-19T07:27:58.915Z</time></trkpt><trkpt lat="44.8497209" lon="9.826059"><ele>167.0</ele><time>2026-04-19T07:28:00.899Z</time></trkpt><trkpt lat="44.8496527" lon="9.8260251"><ele>167.0</ele><time>2026-04-19T07:28:02.91Z</time></trkpt><trkpt lat="44.84959" lon="9.8259786"><ele>167.0</ele><time>2026-04-19T07:28:04.921Z</time></trkpt><trkpt lat="44.849526" lon="9.8259331"><ele>167.0</ele><time>2026-04-19T07:28:06.898Z</time></trkpt><trkpt lat="44.8494671" lon="9.8258904"><ele>167.0</ele><time>2026-04-19T07:28:08.896Z</time></trkpt><trkpt lat="44.8494078" lon="9.8258484"><ele>167.0</ele><time>2026-04-19T07:28:10.901Z</time></trkpt><trkpt lat="44.84935" lon="9.8258056"><ele>167.0</ele><time>2026-04-19T07:28:12.899Z</time></trkpt><trkpt lat="44.8492678" lon="9.8257472"><ele>168.5</ele><time>2026-04-19T07:28:15.907Z</time></trkpt><trkpt lat="44.8491946" lon="9.8256684"><ele>170.0</ele><time>2026-04-19T07:28:18.904Z</time></trkpt><trkpt lat="44.8491417" lon="9.8256122"><ele>171.5</ele><time>2026-04-19T07:28:20.909Z</time></trkpt><trkpt lat="44.8490699" lon="9.8255282"><ele>173.0</ele><time>2026-04-19T07:28:23.899Z</time></trkpt><trkpt lat="44.8489977" lon="9.82544"><ele>174.5</ele><time>2026-04-19T07:28:26.898Z</time></trkpt><trkpt lat="44.8489523" lon="9.825365"><ele>176.0</ele><time>2026-04-19T07:28:28.909Z</time></trkpt><trkpt lat="44.8489101" lon="9.8252941"><ele>176.0</ele><time>2026-04-19T07:28:30.904Z</time></trkpt><trkpt lat="44.8488634" lon="9.8252107"><ele>176.0</ele><time>2026-04-19T07:28:32.905Z</time></trkpt><trkpt lat="44.8488204" lon="9.825136"><ele>176.0</ele><time>2026-04-19T07:28:34.896Z</time></trkpt><trkpt lat="44.8487743" lon="9.8250672"><ele>176.0</ele><time>2026-04-19T07:28:36.901Z</time></trkpt><trkpt lat="44.8487331" lon="9.8249833"><ele>176.0</ele><time>2026-04-19T07:28:38.868Z</time></trkpt><trkpt lat="44.8486862" lon="9.8249126"><ele>176.0</ele><time>2026-04-19T07:28:40.896Z</time></trkpt><trkpt lat="44.8486304" lon="9.8248314"><ele>176.0</ele><time>2026-04-19T07:28:42.906Z</time></trkpt><trkpt lat="44.8485772" lon="9.8247594"><ele>175.60000000000002</ele><time>2026-04-19T07:28:44.9Z</time></trkpt><trkpt lat="44.8485287" lon="9.8246848"><ele>175.2</ele><time>2026-04-19T07:28:46.906Z</time></trkpt><trkpt lat="44.8484643" lon="9.8246014"><ele>174.8</ele><time>2026-04-19T07:28:48.89Z</time></trkpt><trkpt lat="44.8483996" lon="9.8245069"><ele>174.39999999999998</ele><time>2026-04-19T07:28:50.9Z</time></trkpt><trkpt lat="44.8483271" lon="9.8244036"><ele>174.0</ele><time>2026-04-19T07:28:52.911Z</time></trkpt><trkpt lat="44.8482592" lon="9.8243052"><ele>172.79999999999998</ele><time>2026-04-19T07:28:54.902Z</time></trkpt><trkpt lat="44.8481791" lon="9.8242011"><ele>171.6</ele><time>2026-04-19T07:28:56.912Z</time></trkpt><trkpt lat="44.8481045" lon="9.8240914"><ele>170.4</ele><time>2026-04-19T07:28:58.912Z</time></trkpt><trkpt lat="44.848026" lon="9.8239879"><ele>169.2</ele><time>2026-04-19T07:29:00.902Z</time></trkpt><trkpt lat="44.8479479" lon="9.8238883"><ele>168.0</ele><time>2026-04-19T07:29:02.898Z</time></trkpt><trkpt lat="44.847851" lon="9.8238107"><ele>168.0</ele><time>2026-04-19T07:29:04.911Z</time></trkpt><trkpt lat="44.8477562" lon="9.8237562"><ele>168.0</ele><time>2026-04-19T07:29:06.899Z</time></trkpt><trkpt lat="44.8476566" lon="9.8237408"><ele>168.0</ele><time>2026-04-19T07:29:08.901Z</time></trkpt><trkpt lat="44.8475649" lon="9.8237289"><ele>168.0</ele><time>2026-04-19T07:29:10.907Z</time></trkpt><trkpt lat="44.8474706" lon="9.8237276"><ele>168.0</ele><time>2026-04-19T07:29:12.906Z</time></trkpt><trkpt lat="44.8473942" lon="9.8237143"><ele>168.83333333333334</ele><time>2026-04-19T07:29:14.898Z</time></trkpt><trkpt lat="44.8473113" lon="9.8237009"><ele>169.66666666666666</ele><time>2026-04-19T07:29:16.902Z</time></trkpt><trkpt lat="44.8472372" lon="9.8237033"><ele>170.5</ele><time>2026-04-19T07:29:18.898Z</time></trkpt><trkpt lat="44.8471681" lon="9.8237043"><ele>171.33333333333331</ele><time>2026-04-19T07:29:20.89Z</time></trkpt><trkpt lat="44.8471" lon="9.8237085"><ele>172.16666666666666</ele><time>2026-04-19T07:29:22.908Z</time></trkpt><trkpt lat="44.847004" lon="9.8236993"><ele>173.0</ele><time>2026-04-19T07:29:25.905Z</time></trkpt><trkpt lat="44.8469379" lon="9.8236944"><ele>173.0</ele><time>2026-04-19T07:29:27.899Z</time></trkpt><trkpt lat="44.8468488" lon="9.8236833"><ele>173.0</ele><time>2026-04-19T07:29:30.918Z</time></trkpt><trkpt lat="44.8467598" lon="9.8236665"><ele>173.0</ele><time>2026-04-19T07:29:33.905Z</time></trkpt><trkpt lat="44.8466991" lon="9.8236391"><ele>173.0</ele><time>2026-04-19T07:29:35.9Z</time></trkpt><trkpt lat="44.8466369" lon="9.8236203"><ele>173.0</ele><time>2026-04-19T07:29:37.865Z</time></trkpt><trkpt lat="44.8465497" lon="9.8235725"><ele>173.0</ele><time>2026-04-19T07:29:40.882Z</time></trkpt><trkpt lat="44.846493" lon="9.8235335"><ele>173.57142857142856</ele><time>2026-04-19T07:29:42.905Z</time></trkpt><trkpt lat="44.8464362" lon="9.8234922"><ele>174.14285714285717</ele><time>2026-04-19T07:29:44.896Z</time></trkpt><trkpt lat="44.8463517" lon="9.8234308"><ele>174.71428571428572</ele><time>2026-04-19T07:29:47.91Z</time></trkpt><trkpt lat="44.8462927" lon="9.8233837"><ele>175.28571428571428</ele><time>2026-04-19T07:29:49.898Z</time></trkpt><trkpt lat="44.8462328" lon="9.8233383"><ele>175.85714285714283</ele><time>2026-04-19T07:29:51.901Z</time></trkpt><trkpt lat="44.8461755" lon="9.8232875"><ele>176.42857142857144</ele><time>2026-04-19T07:29:53.898Z</time></trkpt><trkpt lat="44.8461145" lon="9.823234"><ele>177.0</ele><time>2026-04-19T07:29:55.897Z</time></trkpt><trkpt lat="44.8460555" lon="9.8231801"><ele>177.0</ele><time>2026-04-19T07:29:57.901Z</time></trkpt><trkpt lat="44.8459987" lon="9.8231236"><ele>177.0</ele><time>2026-04-19T07:29:59.898Z</time></trkpt><trkpt lat="44.8459361" lon="9.823056"><ele>177.0</ele><time>2026-04-19T07:30:01.903Z</time></trkpt><trkpt lat="44.8458753" lon="9.8230025"><ele>177.0</ele><time>2026-04-19T07:30:03.902Z</time></trkpt><trkpt lat="44.8458053" lon="9.8229348"><ele>177.0</ele><time>2026-04-19T07:30:05.904Z</time></trkpt><trkpt lat="44.845748" lon="9.822862"><ele>177.0</ele><time>2026-04-19T07:30:07.912Z</time></trkpt><trkpt lat="44.8456921" lon="9.8227974"><ele>177.33333333333334</ele><time>2026-04-19T07:30:09.894Z</time></trkpt><trkpt lat="44.8456362" lon="9.822715"><ele>177.66666666666666</ele><time>2026-04-19T07:30:11.905Z</time></trkpt><trkpt lat="44.8455802" lon="9.822635"><ele>178.0</ele><time>2026-04-19T07:30:13.906Z</time></trkpt><trkpt lat="44.8455372" lon="9.822552"><ele>178.33333333333331</ele><time>2026-04-19T07:30:15.904Z</time></trkpt><trkpt lat="44.845503" lon="9.8224599"><ele>178.66666666666666</ele><time>2026-04-19T07:30:17.9Z</time></trkpt><trkpt lat="44.8454515" lon="9.8223803"><ele>179.0</ele><time>2026-04-19T07:30:19.887Z</time></trkpt><trkpt lat="44.8454134" lon="9.8222912"><ele>179.00000000000003</ele><time>2026-04-19T07:30:21.892Z</time></trkpt><trkpt lat="44.8453704" lon="9.8222067"><ele>179.0</ele><time>2026-04-19T07:30:23.903Z</time></trkpt><trkpt lat="44.8453396" lon="9.8221241"><ele>179.0</ele><time>2026-04-19T07:30:25.903Z</time></trkpt><trkpt lat="44.8452995" lon="9.8220329"><ele>179.0</ele><time>2026-04-19T07:30:27.885Z</time></trkpt><trkpt lat="44.8452559" lon="9.8219382"><ele>179.0</ele><time>2026-04-19T07:30:29.891Z</time></trkpt><trkpt lat="44.8452152" lon="9.821853"><ele>179.00000000000003</ele><time>2026-04-19T07:30:31.882Z</time></trkpt><trkpt lat="44.8451756" lon="9.8217632"><ele>179.0</ele><time>2026-04-19T07:30:33.894Z</time></trkpt><trkpt lat="44.845138" lon="9.8216643"><ele>180.79999999999998</ele><time>2026-04-19T07:30:35.906Z</time></trkpt><trkpt lat="44.8450958" lon="9.8215688"><ele>182.6</ele><time>2026-04-19T07:30:37.912Z</time></trkpt><trkpt lat="44.8450551" lon="9.8214652"><ele>184.4</ele><time>2026-04-19T07:30:39.9Z</time></trkpt><trkpt lat="44.8450013" lon="9.8213494"><ele>186.2</ele><time>2026-04-19T07:30:41.902Z</time></trkpt><trkpt lat="44.8449413" lon="9.8212361"><ele>188.0</ele><time>2026-04-19T07:30:43.911Z</time></trkpt><trkpt lat="44.8448857" lon="9.8211175"><ele>188.0</ele><time>2026-04-19T07:30:45.898Z</time></trkpt><trkpt lat="44.844814" lon="9.8209991"><ele>188.0</ele><time>2026-04-19T07:30:47.905Z</time></trkpt><trkpt lat="44.8447425" lon="9.8208721"><ele>188.0</ele><time>2026-04-19T07:30:49.885Z</time></trkpt><trkpt lat="44.8446607" lon="9.8207501"><ele>188.0</ele><time>2026-04-19T07:30:51.902Z</time></trkpt><trkpt lat="44.844589" lon="9.8206214"><ele>187.5</ele><time>2026-04-19T07:30:53.909Z</time></trkpt><trkpt lat="44.8445227" lon="9.8205219"><ele>187.0</ele><time>2026-04-19T07:30:55.914Z</time></trkpt><trkpt lat="44.8444636" lon="9.8204195"><ele>186.5</ele><time>2026-04-19T07:30:57.903Z</time></trkpt><trkpt lat="44.8444139" lon="9.8203352"><ele>186.0</ele><time>2026-04-19T07:30:59.899Z</time></trkpt><trkpt lat="44.8443675" lon="9.8202278"><ele>185.5</ele><time>2026-04-19T07:31:01.909Z</time></trkpt><trkpt lat="44.8443254" lon="9.8201217"><ele>185.0</ele><time>2026-04-19T07:31:03.895Z</time></trkpt><trkpt lat="44.844282" lon="9.81998"><ele>185.0</ele><time>2026-04-19T07:31:05.906Z</time></trkpt><trkpt lat="44.8442251" lon="9.819841"><ele>185.0</ele><time>2026-04-19T07:31:07.914Z</time></trkpt><trkpt lat="44.8441823" lon="9.8197751"><ele>185.0</ele><time>2026-04-19T07:31:08.905Z</time></trkpt><trkpt lat="44.8440931" lon="9.8196602"><ele>185.0</ele><time>2026-04-19T07:31:10.89Z</time></trkpt><trkpt lat="44.8439938" lon="9.8195488"><ele>185.0</ele><time>2026-04-19T07:31:12.895Z</time></trkpt><trkpt lat="44.843948" lon="9.8194852"><ele>185.0</ele><time>2026-04-19T07:31:13.899Z</time></trkpt><trkpt lat="44.8438803" lon="9.8193847"><ele>185.0</ele><time>2026-04-19T07:31:15.903Z</time></trkpt><trkpt lat="44.8438034" lon="9.8192898"><ele>185.0</ele><time>2026-04-19T07:31:17.896Z</time></trkpt><trkpt lat="44.8437215" lon="9.8191909"><ele>185.0</ele><time>2026-04-19T07:31:19.901Z</time></trkpt><trkpt lat="44.8436503" lon="9.8191151"><ele>185.0</ele><time>2026-04-19T07:31:21.901Z</time></trkpt><trkpt lat="44.8435705" lon="9.81903"><ele>185.2</ele><time>2026-04-19T07:31:23.901Z</time></trkpt><trkpt lat="44.8434995" lon="9.8189443"><ele>185.4</ele><time>2026-04-19T07:31:25.898Z</time></trkpt><trkpt lat="44.8434188" lon="9.8188709"><ele>185.60000000000002</ele><time>2026-04-19T07:31:27.897Z</time></trkpt><trkpt lat="44.8433396" lon="9.8188098"><ele>185.8</ele><time>2026-04-19T07:31:29.878Z</time></trkpt><trkpt lat="44.8432554" lon="9.8187499"><ele>186.0</ele><time>2026-04-19T07:31:31.902Z</time></trkpt><trkpt lat="44.8431692" lon="9.8186862"><ele>186.0</ele><time>2026-04-19T07:31:33.9Z</time></trkpt><trkpt lat="44.8430779" lon="9.8186386"><ele>186.0</ele><time>2026-04-19T07:31:35.909Z</time></trkpt><trkpt lat="44.8429804" lon="9.8185752"><ele>186.0</ele><time>2026-04-19T07:31:37.905Z</time></trkpt><trkpt lat="44.842884" lon="9.8184877"><ele>186.0</ele><time>2026-04-19T07:31:39.895Z</time></trkpt><trkpt lat="44.8427835" lon="9.8183835"><ele>186.0</ele><time>2026-04-19T07:31:41.898Z</time></trkpt><trkpt lat="44.8427345" lon="9.8183218"><ele>185.4</ele><time>2026-04-19T07:31:42.903Z</time></trkpt><trkpt lat="44.8426849" lon="9.8182575"><ele>184.8</ele><time>2026-04-19T07:31:43.892Z</time></trkpt><trkpt lat="44.8426373" lon="9.8181831"><ele>184.20000000000002</ele><time>2026-04-19T07:31:44.903Z</time></trkpt><trkpt lat="44.8425524" lon="9.8180577"><ele>183.60000000000002</ele><time>2026-04-19T07:31:46.909Z</time></trkpt><trkpt lat="44.842485" lon="9.8179227"><ele>183.0</ele><time>2026-04-19T07:31:48.901Z</time></trkpt><trkpt lat="44.8424195" lon="9.8177897"><ele>183.0</ele><time>2026-04-19T07:31:50.903Z</time></trkpt><trkpt lat="44.8423509" lon="9.817669"><ele>183.0</ele><time>2026-04-19T07:31:52.915Z</time></trkpt><trkpt lat="44.8422862" lon="9.8175441"><ele>183.0</ele><time>2026-04-19T07:31:54.904Z</time></trkpt><trkpt lat="44.8422319" lon="9.8174231"><ele>183.0</ele><time>2026-04-19T07:31:56.904Z</time></trkpt><trkpt lat="44.8421815" lon="9.8173021"><ele>183.0</ele><time>2026-04-19T07:31:58.902Z</time></trkpt><trkpt lat="44.8421362" lon="9.8171809"><ele>182.0</ele><time>2026-04-19T07:32:00.91Z</time></trkpt><trkpt lat="44.8420919" lon="9.8170494"><ele>181.0</ele><time>2026-04-19T07:32:02.906Z</time></trkpt><trkpt lat="44.8420492" lon="9.8169261"><ele>180.0</ele><time>2026-04-19T07:32:04.897Z</time></trkpt><trkpt lat="44.8420182" lon="9.8167987"><ele>179.0</ele><time>2026-04-19T07:32:06.909Z</time></trkpt><trkpt lat="44.8419728" lon="9.816685"><ele>178.0</ele><time>2026-04-19T07:32:08.913Z</time></trkpt><trkpt lat="44.8419293" lon="9.8165625"><ele>177.83333333333334</ele><time>2026-04-19T07:32:10.912Z</time></trkpt><trkpt lat="44.8418715" lon="9.8164559"><ele>177.66666666666669</ele><time>2026-04-19T07:32:12.903Z</time></trkpt><trkpt lat="44.8418054" lon="9.8163569"><ele>177.5</ele><time>2026-04-19T07:32:14.9Z</time></trkpt><trkpt lat="44.8417496" lon="9.8162817"><ele>177.33333333333334</ele><time>2026-04-19T07:32:16.901Z</time></trkpt><trkpt lat="44.8416847" lon="9.8161831"><ele>177.16666666666666</ele><time>2026-04-19T07:32:18.897Z</time></trkpt><trkpt lat="44.8416292" lon="9.8160993"><ele>177.0</ele><time>2026-04-19T07:32:20.902Z</time></trkpt><trkpt lat="44.8415719" lon="9.8160026"><ele>177.66666666666666</ele><time>2026-04-19T07:32:22.909Z</time></trkpt><trkpt lat="44.8415172" lon="9.8159073"><ele>178.33333333333334</ele><time>2026-04-19T07:32:24.898Z</time></trkpt><trkpt lat="44.8414762" lon="9.8158127"><ele>179.0</ele><time>2026-04-19T07:32:26.902Z</time></trkpt><trkpt lat="44.841434" lon="9.8157125"><ele>179.66666666666669</ele><time>2026-04-19T07:32:28.906Z</time></trkpt><trkpt lat="44.8414043" lon="9.8156071"><ele>180.33333333333334</ele><time>2026-04-19T07:32:30.89Z</time></trkpt><trkpt lat="44.8413703" lon="9.815498"><ele>181.0</ele><time>2026-04-19T07:32:32.904Z</time></trkpt><trkpt lat="44.8413429" lon="9.8153865"><ele>181.0</ele><time>2026-04-19T07:32:34.898Z</time></trkpt><trkpt lat="44.8413092" lon="9.8152665"><ele>181.0</ele><time>2026-04-19T07:32:36.898Z</time></trkpt><trkpt lat="44.841264" lon="9.8151353"><ele>181.0</ele><time>2026-04-19T07:32:38.882Z</time></trkpt><trkpt lat="44.8412189" lon="9.8150127"><ele>181.0</ele><time>2026-04-19T07:32:40.898Z</time></trkpt><trkpt lat="44.8411593" lon="9.8149002"><ele>181.0</ele><time>2026-04-19T07:32:42.899Z</time></trkpt><trkpt lat="44.8410872" lon="9.8148143"><ele>180.4</ele><time>2026-04-19T07:32:44.905Z</time></trkpt><trkpt lat="44.8409992" lon="9.8147455"><ele>179.8</ele><time>2026-04-19T07:32:46.897Z</time></trkpt><trkpt lat="44.8409095" lon="9.8147073"><ele>179.20000000000002</ele><time>2026-04-19T07:32:48.907Z</time></trkpt><trkpt lat="44.8408211" lon="9.8146619"><ele>178.60000000000002</ele><time>2026-04-19T07:32:50.911Z</time></trkpt><trkpt lat="44.840731" lon="9.8146345"><ele>178.0</ele><time>2026-04-19T07:32:52.904Z</time></trkpt><trkpt lat="44.8406464" lon="9.8145924"><ele>178.85714285714283</ele><time>2026-04-19T07:32:54.897Z</time></trkpt><trkpt lat="44.8405715" lon="9.8145591"><ele>179.71428571428572</ele><time>2026-04-19T07:32:56.9Z</time></trkpt><trkpt lat="44.840505" lon="9.8145278"><ele>180.57142857142856</ele><time>2026-04-19T07:32:58.901Z</time></trkpt><trkpt lat="44.8404366" lon="9.8144824"><ele>181.42857142857142</ele><time>2026-04-19T07:33:00.894Z</time></trkpt><trkpt lat="44.8403718" lon="9.8144251"><ele>182.28571428571428</ele><time>2026-04-19T07:33:02.896Z</time></trkpt><trkpt lat="44.8403138" lon="9.8143631"><ele>183.14285714285714</ele><time>2026-04-19T07:33:04.904Z</time></trkpt><trkpt lat="44.8402677" lon="9.814289"><ele>184.0</ele><time>2026-04-19T07:33:06.893Z</time></trkpt><trkpt lat="44.8402211" lon="9.8142177"><ele>184.0</ele><time>2026-04-19T07:33:08.911Z</time></trkpt><trkpt lat="44.8401796" lon="9.8141324"><ele>184.0</ele><time>2026-04-19T07:33:10.9Z</time></trkpt><trkpt lat="44.8401491" lon="9.8140514"><ele>184.0</ele><time>2026-04-19T07:33:12.902Z</time></trkpt><trkpt lat="44.8401209" lon="9.81396"><ele>184.0</ele><time>2026-04-19T07:33:14.887Z</time></trkpt><trkpt lat="44.8401021" lon="9.8138672"><ele>184.0</ele><time>2026-04-19T07:33:16.894Z</time></trkpt><trkpt lat="44.8400821" lon="9.8137765"><ele>184.0</ele><time>2026-04-19T07:33:18.908Z</time></trkpt><trkpt lat="44.8400588" lon="9.813681"><ele>184.0</ele><time>2026-04-19T07:33:20.901Z</time></trkpt><trkpt lat="44.8400331" lon="9.8135953"><ele>184.83333333333334</ele><time>2026-04-19T07:33:22.876Z</time></trkpt><trkpt lat="44.840009" lon="9.8135062"><ele>185.66666666666669</ele><time>2026-04-19T07:33:24.911Z</time></trkpt><trkpt lat="44.8399763" lon="9.8134212"><ele>186.5</ele><time>2026-04-19T07:33:26.906Z</time></trkpt><trkpt lat="44.8399212" lon="9.8133351"><ele>187.33333333333334</ele><time>2026-04-19T07:33:28.914Z</time></trkpt><trkpt lat="44.8398655" lon="9.8132581"><ele>188.16666666666666</ele><time>2026-04-19T07:33:30.906Z</time></trkpt><trkpt lat="44.8397976" lon="9.8131987"><ele>189.0</ele><time>2026-04-19T07:33:32.907Z</time></trkpt><trkpt lat="44.8397295" lon="9.8131512"><ele>189.0</ele><time>2026-04-19T07:33:34.903Z</time></trkpt><trkpt lat="44.8396658" lon="9.8131066"><ele>189.0</ele><time>2026-04-19T07:33:36.902Z</time></trkpt><trkpt lat="44.8395955" lon="9.8130731"><ele>189.0</ele><time>2026-04-19T07:33:38.904Z</time></trkpt><trkpt lat="44.8395247" lon="9.813042"><ele>189.0</ele><time>2026-04-19T07:33:40.908Z</time></trkpt><trkpt lat="44.8394592" lon="9.8130147"><ele>189.0</ele><time>2026-04-19T07:33:42.906Z</time></trkpt><trkpt lat="44.8393942" lon="9.8129847"><ele>189.0</ele><time>2026-04-19T07:33:44.909Z</time></trkpt><trkpt lat="44.8393222" lon="9.8129391"><ele>189.0</ele><time>2026-04-19T07:33:46.904Z</time></trkpt><trkpt lat="44.8392529" lon="9.8129014"><ele>189.85714285714286</ele><time>2026-04-19T07:33:48.904Z</time></trkpt><trkpt lat="44.8391827" lon="9.812865"><ele>190.71428571428572</ele><time>2026-04-19T07:33:50.913Z</time></trkpt><trkpt lat="44.8391173" lon="9.8128334"><ele>191.57142857142856</ele><time>2026-04-19T07:33:52.909Z</time></trkpt><trkpt lat="44.8390533" lon="9.8128034"><ele>192.42857142857144</ele><time>2026-04-19T07:33:54.911Z</time></trkpt><trkpt lat="44.838981" lon="9.8127665"><ele>193.28571428571428</ele><time>2026-04-19T07:33:56.904Z</time></trkpt><trkpt lat="44.8389164" lon="9.8127233"><ele>194.14285714285714</ele><time>2026-04-19T07:33:58.892Z</time></trkpt><trkpt lat="44.8388367" lon="9.8126995"><ele>195.0</ele><time>2026-04-19T07:34:00.904Z</time></trkpt><trkpt lat="44.8387589" lon="9.8126705"><ele>194.5</ele><time>2026-04-19T07:34:02.907Z</time></trkpt><trkpt lat="44.8386841" lon="9.8126469"><ele>194.0</ele><time>2026-04-19T07:34:04.896Z</time></trkpt><trkpt lat="44.83861" lon="9.8126241"><ele>193.5</ele><time>2026-04-19T07:34:06.9Z</time></trkpt><trkpt lat="44.8385217" lon="9.8125974"><ele>193.0</ele><time>2026-04-19T07:34:08.908Z</time></trkpt><trkpt lat="44.8384397" lon="9.8125442"><ele>192.5</ele><time>2026-04-19T07:34:10.883Z</time></trkpt><trkpt lat="44.838373" lon="9.812458"><ele>192.0</ele><time>2026-04-19T07:34:12.906Z</time></trkpt><trkpt lat="44.8383312" lon="9.8123508"><ele>192.0</ele><time>2026-04-19T07:34:14.893Z</time></trkpt><trkpt lat="44.83829" lon="9.8122444"><ele>192.0</ele><time>2026-04-19T07:34:16.909Z</time></trkpt><trkpt lat="44.8382568" lon="9.8121432"><ele>192.0</ele><time>2026-04-19T07:34:18.904Z</time></trkpt><trkpt lat="44.8382168" lon="9.8120519"><ele>192.0</ele><time>2026-04-19T07:34:20.904Z</time></trkpt><trkpt lat="44.8381706" lon="9.8119667"><ele>192.0</ele><time>2026-04-19T07:34:22.907Z</time></trkpt><trkpt lat="44.8381089" lon="9.8119015"><ele>192.0</ele><time>2026-04-19T07:34:24.911Z</time></trkpt><trkpt lat="44.8380426" lon="9.8118469"><ele>191.83333333333334</ele><time>2026-04-19T07:34:26.903Z</time></trkpt><trkpt lat="44.8379628" lon="9.8118016"><ele>191.66666666666666</ele><time>2026-04-19T07:34:28.895Z</time></trkpt><trkpt lat="44.8378799" lon="9.8117676"><ele>191.5</ele><time>2026-04-19T07:34:30.901Z</time></trkpt><trkpt lat="44.8378013" lon="9.8117507"><ele>191.33333333333331</ele><time>2026-04-19T07:34:32.9Z</time></trkpt><trkpt lat="44.8377192" lon="9.8117402"><ele>191.16666666666666</ele><time>2026-04-19T07:34:34.885Z</time></trkpt><trkpt lat="44.8376336" lon="9.8117249"><ele>191.0</ele><time>2026-04-19T07:34:36.916Z</time></trkpt><trkpt lat="44.8375452" lon="9.8117219"><ele>191.0</ele><time>2026-04-19T07:34:38.908Z</time></trkpt><trkpt lat="44.8374617" lon="9.8117124"><ele>191.0</ele><time>2026-04-19T07:34:40.91Z</time></trkpt><trkpt lat="44.8373742" lon="9.8117069"><ele>191.0</ele><time>2026-04-19T07:34:42.91Z</time></trkpt><trkpt lat="44.8372895" lon="9.8116958"><ele>191.0</ele><time>2026-04-19T07:34:44.885Z</time></trkpt><trkpt lat="44.8372041" lon="9.8116933"><ele>191.0</ele><time>2026-04-19T07:34:46.907Z</time></trkpt><trkpt lat="44.837118" lon="9.8116897"><ele>191.0</ele><time>2026-04-19T07:34:48.921Z</time></trkpt><trkpt lat="44.8370319" lon="9.8116901"><ele>191.0</ele><time>2026-04-19T07:34:50.905Z</time></trkpt><trkpt lat="44.8369525" lon="9.8116938"><ele>191.0</ele><time>2026-04-19T07:34:52.905Z</time></trkpt><trkpt lat="44.8368657" lon="9.8117008"><ele>191.0</ele><time>2026-04-19T07:34:54.907Z</time></trkpt><trkpt lat="44.8367732" lon="9.8117226"><ele>191.0</ele><time>2026-04-19T07:34:56.905Z</time></trkpt><trkpt lat="44.8366821" lon="9.8117391"><ele>191.0</ele><time>2026-04-19T07:34:58.907Z</time></trkpt><trkpt lat="44.8366004" lon="9.8117417"><ele>191.0</ele><time>2026-04-19T07:35:00.897Z</time></trkpt><trkpt lat="44.8365045" lon="9.8117554"><ele>191.20000000000002</ele><time>2026-04-19T07:35:02.898Z</time></trkpt><trkpt lat="44.8364127" lon="9.8117626"><ele>191.4</ele><time>2026-04-19T07:35:04.902Z</time></trkpt><trkpt lat="44.8363149" lon="9.8117627"><ele>191.6</ele><time>2026-04-19T07:35:06.911Z</time></trkpt><trkpt lat="44.8362252" lon="9.8117537"><ele>191.8</ele><time>2026-04-19T07:35:08.897Z</time></trkpt><trkpt lat="44.8361351" lon="9.8117368"><ele>192.0</ele><time>2026-04-19T07:35:10.909Z</time></trkpt><trkpt lat="44.8360454" lon="9.8117156"><ele>192.83333333333334</ele><time>2026-04-19T07:35:12.904Z</time></trkpt><trkpt lat="44.8359589" lon="9.8116967"><ele>193.66666666666669</ele><time>2026-04-19T07:35:14.888Z</time></trkpt><trkpt lat="44.8358716" lon="9.8116778"><ele>194.5</ele><time>2026-04-19T07:35:16.901Z</time></trkpt><trkpt lat="44.8357852" lon="9.8116524"><ele>195.33333333333334</ele><time>2026-04-19T07:35:18.901Z</time></trkpt><trkpt lat="44.8356923" lon="9.8116247"><ele>196.16666666666669</ele><time>2026-04-19T07:35:20.908Z</time></trkpt><trkpt lat="44.8356044" lon="9.8116037"><ele>197.0</ele><time>2026-04-19T07:35:22.901Z</time></trkpt><trkpt lat="44.8355099" lon="9.8115788"><ele>197.0</ele><time>2026-04-19T07:35:24.888Z</time></trkpt><trkpt lat="44.835403" lon="9.8115718"><ele>197.0</ele><time>2026-04-19T07:35:26.889Z</time></trkpt><trkpt lat="44.8353037" lon="9.8115621"><ele>197.0</ele><time>2026-04-19T07:35:28.914Z</time></trkpt><trkpt lat="44.8352113" lon="9.8115394"><ele>197.0</ele><time>2026-04-19T07:35:30.912Z</time></trkpt><trkpt lat="44.835113" lon="9.8115248"><ele>197.0</ele><time>2026-04-19T07:35:32.906Z</time></trkpt><trkpt lat="44.8350245" lon="9.8115058"><ele>197.16666666666669</ele><time>2026-04-19T07:35:34.903Z</time></trkpt><trkpt lat="44.8349289" lon="9.8115006"><ele>197.33333333333334</ele><time>2026-04-19T07:35:36.906Z</time></trkpt><trkpt lat="44.8348442" lon="9.8114933"><ele>197.5</ele><time>2026-04-19T07:35:38.9Z</time></trkpt><trkpt lat="44.8347631" lon="9.8114857"><ele>197.66666666666669</ele><time>2026-04-19T07:35:40.911Z</time></trkpt><trkpt lat="44.8346815" lon="9.8114711"><ele>197.83333333333334</ele><time>2026-04-19T07:35:42.904Z</time></trkpt><trkpt lat="44.8345975" lon="9.8114643"><ele>198.0</ele><time>2026-04-19T07:35:44.893Z</time></trkpt><trkpt lat="44.8345132" lon="9.8114491"><ele>198.0</ele><time>2026-04-19T07:35:46.909Z</time></trkpt><trkpt lat="44.8344344" lon="9.811443"><ele>198.0</ele><time>2026-04-19T07:35:48.901Z</time></trkpt><trkpt lat="44.8343556" lon="9.8114431"><ele>198.0</ele><time>2026-04-19T07:35:50.905Z</time></trkpt><trkpt lat="44.8342783" lon="9.8114361"><ele>198.0</ele><time>2026-04-19T07:35:52.893Z</time></trkpt><trkpt lat="44.8342016" lon="9.81143"><ele>198.0</ele><time>2026-04-19T07:35:54.898Z</time></trkpt><trkpt lat="44.8341251" lon="9.8114191"><ele>198.0</ele><time>2026-04-19T07:35:56.904Z</time></trkpt><trkpt lat="44.8340543" lon="9.8114095"><ele>198.66666666666666</ele><time>2026-04-19T07:35:58.908Z</time></trkpt><trkpt lat="44.8339859" lon="9.8114079"><ele>199.33333333333331</ele><time>2026-04-19T07:36:00.906Z</time></trkpt><trkpt lat="44.8339053" lon="9.8114074"><ele>200.0</ele><time>2026-04-19T07:36:02.898Z</time></trkpt><trkpt lat="44.8338188" lon="9.8114063"><ele>200.66666666666666</ele><time>2026-04-19T07:36:04.89Z</time></trkpt><trkpt lat="44.8337252" lon="9.8114304"><ele>201.33333333333331</ele><time>2026-04-19T07:36:06.905Z</time></trkpt><trkpt lat="44.83364" lon="9.8114523"><ele>202.0</ele><time>2026-04-19T07:36:08.908Z</time></trkpt><trkpt lat="44.8335592" lon="9.811489"><ele>202.0</ele><time>2026-04-19T07:36:10.902Z</time></trkpt><trkpt lat="44.8334789" lon="9.8115321"><ele>202.0</ele><time>2026-04-19T07:36:12.907Z</time></trkpt><trkpt lat="44.8334032" lon="9.8115844"><ele>202.0</ele><time>2026-04-19T07:36:14.877Z</time></trkpt><trkpt lat="44.8333202" lon="9.8116357"><ele>202.0</ele><time>2026-04-19T07:36:16.898Z</time></trkpt><trkpt lat="44.833231" lon="9.8116843"><ele>202.0</ele><time>2026-04-19T07:36:18.907Z</time></trkpt><trkpt lat="44.8331435" lon="9.8117418"><ele>201.8</ele><time>2026-04-19T07:36:20.906Z</time></trkpt><trkpt lat="44.833052" lon="9.8118001"><ele>201.6</ele><time>2026-04-19T07:36:22.899Z</time></trkpt><trkpt lat="44.8329681" lon="9.811862"><ele>201.4</ele><time>2026-04-19T07:36:24.908Z</time></trkpt><trkpt lat="44.8328906" lon="9.8119149"><ele>201.20000000000002</ele><time>2026-04-19T07:36:26.905Z</time></trkpt><trkpt lat="44.8328015" lon="9.8119687"><ele>201.0</ele><time>2026-04-19T07:36:28.9Z</time></trkpt><trkpt lat="44.8327154" lon="9.8120221"><ele>201.60000000000002</ele><time>2026-04-19T07:36:30.896Z</time></trkpt><trkpt lat="44.8326276" lon="9.8120843"><ele>202.2</ele><time>2026-04-19T07:36:32.904Z</time></trkpt><trkpt lat="44.8325421" lon="9.8121521"><ele>202.8</ele><time>2026-04-19T07:36:34.897Z</time></trkpt><trkpt lat="44.832458" lon="9.8122108"><ele>203.39999999999998</ele><time>2026-04-19T07:36:36.932Z</time></trkpt><trkpt lat="44.8323665" lon="9.8122696"><ele>204.0</ele><time>2026-04-19T07:36:38.887Z</time></trkpt><trkpt lat="44.8322766" lon="9.8123186"><ele>204.0</ele><time>2026-04-19T07:36:40.906Z</time></trkpt><trkpt lat="44.8321955" lon="9.8123807"><ele>204.0</ele><time>2026-04-19T07:36:42.906Z</time></trkpt><trkpt lat="44.8321049" lon="9.8124412"><ele>204.0</ele><time>2026-04-19T07:36:44.891Z</time></trkpt><trkpt lat="44.832015" lon="9.8124947"><ele>204.0</ele><time>2026-04-19T07:36:46.901Z</time></trkpt><trkpt lat="44.8319283" lon="9.8125459"><ele>204.0</ele><time>2026-04-19T07:36:48.905Z</time></trkpt><trkpt lat="44.8318378" lon="9.8125972"><ele>203.79999999999998</ele><time>2026-04-19T07:36:50.895Z</time></trkpt><trkpt lat="44.8317451" lon="9.8126402"><ele>203.6</ele><time>2026-04-19T07:36:52.907Z</time></trkpt><trkpt lat="44.8316649" lon="9.8127027"><ele>203.4</ele><time>2026-04-19T07:36:54.912Z</time></trkpt><trkpt lat="44.8315822" lon="9.8127588"><ele>203.2</ele><time>2026-04-19T07:36:56.908Z</time></trkpt><trkpt lat="44.831497" lon="9.8128062"><ele>203.0</ele><time>2026-04-19T07:36:58.894Z</time></trkpt><trkpt lat="44.8314083" lon="9.8128682"><ele>204.8</ele><time>2026-04-19T07:37:00.893Z</time></trkpt><trkpt lat="44.8313233" lon="9.8129195"><ele>206.60000000000002</ele><time>2026-04-19T07:37:02.896Z</time></trkpt><trkpt lat="44.8312432" lon="9.8129694"><ele>208.39999999999998</ele><time>2026-04-19T07:37:04.893Z</time></trkpt><trkpt lat="44.8311582" lon="9.8130142"><ele>210.2</ele><time>2026-04-19T07:37:06.908Z</time></trkpt><trkpt lat="44.8310671" lon="9.8130703"><ele>212.0</ele><time>2026-04-19T07:37:08.901Z</time></trkpt><trkpt lat="44.83098" lon="9.8130983"><ele>211.00000000000003</ele><time>2026-04-19T07:37:10.891Z</time></trkpt><trkpt lat="44.830901" lon="9.8131381"><ele>210.0</ele><time>2026-04-19T07:37:12.892Z</time></trkpt><trkpt lat="44.8308159" lon="9.8131634"><ele>209.0</ele><time>2026-04-19T07:37:14.911Z</time></trkpt><trkpt lat="44.8307301" lon="9.8131851"><ele>208.0</ele><time>2026-04-19T07:37:16.894Z</time></trkpt><trkpt lat="44.8306515" lon="9.8132122"><ele>207.00000000000003</ele><time>2026-04-19T07:37:18.902Z</time></trkpt><trkpt lat="44.8305788" lon="9.8132253"><ele>206.0</ele><time>2026-04-19T07:37:20.894Z</time></trkpt><trkpt lat="44.8305021" lon="9.8132443"><ele>206.00000000000003</ele><time>2026-04-19T07:37:22.895Z</time></trkpt><trkpt lat="44.8304188" lon="9.8132663"><ele>206.0</ele><time>2026-04-19T07:37:24.9Z</time></trkpt><trkpt lat="44.8303322" lon="9.8132996"><ele>206.0</ele><time>2026-04-19T07:37:26.901Z</time></trkpt><trkpt lat="44.8302557" lon="9.8133332"><ele>206.0</ele><time>2026-04-19T07:37:28.893Z</time></trkpt><trkpt lat="44.8301787" lon="9.8133683"><ele>206.00000000000003</ele><time>2026-04-19T07:37:30.891Z</time></trkpt><trkpt lat="44.8300922" lon="9.8133938"><ele>206.0</ele><time>2026-04-19T07:37:32.905Z</time></trkpt><trkpt lat="44.8300215" lon="9.8134263"><ele>205.66666666666669</ele><time>2026-04-19T07:37:34.902Z</time></trkpt><trkpt lat="44.8299442" lon="9.8134573"><ele>205.33333333333334</ele><time>2026-04-19T07:37:36.902Z</time></trkpt><trkpt lat="44.8298708" lon="9.8134884"><ele>205.0</ele><time>2026-04-19T07:37:38.895Z</time></trkpt><trkpt lat="44.8298005" lon="9.8135001"><ele>204.66666666666669</ele><time>2026-04-19T07:37:40.899Z</time></trkpt><trkpt lat="44.8297216" lon="9.8135264"><ele>204.33333333333334</ele><time>2026-04-19T07:37:42.902Z</time></trkpt><trkpt lat="44.8296436" lon="9.8135441"><ele>204.0</ele><time>2026-04-19T07:37:44.9Z</time></trkpt><trkpt lat="44.8295679" lon="9.8135544"><ele>205.0</ele><time>2026-04-19T07:37:46.895Z</time></trkpt><trkpt lat="44.8294923" lon="9.8135626"><ele>206.0</ele><time>2026-04-19T07:37:48.891Z</time></trkpt><trkpt lat="44.8294164" lon="9.8135391"><ele>207.0</ele><time>2026-04-19T07:37:50.889Z</time></trkpt><trkpt lat="44.8293386" lon="9.8135295"><ele>208.0</ele><time>2026-04-19T07:37:52.878Z</time></trkpt><trkpt lat="44.8292677" lon="9.8134982"><ele>209.0</ele><time>2026-04-19T07:37:54.892Z</time></trkpt><trkpt lat="44.829199" lon="9.8134599"><ele>210.0</ele><time>2026-04-19T07:37:56.892Z</time></trkpt><trkpt lat="44.8291254" lon="9.8134402"><ele>210.0</ele><time>2026-04-19T07:37:58.891Z</time></trkpt><trkpt lat="44.8290536" lon="9.8134227"><ele>210.0</ele><time>2026-04-19T07:38:00.899Z</time></trkpt><trkpt lat="44.8289842" lon="9.8134192"><ele>210.0</ele><time>2026-04-19T07:38:02.909Z</time></trkpt><trkpt lat="44.8289109" lon="9.8134304"><ele>210.0</ele><time>2026-04-19T07:38:04.893Z</time></trkpt><trkpt lat="44.8288314" lon="9.8134458"><ele>210.0</ele><time>2026-04-19T07:38:06.89Z</time></trkpt><trkpt lat="44.8287568" lon="9.813455"><ele>210.0</ele><time>2026-04-19T07:38:08.899Z</time></trkpt><trkpt lat="44.8286776" lon="9.8134676"><ele>210.0</ele><time>2026-04-19T07:38:10.902Z</time></trkpt><trkpt lat="44.8285994" lon="9.8134838"><ele>210.0</ele><time>2026-04-19T07:38:12.91Z</time></trkpt><trkpt lat="44.8285268" lon="9.813495"><ele>210.0</ele><time>2026-04-19T07:38:14.899Z</time></trkpt><trkpt lat="44.8284529" lon="9.8135002"><ele>210.0</ele><time>2026-04-19T07:38:16.91Z</time></trkpt><trkpt lat="44.8283785" lon="9.8135089"><ele>210.0</ele><time>2026-04-19T07:38:18.884Z</time></trkpt><trkpt lat="44.8283051" lon="9.8135223"><ele>210.0</ele><time>2026-04-19T07:38:20.9Z</time></trkpt><trkpt lat="44.8282359" lon="9.8135422"><ele>210.0</ele><time>2026-04-19T07:38:22.908Z</time></trkpt><trkpt lat="44.8281669" lon="9.813558"><ele>211.85714285714286</ele><time>2026-04-19T07:38:24.902Z</time></trkpt><trkpt lat="44.8280966" lon="9.8135648"><ele>213.71428571428572</ele><time>2026-04-19T07:38:26.902Z</time></trkpt><trkpt lat="44.8280292" lon="9.813584"><ele>215.57142857142856</ele><time>2026-04-19T07:38:28.907Z</time></trkpt><trkpt lat="44.8279593" lon="9.8135942"><ele>217.42857142857144</ele><time>2026-04-19T07:38:30.905Z</time></trkpt><trkpt lat="44.827887" lon="9.813604"><ele>219.28571428571428</ele><time>2026-04-19T07:38:32.897Z</time></trkpt><trkpt lat="44.8278135" lon="9.8136281"><ele>221.14285714285714</ele><time>2026-04-19T07:38:34.869Z</time></trkpt><trkpt lat="44.8277428" lon="9.8136472"><ele>223.0</ele><time>2026-04-19T07:38:36.884Z</time></trkpt><trkpt lat="44.8276699" lon="9.8136558"><ele>222.71428571428572</ele><time>2026-04-19T07:38:38.889Z</time></trkpt><trkpt lat="44.8276" lon="9.813673"><ele>222.42857142857142</ele><time>2026-04-19T07:38:40.885Z</time></trkpt><trkpt lat="44.8275313" lon="9.8136834"><ele>222.14285714285717</ele><time>2026-04-19T07:38:42.902Z</time></trkpt><trkpt lat="44.8274558" lon="9.8136928"><ele>221.85714285714286</ele><time>2026-04-19T07:38:44.9Z</time></trkpt><trkpt lat="44.8273852" lon="9.8136999"><ele>221.57142857142858</ele><time>2026-04-19T07:38:46.905Z</time></trkpt><trkpt lat="44.8273147" lon="9.813699"><ele>221.2857142857143</ele><time>2026-04-19T07:38:48.907Z</time></trkpt><trkpt lat="44.8272387" lon="9.8137012"><ele>221.0</ele><time>2026-04-19T07:38:50.901Z</time></trkpt><trkpt lat="44.827166" lon="9.8136854"><ele>221.00000000000003</ele><time>2026-04-19T07:38:52.904Z</time></trkpt><trkpt lat="44.8270926" lon="9.8136513"><ele>221.0</ele><time>2026-04-19T07:38:54.905Z</time></trkpt><trkpt lat="44.8270191" lon="9.8136154"><ele>221.0</ele><time>2026-04-19T07:38:56.905Z</time></trkpt><trkpt lat="44.826944" lon="9.8136051"><ele>221.0</ele><time>2026-04-19T07:38:58.899Z</time></trkpt><trkpt lat="44.8268713" lon="9.8135964"><ele>221.00000000000003</ele><time>2026-04-19T07:39:00.896Z</time></trkpt><trkpt lat="44.8267914" lon="9.8136014"><ele>221.0</ele><time>2026-04-19T07:39:02.901Z</time></trkpt><trkpt lat="44.8267156" lon="9.8136027"><ele>221.00000000000003</ele><time>2026-04-19T07:39:04.902Z</time></trkpt><trkpt lat="44.8266426" lon="9.8136069"><ele>221.0</ele><time>2026-04-19T07:39:06.9Z</time></trkpt><trkpt lat="44.8265636" lon="9.8136078"><ele>221.0</ele><time>2026-04-19T07:39:08.902Z</time></trkpt><trkpt lat="44.8264956" lon="9.8136226"><ele>221.0</ele><time>2026-04-19T07:39:10.905Z</time></trkpt><trkpt lat="44.8264216" lon="9.8136346"><ele>221.0</ele><time>2026-04-19T07:39:12.903Z</time></trkpt><trkpt lat="44.8263489" lon="9.8136546"><ele>221.00000000000003</ele><time>2026-04-19T07:39:14.912Z</time></trkpt><trkpt lat="44.8262784" lon="9.8136714"><ele>221.0</ele><time>2026-04-19T07:39:16.9Z</time></trkpt><trkpt lat="44.8262125" lon="9.8136918"><ele>221.00000000000003</ele><time>2026-04-19T07:39:18.905Z</time></trkpt><trkpt lat="44.8261495" lon="9.8137133"><ele>221.0</ele><time>2026-04-19T07:39:20.908Z</time></trkpt><trkpt lat="44.8260862" lon="9.8137373"><ele>221.0</ele><time>2026-04-19T07:39:22.9Z</time></trkpt><trkpt lat="44.8260234" lon="9.8137685"><ele>221.0</ele><time>2026-04-19T07:39:24.911Z</time></trkpt><trkpt lat="44.8259608" lon="9.8137939"><ele>221.0</ele><time>2026-04-19T07:39:26.888Z</time></trkpt><trkpt lat="44.8258955" lon="9.8138283"><ele>221.00000000000003</ele><time>2026-04-19T07:39:28.906Z</time></trkpt><trkpt lat="44.8258328" lon="9.8138581"><ele>221.0</ele><time>2026-04-19T07:39:30.903Z</time></trkpt><trkpt lat="44.8257644" lon="9.8138937"><ele>221.42857142857144</ele><time>2026-04-19T07:39:32.903Z</time></trkpt><trkpt lat="44.8257007" lon="9.8139314"><ele>221.85714285714286</ele><time>2026-04-19T07:39:34.903Z</time></trkpt><trkpt lat="44.8256403" lon="9.8139631"><ele>222.28571428571428</ele><time>2026-04-19T07:39:36.896Z</time></trkpt><trkpt lat="44.825577" lon="9.813999"><ele>222.71428571428572</ele><time>2026-04-19T07:39:38.904Z</time></trkpt><trkpt lat="44.8255194" lon="9.814038"><ele>223.14285714285714</ele><time>2026-04-19T07:39:40.912Z</time></trkpt><trkpt lat="44.8254363" lon="9.8141013"><ele>223.57142857142858</ele><time>2026-04-19T07:39:43.911Z</time></trkpt><trkpt lat="44.825378" lon="9.8141465"><ele>224.0</ele><time>2026-04-19T07:39:45.906Z</time></trkpt><trkpt lat="44.8253226" lon="9.8141963"><ele>224.0</ele><time>2026-04-19T07:39:47.902Z</time></trkpt><trkpt lat="44.8252633" lon="9.8142456"><ele>224.0</ele><time>2026-04-19T07:39:49.914Z</time></trkpt><trkpt lat="44.8252053" lon="9.8142954"><ele>224.0</ele><time>2026-04-19T07:39:51.91Z</time></trkpt><trkpt lat="44.8251455" lon="9.8143494"><ele>224.0</ele><time>2026-04-19T07:39:53.897Z</time></trkpt><trkpt lat="44.8250847" lon="9.8144007"><ele>224.0</ele><time>2026-04-19T07:39:55.899Z</time></trkpt><trkpt lat="44.8250243" lon="9.8144438"><ele>224.0</ele><time>2026-04-19T07:39:57.9Z</time></trkpt><trkpt lat="44.8249674" lon="9.8144839"><ele>224.0</ele><time>2026-04-19T07:39:59.913Z</time></trkpt><trkpt lat="44.8249051" lon="9.8145138"><ele>224.71428571428572</ele><time>2026-04-19T07:40:01.885Z</time></trkpt><trkpt lat="44.8248355" lon="9.8145329"><ele>225.42857142857144</ele><time>2026-04-19T07:40:03.905Z</time></trkpt><trkpt lat="44.8247641" lon="9.8145221"><ele>226.14285714285714</ele><time>2026-04-19T07:40:05.901Z</time></trkpt><trkpt lat="44.8246994" lon="9.8145151"><ele>226.85714285714286</ele><time>2026-04-19T07:40:07.903Z</time></trkpt><trkpt lat="44.824636" lon="9.8144903"><ele>227.57142857142858</ele><time>2026-04-19T07:40:09.912Z</time></trkpt><trkpt lat="44.8245735" lon="9.814454"><ele>228.28571428571428</ele><time>2026-04-19T07:40:11.91Z</time></trkpt><trkpt lat="44.824486" lon="9.8144085"><ele>229.0</ele><time>2026-04-19T07:40:14.887Z</time></trkpt><trkpt lat="44.824422" lon="9.8143775"><ele>229.0</ele><time>2026-04-19T07:40:16.888Z</time></trkpt><trkpt lat="44.8243563" lon="9.8143452"><ele>229.0</ele><time>2026-04-19T07:40:18.891Z</time></trkpt><trkpt lat="44.8242874" lon="9.8143415"><ele>229.0</ele><time>2026-04-19T07:40:20.894Z</time></trkpt><trkpt lat="44.8242205" lon="9.8143423"><ele>229.0</ele><time>2026-04-19T07:40:22.898Z</time></trkpt><trkpt lat="44.8241551" lon="9.8143667"><ele>229.0</ele><time>2026-04-19T07:40:24.885Z</time></trkpt><trkpt lat="44.8240908" lon="9.814403"><ele>229.0</ele><time>2026-04-19T07:40:26.905Z</time></trkpt><trkpt lat="44.824033" lon="9.8144552"><ele>229.0</ele><time>2026-04-19T07:40:28.893Z</time></trkpt><trkpt lat="44.8239727" lon="9.8145122"><ele>229.33333333333331</ele><time>2026-04-19T07:40:30.897Z</time></trkpt><trkpt lat="44.8239087" lon="9.8145785"><ele>229.66666666666666</ele><time>2026-04-19T07:40:32.9Z</time></trkpt><trkpt lat="44.8238386" lon="9.8146517"><ele>230.0</ele><time>2026-04-19T07:40:34.908Z</time></trkpt><trkpt lat="44.8237736" lon="9.8147174"><ele>230.33333333333331</ele><time>2026-04-19T07:40:36.896Z</time></trkpt><trkpt lat="44.8237068" lon="9.8147796"><ele>230.66666666666666</ele><time>2026-04-19T07:40:38.9Z</time></trkpt><trkpt lat="44.8236233" lon="9.8148458"><ele>231.0</ele><time>2026-04-19T07:40:40.893Z</time></trkpt><trkpt lat="44.823539" lon="9.8149063"><ele>230.33333333333334</ele><time>2026-04-19T07:40:42.906Z</time></trkpt><trkpt lat="44.8234574" lon="9.8149556"><ele>229.66666666666669</ele><time>2026-04-19T07:40:44.894Z</time></trkpt><trkpt lat="44.8233779" lon="9.8149847"><ele>229.0</ele><time>2026-04-19T07:40:46.897Z</time></trkpt><trkpt lat="44.8232991" lon="9.8150079"><ele>228.33333333333334</ele><time>2026-04-19T07:40:48.899Z</time></trkpt><trkpt lat="44.8232083" lon="9.8150413"><ele>227.66666666666669</ele><time>2026-04-19T07:40:50.895Z</time></trkpt><trkpt lat="44.8231164" lon="9.8150811"><ele>227.0</ele><time>2026-04-19T07:40:52.9Z</time></trkpt><trkpt lat="44.8230268" lon="9.8151209"><ele>228.6</ele><time>2026-04-19T07:40:54.902Z</time></trkpt><trkpt lat="44.8229394" lon="9.8151607"><ele>230.2</ele><time>2026-04-19T07:40:56.905Z</time></trkpt><trkpt lat="44.822854" lon="9.815195"><ele>231.8</ele><time>2026-04-19T07:40:58.892Z</time></trkpt><trkpt lat="44.8227671" lon="9.8152291"><ele>233.4</ele><time>2026-04-19T07:41:00.884Z</time></trkpt><trkpt lat="44.8226818" lon="9.8152817"><ele>235.0</ele><time>2026-04-19T07:41:02.883Z</time></trkpt><trkpt lat="44.8226021" lon="9.8153394"><ele>235.0</ele><time>2026-04-19T07:41:04.901Z</time></trkpt><trkpt lat="44.8225235" lon="9.8154047"><ele>235.0</ele><time>2026-04-19T07:41:06.877Z</time></trkpt><trkpt lat="44.8224446" lon="9.8154804"><ele>235.0</ele><time>2026-04-19T07:41:08.889Z</time></trkpt><trkpt lat="44.8223701" lon="9.8155467"><ele>235.0</ele><time>2026-04-19T07:41:10.895Z</time></trkpt><trkpt lat="44.8222959" lon="9.815615"><ele>235.0</ele><time>2026-04-19T07:41:12.888Z</time></trkpt><trkpt lat="44.8222232" lon="9.8156891"><ele>234.99999999999997</ele><time>2026-04-19T07:41:14.891Z</time></trkpt><trkpt lat="44.8221546" lon="9.8157477"><ele>235.0</ele><time>2026-04-19T07:41:16.894Z</time></trkpt><trkpt lat="44.8220858" lon="9.8158134"><ele>235.0</ele><time>2026-04-19T07:41:18.886Z</time></trkpt><trkpt lat="44.8220172" lon="9.8158649"><ele>235.0</ele><time>2026-04-19T07:41:20.89Z</time></trkpt><trkpt lat="44.8219466" lon="9.8159269"><ele>234.99999999999997</ele><time>2026-04-19T07:41:22.893Z</time></trkpt><trkpt lat="44.8218763" lon="9.8159815"><ele>235.0</ele><time>2026-04-19T07:41:24.899Z</time></trkpt><trkpt lat="44.82181" lon="9.8160255"><ele>236.16666666666666</ele><time>2026-04-19T07:41:26.877Z</time></trkpt><trkpt lat="44.8217373" lon="9.8160668"><ele>237.33333333333331</ele><time>2026-04-19T07:41:28.888Z</time></trkpt><trkpt lat="44.8216648" lon="9.8161025"><ele>238.5</ele><time>2026-04-19T07:41:30.886Z</time></trkpt><trkpt lat="44.8215918" lon="9.8161211"><ele>239.66666666666669</ele><time>2026-04-19T07:41:32.899Z</time></trkpt><trkpt lat="44.8215151" lon="9.8161585"><ele>240.83333333333334</ele><time>2026-04-19T07:41:34.894Z</time></trkpt><trkpt lat="44.821435" lon="9.8161943"><ele>242.0</ele><time>2026-04-19T07:41:36.9Z</time></trkpt><trkpt lat="44.8213486" lon="9.8162319"><ele>242.00000000000003</ele><time>2026-04-19T07:41:38.887Z</time></trkpt><trkpt lat="44.8212637" lon="9.8162669"><ele>242.0</ele><time>2026-04-19T07:41:40.888Z</time></trkpt><trkpt lat="44.8211844" lon="9.8162881"><ele>242.0</ele><time>2026-04-19T07:41:42.884Z</time></trkpt><trkpt lat="44.8210934" lon="9.816315"><ele>242.0</ele><time>2026-04-19T07:41:44.884Z</time></trkpt><trkpt lat="44.8210128" lon="9.8163392"><ele>242.00000000000003</ele><time>2026-04-19T07:41:46.892Z</time></trkpt><trkpt lat="44.8209263" lon="9.8163497"><ele>242.0</ele><time>2026-04-19T07:41:48.887Z</time></trkpt><trkpt lat="44.8208427" lon="9.8163765"><ele>240.83333333333334</ele><time>2026-04-19T07:41:50.893Z</time></trkpt><trkpt lat="44.8207566" lon="9.8163924"><ele>239.66666666666669</ele><time>2026-04-19T07:41:52.897Z</time></trkpt><trkpt lat="44.8206758" lon="9.8164107"><ele>238.5</ele><time>2026-04-19T07:41:54.893Z</time></trkpt><trkpt lat="44.820591" lon="9.8164437"><ele>237.33333333333331</ele><time>2026-04-19T07:41:56.886Z</time></trkpt><trkpt lat="44.8205085" lon="9.8164646"><ele>236.16666666666666</ele><time>2026-04-19T07:41:58.885Z</time></trkpt><trkpt lat="44.8204238" lon="9.816481"><ele>235.0</ele><time>2026-04-19T07:42:00.882Z</time></trkpt><trkpt lat="44.8203372" lon="9.816505"><ele>235.0</ele><time>2026-04-19T07:42:02.893Z</time></trkpt><trkpt lat="44.8202627" lon="9.81653"><ele>234.99999999999997</ele><time>2026-04-19T07:42:04.895Z</time></trkpt><trkpt lat="44.8201938" lon="9.8165577"><ele>235.0</ele><time>2026-04-19T07:42:06.905Z</time></trkpt><trkpt lat="44.8201187" lon="9.8165801"><ele>235.0</ele><time>2026-04-19T07:42:08.892Z</time></trkpt><trkpt lat="44.8200475" lon="9.8166062"><ele>234.99999999999997</ele><time>2026-04-19T07:42:10.896Z</time></trkpt><trkpt lat="44.8199814" lon="9.8166365"><ele>235.0</ele><time>2026-04-19T07:42:12.884Z</time></trkpt><trkpt lat="44.8199132" lon="9.8166624"><ele>235.0</ele><time>2026-04-19T07:42:14.889Z</time></trkpt><trkpt lat="44.8198432" lon="9.8166823"><ele>235.33333333333331</ele><time>2026-04-19T07:42:16.894Z</time></trkpt><trkpt lat="44.8197654" lon="9.816707"><ele>235.66666666666666</ele><time>2026-04-19T07:42:18.892Z</time></trkpt><trkpt lat="44.8196848" lon="9.816737"><ele>236.0</ele><time>2026-04-19T07:42:20.889Z</time></trkpt><trkpt lat="44.8196136" lon="9.8167449"><ele>236.33333333333331</ele><time>2026-04-19T07:42:22.887Z</time></trkpt><trkpt lat="44.8195254" lon="9.8167484"><ele>236.66666666666666</ele><time>2026-04-19T07:42:24.889Z</time></trkpt><trkpt lat="44.8194355" lon="9.8167438"><ele>237.0</ele><time>2026-04-19T07:42:26.895Z</time></trkpt><trkpt lat="44.8193546" lon="9.8167261"><ele>236.66666666666666</ele><time>2026-04-19T07:42:28.895Z</time></trkpt><trkpt lat="44.8192839" lon="9.8167227"><ele>236.33333333333331</ele><time>2026-04-19T07:42:30.893Z</time></trkpt><trkpt lat="44.8191972" lon="9.8167094"><ele>236.0</ele><time>2026-04-19T07:42:32.878Z</time></trkpt><trkpt lat="44.8191204" lon="9.8167062"><ele>235.66666666666666</ele><time>2026-04-19T07:42:34.879Z</time></trkpt><trkpt lat="44.8190399" lon="9.8166879"><ele>235.33333333333331</ele><time>2026-04-19T07:42:36.889Z</time></trkpt><trkpt lat="44.8189581" lon="9.8166822"><ele>235.0</ele><time>2026-04-19T07:42:38.89Z</time></trkpt><trkpt lat="44.8188672" lon="9.8166739"><ele>234.99999999999997</ele><time>2026-04-19T07:42:40.907Z</time></trkpt><trkpt lat="44.8187877" lon="9.8166639"><ele>235.0</ele><time>2026-04-19T07:42:42.896Z</time></trkpt><trkpt lat="44.8187057" lon="9.8166583"><ele>235.0</ele><time>2026-04-19T07:42:44.896Z</time></trkpt><trkpt lat="44.8186263" lon="9.8166379"><ele>235.0</ele><time>2026-04-19T07:42:46.904Z</time></trkpt><trkpt lat="44.8185466" lon="9.8166258"><ele>234.99999999999997</ele><time>2026-04-19T07:42:48.899Z</time></trkpt><trkpt lat="44.8184663" lon="9.8166293"><ele>235.0</ele><time>2026-04-19T07:42:50.892Z</time></trkpt><trkpt lat="44.8183828" lon="9.816634"><ele>235.16666666666666</ele><time>2026-04-19T07:42:52.9Z</time></trkpt><trkpt lat="44.8183051" lon="9.8166283"><ele>235.33333333333331</ele><time>2026-04-19T07:42:54.894Z</time></trkpt><trkpt lat="44.8182251" lon="9.8166225"><ele>235.5</ele><time>2026-04-19T07:42:56.896Z</time></trkpt><trkpt lat="44.8181458" lon="9.8166195"><ele>235.66666666666669</ele><time>2026-04-19T07:42:58.904Z</time></trkpt><trkpt lat="44.8180595" lon="9.8166188"><ele>235.83333333333334</ele><time>2026-04-19T07:43:00.891Z</time></trkpt><trkpt lat="44.8179753" lon="9.8166279"><ele>236.0</ele><time>2026-04-19T07:43:02.891Z</time></trkpt><trkpt lat="44.8179008" lon="9.8166247"><ele>236.00000000000003</ele><time>2026-04-19T07:43:04.907Z</time></trkpt><trkpt lat="44.8178222" lon="9.8166164"><ele>236.0</ele><time>2026-04-19T07:43:06.902Z</time></trkpt><trkpt lat="44.8177394" lon="9.816617"><ele>236.0</ele><time>2026-04-19T07:43:08.894Z</time></trkpt><trkpt lat="44.817653" lon="9.8166187"><ele>236.0</ele><time>2026-04-19T07:43:10.898Z</time></trkpt><trkpt lat="44.8175719" lon="9.8166184"><ele>236.00000000000003</ele><time>2026-04-19T07:43:12.902Z</time></trkpt><trkpt lat="44.8174986" lon="9.816626"><ele>236.0</ele><time>2026-04-19T07:43:14.895Z</time></trkpt><trkpt lat="44.8174321" lon="9.816623"><ele>236.33333333333334</ele><time>2026-04-19T07:43:16.893Z</time></trkpt><trkpt lat="44.8173673" lon="9.8166251"><ele>236.66666666666669</ele><time>2026-04-19T07:43:18.893Z</time></trkpt><trkpt lat="44.8173029" lon="9.8166295"><ele>237.0</ele><time>2026-04-19T07:43:20.899Z</time></trkpt><trkpt lat="44.817209" lon="9.8166245"><ele>237.33333333333331</ele><time>2026-04-19T07:43:23.895Z</time></trkpt><trkpt lat="44.8171165" lon="9.81663"><ele>237.66666666666666</ele><time>2026-04-19T07:43:26.894Z</time></trkpt><trkpt lat="44.8170267" lon="9.8166342"><ele>238.0</ele><time>2026-04-19T07:43:29.896Z</time></trkpt><trkpt lat="44.8169388" lon="9.8166538"><ele>237.99999999999997</ele><time>2026-04-19T07:43:32.898Z</time></trkpt><trkpt lat="44.8168395" lon="9.8166572"><ele>238.0</ele><time>2026-04-19T07:43:35.887Z</time></trkpt><trkpt lat="44.8167668" lon="9.8166546"><ele>238.0</ele><time>2026-04-19T07:43:37.902Z</time></trkpt><trkpt lat="44.8167036" lon="9.8166451"><ele>238.0</ele><time>2026-04-19T07:43:39.9Z</time></trkpt><trkpt lat="44.8166412" lon="9.8166302"><ele>237.99999999999997</ele><time>2026-04-19T07:43:41.898Z</time></trkpt><trkpt lat="44.8165495" lon="9.8166141"><ele>238.0</ele><time>2026-04-19T07:43:44.901Z</time></trkpt><trkpt lat="44.8164773" lon="9.8165968"><ele>238.71428571428572</ele><time>2026-04-19T07:43:46.894Z</time></trkpt><trkpt lat="44.8164057" lon="9.8165817"><ele>239.42857142857144</ele><time>2026-04-19T07:43:48.888Z</time></trkpt><trkpt lat="44.8163395" lon="9.8165726"><ele>240.14285714285714</ele><time>2026-04-19T07:43:50.891Z</time></trkpt><trkpt lat="44.8162707" lon="9.8165683"><ele>240.85714285714286</ele><time>2026-04-19T07:43:52.883Z</time></trkpt><trkpt lat="44.8162018" lon="9.8165623"><ele>241.57142857142858</ele><time>2026-04-19T07:43:54.891Z</time></trkpt><trkpt lat="44.8161363" lon="9.8165625"><ele>242.28571428571428</ele><time>2026-04-19T07:43:56.893Z</time></trkpt><trkpt lat="44.8160454" lon="9.8165687"><ele>243.0</ele><time>2026-04-19T07:43:59.865Z</time></trkpt><trkpt lat="44.8159766" lon="9.8165513"><ele>244.28571428571428</ele><time>2026-04-19T07:44:01.897Z</time></trkpt><trkpt lat="44.8159099" lon="9.8165549"><ele>245.57142857142858</ele><time>2026-04-19T07:44:03.889Z</time></trkpt><trkpt lat="44.8158145" lon="9.8165555"><ele>246.85714285714286</ele><time>2026-04-19T07:44:06.89Z</time></trkpt><trkpt lat="44.8157493" lon="9.8165449"><ele>248.14285714285714</ele><time>2026-04-19T07:44:08.895Z</time></trkpt><trkpt lat="44.81568" lon="9.8165367"><ele>249.42857142857144</ele><time>2026-04-19T07:44:10.906Z</time></trkpt><trkpt lat="44.8156131" lon="9.8165285"><ele>250.71428571428572</ele><time>2026-04-19T07:44:12.898Z</time></trkpt><trkpt lat="44.8155501" lon="9.8165153"><ele>252.0</ele><time>2026-04-19T07:44:14.896Z</time></trkpt><trkpt lat="44.8154582" lon="9.8165049"><ele>252.0</ele><time>2026-04-19T07:44:17.886Z</time></trkpt><trkpt lat="44.815373" lon="9.8164922"><ele>252.0</ele><time>2026-04-19T07:44:20.896Z</time></trkpt><trkpt lat="44.8152845" lon="9.8164872"><ele>252.0</ele><time>2026-04-19T07:44:23.897Z</time></trkpt><trkpt lat="44.8151891" lon="9.8164929"><ele>252.0</ele><time>2026-04-19T07:44:26.897Z</time></trkpt><trkpt lat="44.8151" lon="9.8165108"><ele>252.0</ele><time>2026-04-19T07:44:29.903Z</time></trkpt><trkpt lat="44.8150153" lon="9.8165314"><ele>252.0</ele><time>2026-04-19T07:44:32.895Z</time></trkpt><trkpt lat="44.8149274" lon="9.8165494"><ele>252.28571428571428</ele><time>2026-04-19T07:44:35.896Z</time></trkpt><trkpt lat="44.814863" lon="9.8165517"><ele>252.57142857142856</ele><time>2026-04-19T07:44:37.892Z</time></trkpt><trkpt lat="44.8147762" lon="9.8165482"><ele>252.85714285714286</ele><time>2026-04-19T07:44:40.894Z</time></trkpt><trkpt lat="44.8147111" lon="9.8165273"><ele>253.14285714285714</ele><time>2026-04-19T07:44:42.89Z</time></trkpt><trkpt lat="44.8146471" lon="9.8164956"><ele>253.42857142857142</ele><time>2026-04-19T07:44:44.897Z</time></trkpt><trkpt lat="44.8145876" lon="9.816461"><ele>253.71428571428572</ele><time>2026-04-19T07:44:46.885Z</time></trkpt><trkpt lat="44.8145074" lon="9.8164268"><ele>254.0</ele><time>2026-04-19T07:44:49.894Z</time></trkpt><trkpt lat="44.8144282" lon="9.8163998"><ele>254.00000000000003</ele><time>2026-04-19T07:44:52.894Z</time></trkpt><trkpt lat="44.8143521" lon="9.8163984"><ele>254.0</ele><time>2026-04-19T07:44:55.898Z</time></trkpt><trkpt lat="44.8142904" lon="9.8164243"><ele>254.0</ele><time>2026-04-19T07:44:58.892Z</time></trkpt><trkpt lat="44.814222" lon="9.8163894"><ele>254.0</ele><time>2026-04-19T07:45:40.901Z</time></trkpt><trkpt lat="44.814181" lon="9.8162576"><ele>254.00000000000003</ele><time>2026-04-19T07:45:43.893Z</time></trkpt><trkpt lat="44.8141429" lon="9.8161301"><ele>254.0</ele><time>2026-04-19T07:45:45.893Z</time></trkpt><trkpt lat="44.8140864" lon="9.8159815"><ele>253.50000000000003</ele><time>2026-04-19T07:45:47.904Z</time></trkpt><trkpt lat="44.8140579" lon="9.8159008"><ele>253.0</ele><time>2026-04-19T07:45:48.903Z</time></trkpt><trkpt lat="44.8140267" lon="9.8158025"><ele>252.5</ele><time>2026-04-19T07:45:49.901Z</time></trkpt><trkpt lat="44.8140021" lon="9.815694"><ele>252.0</ele><time>2026-04-19T07:45:50.912Z</time></trkpt><trkpt lat="44.8139916" lon="9.8155895"><ele>251.50000000000003</ele><time>2026-04-19T07:45:51.9Z</time></trkpt><trkpt lat="44.8139852" lon="9.8154694"><ele>251.0</ele><time>2026-04-19T07:45:52.916Z</time></trkpt><trkpt lat="44.8139835" lon="9.8153479"><ele>251.0</ele><time>2026-04-19T07:45:53.896Z</time></trkpt><trkpt lat="44.8139655" lon="9.8152073"><ele>251.00000000000003</ele><time>2026-04-19T07:45:54.902Z</time></trkpt><trkpt lat="44.8139388" lon="9.8150647"><ele>251.00000000000003</ele><time>2026-04-19T07:45:55.901Z</time></trkpt><trkpt lat="44.813901" lon="9.8149384"><ele>251.0</ele><time>2026-04-19T07:45:56.905Z</time></trkpt><trkpt lat="44.813835" lon="9.8148326"><ele>251.0</ele><time>2026-04-19T07:45:57.908Z</time></trkpt><trkpt lat="44.8137586" lon="9.8147392"><ele>249.20000000000002</ele><time>2026-04-19T07:45:58.898Z</time></trkpt><trkpt lat="44.81368" lon="9.8146401"><ele>247.40000000000003</ele><time>2026-04-19T07:45:59.902Z</time></trkpt><trkpt lat="44.8135983" lon="9.8145273"><ele>245.6</ele><time>2026-04-19T07:46:00.899Z</time></trkpt><trkpt lat="44.8135213" lon="9.8144231"><ele>243.8</ele><time>2026-04-19T07:46:01.903Z</time></trkpt><trkpt lat="44.8134358" lon="9.8143185"><ele>242.0</ele><time>2026-04-19T07:46:02.893Z</time></trkpt><trkpt lat="44.8133574" lon="9.814203"><ele>242.0</ele><time>2026-04-19T07:46:03.896Z</time></trkpt><trkpt lat="44.8132777" lon="9.8140936"><ele>242.0</ele><time>2026-04-19T07:46:04.901Z</time></trkpt><trkpt lat="44.8132015" lon="9.8139833"><ele>242.0</ele><time>2026-04-19T07:46:05.896Z</time></trkpt><trkpt lat="44.8131284" lon="9.8138785"><ele>242.0</ele><time>2026-04-19T07:46:06.897Z</time></trkpt><trkpt lat="44.8130571" lon="9.8137672"><ele>242.0</ele><time>2026-04-19T07:46:07.884Z</time></trkpt><trkpt lat="44.8129829" lon="9.8136658"><ele>242.00000000000003</ele><time>2026-04-19T07:46:08.896Z</time></trkpt><trkpt lat="44.8129128" lon="9.8135661"><ele>242.0</ele><time>2026-04-19T07:46:09.906Z</time></trkpt><trkpt lat="44.8128471" lon="9.8134788"><ele>242.0</ele><time>2026-04-19T07:46:10.906Z</time></trkpt><trkpt lat="44.8127798" lon="9.8133954"><ele>242.0</ele><time>2026-04-19T07:46:11.897Z</time></trkpt><trkpt lat="44.8127085" lon="9.8133249"><ele>242.00000000000003</ele><time>2026-04-19T07:46:12.9Z</time></trkpt><trkpt lat="44.8126474" lon="9.8132481"><ele>242.0</ele><time>2026-04-19T07:46:13.9Z</time></trkpt><trkpt lat="44.8125868" lon="9.8131823"><ele>242.33333333333334</ele><time>2026-04-19T07:46:14.896Z</time></trkpt><trkpt lat="44.8125297" lon="9.8131141"><ele>242.66666666666669</ele><time>2026-04-19T07:46:15.879Z</time></trkpt><trkpt lat="44.8124755" lon="9.8130454"><ele>243.0</ele><time>2026-04-19T07:46:16.902Z</time></trkpt><trkpt lat="44.812428" lon="9.8129821"><ele>243.33333333333331</ele><time>2026-04-19T07:46:17.874Z</time></trkpt><trkpt lat="44.8123802" lon="9.8129218"><ele>243.66666666666666</ele><time>2026-04-19T07:46:18.893Z</time></trkpt><trkpt lat="44.8122866" lon="9.8128126"><ele>244.0</ele><time>2026-04-19T07:46:20.896Z</time></trkpt><trkpt lat="44.8122046" lon="9.8127215"><ele>243.16666666666666</ele><time>2026-04-19T07:46:22.904Z</time></trkpt><trkpt lat="44.8121393" lon="9.8126325"><ele>242.33333333333331</ele><time>2026-04-19T07:46:24.902Z</time></trkpt><trkpt lat="44.8120736" lon="9.8125513"><ele>241.5</ele><time>2026-04-19T07:46:26.898Z</time></trkpt><trkpt lat="44.8120058" lon="9.8124935"><ele>240.66666666666669</ele><time>2026-04-19T07:46:28.902Z</time></trkpt><trkpt lat="44.8119511" lon="9.8124163"><ele>239.83333333333334</ele><time>2026-04-19T07:46:30.884Z</time></trkpt><trkpt lat="44.811903" lon="9.8123517"><ele>239.0</ele><time>2026-04-19T07:46:32.894Z</time></trkpt><trkpt lat="44.8118789" lon="9.8122578"><ele>239.00000000000003</ele><time>2026-04-19T07:46:34.884Z</time></trkpt><trkpt lat="44.811888" lon="9.8121599"><ele>239.0</ele><time>2026-04-19T07:46:36.897Z</time></trkpt><trkpt lat="44.811933" lon="9.8120589"><ele>239.0</ele><time>2026-04-19T07:46:38.861Z</time></trkpt><trkpt lat="44.8119923" lon="9.8119801"><ele>239.0</ele><time>2026-04-19T07:46:40.896Z</time></trkpt><trkpt lat="44.8120478" lon="9.8118975"><ele>239.00000000000003</ele><time>2026-04-19T07:46:42.892Z</time></trkpt><trkpt lat="44.8121037" lon="9.8118121"><ele>239.0</ele><time>2026-04-19T07:46:44.897Z</time></trkpt><trkpt lat="44.8121596" lon="9.8117306"><ele>239.83333333333334</ele><time>2026-04-19T07:46:46.905Z</time></trkpt><trkpt lat="44.8122214" lon="9.8116709"><ele>240.66666666666669</ele><time>2026-04-19T07:46:48.873Z</time></trkpt><trkpt lat="44.8122825" lon="9.8115936"><ele>241.5</ele><time>2026-04-19T07:46:50.902Z</time></trkpt><trkpt lat="44.8123637" lon="9.8115543"><ele>242.33333333333331</ele><time>2026-04-19T07:46:52.893Z</time></trkpt><trkpt lat="44.8124345" lon="9.8115755"><ele>243.16666666666666</ele><time>2026-04-19T07:46:54.879Z</time></trkpt><trkpt lat="44.8125072" lon="9.8116351"><ele>244.0</ele><time>2026-04-19T07:46:57.894Z</time></trkpt><trkpt lat="44.8125694" lon="9.8116646"><ele>243.99999999999997</ele><time>2026-04-19T07:47:00.899Z</time></trkpt><trkpt lat="44.81264" lon="9.8116537"><ele>244.0</ele><time>2026-04-19T07:47:04.903Z</time></trkpt><trkpt lat="44.8126957" lon="9.8115846"><ele>243.99999999999997</ele><time>2026-04-19T07:47:08.88Z</time></trkpt><trkpt lat="44.8126759" lon="9.8114944"><ele>243.99999999999997</ele><time>2026-04-19T07:47:12.897Z</time></trkpt><trkpt lat="44.8126617" lon="9.8114067"><ele>244.0</ele><time>2026-04-19T07:47:15.899Z</time></trkpt><trkpt lat="44.8126547" lon="9.8113045"><ele>243.99999999999997</ele><time>2026-04-19T07:47:19.872Z</time></trkpt><trkpt lat="44.8126485" lon="9.8112054"><ele>243.99999999999997</ele><time>2026-04-19T07:47:23.887Z</time></trkpt><trkpt lat="44.812673" lon="9.8111228"><ele>245.57142857142856</ele><time>2026-04-19T07:47:27.894Z</time></trkpt><trkpt lat="44.8127391" lon="9.8110669"><ele>247.14285714285714</ele><time>2026-04-19T07:47:32.895Z</time></trkpt><trkpt lat="44.8128115" lon="9.8110571"><ele>248.71428571428572</ele><time>2026-04-19T07:47:36.895Z</time></trkpt><trkpt lat="44.8128812" lon="9.8110951"><ele>250.28571428571428</ele><time>2026-04-19T07:47:40.898Z</time></trkpt><trkpt lat="44.8129481" lon="9.8111228"><ele>251.8571428571429</ele><time>2026-04-19T07:47:45.894Z</time></trkpt><trkpt lat="44.8129875" lon="9.8111963"><ele>253.42857142857144</ele><time>2026-04-19T07:47:49.901Z</time></trkpt><trkpt lat="44.8130204" lon="9.8113042"><ele>255.0</ele><time>2026-04-19T07:47:53.9Z</time></trkpt><trkpt lat="44.8130495" lon="9.8114015"><ele>255.0</ele><time>2026-04-19T07:47:58.886Z</time></trkpt><trkpt lat="44.8130604" lon="9.8114948"><ele>255.00000000000003</ele><time>2026-04-19T07:48:02.893Z</time></trkpt><trkpt lat="44.8130944" lon="9.8115818"><ele>255.0</ele><time>2026-04-19T07:48:06.891Z</time></trkpt><trkpt lat="44.8131399" lon="9.8116636"><ele>255.0</ele><time>2026-04-19T07:48:10.901Z</time></trkpt><trkpt lat="44.8132024" lon="9.8117011"><ele>255.00000000000003</ele><time>2026-04-19T07:48:14.897Z</time></trkpt><trkpt lat="44.813276" lon="9.8117148"><ele>255.0</ele><time>2026-04-19T07:48:18.891Z</time></trkpt><trkpt lat="44.813338" lon="9.8116688"><ele>255.0</ele><time>2026-04-19T07:48:22.901Z</time></trkpt><trkpt lat="44.8133984" lon="9.8116351"><ele>255.0</ele><time>2026-04-19T07:48:26.903Z</time></trkpt><trkpt lat="44.8134671" lon="9.8116096"><ele>255.00000000000003</ele><time>2026-04-19T07:48:30.892Z</time></trkpt><trkpt lat="44.8135236" lon="9.8115423"><ele>255.0</ele><time>2026-04-19T07:48:34.9Z</time></trkpt><trkpt lat="44.8135835" lon="9.811506"><ele>255.0</ele><time>2026-04-19T07:48:38.898Z</time></trkpt><trkpt lat="44.8136452" lon="9.8114521"><ele>255.00000000000003</ele><time>2026-04-19T07:48:42.902Z</time></trkpt><trkpt lat="44.8137112" lon="9.8114034"><ele>255.0</ele><time>2026-04-19T07:48:46.897Z</time></trkpt><trkpt lat="44.8137756" lon="9.811347"><ele>255.0</ele><time>2026-04-19T07:48:50.898Z</time></trkpt><trkpt lat="44.8138353" lon="9.8113111"><ele>254.83333333333334</ele><time>2026-04-19T07:48:53.881Z</time></trkpt><trkpt lat="44.8138985" lon="9.8112565"><ele>254.66666666666669</ele><time>2026-04-19T07:48:57.891Z</time></trkpt><trkpt lat="44.8139673" lon="9.8112124"><ele>254.5</ele><time>2026-04-19T07:49:01.897Z</time></trkpt><trkpt lat="44.814042" lon="9.811177"><ele>254.33333333333334</ele><time>2026-04-19T07:49:05.896Z</time></trkpt><trkpt lat="44.8141157" lon="9.8111441"><ele>254.16666666666669</ele><time>2026-04-19T07:49:09.89Z</time></trkpt><trkpt lat="44.8141883" lon="9.8111255"><ele>254.0</ele><time>2026-04-19T07:49:13.907Z</time></trkpt><trkpt lat="44.8142614" lon="9.8111089"><ele>254.85714285714286</ele><time>2026-04-19T07:49:17.897Z</time></trkpt><trkpt lat="44.8143348" lon="9.8111021"><ele>255.71428571428572</ele><time>2026-04-19T07:49:21.9Z</time></trkpt><trkpt lat="44.8144066" lon="9.8110976"><ele>256.57142857142856</ele><time>2026-04-19T07:49:25.903Z</time></trkpt><trkpt lat="44.8144781" lon="9.8110851"><ele>257.42857142857144</ele><time>2026-04-19T07:49:29.894Z</time></trkpt><trkpt lat="44.8145542" lon="9.8110884"><ele>258.2857142857143</ele><time>2026-04-19T07:49:33.908Z</time></trkpt><trkpt lat="44.8146204" lon="9.8110947"><ele>259.14285714285717</ele><time>2026-04-19T07:49:37.907Z</time></trkpt><trkpt lat="44.8146911" lon="9.8111062"><ele>260.0</ele><time>2026-04-19T07:49:41.903Z</time></trkpt><trkpt lat="44.8147671" lon="9.811133"><ele>260.00000000000006</ele><time>2026-04-19T07:49:45.904Z</time></trkpt><trkpt lat="44.8148459" lon="9.8111577"><ele>260.0</ele><time>2026-04-19T07:49:49.904Z</time></trkpt><trkpt lat="44.814915" lon="9.8111845"><ele>260.0</ele><time>2026-04-19T07:49:53.9Z</time></trkpt><trkpt lat="44.8149891" lon="9.8112111"><ele>260.0</ele><time>2026-04-19T07:49:57.9Z</time></trkpt><trkpt lat="44.815058" lon="9.8112294"><ele>260.0</ele><time>2026-04-19T07:50:01.902Z</time></trkpt><trkpt lat="44.8151302" lon="9.811235"><ele>260.00000000000006</ele><time>2026-04-19T07:50:05.905Z</time></trkpt><trkpt lat="44.815194" lon="9.8112393"><ele>260.0</ele><time>2026-04-19T07:50:08.897Z</time></trkpt><trkpt lat="44.8152769" lon="9.8112367"><ele>260.83333333333337</ele><time>2026-04-19T07:50:12.919Z</time></trkpt><trkpt lat="44.8153486" lon="9.8112176"><ele>261.6666666666667</ele><time>2026-04-19T07:50:16.901Z</time></trkpt><trkpt lat="44.8154129" lon="9.8111759"><ele>262.5</ele><time>2026-04-19T07:50:19.904Z</time></trkpt><trkpt lat="44.8154791" lon="9.8111099"><ele>263.3333333333333</ele><time>2026-04-19T07:50:23.894Z</time></trkpt><trkpt lat="44.8155109" lon="9.8110255"><ele>264.16666666666663</ele><time>2026-04-19T07:50:27.901Z</time></trkpt><trkpt lat="44.8155554" lon="9.8109246"><ele>265.0</ele><time>2026-04-19T07:50:31.893Z</time></trkpt><trkpt lat="44.8155883" lon="9.8108263"><ele>266.3333333333333</ele><time>2026-04-19T07:50:35.905Z</time></trkpt><trkpt lat="44.8156273" lon="9.8107242"><ele>267.66666666666663</ele><time>2026-04-19T07:50:39.901Z</time></trkpt><trkpt lat="44.8156484" lon="9.8106189"><ele>269.0</ele><time>2026-04-19T07:50:43.908Z</time></trkpt><trkpt lat="44.8156787" lon="9.8105208"><ele>270.3333333333333</ele><time>2026-04-19T07:50:47.895Z</time></trkpt><trkpt lat="44.815712" lon="9.8104218"><ele>271.6666666666667</ele><time>2026-04-19T07:50:51.902Z</time></trkpt><trkpt lat="44.8157405" lon="9.810321"><ele>273.0</ele><time>2026-04-19T07:50:55.894Z</time></trkpt><trkpt lat="44.8157573" lon="9.8102221"><ele>274.0</ele><time>2026-04-19T07:50:59.906Z</time></trkpt><trkpt lat="44.8157905" lon="9.8101223"><ele>275.0</ele><time>2026-04-19T07:51:03.899Z</time></trkpt><trkpt lat="44.8158177" lon="9.8100299"><ele>276.0</ele><time>2026-04-19T07:51:07.901Z</time></trkpt><trkpt lat="44.8158453" lon="9.8099447"><ele>277.0</ele><time>2026-04-19T07:51:11.907Z</time></trkpt><trkpt lat="44.8158884" lon="9.8098751"><ele>278.0</ele><time>2026-04-19T07:51:15.906Z</time></trkpt><trkpt lat="44.8159535" lon="9.8098315"><ele>279.0</ele><time>2026-04-19T07:51:19.903Z</time></trkpt><trkpt lat="44.8160162" lon="9.809842"><ele>280.0</ele><time>2026-04-19T07:51:22.889Z</time></trkpt><trkpt lat="44.8160953" lon="9.8098704"><ele>280.2857142857143</ele><time>2026-04-19T07:51:26.893Z</time></trkpt><trkpt lat="44.8161572" lon="9.8098887"><ele>280.57142857142856</ele><time>2026-04-19T07:51:29.906Z</time></trkpt><trkpt lat="44.8162253" lon="9.8099215"><ele>280.8571428571429</ele><time>2026-04-19T07:51:33.902Z</time></trkpt><trkpt lat="44.8163098" lon="9.8099428"><ele>281.1428571428571</ele><time>2026-04-19T07:51:37.893Z</time></trkpt><trkpt lat="44.8163864" lon="9.8099451"><ele>281.42857142857144</ele><time>2026-04-19T07:51:41.912Z</time></trkpt><trkpt lat="44.8164671" lon="9.8099501"><ele>281.7142857142857</ele><time>2026-04-19T07:51:45.904Z</time></trkpt><trkpt lat="44.8165329" lon="9.8099242"><ele>282.0</ele><time>2026-04-19T07:51:48.897Z</time></trkpt><trkpt lat="44.8166037" lon="9.8098752"><ele>282.0</ele><time>2026-04-19T07:51:52.899Z</time></trkpt><trkpt lat="44.816669" lon="9.8098158"><ele>282.0</ele><time>2026-04-19T07:51:56.904Z</time></trkpt><trkpt lat="44.816725" lon="9.8097471"><ele>282.0</ele><time>2026-04-19T07:52:00.909Z</time></trkpt><trkpt lat="44.8167697" lon="9.8096465"><ele>282.0</ele><time>2026-04-19T07:52:04.897Z</time></trkpt><trkpt lat="44.8167932" lon="9.8095294"><ele>282.0</ele><time>2026-04-19T07:52:08.905Z</time></trkpt><trkpt lat="44.8167915" lon="9.8094206"><ele>282.0</ele><time>2026-04-19T07:52:12.898Z</time></trkpt><trkpt lat="44.816782" lon="9.8093212"><ele>283.42857142857144</ele><time>2026-04-19T07:52:16.908Z</time></trkpt><trkpt lat="44.8167412" lon="9.8092289"><ele>284.85714285714283</ele><time>2026-04-19T07:52:20.907Z</time></trkpt><trkpt lat="44.816695" lon="9.8091429"><ele>286.2857142857143</ele><time>2026-04-19T07:52:24.902Z</time></trkpt><trkpt lat="44.8166457" lon="9.8090579"><ele>287.7142857142857</ele><time>2026-04-19T07:52:28.9Z</time></trkpt><trkpt lat="44.8165967" lon="9.8089913"><ele>289.14285714285717</ele><time>2026-04-19T07:52:32.906Z</time></trkpt><trkpt lat="44.8165461" lon="9.8089315"><ele>290.57142857142856</ele><time>2026-04-19T07:52:36.9Z</time></trkpt><trkpt lat="44.8164716" lon="9.8088809"><ele>292.0</ele><time>2026-04-19T07:52:40.9Z</time></trkpt><trkpt lat="44.8163978" lon="9.808839"><ele>292.0</ele><time>2026-04-19T07:52:44.892Z</time></trkpt><trkpt lat="44.8163259" lon="9.8087906"><ele>292.0</ele><time>2026-04-19T07:52:49.898Z</time></trkpt><trkpt lat="44.8162658" lon="9.8087566"><ele>292.0</ele><time>2026-04-19T07:52:52.902Z</time></trkpt><trkpt lat="44.8161896" lon="9.8087029"><ele>292.0</ele><time>2026-04-19T07:52:56.908Z</time></trkpt><trkpt lat="44.8161307" lon="9.8086702"><ele>292.0</ele><time>2026-04-19T07:52:59.908Z</time></trkpt><trkpt lat="44.8160549" lon="9.8086201"><ele>292.0</ele><time>2026-04-19T07:53:03.897Z</time></trkpt><trkpt lat="44.8159854" lon="9.8085787"><ele>291.66666666666663</ele><time>2026-04-19T07:53:07.89Z</time></trkpt><trkpt lat="44.8159044" lon="9.8085375"><ele>291.3333333333333</ele><time>2026-04-19T07:53:11.902Z</time></trkpt><trkpt lat="44.8158302" lon="9.8084907"><ele>291.0</ele><time>2026-04-19T07:53:15.897Z</time></trkpt><trkpt lat="44.8157578" lon="9.8084419"><ele>290.6666666666667</ele><time>2026-04-19T07:53:19.904Z</time></trkpt><trkpt lat="44.8156948" lon="9.8084143"><ele>290.33333333333337</ele><time>2026-04-19T07:53:22.907Z</time></trkpt><trkpt lat="44.81562" lon="9.8083675"><ele>290.0</ele><time>2026-04-19T07:53:26.904Z</time></trkpt><trkpt lat="44.8155478" lon="9.8083212"><ele>292.0</ele><time>2026-04-19T07:53:30.904Z</time></trkpt><trkpt lat="44.8154748" lon="9.808283"><ele>294.0</ele><time>2026-04-19T07:53:34.909Z</time></trkpt><trkpt lat="44.8154071" lon="9.8082314"><ele>296.0</ele><time>2026-04-19T07:53:38.897Z</time></trkpt><trkpt lat="44.815337" lon="9.8081855"><ele>298.0</ele><time>2026-04-19T07:53:42.898Z</time></trkpt><trkpt lat="44.8152679" lon="9.8081318"><ele>300.0</ele><time>2026-04-19T07:53:46.906Z</time></trkpt><trkpt lat="44.8152145" lon="9.808067"><ele>302.0</ele><time>2026-04-19T07:53:50.915Z</time></trkpt><trkpt lat="44.8151614" lon="9.8079905"><ele>302.0</ele><time>2026-04-19T07:53:54.901Z</time></trkpt><trkpt lat="44.8151284" lon="9.8078943"><ele>302.0</ele><time>2026-04-19T07:53:58.904Z</time></trkpt><trkpt lat="44.8150927" lon="9.807786"><ele>302.0</ele><time>2026-04-19T07:54:02.907Z</time></trkpt><trkpt lat="44.81507" lon="9.8076881"><ele>302.0</ele><time>2026-04-19T07:54:06.898Z</time></trkpt><trkpt lat="44.8150446" lon="9.8075808"><ele>302.0</ele><time>2026-04-19T07:54:10.909Z</time></trkpt><trkpt lat="44.815014" lon="9.807503"><ele>302.0</ele><time>2026-04-19T07:54:13.905Z</time></trkpt><trkpt lat="44.8149796" lon="9.8074044"><ele>303.33333333333337</ele><time>2026-04-19T07:54:17.891Z</time></trkpt><trkpt lat="44.8149446" lon="9.8072996"><ele>304.6666666666667</ele><time>2026-04-19T07:54:21.896Z</time></trkpt><trkpt lat="44.8149061" lon="9.8072005"><ele>306.0</ele><time>2026-04-19T07:54:25.9Z</time></trkpt><trkpt lat="44.8148894" lon="9.8070877"><ele>307.3333333333333</ele><time>2026-04-19T07:54:29.899Z</time></trkpt><trkpt lat="44.8149049" lon="9.8070001"><ele>308.66666666666663</ele><time>2026-04-19T07:54:32.916Z</time></trkpt><trkpt lat="44.8149547" lon="9.8069238"><ele>310.0</ele><time>2026-04-19T07:54:36.899Z</time></trkpt><trkpt lat="44.8150326" lon="9.806924"><ele>310.0</ele><time>2026-04-19T07:54:40.904Z</time></trkpt><trkpt lat="44.8151023" lon="9.8069885"><ele>310.0</ele><time>2026-04-19T07:54:44.905Z</time></trkpt><trkpt lat="44.8151661" lon="9.8070596"><ele>310.0</ele><time>2026-04-19T07:54:48.904Z</time></trkpt><trkpt lat="44.8152312" lon="9.8071372"><ele>310.0</ele><time>2026-04-19T07:54:52.9Z</time></trkpt><trkpt lat="44.8152833" lon="9.8071988"><ele>310.0</ele><time>2026-04-19T07:54:55.902Z</time></trkpt><trkpt lat="44.8153447" lon="9.8072725"><ele>310.0</ele><time>2026-04-19T07:54:59.907Z</time></trkpt><trkpt lat="44.8153934" lon="9.807331"><ele>310.7142857142857</ele><time>2026-04-19T07:55:02.905Z</time></trkpt><trkpt lat="44.8154546" lon="9.8074"><ele>311.42857142857144</ele><time>2026-04-19T07:55:06.896Z</time></trkpt><trkpt lat="44.815518" lon="9.8074841"><ele>312.1428571428571</ele><time>2026-04-19T07:55:10.902Z</time></trkpt><trkpt lat="44.8155739" lon="9.8075284"><ele>312.8571428571429</ele><time>2026-04-19T07:55:13.897Z</time></trkpt><trkpt lat="44.8156478" lon="9.8075761"><ele>313.57142857142856</ele><time>2026-04-19T07:55:17.893Z</time></trkpt><trkpt lat="44.8157137" lon="9.8075951"><ele>314.2857142857143</ele><time>2026-04-19T07:55:20.909Z</time></trkpt><trkpt lat="44.8157766" lon="9.8075852"><ele>315.0</ele><time>2026-04-19T07:55:23.905Z</time></trkpt><trkpt lat="44.8158446" lon="9.8075242"><ele>315.0</ele><time>2026-04-19T07:55:27.899Z</time></trkpt><trkpt lat="44.8158635" lon="9.8074336"><ele>315.0</ele><time>2026-04-19T07:56:42.909Z</time></trkpt><trkpt lat="44.8158308" lon="9.8073575"><ele>315.0</ele><time>2026-04-19T07:57:05.911Z</time></trkpt><trkpt lat="44.8157871" lon="9.8072898"><ele>315.0</ele><time>2026-04-19T07:57:09.892Z</time></trkpt><trkpt lat="44.8157249" lon="9.807226"><ele>315.0</ele><time>2026-04-19T07:57:13.9Z</time></trkpt><trkpt lat="44.8156612" lon="9.8071799"><ele>315.0</ele><time>2026-04-19T07:57:17.884Z</time></trkpt><trkpt lat="44.8155909" lon="9.8071177"><ele>315.0</ele><time>2026-04-19T07:57:21.903Z</time></trkpt><trkpt lat="44.8155303" lon="9.8070337"><ele>315.0</ele><time>2026-04-19T07:57:25.912Z</time></trkpt><trkpt lat="44.8154854" lon="9.8069467"><ele>315.0</ele><time>2026-04-19T07:57:29.896Z</time></trkpt><trkpt lat="44.8154448" lon="9.8068537"><ele>315.0</ele><time>2026-04-19T07:57:33.909Z</time></trkpt><trkpt lat="44.8153931" lon="9.8067684"><ele>315.0</ele><time>2026-04-19T07:57:37.905Z</time></trkpt><trkpt lat="44.815352" lon="9.8066779"><ele>315.0</ele><time>2026-04-19T07:57:41.89Z</time></trkpt><trkpt lat="44.8153216" lon="9.8065883"><ele>315.0</ele><time>2026-04-19T07:57:45.869Z</time></trkpt><trkpt lat="44.815288" lon="9.8065082"><ele>315.0</ele><time>2026-04-19T07:57:48.919Z</time></trkpt><trkpt lat="44.8152584" lon="9.8064145"><ele>315.57142857142856</ele><time>2026-04-19T07:57:52.904Z</time></trkpt><trkpt lat="44.8152306" lon="9.8063155"><ele>316.1428571428571</ele><time>2026-04-19T07:57:56.902Z</time></trkpt><trkpt lat="44.8151948" lon="9.806221"><ele>316.7142857142857</ele><time>2026-04-19T07:58:00.902Z</time></trkpt><trkpt lat="44.8151712" lon="9.8061241"><ele>317.2857142857143</ele><time>2026-04-19T07:58:04.9Z</time></trkpt><trkpt lat="44.8151315" lon="9.8060552"><ele>317.85714285714283</ele><time>2026-04-19T07:58:07.91Z</time></trkpt><trkpt lat="44.8150984" lon="9.8059596"><ele>318.42857142857144</ele><time>2026-04-19T07:58:11.913Z</time></trkpt><trkpt lat="44.8150706" lon="9.8058599"><ele>319.0</ele><time>2026-04-19T07:58:15.885Z</time></trkpt><trkpt lat="44.8150368" lon="9.8057585"><ele>320.42857142857144</ele><time>2026-04-19T07:58:19.897Z</time></trkpt><trkpt lat="44.8150003" lon="9.805669"><ele>321.85714285714283</ele><time>2026-04-19T07:58:23.879Z</time></trkpt><trkpt lat="44.8149655" lon="9.8055839"><ele>323.2857142857143</ele><time>2026-04-19T07:58:27.901Z</time></trkpt><trkpt lat="44.8149191" lon="9.8054993"><ele>324.7142857142857</ele><time>2026-04-19T07:58:31.905Z</time></trkpt><trkpt lat="44.8148706" lon="9.8054177"><ele>326.1428571428571</ele><time>2026-04-19T07:58:35.899Z</time></trkpt><trkpt lat="44.8148126" lon="9.8053502"><ele>327.57142857142856</ele><time>2026-04-19T07:58:39.898Z</time></trkpt><trkpt lat="44.8147537" lon="9.8052918"><ele>329.0</ele><time>2026-04-19T07:58:43.905Z</time></trkpt><trkpt lat="44.8146883" lon="9.8052574"><ele>329.0</ele><time>2026-04-19T07:58:47.911Z</time></trkpt><trkpt lat="44.8146318" lon="9.8052103"><ele>329.0</ele><time>2026-04-19T07:58:51.906Z</time></trkpt><trkpt lat="44.8145675" lon="9.8051688"><ele>329.0</ele><time>2026-04-19T07:58:55.904Z</time></trkpt><trkpt lat="44.814508" lon="9.8051248"><ele>329.0</ele><time>2026-04-19T07:58:59.914Z</time></trkpt><trkpt lat="44.8144514" lon="9.8050855"><ele>329.0</ele><time>2026-04-19T07:59:03.904Z</time></trkpt><trkpt lat="44.8144082" lon="9.8049907"><ele>329.0</ele><time>2026-04-19T07:59:08.904Z</time></trkpt><trkpt lat="44.8144135" lon="9.8049016"><ele>329.0</ele><time>2026-04-19T07:59:12.901Z</time></trkpt><trkpt lat="44.8144778" lon="9.8048515"><ele>330.57142857142856</ele><time>2026-04-19T07:59:17.9Z</time></trkpt><trkpt lat="44.8145512" lon="9.8048535"><ele>332.1428571428571</ele><time>2026-04-19T07:59:22.907Z</time></trkpt><trkpt lat="44.8146283" lon="9.8048648"><ele>333.7142857142857</ele><time>2026-04-19T07:59:27.905Z</time></trkpt><trkpt lat="44.8146963" lon="9.8048723"><ele>335.2857142857143</ele><time>2026-04-19T07:59:31.899Z</time></trkpt><trkpt lat="44.8147681" lon="9.8048795"><ele>336.85714285714283</ele><time>2026-04-19T07:59:35.897Z</time></trkpt><trkpt lat="44.8148378" lon="9.8048783"><ele>338.42857142857144</ele><time>2026-04-19T07:59:39.908Z</time></trkpt><trkpt lat="44.8149113" lon="9.8048816"><ele>340.0</ele><time>2026-04-19T07:59:43.901Z</time></trkpt><trkpt lat="44.8149863" lon="9.804881"><ele>340.0</ele><time>2026-04-19T07:59:47.905Z</time></trkpt><trkpt lat="44.8150589" lon="9.8048679"><ele>340.0</ele><time>2026-04-19T07:59:51.909Z</time></trkpt><trkpt lat="44.8151297" lon="9.8048736"><ele>340.0</ele><time>2026-04-19T07:59:55.894Z</time></trkpt><trkpt lat="44.815203" lon="9.8048696"><ele>340.0</ele><time>2026-04-19T07:59:59.898Z</time></trkpt><trkpt lat="44.8152772" lon="9.8048727"><ele>340.0</ele><time>2026-04-19T08:00:03.902Z</time></trkpt><trkpt lat="44.8153511" lon="9.8048661"><ele>340.0</ele><time>2026-04-19T08:00:07.899Z</time></trkpt><trkpt lat="44.8154234" lon="9.8048603"><ele>340.0</ele><time>2026-04-19T08:00:12.901Z</time></trkpt><trkpt lat="44.8154955" lon="9.8048378"><ele>340.7142857142857</ele><time>2026-04-19T08:00:16.907Z</time></trkpt><trkpt lat="44.8155742" lon="9.8048331"><ele>341.4285714285714</ele><time>2026-04-19T08:00:20.88Z</time></trkpt><trkpt lat="44.8156429" lon="9.8048012"><ele>342.1428571428571</ele><time>2026-04-19T08:00:24.908Z</time></trkpt><trkpt lat="44.8157018" lon="9.8047493"><ele>342.8571428571429</ele><time>2026-04-19T08:00:28.905Z</time></trkpt><trkpt lat="44.8157499" lon="9.8046833"><ele>343.57142857142856</ele><time>2026-04-19T08:00:32.887Z</time></trkpt><trkpt lat="44.8157957" lon="9.8046216"><ele>344.2857142857143</ele><time>2026-04-19T08:00:36.908Z</time></trkpt><trkpt lat="44.8158417" lon="9.8045452"><ele>345.0</ele><time>2026-04-19T08:00:40.907Z</time></trkpt><trkpt lat="44.8158917" lon="9.8044593"><ele>345.0</ele><time>2026-04-19T08:00:44.902Z</time></trkpt><trkpt lat="44.8159358" lon="9.8043862"><ele>345.0</ele><time>2026-04-19T08:00:48.907Z</time></trkpt><trkpt lat="44.8159772" lon="9.8043104"><ele>345.0</ele><time>2026-04-19T08:00:52.907Z</time></trkpt><trkpt lat="44.8160273" lon="9.8042266"><ele>345.0</ele><time>2026-04-19T08:00:57.9Z</time></trkpt><trkpt lat="44.8160632" lon="9.8041435"><ele>345.0</ele><time>2026-04-19T08:01:01.907Z</time></trkpt><trkpt lat="44.816091" lon="9.8040559"><ele>345.0</ele><time>2026-04-19T08:01:05.897Z</time></trkpt><trkpt lat="44.8160865" lon="9.8039655"><ele>345.0</ele><time>2026-04-19T08:01:09.909Z</time></trkpt><trkpt lat="44.8160756" lon="9.8038655"><ele>344.57142857142856</ele><time>2026-04-19T08:01:14.901Z</time></trkpt><trkpt lat="44.8160304" lon="9.8037935"><ele>344.1428571428571</ele><time>2026-04-19T08:01:18.905Z</time></trkpt><trkpt lat="44.8159923" lon="9.8037039"><ele>343.71428571428567</ele><time>2026-04-19T08:01:23.91Z</time></trkpt><trkpt lat="44.8159409" lon="9.8036417"><ele>343.2857142857143</ele><time>2026-04-19T08:01:28.913Z</time></trkpt><trkpt lat="44.8159025" lon="9.8035514"><ele>342.85714285714283</ele><time>2026-04-19T08:01:33.898Z</time></trkpt><trkpt lat="44.8158643" lon="9.8034701"><ele>342.4285714285714</ele><time>2026-04-19T08:01:39.901Z</time></trkpt><trkpt lat="44.8158268" lon="9.8033936"><ele>342.0</ele><time>2026-04-19T08:01:45.885Z</time></trkpt><trkpt lat="44.8157975" lon="9.8033143"><ele>345.1428571428571</ele><time>2026-04-19T08:01:50.906Z</time></trkpt><trkpt lat="44.8157645" lon="9.8032179"><ele>348.2857142857143</ele><time>2026-04-19T08:01:57.889Z</time></trkpt><trkpt lat="44.815737" lon="9.8031264"><ele>351.42857142857144</ele><time>2026-04-19T08:02:03.899Z</time></trkpt><trkpt lat="44.8157375" lon="9.8030368"><ele>354.57142857142856</ele><time>2026-04-19T08:02:08.89Z</time></trkpt><trkpt lat="44.8157519" lon="9.8029336"><ele>357.7142857142857</ele><time>2026-04-19T08:02:15.917Z</time></trkpt><trkpt lat="44.815772" lon="9.8028335"><ele>360.85714285714283</ele><time>2026-04-19T08:02:21.908Z</time></trkpt><trkpt lat="44.8158008" lon="9.8027478"><ele>364.0</ele><time>2026-04-19T08:02:27.899Z</time></trkpt><trkpt lat="44.8158369" lon="9.8026714"><ele>366.0</ele><time>2026-04-19T08:02:32.904Z</time></trkpt><trkpt lat="44.8158599" lon="9.8025824"><ele>368.0</ele><time>2026-04-19T08:02:37.893Z</time></trkpt><trkpt lat="44.8158994" lon="9.8024947"><ele>370.0</ele><time>2026-04-19T08:02:43.899Z</time></trkpt><trkpt lat="44.8159461" lon="9.802415"><ele>372.0</ele><time>2026-04-19T08:02:49.909Z</time></trkpt><trkpt lat="44.8159619" lon="9.802322"><ele>374.0</ele><time>2026-04-19T08:02:55.909Z</time></trkpt><trkpt lat="44.8159018" lon="9.8022754"><ele>376.0</ele><time>2026-04-19T08:03:00.89Z</time></trkpt><trkpt lat="44.8158406" lon="9.8022325"><ele>378.0</ele><time>2026-04-19T08:03:05.904Z</time></trkpt><trkpt lat="44.8157829" lon="9.8021899"><ele>378.0</ele><time>2026-04-19T08:03:10.89Z</time></trkpt><trkpt lat="44.8157209" lon="9.8021462"><ele>378.0</ele><time>2026-04-19T08:03:16.892Z</time></trkpt><trkpt lat="44.8156617" lon="9.8021025"><ele>378.0</ele><time>2026-04-19T08:03:22.896Z</time></trkpt><trkpt lat="44.8156006" lon="9.8020597"><ele>378.0</ele><time>2026-04-19T08:03:27.908Z</time></trkpt><trkpt lat="44.8155356" lon="9.8020137"><ele>378.0</ele><time>2026-04-19T08:03:33.9Z</time></trkpt><trkpt lat="44.8154688" lon="9.8019585"><ele>378.0</ele><time>2026-04-19T08:03:39.889Z</time></trkpt><trkpt lat="44.8154172" lon="9.8018875"><ele>378.0</ele><time>2026-04-19T08:03:45.894Z</time></trkpt><trkpt lat="44.8153826" lon="9.8018119"><ele>378.14285714285717</ele><time>2026-04-19T08:03:51.885Z</time></trkpt><trkpt lat="44.8153447" lon="9.8017296"><ele>378.2857142857143</ele><time>2026-04-19T08:03:57.886Z</time></trkpt><trkpt lat="44.8152906" lon="9.8016688"><ele>378.42857142857144</ele><time>2026-04-19T08:04:02.902Z</time></trkpt><trkpt lat="44.8152246" lon="9.8016564"><ele>378.57142857142856</ele><time>2026-04-19T08:04:07.901Z</time></trkpt><trkpt lat="44.8151498" lon="9.8016309"><ele>378.7142857142857</ele><time>2026-04-19T08:04:12.893Z</time></trkpt><trkpt lat="44.815087" lon="9.8015899"><ele>378.8571428571429</ele><time>2026-04-19T08:04:18.896Z</time></trkpt><trkpt lat="44.8150264" lon="9.8015448"><ele>379.0</ele><time>2026-04-19T08:04:23.902Z</time></trkpt><trkpt lat="44.8149686" lon="9.8014996"><ele>380.42857142857144</ele><time>2026-04-19T08:04:28.902Z</time></trkpt><trkpt lat="44.8149123" lon="9.8014385"><ele>381.8571428571429</ele><time>2026-04-19T08:04:34.908Z</time></trkpt><trkpt lat="44.8148752" lon="9.8013548"><ele>383.28571428571433</ele><time>2026-04-19T08:04:41.908Z</time></trkpt><trkpt lat="44.8148219" lon="9.8012777"><ele>384.7142857142857</ele><time>2026-04-19T08:04:46.882Z</time></trkpt><trkpt lat="44.814802" lon="9.8011903"><ele>386.1428571428571</ele><time>2026-04-19T08:04:50.897Z</time></trkpt><trkpt lat="44.8147524" lon="9.8011191"><ele>387.5714285714286</ele><time>2026-04-19T08:04:55.894Z</time></trkpt><trkpt lat="44.8147152" lon="9.8010448"><ele>389.0</ele><time>2026-04-19T08:05:00.9Z</time></trkpt><trkpt lat="44.8146727" lon="9.8009767"><ele>389.7142857142857</ele><time>2026-04-19T08:05:05.899Z</time></trkpt><trkpt lat="44.8146262" lon="9.8008941"><ele>390.4285714285714</ele><time>2026-04-19T08:05:10.888Z</time></trkpt><trkpt lat="44.814609" lon="9.8007928"><ele>391.1428571428571</ele><time>2026-04-19T08:05:16.904Z</time></trkpt><trkpt lat="44.8146151" lon="9.8006952"><ele>391.8571428571429</ele><time>2026-04-19T08:05:21.899Z</time></trkpt><trkpt lat="44.8146173" lon="9.8005987"><ele>392.57142857142856</ele><time>2026-04-19T08:05:25.894Z</time></trkpt><trkpt lat="44.8146129" lon="9.8005057"><ele>393.2857142857143</ele><time>2026-04-19T08:05:30.897Z</time></trkpt><trkpt lat="44.8146083" lon="9.8004014"><ele>394.0</ele><time>2026-04-19T08:05:35.905Z</time></trkpt><trkpt lat="44.8145957" lon="9.8003129"><ele>394.0</ele><time>2026-04-19T08:05:41.909Z</time></trkpt><trkpt lat="44.8145671" lon="9.8002193"><ele>394.0</ele><time>2026-04-19T08:05:47.885Z</time></trkpt><trkpt lat="44.81452" lon="9.8001305"><ele>394.0</ele><time>2026-04-19T08:05:52.9Z</time></trkpt><trkpt lat="44.8144924" lon="9.8000294"><ele>394.0</ele><time>2026-04-19T08:05:57.888Z</time></trkpt><trkpt lat="44.814449" lon="9.7999489"><ele>394.0</ele><time>2026-04-19T08:06:02.899Z</time></trkpt><trkpt lat="44.8144065" lon="9.7998677"><ele>394.0</ele><time>2026-04-19T08:06:08.898Z</time></trkpt><trkpt lat="44.814356" lon="9.799798"><ele>394.0</ele><time>2026-04-19T08:06:13.904Z</time></trkpt><trkpt lat="44.814313" lon="9.7997322"><ele>395.42857142857144</ele><time>2026-04-19T08:06:18.891Z</time></trkpt><trkpt lat="44.8142665" lon="9.7996547"><ele>396.8571428571429</ele><time>2026-04-19T08:06:23.879Z</time></trkpt><trkpt lat="44.8142044" lon="9.7995907"><ele>398.2857142857143</ele><time>2026-04-19T08:06:28.879Z</time></trkpt><trkpt lat="44.8141462" lon="9.7995269"><ele>399.7142857142857</ele><time>2026-04-19T08:06:33.905Z</time></trkpt><trkpt lat="44.8140862" lon="9.7994675"><ele>401.1428571428571</ele><time>2026-04-19T08:06:38.882Z</time></trkpt><trkpt lat="44.8140281" lon="9.7994293"><ele>402.57142857142856</ele><time>2026-04-19T08:06:43.901Z</time></trkpt><trkpt lat="44.8139787" lon="9.7993552"><ele>404.0</ele><time>2026-04-19T08:06:48.88Z</time></trkpt><trkpt lat="44.8139266" lon="9.799291"><ele>405.0</ele><time>2026-04-19T08:06:53.903Z</time></trkpt><trkpt lat="44.8138655" lon="9.7992307"><ele>406.0</ele><time>2026-04-19T08:06:58.892Z</time></trkpt><trkpt lat="44.8138022" lon="9.7991641"><ele>407.0</ele><time>2026-04-19T08:07:03.904Z</time></trkpt><trkpt lat="44.8137465" lon="9.7991001"><ele>408.0</ele><time>2026-04-19T08:07:08.893Z</time></trkpt><trkpt lat="44.8136903" lon="9.7990276"><ele>409.0</ele><time>2026-04-19T08:07:13.9Z</time></trkpt><trkpt lat="44.8136399" lon="9.7989569"><ele>410.0</ele><time>2026-04-19T08:07:18.899Z</time></trkpt><trkpt lat="44.8136" lon="9.7988815"><ele>411.0</ele><time>2026-04-19T08:07:23.905Z</time></trkpt><trkpt lat="44.8135659" lon="9.7987979"><ele>411.0</ele><time>2026-04-19T08:07:28.892Z</time></trkpt><trkpt lat="44.8135304" lon="9.7987089"><ele>411.0</ele><time>2026-04-19T08:07:33.888Z</time></trkpt><trkpt lat="44.813497" lon="9.7986136"><ele>411.0</ele><time>2026-04-19T08:07:38.904Z</time></trkpt><trkpt lat="44.8134711" lon="9.7985144"><ele>411.0</ele><time>2026-04-19T08:07:44.907Z</time></trkpt><trkpt lat="44.813453" lon="9.7984236"><ele>411.0</ele><time>2026-04-19T08:07:49.903Z</time></trkpt><trkpt lat="44.8134452" lon="9.7983144"><ele>411.0</ele><time>2026-04-19T08:07:54.9Z</time></trkpt><trkpt lat="44.8134424" lon="9.7982223"><ele>411.0</ele><time>2026-04-19T08:07:58.875Z</time></trkpt><trkpt lat="44.81345" lon="9.7981295"><ele>412.1428571428571</ele><time>2026-04-19T08:08:03.898Z</time></trkpt><trkpt lat="44.8134454" lon="9.7980343"><ele>413.2857142857143</ele><time>2026-04-19T08:08:08.874Z</time></trkpt><trkpt lat="44.8134437" lon="9.7979319"><ele>414.42857142857144</ele><time>2026-04-19T08:08:13.897Z</time></trkpt><trkpt lat="44.8134325" lon="9.7978311"><ele>415.57142857142856</ele><time>2026-04-19T08:08:18.893Z</time></trkpt><trkpt lat="44.8134068" lon="9.7977401"><ele>416.7142857142857</ele><time>2026-04-19T08:08:23.905Z</time></trkpt><trkpt lat="44.8133879" lon="9.7976437"><ele>417.85714285714283</ele><time>2026-04-19T08:08:29.894Z</time></trkpt><trkpt lat="44.8133585" lon="9.7975584"><ele>419.0</ele><time>2026-04-19T08:08:34.887Z</time></trkpt><trkpt lat="44.8133395" lon="9.7974616"><ele>420.2857142857143</ele><time>2026-04-19T08:08:39.888Z</time></trkpt><trkpt lat="44.8132993" lon="9.7973878"><ele>421.57142857142856</ele><time>2026-04-19T08:08:44.897Z</time></trkpt><trkpt lat="44.8132592" lon="9.7973058"><ele>422.8571428571429</ele><time>2026-04-19T08:08:49.892Z</time></trkpt><trkpt lat="44.8132135" lon="9.7972342"><ele>424.1428571428571</ele><time>2026-04-19T08:08:54.894Z</time></trkpt><trkpt lat="44.8131587" lon="9.7971773"><ele>425.42857142857144</ele><time>2026-04-19T08:08:59.896Z</time></trkpt><trkpt lat="44.813099" lon="9.797124"><ele>426.7142857142857</ele><time>2026-04-19T08:09:39.897Z</time></trkpt><trkpt lat="44.8130346" lon="9.7970841"><ele>428.0</ele><time>2026-04-19T08:09:44.903Z</time></trkpt><trkpt lat="44.8129904" lon="9.7970039"><ele>428.00000000000006</ele><time>2026-04-19T08:09:49.904Z</time></trkpt><trkpt lat="44.8129515" lon="9.7969337"><ele>428.0</ele><time>2026-04-19T08:09:53.909Z</time></trkpt><trkpt lat="44.8128978" lon="9.7968795"><ele>428.0</ele><time>2026-04-19T08:09:57.883Z</time></trkpt><trkpt lat="44.812839" lon="9.796826"><ele>428.0</ele><time>2026-04-19T08:10:02.893Z</time></trkpt><trkpt lat="44.8127684" lon="9.7967919"><ele>428.0</ele><time>2026-04-19T08:10:07.89Z</time></trkpt><trkpt lat="44.8127026" lon="9.7967921"><ele>428.00000000000006</ele><time>2026-04-19T08:10:11.898Z</time></trkpt><trkpt lat="44.81263" lon="9.7967667"><ele>428.0</ele><time>2026-04-19T08:10:16.891Z</time></trkpt><trkpt lat="44.8125661" lon="9.7967438"><ele>430.28571428571433</ele><time>2026-04-19T08:10:21.896Z</time></trkpt><trkpt lat="44.8125073" lon="9.7967112"><ele>432.57142857142856</ele><time>2026-04-19T08:10:26.885Z</time></trkpt><trkpt lat="44.8124412" lon="9.7966699"><ele>434.8571428571429</ele><time>2026-04-19T08:10:32.881Z</time></trkpt><trkpt lat="44.8123879" lon="9.7965949"><ele>437.14285714285717</ele><time>2026-04-19T08:10:38.884Z</time></trkpt><trkpt lat="44.8123568" lon="9.7964964"><ele>439.42857142857144</ele><time>2026-04-19T08:10:45.896Z</time></trkpt><trkpt lat="44.8123212" lon="9.7964044"><ele>441.7142857142857</ele><time>2026-04-19T08:10:51.895Z</time></trkpt><trkpt lat="44.812293" lon="9.7963048"><ele>444.0</ele><time>2026-04-19T08:10:57.897Z</time></trkpt><trkpt lat="44.8122788" lon="9.7961998"><ele>444.0</ele><time>2026-04-19T08:11:02.901Z</time></trkpt><trkpt lat="44.8122695" lon="9.796098"><ele>444.0</ele><time>2026-04-19T08:11:07.897Z</time></trkpt><trkpt lat="44.8122565" lon="9.7959908"><ele>444.0</ele><time>2026-04-19T08:11:12.89Z</time></trkpt><trkpt lat="44.8122518" lon="9.7959"><ele>444.0</ele><time>2026-04-19T08:11:17.896Z</time></trkpt><trkpt lat="44.8122457" lon="9.7957987"><ele>444.0</ele><time>2026-04-19T08:11:22.902Z</time></trkpt><trkpt lat="44.812246" lon="9.7957025"><ele>444.0</ele><time>2026-04-19T08:11:27.897Z</time></trkpt><trkpt lat="44.8122335" lon="9.7956126"><ele>444.0</ele><time>2026-04-19T08:11:31.894Z</time></trkpt><trkpt lat="44.8122362" lon="9.7955188"><ele>444.2857142857143</ele><time>2026-04-19T08:11:36.893Z</time></trkpt><trkpt lat="44.8122304" lon="9.7954222"><ele>444.5714285714286</ele><time>2026-04-19T08:11:41.897Z</time></trkpt><trkpt lat="44.8122226" lon="9.7953262"><ele>444.8571428571429</ele><time>2026-04-19T08:11:45.897Z</time></trkpt><trkpt lat="44.8122087" lon="9.7952386"><ele>445.1428571428571</ele><time>2026-04-19T08:11:49.91Z</time></trkpt><trkpt lat="44.8121825" lon="9.7951437"><ele>445.42857142857144</ele><time>2026-04-19T08:11:54.897Z</time></trkpt><trkpt lat="44.8121551" lon="9.7950583"><ele>445.7142857142857</ele><time>2026-04-19T08:11:59.908Z</time></trkpt><trkpt lat="44.8121089" lon="9.7949702"><ele>446.0</ele><time>2026-04-19T08:12:04.896Z</time></trkpt><trkpt lat="44.8120764" lon="9.7948789"><ele>447.0</ele><time>2026-04-19T08:12:09.893Z</time></trkpt><trkpt lat="44.8120464" lon="9.7947968"><ele>448.0</ele><time>2026-04-19T08:12:14.879Z</time></trkpt><trkpt lat="44.8120175" lon="9.7947046"><ele>449.0</ele><time>2026-04-19T08:12:19.896Z</time></trkpt><trkpt lat="44.8119917" lon="9.7946046"><ele>450.0</ele><time>2026-04-19T08:12:24.896Z</time></trkpt><trkpt lat="44.811989" lon="9.794508"><ele>451.0</ele><time>2026-04-19T08:12:29.894Z</time></trkpt><trkpt lat="44.8120224" lon="9.7944295"><ele>451.99999999999994</ele><time>2026-04-19T08:12:33.893Z</time></trkpt><trkpt lat="44.8120343" lon="9.7943347"><ele>452.99999999999994</ele><time>2026-04-19T08:12:37.882Z</time></trkpt><trkpt lat="44.8120453" lon="9.7942453"><ele>453.99999999999994</ele><time>2026-04-19T08:12:41.902Z</time></trkpt><trkpt lat="44.8120454" lon="9.7941484"><ele>455.0</ele><time>2026-04-19T08:12:46.895Z</time></trkpt><trkpt lat="44.8120246" lon="9.7940568"><ele>455.99999999999994</ele><time>2026-04-19T08:12:50.898Z</time></trkpt><trkpt lat="44.8119891" lon="9.7939605"><ele>456.99999999999994</ele><time>2026-04-19T08:12:55.901Z</time></trkpt><trkpt lat="44.8119902" lon="9.7938647"><ele>458.0</ele><time>2026-04-19T08:13:00.904Z</time></trkpt><trkpt lat="44.8119858" lon="9.7937623"><ele>458.99999999999994</ele><time>2026-04-19T08:13:05.898Z</time></trkpt><trkpt lat="44.8119469" lon="9.7936782"><ele>459.99999999999994</ele><time>2026-04-19T08:15:32.899Z</time></trkpt><trkpt lat="44.8118999" lon="9.793607"><ele>459.99999999999994</ele><time>2026-04-19T08:15:38.897Z</time></trkpt><trkpt lat="44.8118505" lon="9.7935315"><ele>460.0</ele><time>2026-04-19T08:15:42.897Z</time></trkpt><trkpt lat="44.8117997" lon="9.7934755"><ele>459.99999999999994</ele><time>2026-04-19T08:15:46.901Z</time></trkpt><trkpt lat="44.8117374" lon="9.7934395"><ele>459.99999999999994</ele><time>2026-04-19T08:15:50.902Z</time></trkpt><trkpt lat="44.8116739" lon="9.7933942"><ele>460.0</ele><time>2026-04-19T08:15:54.907Z</time></trkpt><trkpt lat="44.811611" lon="9.7933395"><ele>459.99999999999994</ele><time>2026-04-19T08:15:58.9Z</time></trkpt><trkpt lat="44.8115454" lon="9.7932764"><ele>459.99999999999994</ele><time>2026-04-19T08:16:03.888Z</time></trkpt><trkpt lat="44.8114813" lon="9.7932141"><ele>460.71428571428567</ele><time>2026-04-19T08:16:07.901Z</time></trkpt><trkpt lat="44.8114213" lon="9.7931602"><ele>461.42857142857144</ele><time>2026-04-19T08:16:11.902Z</time></trkpt><trkpt lat="44.8113681" lon="9.7931015"><ele>462.1428571428571</ele><time>2026-04-19T08:16:15.906Z</time></trkpt><trkpt lat="44.8113205" lon="9.7930186"><ele>462.85714285714283</ele><time>2026-04-19T08:16:20.909Z</time></trkpt><trkpt lat="44.8112749" lon="9.7929505"><ele>463.57142857142856</ele><time>2026-04-19T08:16:24.898Z</time></trkpt><trkpt lat="44.8112431" lon="9.7928576"><ele>464.2857142857143</ele><time>2026-04-19T08:16:27.882Z</time></trkpt><trkpt lat="44.8112228" lon="9.792748"><ele>465.0</ele><time>2026-04-19T08:16:30.892Z</time></trkpt><trkpt lat="44.811205" lon="9.7926506"><ele>465.0</ele><time>2026-04-19T08:16:34.892Z</time></trkpt><trkpt lat="44.8112" lon="9.7925433"><ele>465.0</ele><time>2026-04-19T08:16:38.882Z</time></trkpt><trkpt lat="44.811206" lon="9.792425"><ele>465.0</ele><time>2026-04-19T08:16:42.892Z</time></trkpt><trkpt lat="44.8112163" lon="9.7923077"><ele>465.0</ele><time>2026-04-19T08:16:45.897Z</time></trkpt><trkpt lat="44.811227" lon="9.7921898"><ele>465.0</ele><time>2026-04-19T08:16:48.912Z</time></trkpt><trkpt lat="44.8112213" lon="9.7920879"><ele>465.0</ele><time>2026-04-19T08:16:51.903Z</time></trkpt><trkpt lat="44.8112301" lon="9.7919759"><ele>465.0</ele><time>2026-04-19T08:16:54.903Z</time></trkpt><trkpt lat="44.8112379" lon="9.7918861"><ele>465.0</ele><time>2026-04-19T08:16:56.903Z</time></trkpt><trkpt lat="44.8112275" lon="9.791785"><ele>465.0</ele><time>2026-04-19T08:16:58.895Z</time></trkpt><trkpt lat="44.8112166" lon="9.7916947"><ele>465.0</ele><time>2026-04-19T08:17:00.898Z</time></trkpt><trkpt lat="44.8111727" lon="9.7915864"><ele>465.0</ele><time>2026-04-19T08:17:02.87Z</time></trkpt><trkpt lat="44.8111374" lon="9.7914924"><ele>465.0</ele><time>2026-04-19T08:17:04.908Z</time></trkpt><trkpt lat="44.8110982" lon="9.7914064"><ele>465.0</ele><time>2026-04-19T08:17:06.894Z</time></trkpt><trkpt lat="44.8110541" lon="9.7912883"><ele>464.8333333333333</ele><time>2026-04-19T08:17:09.897Z</time></trkpt><trkpt lat="44.8110276" lon="9.7911748"><ele>464.66666666666663</ele><time>2026-04-19T08:17:12.882Z</time></trkpt><trkpt lat="44.8110095" lon="9.7910591"><ele>464.5</ele><time>2026-04-19T08:17:15.877Z</time></trkpt><trkpt lat="44.8109977" lon="9.7909408"><ele>464.3333333333333</ele><time>2026-04-19T08:17:18.904Z</time></trkpt><trkpt lat="44.8109872" lon="9.7908247"><ele>464.16666666666663</ele><time>2026-04-19T08:17:21.9Z</time></trkpt><trkpt lat="44.8109831" lon="9.7907061"><ele>464.0</ele><time>2026-04-19T08:17:24.894Z</time></trkpt><trkpt lat="44.8109955" lon="9.790609"><ele>463.16666666666663</ele><time>2026-04-19T08:17:27.884Z</time></trkpt><trkpt lat="44.8110035" lon="9.7905113"><ele>462.3333333333333</ele><time>2026-04-19T08:17:30.898Z</time></trkpt><trkpt lat="44.8110112" lon="9.7904218"><ele>461.5</ele><time>2026-04-19T08:17:33.896Z</time></trkpt><trkpt lat="44.8110259" lon="9.790304"><ele>460.66666666666663</ele><time>2026-04-19T08:17:37.894Z</time></trkpt><trkpt lat="44.8109961" lon="9.7901958"><ele>459.8333333333333</ele><time>2026-04-19T08:17:40.898Z</time></trkpt><trkpt lat="44.8109769" lon="9.790096"><ele>459.0</ele><time>2026-04-19T08:17:43.904Z</time></trkpt><trkpt lat="44.8109615" lon="9.7899912"><ele>460.8571428571429</ele><time>2026-04-19T08:17:47.889Z</time></trkpt><trkpt lat="44.8109278" lon="9.789904"><ele>462.71428571428567</ele><time>2026-04-19T08:17:50.897Z</time></trkpt><trkpt lat="44.8108961" lon="9.7898109"><ele>464.57142857142856</ele><time>2026-04-19T08:17:53.894Z</time></trkpt><trkpt lat="44.8108556" lon="9.7897094"><ele>466.42857142857144</ele><time>2026-04-19T08:17:57.894Z</time></trkpt><trkpt lat="44.8108178" lon="9.789633"><ele>468.28571428571433</ele><time>2026-04-19T08:18:00.884Z</time></trkpt><trkpt lat="44.8107865" lon="9.7895543"><ele>470.1428571428571</ele><time>2026-04-19T08:18:03.9Z</time></trkpt><trkpt lat="44.8107382" lon="9.789454"><ele>472.0</ele><time>2026-04-19T08:18:07.902Z</time></trkpt><trkpt lat="44.8107093" lon="9.7893742"><ele>472.33333333333337</ele><time>2026-04-19T08:18:10.902Z</time></trkpt><trkpt lat="44.8106652" lon="9.7892772"><ele>472.6666666666667</ele><time>2026-04-19T08:18:14.886Z</time></trkpt><trkpt lat="44.8106346" lon="9.7891987"><ele>473.0</ele><time>2026-04-19T08:18:17.906Z</time></trkpt><trkpt lat="44.810608" lon="9.7890867"><ele>473.33333333333337</ele><time>2026-04-19T08:18:21.917Z</time></trkpt><trkpt lat="44.8106005" lon="9.7889813"><ele>473.6666666666667</ele><time>2026-04-19T08:18:25.893Z</time></trkpt><trkpt lat="44.8106103" lon="9.7888652"><ele>474.0</ele><time>2026-04-19T08:18:29.869Z</time></trkpt><trkpt lat="44.8106255" lon="9.7887625"><ele>473.99999999999994</ele><time>2026-04-19T08:18:33.867Z</time></trkpt><trkpt lat="44.8106471" lon="9.7886641"><ele>474.0</ele><time>2026-04-19T08:18:37.886Z</time></trkpt><trkpt lat="44.8106632" lon="9.7885579"><ele>473.99999999999994</ele><time>2026-04-19T08:18:41.881Z</time></trkpt><trkpt lat="44.8106888" lon="9.7884567"><ele>473.99999999999994</ele><time>2026-04-19T08:18:45.892Z</time></trkpt><trkpt lat="44.8107061" lon="9.788369"><ele>474.0</ele><time>2026-04-19T08:18:48.896Z</time></trkpt><trkpt lat="44.8107176" lon="9.7882663"><ele>473.99999999999994</ele><time>2026-04-19T08:18:52.898Z</time></trkpt><trkpt lat="44.8107394" lon="9.7881809"><ele>473.99999999999994</ele><time>2026-04-19T08:18:55.902Z</time></trkpt><trkpt lat="44.8107513" lon="9.7880918"><ele>474.42857142857133</ele><time>2026-04-19T08:18:58.877Z</time></trkpt><trkpt lat="44.8107551" lon="9.787975"><ele>474.85714285714283</ele><time>2026-04-19T08:19:02.897Z</time></trkpt><trkpt lat="44.81077" lon="9.7878844"><ele>475.2857142857142</ele><time>2026-04-19T08:19:05.899Z</time></trkpt><trkpt lat="44.8107785" lon="9.7877659"><ele>475.71428571428567</ele><time>2026-04-19T08:19:09.908Z</time></trkpt><trkpt lat="44.8107963" lon="9.7876805"><ele>476.1428571428571</ele><time>2026-04-19T08:19:12.868Z</time></trkpt><trkpt lat="44.810821" lon="9.7875834"><ele>476.57142857142856</ele><time>2026-04-19T08:19:16.898Z</time></trkpt><trkpt lat="44.810853" lon="9.7875039"><ele>477.0</ele><time>2026-04-19T08:19:19.899Z</time></trkpt><trkpt lat="44.8109036" lon="9.7874144"><ele>478.5</ele><time>2026-04-19T08:19:23.9Z</time></trkpt><trkpt lat="44.8109478" lon="9.7873361"><ele>480.0</ele><time>2026-04-19T08:19:26.907Z</time></trkpt><trkpt lat="44.8109976" lon="9.7872331"><ele>481.5</ele><time>2026-04-19T08:19:30.891Z</time></trkpt><trkpt lat="44.8110425" lon="9.7871611"><ele>483.0</ele><time>2026-04-19T08:19:33.895Z</time></trkpt><trkpt lat="44.811089" lon="9.7870916"><ele>484.5</ele><time>2026-04-19T08:19:36.894Z</time></trkpt><trkpt lat="44.811137" lon="9.7870002"><ele>486.0</ele><time>2026-04-19T08:19:40.895Z</time></trkpt><trkpt lat="44.8111644" lon="9.7869018"><ele>487.1666666666667</ele><time>2026-04-19T08:19:44.898Z</time></trkpt><trkpt lat="44.8111681" lon="9.7867873"><ele>488.33333333333337</ele><time>2026-04-19T08:19:48.896Z</time></trkpt><trkpt lat="44.8111273" lon="9.7867141"><ele>489.5</ele><time>2026-04-19T08:19:51.892Z</time></trkpt><trkpt lat="44.8110603" lon="9.7866455"><ele>490.6666666666667</ele><time>2026-04-19T08:19:55.893Z</time></trkpt><trkpt lat="44.8109861" lon="9.7866039"><ele>491.83333333333337</ele><time>2026-04-19T08:19:59.903Z</time></trkpt><trkpt lat="44.8109214" lon="9.7865721"><ele>493.0</ele><time>2026-04-19T08:20:03.898Z</time></trkpt><trkpt lat="44.8108498" lon="9.7865643"><ele>493.0</ele><time>2026-04-19T08:20:07.902Z</time></trkpt><trkpt lat="44.810782" lon="9.7865623"><ele>493.0</ele><time>2026-04-19T08:20:11.898Z</time></trkpt><trkpt lat="44.8107117" lon="9.7865557"><ele>493.0</ele><time>2026-04-19T08:20:15.898Z</time></trkpt><trkpt lat="44.8106413" lon="9.7865497"><ele>493.0</ele><time>2026-04-19T08:20:19.879Z</time></trkpt><trkpt lat="44.8105786" lon="9.7865159"><ele>493.0</ele><time>2026-04-19T08:20:23.908Z</time></trkpt><trkpt lat="44.8105133" lon="9.7864872"><ele>493.0</ele><time>2026-04-19T08:20:28.901Z</time></trkpt><trkpt lat="44.8104566" lon="9.786442"><ele>493.0</ele><time>2026-04-19T08:20:32.894Z</time></trkpt><trkpt lat="44.8103829" lon="9.7864105"><ele>493.0</ele><time>2026-04-19T08:20:37.884Z</time></trkpt><trkpt lat="44.810304" lon="9.7864094"><ele>493.0</ele><time>2026-04-19T08:20:42.895Z</time></trkpt><trkpt lat="44.8102294" lon="9.7864472"><ele>493.0</ele><time>2026-04-19T08:20:46.905Z</time></trkpt><trkpt lat="44.8101636" lon="9.7864672"><ele>493.0</ele><time>2026-04-19T08:20:50.902Z</time></trkpt><trkpt lat="44.81009" lon="9.7865039"><ele>493.0</ele><time>2026-04-19T08:20:54.908Z</time></trkpt><trkpt lat="44.810027" lon="9.7865219"><ele>493.0</ele><time>2026-04-19T08:20:59.9Z</time></trkpt><trkpt lat="44.8099528" lon="9.7865143"><ele>493.0</ele><time>2026-04-19T08:21:04.898Z</time></trkpt><trkpt lat="44.809888" lon="9.7864861"><ele>494.2857142857143</ele><time>2026-04-19T08:21:08.904Z</time></trkpt><trkpt lat="44.8098274" lon="9.78645"><ele>495.57142857142856</ele><time>2026-04-19T08:21:12.899Z</time></trkpt><trkpt lat="44.8097792" lon="9.7863865"><ele>496.85714285714283</ele><time>2026-04-19T08:21:16.883Z</time></trkpt><trkpt lat="44.8097257" lon="9.7863211"><ele>498.1428571428571</ele><time>2026-04-19T08:21:21.894Z</time></trkpt><trkpt lat="44.8096839" lon="9.7862509"><ele>499.42857142857144</ele><time>2026-04-19T08:21:25.908Z</time></trkpt><trkpt lat="44.8096376" lon="9.7861867"><ele>500.71428571428567</ele><time>2026-04-19T08:21:29.884Z</time></trkpt><trkpt lat="44.8095946" lon="9.7861059"><ele>501.99999999999994</ele><time>2026-04-19T08:21:34.895Z</time></trkpt><trkpt lat="44.8095428" lon="9.7860397"><ele>502.71428571428567</ele><time>2026-04-19T08:21:38.899Z</time></trkpt><trkpt lat="44.8094975" lon="9.7859709"><ele>503.42857142857144</ele><time>2026-04-19T08:21:42.891Z</time></trkpt><trkpt lat="44.8094431" lon="9.7858905"><ele>504.1428571428571</ele><time>2026-04-19T08:21:47.892Z</time></trkpt><trkpt lat="44.8093964" lon="9.7858132"><ele>504.85714285714283</ele><time>2026-04-19T08:21:51.901Z</time></trkpt><trkpt lat="44.8093469" lon="9.7857254"><ele>505.57142857142856</ele><time>2026-04-19T08:21:56.888Z</time></trkpt><trkpt lat="44.8092949" lon="9.7856534"><ele>506.2857142857143</ele><time>2026-04-19T08:22:00.889Z</time></trkpt><trkpt lat="44.8092458" lon="9.7855803"><ele>507.0</ele><time>2026-04-19T08:22:04.883Z</time></trkpt><trkpt lat="44.8092054" lon="9.7855018"><ele>507.0</ele><time>2026-04-19T08:22:08.893Z</time></trkpt><trkpt lat="44.8091489" lon="9.785455"><ele>507.0</ele><time>2026-04-19T08:22:12.901Z</time></trkpt><trkpt lat="44.8090919" lon="9.7853782"><ele>507.0</ele><time>2026-04-19T08:22:16.89Z</time></trkpt><trkpt lat="44.8090471" lon="9.7853143"><ele>507.0</ele><time>2026-04-19T08:22:20.887Z</time></trkpt><trkpt lat="44.8090026" lon="9.785248"><ele>507.0</ele><time>2026-04-19T08:22:24.89Z</time></trkpt><trkpt lat="44.8089486" lon="9.7851876"><ele>507.0</ele><time>2026-04-19T08:22:28.885Z</time></trkpt><trkpt lat="44.8088947" lon="9.7851359"><ele>507.0</ele><time>2026-04-19T08:22:32.892Z</time></trkpt><trkpt lat="44.8088509" lon="9.7850529"><ele>507.85714285714283</ele><time>2026-04-19T08:22:36.888Z</time></trkpt><trkpt lat="44.8087937" lon="9.784996"><ele>508.7142857142858</ele><time>2026-04-19T08:22:40.898Z</time></trkpt><trkpt lat="44.8087439" lon="9.7849362"><ele>509.5714285714286</ele><time>2026-04-19T08:22:44.877Z</time></trkpt><trkpt lat="44.8086979" lon="9.7848691"><ele>510.42857142857144</ele><time>2026-04-19T08:22:48.895Z</time></trkpt><trkpt lat="44.8086386" lon="9.7848051"><ele>511.28571428571433</ele><time>2026-04-19T08:22:52.901Z</time></trkpt><trkpt lat="44.8085913" lon="9.7847446"><ele>512.1428571428572</ele><time>2026-04-19T08:22:55.893Z</time></trkpt><trkpt lat="44.8085352" lon="9.7846682"><ele>513.0</ele><time>2026-04-19T08:22:59.879Z</time></trkpt><trkpt lat="44.8084903" lon="9.7846013"><ele>513.0000000000001</ele><time>2026-04-19T08:23:03.892Z</time></trkpt><trkpt lat="44.8084343" lon="9.7845347"><ele>513.0</ele><time>2026-04-19T08:23:07.902Z</time></trkpt><trkpt lat="44.8083767" lon="9.7844766"><ele>513.0</ele><time>2026-04-19T08:23:11.906Z</time></trkpt><trkpt lat="44.8083353" lon="9.7843964"><ele>513.0</ele><time>2026-04-19T08:23:15.9Z</time></trkpt><trkpt lat="44.8083057" lon="9.7843063"><ele>513.0</ele><time>2026-04-19T08:23:19.904Z</time></trkpt><trkpt lat="44.8083101" lon="9.7842016"><ele>513.0000000000001</ele><time>2026-04-19T08:23:23.9Z</time></trkpt><trkpt lat="44.8083557" lon="9.7841261"><ele>513.0</ele><time>2026-04-19T08:23:27.882Z</time></trkpt><trkpt lat="44.8084276" lon="9.7840957"><ele>514.8571428571429</ele><time>2026-04-19T08:23:31.897Z</time></trkpt><trkpt lat="44.8084945" lon="9.7840761"><ele>516.7142857142858</ele><time>2026-04-19T08:23:35.897Z</time></trkpt><trkpt lat="44.8085673" lon="9.7840597"><ele>518.5714285714286</ele><time>2026-04-19T08:23:39.894Z</time></trkpt><trkpt lat="44.8086384" lon="9.7840541"><ele>520.4285714285714</ele><time>2026-04-19T08:23:43.897Z</time></trkpt><trkpt lat="44.8087201" lon="9.7840534"><ele>522.2857142857142</ele><time>2026-04-19T08:23:47.887Z</time></trkpt><trkpt lat="44.808786" lon="9.784062"><ele>524.1428571428571</ele><time>2026-04-19T08:23:51.906Z</time></trkpt><trkpt lat="44.8088498" lon="9.7840638"><ele>526.0</ele><time>2026-04-19T08:23:54.898Z</time></trkpt><trkpt lat="44.8089251" lon="9.7840779"><ele>526.0</ele><time>2026-04-19T08:23:58.885Z</time></trkpt><trkpt lat="44.8090064" lon="9.7840995"><ele>526.0</ele><time>2026-04-19T08:24:02.902Z</time></trkpt><trkpt lat="44.8090721" lon="9.7840646"><ele>526.0</ele><time>2026-04-19T08:24:06.902Z</time></trkpt><trkpt lat="44.8091379" lon="9.7840467"><ele>526.0</ele><time>2026-04-19T08:24:10.893Z</time></trkpt><trkpt lat="44.8091912" lon="9.7839619"><ele>526.0</ele><time>2026-04-19T08:24:13.897Z</time></trkpt><trkpt lat="44.8092322" lon="9.7838767"><ele>526.0</ele><time>2026-04-19T08:24:16.903Z</time></trkpt><trkpt lat="44.8092604" lon="9.7837932"><ele>526.0</ele><time>2026-04-19T08:24:20.951Z</time></trkpt><trkpt lat="44.8092774" lon="9.7836729"><ele>526.0</ele><time>2026-04-19T08:24:23.897Z</time></trkpt><trkpt lat="44.8092739" lon="9.7835609"><ele>526.0</ele><time>2026-04-19T08:24:25.901Z</time></trkpt><trkpt lat="44.8092638" lon="9.7834514"><ele>526.0</ele><time>2026-04-19T08:24:27.893Z</time></trkpt><trkpt lat="44.8092688" lon="9.7833315"><ele>526.0</ele><time>2026-04-19T08:24:29.902Z</time></trkpt><trkpt lat="44.8092777" lon="9.7832096"><ele>526.0</ele><time>2026-04-19T08:24:31.899Z</time></trkpt><trkpt lat="44.8092946" lon="9.783087"><ele>526.0</ele><time>2026-04-19T08:24:33.894Z</time></trkpt><trkpt lat="44.8093165" lon="9.7829742"><ele>524.1428571428571</ele><time>2026-04-19T08:24:35.895Z</time></trkpt><trkpt lat="44.8093403" lon="9.782874"><ele>522.2857142857142</ele><time>2026-04-19T08:24:37.902Z</time></trkpt><trkpt lat="44.8093574" lon="9.7827794"><ele>520.4285714285714</ele><time>2026-04-19T08:24:39.895Z</time></trkpt><trkpt lat="44.8093739" lon="9.7826857"><ele>518.5714285714286</ele><time>2026-04-19T08:24:41.898Z</time></trkpt><trkpt lat="44.8093939" lon="9.7825892"><ele>516.7142857142858</ele><time>2026-04-19T08:24:43.902Z</time></trkpt><trkpt lat="44.8094228" lon="9.7824804"><ele>514.8571428571429</ele><time>2026-04-19T08:24:45.903Z</time></trkpt><trkpt lat="44.8094448" lon="9.7823775"><ele>513.0</ele><time>2026-04-19T08:24:47.904Z</time></trkpt><trkpt lat="44.8094614" lon="9.7822805"><ele>513.0</ele><time>2026-04-19T08:24:49.884Z</time></trkpt><trkpt lat="44.809481" lon="9.7821849"><ele>513.0</ele><time>2026-04-19T08:24:51.898Z</time></trkpt><trkpt lat="44.8094904" lon="9.7820866"><ele>513.0</ele><time>2026-04-19T08:24:53.902Z</time></trkpt><trkpt lat="44.8095049" lon="9.7819999"><ele>513.0</ele><time>2026-04-19T08:24:55.899Z</time></trkpt><trkpt lat="44.8095231" lon="9.7818768"><ele>513.0</ele><time>2026-04-19T08:24:58.894Z</time></trkpt><trkpt lat="44.8095349" lon="9.7817457"><ele>513.0</ele><time>2026-04-19T08:25:01.891Z</time></trkpt><trkpt lat="44.8095599" lon="9.781634"><ele>514.1666666666666</ele><time>2026-04-19T08:25:04.898Z</time></trkpt><trkpt lat="44.8095728" lon="9.781513"><ele>515.3333333333334</ele><time>2026-04-19T08:25:07.903Z</time></trkpt><trkpt lat="44.8095779" lon="9.7814062"><ele>516.5</ele><time>2026-04-19T08:25:10.901Z</time></trkpt><trkpt lat="44.8095901" lon="9.7812996"><ele>517.6666666666667</ele><time>2026-04-19T08:25:13.898Z</time></trkpt><trkpt lat="44.8095904" lon="9.781193"><ele>518.8333333333334</ele><time>2026-04-19T08:25:16.912Z</time></trkpt><trkpt lat="44.8096049" lon="9.7810709"><ele>520.0</ele><time>2026-04-19T08:25:19.886Z</time></trkpt><trkpt lat="44.8096154" lon="9.780948"><ele>521.8333333333334</ele><time>2026-04-19T08:25:22.901Z</time></trkpt><trkpt lat="44.8096292" lon="9.7808208"><ele>523.6666666666667</ele><time>2026-04-19T08:25:25.892Z</time></trkpt><trkpt lat="44.8096409" lon="9.7807"><ele>525.5</ele><time>2026-04-19T08:25:28.901Z</time></trkpt><trkpt lat="44.8096438" lon="9.7806099"><ele>527.3333333333334</ele><time>2026-04-19T08:25:31.897Z</time></trkpt><trkpt lat="44.8096244" lon="9.7804975"><ele>529.1666666666666</ele><time>2026-04-19T08:25:35.917Z</time></trkpt><trkpt lat="44.8096075" lon="9.7804053"><ele>531.0</ele><time>2026-04-19T08:25:39.906Z</time></trkpt><trkpt lat="44.8095622" lon="9.7803402"><ele>531.0</ele><time>2026-04-19T08:25:45.898Z</time></trkpt><trkpt lat="44.8095497" lon="9.7802496"><ele>531.0</ele><time>2026-04-19T08:27:17.891Z</time></trkpt><trkpt lat="44.8094757" lon="9.780255"><ele>531.0</ele><time>2026-04-19T08:30:29.882Z</time></trkpt><trkpt lat="44.8094098" lon="9.7802131"><ele>531.0</ele><time>2026-04-19T08:30:34.892Z</time></trkpt><trkpt lat="44.8093541" lon="9.7801704"><ele>531.0</ele><time>2026-04-19T08:30:37.894Z</time></trkpt><trkpt lat="44.8092975" lon="9.7801137"><ele>531.0</ele><time>2026-04-19T08:30:40.905Z</time></trkpt><trkpt lat="44.8092285" lon="9.7800521"><ele>531.0</ele><time>2026-04-19T08:30:43.898Z</time></trkpt><trkpt lat="44.8091617" lon="9.7799807"><ele>531.0</ele><time>2026-04-19T08:30:46.895Z</time></trkpt><trkpt lat="44.8090923" lon="9.7798961"><ele>531.0</ele><time>2026-04-19T08:30:49.897Z</time></trkpt><trkpt lat="44.8090407" lon="9.7798309"><ele>531.0</ele><time>2026-04-19T08:30:51.902Z</time></trkpt><trkpt lat="44.8089962" lon="9.7797458"><ele>531.0</ele><time>2026-04-19T08:30:53.918Z</time></trkpt><trkpt lat="44.8089536" lon="9.7796563"><ele>531.0</ele><time>2026-04-19T08:30:55.898Z</time></trkpt><trkpt lat="44.8089271" lon="9.7795549"><ele>531.0</ele><time>2026-04-19T08:30:57.897Z</time></trkpt><trkpt lat="44.8089126" lon="9.7794286"><ele>530.6</ele><time>2026-04-19T08:30:59.902Z</time></trkpt><trkpt lat="44.8089248" lon="9.7793118"><ele>530.2</ele><time>2026-04-19T08:31:01.9Z</time></trkpt><trkpt lat="44.8089645" lon="9.779199"><ele>529.8</ele><time>2026-04-19T08:31:03.904Z</time></trkpt><trkpt lat="44.8090314" lon="9.7790785"><ele>529.4</ele><time>2026-04-19T08:31:05.896Z</time></trkpt><trkpt lat="44.8090874" lon="9.7789552"><ele>529.0</ele><time>2026-04-19T08:31:07.892Z</time></trkpt><trkpt lat="44.8091269" lon="9.7788236"><ele>529.0</ele><time>2026-04-19T08:31:09.896Z</time></trkpt><trkpt lat="44.8091178" lon="9.7786717"><ele>529.0</ele><time>2026-04-19T08:31:11.897Z</time></trkpt><trkpt lat="44.8090869" lon="9.7785252"><ele>529.0</ele><time>2026-04-19T08:31:13.897Z</time></trkpt><trkpt lat="44.8090399" lon="9.7783892"><ele>529.0</ele><time>2026-04-19T08:31:15.89Z</time></trkpt><trkpt lat="44.8089957" lon="9.7782469"><ele>529.0</ele><time>2026-04-19T08:31:17.897Z</time></trkpt><trkpt lat="44.8089594" lon="9.7780941"><ele>528.8333333333334</ele><time>2026-04-19T08:31:19.893Z</time></trkpt><trkpt lat="44.8089175" lon="9.7779344"><ele>528.6666666666667</ele><time>2026-04-19T08:31:21.9Z</time></trkpt><trkpt lat="44.8088722" lon="9.7777788"><ele>528.5</ele><time>2026-04-19T08:31:23.906Z</time></trkpt><trkpt lat="44.8088473" lon="9.7776966"><ele>528.3333333333334</ele><time>2026-04-19T08:31:24.906Z</time></trkpt><trkpt lat="44.8088167" lon="9.7776104"><ele>528.1666666666666</ele><time>2026-04-19T08:31:25.903Z</time></trkpt><trkpt lat="44.8087897" lon="9.7775227"><ele>528.0</ele><time>2026-04-19T08:31:26.896Z</time></trkpt><trkpt lat="44.8087457" lon="9.7773617"><ele>526.8</ele><time>2026-04-19T08:31:28.895Z</time></trkpt><trkpt lat="44.8087007" lon="9.7772019"><ele>525.5999999999999</ele><time>2026-04-19T08:31:30.901Z</time></trkpt><trkpt lat="44.8086592" lon="9.7770573"><ele>524.4000000000001</ele><time>2026-04-19T08:31:32.894Z</time></trkpt><trkpt lat="44.8086203" lon="9.7769265"><ele>523.2</ele><time>2026-04-19T08:31:34.897Z</time></trkpt><trkpt lat="44.8085852" lon="9.7767951"><ele>522.0</ele><time>2026-04-19T08:31:36.867Z</time></trkpt><trkpt lat="44.8085463" lon="9.7766617"><ele>521.6</ele><time>2026-04-19T08:31:38.899Z</time></trkpt><trkpt lat="44.8085042" lon="9.7765278"><ele>521.2</ele><time>2026-04-19T08:31:40.9Z</time></trkpt><trkpt lat="44.808463" lon="9.7763912"><ele>520.8</ele><time>2026-04-19T08:31:42.898Z</time></trkpt><trkpt lat="44.8084267" lon="9.776251"><ele>520.4</ele><time>2026-04-19T08:31:44.905Z</time></trkpt><trkpt lat="44.808385" lon="9.776117"><ele>520.0</ele><time>2026-04-19T08:31:46.91Z</time></trkpt><trkpt lat="44.8083353" lon="9.7759846"><ele>520.0</ele><time>2026-04-19T08:31:48.909Z</time></trkpt><trkpt lat="44.8082648" lon="9.7758562"><ele>520.0</ele><time>2026-04-19T08:31:50.908Z</time></trkpt><trkpt lat="44.8081896" lon="9.7757426"><ele>520.0</ele><time>2026-04-19T08:31:52.904Z</time></trkpt><trkpt lat="44.8080991" lon="9.7756472"><ele>520.0</ele><time>2026-04-19T08:31:54.889Z</time></trkpt><trkpt lat="44.8080197" lon="9.7755535"><ele>520.0</ele><time>2026-04-19T08:31:56.905Z</time></trkpt><trkpt lat="44.8079227" lon="9.7754642"><ele>520.0</ele><time>2026-04-19T08:31:58.901Z</time></trkpt><trkpt lat="44.8078327" lon="9.7753754"><ele>520.0</ele><time>2026-04-19T08:32:00.895Z</time></trkpt><trkpt lat="44.8077524" lon="9.7752724"><ele>520.0</ele><time>2026-04-19T08:32:02.898Z</time></trkpt><trkpt lat="44.8076707" lon="9.775165"><ele>520.0</ele><time>2026-04-19T08:32:04.899Z</time></trkpt><trkpt lat="44.8075763" lon="9.7750648"><ele>520.0</ele><time>2026-04-19T08:32:06.898Z</time></trkpt><trkpt lat="44.8074836" lon="9.7749673"><ele>519.5</ele><time>2026-04-19T08:32:08.905Z</time></trkpt><trkpt lat="44.8073859" lon="9.7748638"><ele>519.0</ele><time>2026-04-19T08:32:10.899Z</time></trkpt><trkpt lat="44.8072995" lon="9.7747575"><ele>518.5</ele><time>2026-04-19T08:32:12.896Z</time></trkpt><trkpt lat="44.8072221" lon="9.7746448"><ele>518.0</ele><time>2026-04-19T08:32:14.901Z</time></trkpt><trkpt lat="44.8071707" lon="9.7745216"><ele>518.0</ele><time>2026-04-19T08:32:16.9Z</time></trkpt><trkpt lat="44.8071448" lon="9.7743937"><ele>518.0</ele><time>2026-04-19T08:32:18.901Z</time></trkpt><trkpt lat="44.8071256" lon="9.7742767"><ele>518.0</ele><time>2026-04-19T08:32:20.903Z</time></trkpt><trkpt lat="44.8071176" lon="9.7741511"><ele>518.0</ele><time>2026-04-19T08:32:22.904Z</time></trkpt><trkpt lat="44.8071061" lon="9.7740323"><ele>518.0</ele><time>2026-04-19T08:32:24.903Z</time></trkpt><trkpt lat="44.8071016" lon="9.7739262"><ele>518.0</ele><time>2026-04-19T08:32:26.908Z</time></trkpt><trkpt lat="44.8070851" lon="9.7738179"><ele>516.6666666666666</ele><time>2026-04-19T08:32:28.898Z</time></trkpt><trkpt lat="44.8070677" lon="9.773707"><ele>515.3333333333333</ele><time>2026-04-19T08:32:30.899Z</time></trkpt><trkpt lat="44.8070413" lon="9.7735837"><ele>514.0</ele><time>2026-04-19T08:32:32.9Z</time></trkpt><trkpt lat="44.8070145" lon="9.7734732"><ele>512.6666666666666</ele><time>2026-04-19T08:32:34.898Z</time></trkpt><trkpt lat="44.8069873" lon="9.7733472"><ele>511.3333333333333</ele><time>2026-04-19T08:32:36.895Z</time></trkpt><trkpt lat="44.8069643" lon="9.7732108"><ele>510.0</ele><time>2026-04-19T08:32:38.899Z</time></trkpt><trkpt lat="44.8069357" lon="9.7730766"><ele>509.8</ele><time>2026-04-19T08:32:40.893Z</time></trkpt><trkpt lat="44.806899" lon="9.7729506"><ele>509.6</ele><time>2026-04-19T08:32:42.91Z</time></trkpt><trkpt lat="44.8068714" lon="9.7728232"><ele>509.4</ele><time>2026-04-19T08:32:44.901Z</time></trkpt><trkpt lat="44.8068384" lon="9.7727103"><ele>509.2</ele><time>2026-04-19T08:32:46.904Z</time></trkpt><trkpt lat="44.806818" lon="9.7725896"><ele>509.0</ele><time>2026-04-19T08:32:48.897Z</time></trkpt><trkpt lat="44.806791" lon="9.7724612"><ele>510.49999999999994</ele><time>2026-04-19T08:32:50.893Z</time></trkpt><trkpt lat="44.8067616" lon="9.7723364"><ele>512.0</ele><time>2026-04-19T08:32:52.909Z</time></trkpt><trkpt lat="44.8067335" lon="9.7722184"><ele>513.5</ele><time>2026-04-19T08:32:54.892Z</time></trkpt><trkpt lat="44.8067111" lon="9.7721027"><ele>515.0</ele><time>2026-04-19T08:32:56.904Z</time></trkpt><trkpt lat="44.8066859" lon="9.7719845"><ele>516.5</ele><time>2026-04-19T08:32:58.903Z</time></trkpt><trkpt lat="44.8066605" lon="9.7718784"><ele>518.0</ele><time>2026-04-19T08:33:00.895Z</time></trkpt><trkpt lat="44.8066359" lon="9.771777"><ele>518.1428571428571</ele><time>2026-04-19T08:33:02.898Z</time></trkpt><trkpt lat="44.806615" lon="9.7716811"><ele>518.2857142857142</ele><time>2026-04-19T08:33:04.904Z</time></trkpt><trkpt lat="44.8065748" lon="9.7715839"><ele>518.4285714285714</ele><time>2026-04-19T08:33:06.893Z</time></trkpt><trkpt lat="44.8065392" lon="9.7714922"><ele>518.5714285714286</ele><time>2026-04-19T08:33:08.906Z</time></trkpt><trkpt lat="44.8065048" lon="9.7714068"><ele>518.7142857142857</ele><time>2026-04-19T08:33:10.902Z</time></trkpt><trkpt lat="44.8064663" lon="9.771327"><ele>518.8571428571429</ele><time>2026-04-19T08:33:12.901Z</time></trkpt><trkpt lat="44.8064174" lon="9.7712475"><ele>519.0</ele><time>2026-04-19T08:33:14.898Z</time></trkpt><trkpt lat="44.8063783" lon="9.7711584"><ele>519.0</ele><time>2026-04-19T08:33:16.902Z</time></trkpt><trkpt lat="44.8063369" lon="9.7710684"><ele>519.0</ele><time>2026-04-19T08:33:18.892Z</time></trkpt><trkpt lat="44.8062857" lon="9.7709761"><ele>519.0</ele><time>2026-04-19T08:33:20.89Z</time></trkpt><trkpt lat="44.8062389" lon="9.7708718"><ele>519.0</ele><time>2026-04-19T08:33:22.885Z</time></trkpt><trkpt lat="44.8061983" lon="9.7707644"><ele>519.0</ele><time>2026-04-19T08:33:24.898Z</time></trkpt><trkpt lat="44.806157" lon="9.7706585"><ele>519.0</ele><time>2026-04-19T08:33:26.899Z</time></trkpt><trkpt lat="44.806118" lon="9.7705286"><ele>518.8</ele><time>2026-04-19T08:33:28.903Z</time></trkpt><trkpt lat="44.8060859" lon="9.7703928"><ele>518.5999999999999</ele><time>2026-04-19T08:33:30.892Z</time></trkpt><trkpt lat="44.8060561" lon="9.7702586"><ele>518.4</ele><time>2026-04-19T08:33:32.903Z</time></trkpt><trkpt lat="44.806018" lon="9.7701364"><ele>518.1999999999999</ele><time>2026-04-19T08:33:34.907Z</time></trkpt><trkpt lat="44.805986" lon="9.7700189"><ele>518.0</ele><time>2026-04-19T08:33:36.9Z</time></trkpt><trkpt lat="44.8059426" lon="9.7699087"><ele>518.5</ele><time>2026-04-19T08:33:38.923Z</time></trkpt><trkpt lat="44.8058913" lon="9.7698038"><ele>519.0</ele><time>2026-04-19T08:33:40.901Z</time></trkpt><trkpt lat="44.805841" lon="9.7697058"><ele>519.5</ele><time>2026-04-19T08:33:42.893Z</time></trkpt><trkpt lat="44.8057903" lon="9.7696166"><ele>520.0</ele><time>2026-04-19T08:33:44.901Z</time></trkpt><trkpt lat="44.8057446" lon="9.7695209"><ele>520.5</ele><time>2026-04-19T08:33:46.903Z</time></trkpt><trkpt lat="44.8056881" lon="9.7694284"><ele>521.0</ele><time>2026-04-19T08:33:48.897Z</time></trkpt><trkpt lat="44.8056247" lon="9.7693311"><ele>521.0</ele><time>2026-04-19T08:33:50.894Z</time></trkpt><trkpt lat="44.8055667" lon="9.7692487"><ele>521.0</ele><time>2026-04-19T08:33:52.907Z</time></trkpt><trkpt lat="44.8055049" lon="9.7691657"><ele>521.0</ele><time>2026-04-19T08:33:54.899Z</time></trkpt><trkpt lat="44.8054547" lon="9.7690803"><ele>521.0</ele><time>2026-04-19T08:33:56.906Z</time></trkpt><trkpt lat="44.8054116" lon="9.7689792"><ele>521.0</ele><time>2026-04-19T08:33:58.905Z</time></trkpt><trkpt lat="44.8053762" lon="9.7688777"><ele>521.0</ele><time>2026-04-19T08:34:00.905Z</time></trkpt><trkpt lat="44.8053683" lon="9.7687607"><ele>521.0</ele><time>2026-04-19T08:34:02.871Z</time></trkpt><trkpt lat="44.8053759" lon="9.7686518"><ele>521.0</ele><time>2026-04-19T08:34:04.874Z</time></trkpt><trkpt lat="44.8053926" lon="9.7685451"><ele>521.0</ele><time>2026-04-19T08:34:06.9Z</time></trkpt><trkpt lat="44.8054106" lon="9.7684408"><ele>521.0</ele><time>2026-04-19T08:34:08.867Z</time></trkpt><trkpt lat="44.8054258" lon="9.7683389"><ele>521.0</ele><time>2026-04-19T08:34:10.904Z</time></trkpt><trkpt lat="44.8054384" lon="9.7682291"><ele>521.0</ele><time>2026-04-19T08:34:12.884Z</time></trkpt><trkpt lat="44.8054433" lon="9.7681291"><ele>520.6666666666666</ele><time>2026-04-19T08:34:14.872Z</time></trkpt><trkpt lat="44.8054465" lon="9.7680327"><ele>520.3333333333333</ele><time>2026-04-19T08:34:16.892Z</time></trkpt><trkpt lat="44.8054492" lon="9.7679431"><ele>520.0</ele><time>2026-04-19T08:34:18.88Z</time></trkpt><trkpt lat="44.8054337" lon="9.7678219"><ele>519.6666666666666</ele><time>2026-04-19T08:34:20.884Z</time></trkpt><trkpt lat="44.8054222" lon="9.7677051"><ele>519.3333333333334</ele><time>2026-04-19T08:34:22.899Z</time></trkpt><trkpt lat="44.8053951" lon="9.767586"><ele>519.0</ele><time>2026-04-19T08:34:24.907Z</time></trkpt><trkpt lat="44.8053719" lon="9.7674633"><ele>519.0</ele><time>2026-04-19T08:34:26.889Z</time></trkpt><trkpt lat="44.8053399" lon="9.7673332"><ele>519.0</ele><time>2026-04-19T08:34:28.901Z</time></trkpt><trkpt lat="44.8052989" lon="9.7671938"><ele>519.0</ele><time>2026-04-19T08:34:30.892Z</time></trkpt><trkpt lat="44.8052541" lon="9.7670582"><ele>519.0</ele><time>2026-04-19T08:34:32.903Z</time></trkpt><trkpt lat="44.8052042" lon="9.7669246"><ele>519.0</ele><time>2026-04-19T08:34:34.897Z</time></trkpt><trkpt lat="44.8051474" lon="9.7667716"><ele>521.6</ele><time>2026-04-19T08:34:36.905Z</time></trkpt><trkpt lat="44.8051185" lon="9.7666909"><ele>524.2</ele><time>2026-04-19T08:34:37.887Z</time></trkpt><trkpt lat="44.8050684" lon="9.7665375"><ele>526.8000000000001</ele><time>2026-04-19T08:34:39.898Z</time></trkpt><trkpt lat="44.8050314" lon="9.7663765"><ele>529.4</ele><time>2026-04-19T08:34:41.909Z</time></trkpt><trkpt lat="44.8049978" lon="9.7662354"><ele>532.0</ele><time>2026-04-19T08:34:43.897Z</time></trkpt><trkpt lat="44.8049602" lon="9.7661013"><ele>531.5</ele><time>2026-04-19T08:34:45.913Z</time></trkpt><trkpt lat="44.8049168" lon="9.7659928"><ele>531.0</ele><time>2026-04-19T08:34:47.892Z</time></trkpt><trkpt lat="44.8048658" lon="9.7658918"><ele>530.5</ele><time>2026-04-19T08:34:49.904Z</time></trkpt><trkpt lat="44.8048129" lon="9.7657944"><ele>530.0</ele><time>2026-04-19T08:34:51.894Z</time></trkpt><trkpt lat="44.8047621" lon="9.7656934"><ele>529.5</ele><time>2026-04-19T08:34:53.902Z</time></trkpt><trkpt lat="44.804719" lon="9.7655947"><ele>529.0</ele><time>2026-04-19T08:34:55.904Z</time></trkpt><trkpt lat="44.8046832" lon="9.7654784"><ele>529.0</ele><time>2026-04-19T08:34:57.899Z</time></trkpt><trkpt lat="44.8046589" lon="9.7653583"><ele>529.0</ele><time>2026-04-19T08:34:59.908Z</time></trkpt><trkpt lat="44.8046418" lon="9.7652428"><ele>529.0</ele><time>2026-04-19T08:35:01.881Z</time></trkpt><trkpt lat="44.8046447" lon="9.7651393"><ele>529.0</ele><time>2026-04-19T08:35:03.896Z</time></trkpt><trkpt lat="44.8046598" lon="9.765021"><ele>529.0</ele><time>2026-04-19T08:35:05.898Z</time></trkpt><trkpt lat="44.804683" lon="9.7649147"><ele>529.0</ele><time>2026-04-19T08:35:07.904Z</time></trkpt><trkpt lat="44.8047147" lon="9.76481"><ele>529.0</ele><time>2026-04-19T08:35:09.913Z</time></trkpt><trkpt lat="44.8047408" lon="9.7647038"><ele>529.0</ele><time>2026-04-19T08:35:11.905Z</time></trkpt><trkpt lat="44.8047684" lon="9.7646071"><ele>529.0</ele><time>2026-04-19T08:35:13.901Z</time></trkpt><trkpt lat="44.8047957" lon="9.7645045"><ele>529.0</ele><time>2026-04-19T08:35:15.897Z</time></trkpt><trkpt lat="44.804816" lon="9.7644062"><ele>529.0</ele><time>2026-04-19T08:35:17.9Z</time></trkpt><trkpt lat="44.8048367" lon="9.7643142"><ele>529.0</ele><time>2026-04-19T08:35:19.892Z</time></trkpt><trkpt lat="44.8048571" lon="9.7642146"><ele>529.0</ele><time>2026-04-19T08:35:21.907Z</time></trkpt><trkpt lat="44.8048812" lon="9.7641085"><ele>529.0</ele><time>2026-04-19T08:35:23.913Z</time></trkpt><trkpt lat="44.8049156" lon="9.7640021"><ele>529.0</ele><time>2026-04-19T08:35:25.901Z</time></trkpt><trkpt lat="44.8049612" lon="9.7638925"><ele>529.0</ele><time>2026-04-19T08:35:27.903Z</time></trkpt><trkpt lat="44.805046" lon="9.763808"><ele>529.0</ele><time>2026-04-19T08:35:29.905Z</time></trkpt><trkpt lat="44.8051016" lon="9.7637628"><ele>529.0</ele><time>2026-04-19T08:35:30.914Z</time></trkpt><trkpt lat="44.8051642" lon="9.7637297"><ele>529.0</ele><time>2026-04-19T08:35:31.905Z</time></trkpt><trkpt lat="44.8052295" lon="9.7637078"><ele>528.0</ele><time>2026-04-19T08:35:32.898Z</time></trkpt><trkpt lat="44.8052945" lon="9.7636964"><ele>527.0</ele><time>2026-04-19T08:35:33.889Z</time></trkpt><trkpt lat="44.805366" lon="9.7636913"><ele>526.0</ele><time>2026-04-19T08:35:34.911Z</time></trkpt><trkpt lat="44.8054341" lon="9.7636949"><ele>525.0</ele><time>2026-04-19T08:35:35.905Z</time></trkpt><trkpt lat="44.805509" lon="9.7637069"><ele>524.0</ele><time>2026-04-19T08:35:36.907Z</time></trkpt><trkpt lat="44.8055826" lon="9.7637296"><ele>523.0</ele><time>2026-04-19T08:35:37.897Z</time></trkpt><trkpt lat="44.8056461" lon="9.7637628"><ele>522.0</ele><time>2026-04-19T08:35:38.887Z</time></trkpt><trkpt lat="44.8057181" lon="9.7637879"><ele>522.0</ele><time>2026-04-19T08:35:39.912Z</time></trkpt><trkpt lat="44.8057867" lon="9.7637948"><ele>522.0</ele><time>2026-04-19T08:35:40.899Z</time></trkpt><trkpt lat="44.8058567" lon="9.763789"><ele>522.0</ele><time>2026-04-19T08:35:41.901Z</time></trkpt><trkpt lat="44.8059233" lon="9.7637719"><ele>522.0</ele><time>2026-04-19T08:35:42.909Z</time></trkpt><trkpt lat="44.8059884" lon="9.7637311"><ele>522.0</ele><time>2026-04-19T08:35:43.907Z</time></trkpt><trkpt lat="44.8060582" lon="9.7636968"><ele>522.0</ele><time>2026-04-19T08:35:44.902Z</time></trkpt><trkpt lat="44.8061269" lon="9.7636713"><ele>522.0</ele><time>2026-04-19T08:35:45.901Z</time></trkpt><trkpt lat="44.8061995" lon="9.7636704"><ele>521.3333333333334</ele><time>2026-04-19T08:35:46.893Z</time></trkpt><trkpt lat="44.8062832" lon="9.7636988"><ele>520.6666666666666</ele><time>2026-04-19T08:35:47.899Z</time></trkpt><trkpt lat="44.8063579" lon="9.7637393"><ele>520.0</ele><time>2026-04-19T08:35:48.905Z</time></trkpt><trkpt lat="44.8064248" lon="9.7637928"><ele>519.3333333333333</ele><time>2026-04-19T08:35:49.909Z</time></trkpt><trkpt lat="44.8064934" lon="9.7638449"><ele>518.6666666666666</ele><time>2026-04-19T08:35:50.907Z</time></trkpt><trkpt lat="44.8065724" lon="9.763883"><ele>518.0</ele><time>2026-04-19T08:35:51.912Z</time></trkpt><trkpt lat="44.8066486" lon="9.7638977"><ele>518.0</ele><time>2026-04-19T08:35:52.904Z</time></trkpt><trkpt lat="44.8067344" lon="9.7638989"><ele>518.0</ele><time>2026-04-19T08:35:53.895Z</time></trkpt><trkpt lat="44.806826" lon="9.763883"><ele>518.0</ele><time>2026-04-19T08:35:54.91Z</time></trkpt><trkpt lat="44.8069208" lon="9.7638587"><ele>518.0</ele><time>2026-04-19T08:35:55.901Z</time></trkpt><trkpt lat="44.8070151" lon="9.763818"><ele>518.0</ele><time>2026-04-19T08:35:56.895Z</time></trkpt><trkpt lat="44.8071045" lon="9.7637639"><ele>517.1666666666666</ele><time>2026-04-19T08:35:57.911Z</time></trkpt><trkpt lat="44.8071805" lon="9.7637191"><ele>516.3333333333333</ele><time>2026-04-19T08:35:58.904Z</time></trkpt><trkpt lat="44.8072573" lon="9.7636914"><ele>515.5</ele><time>2026-04-19T08:35:59.893Z</time></trkpt><trkpt lat="44.8073316" lon="9.7637175"><ele>514.6666666666666</ele><time>2026-04-19T08:36:00.901Z</time></trkpt><trkpt lat="44.8074029" lon="9.7637625"><ele>513.8333333333334</ele><time>2026-04-19T08:36:01.903Z</time></trkpt><trkpt lat="44.8074733" lon="9.7638234"><ele>513.0</ele><time>2026-04-19T08:36:02.904Z</time></trkpt><trkpt lat="44.8075334" lon="9.7639074"><ele>513.0</ele><time>2026-04-19T08:36:03.903Z</time></trkpt><trkpt lat="44.8076024" lon="9.7639773"><ele>513.0</ele><time>2026-04-19T08:36:04.903Z</time></trkpt><trkpt lat="44.8076646" lon="9.7640435"><ele>513.0</ele><time>2026-04-19T08:36:05.882Z</time></trkpt><trkpt lat="44.8077352" lon="9.7641145"><ele>513.0</ele><time>2026-04-19T08:36:06.903Z</time></trkpt><trkpt lat="44.8078039" lon="9.7641829"><ele>513.0</ele><time>2026-04-19T08:36:07.903Z</time></trkpt><trkpt lat="44.8078595" lon="9.7642544"><ele>513.0</ele><time>2026-04-19T08:36:08.903Z</time></trkpt><trkpt lat="44.8079207" lon="9.7643076"><ele>512.6666666666666</ele><time>2026-04-19T08:36:09.908Z</time></trkpt><trkpt lat="44.8079819" lon="9.7643393"><ele>512.3333333333334</ele><time>2026-04-19T08:36:10.908Z</time></trkpt><trkpt lat="44.808048" lon="9.7643517"><ele>512.0</ele><time>2026-04-19T08:36:11.89Z</time></trkpt><trkpt lat="44.8081202" lon="9.7643447"><ele>511.6666666666667</ele><time>2026-04-19T08:36:12.905Z</time></trkpt><trkpt lat="44.8082069" lon="9.7643354"><ele>511.33333333333337</ele><time>2026-04-19T08:36:13.9Z</time></trkpt><trkpt lat="44.808293" lon="9.7643326"><ele>511.0</ele><time>2026-04-19T08:36:14.895Z</time></trkpt><trkpt lat="44.8083743" lon="9.7643322"><ele>511.0</ele><time>2026-04-19T08:36:15.899Z</time></trkpt><trkpt lat="44.8084542" lon="9.7643301"><ele>511.0</ele><time>2026-04-19T08:36:16.896Z</time></trkpt><trkpt lat="44.8085257" lon="9.7643105"><ele>511.0</ele><time>2026-04-19T08:36:17.895Z</time></trkpt><trkpt lat="44.808586" lon="9.7642585"><ele>511.0</ele><time>2026-04-19T08:36:18.886Z</time></trkpt><trkpt lat="44.808643" lon="9.7641976"><ele>511.0</ele><time>2026-04-19T08:36:19.9Z</time></trkpt><trkpt lat="44.8086903" lon="9.7641243"><ele>511.0</ele><time>2026-04-19T08:36:20.907Z</time></trkpt><trkpt lat="44.8087336" lon="9.7640285"><ele>511.0</ele><time>2026-04-19T08:36:21.893Z</time></trkpt><trkpt lat="44.8087634" lon="9.7639331"><ele>510.00000000000006</ele><time>2026-04-19T08:36:22.881Z</time></trkpt><trkpt lat="44.8087941" lon="9.7638396"><ele>509.0</ele><time>2026-04-19T08:36:23.91Z</time></trkpt><trkpt lat="44.808824" lon="9.7637504"><ele>508.0</ele><time>2026-04-19T08:36:24.891Z</time></trkpt><trkpt lat="44.808851" lon="9.7636613"><ele>507.0</ele><time>2026-04-19T08:36:25.908Z</time></trkpt><trkpt lat="44.8088768" lon="9.7635645"><ele>506.00000000000006</ele><time>2026-04-19T08:36:26.901Z</time></trkpt><trkpt lat="44.8089241" lon="9.7634078"><ele>505.0</ele><time>2026-04-19T08:36:28.903Z</time></trkpt><trkpt lat="44.8090035" lon="9.7633151"><ele>505.0</ele><time>2026-04-19T08:36:30.904Z</time></trkpt><trkpt lat="44.8091025" lon="9.7632615"><ele>505.0</ele><time>2026-04-19T08:36:32.9Z</time></trkpt><trkpt lat="44.8091858" lon="9.7631728"><ele>505.0</ele><time>2026-04-19T08:36:34.898Z</time></trkpt><trkpt lat="44.8092081" lon="9.7630099"><ele>505.0</ele><time>2026-04-19T08:36:36.9Z</time></trkpt><trkpt lat="44.8092151" lon="9.7629119"><ele>505.0</ele><time>2026-04-19T08:36:37.901Z</time></trkpt><trkpt lat="44.8092015" lon="9.7627397"><ele>504.83333333333337</ele><time>2026-04-19T08:36:39.905Z</time></trkpt><trkpt lat="44.8091915" lon="9.7626499"><ele>504.6666666666667</ele><time>2026-04-19T08:36:40.906Z</time></trkpt><trkpt lat="44.8092023" lon="9.7624708"><ele>504.5</ele><time>2026-04-19T08:36:42.904Z</time></trkpt><trkpt lat="44.8092237" lon="9.762371"><ele>504.33333333333337</ele><time>2026-04-19T08:36:43.892Z</time></trkpt><trkpt lat="44.8092437" lon="9.7622785"><ele>504.1666666666667</ele><time>2026-04-19T08:36:44.897Z</time></trkpt><trkpt lat="44.8092635" lon="9.7621868"><ele>504.0</ele><time>2026-04-19T08:36:45.89Z</time></trkpt><trkpt lat="44.8092859" lon="9.7620962"><ele>504.0</ele><time>2026-04-19T08:36:46.898Z</time></trkpt><trkpt lat="44.8093063" lon="9.7619336"><ele>504.0</ele><time>2026-04-19T08:36:48.905Z</time></trkpt><trkpt lat="44.8093288" lon="9.7617775"><ele>504.0</ele><time>2026-04-19T08:36:50.9Z</time></trkpt><trkpt lat="44.8093444" lon="9.7616369"><ele>504.0</ele><time>2026-04-19T08:36:52.915Z</time></trkpt><trkpt lat="44.8093594" lon="9.7615018"><ele>504.0</ele><time>2026-04-19T08:36:54.903Z</time></trkpt><trkpt lat="44.8093793" lon="9.7613506"><ele>501.4</ele><time>2026-04-19T08:36:56.897Z</time></trkpt><trkpt lat="44.8094117" lon="9.761185"><ele>498.79999999999995</ele><time>2026-04-19T08:36:58.9Z</time></trkpt><trkpt lat="44.8094292" lon="9.7610985"><ele>496.20000000000005</ele><time>2026-04-19T08:36:59.905Z</time></trkpt><trkpt lat="44.8094468" lon="9.7610111"><ele>493.6</ele><time>2026-04-19T08:37:00.904Z</time></trkpt><trkpt lat="44.80947" lon="9.7608444"><ele>491.0</ele><time>2026-04-19T08:37:02.9Z</time></trkpt><trkpt lat="44.8094852" lon="9.7606725"><ele>490.6</ele><time>2026-04-19T08:37:04.903Z</time></trkpt><trkpt lat="44.8094916" lon="9.7605081"><ele>490.20000000000005</ele><time>2026-04-19T08:37:06.904Z</time></trkpt><trkpt lat="44.8094983" lon="9.7603553"><ele>489.79999999999995</ele><time>2026-04-19T08:37:08.886Z</time></trkpt><trkpt lat="44.809504" lon="9.7602165"><ele>489.4</ele><time>2026-04-19T08:37:10.9Z</time></trkpt><trkpt lat="44.8095127" lon="9.7600837"><ele>489.0</ele><time>2026-04-19T08:37:12.893Z</time></trkpt><trkpt lat="44.8095197" lon="9.7599781"><ele>489.8333333333333</ele><time>2026-04-19T08:37:14.893Z</time></trkpt><trkpt lat="44.8095314" lon="9.7598508"><ele>490.66666666666663</ele><time>2026-04-19T08:37:16.895Z</time></trkpt><trkpt lat="44.8095371" lon="9.7597313"><ele>491.5</ele><time>2026-04-19T08:37:18.901Z</time></trkpt><trkpt lat="44.8095386" lon="9.7596156"><ele>492.3333333333333</ele><time>2026-04-19T08:37:20.911Z</time></trkpt><trkpt lat="44.8095449" lon="9.7594951"><ele>493.16666666666663</ele><time>2026-04-19T08:37:22.902Z</time></trkpt><trkpt lat="44.8095416" lon="9.7593919"><ele>494.0</ele><time>2026-04-19T08:37:24.867Z</time></trkpt><trkpt lat="44.8095443" lon="9.7592974"><ele>494.66666666666663</ele><time>2026-04-19T08:37:27.9Z</time></trkpt><trkpt lat="44.8096194" lon="9.7593004"><ele>495.3333333333333</ele><time>2026-04-19T08:37:30.898Z</time></trkpt><trkpt lat="44.8096911" lon="9.7593121"><ele>496.0</ele><time>2026-04-19T08:37:32.893Z</time></trkpt><trkpt lat="44.8097797" lon="9.7593297"><ele>496.66666666666663</ele><time>2026-04-19T08:37:34.904Z</time></trkpt><trkpt lat="44.8098673" lon="9.7593371"><ele>497.3333333333333</ele><time>2026-04-19T08:37:36.905Z</time></trkpt><trkpt lat="44.8099584" lon="9.7593388"><ele>498.0</ele><time>2026-04-19T08:37:38.88Z</time></trkpt><trkpt lat="44.8100609" lon="9.759341"><ele>498.0</ele><time>2026-04-19T08:37:40.908Z</time></trkpt><trkpt lat="44.8101573" lon="9.7593314"><ele>497.99999999999994</ele><time>2026-04-19T08:37:42.902Z</time></trkpt><trkpt lat="44.8102808" lon="9.7593399"><ele>497.99999999999994</ele><time>2026-04-19T08:37:44.901Z</time></trkpt><trkpt lat="44.8103515" lon="9.7593337"><ele>498.0</ele><time>2026-04-19T08:37:45.904Z</time></trkpt><trkpt lat="44.810416" lon="9.7593341"><ele>498.0</ele><time>2026-04-19T08:37:46.899Z</time></trkpt><trkpt lat="44.810543" lon="9.7593226"><ele>496.0</ele><time>2026-04-19T08:37:48.906Z</time></trkpt><trkpt lat="44.8106525" lon="9.759326"><ele>493.99999999999994</ele><time>2026-04-19T08:37:50.886Z</time></trkpt><trkpt lat="44.8107257" lon="9.7593387"><ele>491.99999999999994</ele><time>2026-04-19T08:37:52.914Z</time></trkpt><trkpt lat="44.8107998" lon="9.7593644"><ele>490.0</ele><time>2026-04-19T08:37:54.914Z</time></trkpt><trkpt lat="44.8108961" lon="9.7593989"><ele>488.0</ele><time>2026-04-19T08:37:56.903Z</time></trkpt><trkpt lat="44.8109879" lon="9.7594276"><ele>486.59999999999997</ele><time>2026-04-19T08:37:58.906Z</time></trkpt><trkpt lat="44.8110824" lon="9.7594558"><ele>485.19999999999993</ele><time>2026-04-19T08:38:00.905Z</time></trkpt><trkpt lat="44.8111776" lon="9.7594801"><ele>483.8</ele><time>2026-04-19T08:38:02.91Z</time></trkpt><trkpt lat="44.8112749" lon="9.7594773"><ele>482.4</ele><time>2026-04-19T08:38:04.912Z</time></trkpt><trkpt lat="44.8113646" lon="9.7594643"><ele>481.0</ele><time>2026-04-19T08:38:06.909Z</time></trkpt><trkpt lat="44.8114758" lon="9.7594827"><ele>481.00000000000006</ele><time>2026-04-19T08:38:08.904Z</time></trkpt><trkpt lat="44.8115398" lon="9.7594886"><ele>481.0</ele><time>2026-04-19T08:38:09.896Z</time></trkpt><trkpt lat="44.8116045" lon="9.7594876"><ele>481.0</ele><time>2026-04-19T08:38:10.911Z</time></trkpt><trkpt lat="44.8116692" lon="9.7594883"><ele>481.0</ele><time>2026-04-19T08:38:11.886Z</time></trkpt><trkpt lat="44.8117882" lon="9.7594705"><ele>481.00000000000006</ele><time>2026-04-19T08:38:13.895Z</time></trkpt><trkpt lat="44.8119012" lon="9.7594637"><ele>481.0</ele><time>2026-04-19T08:38:15.894Z</time></trkpt><trkpt lat="44.8120117" lon="9.7594627"><ele>478.4</ele><time>2026-04-19T08:38:17.905Z</time></trkpt><trkpt lat="44.8121043" lon="9.7594721"><ele>475.8</ele><time>2026-04-19T08:38:19.911Z</time></trkpt><trkpt lat="44.8122057" lon="9.7594736"><ele>473.19999999999993</ele><time>2026-04-19T08:38:21.909Z</time></trkpt><trkpt lat="44.8122913" lon="9.7594786"><ele>470.59999999999997</ele><time>2026-04-19T08:38:23.902Z</time></trkpt><trkpt lat="44.8123766" lon="9.7594662"><ele>468.0</ele><time>2026-04-19T08:38:25.902Z</time></trkpt><trkpt lat="44.8124841" lon="9.7594286"><ele>468.0</ele><time>2026-04-19T08:38:27.899Z</time></trkpt><trkpt lat="44.8126021" lon="9.7593986"><ele>467.99999999999994</ele><time>2026-04-19T08:38:29.893Z</time></trkpt><trkpt lat="44.8127261" lon="9.7593617"><ele>467.99999999999994</ele><time>2026-04-19T08:38:31.908Z</time></trkpt><trkpt lat="44.8127933" lon="9.7593376"><ele>468.0</ele><time>2026-04-19T08:38:32.89Z</time></trkpt><trkpt lat="44.8128974" lon="9.7592782"><ele>468.0</ele><time>2026-04-19T08:38:34.898Z</time></trkpt><trkpt lat="44.8129574" lon="9.7592478"><ele>466.79999999999995</ele><time>2026-04-19T08:38:35.901Z</time></trkpt><trkpt lat="44.8130676" lon="9.7591707"><ele>465.59999999999997</ele><time>2026-04-19T08:38:37.906Z</time></trkpt><trkpt lat="44.8131261" lon="9.759131"><ele>464.40000000000003</ele><time>2026-04-19T08:38:38.9Z</time></trkpt><trkpt lat="44.813188" lon="9.7590971"><ele>463.20000000000005</ele><time>2026-04-19T08:38:39.9Z</time></trkpt><trkpt lat="44.813299" lon="9.7590347"><ele>462.0</ele><time>2026-04-19T08:38:41.911Z</time></trkpt><trkpt lat="44.8134061" lon="9.758979"><ele>460.6</ele><time>2026-04-19T08:38:43.901Z</time></trkpt><trkpt lat="44.8135168" lon="9.7589293"><ele>459.20000000000005</ele><time>2026-04-19T08:38:45.905Z</time></trkpt><trkpt lat="44.8136132" lon="9.7588905"><ele>457.8</ele><time>2026-04-19T08:38:47.904Z</time></trkpt><trkpt lat="44.8137109" lon="9.7588822"><ele>456.4</ele><time>2026-04-19T08:38:49.9Z</time></trkpt><trkpt lat="44.8138159" lon="9.7589363"><ele>455.0</ele><time>2026-04-19T08:38:51.902Z</time></trkpt><trkpt lat="44.8139296" lon="9.7590107"><ele>455.0</ele><time>2026-04-19T08:38:53.908Z</time></trkpt><trkpt lat="44.8140407" lon="9.7590709"><ele>455.0</ele><time>2026-04-19T08:38:55.892Z</time></trkpt><trkpt lat="44.8141414" lon="9.759123"><ele>455.0</ele><time>2026-04-19T08:38:57.908Z</time></trkpt><trkpt lat="44.8142555" lon="9.7591938"><ele>455.0</ele><time>2026-04-19T08:38:59.902Z</time></trkpt><trkpt lat="44.8143132" lon="9.7592361"><ele>455.0</ele><time>2026-04-19T08:39:00.902Z</time></trkpt><trkpt lat="44.8143709" lon="9.7592738"><ele>454.42857142857144</ele><time>2026-04-19T08:39:01.896Z</time></trkpt><trkpt lat="44.8144897" lon="9.7593277"><ele>453.8571428571429</ele><time>2026-04-19T08:39:03.899Z</time></trkpt><trkpt lat="44.814553" lon="9.7593428"><ele>453.2857142857143</ele><time>2026-04-19T08:39:04.909Z</time></trkpt><trkpt lat="44.8146151" lon="9.7593602"><ele>452.7142857142857</ele><time>2026-04-19T08:39:05.903Z</time></trkpt><trkpt lat="44.8146808" lon="9.7593723"><ele>452.14285714285717</ele><time>2026-04-19T08:39:06.905Z</time></trkpt><trkpt lat="44.8147439" lon="9.7593881"><ele>451.57142857142856</ele><time>2026-04-19T08:39:07.899Z</time></trkpt><trkpt lat="44.8148075" lon="9.7594069"><ele>451.0</ele><time>2026-04-19T08:39:08.903Z</time></trkpt><trkpt lat="44.814925" lon="9.759436"><ele>451.0</ele><time>2026-04-19T08:39:10.909Z</time></trkpt><trkpt lat="44.8149895" lon="9.7594469"><ele>451.0</ele><time>2026-04-19T08:39:11.901Z</time></trkpt><trkpt lat="44.8151083" lon="9.7594689"><ele>451.0</ele><time>2026-04-19T08:39:13.912Z</time></trkpt><trkpt lat="44.8152265" lon="9.7594761"><ele>451.0</ele><time>2026-04-19T08:39:15.889Z</time></trkpt><trkpt lat="44.8153316" lon="9.7594712"><ele>451.0</ele><time>2026-04-19T08:39:17.901Z</time></trkpt><trkpt lat="44.8154294" lon="9.7594555"><ele>449.50000000000006</ele><time>2026-04-19T08:39:19.904Z</time></trkpt><trkpt lat="44.8155208" lon="9.7594394"><ele>448.0</ele><time>2026-04-19T08:39:21.906Z</time></trkpt><trkpt lat="44.8156001" lon="9.7594044"><ele>446.5</ele><time>2026-04-19T08:39:23.889Z</time></trkpt><trkpt lat="44.8156802" lon="9.7593663"><ele>445.0</ele><time>2026-04-19T08:39:25.883Z</time></trkpt><trkpt lat="44.815751" lon="9.7593553"><ele>443.50000000000006</ele><time>2026-04-19T08:39:27.895Z</time></trkpt><trkpt lat="44.8158201" lon="9.7593866"><ele>442.0</ele><time>2026-04-19T08:39:29.895Z</time></trkpt><trkpt lat="44.8158712" lon="9.7594592"><ele>442.0</ele><time>2026-04-19T08:39:31.893Z</time></trkpt><trkpt lat="44.8159187" lon="9.7595406"><ele>442.00000000000006</ele><time>2026-04-19T08:39:33.904Z</time></trkpt><trkpt lat="44.8159911" lon="9.7596157"><ele>442.00000000000006</ele><time>2026-04-19T08:39:35.891Z</time></trkpt><trkpt lat="44.8160738" lon="9.7596901"><ele>442.0</ele><time>2026-04-19T08:39:37.905Z</time></trkpt><trkpt lat="44.8161574" lon="9.7597651"><ele>442.0</ele><time>2026-04-19T08:39:39.912Z</time></trkpt><trkpt lat="44.8162585" lon="9.7598351"><ele>440.0</ele><time>2026-04-19T08:39:41.91Z</time></trkpt><trkpt lat="44.8163618" lon="9.7599147"><ele>438.00000000000006</ele><time>2026-04-19T08:39:43.903Z</time></trkpt><trkpt lat="44.8164606" lon="9.7600039"><ele>436.00000000000006</ele><time>2026-04-19T08:39:45.905Z</time></trkpt><trkpt lat="44.8165165" lon="9.760051"><ele>434.0</ele><time>2026-04-19T08:39:46.905Z</time></trkpt><trkpt lat="44.8166104" lon="9.7601418"><ele>432.0</ele><time>2026-04-19T08:39:48.907Z</time></trkpt><trkpt lat="44.8166885" lon="9.7602472"><ele>431.6</ele><time>2026-04-19T08:39:50.907Z</time></trkpt><trkpt lat="44.816763" lon="9.7603559"><ele>431.20000000000005</ele><time>2026-04-19T08:39:52.891Z</time></trkpt><trkpt lat="44.8168327" lon="9.760464"><ele>430.8</ele><time>2026-04-19T08:39:54.898Z</time></trkpt><trkpt lat="44.816884" lon="9.7605772"><ele>430.4</ele><time>2026-04-19T08:39:56.908Z</time></trkpt><trkpt lat="44.8169428" lon="9.7606951"><ele>430.0</ele><time>2026-04-19T08:39:58.906Z</time></trkpt><trkpt lat="44.8170141" lon="9.7608589"><ele>429.7142857142857</ele><time>2026-04-19T08:40:00.912Z</time></trkpt><trkpt lat="44.8170474" lon="9.7609493"><ele>429.42857142857144</ele><time>2026-04-19T08:40:01.901Z</time></trkpt><trkpt lat="44.8170878" lon="9.7610406"><ele>429.14285714285717</ele><time>2026-04-19T08:40:02.909Z</time></trkpt><trkpt lat="44.8171241" lon="9.7611226"><ele>428.8571428571429</ele><time>2026-04-19T08:40:03.906Z</time></trkpt><trkpt lat="44.8171647" lon="9.7612017"><ele>428.57142857142856</ele><time>2026-04-19T08:40:04.908Z</time></trkpt><trkpt lat="44.8172113" lon="9.7612723"><ele>428.28571428571433</ele><time>2026-04-19T08:40:05.905Z</time></trkpt><trkpt lat="44.8172577" lon="9.7613432"><ele>428.0</ele><time>2026-04-19T08:40:06.908Z</time></trkpt><trkpt lat="44.8173036" lon="9.7614113"><ele>428.0</ele><time>2026-04-19T08:40:07.899Z</time></trkpt><trkpt lat="44.8173521" lon="9.7614753"><ele>427.99999999999994</ele><time>2026-04-19T08:40:08.893Z</time></trkpt><trkpt lat="44.8173996" lon="9.7615436"><ele>427.99999999999994</ele><time>2026-04-19T08:40:09.913Z</time></trkpt><trkpt lat="44.8174965" lon="9.7616524"><ele>428.0</ele><time>2026-04-19T08:40:11.897Z</time></trkpt><trkpt lat="44.8175845" lon="9.7617623"><ele>428.0</ele><time>2026-04-19T08:40:13.898Z</time></trkpt><trkpt lat="44.8176576" lon="9.7618663"><ele>428.66666666666663</ele><time>2026-04-19T08:40:15.899Z</time></trkpt><trkpt lat="44.817726" lon="9.7619663"><ele>429.3333333333333</ele><time>2026-04-19T08:40:17.899Z</time></trkpt><trkpt lat="44.8177737" lon="9.76205"><ele>430.0</ele><time>2026-04-19T08:40:19.912Z</time></trkpt><trkpt lat="44.8178123" lon="9.7621311"><ele>430.66666666666663</ele><time>2026-04-19T08:40:21.904Z</time></trkpt><trkpt lat="44.8178474" lon="9.7622194"><ele>431.3333333333333</ele><time>2026-04-19T08:40:23.907Z</time></trkpt><trkpt lat="44.817876" lon="9.7623151"><ele>432.0</ele><time>2026-04-19T08:40:25.912Z</time></trkpt><trkpt lat="44.8179104" lon="9.762411"><ele>432.0</ele><time>2026-04-19T08:40:27.911Z</time></trkpt><trkpt lat="44.8179626" lon="9.7625162"><ele>432.0</ele><time>2026-04-19T08:40:30.897Z</time></trkpt><trkpt lat="44.818012" lon="9.7625953"><ele>432.0</ele><time>2026-04-19T08:40:33.885Z</time></trkpt><trkpt lat="44.8180669" lon="9.7626701"><ele>432.0</ele><time>2026-04-19T08:40:36.909Z</time></trkpt><trkpt lat="44.8181348" lon="9.7627262"><ele>432.0</ele><time>2026-04-19T08:40:39.889Z</time></trkpt><trkpt lat="44.8182081" lon="9.7627933"><ele>432.0</ele><time>2026-04-19T08:40:42.9Z</time></trkpt><trkpt lat="44.8182663" lon="9.7628344"><ele>432.3333333333333</ele><time>2026-04-19T08:40:44.904Z</time></trkpt><trkpt lat="44.8183252" lon="9.7628724"><ele>432.66666666666663</ele><time>2026-04-19T08:40:46.901Z</time></trkpt><trkpt lat="44.8184054" lon="9.7629303"><ele>433.0</ele><time>2026-04-19T08:40:49.903Z</time></trkpt><trkpt lat="44.8184921" lon="9.7629747"><ele>433.3333333333333</ele><time>2026-04-19T08:40:52.901Z</time></trkpt><trkpt lat="44.8185528" lon="9.7629993"><ele>433.66666666666663</ele><time>2026-04-19T08:40:54.895Z</time></trkpt><trkpt lat="44.8186283" lon="9.7630726"><ele>434.0</ele><time>2026-04-19T08:40:57.906Z</time></trkpt><trkpt lat="44.8186848" lon="9.7631323"><ele>435.14285714285717</ele><time>2026-04-19T08:41:00.896Z</time></trkpt><trkpt lat="44.818739" lon="9.7632099"><ele>436.2857142857143</ele><time>2026-04-19T08:41:03.914Z</time></trkpt><trkpt lat="44.8187967" lon="9.7632636"><ele>437.42857142857144</ele><time>2026-04-19T08:41:06.905Z</time></trkpt><trkpt lat="44.8188608" lon="9.763282"><ele>438.57142857142856</ele><time>2026-04-19T08:41:09.898Z</time></trkpt><trkpt lat="44.8189348" lon="9.763295"><ele>439.7142857142857</ele><time>2026-04-19T08:41:13.904Z</time></trkpt><trkpt lat="44.8190067" lon="9.7633301"><ele>440.8571428571429</ele><time>2026-04-19T08:41:17.894Z</time></trkpt><trkpt lat="44.8190699" lon="9.763396"><ele>442.0</ele><time>2026-04-19T08:41:21.907Z</time></trkpt><trkpt lat="44.8191279" lon="9.7634608"><ele>442.00000000000006</ele><time>2026-04-19T08:41:26.901Z</time></trkpt><trkpt lat="44.8191966" lon="9.7634951"><ele>442.0</ele><time>2026-04-19T08:41:31.897Z</time></trkpt><trkpt lat="44.8192722" lon="9.763496"><ele>442.0</ele><time>2026-04-19T08:41:36.9Z</time></trkpt><trkpt lat="44.8193461" lon="9.7635255"><ele>442.0</ele><time>2026-04-19T08:41:41.894Z</time></trkpt><trkpt lat="44.8194185" lon="9.7635547"><ele>442.00000000000006</ele><time>2026-04-19T08:41:44.892Z</time></trkpt><trkpt lat="44.8194893" lon="9.7636041"><ele>442.0</ele><time>2026-04-19T08:41:48.905Z</time></trkpt><trkpt lat="44.8195603" lon="9.7636563"><ele>443.8571428571429</ele><time>2026-04-19T08:41:52.904Z</time></trkpt><trkpt lat="44.8196297" lon="9.7636965"><ele>445.7142857142857</ele><time>2026-04-19T08:41:56.9Z</time></trkpt><trkpt lat="44.8196869" lon="9.7637365"><ele>447.57142857142856</ele><time>2026-04-19T08:42:00.91Z</time></trkpt><trkpt lat="44.8197565" lon="9.7637641"><ele>449.42857142857144</ele><time>2026-04-19T08:42:04.904Z</time></trkpt><trkpt lat="44.8198346" lon="9.7637759"><ele>451.2857142857143</ele><time>2026-04-19T08:42:09.9Z</time></trkpt><trkpt lat="44.8198975" lon="9.7637915"><ele>453.14285714285717</ele><time>2026-04-19T08:42:13.901Z</time></trkpt><trkpt lat="44.8199632" lon="9.7637867"><ele>455.0</ele><time>2026-04-19T08:42:18.901Z</time></trkpt><trkpt lat="44.820037" lon="9.7637882"><ele>455.0</ele><time>2026-04-19T08:42:23.89Z</time></trkpt><trkpt lat="44.8201028" lon="9.7637911"><ele>455.0</ele><time>2026-04-19T08:42:28.906Z</time></trkpt><trkpt lat="44.8201651" lon="9.7637717"><ele>455.0</ele><time>2026-04-19T08:42:32.91Z</time></trkpt><trkpt lat="44.8202329" lon="9.7637532"><ele>455.0</ele><time>2026-04-19T08:42:36.895Z</time></trkpt><trkpt lat="44.8203057" lon="9.7637568"><ele>455.0</ele><time>2026-04-19T08:42:41.892Z</time></trkpt><trkpt lat="44.8203818" lon="9.7637955"><ele>455.0</ele><time>2026-04-19T08:42:46.906Z</time></trkpt><trkpt lat="44.8204505" lon="9.7638516"><ele>455.0</ele><time>2026-04-19T08:42:49.904Z</time></trkpt><trkpt lat="44.8205128" lon="9.7639109"><ele>454.8333333333333</ele><time>2026-04-19T08:42:52.897Z</time></trkpt><trkpt lat="44.8205856" lon="9.7639678"><ele>454.66666666666663</ele><time>2026-04-19T08:42:56.893Z</time></trkpt><trkpt lat="44.8206595" lon="9.7640237"><ele>454.5</ele><time>2026-04-19T08:43:00.9Z</time></trkpt><trkpt lat="44.8207318" lon="9.7640845"><ele>454.33333333333337</ele><time>2026-04-19T08:43:03.908Z</time></trkpt><trkpt lat="44.8208144" lon="9.764119"><ele>454.1666666666667</ele><time>2026-04-19T08:43:06.903Z</time></trkpt><trkpt lat="44.8208913" lon="9.7641278"><ele>454.0</ele><time>2026-04-19T08:43:08.894Z</time></trkpt><trkpt lat="44.8209643" lon="9.7641377"><ele>452.4</ele><time>2026-04-19T08:43:10.905Z</time></trkpt><trkpt lat="44.8210505" lon="9.7641632"><ele>450.79999999999995</ele><time>2026-04-19T08:43:12.905Z</time></trkpt><trkpt lat="44.8211384" lon="9.7641756"><ele>449.20000000000005</ele><time>2026-04-19T08:43:14.896Z</time></trkpt><trkpt lat="44.8212386" lon="9.7641822"><ele>447.6</ele><time>2026-04-19T08:43:16.905Z</time></trkpt><trkpt lat="44.8213368" lon="9.7642075"><ele>446.0</ele><time>2026-04-19T08:43:18.884Z</time></trkpt><trkpt lat="44.8214518" lon="9.7642269"><ele>446.0</ele><time>2026-04-19T08:43:20.906Z</time></trkpt><trkpt lat="44.8215751" lon="9.7642441"><ele>446.0</ele><time>2026-04-19T08:43:22.893Z</time></trkpt><trkpt lat="44.8216848" lon="9.7642664"><ele>446.0</ele><time>2026-04-19T08:43:24.909Z</time></trkpt><trkpt lat="44.821788" lon="9.7642781"><ele>446.0</ele><time>2026-04-19T08:43:26.903Z</time></trkpt><trkpt lat="44.8218698" lon="9.7642619"><ele>446.0</ele><time>2026-04-19T08:43:28.907Z</time></trkpt><trkpt lat="44.8219431" lon="9.7642529"><ele>445.3333333333333</ele><time>2026-04-19T08:43:30.903Z</time></trkpt><trkpt lat="44.8220343" lon="9.7642448"><ele>444.66666666666663</ele><time>2026-04-19T08:43:32.904Z</time></trkpt><trkpt lat="44.822126" lon="9.7642522"><ele>444.0</ele><time>2026-04-19T08:43:34.917Z</time></trkpt><trkpt lat="44.8222202" lon="9.7642982"><ele>443.33333333333337</ele><time>2026-04-19T08:43:36.9Z</time></trkpt><trkpt lat="44.8223029" lon="9.7643309"><ele>442.6666666666667</ele><time>2026-04-19T08:43:38.891Z</time></trkpt><trkpt lat="44.82238" lon="9.7643634"><ele>442.0</ele><time>2026-04-19T08:43:40.91Z</time></trkpt><trkpt lat="44.8224575" lon="9.764404"><ele>441.0</ele><time>2026-04-19T08:43:42.902Z</time></trkpt><trkpt lat="44.8225444" lon="9.7644393"><ele>440.00000000000006</ele><time>2026-04-19T08:43:44.905Z</time></trkpt><trkpt lat="44.8226275" lon="9.7644658"><ele>439.00000000000006</ele><time>2026-04-19T08:43:46.897Z</time></trkpt><trkpt lat="44.8227191" lon="9.7645174"><ele>438.0</ele><time>2026-04-19T08:43:48.892Z</time></trkpt><trkpt lat="44.8228093" lon="9.7645795"><ele>437.0</ele><time>2026-04-19T08:43:50.893Z</time></trkpt><trkpt lat="44.8228908" lon="9.7646305"><ele>436.8333333333333</ele><time>2026-04-19T08:43:52.902Z</time></trkpt><trkpt lat="44.822974" lon="9.7646774"><ele>436.66666666666663</ele><time>2026-04-19T08:43:54.874Z</time></trkpt><trkpt lat="44.8230431" lon="9.7647475"><ele>436.5</ele><time>2026-04-19T08:43:56.898Z</time></trkpt><trkpt lat="44.823105" lon="9.764817"><ele>436.33333333333337</ele><time>2026-04-19T08:43:58.878Z</time></trkpt><trkpt lat="44.8231635" lon="9.7648932"><ele>436.1666666666667</ele><time>2026-04-19T08:44:00.866Z</time></trkpt><trkpt lat="44.8232087" lon="9.7649697"><ele>436.0</ele><time>2026-04-19T08:44:02.904Z</time></trkpt><trkpt lat="44.8232551" lon="9.7650353"><ele>436.00000000000006</ele><time>2026-04-19T08:44:04.873Z</time></trkpt><trkpt lat="44.8232984" lon="9.7651078"><ele>436.0</ele><time>2026-04-19T08:44:06.901Z</time></trkpt><trkpt lat="44.8233468" lon="9.7651995"><ele>436.0</ele><time>2026-04-19T08:44:09.901Z</time></trkpt><trkpt lat="44.8233832" lon="9.7652883"><ele>436.0</ele><time>2026-04-19T08:44:12.898Z</time></trkpt><trkpt lat="44.8234342" lon="9.7653837"><ele>436.00000000000006</ele><time>2026-04-19T08:44:15.891Z</time></trkpt><trkpt lat="44.8234946" lon="9.7654684"><ele>436.0</ele><time>2026-04-19T08:44:18.91Z</time></trkpt><trkpt lat="44.8235564" lon="9.7655593"><ele>435.1666666666667</ele><time>2026-04-19T08:44:21.885Z</time></trkpt><trkpt lat="44.8236292" lon="9.7656418"><ele>434.33333333333337</ele><time>2026-04-19T08:44:24.895Z</time></trkpt><trkpt lat="44.8237126" lon="9.7657063"><ele>433.5</ele><time>2026-04-19T08:44:27.907Z</time></trkpt><trkpt lat="44.8237718" lon="9.7657408"><ele>432.66666666666663</ele><time>2026-04-19T08:44:29.901Z</time></trkpt><trkpt lat="44.8238329" lon="9.7657737"><ele>431.8333333333333</ele><time>2026-04-19T08:44:31.898Z</time></trkpt><trkpt lat="44.8239086" lon="9.7658242"><ele>431.0</ele><time>2026-04-19T08:44:34.897Z</time></trkpt><trkpt lat="44.8239802" lon="9.765872"><ele>431.0</ele><time>2026-04-19T08:44:37.904Z</time></trkpt><trkpt lat="44.8240551" lon="9.7659149"><ele>431.0</ele><time>2026-04-19T08:44:40.895Z</time></trkpt><trkpt lat="44.8241097" lon="9.7660087"><ele>431.0</ele><time>2026-04-19T08:44:43.913Z</time></trkpt><trkpt lat="44.8241433" lon="9.7660954"><ele>431.0</ele><time>2026-04-19T08:44:46.905Z</time></trkpt><trkpt lat="44.8241773" lon="9.7661714"><ele>431.0</ele><time>2026-04-19T08:44:48.897Z</time></trkpt><trkpt lat="44.824209" lon="9.7662629"><ele>431.0</ele><time>2026-04-19T08:44:50.887Z</time></trkpt><trkpt lat="44.8242371" lon="9.766354"><ele>431.0</ele><time>2026-04-19T08:44:52.896Z</time></trkpt><trkpt lat="44.8242718" lon="9.7664362"><ele>427.8333333333333</ele><time>2026-04-19T08:44:54.904Z</time></trkpt><trkpt lat="44.8243133" lon="9.7665541"><ele>424.66666666666663</ele><time>2026-04-19T08:44:57.904Z</time></trkpt><trkpt lat="44.8243599" lon="9.7666776"><ele>421.5</ele><time>2026-04-19T08:45:00.894Z</time></trkpt><trkpt lat="44.8244026" lon="9.7667647"><ele>418.33333333333337</ele><time>2026-04-19T08:45:02.906Z</time></trkpt><trkpt lat="44.8244615" lon="9.766861"><ele>415.1666666666667</ele><time>2026-04-19T08:45:04.912Z</time></trkpt><trkpt lat="44.8245114" lon="9.7669492"><ele>412.0</ele><time>2026-04-19T08:45:06.903Z</time></trkpt><trkpt lat="44.8245395" lon="9.7670298"><ele>411.00000000000006</ele><time>2026-04-19T08:45:08.908Z</time></trkpt><trkpt lat="44.8245926" lon="9.7671257"><ele>410.0</ele><time>2026-04-19T08:45:11.91Z</time></trkpt><trkpt lat="44.8246454" lon="9.7672319"><ele>409.0</ele><time>2026-04-19T08:45:14.909Z</time></trkpt><trkpt lat="44.8246751" lon="9.7673234"><ele>408.0</ele><time>2026-04-19T08:45:16.914Z</time></trkpt><trkpt lat="44.8247102" lon="9.767408"><ele>407.00000000000006</ele><time>2026-04-19T08:45:18.906Z</time></trkpt><trkpt lat="44.8247448" lon="9.7675028"><ele>406.0</ele><time>2026-04-19T08:45:20.899Z</time></trkpt><trkpt lat="44.8247668" lon="9.7675992"><ele>405.00000000000006</ele><time>2026-04-19T08:45:22.908Z</time></trkpt><trkpt lat="44.8248076" lon="9.7677146"><ele>404.0</ele><time>2026-04-19T08:45:25.898Z</time></trkpt><trkpt lat="44.8248619" lon="9.7677969"><ele>403.0</ele><time>2026-04-19T08:45:28.888Z</time></trkpt><trkpt lat="44.8249113" lon="9.767897"><ele>402.0</ele><time>2026-04-19T08:45:32.903Z</time></trkpt><trkpt lat="44.8249533" lon="9.7679753"><ele>401.00000000000006</ele><time>2026-04-19T08:45:34.897Z</time></trkpt><trkpt lat="44.8249737" lon="9.7680767"><ele>400.0</ele><time>2026-04-19T08:45:36.892Z</time></trkpt><trkpt lat="44.8249967" lon="9.7681618"><ele>400.00000000000006</ele><time>2026-04-19T08:45:38.905Z</time></trkpt><trkpt lat="44.8250404" lon="9.7682675"><ele>400.0</ele><time>2026-04-19T08:45:41.896Z</time></trkpt><trkpt lat="44.8250991" lon="9.7683586"><ele>400.0</ele><time>2026-04-19T08:45:44.9Z</time></trkpt><trkpt lat="44.8251566" lon="9.7684569"><ele>400.0</ele><time>2026-04-19T08:45:47.891Z</time></trkpt><trkpt lat="44.8252035" lon="9.7685162"><ele>400.00000000000006</ele><time>2026-04-19T08:45:50.908Z</time></trkpt><trkpt lat="44.8252618" lon="9.7685518"><ele>400.0</ele><time>2026-04-19T08:45:53.896Z</time></trkpt><trkpt lat="44.8253274" lon="9.768632"><ele>397.00000000000006</ele><time>2026-04-19T08:45:55.895Z</time></trkpt><trkpt lat="44.8254081" lon="9.7686935"><ele>394.0</ele><time>2026-04-19T08:45:57.899Z</time></trkpt><trkpt lat="44.8254578" lon="9.7687849"><ele>391.0</ele><time>2026-04-19T08:45:59.898Z</time></trkpt><trkpt lat="44.8254905" lon="9.7688859"><ele>388.0</ele><time>2026-04-19T08:46:01.888Z</time></trkpt><trkpt lat="44.8255299" lon="9.7689872"><ele>385.0</ele><time>2026-04-19T08:46:03.902Z</time></trkpt><trkpt lat="44.8255826" lon="9.7690788"><ele>382.0</ele><time>2026-04-19T08:46:05.916Z</time></trkpt><trkpt lat="44.8256243" lon="9.769166"><ele>382.0</ele><time>2026-04-19T08:46:07.89Z</time></trkpt><trkpt lat="44.8256611" lon="9.7692574"><ele>382.0</ele><time>2026-04-19T08:46:09.903Z</time></trkpt><trkpt lat="44.8256924" lon="9.7693458"><ele>382.0</ele><time>2026-04-19T08:46:11.914Z</time></trkpt><trkpt lat="44.8257344" lon="9.7694435"><ele>382.0</ele><time>2026-04-19T08:46:13.902Z</time></trkpt><trkpt lat="44.825761" lon="9.7695474"><ele>382.0</ele><time>2026-04-19T08:46:15.902Z</time></trkpt><trkpt lat="44.8257774" lon="9.769647"><ele>382.0</ele><time>2026-04-19T08:46:17.909Z</time></trkpt><trkpt lat="44.8257996" lon="9.7697568"><ele>381.14285714285717</ele><time>2026-04-19T08:46:20.908Z</time></trkpt><trkpt lat="44.8258492" lon="9.7698323"><ele>380.2857142857143</ele><time>2026-04-19T08:46:23.909Z</time></trkpt><trkpt lat="44.8259253" lon="9.7698396"><ele>379.42857142857144</ele><time>2026-04-19T08:46:27.904Z</time></trkpt><trkpt lat="44.8259749" lon="9.769766"><ele>378.57142857142856</ele><time>2026-04-19T08:46:30.907Z</time></trkpt><trkpt lat="44.8260228" lon="9.7696945"><ele>377.71428571428567</ele><time>2026-04-19T08:46:33.916Z</time></trkpt><trkpt lat="44.8260762" lon="9.7696389"><ele>376.85714285714283</ele><time>2026-04-19T08:46:36.911Z</time></trkpt><trkpt lat="44.8261424" lon="9.7695719"><ele>376.0</ele><time>2026-04-19T08:46:39.901Z</time></trkpt><trkpt lat="44.8261892" lon="9.7695022"><ele>375.0</ele><time>2026-04-19T08:46:41.904Z</time></trkpt><trkpt lat="44.8262339" lon="9.7694209"><ele>374.0</ele><time>2026-04-19T08:46:43.907Z</time></trkpt><trkpt lat="44.826276" lon="9.7693493"><ele>373.0</ele><time>2026-04-19T08:46:45.914Z</time></trkpt><trkpt lat="44.8263141" lon="9.769268"><ele>372.0</ele><time>2026-04-19T08:46:47.906Z</time></trkpt><trkpt lat="44.8263547" lon="9.7691687"><ele>371.0</ele><time>2026-04-19T08:46:49.913Z</time></trkpt><trkpt lat="44.8264018" lon="9.7690741"><ele>370.0</ele><time>2026-04-19T08:46:51.908Z</time></trkpt><trkpt lat="44.8264598" lon="9.7689816"><ele>370.0</ele><time>2026-04-19T08:46:53.91Z</time></trkpt><trkpt lat="44.8265107" lon="9.7688828"><ele>370.0</ele><time>2026-04-19T08:46:55.913Z</time></trkpt><trkpt lat="44.8265765" lon="9.7687668"><ele>370.0</ele><time>2026-04-19T08:46:57.909Z</time></trkpt><trkpt lat="44.8266416" lon="9.7686652"><ele>370.0</ele><time>2026-04-19T08:46:59.906Z</time></trkpt><trkpt lat="44.8266932" lon="9.7685589"><ele>370.0</ele><time>2026-04-19T08:47:01.911Z</time></trkpt><trkpt lat="44.8267417" lon="9.7684518"><ele>370.0</ele><time>2026-04-19T08:47:03.91Z</time></trkpt><trkpt lat="44.8267861" lon="9.7683492"><ele>370.0</ele><time>2026-04-19T08:47:05.905Z</time></trkpt><trkpt lat="44.8268119" lon="9.7682468"><ele>370.0</ele><time>2026-04-19T08:47:07.912Z</time></trkpt><trkpt lat="44.8268331" lon="9.7681485"><ele>370.0</ele><time>2026-04-19T08:47:09.906Z</time></trkpt><trkpt lat="44.8268704" lon="9.768036"><ele>370.0</ele><time>2026-04-19T08:47:11.905Z</time></trkpt><trkpt lat="44.826909" lon="9.7679117"><ele>370.0</ele><time>2026-04-19T08:47:13.919Z</time></trkpt><trkpt lat="44.8269499" lon="9.7677975"><ele>367.8333333333333</ele><time>2026-04-19T08:47:15.907Z</time></trkpt><trkpt lat="44.8269917" lon="9.7676882"><ele>365.66666666666663</ele><time>2026-04-19T08:47:17.902Z</time></trkpt><trkpt lat="44.8270339" lon="9.7675802"><ele>363.5</ele><time>2026-04-19T08:47:19.906Z</time></trkpt><trkpt lat="44.8270745" lon="9.7674782"><ele>361.3333333333333</ele><time>2026-04-19T08:47:21.915Z</time></trkpt><trkpt lat="44.8271174" lon="9.7673851"><ele>359.1666666666667</ele><time>2026-04-19T08:47:23.892Z</time></trkpt><trkpt lat="44.8271682" lon="9.767292"><ele>357.0</ele><time>2026-04-19T08:47:25.91Z</time></trkpt><trkpt lat="44.8272204" lon="9.7671779"><ele>357.0</ele><time>2026-04-19T08:47:27.906Z</time></trkpt><trkpt lat="44.8272866" lon="9.7670887"><ele>357.0</ele><time>2026-04-19T08:47:29.914Z</time></trkpt><trkpt lat="44.8273518" lon="9.7669978"><ele>357.0</ele><time>2026-04-19T08:47:31.913Z</time></trkpt><trkpt lat="44.8274041" lon="9.766896"><ele>357.0</ele><time>2026-04-19T08:47:33.908Z</time></trkpt><trkpt lat="44.8274475" lon="9.7667933"><ele>357.0</ele><time>2026-04-19T08:47:35.907Z</time></trkpt><trkpt lat="44.8274885" lon="9.7666917"><ele>357.0</ele><time>2026-04-19T08:47:37.908Z</time></trkpt><trkpt lat="44.8275203" lon="9.7665932"><ele>357.8333333333333</ele><time>2026-04-19T08:47:39.909Z</time></trkpt><trkpt lat="44.8275695" lon="9.7664982"><ele>358.6666666666667</ele><time>2026-04-19T08:47:41.916Z</time></trkpt><trkpt lat="44.8276566" lon="9.7664652"><ele>359.5</ele><time>2026-04-19T08:47:43.914Z</time></trkpt><trkpt lat="44.8277342" lon="9.7664764"><ele>360.33333333333337</ele><time>2026-04-19T08:47:45.902Z</time></trkpt><trkpt lat="44.8278048" lon="9.7664756"><ele>361.1666666666667</ele><time>2026-04-19T08:47:47.908Z</time></trkpt><trkpt lat="44.8278682" lon="9.7664312"><ele>362.0</ele><time>2026-04-19T08:47:49.905Z</time></trkpt><trkpt lat="44.8279251" lon="9.7663763"><ele>360.2857142857143</ele><time>2026-04-19T08:47:51.887Z</time></trkpt><trkpt lat="44.8279751" lon="9.7662834"><ele>358.57142857142856</ele><time>2026-04-19T08:47:54.909Z</time></trkpt><trkpt lat="44.8280125" lon="9.7662076"><ele>356.8571428571429</ele><time>2026-04-19T08:47:56.897Z</time></trkpt><trkpt lat="44.8280553" lon="9.7661364"><ele>355.1428571428571</ele><time>2026-04-19T08:47:58.904Z</time></trkpt><trkpt lat="44.8281296" lon="9.7660954"><ele>353.42857142857144</ele><time>2026-04-19T08:48:00.889Z</time></trkpt><trkpt lat="44.828195" lon="9.7661524"><ele>351.7142857142857</ele><time>2026-04-19T08:48:02.904Z</time></trkpt><trkpt lat="44.8282276" lon="9.7662526"><ele>350.0</ele><time>2026-04-19T08:48:04.9Z</time></trkpt><trkpt lat="44.8282477" lon="9.7663732"><ele>350.0</ele><time>2026-04-19T08:48:06.909Z</time></trkpt><trkpt lat="44.8282569" lon="9.7664964"><ele>350.0</ele><time>2026-04-19T08:48:08.916Z</time></trkpt><trkpt lat="44.8282704" lon="9.76661"><ele>350.0</ele><time>2026-04-19T08:48:10.901Z</time></trkpt><trkpt lat="44.828275" lon="9.7667204"><ele>350.0</ele><time>2026-04-19T08:48:12.904Z</time></trkpt><trkpt lat="44.8282837" lon="9.7668368"><ele>350.0</ele><time>2026-04-19T08:48:14.904Z</time></trkpt><trkpt lat="44.8283016" lon="9.7669392"><ele>350.0</ele><time>2026-04-19T08:48:16.907Z</time></trkpt><trkpt lat="44.8283433" lon="9.7670325"><ele>348.6</ele><time>2026-04-19T08:48:19.912Z</time></trkpt><trkpt lat="44.8284207" lon="9.7670431"><ele>347.2</ele><time>2026-04-19T08:48:22.908Z</time></trkpt><trkpt lat="44.8285071" lon="9.767031"><ele>345.79999999999995</ele><time>2026-04-19T08:48:24.922Z</time></trkpt><trkpt lat="44.8286057" lon="9.7669873"><ele>344.4</ele><time>2026-04-19T08:48:26.904Z</time></trkpt><trkpt lat="44.828707" lon="9.7669352"><ele>343.0</ele><time>2026-04-19T08:48:28.907Z</time></trkpt><trkpt lat="44.8287954" lon="9.7668871"><ele>342.59999999999997</ele><time>2026-04-19T08:48:30.9Z</time></trkpt><trkpt lat="44.8288901" lon="9.7668318"><ele>342.2</ele><time>2026-04-19T08:48:32.893Z</time></trkpt><trkpt lat="44.8289926" lon="9.766782"><ele>341.8</ele><time>2026-04-19T08:48:34.886Z</time></trkpt><trkpt lat="44.8290999" lon="9.7667356"><ele>341.4</ele><time>2026-04-19T08:48:36.897Z</time></trkpt><trkpt lat="44.8291999" lon="9.7666937"><ele>341.0</ele><time>2026-04-19T08:48:38.889Z</time></trkpt><trkpt lat="44.829293" lon="9.766701"><ele>340.8</ele><time>2026-04-19T08:48:40.906Z</time></trkpt><trkpt lat="44.8293916" lon="9.7666684"><ele>340.6</ele><time>2026-04-19T08:48:42.909Z</time></trkpt><trkpt lat="44.8294994" lon="9.766602"><ele>340.4</ele><time>2026-04-19T08:48:44.911Z</time></trkpt><trkpt lat="44.829594" lon="9.7665207"><ele>340.2</ele><time>2026-04-19T08:48:46.911Z</time></trkpt><trkpt lat="44.8296633" lon="9.7664562"><ele>340.0</ele><time>2026-04-19T08:48:48.902Z</time></trkpt><trkpt lat="44.8297314" lon="9.766415"><ele>340.0</ele><time>2026-04-19T08:48:50.901Z</time></trkpt><trkpt lat="44.8298062" lon="9.766383"><ele>340.0</ele><time>2026-04-19T08:48:53.897Z</time></trkpt><trkpt lat="44.8298855" lon="9.7663591"><ele>340.0</ele><time>2026-04-19T08:48:57.901Z</time></trkpt><trkpt lat="44.8299485" lon="9.7663675"><ele>340.0</ele><time>2026-04-19T08:49:02.899Z</time></trkpt><trkpt lat="44.8299024" lon="9.7664409"><ele>340.0</ele><time>2026-04-19T08:49:22.905Z</time></trkpt><trkpt lat="44.829807" lon="9.7664666"><ele>340.0</ele><time>2026-04-19T08:49:24.894Z</time></trkpt><trkpt lat="44.8297267" lon="9.7665067"><ele>340.0</ele><time>2026-04-19T08:49:26.909Z</time></trkpt><trkpt lat="44.8296761" lon="9.7665687"><ele>340.0</ele><time>2026-04-19T08:49:28.902Z</time></trkpt><trkpt lat="44.8296243" lon="9.7666632"><ele>340.0</ele><time>2026-04-19T08:49:30.897Z</time></trkpt><trkpt lat="44.8296063" lon="9.7667735"><ele>340.0</ele><time>2026-04-19T08:49:32.898Z</time></trkpt><trkpt lat="44.8296113" lon="9.7668846"><ele>340.0</ele><time>2026-04-19T08:49:34.904Z</time></trkpt><trkpt lat="44.829622" lon="9.766982"><ele>340.0</ele><time>2026-04-19T08:49:36.898Z</time></trkpt><trkpt lat="44.8296283" lon="9.7670788"><ele>337.0</ele><time>2026-04-19T08:49:38.905Z</time></trkpt><trkpt lat="44.8296415" lon="9.7671732"><ele>334.0</ele><time>2026-04-19T08:49:40.895Z</time></trkpt><trkpt lat="44.8296594" lon="9.7672945"><ele>331.0</ele><time>2026-04-19T08:49:44.902Z</time></trkpt><trkpt lat="44.8296903" lon="9.7674261"><ele>328.0</ele><time>2026-04-19T08:49:47.904Z</time></trkpt><trkpt lat="44.8297304" lon="9.7675435"><ele>325.0</ele><time>2026-04-19T08:49:49.898Z</time></trkpt><trkpt lat="44.8297789" lon="9.767666"><ele>322.0</ele><time>2026-04-19T08:49:51.91Z</time></trkpt><trkpt lat="44.8298242" lon="9.7677859"><ele>320.5</ele><time>2026-04-19T08:49:53.901Z</time></trkpt><trkpt lat="44.8298347" lon="9.7679045"><ele>319.0</ele><time>2026-04-19T08:49:55.893Z</time></trkpt><trkpt lat="44.8298448" lon="9.7680205"><ele>317.5</ele><time>2026-04-19T08:49:58.888Z</time></trkpt><trkpt lat="44.8298531" lon="9.7681118"><ele>316.0</ele><time>2026-04-19T08:50:02.897Z</time></trkpt><trkpt lat="44.8298534" lon="9.7682431"><ele>314.5</ele><time>2026-04-19T08:50:06.904Z</time></trkpt><trkpt lat="44.8298414" lon="9.7683335"><ele>313.0</ele><time>2026-04-19T08:50:09.897Z</time></trkpt><trkpt lat="44.8298126" lon="9.7684197"><ele>313.0</ele><time>2026-04-19T08:50:17.904Z</time></trkpt><trkpt lat="44.8298022" lon="9.7685083"><ele>313.0</ele><time>2026-04-19T08:50:31.901Z</time></trkpt><trkpt lat="44.8297742" lon="9.768603"><ele>313.0</ele><time>2026-04-19T08:50:48.894Z</time></trkpt><trkpt lat="44.8297597" lon="9.7686948"><ele>313.0</ele><time>2026-04-19T08:50:56.905Z</time></trkpt><trkpt lat="44.8297211" lon="9.7687683"><ele>313.0</ele><time>2026-04-19T08:51:05.9Z</time></trkpt><trkpt lat="44.8297006" lon="9.7688526"><ele>313.0</ele><time>2026-04-19T08:51:14.904Z</time></trkpt><trkpt lat="44.8296729" lon="9.7689381"><ele>313.0</ele><time>2026-04-19T08:51:24.908Z</time></trkpt><trkpt lat="44.8296551" lon="9.7690249"><ele>313.3333333333333</ele><time>2026-04-19T08:51:34.893Z</time></trkpt><trkpt lat="44.8296696" lon="9.7691116"><ele>313.66666666666663</ele><time>2026-04-19T08:51:43.902Z</time></trkpt><trkpt lat="44.8297401" lon="9.7691252"><ele>314.0</ele><time>2026-04-19T08:52:04.895Z</time></trkpt><trkpt lat="44.8298307" lon="9.7691459"><ele>314.3333333333333</ele><time>2026-04-19T08:52:07.898Z</time></trkpt><trkpt lat="44.8299024" lon="9.7691677"><ele>314.6666666666667</ele><time>2026-04-19T08:52:09.891Z</time></trkpt><trkpt lat="44.8299824" lon="9.7691833"><ele>315.0</ele><time>2026-04-19T08:52:11.904Z</time></trkpt><trkpt lat="44.8300589" lon="9.7691932"><ele>315.0</ele><time>2026-04-19T08:52:13.904Z</time></trkpt><trkpt lat="44.830124" lon="9.769212"><ele>315.0</ele><time>2026-04-19T08:52:15.911Z</time></trkpt><trkpt lat="44.8301988" lon="9.7692454"><ele>315.0</ele><time>2026-04-19T08:52:17.908Z</time></trkpt><trkpt lat="44.8302638" lon="9.7692942"><ele>315.0</ele><time>2026-04-19T08:52:19.901Z</time></trkpt><trkpt lat="44.8303297" lon="9.7693196"><ele>315.0</ele><time>2026-04-19T08:52:21.913Z</time></trkpt><trkpt lat="44.8303921" lon="9.7693316"><ele>315.0</ele><time>2026-04-19T08:52:23.91Z</time></trkpt><trkpt lat="44.8304694" lon="9.7693452"><ele>315.0</ele><time>2026-04-19T08:52:25.91Z</time></trkpt><trkpt lat="44.8305693" lon="9.7693495"><ele>312.6</ele><time>2026-04-19T08:52:27.906Z</time></trkpt><trkpt lat="44.8306834" lon="9.7693443"><ele>310.2</ele><time>2026-04-19T08:52:29.906Z</time></trkpt><trkpt lat="44.8307879" lon="9.7693193"><ele>307.8</ele><time>2026-04-19T08:52:31.905Z</time></trkpt><trkpt lat="44.8308814" lon="9.7692926"><ele>305.4</ele><time>2026-04-19T08:52:33.885Z</time></trkpt><trkpt lat="44.8309447" lon="9.7692789"><ele>303.0</ele><time>2026-04-19T08:52:35.889Z</time></trkpt><trkpt lat="44.831014" lon="9.7693159"><ele>301.1666666666667</ele><time>2026-04-19T08:52:38.888Z</time></trkpt><trkpt lat="44.8310683" lon="9.7693875"><ele>299.3333333333333</ele><time>2026-04-19T08:52:41.896Z</time></trkpt><trkpt lat="44.8311461" lon="9.7694319"><ele>297.5</ele><time>2026-04-19T08:52:45.901Z</time></trkpt><trkpt lat="44.8312387" lon="9.7694646"><ele>295.66666666666663</ele><time>2026-04-19T08:52:48.897Z</time></trkpt><trkpt lat="44.8313101" lon="9.7694972"><ele>293.8333333333333</ele><time>2026-04-19T08:52:50.906Z</time></trkpt><trkpt lat="44.8313883" lon="9.7695261"><ele>292.0</ele><time>2026-04-19T08:52:52.904Z</time></trkpt><trkpt lat="44.8314721" lon="9.7695675"><ele>292.0</ele><time>2026-04-19T08:52:54.898Z</time></trkpt><trkpt lat="44.8315774" lon="9.7696209"><ele>292.0</ele><time>2026-04-19T08:52:56.915Z</time></trkpt><trkpt lat="44.8316889" lon="9.7696837"><ele>292.0</ele><time>2026-04-19T08:52:58.899Z</time></trkpt><trkpt lat="44.8317808" lon="9.7697304"><ele>292.0</ele><time>2026-04-19T08:53:00.899Z</time></trkpt><trkpt lat="44.8318574" lon="9.7697805"><ele>292.0</ele><time>2026-04-19T08:53:02.909Z</time></trkpt><trkpt lat="44.8319002" lon="9.7698467"><ele>289.5</ele><time>2026-04-19T08:53:04.917Z</time></trkpt><trkpt lat="44.8319707" lon="9.7698893"><ele>287.0</ele><time>2026-04-19T08:53:07.899Z</time></trkpt><trkpt lat="44.832049" lon="9.7698633"><ele>284.5</ele><time>2026-04-19T08:53:09.894Z</time></trkpt><trkpt lat="44.832115" lon="9.7698358"><ele>282.0</ele><time>2026-04-19T08:53:11.904Z</time></trkpt><trkpt lat="44.8321826" lon="9.7697781"><ele>279.5</ele><time>2026-04-19T08:53:13.906Z</time></trkpt><trkpt lat="44.8322312" lon="9.7696948"><ele>277.0</ele><time>2026-04-19T08:53:15.889Z</time></trkpt><trkpt lat="44.8322823" lon="9.7695666"><ele>277.0</ele><time>2026-04-19T08:53:17.901Z</time></trkpt><trkpt lat="44.8323189" lon="9.7694193"><ele>277.0</ele><time>2026-04-19T08:53:19.895Z</time></trkpt><trkpt lat="44.832363" lon="9.7692661"><ele>277.0</ele><time>2026-04-19T08:53:21.899Z</time></trkpt><trkpt lat="44.8323852" lon="9.7691821"><ele>277.0</ele><time>2026-04-19T08:53:22.888Z</time></trkpt><trkpt lat="44.8324178" lon="9.7690377"><ele>277.0</ele><time>2026-04-19T08:53:24.902Z</time></trkpt><trkpt lat="44.8324615" lon="9.7688994"><ele>276.8</ele><time>2026-04-19T08:53:26.891Z</time></trkpt><trkpt lat="44.8325125" lon="9.768778"><ele>276.6</ele><time>2026-04-19T08:53:28.895Z</time></trkpt><trkpt lat="44.8325525" lon="9.7686517"><ele>276.40000000000003</ele><time>2026-04-19T08:53:30.868Z</time></trkpt><trkpt lat="44.8325929" lon="9.7685241"><ele>276.2</ele><time>2026-04-19T08:53:32.894Z</time></trkpt><trkpt lat="44.8326346" lon="9.7684059"><ele>276.0</ele><time>2026-04-19T08:53:34.887Z</time></trkpt><trkpt lat="44.8326846" lon="9.7683106"><ele>274.40000000000003</ele><time>2026-04-19T08:53:36.88Z</time></trkpt><trkpt lat="44.8327445" lon="9.7682268"><ele>272.8</ele><time>2026-04-19T08:53:38.892Z</time></trkpt><trkpt lat="44.8328201" lon="9.7682037"><ele>271.20000000000005</ele><time>2026-04-19T08:53:40.872Z</time></trkpt><trkpt lat="44.8329116" lon="9.7681907"><ele>269.6</ele><time>2026-04-19T08:53:42.893Z</time></trkpt><trkpt lat="44.8330216" lon="9.7681698"><ele>268.0</ele><time>2026-04-19T08:53:44.895Z</time></trkpt><trkpt lat="44.8331277" lon="9.7681525"><ele>268.0</ele><time>2026-04-19T08:53:46.893Z</time></trkpt><trkpt lat="44.8332198" lon="9.7681374"><ele>268.0</ele><time>2026-04-19T08:53:48.894Z</time></trkpt><trkpt lat="44.8333202" lon="9.7681187"><ele>268.0</ele><time>2026-04-19T08:53:50.906Z</time></trkpt><trkpt lat="44.8333951" lon="9.7681142"><ele>268.0</ele><time>2026-04-19T08:53:52.882Z</time></trkpt><trkpt lat="44.8334738" lon="9.768097"><ele>268.0</ele><time>2026-04-19T08:53:54.907Z</time></trkpt><trkpt lat="44.8335677" lon="9.7680754"><ele>268.0</ele><time>2026-04-19T08:53:56.878Z</time></trkpt><trkpt lat="44.8336572" lon="9.7680694"><ele>266.2</ele><time>2026-04-19T08:53:58.896Z</time></trkpt><trkpt lat="44.8337545" lon="9.7680362"><ele>264.4</ele><time>2026-04-19T08:54:00.903Z</time></trkpt><trkpt lat="44.833862" lon="9.7680108"><ele>262.59999999999997</ele><time>2026-04-19T08:54:02.9Z</time></trkpt><trkpt lat="44.8339622" lon="9.7679632"><ele>260.8</ele><time>2026-04-19T08:54:04.904Z</time></trkpt><trkpt lat="44.8340601" lon="9.767925"><ele>259.0</ele><time>2026-04-19T08:54:06.902Z</time></trkpt><trkpt lat="44.8341525" lon="9.7678965"><ele>259.0</ele><time>2026-04-19T08:54:08.894Z</time></trkpt><trkpt lat="44.8342388" lon="9.7678404"><ele>259.0</ele><time>2026-04-19T08:54:10.908Z</time></trkpt><trkpt lat="44.8343311" lon="9.7678043"><ele>259.0</ele><time>2026-04-19T08:54:12.904Z</time></trkpt><trkpt lat="44.8344276" lon="9.7677822"><ele>259.0</ele><time>2026-04-19T08:54:14.905Z</time></trkpt><trkpt lat="44.8345288" lon="9.7677318"><ele>259.0</ele><time>2026-04-19T08:54:16.9Z</time></trkpt><trkpt lat="44.8346009" lon="9.7675647"><ele>259.2</ele><time>2026-04-19T08:54:18.893Z</time></trkpt><trkpt lat="44.8346124" lon="9.7674643"><ele>259.4</ele><time>2026-04-19T08:54:19.898Z</time></trkpt><trkpt lat="44.8346462" lon="9.7673059"><ele>259.6</ele><time>2026-04-19T08:54:21.892Z</time></trkpt><trkpt lat="44.8347005" lon="9.76718"><ele>259.8</ele><time>2026-04-19T08:54:23.891Z</time></trkpt><trkpt lat="44.8347859" lon="9.7671128"><ele>260.0</ele><time>2026-04-19T08:54:25.912Z</time></trkpt><trkpt lat="44.8348896" lon="9.7671317"><ele>260.0</ele><time>2026-04-19T08:54:27.9Z</time></trkpt><trkpt lat="44.834986" lon="9.7671834"><ele>260.0</ele><time>2026-04-19T08:54:29.904Z</time></trkpt><trkpt lat="44.8350812" lon="9.7671996"><ele>260.0</ele><time>2026-04-19T08:54:31.896Z</time></trkpt><trkpt lat="44.8351736" lon="9.7671435"><ele>260.0</ele><time>2026-04-19T08:54:33.913Z</time></trkpt><trkpt lat="44.8352503" lon="9.7670295"><ele>260.0</ele><time>2026-04-19T08:54:35.892Z</time></trkpt><trkpt lat="44.8352827" lon="9.7668698"><ele>258.6666666666667</ele><time>2026-04-19T08:54:37.894Z</time></trkpt><trkpt lat="44.8353106" lon="9.7667529"><ele>257.33333333333337</ele><time>2026-04-19T08:54:39.881Z</time></trkpt><trkpt lat="44.8353474" lon="9.7666463"><ele>256.0</ele><time>2026-04-19T08:54:42.083Z</time></trkpt><trkpt lat="44.8354153" lon="9.7665918"><ele>254.66666666666669</ele><time>2026-04-19T08:54:46.084Z</time></trkpt><trkpt lat="44.8354813" lon="9.7666021"><ele>253.33333333333334</ele><time>2026-04-19T08:54:49.079Z</time></trkpt><trkpt lat="44.8355431" lon="9.7666229"><ele>252.0</ele><time>2026-04-19T08:54:51.088Z</time></trkpt><trkpt lat="44.8356242" lon="9.7666869"><ele>252.0</ele><time>2026-04-19T08:54:54.066Z</time></trkpt><trkpt lat="44.8356885" lon="9.7667375"><ele>252.0</ele><time>2026-04-19T08:54:56.089Z</time></trkpt><trkpt lat="44.8357641" lon="9.7667633"><ele>252.0</ele><time>2026-04-19T08:54:58.08Z</time></trkpt><trkpt lat="44.8358378" lon="9.7667534"><ele>252.0</ele><time>2026-04-19T08:55:00.083Z</time></trkpt><trkpt lat="44.8359007" lon="9.7667473"><ele>252.0</ele><time>2026-04-19T08:55:02.079Z</time></trkpt><trkpt lat="44.8359692" lon="9.7667424"><ele>252.0</ele><time>2026-04-19T08:55:04.086Z</time></trkpt><trkpt lat="44.836039" lon="9.7667273"><ele>252.0</ele><time>2026-04-19T08:55:06.093Z</time></trkpt><trkpt lat="44.8361125" lon="9.7667039"><ele>250.85714285714286</ele><time>2026-04-19T08:55:08.081Z</time></trkpt><trkpt lat="44.8361867" lon="9.7666564"><ele>249.71428571428572</ele><time>2026-04-19T08:55:10.077Z</time></trkpt><trkpt lat="44.836243" lon="9.7666074"><ele>248.57142857142856</ele><time>2026-04-19T08:55:12.095Z</time></trkpt><trkpt lat="44.8363112" lon="9.7665954"><ele>247.42857142857142</ele><time>2026-04-19T08:55:14.086Z</time></trkpt><trkpt lat="44.8363812" lon="9.7666187"><ele>246.28571428571428</ele><time>2026-04-19T08:55:16.089Z</time></trkpt><trkpt lat="44.8364491" lon="9.7666385"><ele>245.1428571428571</ele><time>2026-04-19T08:55:18.09Z</time></trkpt><trkpt lat="44.8365238" lon="9.7666607"><ele>243.99999999999997</ele><time>2026-04-19T08:55:20.081Z</time></trkpt><trkpt lat="44.8365943" lon="9.7667077"><ele>243.99999999999997</ele><time>2026-04-19T08:55:22.107Z</time></trkpt><trkpt lat="44.8366717" lon="9.7667094"><ele>244.0</ele><time>2026-04-19T08:55:24.092Z</time></trkpt><trkpt lat="44.8367389" lon="9.7666875"><ele>243.99999999999997</ele><time>2026-04-19T08:55:26.082Z</time></trkpt><trkpt lat="44.8368089" lon="9.7666307"><ele>243.99999999999997</ele><time>2026-04-19T08:55:29.088Z</time></trkpt><trkpt lat="44.8368679" lon="9.7665841"><ele>244.0</ele><time>2026-04-19T08:55:32.079Z</time></trkpt><trkpt lat="44.8369375" lon="9.7665977"><ele>243.99999999999997</ele><time>2026-04-19T08:55:37.076Z</time></trkpt><trkpt lat="44.8368905" lon="9.7665288"><ele>243.99999999999997</ele><time>2026-04-19T08:57:06.073Z</time></trkpt><trkpt lat="44.8368448" lon="9.7664554"><ele>243.99999999999997</ele><time>2026-04-19T08:57:11.088Z</time></trkpt><trkpt lat="44.8368429" lon="9.7663645"><ele>244.0</ele><time>2026-04-19T08:57:15.082Z</time></trkpt><trkpt lat="44.8368385" lon="9.7662568"><ele>243.99999999999997</ele><time>2026-04-19T08:57:19.086Z</time></trkpt><trkpt lat="44.8367881" lon="9.7661731"><ele>243.99999999999997</ele><time>2026-04-19T08:57:23.089Z</time></trkpt><trkpt lat="44.8367263" lon="9.766144"><ele>244.0</ele><time>2026-04-19T08:57:26.084Z</time></trkpt><trkpt lat="44.8366588" lon="9.766093"><ele>243.99999999999997</ele><time>2026-04-19T08:57:30.09Z</time></trkpt><trkpt lat="44.8365902" lon="9.7660436"><ele>243.99999999999997</ele><time>2026-04-19T08:57:34.089Z</time></trkpt><trkpt lat="44.8365226" lon="9.7659937"><ele>243.49999999999997</ele><time>2026-04-19T08:57:38.087Z</time></trkpt><trkpt lat="44.836463" lon="9.7659441"><ele>243.0</ele><time>2026-04-19T08:57:42.079Z</time></trkpt><trkpt lat="44.8363915" lon="9.7658974"><ele>242.5</ele><time>2026-04-19T08:57:46.082Z</time></trkpt><trkpt lat="44.8363232" lon="9.7658442"><ele>242.0</ele><time>2026-04-19T08:57:50.093Z</time></trkpt><trkpt lat="44.8362542" lon="9.7657925"><ele>241.49999999999997</ele><time>2026-04-19T08:57:54.091Z</time></trkpt><trkpt lat="44.8361995" lon="9.7657449"><ele>241.0</ele><time>2026-04-19T08:57:57.088Z</time></trkpt><trkpt lat="44.836129" lon="9.7656872"><ele>241.0</ele><time>2026-04-19T08:58:01.085Z</time></trkpt><trkpt lat="44.8360606" lon="9.7656298"><ele>241.00000000000003</ele><time>2026-04-19T08:58:05.074Z</time></trkpt><trkpt lat="44.8360013" lon="9.7655808"><ele>241.0</ele><time>2026-04-19T08:58:08.088Z</time></trkpt><trkpt lat="44.8359473" lon="9.765533"><ele>241.0</ele><time>2026-04-19T08:58:11.087Z</time></trkpt><trkpt lat="44.8358901" lon="9.7654859"><ele>241.00000000000003</ele><time>2026-04-19T08:58:14.093Z</time></trkpt><trkpt lat="44.8358345" lon="9.7654437"><ele>241.0</ele><time>2026-04-19T08:58:17.092Z</time></trkpt><trkpt lat="44.8357805" lon="9.7653933"><ele>241.0</ele><time>2026-04-19T08:58:20.094Z</time></trkpt><trkpt lat="44.8357052" lon="9.7653333"><ele>241.2857142857143</ele><time>2026-04-19T08:58:24.099Z</time></trkpt><trkpt lat="44.8356489" lon="9.7652891"><ele>241.5714285714286</ele><time>2026-04-19T08:58:27.088Z</time></trkpt><trkpt lat="44.8355901" lon="9.7652462"><ele>241.85714285714286</ele><time>2026-04-19T08:58:30.096Z</time></trkpt><trkpt lat="44.8355169" lon="9.7651907"><ele>242.14285714285717</ele><time>2026-04-19T08:58:34.097Z</time></trkpt><trkpt lat="44.8354598" lon="9.7651495"><ele>242.42857142857144</ele><time>2026-04-19T08:58:37.087Z</time></trkpt><trkpt lat="44.8354019" lon="9.7651035"><ele>242.71428571428572</ele><time>2026-04-19T08:58:40.09Z</time></trkpt><trkpt lat="44.8353487" lon="9.765055"><ele>243.0</ele><time>2026-04-19T08:58:43.095Z</time></trkpt><trkpt lat="44.8352866" lon="9.7650014"><ele>243.0</ele><time>2026-04-19T08:58:47.085Z</time></trkpt><trkpt lat="44.8352152" lon="9.7649483"><ele>243.0</ele><time>2026-04-19T08:58:51.099Z</time></trkpt><trkpt lat="44.8351536" lon="9.7648983"><ele>243.0</ele><time>2026-04-19T08:58:54.097Z</time></trkpt><trkpt lat="44.8350929" lon="9.7648423"><ele>243.0</ele><time>2026-04-19T08:58:58.089Z</time></trkpt><trkpt lat="44.8350242" lon="9.7647833"><ele>243.0</ele><time>2026-04-19T08:59:02.094Z</time></trkpt><trkpt lat="44.8349646" lon="9.7647315"><ele>243.0</ele><time>2026-04-19T08:59:05.082Z</time></trkpt><trkpt lat="44.8348967" lon="9.7646673"><ele>243.85714285714283</ele><time>2026-04-19T08:59:09.086Z</time></trkpt><trkpt lat="44.8348401" lon="9.7646015"><ele>244.71428571428572</ele><time>2026-04-19T08:59:13.086Z</time></trkpt><trkpt lat="44.8347818" lon="9.7645387"><ele>245.57142857142856</ele><time>2026-04-19T08:59:17.098Z</time></trkpt><trkpt lat="44.834726" lon="9.7644952"><ele>246.42857142857142</ele><time>2026-04-19T08:59:20.065Z</time></trkpt><trkpt lat="44.8346624" lon="9.7644346"><ele>247.28571428571428</ele><time>2026-04-19T08:59:24.092Z</time></trkpt><trkpt lat="44.8345953" lon="9.7643774"><ele>248.14285714285714</ele><time>2026-04-19T08:59:28.092Z</time></trkpt><trkpt lat="44.834526" lon="9.7643279"><ele>249.0</ele><time>2026-04-19T08:59:32.072Z</time></trkpt><trkpt lat="44.8344711" lon="9.7642831"><ele>249.0</ele><time>2026-04-19T08:59:36.066Z</time></trkpt><trkpt lat="44.8344483" lon="9.7641896"><ele>249.0</ele><time>2026-04-19T08:59:41.083Z</time></trkpt><trkpt lat="44.8344926" lon="9.7640981"><ele>249.0</ele><time>2026-04-19T08:59:43.082Z</time></trkpt><trkpt lat="44.8345606" lon="9.7639824"><ele>249.0</ele><time>2026-04-19T08:59:45.098Z</time></trkpt><trkpt lat="44.8346249" lon="9.7638323"><ele>249.0</ele><time>2026-04-19T08:59:47.073Z</time></trkpt><trkpt lat="44.8346586" lon="9.7637508"><ele>249.0</ele><time>2026-04-19T08:59:48.087Z</time></trkpt><trkpt lat="44.8346872" lon="9.7636698"><ele>249.0</ele><time>2026-04-19T08:59:49.084Z</time></trkpt><trkpt lat="44.8347181" lon="9.7635868"><ele>248.99999999999997</ele><time>2026-04-19T08:59:50.069Z</time></trkpt><trkpt lat="44.8347499" lon="9.7635009"><ele>249.0</ele><time>2026-04-19T08:59:51.09Z</time></trkpt><trkpt lat="44.8347858" lon="9.7634113"><ele>249.0</ele><time>2026-04-19T08:59:52.088Z</time></trkpt><trkpt lat="44.8348205" lon="9.7633235"><ele>248.99999999999997</ele><time>2026-04-19T08:59:53.093Z</time></trkpt><trkpt lat="44.8348559" lon="9.7632344"><ele>249.0</ele><time>2026-04-19T08:59:54.092Z</time></trkpt><trkpt lat="44.8348888" lon="9.7631466"><ele>249.0</ele><time>2026-04-19T08:59:55.09Z</time></trkpt><trkpt lat="44.8349222" lon="9.7630552"><ele>249.0</ele><time>2026-04-19T08:59:56.096Z</time></trkpt><trkpt lat="44.8349545" lon="9.7629632"><ele>248.99999999999997</ele><time>2026-04-19T08:59:57.083Z</time></trkpt><trkpt lat="44.8349877" lon="9.7628739"><ele>249.0</ele><time>2026-04-19T08:59:58.094Z</time></trkpt><trkpt lat="44.8350252" lon="9.7627827"><ele>249.0</ele><time>2026-04-19T08:59:59.091Z</time></trkpt><trkpt lat="44.8350589" lon="9.7626927"><ele>248.99999999999997</ele><time>2026-04-19T09:00:00.095Z</time></trkpt><trkpt lat="44.8350954" lon="9.7626086"><ele>249.0</ele><time>2026-04-19T09:00:01.09Z</time></trkpt><trkpt lat="44.8351328" lon="9.7625174"><ele>249.0</ele><time>2026-04-19T09:00:02.096Z</time></trkpt><trkpt lat="44.83517" lon="9.7624351"><ele>248.14285714285714</ele><time>2026-04-19T09:00:03.088Z</time></trkpt><trkpt lat="44.8352063" lon="9.7623449"><ele>247.28571428571428</ele><time>2026-04-19T09:00:04.086Z</time></trkpt><trkpt lat="44.8352359" lon="9.762262"><ele>246.42857142857142</ele><time>2026-04-19T09:00:05.092Z</time></trkpt><trkpt lat="44.8352702" lon="9.7621864"><ele>245.57142857142856</ele><time>2026-04-19T09:00:06.093Z</time></trkpt><trkpt lat="44.8353031" lon="9.7621056"><ele>244.71428571428572</ele><time>2026-04-19T09:00:07.085Z</time></trkpt><trkpt lat="44.8353345" lon="9.7620252"><ele>243.85714285714283</ele><time>2026-04-19T09:00:08.094Z</time></trkpt><trkpt lat="44.8353698" lon="9.7619394"><ele>243.0</ele><time>2026-04-19T09:00:09.099Z</time></trkpt><trkpt lat="44.8354114" lon="9.7618583"><ele>242.71428571428572</ele><time>2026-04-19T09:00:10.096Z</time></trkpt><trkpt lat="44.8354462" lon="9.7617743"><ele>242.42857142857144</ele><time>2026-04-19T09:00:11.076Z</time></trkpt><trkpt lat="44.8354834" lon="9.7616951"><ele>242.14285714285717</ele><time>2026-04-19T09:00:12.086Z</time></trkpt><trkpt lat="44.8355166" lon="9.7616139"><ele>241.85714285714286</ele><time>2026-04-19T09:00:13.094Z</time></trkpt><trkpt lat="44.8355515" lon="9.7615369"><ele>241.5714285714286</ele><time>2026-04-19T09:00:14.09Z</time></trkpt><trkpt lat="44.8355854" lon="9.7614568"><ele>241.2857142857143</ele><time>2026-04-19T09:00:15.102Z</time></trkpt><trkpt lat="44.8356177" lon="9.7613706"><ele>241.0</ele><time>2026-04-19T09:00:16.073Z</time></trkpt><trkpt lat="44.8356523" lon="9.7612878"><ele>241.0</ele><time>2026-04-19T09:00:17.085Z</time></trkpt><trkpt lat="44.8356861" lon="9.7611993"><ele>241.00000000000003</ele><time>2026-04-19T09:00:18.093Z</time></trkpt><trkpt lat="44.8357189" lon="9.7611138"><ele>241.0</ele><time>2026-04-19T09:00:19.09Z</time></trkpt><trkpt lat="44.8357555" lon="9.7610253"><ele>241.0</ele><time>2026-04-19T09:00:20.083Z</time></trkpt><trkpt lat="44.8357869" lon="9.7609386"><ele>241.00000000000003</ele><time>2026-04-19T09:00:21.084Z</time></trkpt><trkpt lat="44.8358249" lon="9.760854"><ele>241.0</ele><time>2026-04-19T09:00:22.095Z</time></trkpt><trkpt lat="44.8358566" lon="9.7607727"><ele>241.0</ele><time>2026-04-19T09:00:23.086Z</time></trkpt><trkpt lat="44.8358883" lon="9.7606902"><ele>240.60000000000002</ele><time>2026-04-19T09:00:24.094Z</time></trkpt><trkpt lat="44.8359452" lon="9.7605462"><ele>240.20000000000002</ele><time>2026-04-19T09:00:26.091Z</time></trkpt><trkpt lat="44.8360037" lon="9.7604124"><ele>239.79999999999998</ele><time>2026-04-19T09:00:28.09Z</time></trkpt><trkpt lat="44.8360602" lon="9.7603315"><ele>239.39999999999998</ele><time>2026-04-19T09:00:30.083Z</time></trkpt><trkpt lat="44.836142" lon="9.7603346"><ele>239.0</ele><time>2026-04-19T09:00:32.091Z</time></trkpt><trkpt lat="44.8362114" lon="9.7604029"><ele>238.6</ele><time>2026-04-19T09:00:34.095Z</time></trkpt><trkpt lat="44.8362929" lon="9.7604642"><ele>238.2</ele><time>2026-04-19T09:00:36.091Z</time></trkpt><trkpt lat="44.8363778" lon="9.7605486"><ele>237.79999999999998</ele><time>2026-04-19T09:00:38.089Z</time></trkpt><trkpt lat="44.8364619" lon="9.7606338"><ele>237.39999999999998</ele><time>2026-04-19T09:00:40.08Z</time></trkpt><trkpt lat="44.8365495" lon="9.7607148"><ele>237.0</ele><time>2026-04-19T09:00:42.091Z</time></trkpt><trkpt lat="44.8366385" lon="9.7607939"><ele>237.0</ele><time>2026-04-19T09:00:44.07Z</time></trkpt><trkpt lat="44.8367251" lon="9.7608749"><ele>237.0</ele><time>2026-04-19T09:00:46.083Z</time></trkpt><trkpt lat="44.8368154" lon="9.7609567"><ele>237.0</ele><time>2026-04-19T09:00:48.097Z</time></trkpt><trkpt lat="44.8369108" lon="9.7610425"><ele>237.0</ele><time>2026-04-19T09:00:50.079Z</time></trkpt><trkpt lat="44.8370114" lon="9.761126"><ele>237.0</ele><time>2026-04-19T09:00:52.081Z</time></trkpt><trkpt lat="44.8371095" lon="9.761213"><ele>236.83333333333334</ele><time>2026-04-19T09:00:54.083Z</time></trkpt><trkpt lat="44.8372128" lon="9.7612986"><ele>236.66666666666669</ele><time>2026-04-19T09:00:56.083Z</time></trkpt><trkpt lat="44.8373198" lon="9.7613817"><ele>236.5</ele><time>2026-04-19T09:00:58.095Z</time></trkpt><trkpt lat="44.8373747" lon="9.7614276"><ele>236.33333333333334</ele><time>2026-04-19T09:00:59.086Z</time></trkpt><trkpt lat="44.8374308" lon="9.7614756"><ele>236.16666666666669</ele><time>2026-04-19T09:01:00.087Z</time></trkpt><trkpt lat="44.8374872" lon="9.7615199"><ele>236.0</ele><time>2026-04-19T09:01:01.091Z</time></trkpt><trkpt lat="44.837543" lon="9.7615664"><ele>236.0</ele><time>2026-04-19T09:01:02.087Z</time></trkpt><trkpt lat="44.8375991" lon="9.7616141"><ele>236.0</ele><time>2026-04-19T09:01:03.084Z</time></trkpt><trkpt lat="44.837655" lon="9.7616621"><ele>236.0</ele><time>2026-04-19T09:01:04.086Z</time></trkpt><trkpt lat="44.8377121" lon="9.7617097"><ele>236.0</ele><time>2026-04-19T09:01:05.096Z</time></trkpt><trkpt lat="44.8377702" lon="9.7617577"><ele>236.0</ele><time>2026-04-19T09:01:06.091Z</time></trkpt><trkpt lat="44.8378253" lon="9.7618031"><ele>236.0</ele><time>2026-04-19T09:01:07.086Z</time></trkpt><trkpt lat="44.8378865" lon="9.7618447"><ele>236.0</ele><time>2026-04-19T09:01:08.088Z</time></trkpt><trkpt lat="44.8379435" lon="9.7618943"><ele>235.42857142857142</ele><time>2026-04-19T09:01:09.091Z</time></trkpt><trkpt lat="44.838002" lon="9.7619473"><ele>234.8571428571429</ele><time>2026-04-19T09:01:10.088Z</time></trkpt><trkpt lat="44.8380576" lon="9.7620005"><ele>234.2857142857143</ele><time>2026-04-19T09:01:11.095Z</time></trkpt><trkpt lat="44.8381152" lon="9.7620472"><ele>233.71428571428572</ele><time>2026-04-19T09:01:12.082Z</time></trkpt><trkpt lat="44.8381745" lon="9.7620961"><ele>233.14285714285717</ele><time>2026-04-19T09:01:13.08Z</time></trkpt><trkpt lat="44.8382353" lon="9.7621472"><ele>232.5714285714286</ele><time>2026-04-19T09:01:14.087Z</time></trkpt><trkpt lat="44.8382993" lon="9.7621988"><ele>232.00000000000003</ele><time>2026-04-19T09:01:15.085Z</time></trkpt><trkpt lat="44.8383619" lon="9.7622496"><ele>232.00000000000003</ele><time>2026-04-19T09:01:16.084Z</time></trkpt><trkpt lat="44.8384237" lon="9.762301"><ele>232.0</ele><time>2026-04-19T09:01:17.089Z</time></trkpt><trkpt lat="44.8384821" lon="9.7623481"><ele>232.00000000000003</ele><time>2026-04-19T09:01:18.093Z</time></trkpt><trkpt lat="44.8385417" lon="9.7623957"><ele>232.00000000000003</ele><time>2026-04-19T09:01:19.087Z</time></trkpt><trkpt lat="44.8386014" lon="9.7624484"><ele>232.0</ele><time>2026-04-19T09:01:20.078Z</time></trkpt><trkpt lat="44.8386631" lon="9.7624986"><ele>232.00000000000003</ele><time>2026-04-19T09:01:21.085Z</time></trkpt><trkpt lat="44.8387251" lon="9.7625416"><ele>232.00000000000003</ele><time>2026-04-19T09:01:22.093Z</time></trkpt><trkpt lat="44.8387875" lon="9.7625959"><ele>231.5714285714286</ele><time>2026-04-19T09:01:23.083Z</time></trkpt><trkpt lat="44.8388466" lon="9.7626481"><ele>231.14285714285717</ele><time>2026-04-19T09:01:24.093Z</time></trkpt><trkpt lat="44.8389069" lon="9.7626993"><ele>230.71428571428572</ele><time>2026-04-19T09:01:25.078Z</time></trkpt><trkpt lat="44.8389668" lon="9.7627556"><ele>230.2857142857143</ele><time>2026-04-19T09:01:26.087Z</time></trkpt><trkpt lat="44.8390357" lon="9.7628074"><ele>229.8571428571429</ele><time>2026-04-19T09:01:27.089Z</time></trkpt><trkpt lat="44.8391028" lon="9.762859"><ele>229.42857142857142</ele><time>2026-04-19T09:01:28.105Z</time></trkpt><trkpt lat="44.8391664" lon="9.7629096"><ele>229.0</ele><time>2026-04-19T09:01:29.094Z</time></trkpt><trkpt lat="44.8392335" lon="9.7629679"><ele>228.99999999999997</ele><time>2026-04-19T09:01:30.081Z</time></trkpt><trkpt lat="44.8392981" lon="9.763017"><ele>229.0</ele><time>2026-04-19T09:01:31.095Z</time></trkpt><trkpt lat="44.839367" lon="9.7630738"><ele>229.0</ele><time>2026-04-19T09:01:32.082Z</time></trkpt><trkpt lat="44.8394311" lon="9.7631328"><ele>229.0</ele><time>2026-04-19T09:01:33.085Z</time></trkpt><trkpt lat="44.8394959" lon="9.7631902"><ele>228.99999999999997</ele><time>2026-04-19T09:01:34.085Z</time></trkpt><trkpt lat="44.8395592" lon="9.7632458"><ele>229.0</ele><time>2026-04-19T09:01:35.088Z</time></trkpt><trkpt lat="44.8396282" lon="9.7632989"><ele>228.99999999999997</ele><time>2026-04-19T09:01:36.09Z</time></trkpt><trkpt lat="44.8396924" lon="9.763356"><ele>229.0</ele><time>2026-04-19T09:01:37.093Z</time></trkpt><trkpt lat="44.8397584" lon="9.7634056"><ele>229.0</ele><time>2026-04-19T09:01:38.089Z</time></trkpt><trkpt lat="44.8398254" lon="9.7634634"><ele>229.0</ele><time>2026-04-19T09:01:39.088Z</time></trkpt><trkpt lat="44.8398911" lon="9.7635225"><ele>228.99999999999997</ele><time>2026-04-19T09:01:40.088Z</time></trkpt><trkpt lat="44.8399565" lon="9.7635799"><ele>229.0</ele><time>2026-04-19T09:01:41.088Z</time></trkpt><trkpt lat="44.8400209" lon="9.7636318"><ele>228.99999999999997</ele><time>2026-04-19T09:01:42.094Z</time></trkpt><trkpt lat="44.8400864" lon="9.7636916"><ele>229.0</ele><time>2026-04-19T09:01:43.082Z</time></trkpt><trkpt lat="44.8401551" lon="9.7637473"><ele>229.0</ele><time>2026-04-19T09:01:44.081Z</time></trkpt><trkpt lat="44.8402203" lon="9.7637968"><ele>229.0</ele><time>2026-04-19T09:01:45.074Z</time></trkpt><trkpt lat="44.8402852" lon="9.7638534"><ele>228.99999999999997</ele><time>2026-04-19T09:01:46.095Z</time></trkpt><trkpt lat="44.8403475" lon="9.7639049"><ele>229.0</ele><time>2026-04-19T09:01:47.091Z</time></trkpt><trkpt lat="44.8404129" lon="9.7639612"><ele>228.49999999999997</ele><time>2026-04-19T09:01:48.085Z</time></trkpt><trkpt lat="44.8404772" lon="9.7640182"><ele>228.0</ele><time>2026-04-19T09:01:49.084Z</time></trkpt><trkpt lat="44.8405463" lon="9.7640753"><ele>227.5</ele><time>2026-04-19T09:01:50.1Z</time></trkpt><trkpt lat="44.8406123" lon="9.7641307"><ele>227.0</ele><time>2026-04-19T09:01:51.091Z</time></trkpt><trkpt lat="44.8406788" lon="9.7641794"><ele>226.49999999999997</ele><time>2026-04-19T09:01:52.092Z</time></trkpt><trkpt lat="44.840745" lon="9.7642331"><ele>226.0</ele><time>2026-04-19T09:01:53.095Z</time></trkpt><trkpt lat="44.8408141" lon="9.7642895"><ele>225.99999999999997</ele><time>2026-04-19T09:01:54.095Z</time></trkpt><trkpt lat="44.8408869" lon="9.7643494"><ele>226.0</ele><time>2026-04-19T09:01:55.101Z</time></trkpt><trkpt lat="44.8409542" lon="9.7644028"><ele>226.0</ele><time>2026-04-19T09:01:56.089Z</time></trkpt><trkpt lat="44.8410208" lon="9.7644627"><ele>226.0</ele><time>2026-04-19T09:01:57.094Z</time></trkpt><trkpt lat="44.8410919" lon="9.7645199"><ele>225.99999999999997</ele><time>2026-04-19T09:01:58.079Z</time></trkpt><trkpt lat="44.8411622" lon="9.7645819"><ele>226.0</ele><time>2026-04-19T09:01:59.1Z</time></trkpt><trkpt lat="44.8412295" lon="9.76464"><ele>225.99999999999997</ele><time>2026-04-19T09:02:00.09Z</time></trkpt><trkpt lat="44.8412989" lon="9.7647008"><ele>226.0</ele><time>2026-04-19T09:02:01.084Z</time></trkpt><trkpt lat="44.8413684" lon="9.7647613"><ele>226.0</ele><time>2026-04-19T09:02:02.093Z</time></trkpt><trkpt lat="44.841437" lon="9.7648158"><ele>226.0</ele><time>2026-04-19T09:02:03.088Z</time></trkpt><trkpt lat="44.8415035" lon="9.764866"><ele>225.99999999999997</ele><time>2026-04-19T09:02:04.093Z</time></trkpt><trkpt lat="44.8415726" lon="9.7649283"><ele>226.0</ele><time>2026-04-19T09:02:05.086Z</time></trkpt><trkpt lat="44.8416386" lon="9.7649834"><ele>225.99999999999997</ele><time>2026-04-19T09:02:06.091Z</time></trkpt><trkpt lat="44.8417041" lon="9.7650345"><ele>226.0</ele><time>2026-04-19T09:02:07.09Z</time></trkpt><trkpt lat="44.84177" lon="9.7650868"><ele>226.0</ele><time>2026-04-19T09:02:08.085Z</time></trkpt><trkpt lat="44.8418349" lon="9.7651374"><ele>226.0</ele><time>2026-04-19T09:02:09.088Z</time></trkpt><trkpt lat="44.8419021" lon="9.7651941"><ele>225.99999999999997</ele><time>2026-04-19T09:02:10.088Z</time></trkpt><trkpt lat="44.841969" lon="9.7652549"><ele>226.0</ele><time>2026-04-19T09:02:11.088Z</time></trkpt><trkpt lat="44.842033" lon="9.7653095"><ele>225.49999999999997</ele><time>2026-04-19T09:02:12.08Z</time></trkpt><trkpt lat="44.8420999" lon="9.7653655"><ele>225.0</ele><time>2026-04-19T09:02:13.096Z</time></trkpt><trkpt lat="44.8421689" lon="9.7654222"><ele>224.5</ele><time>2026-04-19T09:02:14.089Z</time></trkpt><trkpt lat="44.8422345" lon="9.7654753"><ele>224.0</ele><time>2026-04-19T09:02:15.08Z</time></trkpt><trkpt lat="44.8423011" lon="9.7655314"><ele>223.49999999999997</ele><time>2026-04-19T09:02:16.087Z</time></trkpt><trkpt lat="44.8423679" lon="9.7655843"><ele>223.0</ele><time>2026-04-19T09:02:17.069Z</time></trkpt><trkpt lat="44.8424355" lon="9.7656364"><ele>222.99999999999997</ele><time>2026-04-19T09:02:18.086Z</time></trkpt><trkpt lat="44.8425024" lon="9.7656956"><ele>223.0</ele><time>2026-04-19T09:02:19.089Z</time></trkpt><trkpt lat="44.8425665" lon="9.7657549"><ele>223.0</ele><time>2026-04-19T09:02:20.084Z</time></trkpt><trkpt lat="44.8426378" lon="9.765811"><ele>223.0</ele><time>2026-04-19T09:02:21.1Z</time></trkpt><trkpt lat="44.8427043" lon="9.7658702"><ele>222.99999999999997</ele><time>2026-04-19T09:02:22.068Z</time></trkpt><trkpt lat="44.8427721" lon="9.7659298"><ele>223.0</ele><time>2026-04-19T09:02:23.09Z</time></trkpt><trkpt lat="44.8428415" lon="9.7659897"><ele>222.83333333333331</ele><time>2026-04-19T09:02:24.097Z</time></trkpt><trkpt lat="44.8429141" lon="9.7660443"><ele>222.66666666666666</ele><time>2026-04-19T09:02:25.089Z</time></trkpt><trkpt lat="44.8429824" lon="9.7661073"><ele>222.5</ele><time>2026-04-19T09:02:26.085Z</time></trkpt><trkpt lat="44.8430526" lon="9.7661689"><ele>222.33333333333331</ele><time>2026-04-19T09:02:27.08Z</time></trkpt><trkpt lat="44.8431246" lon="9.7662283"><ele>222.16666666666666</ele><time>2026-04-19T09:02:28.088Z</time></trkpt><trkpt lat="44.8431898" lon="9.7662892"><ele>222.0</ele><time>2026-04-19T09:02:29.089Z</time></trkpt><trkpt lat="44.8432602" lon="9.7663475"><ele>222.0</ele><time>2026-04-19T09:02:30.085Z</time></trkpt><trkpt lat="44.843332" lon="9.76641"><ele>222.0</ele><time>2026-04-19T09:02:31.078Z</time></trkpt><trkpt lat="44.8434004" lon="9.7664663"><ele>222.0</ele><time>2026-04-19T09:02:32.091Z</time></trkpt><trkpt lat="44.8434721" lon="9.7665254"><ele>222.0</ele><time>2026-04-19T09:02:33.081Z</time></trkpt><trkpt lat="44.843541" lon="9.766586"><ele>222.0</ele><time>2026-04-19T09:02:34.093Z</time></trkpt><trkpt lat="44.8436057" lon="9.7666424"><ele>222.0</ele><time>2026-04-19T09:02:35.086Z</time></trkpt><trkpt lat="44.8436707" lon="9.7667033"><ele>222.0</ele><time>2026-04-19T09:02:36.087Z</time></trkpt><trkpt lat="44.8437382" lon="9.7667575"><ele>222.0</ele><time>2026-04-19T09:02:37.097Z</time></trkpt><trkpt lat="44.8438084" lon="9.7668122"><ele>222.0</ele><time>2026-04-19T09:02:38.083Z</time></trkpt><trkpt lat="44.8438794" lon="9.7668603"><ele>222.0</ele><time>2026-04-19T09:02:39.093Z</time></trkpt><trkpt lat="44.8439477" lon="9.7669152"><ele>222.0</ele><time>2026-04-19T09:02:40.065Z</time></trkpt><trkpt lat="44.8440138" lon="9.7669693"><ele>222.0</ele><time>2026-04-19T09:02:41.081Z</time></trkpt><trkpt lat="44.8440826" lon="9.7670185"><ele>221.83333333333334</ele><time>2026-04-19T09:02:42.078Z</time></trkpt><trkpt lat="44.8441478" lon="9.7670808"><ele>221.66666666666669</ele><time>2026-04-19T09:02:43.081Z</time></trkpt><trkpt lat="44.8442118" lon="9.7671379"><ele>221.5</ele><time>2026-04-19T09:02:44.073Z</time></trkpt><trkpt lat="44.8442795" lon="9.7671897"><ele>221.33333333333334</ele><time>2026-04-19T09:02:45.081Z</time></trkpt><trkpt lat="44.8443464" lon="9.7672451"><ele>221.16666666666669</ele><time>2026-04-19T09:02:46.081Z</time></trkpt><trkpt lat="44.844416" lon="9.7672969"><ele>221.0</ele><time>2026-04-19T09:02:47.083Z</time></trkpt><trkpt lat="44.8444788" lon="9.7673581"><ele>221.00000000000003</ele><time>2026-04-19T09:02:48.083Z</time></trkpt><trkpt lat="44.8445459" lon="9.7674137"><ele>221.0</ele><time>2026-04-19T09:02:49.087Z</time></trkpt><trkpt lat="44.8446125" lon="9.7674703"><ele>221.0</ele><time>2026-04-19T09:02:50.084Z</time></trkpt><trkpt lat="44.8446787" lon="9.7675275"><ele>221.0</ele><time>2026-04-19T09:02:51.066Z</time></trkpt><trkpt lat="44.844745" lon="9.7675816"><ele>221.00000000000003</ele><time>2026-04-19T09:02:52.08Z</time></trkpt><trkpt lat="44.8448058" lon="9.767637"><ele>221.0</ele><time>2026-04-19T09:02:53.085Z</time></trkpt><trkpt lat="44.84487" lon="9.7676882"><ele>220.71428571428572</ele><time>2026-04-19T09:02:54.089Z</time></trkpt><trkpt lat="44.8449348" lon="9.7677473"><ele>220.42857142857144</ele><time>2026-04-19T09:02:55.093Z</time></trkpt><trkpt lat="44.8449984" lon="9.7677963"><ele>220.14285714285717</ele><time>2026-04-19T09:02:56.088Z</time></trkpt><trkpt lat="44.8450573" lon="9.7678451"><ele>219.85714285714286</ele><time>2026-04-19T09:02:57.099Z</time></trkpt><trkpt lat="44.8451127" lon="9.7678947"><ele>219.57142857142856</ele><time>2026-04-19T09:02:58.087Z</time></trkpt><trkpt lat="44.8451721" lon="9.7679496"><ele>219.2857142857143</ele><time>2026-04-19T09:02:59.079Z</time></trkpt><trkpt lat="44.8452251" lon="9.7680008"><ele>219.0</ele><time>2026-04-19T09:03:00.087Z</time></trkpt><trkpt lat="44.8452842" lon="9.7680483"><ele>219.0</ele><time>2026-04-19T09:03:01.087Z</time></trkpt><trkpt lat="44.8453394" lon="9.7680952"><ele>219.0</ele><time>2026-04-19T09:03:02.085Z</time></trkpt><trkpt lat="44.8454024" lon="9.7681329"><ele>219.0</ele><time>2026-04-19T09:03:03.076Z</time></trkpt><trkpt lat="44.8454592" lon="9.7681789"><ele>219.0</ele><time>2026-04-19T09:03:04.087Z</time></trkpt><trkpt lat="44.8455174" lon="9.7682222"><ele>219.0</ele><time>2026-04-19T09:03:05.081Z</time></trkpt><trkpt lat="44.8455723" lon="9.7682657"><ele>219.0</ele><time>2026-04-19T09:03:06.087Z</time></trkpt><trkpt lat="44.8456261" lon="9.7683149"><ele>219.0</ele><time>2026-04-19T09:03:07.088Z</time></trkpt><trkpt lat="44.8457357" lon="9.7683945"><ele>219.0</ele><time>2026-04-19T09:03:09.082Z</time></trkpt><trkpt lat="44.8458442" lon="9.7684808"><ele>218.99999999999997</ele><time>2026-04-19T09:03:11.083Z</time></trkpt><trkpt lat="44.8459493" lon="9.7685704"><ele>218.99999999999997</ele><time>2026-04-19T09:03:13.092Z</time></trkpt><trkpt lat="44.8460572" lon="9.7686635"><ele>219.0</ele><time>2026-04-19T09:03:15.088Z</time></trkpt><trkpt lat="44.8461134" lon="9.7687142"><ele>219.0</ele><time>2026-04-19T09:03:16.083Z</time></trkpt><trkpt lat="44.8461693" lon="9.7687653"><ele>219.14285714285714</ele><time>2026-04-19T09:03:17.08Z</time></trkpt><trkpt lat="44.8462267" lon="9.7688108"><ele>219.28571428571428</ele><time>2026-04-19T09:03:18.081Z</time></trkpt><trkpt lat="44.8462862" lon="9.7688529"><ele>219.42857142857142</ele><time>2026-04-19T09:03:19.078Z</time></trkpt><trkpt lat="44.8463506" lon="9.7688948"><ele>219.57142857142856</ele><time>2026-04-19T09:03:20.079Z</time></trkpt><trkpt lat="44.8464083" lon="9.7689399"><ele>219.71428571428572</ele><time>2026-04-19T09:03:21.078Z</time></trkpt><trkpt lat="44.8464692" lon="9.7689922"><ele>219.85714285714283</ele><time>2026-04-19T09:03:22.08Z</time></trkpt><trkpt lat="44.8465298" lon="9.7690377"><ele>220.0</ele><time>2026-04-19T09:03:23.083Z</time></trkpt><trkpt lat="44.8465911" lon="9.7690875"><ele>219.99999999999997</ele><time>2026-04-19T09:03:24.093Z</time></trkpt><trkpt lat="44.8466519" lon="9.7691368"><ele>220.0</ele><time>2026-04-19T09:03:25.082Z</time></trkpt><trkpt lat="44.8467147" lon="9.7691852"><ele>220.0</ele><time>2026-04-19T09:03:26.079Z</time></trkpt><trkpt lat="44.8467835" lon="9.7692298"><ele>220.0</ele><time>2026-04-19T09:03:27.083Z</time></trkpt><trkpt lat="44.8468495" lon="9.7692749"><ele>220.0</ele><time>2026-04-19T09:03:28.08Z</time></trkpt><trkpt lat="44.8469145" lon="9.7693228"><ele>219.99999999999997</ele><time>2026-04-19T09:03:29.083Z</time></trkpt><trkpt lat="44.8469794" lon="9.7693699"><ele>220.0</ele><time>2026-04-19T09:03:30.082Z</time></trkpt><trkpt lat="44.847043" lon="9.7694153"><ele>219.99999999999997</ele><time>2026-04-19T09:03:31.091Z</time></trkpt><trkpt lat="44.8471049" lon="9.7694615"><ele>220.0</ele><time>2026-04-19T09:03:32.088Z</time></trkpt><trkpt lat="44.8471643" lon="9.7695088"><ele>220.0</ele><time>2026-04-19T09:03:33.076Z</time></trkpt><trkpt lat="44.8472203" lon="9.7695562"><ele>220.0</ele><time>2026-04-19T09:03:34.085Z</time></trkpt><trkpt lat="44.8472781" lon="9.7696054"><ele>219.99999999999997</ele><time>2026-04-19T09:03:35.086Z</time></trkpt><trkpt lat="44.8473372" lon="9.7696526"><ele>220.0</ele><time>2026-04-19T09:03:36.067Z</time></trkpt><trkpt lat="44.8474399" lon="9.7697534"><ele>220.0</ele><time>2026-04-19T09:03:38.08Z</time></trkpt><trkpt lat="44.8474939" lon="9.7698199"><ele>220.0</ele><time>2026-04-19T09:03:39.081Z</time></trkpt><trkpt lat="44.8475453" lon="9.7698737"><ele>220.0</ele><time>2026-04-19T09:03:40.082Z</time></trkpt><trkpt lat="44.8476397" lon="9.769979"><ele>220.0</ele><time>2026-04-19T09:03:42.083Z</time></trkpt><trkpt lat="44.8477317" lon="9.7700827"><ele>220.0</ele><time>2026-04-19T09:03:44.078Z</time></trkpt><trkpt lat="44.8478307" lon="9.7701776"><ele>220.25</ele><time>2026-04-19T09:03:46.079Z</time></trkpt><trkpt lat="44.8479202" lon="9.7702727"><ele>220.5</ele><time>2026-04-19T09:03:48.081Z</time></trkpt><trkpt lat="44.8480132" lon="9.770359"><ele>220.75</ele><time>2026-04-19T09:03:50.074Z</time></trkpt><trkpt lat="44.8481178" lon="9.7704429"><ele>221.0</ele><time>2026-04-19T09:03:52.081Z</time></trkpt><trkpt lat="44.8482197" lon="9.7705304"><ele>221.0</ele><time>2026-04-19T09:03:54.078Z</time></trkpt><trkpt lat="44.8483165" lon="9.7706185"><ele>221.0</ele><time>2026-04-19T09:03:56.09Z</time></trkpt><trkpt lat="44.8484134" lon="9.770714"><ele>221.0</ele><time>2026-04-19T09:03:58.092Z</time></trkpt><trkpt lat="44.8485217" lon="9.7708054"><ele>221.0</ele><time>2026-04-19T09:04:00.086Z</time></trkpt><trkpt lat="44.8486318" lon="9.770888"><ele>220.50000000000003</ele><time>2026-04-19T09:04:02.077Z</time></trkpt><trkpt lat="44.8486888" lon="9.770929"><ele>220.0</ele><time>2026-04-19T09:04:03.083Z</time></trkpt><trkpt lat="44.8488011" lon="9.7710155"><ele>219.5</ele><time>2026-04-19T09:04:05.086Z</time></trkpt><trkpt lat="44.84886" lon="9.7710557"><ele>219.0</ele><time>2026-04-19T09:04:06.086Z</time></trkpt><trkpt lat="44.8489658" lon="9.7711441"><ele>218.50000000000003</ele><time>2026-04-19T09:04:08.076Z</time></trkpt><trkpt lat="44.8490197" lon="9.7711946"><ele>218.0</ele><time>2026-04-19T09:04:09.085Z</time></trkpt><trkpt lat="44.8490799" lon="9.7712506"><ele>218.0</ele><time>2026-04-19T09:04:10.074Z</time></trkpt><trkpt lat="44.8491383" lon="9.7713051"><ele>218.0</ele><time>2026-04-19T09:04:11.086Z</time></trkpt><trkpt lat="44.8491967" lon="9.7713542"><ele>218.0</ele><time>2026-04-19T09:04:12.083Z</time></trkpt><trkpt lat="44.8492583" lon="9.7714073"><ele>218.0</ele><time>2026-04-19T09:04:13.08Z</time></trkpt><trkpt lat="44.8493216" lon="9.7714629"><ele>218.0</ele><time>2026-04-19T09:04:14.088Z</time></trkpt><trkpt lat="44.8493795" lon="9.7715209"><ele>218.0</ele><time>2026-04-19T09:04:15.08Z</time></trkpt><trkpt lat="44.8494329" lon="9.7715996"><ele>218.0</ele><time>2026-04-19T09:04:16.083Z</time></trkpt><trkpt lat="44.849483" lon="9.7716849"><ele>217.83333333333334</ele><time>2026-04-19T09:04:17.079Z</time></trkpt><trkpt lat="44.84952" lon="9.7717816"><ele>217.66666666666669</ele><time>2026-04-19T09:04:18.1Z</time></trkpt><trkpt lat="44.849543" lon="9.7718934"><ele>217.5</ele><time>2026-04-19T09:04:19.062Z</time></trkpt><trkpt lat="44.8495546" lon="9.7720001"><ele>217.33333333333331</ele><time>2026-04-19T09:04:20.064Z</time></trkpt><trkpt lat="44.8495604" lon="9.772117"><ele>217.16666666666666</ele><time>2026-04-19T09:04:21.092Z</time></trkpt><trkpt lat="44.8495562" lon="9.7722325"><ele>217.0</ele><time>2026-04-19T09:04:22.091Z</time></trkpt><trkpt lat="44.8495495" lon="9.7723453"><ele>216.99999999999997</ele><time>2026-04-19T09:04:23.073Z</time></trkpt><trkpt lat="44.8495459" lon="9.7724601"><ele>217.0</ele><time>2026-04-19T09:04:24.08Z</time></trkpt><trkpt lat="44.8495365" lon="9.7725778"><ele>217.0</ele><time>2026-04-19T09:04:25.074Z</time></trkpt><trkpt lat="44.8495296" lon="9.7726934"><ele>217.0</ele><time>2026-04-19T09:04:26.087Z</time></trkpt><trkpt lat="44.8495222" lon="9.7728119"><ele>216.99999999999997</ele><time>2026-04-19T09:04:27.093Z</time></trkpt><trkpt lat="44.8495135" lon="9.7729273"><ele>217.0</ele><time>2026-04-19T09:04:28.082Z</time></trkpt><trkpt lat="44.8495048" lon="9.7730394"><ele>216.33333333333331</ele><time>2026-04-19T09:04:29.089Z</time></trkpt><trkpt lat="44.8495033" lon="9.7731492"><ele>215.66666666666666</ele><time>2026-04-19T09:04:30.087Z</time></trkpt><trkpt lat="44.8495013" lon="9.7732632"><ele>215.0</ele><time>2026-04-19T09:04:31.079Z</time></trkpt><trkpt lat="44.8495072" lon="9.7733729"><ele>214.33333333333331</ele><time>2026-04-19T09:04:32.084Z</time></trkpt><trkpt lat="44.8495293" lon="9.7734886"><ele>213.66666666666666</ele><time>2026-04-19T09:04:33.072Z</time></trkpt><trkpt lat="44.8495572" lon="9.7736053"><ele>213.0</ele><time>2026-04-19T09:04:34.089Z</time></trkpt><trkpt lat="44.8496027" lon="9.7737056"><ele>212.5</ele><time>2026-04-19T09:04:35.085Z</time></trkpt><trkpt lat="44.8496582" lon="9.7737908"><ele>212.0</ele><time>2026-04-19T09:04:36.085Z</time></trkpt><trkpt lat="44.8497228" lon="9.7738669"><ele>211.5</ele><time>2026-04-19T09:04:37.086Z</time></trkpt><trkpt lat="44.8497923" lon="9.7739326"><ele>211.0</ele><time>2026-04-19T09:04:38.089Z</time></trkpt><trkpt lat="44.8498656" lon="9.7739842"><ele>210.5</ele><time>2026-04-19T09:04:39.077Z</time></trkpt><trkpt lat="44.8499501" lon="9.774023"><ele>210.0</ele><time>2026-04-19T09:04:40.081Z</time></trkpt><trkpt lat="44.8500282" lon="9.7740562"><ele>210.0</ele><time>2026-04-19T09:04:41.085Z</time></trkpt><trkpt lat="44.8501071" lon="9.7740784"><ele>210.0</ele><time>2026-04-19T09:04:42.063Z</time></trkpt><trkpt lat="44.8501829" lon="9.7740993"><ele>210.0</ele><time>2026-04-19T09:04:43.055Z</time></trkpt><trkpt lat="44.8502653" lon="9.7741175"><ele>210.0</ele><time>2026-04-19T09:04:44.069Z</time></trkpt><trkpt lat="44.8503428" lon="9.7741441"><ele>210.0</ele><time>2026-04-19T09:04:45.089Z</time></trkpt><trkpt lat="44.8504206" lon="9.7741627"><ele>210.0</ele><time>2026-04-19T09:04:46.085Z</time></trkpt><trkpt lat="44.8504942" lon="9.7741877"><ele>209.66666666666666</ele><time>2026-04-19T09:04:47.071Z</time></trkpt><trkpt lat="44.8505677" lon="9.7742065"><ele>209.33333333333331</ele><time>2026-04-19T09:04:48.079Z</time></trkpt><trkpt lat="44.8506418" lon="9.7742318"><ele>209.0</ele><time>2026-04-19T09:04:49.087Z</time></trkpt><trkpt lat="44.8507108" lon="9.7742525"><ele>208.66666666666666</ele><time>2026-04-19T09:04:50.082Z</time></trkpt><trkpt lat="44.8507873" lon="9.7742777"><ele>208.33333333333331</ele><time>2026-04-19T09:04:51.081Z</time></trkpt><trkpt lat="44.8508623" lon="9.7743003"><ele>208.0</ele><time>2026-04-19T09:04:52.078Z</time></trkpt><trkpt lat="44.8509372" lon="9.7743193"><ele>208.33333333333331</ele><time>2026-04-19T09:04:53.069Z</time></trkpt><trkpt lat="44.8510141" lon="9.7743388"><ele>208.66666666666666</ele><time>2026-04-19T09:04:54.089Z</time></trkpt><trkpt lat="44.8510846" lon="9.7743597"><ele>209.0</ele><time>2026-04-19T09:04:55.085Z</time></trkpt><trkpt lat="44.8511531" lon="9.7743841"><ele>209.33333333333331</ele><time>2026-04-19T09:04:56.089Z</time></trkpt><trkpt lat="44.8512294" lon="9.7744089"><ele>209.66666666666666</ele><time>2026-04-19T09:04:57.079Z</time></trkpt><trkpt lat="44.8513104" lon="9.7744276"><ele>210.0</ele><time>2026-04-19T09:04:58.093Z</time></trkpt><trkpt lat="44.8513868" lon="9.7744484"><ele>209.33333333333334</ele><time>2026-04-19T09:04:59.081Z</time></trkpt><trkpt lat="44.8514645" lon="9.7744694"><ele>208.66666666666669</ele><time>2026-04-19T09:05:00.089Z</time></trkpt><trkpt lat="44.8515426" lon="9.7744913"><ele>208.0</ele><time>2026-04-19T09:05:01.069Z</time></trkpt><trkpt lat="44.8516143" lon="9.7745163"><ele>207.33333333333334</ele><time>2026-04-19T09:05:02.083Z</time></trkpt><trkpt lat="44.8516857" lon="9.7745398"><ele>206.66666666666669</ele><time>2026-04-19T09:05:03.085Z</time></trkpt><trkpt lat="44.8517579" lon="9.7745536"><ele>206.0</ele><time>2026-04-19T09:05:04.09Z</time></trkpt><trkpt lat="44.8518298" lon="9.7745759"><ele>205.85714285714283</ele><time>2026-04-19T09:05:05.079Z</time></trkpt><trkpt lat="44.8519028" lon="9.7745968"><ele>205.71428571428572</ele><time>2026-04-19T09:05:06.081Z</time></trkpt><trkpt lat="44.8519752" lon="9.7746211"><ele>205.57142857142856</ele><time>2026-04-19T09:05:07.082Z</time></trkpt><trkpt lat="44.8520485" lon="9.7746405"><ele>205.42857142857142</ele><time>2026-04-19T09:05:08.082Z</time></trkpt><trkpt lat="44.852118" lon="9.7746568"><ele>205.28571428571428</ele><time>2026-04-19T09:05:09.084Z</time></trkpt><trkpt lat="44.8521896" lon="9.7746772"><ele>205.14285714285714</ele><time>2026-04-19T09:05:10.08Z</time></trkpt><trkpt lat="44.8522654" lon="9.7746987"><ele>205.0</ele><time>2026-04-19T09:05:11.081Z</time></trkpt><trkpt lat="44.8523428" lon="9.7747264"><ele>204.99999999999997</ele><time>2026-04-19T09:05:12.084Z</time></trkpt><trkpt lat="44.8524177" lon="9.7747524"><ele>205.0</ele><time>2026-04-19T09:05:13.085Z</time></trkpt><trkpt lat="44.8524945" lon="9.7747722"><ele>205.0</ele><time>2026-04-19T09:05:14.079Z</time></trkpt><trkpt lat="44.8525609" lon="9.7748034"><ele>205.0</ele><time>2026-04-19T09:05:15.083Z</time></trkpt><trkpt lat="44.8526342" lon="9.7748302"><ele>204.99999999999997</ele><time>2026-04-19T09:05:16.085Z</time></trkpt><trkpt lat="44.8527039" lon="9.7748617"><ele>205.0</ele><time>2026-04-19T09:05:17.09Z</time></trkpt><trkpt lat="44.8527777" lon="9.774896"><ele>205.33333333333331</ele><time>2026-04-19T09:05:18.069Z</time></trkpt><trkpt lat="44.8528459" lon="9.7749292"><ele>205.66666666666666</ele><time>2026-04-19T09:05:19.086Z</time></trkpt><trkpt lat="44.8529149" lon="9.7749575"><ele>206.0</ele><time>2026-04-19T09:05:20.086Z</time></trkpt><trkpt lat="44.8529856" lon="9.7749905"><ele>206.33333333333331</ele><time>2026-04-19T09:05:21.09Z</time></trkpt><trkpt lat="44.8530577" lon="9.775027"><ele>206.66666666666666</ele><time>2026-04-19T09:05:22.083Z</time></trkpt><trkpt lat="44.8531283" lon="9.7750711"><ele>207.0</ele><time>2026-04-19T09:05:23.065Z</time></trkpt><trkpt lat="44.8531976" lon="9.7751196"><ele>207.0</ele><time>2026-04-19T09:05:24.081Z</time></trkpt><trkpt lat="44.8532677" lon="9.7751691"><ele>207.0</ele><time>2026-04-19T09:05:25.078Z</time></trkpt><trkpt lat="44.853336" lon="9.775223"><ele>207.0</ele><time>2026-04-19T09:05:26.082Z</time></trkpt><trkpt lat="44.8534029" lon="9.7752831"><ele>207.0</ele><time>2026-04-19T09:05:27.09Z</time></trkpt><trkpt lat="44.85347" lon="9.7753404"><ele>207.0</ele><time>2026-04-19T09:05:28.079Z</time></trkpt><trkpt lat="44.8535379" lon="9.7754031"><ele>207.0</ele><time>2026-04-19T09:05:29.086Z</time></trkpt><trkpt lat="44.8536029" lon="9.7754577"><ele>206.33333333333334</ele><time>2026-04-19T09:05:30.086Z</time></trkpt><trkpt lat="44.8536677" lon="9.7755158"><ele>205.66666666666669</ele><time>2026-04-19T09:05:31.085Z</time></trkpt><trkpt lat="44.8537355" lon="9.7755744"><ele>205.0</ele><time>2026-04-19T09:05:32.094Z</time></trkpt><trkpt lat="44.8537975" lon="9.7756319"><ele>204.33333333333334</ele><time>2026-04-19T09:05:33.089Z</time></trkpt><trkpt lat="44.8538588" lon="9.7756922"><ele>203.66666666666669</ele><time>2026-04-19T09:05:34.082Z</time></trkpt><trkpt lat="44.8539343" lon="9.7757407"><ele>203.0</ele><time>2026-04-19T09:05:35.09Z</time></trkpt><trkpt lat="44.8540051" lon="9.7757886"><ele>203.00000000000003</ele><time>2026-04-19T09:05:36.093Z</time></trkpt><trkpt lat="44.8540749" lon="9.7758315"><ele>203.0</ele><time>2026-04-19T09:05:37.085Z</time></trkpt><trkpt lat="44.8541437" lon="9.775875"><ele>203.0</ele><time>2026-04-19T09:05:38.083Z</time></trkpt><trkpt lat="44.8542187" lon="9.7759155"><ele>203.0</ele><time>2026-04-19T09:05:39.08Z</time></trkpt><trkpt lat="44.8542913" lon="9.7759604"><ele>203.00000000000003</ele><time>2026-04-19T09:05:40.086Z</time></trkpt><trkpt lat="44.854362" lon="9.7760035"><ele>203.0</ele><time>2026-04-19T09:05:41.081Z</time></trkpt><trkpt lat="44.8544349" lon="9.7760441"><ele>203.00000000000003</ele><time>2026-04-19T09:05:42.077Z</time></trkpt><trkpt lat="44.8545038" lon="9.7760864"><ele>203.0</ele><time>2026-04-19T09:05:43.077Z</time></trkpt><trkpt lat="44.8545762" lon="9.7761281"><ele>203.0</ele><time>2026-04-19T09:05:44.08Z</time></trkpt><trkpt lat="44.8546496" lon="9.7761645"><ele>203.0</ele><time>2026-04-19T09:05:45.079Z</time></trkpt><trkpt lat="44.8547243" lon="9.7762067"><ele>203.00000000000003</ele><time>2026-04-19T09:05:46.076Z</time></trkpt><trkpt lat="44.854792" lon="9.7762511"><ele>203.0</ele><time>2026-04-19T09:05:47.076Z</time></trkpt><trkpt lat="44.8548596" lon="9.7762938"><ele>203.0</ele><time>2026-04-19T09:05:48.082Z</time></trkpt><trkpt lat="44.8549304" lon="9.7763315"><ele>203.0</ele><time>2026-04-19T09:05:49.093Z</time></trkpt><trkpt lat="44.8550002" lon="9.7763683"><ele>203.0</ele><time>2026-04-19T09:05:50.079Z</time></trkpt><trkpt lat="44.8550713" lon="9.7764029"><ele>203.0</ele><time>2026-04-19T09:05:51.081Z</time></trkpt><trkpt lat="44.8551391" lon="9.7764432"><ele>203.0</ele><time>2026-04-19T09:05:52.087Z</time></trkpt><trkpt lat="44.8552064" lon="9.7764872"><ele>203.0</ele><time>2026-04-19T09:05:53.056Z</time></trkpt><trkpt lat="44.8552743" lon="9.7765274"><ele>203.0</ele><time>2026-04-19T09:05:54.08Z</time></trkpt><trkpt lat="44.8553406" lon="9.7765694"><ele>203.28571428571428</ele><time>2026-04-19T09:05:55.08Z</time></trkpt><trkpt lat="44.8554058" lon="9.7766131"><ele>203.57142857142856</ele><time>2026-04-19T09:05:56.08Z</time></trkpt><trkpt lat="44.8554745" lon="9.7766563"><ele>203.85714285714286</ele><time>2026-04-19T09:05:57.088Z</time></trkpt><trkpt lat="44.8555403" lon="9.7766918"><ele>204.14285714285714</ele><time>2026-04-19T09:05:58.082Z</time></trkpt><trkpt lat="44.8556092" lon="9.7767284"><ele>204.42857142857142</ele><time>2026-04-19T09:05:59.083Z</time></trkpt><trkpt lat="44.8556778" lon="9.7767546"><ele>204.71428571428572</ele><time>2026-04-19T09:06:00.091Z</time></trkpt><trkpt lat="44.8557456" lon="9.7767848"><ele>205.0</ele><time>2026-04-19T09:06:01.08Z</time></trkpt><trkpt lat="44.8558124" lon="9.7768123"><ele>205.0</ele><time>2026-04-19T09:06:02.084Z</time></trkpt><trkpt lat="44.8558877" lon="9.7768315"><ele>205.0</ele><time>2026-04-19T09:06:03.079Z</time></trkpt><trkpt lat="44.8559599" lon="9.7768513"><ele>205.0</ele><time>2026-04-19T09:06:04.076Z</time></trkpt><trkpt lat="44.8560309" lon="9.7768702"><ele>205.0</ele><time>2026-04-19T09:06:05.094Z</time></trkpt><trkpt lat="44.8561025" lon="9.7768814"><ele>205.0</ele><time>2026-04-19T09:06:06.093Z</time></trkpt><trkpt lat="44.8561757" lon="9.7768917"><ele>205.0</ele><time>2026-04-19T09:06:07.077Z</time></trkpt><trkpt lat="44.8562488" lon="9.7768925"><ele>205.0</ele><time>2026-04-19T09:06:08.092Z</time></trkpt><trkpt lat="44.8563258" lon="9.7768902"><ele>204.49999999999997</ele><time>2026-04-19T09:06:09.08Z</time></trkpt><trkpt lat="44.8564006" lon="9.7768937"><ele>204.0</ele><time>2026-04-19T09:06:10.09Z</time></trkpt><trkpt lat="44.8564772" lon="9.7768935"><ele>203.5</ele><time>2026-04-19T09:06:11.082Z</time></trkpt><trkpt lat="44.8565557" lon="9.7768969"><ele>203.0</ele><time>2026-04-19T09:06:12.078Z</time></trkpt><trkpt lat="44.8566331" lon="9.7768956"><ele>202.49999999999997</ele><time>2026-04-19T09:06:13.09Z</time></trkpt><trkpt lat="44.8567161" lon="9.7768946"><ele>202.0</ele><time>2026-04-19T09:06:14.085Z</time></trkpt><trkpt lat="44.8567951" lon="9.7768879"><ele>201.99999999999997</ele><time>2026-04-19T09:06:15.085Z</time></trkpt><trkpt lat="44.8568758" lon="9.7768886"><ele>202.0</ele><time>2026-04-19T09:06:16.078Z</time></trkpt><trkpt lat="44.856957" lon="9.7768933"><ele>202.0</ele><time>2026-04-19T09:06:17.077Z</time></trkpt><trkpt lat="44.8570394" lon="9.7769115"><ele>202.0</ele><time>2026-04-19T09:06:18.08Z</time></trkpt><trkpt lat="44.8571181" lon="9.7769383"><ele>201.99999999999997</ele><time>2026-04-19T09:06:19.084Z</time></trkpt><trkpt lat="44.8571885" lon="9.7769695"><ele>202.0</ele><time>2026-04-19T09:06:20.067Z</time></trkpt><trkpt lat="44.8572634" lon="9.7770171"><ele>201.99999999999997</ele><time>2026-04-19T09:06:21.088Z</time></trkpt><trkpt lat="44.8573297" lon="9.7770715"><ele>202.0</ele><time>2026-04-19T09:06:22.079Z</time></trkpt><trkpt lat="44.8573935" lon="9.77713"><ele>202.0</ele><time>2026-04-19T09:06:23.084Z</time></trkpt><trkpt lat="44.8574579" lon="9.7771991"><ele>202.0</ele><time>2026-04-19T09:06:24.09Z</time></trkpt><trkpt lat="44.8575039" lon="9.7772813"><ele>201.99999999999997</ele><time>2026-04-19T09:06:25.083Z</time></trkpt><trkpt lat="44.8575548" lon="9.7773657"><ele>202.0</ele><time>2026-04-19T09:06:26.068Z</time></trkpt><trkpt lat="44.8576107" lon="9.7774492"><ele>201.49999999999997</ele><time>2026-04-19T09:06:27.084Z</time></trkpt><trkpt lat="44.8576646" lon="9.7775431"><ele>201.0</ele><time>2026-04-19T09:06:28.075Z</time></trkpt><trkpt lat="44.8577188" lon="9.7776289"><ele>200.5</ele><time>2026-04-19T09:06:29.087Z</time></trkpt><trkpt lat="44.8577772" lon="9.7777137"><ele>200.0</ele><time>2026-04-19T09:06:30.088Z</time></trkpt><trkpt lat="44.857831" lon="9.7777967"><ele>199.49999999999997</ele><time>2026-04-19T09:06:31.078Z</time></trkpt><trkpt lat="44.85789" lon="9.7778764"><ele>199.0</ele><time>2026-04-19T09:06:32.086Z</time></trkpt><trkpt lat="44.8579499" lon="9.777949"><ele>198.99999999999997</ele><time>2026-04-19T09:06:33.095Z</time></trkpt><trkpt lat="44.8580071" lon="9.7780252"><ele>199.0</ele><time>2026-04-19T09:06:34.086Z</time></trkpt><trkpt lat="44.8580694" lon="9.7780904"><ele>199.0</ele><time>2026-04-19T09:06:35.091Z</time></trkpt><trkpt lat="44.8581357" lon="9.7781514"><ele>199.0</ele><time>2026-04-19T09:06:36.082Z</time></trkpt><trkpt lat="44.8582119" lon="9.778202"><ele>198.99999999999997</ele><time>2026-04-19T09:06:37.088Z</time></trkpt><trkpt lat="44.8582816" lon="9.7782507"><ele>199.0</ele><time>2026-04-19T09:06:38.075Z</time></trkpt><trkpt lat="44.8583534" lon="9.778292"><ele>198.99999999999997</ele><time>2026-04-19T09:06:39.091Z</time></trkpt><trkpt lat="44.8584257" lon="9.7783341"><ele>199.0</ele><time>2026-04-19T09:06:40.09Z</time></trkpt><trkpt lat="44.8584987" lon="9.7783775"><ele>199.0</ele><time>2026-04-19T09:06:41.076Z</time></trkpt><trkpt lat="44.8585741" lon="9.7784194"><ele>199.0</ele><time>2026-04-19T09:06:42.08Z</time></trkpt><trkpt lat="44.8586449" lon="9.7784625"><ele>198.99999999999997</ele><time>2026-04-19T09:06:43.091Z</time></trkpt><trkpt lat="44.8587163" lon="9.7785012"><ele>199.0</ele><time>2026-04-19T09:06:44.079Z</time></trkpt><trkpt lat="44.8587922" lon="9.7785416"><ele>198.16666666666666</ele><time>2026-04-19T09:06:45.088Z</time></trkpt><trkpt lat="44.8588665" lon="9.7785813"><ele>197.33333333333331</ele><time>2026-04-19T09:06:46.085Z</time></trkpt><trkpt lat="44.8589448" lon="9.7786244"><ele>196.5</ele><time>2026-04-19T09:06:47.069Z</time></trkpt><trkpt lat="44.8590232" lon="9.7786606"><ele>195.66666666666669</ele><time>2026-04-19T09:06:48.074Z</time></trkpt><trkpt lat="44.859106" lon="9.7786995"><ele>194.83333333333334</ele><time>2026-04-19T09:06:49.078Z</time></trkpt><trkpt lat="44.8591827" lon="9.7787414"><ele>194.0</ele><time>2026-04-19T09:06:50.089Z</time></trkpt><trkpt lat="44.8592626" lon="9.7787834"><ele>194.00000000000003</ele><time>2026-04-19T09:06:51.087Z</time></trkpt><trkpt lat="44.8593401" lon="9.7788282"><ele>194.0</ele><time>2026-04-19T09:06:52.092Z</time></trkpt><trkpt lat="44.8594225" lon="9.7788658"><ele>194.0</ele><time>2026-04-19T09:06:53.089Z</time></trkpt><trkpt lat="44.8594974" lon="9.7789052"><ele>194.0</ele><time>2026-04-19T09:06:54.087Z</time></trkpt><trkpt lat="44.8595734" lon="9.7789477"><ele>194.00000000000003</ele><time>2026-04-19T09:06:55.094Z</time></trkpt><trkpt lat="44.8596518" lon="9.7789935"><ele>194.0</ele><time>2026-04-19T09:06:56.085Z</time></trkpt><trkpt lat="44.8597301" lon="9.779038"><ele>194.00000000000003</ele><time>2026-04-19T09:06:57.073Z</time></trkpt><trkpt lat="44.8598123" lon="9.7790782"><ele>194.0</ele><time>2026-04-19T09:06:58.084Z</time></trkpt><trkpt lat="44.8598887" lon="9.7791155"><ele>194.0</ele><time>2026-04-19T09:06:59.085Z</time></trkpt><trkpt lat="44.8599651" lon="9.7791548"><ele>194.0</ele><time>2026-04-19T09:07:00.09Z</time></trkpt><trkpt lat="44.8600418" lon="9.7791947"><ele>194.00000000000003</ele><time>2026-04-19T09:07:01.075Z</time></trkpt><trkpt lat="44.8601175" lon="9.7792349"><ele>194.0</ele><time>2026-04-19T09:07:02.088Z</time></trkpt><trkpt lat="44.8601919" lon="9.7792753"><ele>194.33333333333334</ele><time>2026-04-19T09:07:03.085Z</time></trkpt><trkpt lat="44.8602585" lon="9.779321"><ele>194.66666666666669</ele><time>2026-04-19T09:07:04.092Z</time></trkpt><trkpt lat="44.8603327" lon="9.7793698"><ele>195.0</ele><time>2026-04-19T09:07:05.091Z</time></trkpt><trkpt lat="44.8603959" lon="9.7794254"><ele>195.33333333333331</ele><time>2026-04-19T09:07:06.094Z</time></trkpt><trkpt lat="44.8604681" lon="9.7794821"><ele>195.66666666666666</ele><time>2026-04-19T09:07:07.067Z</time></trkpt><trkpt lat="44.8605327" lon="9.779543"><ele>196.0</ele><time>2026-04-19T09:07:08.088Z</time></trkpt><trkpt lat="44.8605926" lon="9.779602"><ele>195.99999999999997</ele><time>2026-04-19T09:07:09.083Z</time></trkpt><trkpt lat="44.8606496" lon="9.7796694"><ele>196.0</ele><time>2026-04-19T09:07:10.08Z</time></trkpt><trkpt lat="44.8607041" lon="9.7797356"><ele>196.0</ele><time>2026-04-19T09:07:11.091Z</time></trkpt><trkpt lat="44.8607618" lon="9.7798067"><ele>196.0</ele><time>2026-04-19T09:07:12.08Z</time></trkpt><trkpt lat="44.8608223" lon="9.7798789"><ele>195.99999999999997</ele><time>2026-04-19T09:07:13.089Z</time></trkpt><trkpt lat="44.8608812" lon="9.7799491"><ele>196.0</ele><time>2026-04-19T09:07:14.087Z</time></trkpt><trkpt lat="44.8609384" lon="9.7800169"><ele>195.49999999999997</ele><time>2026-04-19T09:07:15.077Z</time></trkpt><trkpt lat="44.8609969" lon="9.7800788"><ele>195.0</ele><time>2026-04-19T09:07:16.092Z</time></trkpt><trkpt lat="44.8610642" lon="9.7801309"><ele>194.5</ele><time>2026-04-19T09:07:17.084Z</time></trkpt><trkpt lat="44.8611329" lon="9.7801783"><ele>194.0</ele><time>2026-04-19T09:07:18.089Z</time></trkpt><trkpt lat="44.8612027" lon="9.7802136"><ele>193.49999999999997</ele><time>2026-04-19T09:07:19.087Z</time></trkpt><trkpt lat="44.8612794" lon="9.7802356"><ele>193.0</ele><time>2026-04-19T09:07:20.083Z</time></trkpt><trkpt lat="44.8613544" lon="9.7802613"><ele>192.99999999999997</ele><time>2026-04-19T09:07:21.092Z</time></trkpt><trkpt lat="44.8614272" lon="9.7802847"><ele>193.0</ele><time>2026-04-19T09:07:22.098Z</time></trkpt><trkpt lat="44.8615029" lon="9.7803112"><ele>193.0</ele><time>2026-04-19T09:07:23.088Z</time></trkpt><trkpt lat="44.8615784" lon="9.780343"><ele>193.0</ele><time>2026-04-19T09:07:24.084Z</time></trkpt><trkpt lat="44.8616501" lon="9.7803777"><ele>192.99999999999997</ele><time>2026-04-19T09:07:25.089Z</time></trkpt><trkpt lat="44.861722" lon="9.7804198"><ele>193.0</ele><time>2026-04-19T09:07:26.087Z</time></trkpt><trkpt lat="44.8617899" lon="9.780472"><ele>192.99999999999997</ele><time>2026-04-19T09:07:27.085Z</time></trkpt><trkpt lat="44.8618589" lon="9.7805372"><ele>193.0</ele><time>2026-04-19T09:07:28.06Z</time></trkpt><trkpt lat="44.8619277" lon="9.780605"><ele>193.0</ele><time>2026-04-19T09:07:29.083Z</time></trkpt><trkpt lat="44.8619999" lon="9.7806847"><ele>193.0</ele><time>2026-04-19T09:07:30.074Z</time></trkpt><trkpt lat="44.8620697" lon="9.780754"><ele>192.99999999999997</ele><time>2026-04-19T09:07:31.086Z</time></trkpt><trkpt lat="44.8621393" lon="9.7808255"><ele>193.0</ele><time>2026-04-19T09:07:32.09Z</time></trkpt><trkpt lat="44.8622097" lon="9.7808929"><ele>192.99999999999997</ele><time>2026-04-19T09:07:33.087Z</time></trkpt><trkpt lat="44.8622772" lon="9.7809576"><ele>193.0</ele><time>2026-04-19T09:07:34.074Z</time></trkpt><trkpt lat="44.86235" lon="9.7810222"><ele>193.0</ele><time>2026-04-19T09:07:35.079Z</time></trkpt><trkpt lat="44.8624234" lon="9.7810913"><ele>193.0</ele><time>2026-04-19T09:07:36.083Z</time></trkpt><trkpt lat="44.8624958" lon="9.7811472"><ele>192.99999999999997</ele><time>2026-04-19T09:07:37.091Z</time></trkpt><trkpt lat="44.862572" lon="9.7812058"><ele>193.0</ele><time>2026-04-19T09:07:38.085Z</time></trkpt><trkpt lat="44.8626453" lon="9.7812475"><ele>191.83333333333331</ele><time>2026-04-19T09:07:39.092Z</time></trkpt><trkpt lat="44.8627222" lon="9.781282"><ele>190.66666666666666</ele><time>2026-04-19T09:07:40.066Z</time></trkpt><trkpt lat="44.8628045" lon="9.7813124"><ele>189.5</ele><time>2026-04-19T09:07:41.086Z</time></trkpt><trkpt lat="44.8628875" lon="9.7813368"><ele>188.33333333333331</ele><time>2026-04-19T09:07:42.089Z</time></trkpt><trkpt lat="44.8629726" lon="9.781347"><ele>187.16666666666666</ele><time>2026-04-19T09:07:43.092Z</time></trkpt><trkpt lat="44.8630575" lon="9.7813544"><ele>186.0</ele><time>2026-04-19T09:07:44.071Z</time></trkpt><trkpt lat="44.8631399" lon="9.7813599"><ele>186.0</ele><time>2026-04-19T09:07:45.083Z</time></trkpt><trkpt lat="44.8632243" lon="9.7813676"><ele>186.0</ele><time>2026-04-19T09:07:46.061Z</time></trkpt><trkpt lat="44.8633113" lon="9.7813741"><ele>186.0</ele><time>2026-04-19T09:07:47.081Z</time></trkpt><trkpt lat="44.8633972" lon="9.7813829"><ele>186.0</ele><time>2026-04-19T09:07:48.086Z</time></trkpt><trkpt lat="44.8634866" lon="9.781389"><ele>186.0</ele><time>2026-04-19T09:07:49.084Z</time></trkpt><trkpt lat="44.8635693" lon="9.7813993"><ele>186.0</ele><time>2026-04-19T09:07:50.08Z</time></trkpt><trkpt lat="44.8636579" lon="9.7814139"><ele>186.0</ele><time>2026-04-19T09:07:51.078Z</time></trkpt><trkpt lat="44.8637455" lon="9.7814157"><ele>186.0</ele><time>2026-04-19T09:07:52.081Z</time></trkpt><trkpt lat="44.863831" lon="9.7814212"><ele>186.0</ele><time>2026-04-19T09:07:53.081Z</time></trkpt><trkpt lat="44.8639133" lon="9.7814332"><ele>186.0</ele><time>2026-04-19T09:07:54.091Z</time></trkpt><trkpt lat="44.863995" lon="9.7814476"><ele>186.0</ele><time>2026-04-19T09:07:55.09Z</time></trkpt><trkpt lat="44.8640786" lon="9.781459"><ele>186.0</ele><time>2026-04-19T09:07:56.085Z</time></trkpt><trkpt lat="44.8641635" lon="9.7814651"><ele>186.0</ele><time>2026-04-19T09:07:57.08Z</time></trkpt><trkpt lat="44.8642472" lon="9.7814704"><ele>186.0</ele><time>2026-04-19T09:07:58.084Z</time></trkpt><trkpt lat="44.8643296" lon="9.7814778"><ele>186.0</ele><time>2026-04-19T09:07:59.084Z</time></trkpt><trkpt lat="44.8644154" lon="9.7814879"><ele>186.0</ele><time>2026-04-19T09:08:00.081Z</time></trkpt><trkpt lat="44.8644987" lon="9.7814958"><ele>186.0</ele><time>2026-04-19T09:08:01.08Z</time></trkpt><trkpt lat="44.8645805" lon="9.7815021"><ele>186.0</ele><time>2026-04-19T09:08:02.088Z</time></trkpt><trkpt lat="44.8646642" lon="9.7815093"><ele>186.0</ele><time>2026-04-19T09:08:03.079Z</time></trkpt><trkpt lat="44.8647472" lon="9.7815163"><ele>186.0</ele><time>2026-04-19T09:08:04.091Z</time></trkpt><trkpt lat="44.8648281" lon="9.7815211"><ele>186.0</ele><time>2026-04-19T09:08:05.092Z</time></trkpt><trkpt lat="44.8649079" lon="9.7815321"><ele>186.0</ele><time>2026-04-19T09:08:06.081Z</time></trkpt><trkpt lat="44.8649898" lon="9.7815342"><ele>186.0</ele><time>2026-04-19T09:08:07.089Z</time></trkpt><trkpt lat="44.8650712" lon="9.781547"><ele>186.0</ele><time>2026-04-19T09:08:08.088Z</time></trkpt><trkpt lat="44.8651557" lon="9.7815574"><ele>185.66666666666666</ele><time>2026-04-19T09:08:09.082Z</time></trkpt><trkpt lat="44.8652348" lon="9.7815611"><ele>185.33333333333334</ele><time>2026-04-19T09:08:10.081Z</time></trkpt><trkpt lat="44.8653172" lon="9.7815655"><ele>185.0</ele><time>2026-04-19T09:08:11.084Z</time></trkpt><trkpt lat="44.8654011" lon="9.7815715"><ele>184.66666666666669</ele><time>2026-04-19T09:08:12.089Z</time></trkpt><trkpt lat="44.8654808" lon="9.7815831"><ele>184.33333333333334</ele><time>2026-04-19T09:08:13.084Z</time></trkpt><trkpt lat="44.8655613" lon="9.7815916"><ele>184.0</ele><time>2026-04-19T09:08:14.093Z</time></trkpt><trkpt lat="44.8656428" lon="9.7816016"><ele>184.0</ele><time>2026-04-19T09:08:15.089Z</time></trkpt><trkpt lat="44.8657178" lon="9.7816081"><ele>184.0</ele><time>2026-04-19T09:08:16.077Z</time></trkpt><trkpt lat="44.865793" lon="9.7816189"><ele>184.0</ele><time>2026-04-19T09:08:17.088Z</time></trkpt><trkpt lat="44.8658727" lon="9.7816285"><ele>184.0</ele><time>2026-04-19T09:08:18.094Z</time></trkpt><trkpt lat="44.8659547" lon="9.7816353"><ele>184.0</ele><time>2026-04-19T09:08:19.085Z</time></trkpt><trkpt lat="44.8660352" lon="9.781645"><ele>184.0</ele><time>2026-04-19T09:08:20.089Z</time></trkpt><trkpt lat="44.8661155" lon="9.781649"><ele>184.0</ele><time>2026-04-19T09:08:21.075Z</time></trkpt><trkpt lat="44.8661951" lon="9.7816626"><ele>184.0</ele><time>2026-04-19T09:08:22.098Z</time></trkpt><trkpt lat="44.8662734" lon="9.7816678"><ele>184.0</ele><time>2026-04-19T09:08:23.083Z</time></trkpt><trkpt lat="44.8663512" lon="9.7816744"><ele>184.0</ele><time>2026-04-19T09:08:24.088Z</time></trkpt><trkpt lat="44.8664282" lon="9.7816835"><ele>184.0</ele><time>2026-04-19T09:08:25.084Z</time></trkpt><trkpt lat="44.8665029" lon="9.7816939"><ele>184.0</ele><time>2026-04-19T09:08:26.075Z</time></trkpt><trkpt lat="44.8665794" lon="9.7816973"><ele>184.0</ele><time>2026-04-19T09:08:27.1Z</time></trkpt><trkpt lat="44.8666538" lon="9.7817113"><ele>184.0</ele><time>2026-04-19T09:08:28.075Z</time></trkpt><trkpt lat="44.8667298" lon="9.7817147"><ele>184.0</ele><time>2026-04-19T09:08:29.085Z</time></trkpt><trkpt lat="44.8668037" lon="9.7817192"><ele>184.0</ele><time>2026-04-19T09:08:30.092Z</time></trkpt><trkpt lat="44.8668829" lon="9.7817188"><ele>184.0</ele><time>2026-04-19T09:08:31.068Z</time></trkpt><trkpt lat="44.8669535" lon="9.7817174"><ele>184.0</ele><time>2026-04-19T09:08:32.087Z</time></trkpt><trkpt lat="44.8670214" lon="9.7817215"><ele>184.0</ele><time>2026-04-19T09:08:33.081Z</time></trkpt><trkpt lat="44.8670897" lon="9.7817269"><ele>184.2857142857143</ele><time>2026-04-19T09:08:34.086Z</time></trkpt><trkpt lat="44.8671594" lon="9.7817359"><ele>184.57142857142856</ele><time>2026-04-19T09:08:35.079Z</time></trkpt><trkpt lat="44.8672262" lon="9.7817478"><ele>184.85714285714286</ele><time>2026-04-19T09:08:36.075Z</time></trkpt><trkpt lat="44.8672954" lon="9.7817455"><ele>185.14285714285717</ele><time>2026-04-19T09:08:37.095Z</time></trkpt><trkpt lat="44.8673597" lon="9.781755"><ele>185.42857142857144</ele><time>2026-04-19T09:08:38.085Z</time></trkpt><trkpt lat="44.8674256" lon="9.7817643"><ele>185.71428571428572</ele><time>2026-04-19T09:08:39.087Z</time></trkpt><trkpt lat="44.8674892" lon="9.781774"><ele>186.0</ele><time>2026-04-19T09:08:40.086Z</time></trkpt><trkpt lat="44.8675553" lon="9.7817811"><ele>185.57142857142858</ele><time>2026-04-19T09:08:41.086Z</time></trkpt><trkpt lat="44.8676195" lon="9.7817916"><ele>185.14285714285714</ele><time>2026-04-19T09:08:42.083Z</time></trkpt><trkpt lat="44.8676859" lon="9.7817914"><ele>184.71428571428572</ele><time>2026-04-19T09:08:43.083Z</time></trkpt><trkpt lat="44.8677495" lon="9.7817916"><ele>184.28571428571428</ele><time>2026-04-19T09:08:44.081Z</time></trkpt><trkpt lat="44.8678733" lon="9.7817971"><ele>183.85714285714286</ele><time>2026-04-19T09:08:46.089Z</time></trkpt><trkpt lat="44.8679372" lon="9.7818197"><ele>183.42857142857144</ele><time>2026-04-19T09:08:47.08Z</time></trkpt><trkpt lat="44.868001" lon="9.781832"><ele>183.0</ele><time>2026-04-19T09:08:48.086Z</time></trkpt><trkpt lat="44.8680622" lon="9.7817974"><ele>183.0</ele><time>2026-04-19T09:08:49.069Z</time></trkpt><trkpt lat="44.868111" lon="9.7817381"><ele>183.0</ele><time>2026-04-19T09:08:50.084Z</time></trkpt><trkpt lat="44.868157" lon="9.7815797"><ele>183.0</ele><time>2026-04-19T09:08:52.082Z</time></trkpt><trkpt lat="44.8681671" lon="9.7814376"><ele>183.0</ele><time>2026-04-19T09:08:54.077Z</time></trkpt><trkpt lat="44.8681911" lon="9.7813222"><ele>183.0</ele><time>2026-04-19T09:08:56.083Z</time></trkpt><trkpt lat="44.8682159" lon="9.7812019"><ele>183.0</ele><time>2026-04-19T09:08:58.075Z</time></trkpt><trkpt lat="44.8682315" lon="9.7810942"><ele>183.0</ele><time>2026-04-19T09:09:00.076Z</time></trkpt><trkpt lat="44.8682308" lon="9.7810018"><ele>183.0</ele><time>2026-04-19T09:09:02.091Z</time></trkpt><trkpt lat="44.8682178" lon="9.7809012"><ele>183.0</ele><time>2026-04-19T09:09:04.075Z</time></trkpt><trkpt lat="44.8682001" lon="9.780809"><ele>183.0</ele><time>2026-04-19T09:09:06.067Z</time></trkpt><trkpt lat="44.8681678" lon="9.7807308"><ele>183.0</ele><time>2026-04-19T09:09:08.094Z</time></trkpt><trkpt lat="44.8681324" lon="9.7806463"><ele>183.0</ele><time>2026-04-19T09:09:10.065Z</time></trkpt><trkpt lat="44.8681" lon="9.7805658"><ele>183.83333333333334</ele><time>2026-04-19T09:09:12.079Z</time></trkpt><trkpt lat="44.8680629" lon="9.7804495"><ele>184.66666666666666</ele><time>2026-04-19T09:09:15.085Z</time></trkpt><trkpt lat="44.8680305" lon="9.7803397"><ele>185.5</ele><time>2026-04-19T09:09:18.078Z</time></trkpt><trkpt lat="44.8680193" lon="9.7802481"><ele>186.33333333333331</ele><time>2026-04-19T09:09:20.074Z</time></trkpt><trkpt lat="44.8680283" lon="9.7801262"><ele>187.16666666666666</ele><time>2026-04-19T09:09:23.098Z</time></trkpt><trkpt lat="44.868048" lon="9.7800195"><ele>188.0</ele><time>2026-04-19T09:09:26.085Z</time></trkpt><trkpt lat="44.8680673" lon="9.7799249"><ele>188.57142857142856</ele><time>2026-04-19T09:09:29.08Z</time></trkpt><trkpt lat="44.8680714" lon="9.7798273"><ele>189.14285714285714</ele><time>2026-04-19T09:09:32.08Z</time></trkpt><trkpt lat="44.8680839" lon="9.7797271"><ele>189.71428571428572</ele><time>2026-04-19T09:09:35.083Z</time></trkpt><trkpt lat="44.8680869" lon="9.779617"><ele>190.28571428571428</ele><time>2026-04-19T09:09:38.092Z</time></trkpt><trkpt lat="44.8680972" lon="9.7795117"><ele>190.85714285714286</ele><time>2026-04-19T09:09:41.082Z</time></trkpt><trkpt lat="44.8681383" lon="9.7794384"><ele>191.42857142857142</ele><time>2026-04-19T09:09:44.075Z</time></trkpt><trkpt lat="44.8682019" lon="9.7794235"><ele>192.0</ele><time>2026-04-19T09:09:47.081Z</time></trkpt><trkpt lat="44.8682691" lon="9.7794503"><ele>191.99999999999997</ele><time>2026-04-19T09:09:50.085Z</time></trkpt><trkpt lat="44.8683316" lon="9.7794767"><ele>192.0</ele><time>2026-04-19T09:09:53.074Z</time></trkpt><trkpt lat="44.8684095" lon="9.7795118"><ele>192.0</ele><time>2026-04-19T09:09:57.086Z</time></trkpt><trkpt lat="44.8684718" lon="9.7795463"><ele>192.0</ele><time>2026-04-19T09:10:00.082Z</time></trkpt><trkpt lat="44.8685524" lon="9.7795725"><ele>192.0</ele><time>2026-04-19T09:10:04.078Z</time></trkpt><trkpt lat="44.8686129" lon="9.7795986"><ele>191.99999999999997</ele><time>2026-04-19T09:10:07.078Z</time></trkpt><trkpt lat="44.8686774" lon="9.7796155"><ele>192.0</ele><time>2026-04-19T09:10:10.087Z</time></trkpt><trkpt lat="44.8687551" lon="9.7796552"><ele>193.14285714285714</ele><time>2026-04-19T09:10:14.087Z</time></trkpt><trkpt lat="44.8688267" lon="9.7796806"><ele>194.28571428571428</ele><time>2026-04-19T09:10:18.081Z</time></trkpt><trkpt lat="44.8688956" lon="9.779707"><ele>195.42857142857144</ele><time>2026-04-19T09:10:22.085Z</time></trkpt><trkpt lat="44.868967" lon="9.7796951"><ele>196.57142857142856</ele><time>2026-04-19T09:10:26.086Z</time></trkpt><trkpt lat="44.8690231" lon="9.7796123"><ele>197.71428571428572</ele><time>2026-04-19T09:10:30.093Z</time></trkpt><trkpt lat="44.869062" lon="9.7795136"><ele>198.85714285714286</ele><time>2026-04-19T09:10:35.055Z</time></trkpt><trkpt lat="44.8690738" lon="9.7794248"><ele>200.0</ele><time>2026-04-19T09:10:38.084Z</time></trkpt><trkpt lat="44.8690875" lon="9.7793331"><ele>200.2857142857143</ele><time>2026-04-19T09:10:42.093Z</time></trkpt><trkpt lat="44.8691043" lon="9.7792347"><ele>200.57142857142858</ele><time>2026-04-19T09:10:47.083Z</time></trkpt><trkpt lat="44.8691251" lon="9.7791429"><ele>200.85714285714286</ele><time>2026-04-19T09:10:51.089Z</time></trkpt><trkpt lat="44.8691426" lon="9.7790573"><ele>201.14285714285717</ele><time>2026-04-19T09:10:54.084Z</time></trkpt><trkpt lat="44.8691463" lon="9.7789641"><ele>201.42857142857142</ele><time>2026-04-19T09:10:57.085Z</time></trkpt><trkpt lat="44.8691672" lon="9.7788745"><ele>201.71428571428572</ele><time>2026-04-19T09:11:00.08Z</time></trkpt><trkpt lat="44.8691878" lon="9.7787576"><ele>202.0</ele><time>2026-04-19T09:11:04.087Z</time></trkpt><trkpt lat="44.8692034" lon="9.7786554"><ele>202.0</ele><time>2026-04-19T09:11:07.09Z</time></trkpt><trkpt lat="44.8692216" lon="9.7785535"><ele>202.0</ele><time>2026-04-19T09:11:10.093Z</time></trkpt><trkpt lat="44.8692372" lon="9.7784532"><ele>202.0</ele><time>2026-04-19T09:11:13.087Z</time></trkpt><trkpt lat="44.8692556" lon="9.7783536"><ele>202.0</ele><time>2026-04-19T09:11:16.083Z</time></trkpt><trkpt lat="44.8692715" lon="9.7782518"><ele>202.0</ele><time>2026-04-19T09:11:19.082Z</time></trkpt><trkpt lat="44.8692954" lon="9.7781423"><ele>202.0</ele><time>2026-04-19T09:11:22.079Z</time></trkpt><trkpt lat="44.8693134" lon="9.7780462"><ele>202.0</ele><time>2026-04-19T09:11:25.09Z</time></trkpt><trkpt lat="44.8693255" lon="9.7779542"><ele>202.0</ele><time>2026-04-19T09:11:28.087Z</time></trkpt><trkpt lat="44.8693393" lon="9.7778651"><ele>202.0</ele><time>2026-04-19T09:11:31.088Z</time></trkpt><trkpt lat="44.8693607" lon="9.7777777"><ele>202.0</ele><time>2026-04-19T09:11:34.088Z</time></trkpt><trkpt lat="44.8693822" lon="9.7776711"><ele>202.0</ele><time>2026-04-19T09:11:38.095Z</time></trkpt><trkpt lat="44.8693969" lon="9.7775686"><ele>202.0</ele><time>2026-04-19T09:11:42.08Z</time></trkpt><trkpt lat="44.8694073" lon="9.7774578"><ele>202.0</ele><time>2026-04-19T09:11:46.082Z</time></trkpt><trkpt lat="44.8694222" lon="9.7773534"><ele>202.0</ele><time>2026-04-19T09:11:50.085Z</time></trkpt><trkpt lat="44.8694529" lon="9.7772756"><ele>202.57142857142856</ele><time>2026-04-19T09:11:54.08Z</time></trkpt><trkpt lat="44.8695188" lon="9.7772704"><ele>203.14285714285714</ele><time>2026-04-19T09:11:58.096Z</time></trkpt><trkpt lat="44.869582" lon="9.7772818"><ele>203.71428571428572</ele><time>2026-04-19T09:12:01.089Z</time></trkpt><trkpt lat="44.8696661" lon="9.7772987"><ele>204.28571428571428</ele><time>2026-04-19T09:12:05.089Z</time></trkpt><trkpt lat="44.8697301" lon="9.7773078"><ele>204.85714285714286</ele><time>2026-04-19T09:12:07.092Z</time></trkpt><trkpt lat="44.8698119" lon="9.7773157"><ele>205.42857142857142</ele><time>2026-04-19T09:12:09.083Z</time></trkpt><trkpt lat="44.8698956" lon="9.7773264"><ele>206.0</ele><time>2026-04-19T09:12:11.091Z</time></trkpt><trkpt lat="44.8699782" lon="9.777329"><ele>206.00000000000003</ele><time>2026-04-19T09:12:13.082Z</time></trkpt><trkpt lat="44.8700616" lon="9.7773236"><ele>206.0</ele><time>2026-04-19T09:12:15.088Z</time></trkpt><trkpt lat="44.8701511" lon="9.7773196"><ele>206.0</ele><time>2026-04-19T09:12:17.084Z</time></trkpt><trkpt lat="44.8702367" lon="9.7773048"><ele>206.0</ele><time>2026-04-19T09:12:19.085Z</time></trkpt><trkpt lat="44.870325" lon="9.7773017"><ele>206.00000000000003</ele><time>2026-04-19T09:12:21.084Z</time></trkpt><trkpt lat="44.8704134" lon="9.7772873"><ele>206.0</ele><time>2026-04-19T09:12:23.083Z</time></trkpt><trkpt lat="44.8705032" lon="9.7772875"><ele>205.83333333333334</ele><time>2026-04-19T09:12:25.089Z</time></trkpt><trkpt lat="44.8705872" lon="9.7772986"><ele>205.66666666666669</ele><time>2026-04-19T09:12:27.084Z</time></trkpt><trkpt lat="44.8706687" lon="9.7772644"><ele>205.5</ele><time>2026-04-19T09:12:29.091Z</time></trkpt><trkpt lat="44.870719" lon="9.7771758"><ele>205.33333333333331</ele><time>2026-04-19T09:12:31.082Z</time></trkpt><trkpt lat="44.8707431" lon="9.7770889"><ele>205.16666666666666</ele><time>2026-04-19T09:12:33.09Z</time></trkpt><trkpt lat="44.8707722" lon="9.7769908"><ele>205.0</ele><time>2026-04-19T09:12:36.087Z</time></trkpt><trkpt lat="44.8708015" lon="9.7768971"><ele>204.85714285714286</ele><time>2026-04-19T09:12:39.097Z</time></trkpt><trkpt lat="44.8708301" lon="9.7767964"><ele>204.7142857142857</ele><time>2026-04-19T09:12:42.089Z</time></trkpt><trkpt lat="44.8708573" lon="9.7766985"><ele>204.57142857142856</ele><time>2026-04-19T09:12:45.083Z</time></trkpt><trkpt lat="44.870887" lon="9.7765879"><ele>204.42857142857144</ele><time>2026-04-19T09:12:48.084Z</time></trkpt><trkpt lat="44.87091" lon="9.7764873"><ele>204.28571428571428</ele><time>2026-04-19T09:12:51.092Z</time></trkpt><trkpt lat="44.8709327" lon="9.7763959"><ele>204.14285714285714</ele><time>2026-04-19T09:12:54.085Z</time></trkpt><trkpt lat="44.8709512" lon="9.776303"><ele>204.0</ele><time>2026-04-19T09:12:57.093Z</time></trkpt><trkpt lat="44.8709745" lon="9.7761899"><ele>204.0</ele><time>2026-04-19T09:13:01.087Z</time></trkpt><trkpt lat="44.8709927" lon="9.776097"><ele>204.0</ele><time>2026-04-19T09:13:04.091Z</time></trkpt><trkpt lat="44.8710095" lon="9.7760059"><ele>204.0</ele><time>2026-04-19T09:13:07.084Z</time></trkpt><trkpt lat="44.8710194" lon="9.7759181"><ele>204.0</ele><time>2026-04-19T09:13:10.085Z</time></trkpt><trkpt lat="44.871036" lon="9.7758257"><ele>204.0</ele><time>2026-04-19T09:13:13.087Z</time></trkpt><trkpt lat="44.8710593" lon="9.7757353"><ele>204.0</ele><time>2026-04-19T09:13:16.088Z</time></trkpt><trkpt lat="44.8710813" lon="9.7756487"><ele>204.0</ele><time>2026-04-19T09:13:19.091Z</time></trkpt><trkpt lat="44.8711085" lon="9.7755568"><ele>204.71428571428572</ele><time>2026-04-19T09:13:23.081Z</time></trkpt><trkpt lat="44.8711243" lon="9.7754609"><ele>205.42857142857144</ele><time>2026-04-19T09:13:27.083Z</time></trkpt><trkpt lat="44.8711463" lon="9.7753691"><ele>206.14285714285714</ele><time>2026-04-19T09:13:31.078Z</time></trkpt><trkpt lat="44.8711631" lon="9.7752794"><ele>206.85714285714286</ele><time>2026-04-19T09:13:35.082Z</time></trkpt><trkpt lat="44.8711828" lon="9.7751881"><ele>207.57142857142856</ele><time>2026-04-19T09:13:39.087Z</time></trkpt><trkpt lat="44.8712065" lon="9.7750871"><ele>208.28571428571428</ele><time>2026-04-19T09:13:44.081Z</time></trkpt><trkpt lat="44.8712388" lon="9.7749858"><ele>209.0</ele><time>2026-04-19T09:13:49.081Z</time></trkpt><trkpt lat="44.8712555" lon="9.7748954"><ele>210.28571428571428</ele><time>2026-04-19T09:13:53.08Z</time></trkpt><trkpt lat="44.8712696" lon="9.7748046"><ele>211.57142857142856</ele><time>2026-04-19T09:13:57.081Z</time></trkpt><trkpt lat="44.8712928" lon="9.774702"><ele>212.85714285714286</ele><time>2026-04-19T09:14:02.087Z</time></trkpt><trkpt lat="44.8713139" lon="9.7745974"><ele>214.14285714285714</ele><time>2026-04-19T09:14:07.085Z</time></trkpt><trkpt lat="44.8713348" lon="9.7744923"><ele>215.42857142857144</ele><time>2026-04-19T09:14:12.061Z</time></trkpt><trkpt lat="44.8713378" lon="9.774398"><ele>216.71428571428572</ele><time>2026-04-19T09:14:16.081Z</time></trkpt><trkpt lat="44.8713586" lon="9.7743087"><ele>218.0</ele><time>2026-04-19T09:14:21.091Z</time></trkpt><trkpt lat="44.871382" lon="9.7742209"><ele>219.14285714285714</ele><time>2026-04-19T09:14:27.069Z</time></trkpt><trkpt lat="44.8714451" lon="9.7742266"><ele>220.28571428571428</ele><time>2026-04-19T09:14:32.078Z</time></trkpt><trkpt lat="44.871519" lon="9.7742427"><ele>221.42857142857144</ele><time>2026-04-19T09:14:38.082Z</time></trkpt><trkpt lat="44.8715845" lon="9.7742501"><ele>222.57142857142856</ele><time>2026-04-19T09:14:43.064Z</time></trkpt><trkpt lat="44.8716478" lon="9.7742603"><ele>223.7142857142857</ele><time>2026-04-19T09:14:47.081Z</time></trkpt><trkpt lat="44.8717145" lon="9.7742513"><ele>224.85714285714286</ele><time>2026-04-19T09:14:51.085Z</time></trkpt><trkpt lat="44.8717873" lon="9.7742391"><ele>226.0</ele><time>2026-04-19T09:14:55.086Z</time></trkpt><trkpt lat="44.8718521" lon="9.7742331"><ele>226.0</ele><time>2026-04-19T09:14:59.066Z</time></trkpt><trkpt lat="44.8719161" lon="9.7741965"><ele>226.0</ele><time>2026-04-19T09:15:03.082Z</time></trkpt><trkpt lat="44.8719875" lon="9.7741487"><ele>226.0</ele><time>2026-04-19T09:15:08.093Z</time></trkpt><trkpt lat="44.8719897" lon="9.7740585"><ele>226.0</ele><time>2026-04-19T09:15:13.072Z</time></trkpt><trkpt lat="44.8719916" lon="9.7739586"><ele>226.0</ele><time>2026-04-19T09:15:18.081Z</time></trkpt><trkpt lat="44.8719912" lon="9.7738483"><ele>226.0</ele><time>2026-04-19T09:15:22.073Z</time></trkpt><trkpt lat="44.8719782" lon="9.7737592"><ele>226.0</ele><time>2026-04-19T09:15:25.085Z</time></trkpt><trkpt lat="44.8719699" lon="9.7736523"><ele>226.0</ele><time>2026-04-19T09:15:28.084Z</time></trkpt><trkpt lat="44.8719603" lon="9.773562"><ele>226.0</ele><time>2026-04-19T09:15:31.082Z</time></trkpt><trkpt lat="44.871956" lon="9.7734473"><ele>226.0</ele><time>2026-04-19T09:15:34.081Z</time></trkpt><trkpt lat="44.8719741" lon="9.773333"><ele>226.0</ele><time>2026-04-19T09:15:38.075Z</time></trkpt><trkpt lat="44.8720392" lon="9.7732962"><ele>226.0</ele><time>2026-04-19T09:15:41.08Z</time></trkpt><trkpt lat="44.8721063" lon="9.7732687"><ele>226.0</ele><time>2026-04-19T09:15:46.088Z</time></trkpt><trkpt lat="44.8721721" lon="9.7732472"><ele>226.0</ele><time>2026-04-19T09:15:50.073Z</time></trkpt><trkpt lat="44.8722418" lon="9.773239"><ele>225.85714285714286</ele><time>2026-04-19T09:15:53.079Z</time></trkpt><trkpt lat="44.8723122" lon="9.7732114"><ele>225.71428571428572</ele><time>2026-04-19T09:15:57.065Z</time></trkpt><trkpt lat="44.8723852" lon="9.7731822"><ele>225.57142857142858</ele><time>2026-04-19T09:16:00.091Z</time></trkpt><trkpt lat="44.8724479" lon="9.7731597"><ele>225.42857142857144</ele><time>2026-04-19T09:16:03.075Z</time></trkpt><trkpt lat="44.8725113" lon="9.7731164"><ele>225.28571428571428</ele><time>2026-04-19T09:16:06.081Z</time></trkpt><trkpt lat="44.872584" lon="9.7730952"><ele>225.14285714285717</ele><time>2026-04-19T09:16:10.074Z</time></trkpt><trkpt lat="44.8726507" lon="9.7730944"><ele>225.00000000000003</ele><time>2026-04-19T09:16:15.078Z</time></trkpt><trkpt lat="44.8727216" lon="9.7730502"><ele>225.0</ele><time>2026-04-19T09:16:20.083Z</time></trkpt><trkpt lat="44.8727909" lon="9.7730196"><ele>225.0</ele><time>2026-04-19T09:16:24.087Z</time></trkpt><trkpt lat="44.8728661" lon="9.7729909"><ele>225.0</ele><time>2026-04-19T09:16:28.079Z</time></trkpt><trkpt lat="44.8729196" lon="9.7729279"><ele>225.0</ele><time>2026-04-19T09:16:31.081Z</time></trkpt><trkpt lat="44.8729256" lon="9.7728147"><ele>225.0</ele><time>2026-04-19T09:16:34.081Z</time></trkpt><trkpt lat="44.8729275" lon="9.7726962"><ele>225.0</ele><time>2026-04-19T09:16:37.086Z</time></trkpt><trkpt lat="44.872933" lon="9.7725664"><ele>224.5</ele><time>2026-04-19T09:16:40.08Z</time></trkpt><trkpt lat="44.8729704" lon="9.7724406"><ele>224.0</ele><time>2026-04-19T09:16:43.085Z</time></trkpt><trkpt lat="44.8730279" lon="9.7723764"><ele>223.5</ele><time>2026-04-19T09:16:45.08Z</time></trkpt><trkpt lat="44.8731034" lon="9.7723188"><ele>223.0</ele><time>2026-04-19T09:16:48.084Z</time></trkpt><trkpt lat="44.8731729" lon="9.7722951"><ele>222.5</ele><time>2026-04-19T09:16:52.084Z</time></trkpt><trkpt lat="44.8732344" lon="9.772273"><ele>222.0</ele><time>2026-04-19T09:16:55.086Z</time></trkpt><trkpt lat="44.8733055" lon="9.7722447"><ele>222.0</ele><time>2026-04-19T09:16:58.091Z</time></trkpt><trkpt lat="44.8733898" lon="9.7722307"><ele>222.0</ele><time>2026-04-19T09:17:01.084Z</time></trkpt><trkpt lat="44.8734658" lon="9.7722172"><ele>222.0</ele><time>2026-04-19T09:17:04.082Z</time></trkpt><trkpt lat="44.8735437" lon="9.7722076"><ele>222.0</ele><time>2026-04-19T09:17:07.079Z</time></trkpt><trkpt lat="44.8736268" lon="9.7721897"><ele>222.0</ele><time>2026-04-19T09:17:10.08Z</time></trkpt><trkpt lat="44.8737097" lon="9.7721795"><ele>222.0</ele><time>2026-04-19T09:17:13.075Z</time></trkpt><trkpt lat="44.8737899" lon="9.7721618"><ele>221.83333333333334</ele><time>2026-04-19T09:17:16.086Z</time></trkpt><trkpt lat="44.87386" lon="9.772154"><ele>221.66666666666669</ele><time>2026-04-19T09:17:19.079Z</time></trkpt><trkpt lat="44.8739378" lon="9.7721677"><ele>221.5</ele><time>2026-04-19T09:17:22.082Z</time></trkpt><trkpt lat="44.8740211" lon="9.7721598"><ele>221.33333333333334</ele><time>2026-04-19T09:17:25.081Z</time></trkpt><trkpt lat="44.8741048" lon="9.7721431"><ele>221.16666666666669</ele><time>2026-04-19T09:17:28.092Z</time></trkpt><trkpt lat="44.8741812" lon="9.7721254"><ele>221.0</ele><time>2026-04-19T09:17:30.106Z</time></trkpt><trkpt lat="44.8742588" lon="9.7721227"><ele>220.0</ele><time>2026-04-19T09:17:32.088Z</time></trkpt><trkpt lat="44.8743547" lon="9.7721037"><ele>219.00000000000003</ele><time>2026-04-19T09:17:34.092Z</time></trkpt><trkpt lat="44.8744594" lon="9.772081"><ele>218.00000000000003</ele><time>2026-04-19T09:17:36.089Z</time></trkpt><trkpt lat="44.8745584" lon="9.7720696"><ele>217.0</ele><time>2026-04-19T09:17:38.085Z</time></trkpt><trkpt lat="44.874656" lon="9.7720622"><ele>216.0</ele><time>2026-04-19T09:17:40.091Z</time></trkpt><trkpt lat="44.8747543" lon="9.7720555"><ele>216.0</ele><time>2026-04-19T09:17:42.091Z</time></trkpt><trkpt lat="44.8748628" lon="9.7720613"><ele>216.0</ele><time>2026-04-19T09:17:44.085Z</time></trkpt><trkpt lat="44.8749822" lon="9.7720527"><ele>216.0</ele><time>2026-04-19T09:17:46.093Z</time></trkpt><trkpt lat="44.8750486" lon="9.7720511"><ele>216.0</ele><time>2026-04-19T09:17:47.091Z</time></trkpt><trkpt lat="44.8751153" lon="9.7720522"><ele>216.0</ele><time>2026-04-19T09:17:48.086Z</time></trkpt><trkpt lat="44.8751846" lon="9.7720534"><ele>216.0</ele><time>2026-04-19T09:17:49.101Z</time></trkpt><trkpt lat="44.8752578" lon="9.7720565"><ele>215.28571428571428</ele><time>2026-04-19T09:17:50.094Z</time></trkpt><trkpt lat="44.8753337" lon="9.7720577"><ele>214.57142857142856</ele><time>2026-04-19T09:17:51.073Z</time></trkpt><trkpt lat="44.875411" lon="9.7720546"><ele>213.85714285714286</ele><time>2026-04-19T09:17:52.074Z</time></trkpt><trkpt lat="44.8754823" lon="9.7720541"><ele>213.14285714285714</ele><time>2026-04-19T09:17:53.083Z</time></trkpt><trkpt lat="44.8755536" lon="9.772052"><ele>212.42857142857144</ele><time>2026-04-19T09:17:54.084Z</time></trkpt><trkpt lat="44.8756254" lon="9.7720511"><ele>211.71428571428572</ele><time>2026-04-19T09:17:55.086Z</time></trkpt><trkpt lat="44.8756982" lon="9.7720544"><ele>211.0</ele><time>2026-04-19T09:17:56.091Z</time></trkpt><trkpt lat="44.8757673" lon="9.772052"><ele>211.0</ele><time>2026-04-19T09:17:57.088Z</time></trkpt><trkpt lat="44.875832" lon="9.7720449"><ele>211.0</ele><time>2026-04-19T09:17:58.072Z</time></trkpt><trkpt lat="44.8759033" lon="9.7720331"><ele>211.0</ele><time>2026-04-19T09:17:59.088Z</time></trkpt><trkpt lat="44.8759738" lon="9.7720178"><ele>211.0</ele><time>2026-04-19T09:18:00.077Z</time></trkpt><trkpt lat="44.876044" lon="9.7719913"><ele>211.0</ele><time>2026-04-19T09:18:01.088Z</time></trkpt><trkpt lat="44.876116" lon="9.7719512"><ele>211.0</ele><time>2026-04-19T09:18:02.084Z</time></trkpt><trkpt lat="44.8761898" lon="9.7719096"><ele>211.0</ele><time>2026-04-19T09:18:03.084Z</time></trkpt><trkpt lat="44.8762664" lon="9.771866"><ele>209.99999999999997</ele><time>2026-04-19T09:18:04.082Z</time></trkpt><trkpt lat="44.8763419" lon="9.7718301"><ele>209.0</ele><time>2026-04-19T09:18:05.068Z</time></trkpt><trkpt lat="44.8764163" lon="9.771794"><ele>208.0</ele><time>2026-04-19T09:18:06.092Z</time></trkpt><trkpt lat="44.8764913" lon="9.7717639"><ele>207.0</ele><time>2026-04-19T09:18:07.078Z</time></trkpt><trkpt lat="44.8765653" lon="9.7717325"><ele>205.99999999999997</ele><time>2026-04-19T09:18:08.08Z</time></trkpt><trkpt lat="44.8766386" lon="9.7717091"><ele>205.0</ele><time>2026-04-19T09:18:09.102Z</time></trkpt><trkpt lat="44.8767144" lon="9.7716901"><ele>205.16666666666666</ele><time>2026-04-19T09:18:10.077Z</time></trkpt><trkpt lat="44.8767898" lon="9.7716711"><ele>205.33333333333331</ele><time>2026-04-19T09:18:11.089Z</time></trkpt><trkpt lat="44.8768687" lon="9.7716529"><ele>205.5</ele><time>2026-04-19T09:18:12.085Z</time></trkpt><trkpt lat="44.8769997" lon="9.7716402"><ele>205.66666666666669</ele><time>2026-04-19T09:18:14.078Z</time></trkpt><trkpt lat="44.8770733" lon="9.7716456"><ele>205.83333333333334</ele><time>2026-04-19T09:18:15.089Z</time></trkpt><trkpt lat="44.8771464" lon="9.7716451"><ele>206.0</ele><time>2026-04-19T09:18:16.083Z</time></trkpt><trkpt lat="44.8772108" lon="9.7716319"><ele>206.0</ele><time>2026-04-19T09:18:17.081Z</time></trkpt><trkpt lat="44.8772736" lon="9.7716075"><ele>206.0</ele><time>2026-04-19T09:18:18.083Z</time></trkpt><trkpt lat="44.8773886" lon="9.7715225"><ele>206.0</ele><time>2026-04-19T09:18:20.052Z</time></trkpt><trkpt lat="44.8774981" lon="9.7714252"><ele>206.0</ele><time>2026-04-19T09:18:22.068Z</time></trkpt><trkpt lat="44.8775609" lon="9.7713884"><ele>206.0</ele><time>2026-04-19T09:18:23.087Z</time></trkpt><trkpt lat="44.8776719" lon="9.7713173"><ele>205.25</ele><time>2026-04-19T09:18:25.089Z</time></trkpt><trkpt lat="44.8777843" lon="9.771255"><ele>204.5</ele><time>2026-04-19T09:18:27.08Z</time></trkpt><trkpt lat="44.8778952" lon="9.7712087"><ele>203.75</ele><time>2026-04-19T09:18:29.087Z</time></trkpt><trkpt lat="44.8780053" lon="9.7711716"><ele>203.0</ele><time>2026-04-19T09:18:31.091Z</time></trkpt><trkpt lat="44.8781181" lon="9.7711286"><ele>203.0</ele><time>2026-04-19T09:18:33.094Z</time></trkpt><trkpt lat="44.8782296" lon="9.7710812"><ele>203.0</ele><time>2026-04-19T09:18:35.087Z</time></trkpt><trkpt lat="44.8782892" lon="9.7710382"><ele>203.0</ele><time>2026-04-19T09:18:36.083Z</time></trkpt><trkpt lat="44.8783851" lon="9.7709318"><ele>203.0</ele><time>2026-04-19T09:18:38.084Z</time></trkpt><trkpt lat="44.8784321" lon="9.7708209"><ele>203.0</ele><time>2026-04-19T09:18:40.092Z</time></trkpt><trkpt lat="44.8784912" lon="9.7707388"><ele>202.0</ele><time>2026-04-19T09:18:42.086Z</time></trkpt><trkpt lat="44.8785523" lon="9.7706686"><ele>201.0</ele><time>2026-04-19T09:18:44.066Z</time></trkpt><trkpt lat="44.8786333" lon="9.7706054"><ele>200.0</ele><time>2026-04-19T09:18:46.084Z</time></trkpt><trkpt lat="44.8787356" lon="9.7705352"><ele>199.0</ele><time>2026-04-19T09:18:48.083Z</time></trkpt><trkpt lat="44.8788561" lon="9.7704826"><ele>198.0</ele><time>2026-04-19T09:18:50.078Z</time></trkpt><trkpt lat="44.8789248" lon="9.7704592"><ele>198.0</ele><time>2026-04-19T09:18:51.083Z</time></trkpt><trkpt lat="44.8789928" lon="9.7704353"><ele>198.0</ele><time>2026-04-19T09:18:52.092Z</time></trkpt><trkpt lat="44.8790602" lon="9.7704163"><ele>198.0</ele><time>2026-04-19T09:18:53.079Z</time></trkpt><trkpt lat="44.879177" lon="9.7703658"><ele>198.0</ele><time>2026-04-19T09:18:55.087Z</time></trkpt><trkpt lat="44.8792956" lon="9.7703009"><ele>198.0</ele><time>2026-04-19T09:18:57.092Z</time></trkpt><trkpt lat="44.8794015" lon="9.7702602"><ele>197.66666666666666</ele><time>2026-04-19T09:18:59.089Z</time></trkpt><trkpt lat="44.8795025" lon="9.7702389"><ele>197.33333333333331</ele><time>2026-04-19T09:19:01.086Z</time></trkpt><trkpt lat="44.8795901" lon="9.7702141"><ele>197.0</ele><time>2026-04-19T09:19:03.09Z</time></trkpt><trkpt lat="44.879672" lon="9.7702076"><ele>196.66666666666666</ele><time>2026-04-19T09:19:05.07Z</time></trkpt><trkpt lat="44.8797516" lon="9.7701933"><ele>196.33333333333331</ele><time>2026-04-19T09:19:07.076Z</time></trkpt><trkpt lat="44.8798371" lon="9.770184"><ele>196.0</ele><time>2026-04-19T09:19:09.088Z</time></trkpt><trkpt lat="44.8799223" lon="9.7701571"><ele>195.0</ele><time>2026-04-19T09:19:11.089Z</time></trkpt><trkpt lat="44.8800125" lon="9.7701457"><ele>194.0</ele><time>2026-04-19T09:19:13.084Z</time></trkpt><trkpt lat="44.8801122" lon="9.7701293"><ele>193.0</ele><time>2026-04-19T09:19:15.082Z</time></trkpt><trkpt lat="44.8802146" lon="9.7701136"><ele>192.0</ele><time>2026-04-19T09:19:17.083Z</time></trkpt><trkpt lat="44.8803291" lon="9.7700976"><ele>191.0</ele><time>2026-04-19T09:19:19.091Z</time></trkpt><trkpt lat="44.8804404" lon="9.7700856"><ele>191.0</ele><time>2026-04-19T09:19:21.084Z</time></trkpt><trkpt lat="44.8805494" lon="9.770068"><ele>191.0</ele><time>2026-04-19T09:19:23.081Z</time></trkpt><trkpt lat="44.8806583" lon="9.7700556"><ele>191.0</ele><time>2026-04-19T09:19:25.081Z</time></trkpt><trkpt lat="44.8807676" lon="9.7700401"><ele>191.0</ele><time>2026-04-19T09:19:27.089Z</time></trkpt><trkpt lat="44.8808717" lon="9.7700347"><ele>191.0</ele><time>2026-04-19T09:19:29.084Z</time></trkpt><trkpt lat="44.8809689" lon="9.7700135"><ele>190.4</ele><time>2026-04-19T09:19:31.085Z</time></trkpt><trkpt lat="44.8810411" lon="9.7699701"><ele>189.8</ele><time>2026-04-19T09:19:33.085Z</time></trkpt><trkpt lat="44.8810582" lon="9.7698427"><ele>189.20000000000002</ele><time>2026-04-19T09:19:35.083Z</time></trkpt><trkpt lat="44.8810783" lon="9.7697261"><ele>188.60000000000002</ele><time>2026-04-19T09:19:37.076Z</time></trkpt><trkpt lat="44.8811067" lon="9.7695845"><ele>188.0</ele><time>2026-04-19T09:19:39.08Z</time></trkpt><trkpt lat="44.8811878" lon="9.7694798"><ele>188.0</ele><time>2026-04-19T09:19:41.087Z</time></trkpt><trkpt lat="44.8812513" lon="9.7694578"><ele>188.0</ele><time>2026-04-19T09:19:42.075Z</time></trkpt><trkpt lat="44.8813154" lon="9.7694378"><ele>188.0</ele><time>2026-04-19T09:19:43.078Z</time></trkpt><trkpt lat="44.8813811" lon="9.7694169"><ele>188.0</ele><time>2026-04-19T09:19:44.09Z</time></trkpt><trkpt lat="44.8814529" lon="9.7693943"><ele>188.0</ele><time>2026-04-19T09:19:45.082Z</time></trkpt><trkpt lat="44.8815262" lon="9.7693756"><ele>188.0</ele><time>2026-04-19T09:19:46.049Z</time></trkpt><trkpt lat="44.8816093" lon="9.7693491"><ele>188.0</ele><time>2026-04-19T09:19:47.054Z</time></trkpt><trkpt lat="44.8816941" lon="9.7693153"><ele>187.28571428571428</ele><time>2026-04-19T09:19:48.056Z</time></trkpt><trkpt lat="44.8817697" lon="9.7692814"><ele>186.57142857142856</ele><time>2026-04-19T09:19:49.048Z</time></trkpt><trkpt lat="44.8818393" lon="9.7692377"><ele>185.85714285714286</ele><time>2026-04-19T09:19:50.06Z</time></trkpt><trkpt lat="44.8819045" lon="9.7691901"><ele>185.14285714285714</ele><time>2026-04-19T09:19:51.049Z</time></trkpt><trkpt lat="44.8819692" lon="9.7691497"><ele>184.42857142857144</ele><time>2026-04-19T09:19:52.053Z</time></trkpt><trkpt lat="44.8820333" lon="9.7691153"><ele>183.71428571428572</ele><time>2026-04-19T09:19:53.053Z</time></trkpt><trkpt lat="44.8820934" lon="9.7690693"><ele>183.0</ele><time>2026-04-19T09:19:54.054Z</time></trkpt><trkpt lat="44.8821495" lon="9.7690269"><ele>183.0</ele><time>2026-04-19T09:19:55.086Z</time></trkpt><trkpt lat="44.8822067" lon="9.7689824"><ele>183.0</ele><time>2026-04-19T09:19:56.063Z</time></trkpt><trkpt lat="44.8822696" lon="9.7689354"><ele>183.0</ele><time>2026-04-19T09:19:57.057Z</time></trkpt><trkpt lat="44.8823336" lon="9.7688773"><ele>183.0</ele><time>2026-04-19T09:19:58.071Z</time></trkpt><trkpt lat="44.8823913" lon="9.7688174"><ele>183.0</ele><time>2026-04-19T09:19:59.081Z</time></trkpt><trkpt lat="44.8824404" lon="9.7687469"><ele>183.0</ele><time>2026-04-19T09:20:00.064Z</time></trkpt><trkpt lat="44.8824984" lon="9.7686602"><ele>183.0</ele><time>2026-04-19T09:20:01.083Z</time></trkpt><trkpt lat="44.8825574" lon="9.7685802"><ele>181.83333333333334</ele><time>2026-04-19T09:20:02.065Z</time></trkpt><trkpt lat="44.8826209" lon="9.7684961"><ele>180.66666666666666</ele><time>2026-04-19T09:20:03.081Z</time></trkpt><trkpt lat="44.8826802" lon="9.7684182"><ele>179.5</ele><time>2026-04-19T09:20:04.076Z</time></trkpt><trkpt lat="44.8827398" lon="9.7683259"><ele>178.33333333333331</ele><time>2026-04-19T09:20:05.081Z</time></trkpt><trkpt lat="44.8827987" lon="9.768241"><ele>177.16666666666666</ele><time>2026-04-19T09:20:06.064Z</time></trkpt><trkpt lat="44.8828591" lon="9.7681455"><ele>176.0</ele><time>2026-04-19T09:20:07.084Z</time></trkpt><trkpt lat="44.8829105" lon="9.7680487"><ele>176.0</ele><time>2026-04-19T09:20:08.079Z</time></trkpt><trkpt lat="44.8829558" lon="9.7679533"><ele>176.0</ele><time>2026-04-19T09:20:09.081Z</time></trkpt><trkpt lat="44.8829992" lon="9.767851"><ele>176.0</ele><time>2026-04-19T09:20:10.081Z</time></trkpt><trkpt lat="44.8830441" lon="9.7677608"><ele>176.0</ele><time>2026-04-19T09:20:11.086Z</time></trkpt><trkpt lat="44.883094" lon="9.7676698"><ele>176.0</ele><time>2026-04-19T09:20:12.089Z</time></trkpt><trkpt lat="44.8831411" lon="9.76758"><ele>176.0</ele><time>2026-04-19T09:20:13.086Z</time></trkpt><trkpt lat="44.8831964" lon="9.7674865"><ele>174.0</ele><time>2026-04-19T09:20:14.083Z</time></trkpt><trkpt lat="44.8832455" lon="9.767394"><ele>172.0</ele><time>2026-04-19T09:20:15.067Z</time></trkpt><trkpt lat="44.8832961" lon="9.7672994"><ele>170.0</ele><time>2026-04-19T09:20:16.078Z</time></trkpt><trkpt lat="44.8833503" lon="9.7672096"><ele>168.0</ele><time>2026-04-19T09:20:17.066Z</time></trkpt><trkpt lat="44.8834027" lon="9.7671096"><ele>166.0</ele><time>2026-04-19T09:20:18.082Z</time></trkpt><trkpt lat="44.8834547" lon="9.7670076"><ele>164.0</ele><time>2026-04-19T09:20:19.084Z</time></trkpt><trkpt lat="44.8835057" lon="9.7669085"><ele>162.16666666666666</ele><time>2026-04-19T09:20:20.066Z</time></trkpt><trkpt lat="44.8835555" lon="9.7668064"><ele>160.33333333333331</ele><time>2026-04-19T09:20:21.077Z</time></trkpt><trkpt lat="44.8836016" lon="9.7667056"><ele>158.5</ele><time>2026-04-19T09:20:22.068Z</time></trkpt><trkpt lat="44.8836413" lon="9.7666056"><ele>156.66666666666666</ele><time>2026-04-19T09:20:23.082Z</time></trkpt><trkpt lat="44.8836747" lon="9.7665097"><ele>154.83333333333334</ele><time>2026-04-19T09:20:24.088Z</time></trkpt><trkpt lat="44.8836989" lon="9.7664108"><ele>153.0</ele><time>2026-04-19T09:20:25.08Z</time></trkpt><trkpt lat="44.8837119" lon="9.7663186"><ele>153.0</ele><time>2026-04-19T09:20:26.07Z</time></trkpt><trkpt lat="44.8837249" lon="9.7661618"><ele>153.0</ele><time>2026-04-19T09:20:28.077Z</time></trkpt><trkpt lat="44.8837373" lon="9.7660367"><ele>153.0</ele><time>2026-04-19T09:20:30.084Z</time></trkpt><trkpt lat="44.8837399" lon="9.7659321"><ele>153.0</ele><time>2026-04-19T09:20:32.076Z</time></trkpt><trkpt lat="44.8837626" lon="9.7658264"><ele>153.0</ele><time>2026-04-19T09:20:35.067Z</time></trkpt><trkpt lat="44.8838507" lon="9.7658624"><ele>153.0</ele><time>2026-04-19T09:20:38.09Z</time></trkpt><trkpt lat="44.8839238" lon="9.7659005"><ele>153.0</ele><time>2026-04-19T09:20:40.065Z</time></trkpt><trkpt lat="44.8840119" lon="9.7659466"><ele>153.0</ele><time>2026-04-19T09:20:42.065Z</time></trkpt><trkpt lat="44.8840872" lon="9.7659835"><ele>153.0</ele><time>2026-04-19T09:20:44.09Z</time></trkpt><trkpt lat="44.8841653" lon="9.7660116"><ele>153.0</ele><time>2026-04-19T09:20:46.079Z</time></trkpt><trkpt lat="44.8842558" lon="9.7660444"><ele>153.0</ele><time>2026-04-19T09:20:48.089Z</time></trkpt><trkpt lat="44.8843578" lon="9.7660731"><ele>152.20000000000002</ele><time>2026-04-19T09:20:50.088Z</time></trkpt><trkpt lat="44.8844511" lon="9.7660794"><ele>151.4</ele><time>2026-04-19T09:20:52.086Z</time></trkpt><trkpt lat="44.8845286" lon="9.7660949"><ele>150.60000000000002</ele><time>2026-04-19T09:20:54.091Z</time></trkpt><trkpt lat="44.8846171" lon="9.7661051"><ele>149.8</ele><time>2026-04-19T09:20:56.077Z</time></trkpt><trkpt lat="44.884712" lon="9.7661086"><ele>149.0</ele><time>2026-04-19T09:20:58.08Z</time></trkpt><trkpt lat="44.8848114" lon="9.7661096"><ele>149.0</ele><time>2026-04-19T09:21:00.083Z</time></trkpt><trkpt lat="44.8849058" lon="9.7661083"><ele>149.0</ele><time>2026-04-19T09:21:02.084Z</time></trkpt><trkpt lat="44.8849992" lon="9.7661006"><ele>149.0</ele><time>2026-04-19T09:21:04.075Z</time></trkpt><trkpt lat="44.8850942" lon="9.7661022"><ele>149.0</ele><time>2026-04-19T09:21:06.081Z</time></trkpt><trkpt lat="44.885187" lon="9.7661064"><ele>149.0</ele><time>2026-04-19T09:21:08.07Z</time></trkpt><trkpt lat="44.8852834" lon="9.7661123"><ele>149.0</ele><time>2026-04-19T09:21:10.084Z</time></trkpt><trkpt lat="44.8853669" lon="9.7660941"><ele>149.0</ele><time>2026-04-19T09:21:12.081Z</time></trkpt><trkpt lat="44.885443" lon="9.7660166"><ele>149.0</ele><time>2026-04-19T09:21:14.085Z</time></trkpt><trkpt lat="44.8855234" lon="9.7659494"><ele>149.0</ele><time>2026-04-19T09:21:16.066Z</time></trkpt><trkpt lat="44.88559" lon="9.7658706"><ele>149.0</ele><time>2026-04-19T09:21:18.056Z</time></trkpt><trkpt lat="44.8856683" lon="9.765798"><ele>149.0</ele><time>2026-04-19T09:21:20.091Z</time></trkpt><trkpt lat="44.8857474" lon="9.7657064"><ele>149.0</ele><time>2026-04-19T09:21:22.085Z</time></trkpt><trkpt lat="44.8858248" lon="9.765606"><ele>149.0</ele><time>2026-04-19T09:21:24.088Z</time></trkpt><trkpt lat="44.8859155" lon="9.7655227"><ele>149.0</ele><time>2026-04-19T09:21:26.071Z</time></trkpt><trkpt lat="44.886019" lon="9.765481"><ele>149.0</ele><time>2026-04-19T09:21:28.085Z</time></trkpt><trkpt lat="44.8861102" lon="9.7654542"><ele>149.0</ele><time>2026-04-19T09:21:30.084Z</time></trkpt><trkpt lat="44.8861957" lon="9.7654588"><ele>149.0</ele><time>2026-04-19T09:21:32.077Z</time></trkpt><trkpt lat="44.8862654" lon="9.7655357"><ele>149.0</ele><time>2026-04-19T09:21:34.077Z</time></trkpt><trkpt lat="44.8863181" lon="9.7656276"><ele>149.0</ele><time>2026-04-19T09:21:36.08Z</time></trkpt><trkpt lat="44.8863756" lon="9.7657141"><ele>149.0</ele><time>2026-04-19T09:21:38.084Z</time></trkpt><trkpt lat="44.8864362" lon="9.7658162"><ele>149.0</ele><time>2026-04-19T09:21:40.084Z</time></trkpt><trkpt lat="44.8864925" lon="9.7659039"><ele>149.0</ele><time>2026-04-19T09:21:42.087Z</time></trkpt><trkpt lat="44.8865323" lon="9.765999"><ele>149.0</ele><time>2026-04-19T09:21:44.081Z</time></trkpt><trkpt lat="44.8865744" lon="9.7660994"><ele>149.0</ele><time>2026-04-19T09:21:46.081Z</time></trkpt><trkpt lat="44.8866339" lon="9.7662124"><ele>149.0</ele><time>2026-04-19T09:21:48.081Z</time></trkpt><trkpt lat="44.8866844" lon="9.7663163"><ele>149.0</ele><time>2026-04-19T09:21:50.064Z</time></trkpt><trkpt lat="44.8867353" lon="9.7664231"><ele>149.0</ele><time>2026-04-19T09:21:52.064Z</time></trkpt><trkpt lat="44.8867865" lon="9.7665025"><ele>148.83333333333331</ele><time>2026-04-19T09:21:54.077Z</time></trkpt><trkpt lat="44.8868434" lon="9.7665813"><ele>148.66666666666666</ele><time>2026-04-19T09:21:56.085Z</time></trkpt><trkpt lat="44.8869063" lon="9.7666695"><ele>148.5</ele><time>2026-04-19T09:21:58.081Z</time></trkpt><trkpt lat="44.8869643" lon="9.7667422"><ele>148.33333333333334</ele><time>2026-04-19T09:22:00.077Z</time></trkpt><trkpt lat="44.8870393" lon="9.7667665"><ele>148.16666666666669</ele><time>2026-04-19T09:22:02.065Z</time></trkpt><trkpt lat="44.8871019" lon="9.766806"><ele>148.0</ele><time>2026-04-19T09:22:04.089Z</time></trkpt><trkpt lat="44.8871483" lon="9.7668853"><ele>147.83333333333334</ele><time>2026-04-19T09:22:06.079Z</time></trkpt><trkpt lat="44.8871942" lon="9.7669635"><ele>147.66666666666669</ele><time>2026-04-19T09:22:08.08Z</time></trkpt><trkpt lat="44.8872301" lon="9.7670698"><ele>147.5</ele><time>2026-04-19T09:22:11.083Z</time></trkpt><trkpt lat="44.8872699" lon="9.7671469"><ele>147.33333333333334</ele><time>2026-04-19T09:22:13.087Z</time></trkpt><trkpt lat="44.8872986" lon="9.7672412"><ele>147.16666666666666</ele><time>2026-04-19T09:22:15.08Z</time></trkpt><trkpt lat="44.8873498" lon="9.7673075"><ele>147.0</ele><time>2026-04-19T09:22:17.077Z</time></trkpt><trkpt lat="44.8874137" lon="9.7674184"><ele>147.0</ele><time>2026-04-19T09:22:19.086Z</time></trkpt><trkpt lat="44.8874191" lon="9.7675187"><ele>147.0</ele><time>2026-04-19T09:22:21.081Z</time></trkpt><trkpt lat="44.8874764" lon="9.7676218"><ele>147.0</ele><time>2026-04-19T09:22:24.085Z</time></trkpt><trkpt lat="44.8875271" lon="9.7676906"><ele>147.0</ele><time>2026-04-19T09:22:26.083Z</time></trkpt><trkpt lat="44.8875858" lon="9.7677648"><ele>147.0</ele><time>2026-04-19T09:22:28.081Z</time></trkpt><trkpt lat="44.887611" lon="9.7678504"><ele>147.0</ele><time>2026-04-19T09:22:31.077Z</time></trkpt><trkpt lat="44.8876169" lon="9.7679663"><ele>146.66666666666666</ele><time>2026-04-19T09:22:34.083Z</time></trkpt><trkpt lat="44.8876" lon="9.7680868"><ele>146.33333333333334</ele><time>2026-04-19T09:22:37.081Z</time></trkpt><trkpt lat="44.8876" lon="9.7682228"><ele>146.0</ele><time>2026-04-19T09:22:40.084Z</time></trkpt><trkpt lat="44.8876117" lon="9.7683114"><ele>145.66666666666669</ele><time>2026-04-19T09:22:42.085Z</time></trkpt><trkpt lat="44.8876467" lon="9.7683969"><ele>145.33333333333334</ele><time>2026-04-19T09:22:44.082Z</time></trkpt><trkpt lat="44.8876888" lon="9.7685045"><ele>145.0</ele><time>2026-04-19T09:22:46.055Z</time></trkpt><trkpt lat="44.8877335" lon="9.7686072"><ele>145.0</ele><time>2026-04-19T09:22:48.081Z</time></trkpt><trkpt lat="44.8877822" lon="9.7687072"><ele>145.0</ele><time>2026-04-19T09:22:50.083Z</time></trkpt><trkpt lat="44.887826" lon="9.7688118"><ele>145.0</ele><time>2026-04-19T09:22:52.071Z</time></trkpt><trkpt lat="44.8878728" lon="9.7689101"><ele>145.0</ele><time>2026-04-19T09:22:54.079Z</time></trkpt><trkpt lat="44.8879154" lon="9.7690056"><ele>145.0</ele><time>2026-04-19T09:22:56.085Z</time></trkpt><trkpt lat="44.8879554" lon="9.769105"><ele>145.0</ele><time>2026-04-19T09:22:58.07Z</time></trkpt><trkpt lat="44.8879985" lon="9.7691931"><ele>145.0</ele><time>2026-04-19T09:23:00.082Z</time></trkpt><trkpt lat="44.8880479" lon="9.7692857"><ele>145.0</ele><time>2026-04-19T09:23:02.087Z</time></trkpt><trkpt lat="44.8880999" lon="9.769377"><ele>145.0</ele><time>2026-04-19T09:23:04.08Z</time></trkpt><trkpt lat="44.8881659" lon="9.7694643"><ele>145.0</ele><time>2026-04-19T09:23:06.07Z</time></trkpt><trkpt lat="44.8882478" lon="9.7695384"><ele>145.0</ele><time>2026-04-19T09:23:08.087Z</time></trkpt><trkpt lat="44.8883163" lon="9.7696276"><ele>145.0</ele><time>2026-04-19T09:23:10.088Z</time></trkpt><trkpt lat="44.8883712" lon="9.7696997"><ele>145.5</ele><time>2026-04-19T09:23:12.085Z</time></trkpt><trkpt lat="44.8884332" lon="9.7697961"><ele>146.0</ele><time>2026-04-19T09:23:15.078Z</time></trkpt><trkpt lat="44.8885068" lon="9.7698428"><ele>146.5</ele><time>2026-04-19T09:23:17.062Z</time></trkpt><trkpt lat="44.8885799" lon="9.7698528"><ele>147.0</ele><time>2026-04-19T09:23:19.081Z</time></trkpt><trkpt lat="44.888678" lon="9.7698779"><ele>147.5</ele><time>2026-04-19T09:23:21.074Z</time></trkpt><trkpt lat="44.8887784" lon="9.7698935"><ele>148.0</ele><time>2026-04-19T09:23:23.09Z</time></trkpt><trkpt lat="44.8888522" lon="9.7699102"><ele>148.0</ele><time>2026-04-19T09:23:25.047Z</time></trkpt><trkpt lat="44.8889469" lon="9.7699488"><ele>148.0</ele><time>2026-04-19T09:23:27.077Z</time></trkpt><trkpt lat="44.8890383" lon="9.7699843"><ele>148.0</ele><time>2026-04-19T09:23:29.081Z</time></trkpt><trkpt lat="44.8891232" lon="9.7699639"><ele>148.0</ele><time>2026-04-19T09:23:31.065Z</time></trkpt><trkpt lat="44.8891666" lon="9.7698557"><ele>148.0</ele><time>2026-04-19T09:23:33.077Z</time></trkpt><trkpt lat="44.8892335" lon="9.769795"><ele>148.0</ele><time>2026-04-19T09:23:35.084Z</time></trkpt><trkpt lat="44.8893011" lon="9.7697582"><ele>147.5</ele><time>2026-04-19T09:23:37.079Z</time></trkpt><trkpt lat="44.8893809" lon="9.7696987"><ele>147.0</ele><time>2026-04-19T09:23:39.067Z</time></trkpt><trkpt lat="44.8894464" lon="9.7696295"><ele>146.5</ele><time>2026-04-19T09:23:41.079Z</time></trkpt><trkpt lat="44.8895229" lon="9.769629"><ele>146.0</ele><time>2026-04-19T09:23:43.083Z</time></trkpt><trkpt lat="44.8895889" lon="9.7695812"><ele>145.5</ele><time>2026-04-19T09:23:45.085Z</time></trkpt><trkpt lat="44.8896487" lon="9.7695466"><ele>145.0</ele><time>2026-04-19T09:23:47.088Z</time></trkpt><trkpt lat="44.889726" lon="9.7695605"><ele>145.0</ele><time>2026-04-19T09:23:49.081Z</time></trkpt><trkpt lat="44.8897895" lon="9.7695874"><ele>145.0</ele><time>2026-04-19T09:23:51.076Z</time></trkpt><trkpt lat="44.8898723" lon="9.76958"><ele>145.0</ele><time>2026-04-19T09:23:54.084Z</time></trkpt><trkpt lat="44.8899678" lon="9.7695614"><ele>145.0</ele><time>2026-04-19T09:23:57.074Z</time></trkpt><trkpt lat="44.8900464" lon="9.7695391"><ele>145.0</ele><time>2026-04-19T09:23:59.08Z</time></trkpt><trkpt lat="44.8901247" lon="9.7695063"><ele>145.0</ele><time>2026-04-19T09:24:01.081Z</time></trkpt><trkpt lat="44.890199" lon="9.7694948"><ele>144.6</ele><time>2026-04-19T09:24:03.09Z</time></trkpt><trkpt lat="44.8902619" lon="9.7694861"><ele>144.2</ele><time>2026-04-19T09:24:04.061Z</time></trkpt><trkpt lat="44.8903626" lon="9.7694587"><ele>143.8</ele><time>2026-04-19T09:24:06.085Z</time></trkpt><trkpt lat="44.8904622" lon="9.7694798"><ele>143.4</ele><time>2026-04-19T09:24:08.084Z</time></trkpt><trkpt lat="44.8905669" lon="9.7695023"><ele>143.0</ele><time>2026-04-19T09:24:10.089Z</time></trkpt><trkpt lat="44.8906601" lon="9.7695478"><ele>143.0</ele><time>2026-04-19T09:24:12.071Z</time></trkpt><trkpt lat="44.8907569" lon="9.7695702"><ele>143.0</ele><time>2026-04-19T09:24:14.052Z</time></trkpt><trkpt lat="44.8908443" lon="9.7695919"><ele>143.0</ele><time>2026-04-19T09:24:16.085Z</time></trkpt><trkpt lat="44.8909399" lon="9.7696091"><ele>143.0</ele><time>2026-04-19T09:24:18.073Z</time></trkpt><trkpt lat="44.8910236" lon="9.7696412"><ele>143.0</ele><time>2026-04-19T09:24:20.076Z</time></trkpt><trkpt lat="44.8911103" lon="9.7696662"><ele>142.66666666666666</ele><time>2026-04-19T09:24:22.092Z</time></trkpt><trkpt lat="44.8911917" lon="9.7696168"><ele>142.33333333333331</ele><time>2026-04-19T09:24:24.091Z</time></trkpt><trkpt lat="44.8912448" lon="9.7695158"><ele>142.0</ele><time>2026-04-19T09:24:26.078Z</time></trkpt><trkpt lat="44.8912931" lon="9.7694257"><ele>141.66666666666666</ele><time>2026-04-19T09:24:28.085Z</time></trkpt><trkpt lat="44.8913272" lon="9.7693187"><ele>141.33333333333334</ele><time>2026-04-19T09:24:30.084Z</time></trkpt><trkpt lat="44.8913486" lon="9.76922"><ele>141.0</ele><time>2026-04-19T09:24:32.069Z</time></trkpt><trkpt lat="44.8914161" lon="9.7692024"><ele>141.0</ele><time>2026-04-19T09:24:34.073Z</time></trkpt><trkpt lat="44.8914878" lon="9.7692749"><ele>141.0</ele><time>2026-04-19T09:24:36.09Z</time></trkpt><trkpt lat="44.8915433" lon="9.7693577"><ele>141.0</ele><time>2026-04-19T09:24:38.079Z</time></trkpt><trkpt lat="44.8916153" lon="9.7694436"><ele>141.0</ele><time>2026-04-19T09:24:40.084Z</time></trkpt><trkpt lat="44.8916727" lon="9.769522"><ele>141.0</ele><time>2026-04-19T09:24:42.077Z</time></trkpt><trkpt lat="44.8916873" lon="9.7696215"><ele>141.0</ele><time>2026-04-19T09:24:44.076Z</time></trkpt><trkpt lat="44.8917088" lon="9.7697193"><ele>140.83333333333334</ele><time>2026-04-19T09:24:46.089Z</time></trkpt><trkpt lat="44.8917778" lon="9.7697945"><ele>140.66666666666666</ele><time>2026-04-19T09:24:49.08Z</time></trkpt><trkpt lat="44.8918243" lon="9.7699062"><ele>140.5</ele><time>2026-04-19T09:24:52.085Z</time></trkpt><trkpt lat="44.8918615" lon="9.7700281"><ele>140.33333333333331</ele><time>2026-04-19T09:24:55.064Z</time></trkpt><trkpt lat="44.8918986" lon="9.7701092"><ele>140.16666666666666</ele><time>2026-04-19T09:24:57.082Z</time></trkpt><trkpt lat="44.8919565" lon="9.7702072"><ele>140.0</ele><time>2026-04-19T09:25:00.087Z</time></trkpt><trkpt lat="44.8920028" lon="9.7703085"><ele>140.0</ele><time>2026-04-19T09:25:03.083Z</time></trkpt><trkpt lat="44.8920532" lon="9.7703853"><ele>140.0</ele><time>2026-04-19T09:25:05.081Z</time></trkpt><trkpt lat="44.8921135" lon="9.7704166"><ele>140.0</ele><time>2026-04-19T09:25:07.081Z</time></trkpt><trkpt lat="44.8921774" lon="9.7704638"><ele>140.0</ele><time>2026-04-19T09:25:10.07Z</time></trkpt><trkpt lat="44.8922348" lon="9.770557"><ele>140.0</ele><time>2026-04-19T09:25:13.069Z</time></trkpt><trkpt lat="44.8922847" lon="9.7706133"><ele>140.0</ele><time>2026-04-19T09:25:15.081Z</time></trkpt><trkpt lat="44.8923312" lon="9.7706853"><ele>140.0</ele><time>2026-04-19T09:25:17.087Z</time></trkpt><trkpt lat="44.8923799" lon="9.7707429"><ele>140.0</ele><time>2026-04-19T09:25:19.081Z</time></trkpt><trkpt lat="44.8924236" lon="9.7708377"><ele>140.0</ele><time>2026-04-19T09:25:22.083Z</time></trkpt><trkpt lat="44.8924594" lon="9.7709534"><ele>140.0</ele><time>2026-04-19T09:25:25.071Z</time></trkpt><trkpt lat="44.8925137" lon="9.7710274"><ele>140.0</ele><time>2026-04-19T09:25:28.076Z</time></trkpt><trkpt lat="44.8925212" lon="9.7711589"><ele>140.0</ele><time>2026-04-19T09:25:31.077Z</time></trkpt><trkpt lat="44.8925461" lon="9.7712532"><ele>140.0</ele><time>2026-04-19T09:25:33.078Z</time></trkpt><trkpt lat="44.8925926" lon="9.7713558"><ele>139.57142857142858</ele><time>2026-04-19T09:25:35.082Z</time></trkpt><trkpt lat="44.8926176" lon="9.7714458"><ele>139.14285714285714</ele><time>2026-04-19T09:25:37.059Z</time></trkpt><trkpt lat="44.8926339" lon="9.7715396"><ele>138.71428571428572</ele><time>2026-04-19T09:25:39.092Z</time></trkpt><trkpt lat="44.8926728" lon="9.7716116"><ele>138.28571428571428</ele><time>2026-04-19T09:25:41.085Z</time></trkpt><trkpt lat="44.8927335" lon="9.7716649"><ele>137.85714285714286</ele><time>2026-04-19T09:25:43.082Z</time></trkpt><trkpt lat="44.892787" lon="9.7717253"><ele>137.42857142857144</ele><time>2026-04-19T09:25:45.072Z</time></trkpt><trkpt lat="44.8928453" lon="9.7717816"><ele>137.0</ele><time>2026-04-19T09:25:47.082Z</time></trkpt><trkpt lat="44.892903" lon="9.7718408"><ele>137.00000000000003</ele><time>2026-04-19T09:25:49.084Z</time></trkpt><trkpt lat="44.8929649" lon="9.7719113"><ele>137.0</ele><time>2026-04-19T09:25:51.088Z</time></trkpt><trkpt lat="44.8930131" lon="9.77198"><ele>137.0</ele><time>2026-04-19T09:25:53.082Z</time></trkpt><trkpt lat="44.8930785" lon="9.7719602"><ele>137.0</ele><time>2026-04-19T09:25:56.083Z</time></trkpt><trkpt lat="44.8931397" lon="9.7719956"><ele>137.0</ele><time>2026-04-19T09:25:59.06Z</time></trkpt><trkpt lat="44.893169" lon="9.7720873"><ele>137.00000000000003</ele><time>2026-04-19T09:26:02.078Z</time></trkpt><trkpt lat="44.8931786" lon="9.7722107"><ele>137.0</ele><time>2026-04-19T09:26:05.063Z</time></trkpt><trkpt lat="44.8932012" lon="9.7723058"><ele>137.0</ele><time>2026-04-19T09:26:08.081Z</time></trkpt><trkpt lat="44.8931783" lon="9.7724379"><ele>137.0</ele><time>2026-04-19T09:26:11.081Z</time></trkpt><trkpt lat="44.8931867" lon="9.7725701"><ele>137.0</ele><time>2026-04-19T09:26:13.081Z</time></trkpt><trkpt lat="44.8931882" lon="9.7726671"><ele>137.0</ele><time>2026-04-19T09:26:15.082Z</time></trkpt><trkpt lat="44.8932052" lon="9.7727812"><ele>137.0</ele><time>2026-04-19T09:26:18.079Z</time></trkpt><trkpt lat="44.8932515" lon="9.7728925"><ele>137.0</ele><time>2026-04-19T09:26:21.086Z</time></trkpt><trkpt lat="44.8932941" lon="9.7729891"><ele>137.14285714285717</ele><time>2026-04-19T09:26:23.081Z</time></trkpt><trkpt lat="44.893332" lon="9.7730756"><ele>137.28571428571428</ele><time>2026-04-19T09:26:25.089Z</time></trkpt><trkpt lat="44.8933815" lon="9.7731553"><ele>137.42857142857144</ele><time>2026-04-19T09:26:27.09Z</time></trkpt><trkpt lat="44.8934522" lon="9.7732035"><ele>137.57142857142858</ele><time>2026-04-19T09:26:29.081Z</time></trkpt><trkpt lat="44.8935298" lon="9.7732461"><ele>137.71428571428572</ele><time>2026-04-19T09:26:32.085Z</time></trkpt><trkpt lat="44.8935969" lon="9.7732177"><ele>137.85714285714286</ele><time>2026-04-19T09:26:34.085Z</time></trkpt><trkpt lat="44.8936619" lon="9.7732089"><ele>138.0</ele><time>2026-04-19T09:26:36.078Z</time></trkpt><trkpt lat="44.8937227" lon="9.7731811"><ele>138.0</ele><time>2026-04-19T09:26:38.074Z</time></trkpt><trkpt lat="44.8938003" lon="9.7731489"><ele>138.0</ele><time>2026-04-19T09:26:41.076Z</time></trkpt><trkpt lat="44.8938323" lon="9.7730558"><ele>138.0</ele><time>2026-04-19T09:26:44.084Z</time></trkpt><trkpt lat="44.8939046" lon="9.7730311"><ele>138.0</ele><time>2026-04-19T09:26:47.084Z</time></trkpt><trkpt lat="44.8939716" lon="9.7730402"><ele>138.0</ele><time>2026-04-19T09:26:49.068Z</time></trkpt><trkpt lat="44.8940356" lon="9.7730439"><ele>138.0</ele><time>2026-04-19T09:26:51.079Z</time></trkpt><trkpt lat="44.8940871" lon="9.7729737"><ele>138.0</ele><time>2026-04-19T09:26:53.08Z</time></trkpt><trkpt lat="44.8941371" lon="9.7729097"><ele>138.0</ele><time>2026-04-19T09:26:56.08Z</time></trkpt><trkpt lat="44.8941991" lon="9.7728352"><ele>138.0</ele><time>2026-04-19T09:26:59.075Z</time></trkpt><trkpt lat="44.8942395" lon="9.772752"><ele>138.0</ele><time>2026-04-19T09:27:01.093Z</time></trkpt><trkpt lat="44.8942909" lon="9.7726575"><ele>138.0</ele><time>2026-04-19T09:27:04.093Z</time></trkpt><trkpt lat="44.8943288" lon="9.7725852"><ele>138.0</ele><time>2026-04-19T09:27:06.075Z</time></trkpt><trkpt lat="44.8943835" lon="9.772531"><ele>138.0</ele><time>2026-04-19T09:27:08.08Z</time></trkpt><trkpt lat="44.8944397" lon="9.7724639"><ele>138.0</ele><time>2026-04-19T09:27:10.066Z</time></trkpt><trkpt lat="44.8945064" lon="9.7724397"><ele>138.0</ele><time>2026-04-19T09:27:12.078Z</time></trkpt><trkpt lat="44.8945735" lon="9.7724605"><ele>138.0</ele><time>2026-04-19T09:27:14.075Z</time></trkpt><trkpt lat="44.8946401" lon="9.7724428"><ele>138.0</ele><time>2026-04-19T09:27:16.071Z</time></trkpt><trkpt lat="44.8946632" lon="9.7723581"><ele>138.0</ele><time>2026-04-19T09:27:18.08Z</time></trkpt><trkpt lat="44.8947403" lon="9.7723021"><ele>138.0</ele><time>2026-04-19T09:27:21.09Z</time></trkpt><trkpt lat="44.8948019" lon="9.7722523"><ele>138.0</ele><time>2026-04-19T09:27:23.084Z</time></trkpt><trkpt lat="44.8948684" lon="9.7722247"><ele>138.0</ele><time>2026-04-19T09:27:25.085Z</time></trkpt><trkpt lat="44.8949416" lon="9.7722056"><ele>138.0</ele><time>2026-04-19T09:27:28.078Z</time></trkpt><trkpt lat="44.8949978" lon="9.7722548"><ele>138.0</ele><time>2026-04-19T09:27:31.079Z</time></trkpt><trkpt lat="44.8950586" lon="9.7723221"><ele>138.0</ele><time>2026-04-19T09:27:33.079Z</time></trkpt><trkpt lat="44.8951487" lon="9.7722993"><ele>138.0</ele><time>2026-04-19T09:27:35.084Z</time></trkpt><trkpt lat="44.8952054" lon="9.7722193"><ele>138.0</ele><time>2026-04-19T09:27:37.084Z</time></trkpt><trkpt lat="44.8952644" lon="9.7721577"><ele>138.0</ele><time>2026-04-19T09:27:39.075Z</time></trkpt><trkpt lat="44.8953481" lon="9.7721824"><ele>137.33333333333334</ele><time>2026-04-19T09:27:42.085Z</time></trkpt><trkpt lat="44.8954155" lon="9.7721743"><ele>136.66666666666666</ele><time>2026-04-19T09:27:44.08Z</time></trkpt><trkpt lat="44.8955033" lon="9.7722032"><ele>136.0</ele><time>2026-04-19T09:27:47.083Z</time></trkpt><trkpt lat="44.8955594" lon="9.772271"><ele>135.33333333333331</ele><time>2026-04-19T09:27:50.086Z</time></trkpt><trkpt lat="44.8956399" lon="9.7722477"><ele>134.66666666666666</ele><time>2026-04-19T09:27:54.08Z</time></trkpt><trkpt lat="44.8957087" lon="9.772172"><ele>134.0</ele><time>2026-04-19T09:27:57.08Z</time></trkpt><trkpt lat="44.8957839" lon="9.7722027"><ele>134.0</ele><time>2026-04-19T09:28:00.077Z</time></trkpt><trkpt lat="44.8958559" lon="9.77213"><ele>134.0</ele><time>2026-04-19T09:28:03.082Z</time></trkpt><trkpt lat="44.8958919" lon="9.7720476"><ele>134.0</ele><time>2026-04-19T09:28:05.084Z</time></trkpt><trkpt lat="44.8959325" lon="9.7719657"><ele>134.0</ele><time>2026-04-19T09:28:07.081Z</time></trkpt><trkpt lat="44.8959582" lon="9.7718498"><ele>134.0</ele><time>2026-04-19T09:28:09.077Z</time></trkpt><trkpt lat="44.8960064" lon="9.7717748"><ele>134.0</ele><time>2026-04-19T09:28:11.088Z</time></trkpt><trkpt lat="44.8960519" lon="9.7717018"><ele>133.66666666666666</ele><time>2026-04-19T09:28:13.082Z</time></trkpt><trkpt lat="44.8961006" lon="9.7715935"><ele>133.33333333333331</ele><time>2026-04-19T09:28:15.074Z</time></trkpt><trkpt lat="44.8961557" lon="9.7715254"><ele>133.0</ele><time>2026-04-19T09:28:17.077Z</time></trkpt><trkpt lat="44.8961923" lon="9.77145"><ele>132.66666666666666</ele><time>2026-04-19T09:28:19.079Z</time></trkpt><trkpt lat="44.8962888" lon="9.7714175"><ele>132.33333333333334</ele><time>2026-04-19T09:28:22.081Z</time></trkpt><trkpt lat="44.8963375" lon="9.7713475"><ele>132.0</ele><time>2026-04-19T09:28:25.055Z</time></trkpt><trkpt lat="44.896428" lon="9.7713318"><ele>132.0</ele><time>2026-04-19T09:28:29.084Z</time></trkpt><trkpt lat="44.8965033" lon="9.771375"><ele>132.0</ele><time>2026-04-19T09:28:32.083Z</time></trkpt><trkpt lat="44.8965658" lon="9.7713911"><ele>132.0</ele><time>2026-04-19T09:28:34.074Z</time></trkpt><trkpt lat="44.8966309" lon="9.7713553"><ele>132.0</ele><time>2026-04-19T09:28:36.074Z</time></trkpt><trkpt lat="44.8966928" lon="9.7713309"><ele>132.0</ele><time>2026-04-19T09:28:38.088Z</time></trkpt><trkpt lat="44.8967585" lon="9.771298"><ele>132.0</ele><time>2026-04-19T09:28:40.075Z</time></trkpt><trkpt lat="44.8968189" lon="9.7712638"><ele>132.0</ele><time>2026-04-19T09:28:42.076Z</time></trkpt><trkpt lat="44.8968595" lon="9.7711683"><ele>132.0</ele><time>2026-04-19T09:28:45.085Z</time></trkpt><trkpt lat="44.8969044" lon="9.7711035"><ele>132.0</ele><time>2026-04-19T09:28:48.084Z</time></trkpt><trkpt lat="44.8969741" lon="9.7710642"><ele>132.0</ele><time>2026-04-19T09:28:50.092Z</time></trkpt><trkpt lat="44.8970651" lon="9.7710748"><ele>132.0</ele><time>2026-04-19T09:28:53.084Z</time></trkpt><trkpt lat="44.897129" lon="9.7710212"><ele>132.0</ele><time>2026-04-19T09:28:56.077Z</time></trkpt><trkpt lat="44.8971933" lon="9.7709764"><ele>132.0</ele><time>2026-04-19T09:28:59.078Z</time></trkpt><trkpt lat="44.8972554" lon="9.7709398"><ele>132.0</ele><time>2026-04-19T09:29:01.087Z</time></trkpt><trkpt lat="44.8973289" lon="9.7709547"><ele>132.0</ele><time>2026-04-19T09:29:03.07Z</time></trkpt><trkpt lat="44.8973941" lon="9.7709032"><ele>132.0</ele><time>2026-04-19T09:29:06.088Z</time></trkpt><trkpt lat="44.8974649" lon="9.7708969"><ele>132.0</ele><time>2026-04-19T09:29:09.08Z</time></trkpt><trkpt lat="44.8975274" lon="9.7708753"><ele>132.0</ele><time>2026-04-19T09:29:11.08Z</time></trkpt><trkpt lat="44.8975952" lon="9.7708545"><ele>132.0</ele><time>2026-04-19T09:29:14.075Z</time></trkpt><trkpt lat="44.8976679" lon="9.7708183"><ele>132.0</ele><time>2026-04-19T09:29:17.093Z</time></trkpt><trkpt lat="44.8977518" lon="9.7707739"><ele>132.0</ele><time>2026-04-19T09:29:20.088Z</time></trkpt><trkpt lat="44.8978284" lon="9.7707594"><ele>132.0</ele><time>2026-04-19T09:29:23.079Z</time></trkpt><trkpt lat="44.8978867" lon="9.770687"><ele>132.0</ele><time>2026-04-19T09:29:26.081Z</time></trkpt><trkpt lat="44.8979599" lon="9.7706693"><ele>132.0</ele><time>2026-04-19T09:29:28.088Z</time></trkpt><trkpt lat="44.8980179" lon="9.7706241"><ele>132.0</ele><time>2026-04-19T09:29:30.089Z</time></trkpt><trkpt lat="44.8980855" lon="9.7705871"><ele>132.0</ele><time>2026-04-19T09:29:33.079Z</time></trkpt><trkpt lat="44.898171" lon="9.7705817"><ele>132.0</ele><time>2026-04-19T09:29:35.075Z</time></trkpt><trkpt lat="44.8982564" lon="9.7705315"><ele>132.0</ele><time>2026-04-19T09:29:37.094Z</time></trkpt><trkpt lat="44.8983253" lon="9.7704955"><ele>132.0</ele><time>2026-04-19T09:29:40.082Z</time></trkpt><trkpt lat="44.8984312" lon="9.7704947"><ele>132.0</ele><time>2026-04-19T09:29:43.079Z</time></trkpt><trkpt lat="44.8985044" lon="9.7705081"><ele>132.0</ele><time>2026-04-19T09:29:45.084Z</time></trkpt><trkpt lat="44.8985376" lon="9.7706355"><ele>132.0</ele><time>2026-04-19T09:29:48.076Z</time></trkpt><trkpt lat="44.8986106" lon="9.7706643"><ele>132.0</ele><time>2026-04-19T09:29:51.082Z</time></trkpt><trkpt lat="44.8986793" lon="9.7706912"><ele>132.33333333333334</ele><time>2026-04-19T09:29:54.082Z</time></trkpt><trkpt lat="44.8987646" lon="9.7706688"><ele>132.66666666666666</ele><time>2026-04-19T09:29:57.083Z</time></trkpt><trkpt lat="44.8988586" lon="9.7706781"><ele>133.0</ele><time>2026-04-19T09:30:00.077Z</time></trkpt><trkpt lat="44.8989371" lon="9.770705"><ele>133.33333333333331</ele><time>2026-04-19T09:30:03.082Z</time></trkpt><trkpt lat="44.8989855" lon="9.7707761"><ele>133.66666666666666</ele><time>2026-04-19T09:30:05.081Z</time></trkpt><trkpt lat="44.8990392" lon="9.7708228"><ele>134.0</ele><time>2026-04-19T09:30:07.084Z</time></trkpt><trkpt lat="44.8991146" lon="9.7708953"><ele>134.0</ele><time>2026-04-19T09:30:10.06Z</time></trkpt><trkpt lat="44.8991585" lon="9.7709598"><ele>134.0</ele><time>2026-04-19T09:30:12.079Z</time></trkpt><trkpt lat="44.8992186" lon="9.7710569"><ele>134.0</ele><time>2026-04-19T09:30:15.08Z</time></trkpt><trkpt lat="44.8992736" lon="9.7711223"><ele>134.0</ele><time>2026-04-19T09:30:17.09Z</time></trkpt><trkpt lat="44.899355" lon="9.7711632"><ele>134.0</ele><time>2026-04-19T09:30:19.086Z</time></trkpt><trkpt lat="44.8994374" lon="9.7711362"><ele>134.0</ele><time>2026-04-19T09:30:22.079Z</time></trkpt><trkpt lat="44.8995053" lon="9.7711267"><ele>133.16666666666666</ele><time>2026-04-19T09:30:25.074Z</time></trkpt><trkpt lat="44.8995757" lon="9.7711566"><ele>132.33333333333331</ele><time>2026-04-19T09:30:28.08Z</time></trkpt><trkpt lat="44.8996534" lon="9.7711632"><ele>131.5</ele><time>2026-04-19T09:30:31.082Z</time></trkpt><trkpt lat="44.8997334" lon="9.7711981"><ele>130.66666666666666</ele><time>2026-04-19T09:30:34.08Z</time></trkpt><trkpt lat="44.899791" lon="9.7712392"><ele>129.83333333333334</ele><time>2026-04-19T09:30:36.089Z</time></trkpt><trkpt lat="44.8998503" lon="9.7713143"><ele>129.0</ele><time>2026-04-19T09:30:39.091Z</time></trkpt><trkpt lat="44.8999245" lon="9.7713365"><ele>129.0</ele><time>2026-04-19T09:30:42.073Z</time></trkpt><trkpt lat="44.8999904" lon="9.7713368"><ele>129.0</ele><time>2026-04-19T09:30:45.074Z</time></trkpt><trkpt lat="44.9000738" lon="9.7713192"><ele>129.0</ele><time>2026-04-19T09:30:49.08Z</time></trkpt><trkpt lat="44.9001264" lon="9.7712646"><ele>129.0</ele><time>2026-04-19T09:30:51.08Z</time></trkpt><trkpt lat="44.9001763" lon="9.7711712"><ele>129.0</ele><time>2026-04-19T09:30:54.083Z</time></trkpt><trkpt lat="44.9002367" lon="9.7710884"><ele>129.0</ele><time>2026-04-19T09:30:57.075Z</time></trkpt><trkpt lat="44.9002707" lon="9.7710027"><ele>129.5</ele><time>2026-04-19T09:30:59.07Z</time></trkpt><trkpt lat="44.9003231" lon="9.7709437"><ele>130.0</ele><time>2026-04-19T09:31:01.075Z</time></trkpt><trkpt lat="44.9003917" lon="9.770842"><ele>130.5</ele><time>2026-04-19T09:31:04.091Z</time></trkpt><trkpt lat="44.9004431" lon="9.770758"><ele>131.0</ele><time>2026-04-19T09:31:06.08Z</time></trkpt><trkpt lat="44.9005025" lon="9.7707274"><ele>131.5</ele><time>2026-04-19T09:31:08.078Z</time></trkpt><trkpt lat="44.9005591" lon="9.7708041"><ele>132.0</ele><time>2026-04-19T09:31:10.067Z</time></trkpt><trkpt lat="44.9006241" lon="9.77077"><ele>132.0</ele><time>2026-04-19T09:31:13.082Z</time></trkpt><trkpt lat="44.9006505" lon="9.7706805"><ele>132.0</ele><time>2026-04-19T09:31:15.092Z</time></trkpt><trkpt lat="44.9007222" lon="9.7706879"><ele>132.0</ele><time>2026-04-19T09:31:17.086Z</time></trkpt><trkpt lat="44.9007919" lon="9.770688"><ele>132.0</ele><time>2026-04-19T09:31:20.081Z</time></trkpt><trkpt lat="44.9008576" lon="9.7706308"><ele>132.0</ele><time>2026-04-19T09:31:23.083Z</time></trkpt><trkpt lat="44.9009261" lon="9.7706797"><ele>132.0</ele><time>2026-04-19T09:31:25.08Z</time></trkpt><trkpt lat="44.9010023" lon="9.7707512"><ele>131.57142857142856</ele><time>2026-04-19T09:31:28.076Z</time></trkpt><trkpt lat="44.9010841" lon="9.7707583"><ele>131.14285714285714</ele><time>2026-04-19T09:31:31.085Z</time></trkpt><trkpt lat="44.9011424" lon="9.7707974"><ele>130.71428571428572</ele><time>2026-04-19T09:31:33.071Z</time></trkpt><trkpt lat="44.9011958" lon="9.7708749"><ele>130.28571428571428</ele><time>2026-04-19T09:31:35.082Z</time></trkpt><trkpt lat="44.9012412" lon="9.7709585"><ele>129.85714285714286</ele><time>2026-04-19T09:31:37.082Z</time></trkpt><trkpt lat="44.9012598" lon="9.7710465"><ele>129.42857142857142</ele><time>2026-04-19T09:31:39.079Z</time></trkpt><trkpt lat="44.9012767" lon="9.7711362"><ele>129.0</ele><time>2026-04-19T09:31:41.09Z</time></trkpt><trkpt lat="44.9013493" lon="9.771199"><ele>129.0</ele><time>2026-04-19T09:31:44.086Z</time></trkpt><trkpt lat="44.9013562" lon="9.7712877"><ele>129.0</ele><time>2026-04-19T09:31:47.083Z</time></trkpt><trkpt lat="44.9012997" lon="9.7713625"><ele>129.0</ele><time>2026-04-19T09:31:50.08Z</time></trkpt><trkpt lat="44.9012531" lon="9.7714687"><ele>129.0</ele><time>2026-04-19T09:31:53.076Z</time></trkpt><trkpt lat="44.9012013" lon="9.7715484"><ele>129.0</ele><time>2026-04-19T09:31:56.074Z</time></trkpt><trkpt lat="44.9011421" lon="9.7716407"><ele>129.0</ele><time>2026-04-19T09:32:00.079Z</time></trkpt><trkpt lat="44.9010996" lon="9.7717381"><ele>128.99999999999997</ele><time>2026-04-19T09:32:04.073Z</time></trkpt><trkpt lat="44.9010903" lon="9.771851"><ele>129.0</ele><time>2026-04-19T09:32:08.085Z</time></trkpt><trkpt lat="44.9010388" lon="9.7719242"><ele>129.0</ele><time>2026-04-19T09:32:11.083Z</time></trkpt><trkpt lat="44.9010049" lon="9.7720079"><ele>129.0</ele><time>2026-04-19T09:32:14.068Z</time></trkpt><trkpt lat="44.9009387" lon="9.7720885"><ele>129.0</ele><time>2026-04-19T09:32:17.085Z</time></trkpt><trkpt lat="44.9008912" lon="9.7721499"><ele>128.99999999999997</ele><time>2026-04-19T09:32:19.083Z</time></trkpt><trkpt lat="44.9008705" lon="9.7722397"><ele>129.0</ele><time>2026-04-19T09:32:21.079Z</time></trkpt><trkpt lat="44.9008144" lon="9.7723312"><ele>129.0</ele><time>2026-04-19T09:32:24.08Z</time></trkpt><trkpt lat="44.9007366" lon="9.7723826"><ele>129.0</ele><time>2026-04-19T09:32:27.084Z</time></trkpt><trkpt lat="44.9006514" lon="9.7724363"><ele>129.0</ele><time>2026-04-19T09:32:30.081Z</time></trkpt><trkpt lat="44.9006111" lon="9.7725223"><ele>129.0</ele><time>2026-04-19T09:32:33.087Z</time></trkpt><trkpt lat="44.9005891" lon="9.7726405"><ele>129.0</ele><time>2026-04-19T09:32:36.076Z</time></trkpt><trkpt lat="44.9005756" lon="9.7727279"><ele>129.0</ele><time>2026-04-19T09:32:38.077Z</time></trkpt><trkpt lat="44.9005587" lon="9.772861"><ele>128.83333333333334</ele><time>2026-04-19T09:32:41.08Z</time></trkpt><trkpt lat="44.9005488" lon="9.7729544"><ele>128.66666666666666</ele><time>2026-04-19T09:32:43.079Z</time></trkpt><trkpt lat="44.9005404" lon="9.7730761"><ele>128.5</ele><time>2026-04-19T09:32:46.079Z</time></trkpt><trkpt lat="44.9006029" lon="9.77315"><ele>128.33333333333331</ele><time>2026-04-19T09:32:49.083Z</time></trkpt><trkpt lat="44.9006612" lon="9.7732393"><ele>128.16666666666666</ele><time>2026-04-19T09:32:52.076Z</time></trkpt><trkpt lat="44.9006831" lon="9.7733449"><ele>128.0</ele><time>2026-04-19T09:32:55.076Z</time></trkpt><trkpt lat="44.9007351" lon="9.7734442"><ele>127.99999999999999</ele><time>2026-04-19T09:32:58.086Z</time></trkpt><trkpt lat="44.9008271" lon="9.7734569"><ele>128.0</ele><time>2026-04-19T09:33:01.089Z</time></trkpt><trkpt lat="44.9008911" lon="9.7734096"><ele>128.0</ele><time>2026-04-19T09:33:03.088Z</time></trkpt><trkpt lat="44.9009606" lon="9.7733912"><ele>128.0</ele><time>2026-04-19T09:33:05.077Z</time></trkpt><trkpt lat="44.9010458" lon="9.7733517"><ele>127.99999999999999</ele><time>2026-04-19T09:33:08.089Z</time></trkpt><trkpt lat="44.9010909" lon="9.7734161"><ele>128.0</ele><time>2026-04-19T09:33:10.086Z</time></trkpt><trkpt lat="44.9010815" lon="9.7735094"><ele>128.0</ele><time>2026-04-19T09:33:13.085Z</time></trkpt><trkpt lat="44.9010523" lon="9.7736041"><ele>127.99999999999999</ele><time>2026-04-19T09:33:16.082Z</time></trkpt><trkpt lat="44.9010502" lon="9.773693"><ele>128.0</ele><time>2026-04-19T09:33:18.077Z</time></trkpt><trkpt lat="44.9011027" lon="9.7737677"><ele>128.0</ele><time>2026-04-19T09:33:21.088Z</time></trkpt><trkpt lat="44.9011518" lon="9.773683"><ele>127.99999999999999</ele><time>2026-04-19T09:33:25.074Z</time></trkpt><trkpt lat="44.9012369" lon="9.7736785"><ele>128.0</ele><time>2026-04-19T09:33:28.082Z</time></trkpt><trkpt lat="44.901305" lon="9.7737128"><ele>128.0</ele><time>2026-04-19T09:33:31.077Z</time></trkpt><trkpt lat="44.9013789" lon="9.7736863"><ele>127.99999999999999</ele><time>2026-04-19T09:33:34.089Z</time></trkpt><trkpt lat="44.9014467" lon="9.7736588"><ele>128.0</ele><time>2026-04-19T09:33:36.077Z</time></trkpt><trkpt lat="44.9015183" lon="9.7736682"><ele>128.0</ele><time>2026-04-19T09:33:38.084Z</time></trkpt><trkpt lat="44.9015936" lon="9.7736583"><ele>128.0</ele><time>2026-04-19T09:33:41.082Z</time></trkpt><trkpt lat="44.9016396" lon="9.7735972"><ele>127.99999999999999</ele><time>2026-04-19T09:33:43.086Z</time></trkpt><trkpt lat="44.9016466" lon="9.7735005"><ele>128.0</ele><time>2026-04-19T09:33:45.082Z</time></trkpt><trkpt lat="44.9017266" lon="9.7734133"><ele>127.71428571428571</ele><time>2026-04-19T09:33:48.081Z</time></trkpt><trkpt lat="44.9017672" lon="9.7733034"><ele>127.42857142857142</ele><time>2026-04-19T09:33:50.092Z</time></trkpt><trkpt lat="44.9018189" lon="9.773233"><ele>127.14285714285714</ele><time>2026-04-19T09:33:52.088Z</time></trkpt><trkpt lat="44.9018858" lon="9.7732092"><ele>126.85714285714286</ele><time>2026-04-19T09:33:54.091Z</time></trkpt><trkpt lat="44.9019367" lon="9.77314"><ele>126.57142857142857</ele><time>2026-04-19T09:33:56.062Z</time></trkpt><trkpt lat="44.9019884" lon="9.7730622"><ele>126.28571428571428</ele><time>2026-04-19T09:33:58.079Z</time></trkpt><trkpt lat="44.9020392" lon="9.7729917"><ele>126.0</ele><time>2026-04-19T09:34:00.073Z</time></trkpt><trkpt lat="44.9021244" lon="9.7729453"><ele>126.0</ele><time>2026-04-19T09:34:03.09Z</time></trkpt><trkpt lat="44.9021901" lon="9.7728877"><ele>126.0</ele><time>2026-04-19T09:34:05.082Z</time></trkpt><trkpt lat="44.9022625" lon="9.7728652"><ele>126.0</ele><time>2026-04-19T09:34:07.069Z</time></trkpt><trkpt lat="44.902323" lon="9.7728936"><ele>126.0</ele><time>2026-04-19T09:34:09.084Z</time></trkpt><trkpt lat="44.9024126" lon="9.7728585"><ele>126.0</ele><time>2026-04-19T09:34:12.072Z</time></trkpt><trkpt lat="44.9024784" lon="9.7727824"><ele>126.0</ele><time>2026-04-19T09:34:14.087Z</time></trkpt><trkpt lat="44.9025479" lon="9.7727482"><ele>125.83333333333333</ele><time>2026-04-19T09:34:16.076Z</time></trkpt><trkpt lat="44.9026438" lon="9.7727676"><ele>125.66666666666666</ele><time>2026-04-19T09:34:19.085Z</time></trkpt><trkpt lat="44.9027101" lon="9.7727611"><ele>125.5</ele><time>2026-04-19T09:34:21.082Z</time></trkpt><trkpt lat="44.9027781" lon="9.7727238"><ele>125.33333333333333</ele><time>2026-04-19T09:34:23.088Z</time></trkpt><trkpt lat="44.9028591" lon="9.7726972"><ele>125.16666666666666</ele><time>2026-04-19T09:34:25.073Z</time></trkpt><trkpt lat="44.9029291" lon="9.772674"><ele>125.0</ele><time>2026-04-19T09:34:27.094Z</time></trkpt><trkpt lat="44.9029998" lon="9.7726611"><ele>124.99999999999999</ele><time>2026-04-19T09:34:29.084Z</time></trkpt><trkpt lat="44.9030855" lon="9.7726384"><ele>125.0</ele><time>2026-04-19T09:34:31.084Z</time></trkpt><trkpt lat="44.9031745" lon="9.7726332"><ele>125.0</ele><time>2026-04-19T09:34:33.081Z</time></trkpt><trkpt lat="44.9032716" lon="9.7726399"><ele>125.0</ele><time>2026-04-19T09:34:35.082Z</time></trkpt><trkpt lat="44.9033461" lon="9.7726925"><ele>124.99999999999999</ele><time>2026-04-19T09:34:37.086Z</time></trkpt><trkpt lat="44.9034191" lon="9.772766"><ele>125.0</ele><time>2026-04-19T09:34:39.081Z</time></trkpt><trkpt lat="44.9034717" lon="9.7728491"><ele>124.99999999999999</ele><time>2026-04-19T09:34:41.079Z</time></trkpt><trkpt lat="44.9035333" lon="9.7729201"><ele>125.0</ele><time>2026-04-19T09:34:43.076Z</time></trkpt><trkpt lat="44.9035859" lon="9.772988"><ele>125.0</ele><time>2026-04-19T09:34:45.081Z</time></trkpt><trkpt lat="44.9036686" lon="9.7730016"><ele>125.0</ele><time>2026-04-19T09:34:48.084Z</time></trkpt><trkpt lat="44.9037491" lon="9.7730042"><ele>124.99999999999999</ele><time>2026-04-19T09:34:52.084Z</time></trkpt><trkpt lat="44.9038144" lon="9.7729752"><ele>125.0</ele><time>2026-04-19T09:34:54.082Z</time></trkpt><trkpt lat="44.9038827" lon="9.7729554"><ele>124.99999999999999</ele><time>2026-04-19T09:34:56.072Z</time></trkpt><trkpt lat="44.903939" lon="9.7730113"><ele>125.0</ele><time>2026-04-19T09:34:58.075Z</time></trkpt><trkpt lat="44.9040167" lon="9.7730269"><ele>125.0</ele><time>2026-04-19T09:35:01.083Z</time></trkpt><trkpt lat="44.9041038" lon="9.7729873"><ele>125.0</ele><time>2026-04-19T09:35:04.097Z</time></trkpt><trkpt lat="44.9041928" lon="9.7730276"><ele>124.99999999999999</ele><time>2026-04-19T09:35:07.076Z</time></trkpt><trkpt lat="44.9042544" lon="9.773085"><ele>125.0</ele><time>2026-04-19T09:35:09.085Z</time></trkpt><trkpt lat="44.9043067" lon="9.7731557"><ele>124.8</ele><time>2026-04-19T09:35:11.086Z</time></trkpt><trkpt lat="44.9043703" lon="9.7732025"><ele>124.6</ele><time>2026-04-19T09:35:13.06Z</time></trkpt><trkpt lat="44.9044768" lon="9.7732551"><ele>124.4</ele><time>2026-04-19T09:35:15.075Z</time></trkpt><trkpt lat="44.9045663" lon="9.7732749"><ele>124.2</ele><time>2026-04-19T09:35:17.07Z</time></trkpt><trkpt lat="44.9046677" lon="9.7732844"><ele>124.0</ele><time>2026-04-19T09:35:19.085Z</time></trkpt><trkpt lat="44.9047567" lon="9.7733236"><ele>124.0</ele><time>2026-04-19T09:35:21.078Z</time></trkpt><trkpt lat="44.9048515" lon="9.773355"><ele>124.0</ele><time>2026-04-19T09:35:23.087Z</time></trkpt><trkpt lat="44.9049478" lon="9.7733762"><ele>124.0</ele><time>2026-04-19T09:35:25.075Z</time></trkpt><trkpt lat="44.9050358" lon="9.77341"><ele>124.0</ele><time>2026-04-19T09:35:27.074Z</time></trkpt><trkpt lat="44.9051255" lon="9.7734394"><ele>124.0</ele><time>2026-04-19T09:35:29.076Z</time></trkpt><trkpt lat="44.9052279" lon="9.7734625"><ele>123.6</ele><time>2026-04-19T09:35:31.088Z</time></trkpt><trkpt lat="44.9053356" lon="9.7734781"><ele>123.2</ele><time>2026-04-19T09:35:33.085Z</time></trkpt><trkpt lat="44.9054487" lon="9.773506"><ele>122.79999999999998</ele><time>2026-04-19T09:35:35.086Z</time></trkpt><trkpt lat="44.9055546" lon="9.7735391"><ele>122.39999999999999</ele><time>2026-04-19T09:35:37.086Z</time></trkpt><trkpt lat="44.9056551" lon="9.7735739"><ele>122.0</ele><time>2026-04-19T09:35:39.076Z</time></trkpt><trkpt lat="44.9057581" lon="9.7735956"><ele>121.49999999999999</ele><time>2026-04-19T09:35:41.075Z</time></trkpt><trkpt lat="44.9058522" lon="9.7736252"><ele>121.0</ele><time>2026-04-19T09:35:43.07Z</time></trkpt><trkpt lat="44.9059416" lon="9.7736545"><ele>120.5</ele><time>2026-04-19T09:35:45.089Z</time></trkpt><trkpt lat="44.9060317" lon="9.7736604"><ele>120.0</ele><time>2026-04-19T09:35:47.085Z</time></trkpt><trkpt lat="44.9060963" lon="9.7736485"><ele>119.49999999999999</ele><time>2026-04-19T09:35:49.068Z</time></trkpt><trkpt lat="44.9061646" lon="9.7736609"><ele>119.0</ele><time>2026-04-19T09:35:51.074Z</time></trkpt><trkpt lat="44.9062473" lon="9.7737011"><ele>118.6</ele><time>2026-04-19T09:35:53.078Z</time></trkpt><trkpt lat="44.9063492" lon="9.7737265"><ele>118.2</ele><time>2026-04-19T09:35:55.095Z</time></trkpt><trkpt lat="44.9064355" lon="9.7737285"><ele>117.79999999999998</ele><time>2026-04-19T09:35:57.091Z</time></trkpt><trkpt lat="44.906529" lon="9.7737661"><ele>117.39999999999999</ele><time>2026-04-19T09:35:59.08Z</time></trkpt><trkpt lat="44.9066197" lon="9.7738029"><ele>117.0</ele><time>2026-04-19T09:36:01.092Z</time></trkpt><trkpt lat="44.9067147" lon="9.7738301"><ele>117.5</ele><time>2026-04-19T09:36:03.081Z</time></trkpt><trkpt lat="44.9068006" lon="9.7738544"><ele>118.0</ele><time>2026-04-19T09:36:05.077Z</time></trkpt><trkpt lat="44.9068819" lon="9.7738764"><ele>118.5</ele><time>2026-04-19T09:36:07.076Z</time></trkpt><trkpt lat="44.9069558" lon="9.7738572"><ele>119.0</ele><time>2026-04-19T09:36:09.085Z</time></trkpt><trkpt lat="44.907005" lon="9.7737562"><ele>119.5</ele><time>2026-04-19T09:36:12.088Z</time></trkpt><trkpt lat="44.906968" lon="9.7736598"><ele>120.0</ele><time>2026-04-19T09:36:14.099Z</time></trkpt><trkpt lat="44.9069352" lon="9.7735724"><ele>120.0</ele><time>2026-04-19T09:36:16.077Z</time></trkpt><trkpt lat="44.9069002" lon="9.7734781"><ele>120.0</ele><time>2026-04-19T09:36:18.081Z</time></trkpt><trkpt lat="44.9068688" lon="9.7733646"><ele>120.0</ele><time>2026-04-19T09:36:20.075Z</time></trkpt><trkpt lat="44.9068354" lon="9.7732553"><ele>120.0</ele><time>2026-04-19T09:36:22.081Z</time></trkpt><trkpt lat="44.9068051" lon="9.7731488"><ele>120.0</ele><time>2026-04-19T09:36:24.083Z</time></trkpt><trkpt lat="44.9067888" lon="9.7730264"><ele>120.0</ele><time>2026-04-19T09:36:26.075Z</time></trkpt><trkpt lat="44.9067766" lon="9.7729162"><ele>120.0</ele><time>2026-04-19T09:36:28.08Z</time></trkpt><trkpt lat="44.9067502" lon="9.7728036"><ele>120.0</ele><time>2026-04-19T09:36:30.086Z</time></trkpt><trkpt lat="44.9067227" lon="9.7726833"><ele>120.0</ele><time>2026-04-19T09:36:32.084Z</time></trkpt><trkpt lat="44.906692" lon="9.7725565"><ele>120.0</ele><time>2026-04-19T09:36:34.074Z</time></trkpt><trkpt lat="44.9066593" lon="9.7724415"><ele>120.0</ele><time>2026-04-19T09:36:36.054Z</time></trkpt><trkpt lat="44.9066344" lon="9.772311"><ele>120.33333333333333</ele><time>2026-04-19T09:36:38.066Z</time></trkpt><trkpt lat="44.9066088" lon="9.7722006"><ele>120.66666666666666</ele><time>2026-04-19T09:36:40.067Z</time></trkpt><trkpt lat="44.9065824" lon="9.7720809"><ele>121.0</ele><time>2026-04-19T09:36:42.054Z</time></trkpt><trkpt lat="44.9065764" lon="9.7719795"><ele>121.33333333333333</ele><time>2026-04-19T09:36:44.062Z</time></trkpt><trkpt lat="44.9065747" lon="9.7718861"><ele>121.66666666666666</ele><time>2026-04-19T09:36:46.075Z</time></trkpt><trkpt lat="44.9065826" lon="9.7717817"><ele>122.0</ele><time>2026-04-19T09:36:48.069Z</time></trkpt><trkpt lat="44.9065839" lon="9.7716774"><ele>122.16666666666666</ele><time>2026-04-19T09:36:50.084Z</time></trkpt><trkpt lat="44.9065856" lon="9.7715568"><ele>122.33333333333333</ele><time>2026-04-19T09:36:52.08Z</time></trkpt><trkpt lat="44.9065981" lon="9.7714549"><ele>122.5</ele><time>2026-04-19T09:36:54.076Z</time></trkpt><trkpt lat="44.9066179" lon="9.7713457"><ele>122.66666666666666</ele><time>2026-04-19T09:36:56.072Z</time></trkpt><trkpt lat="44.9066443" lon="9.7712441"><ele>122.83333333333333</ele><time>2026-04-19T09:36:58.08Z</time></trkpt><trkpt lat="44.9066708" lon="9.7711455"><ele>123.0</ele><time>2026-04-19T09:37:00.058Z</time></trkpt><trkpt lat="44.9066872" lon="9.7710315"><ele>122.83333333333333</ele><time>2026-04-19T09:37:02.083Z</time></trkpt><trkpt lat="44.9067043" lon="9.7709181"><ele>122.66666666666666</ele><time>2026-04-19T09:37:04.082Z</time></trkpt><trkpt lat="44.9067282" lon="9.7708034"><ele>122.5</ele><time>2026-04-19T09:37:06.06Z</time></trkpt><trkpt lat="44.9067357" lon="9.7706813"><ele>122.33333333333333</ele><time>2026-04-19T09:37:08.088Z</time></trkpt><trkpt lat="44.9067591" lon="9.7705674"><ele>122.16666666666666</ele><time>2026-04-19T09:37:10.078Z</time></trkpt><trkpt lat="44.9067783" lon="9.7704541"><ele>122.0</ele><time>2026-04-19T09:37:12.067Z</time></trkpt><trkpt lat="44.9068104" lon="9.7703543"><ele>121.83333333333333</ele><time>2026-04-19T09:37:14.077Z</time></trkpt><trkpt lat="44.9068761" lon="9.7702861"><ele>121.66666666666666</ele><time>2026-04-19T09:37:16.059Z</time></trkpt><trkpt lat="44.9069562" lon="9.770278"><ele>121.5</ele><time>2026-04-19T09:37:18.08Z</time></trkpt><trkpt lat="44.9070395" lon="9.7703053"><ele>121.33333333333334</ele><time>2026-04-19T09:37:20.076Z</time></trkpt><trkpt lat="44.907122" lon="9.7703343"><ele>121.16666666666667</ele><time>2026-04-19T09:37:22.09Z</time></trkpt><trkpt lat="44.907207" lon="9.7703617"><ele>121.0</ele><time>2026-04-19T09:37:24.075Z</time></trkpt><trkpt lat="44.9072905" lon="9.7703907"><ele>121.0</ele><time>2026-04-19T09:37:26.084Z</time></trkpt><trkpt lat="44.9073817" lon="9.7704138"><ele>121.0</ele><time>2026-04-19T09:37:28.085Z</time></trkpt><trkpt lat="44.9074832" lon="9.7704448"><ele>121.0</ele><time>2026-04-19T09:37:30.073Z</time></trkpt><trkpt lat="44.9075917" lon="9.7704719"><ele>121.0</ele><time>2026-04-19T09:37:32.092Z</time></trkpt><trkpt lat="44.9076966" lon="9.7705002"><ele>121.0</ele><time>2026-04-19T09:37:34.074Z</time></trkpt><trkpt lat="44.9078065" lon="9.770538"><ele>121.25</ele><time>2026-04-19T09:37:36.072Z</time></trkpt><trkpt lat="44.9079145" lon="9.7705654"><ele>121.5</ele><time>2026-04-19T09:37:38.093Z</time></trkpt><trkpt lat="44.9080245" lon="9.7705912"><ele>121.75</ele><time>2026-04-19T09:37:40.089Z</time></trkpt><trkpt lat="44.9081446" lon="9.7706162"><ele>122.0</ele><time>2026-04-19T09:37:42.081Z</time></trkpt><trkpt lat="44.9082543" lon="9.7706467"><ele>122.0</ele><time>2026-04-19T09:37:44.093Z</time></trkpt><trkpt lat="44.9083724" lon="9.7706736"><ele>121.99999999999999</ele><time>2026-04-19T09:37:46.081Z</time></trkpt><trkpt lat="44.908495" lon="9.770702"><ele>121.99999999999999</ele><time>2026-04-19T09:37:48.085Z</time></trkpt><trkpt lat="44.9086131" lon="9.7707307"><ele>122.0</ele><time>2026-04-19T09:37:50.087Z</time></trkpt><trkpt lat="44.9086761" lon="9.7707452"><ele>122.0</ele><time>2026-04-19T09:37:51.083Z</time></trkpt><trkpt lat="44.9087394" lon="9.7707594"><ele>122.16666666666666</ele><time>2026-04-19T09:37:52.088Z</time></trkpt><trkpt lat="44.9088651" lon="9.7707906"><ele>122.33333333333333</ele><time>2026-04-19T09:37:54.085Z</time></trkpt><trkpt lat="44.9089879" lon="9.7708253"><ele>122.5</ele><time>2026-04-19T09:37:56.079Z</time></trkpt><trkpt lat="44.9090513" lon="9.7708408"><ele>122.66666666666666</ele><time>2026-04-19T09:37:57.104Z</time></trkpt><trkpt lat="44.9091162" lon="9.7708577"><ele>122.83333333333333</ele><time>2026-04-19T09:37:58.079Z</time></trkpt><trkpt lat="44.9091785" lon="9.7708794"><ele>123.0</ele><time>2026-04-19T09:37:59.074Z</time></trkpt><trkpt lat="44.9092426" lon="9.7708922"><ele>122.66666666666667</ele><time>2026-04-19T09:38:00.088Z</time></trkpt><trkpt lat="44.9093066" lon="9.7709073"><ele>122.33333333333334</ele><time>2026-04-19T09:38:01.084Z</time></trkpt><trkpt lat="44.90943" lon="9.7709401"><ele>122.0</ele><time>2026-04-19T09:38:03.081Z</time></trkpt><trkpt lat="44.9094969" lon="9.7709572"><ele>121.66666666666667</ele><time>2026-04-19T09:38:04.088Z</time></trkpt><trkpt lat="44.909564" lon="9.7709744"><ele>121.33333333333334</ele><time>2026-04-19T09:38:05.094Z</time></trkpt><trkpt lat="44.9096286" lon="9.7709938"><ele>121.0</ele><time>2026-04-19T09:38:06.085Z</time></trkpt><trkpt lat="44.9096953" lon="9.7710154"><ele>120.57142857142857</ele><time>2026-04-19T09:38:07.082Z</time></trkpt><trkpt lat="44.9097618" lon="9.7710299"><ele>120.14285714285714</ele><time>2026-04-19T09:38:08.08Z</time></trkpt><trkpt lat="44.9098313" lon="9.7710424"><ele>119.71428571428571</ele><time>2026-04-19T09:38:09.085Z</time></trkpt><trkpt lat="44.9098966" lon="9.7710605"><ele>119.28571428571428</ele><time>2026-04-19T09:38:10.085Z</time></trkpt><trkpt lat="44.9099638" lon="9.7710746"><ele>118.85714285714286</ele><time>2026-04-19T09:38:11.081Z</time></trkpt><trkpt lat="44.910032" lon="9.7710965"><ele>118.42857142857142</ele><time>2026-04-19T09:38:12.072Z</time></trkpt><trkpt lat="44.9101006" lon="9.7711118"><ele>118.0</ele><time>2026-04-19T09:38:13.089Z</time></trkpt><trkpt lat="44.9101696" lon="9.7711331"><ele>117.71428571428571</ele><time>2026-04-19T09:38:14.095Z</time></trkpt><trkpt lat="44.9102338" lon="9.7711454"><ele>117.42857142857144</ele><time>2026-04-19T09:38:15.089Z</time></trkpt><trkpt lat="44.9103029" lon="9.7711597"><ele>117.14285714285715</ele><time>2026-04-19T09:38:16.069Z</time></trkpt><trkpt lat="44.9103718" lon="9.7711754"><ele>116.85714285714286</ele><time>2026-04-19T09:38:17.083Z</time></trkpt><trkpt lat="44.9104397" lon="9.771195"><ele>116.57142857142858</ele><time>2026-04-19T09:38:18.084Z</time></trkpt><trkpt lat="44.9105088" lon="9.7712111"><ele>116.2857142857143</ele><time>2026-04-19T09:38:19.089Z</time></trkpt><trkpt lat="44.9105786" lon="9.7712317"><ele>116.00000000000001</ele><time>2026-04-19T09:38:20.085Z</time></trkpt><trkpt lat="44.9106469" lon="9.7712481"><ele>116.00000000000001</ele><time>2026-04-19T09:38:21.096Z</time></trkpt><trkpt lat="44.9107149" lon="9.7712664"><ele>116.0</ele><time>2026-04-19T09:38:22.089Z</time></trkpt><trkpt lat="44.9107855" lon="9.7712864"><ele>116.00000000000001</ele><time>2026-04-19T09:38:23.085Z</time></trkpt><trkpt lat="44.9108552" lon="9.7713008"><ele>116.00000000000001</ele><time>2026-04-19T09:38:24.086Z</time></trkpt><trkpt lat="44.9109258" lon="9.7713187"><ele>116.0</ele><time>2026-04-19T09:38:25.084Z</time></trkpt><trkpt lat="44.9109979" lon="9.7713387"><ele>116.00000000000001</ele><time>2026-04-19T09:38:26.078Z</time></trkpt><trkpt lat="44.9110678" lon="9.7713588"><ele>116.00000000000001</ele><time>2026-04-19T09:38:27.088Z</time></trkpt><trkpt lat="44.9111411" lon="9.7713736"><ele>115.57142857142858</ele><time>2026-04-19T09:38:28.08Z</time></trkpt><trkpt lat="44.9112133" lon="9.7713947"><ele>115.14285714285714</ele><time>2026-04-19T09:38:29.085Z</time></trkpt><trkpt lat="44.9112853" lon="9.7714175"><ele>114.71428571428572</ele><time>2026-04-19T09:38:30.085Z</time></trkpt><trkpt lat="44.9113562" lon="9.7714361"><ele>114.28571428571429</ele><time>2026-04-19T09:38:31.077Z</time></trkpt><trkpt lat="44.9114262" lon="9.7714563"><ele>113.85714285714286</ele><time>2026-04-19T09:38:32.075Z</time></trkpt><trkpt lat="44.9114978" lon="9.7714765"><ele>113.42857142857143</ele><time>2026-04-19T09:38:33.091Z</time></trkpt><trkpt lat="44.9115691" lon="9.7714893"><ele>113.0</ele><time>2026-04-19T09:38:34.079Z</time></trkpt><trkpt lat="44.9116382" lon="9.7715032"><ele>113.0</ele><time>2026-04-19T09:38:35.08Z</time></trkpt><trkpt lat="44.9117064" lon="9.7715187"><ele>113.0</ele><time>2026-04-19T09:38:36.074Z</time></trkpt><trkpt lat="44.9117763" lon="9.7715381"><ele>113.0</ele><time>2026-04-19T09:38:37.083Z</time></trkpt><trkpt lat="44.9118483" lon="9.7715568"><ele>113.0</ele><time>2026-04-19T09:38:38.089Z</time></trkpt><trkpt lat="44.9119214" lon="9.7715713"><ele>113.0</ele><time>2026-04-19T09:38:39.068Z</time></trkpt><trkpt lat="44.9119974" lon="9.7715889"><ele>113.0</ele><time>2026-04-19T09:38:40.078Z</time></trkpt><trkpt lat="44.9120672" lon="9.7716105"><ele>113.0</ele><time>2026-04-19T09:38:41.091Z</time></trkpt><trkpt lat="44.9121401" lon="9.7716319"><ele>112.71428571428572</ele><time>2026-04-19T09:38:42.086Z</time></trkpt><trkpt lat="44.9122137" lon="9.7716536"><ele>112.42857142857142</ele><time>2026-04-19T09:38:43.092Z</time></trkpt><trkpt lat="44.912289" lon="9.7716673"><ele>112.14285714285714</ele><time>2026-04-19T09:38:44.087Z</time></trkpt><trkpt lat="44.9123608" lon="9.7716909"><ele>111.85714285714286</ele><time>2026-04-19T09:38:45.063Z</time></trkpt><trkpt lat="44.9124331" lon="9.7717075"><ele>111.57142857142858</ele><time>2026-04-19T09:38:46.086Z</time></trkpt><trkpt lat="44.9125001" lon="9.7717256"><ele>111.28571428571428</ele><time>2026-04-19T09:38:47.088Z</time></trkpt><trkpt lat="44.9125734" lon="9.771749"><ele>111.0</ele><time>2026-04-19T09:38:48.087Z</time></trkpt><trkpt lat="44.9126418" lon="9.7717637"><ele>111.0</ele><time>2026-04-19T09:38:49.083Z</time></trkpt><trkpt lat="44.9127134" lon="9.7717801"><ele>111.0</ele><time>2026-04-19T09:38:50.084Z</time></trkpt><trkpt lat="44.9127868" lon="9.7717979"><ele>111.0</ele><time>2026-04-19T09:38:51.082Z</time></trkpt><trkpt lat="44.9128602" lon="9.7718127"><ele>111.0</ele><time>2026-04-19T09:38:52.086Z</time></trkpt><trkpt lat="44.9129357" lon="9.7718309"><ele>111.0</ele><time>2026-04-19T09:38:53.082Z</time></trkpt><trkpt lat="44.9130058" lon="9.7718484"><ele>111.0</ele><time>2026-04-19T09:38:54.084Z</time></trkpt><trkpt lat="44.913082" lon="9.7718677"><ele>111.0</ele><time>2026-04-19T09:38:55.09Z</time></trkpt><trkpt lat="44.913156" lon="9.7718838"><ele>110.85714285714285</ele><time>2026-04-19T09:38:56.087Z</time></trkpt><trkpt lat="44.9132281" lon="9.7718955"><ele>110.71428571428572</ele><time>2026-04-19T09:38:57.078Z</time></trkpt><trkpt lat="44.9132952" lon="9.7719141"><ele>110.57142857142857</ele><time>2026-04-19T09:38:58.084Z</time></trkpt><trkpt lat="44.9133648" lon="9.7719283"><ele>110.42857142857142</ele><time>2026-04-19T09:38:59.08Z</time></trkpt><trkpt lat="44.9134358" lon="9.7719469"><ele>110.28571428571428</ele><time>2026-04-19T09:39:00.09Z</time></trkpt><trkpt lat="44.9135067" lon="9.7719676"><ele>110.14285714285714</ele><time>2026-04-19T09:39:01.094Z</time></trkpt><trkpt lat="44.9135752" lon="9.7719879"><ele>110.0</ele><time>2026-04-19T09:39:02.079Z</time></trkpt><trkpt lat="44.9136444" lon="9.7720038"><ele>109.99999999999999</ele><time>2026-04-19T09:39:03.085Z</time></trkpt><trkpt lat="44.9137162" lon="9.7720191"><ele>110.0</ele><time>2026-04-19T09:39:04.083Z</time></trkpt><trkpt lat="44.9137879" lon="9.7720394"><ele>110.0</ele><time>2026-04-19T09:39:05.083Z</time></trkpt><trkpt lat="44.9138621" lon="9.7720588"><ele>110.0</ele><time>2026-04-19T09:39:06.096Z</time></trkpt><trkpt lat="44.9139375" lon="9.7720762"><ele>110.0</ele><time>2026-04-19T09:39:07.087Z</time></trkpt><trkpt lat="44.9140085" lon="9.7720929"><ele>109.99999999999999</ele><time>2026-04-19T09:39:08.078Z</time></trkpt><trkpt lat="44.9140846" lon="9.7721071"><ele>110.0</ele><time>2026-04-19T09:39:09.088Z</time></trkpt><trkpt lat="44.9141571" lon="9.7721283"><ele>109.99999999999999</ele><time>2026-04-19T09:39:10.085Z</time></trkpt><trkpt lat="44.9142286" lon="9.7721471"><ele>110.0</ele><time>2026-04-19T09:39:11.091Z</time></trkpt><trkpt lat="44.9142984" lon="9.772168"><ele>110.0</ele><time>2026-04-19T09:39:12.086Z</time></trkpt><trkpt lat="44.9143677" lon="9.7721877"><ele>110.0</ele><time>2026-04-19T09:39:13.078Z</time></trkpt><trkpt lat="44.9144356" lon="9.7722026"><ele>110.0</ele><time>2026-04-19T09:39:14.091Z</time></trkpt><trkpt lat="44.9145053" lon="9.7722195"><ele>109.99999999999999</ele><time>2026-04-19T09:39:15.089Z</time></trkpt><trkpt lat="44.9145771" lon="9.7722375"><ele>110.0</ele><time>2026-04-19T09:39:16.083Z</time></trkpt><trkpt lat="44.9146517" lon="9.7722562"><ele>110.14285714285714</ele><time>2026-04-19T09:39:17.09Z</time></trkpt><trkpt lat="44.9147218" lon="9.7722765"><ele>110.28571428571428</ele><time>2026-04-19T09:39:18.08Z</time></trkpt><trkpt lat="44.9147984" lon="9.7722928"><ele>110.42857142857142</ele><time>2026-04-19T09:39:19.084Z</time></trkpt><trkpt lat="44.9148692" lon="9.7723146"><ele>110.57142857142857</ele><time>2026-04-19T09:39:20.082Z</time></trkpt><trkpt lat="44.9149397" lon="9.7723302"><ele>110.71428571428572</ele><time>2026-04-19T09:39:21.086Z</time></trkpt><trkpt lat="44.9150099" lon="9.7723478"><ele>110.85714285714285</ele><time>2026-04-19T09:39:22.082Z</time></trkpt><trkpt lat="44.9150809" lon="9.7723674"><ele>111.0</ele><time>2026-04-19T09:39:23.068Z</time></trkpt><trkpt lat="44.9151497" lon="9.7723797"><ele>111.0</ele><time>2026-04-19T09:39:24.08Z</time></trkpt><trkpt lat="44.9152166" lon="9.772399"><ele>111.0</ele><time>2026-04-19T09:39:25.093Z</time></trkpt><trkpt lat="44.9152902" lon="9.7724176"><ele>111.0</ele><time>2026-04-19T09:39:26.077Z</time></trkpt><trkpt lat="44.9153653" lon="9.7724389"><ele>111.0</ele><time>2026-04-19T09:39:27.07Z</time></trkpt><trkpt lat="44.9154364" lon="9.7724618"><ele>111.0</ele><time>2026-04-19T09:39:28.077Z</time></trkpt><trkpt lat="44.9155044" lon="9.7724799"><ele>111.0</ele><time>2026-04-19T09:39:29.078Z</time></trkpt><trkpt lat="44.915573" lon="9.7724987"><ele>111.0</ele><time>2026-04-19T09:39:30.084Z</time></trkpt><trkpt lat="44.9156416" lon="9.772513"><ele>111.0</ele><time>2026-04-19T09:39:31.087Z</time></trkpt><trkpt lat="44.9157122" lon="9.7725272"><ele>111.0</ele><time>2026-04-19T09:39:32.077Z</time></trkpt><trkpt lat="44.9157827" lon="9.7725453"><ele>111.0</ele><time>2026-04-19T09:39:33.084Z</time></trkpt><trkpt lat="44.9158533" lon="9.7725614"><ele>111.0</ele><time>2026-04-19T09:39:34.092Z</time></trkpt><trkpt lat="44.9159233" lon="9.7725818"><ele>111.0</ele><time>2026-04-19T09:39:35.09Z</time></trkpt><trkpt lat="44.9159915" lon="9.7725986"><ele>111.0</ele><time>2026-04-19T09:39:36.091Z</time></trkpt><trkpt lat="44.9160623" lon="9.7726119"><ele>111.0</ele><time>2026-04-19T09:39:37.071Z</time></trkpt><trkpt lat="44.9161319" lon="9.7726273"><ele>110.85714285714285</ele><time>2026-04-19T09:39:38.093Z</time></trkpt><trkpt lat="44.9161995" lon="9.7726447"><ele>110.71428571428572</ele><time>2026-04-19T09:39:39.084Z</time></trkpt><trkpt lat="44.9162681" lon="9.7726635"><ele>110.57142857142857</ele><time>2026-04-19T09:39:40.094Z</time></trkpt><trkpt lat="44.9163394" lon="9.7726866"><ele>110.42857142857142</ele><time>2026-04-19T09:39:41.091Z</time></trkpt><trkpt lat="44.916411" lon="9.7727029"><ele>110.28571428571428</ele><time>2026-04-19T09:39:42.085Z</time></trkpt><trkpt lat="44.9164798" lon="9.772718"><ele>110.14285714285714</ele><time>2026-04-19T09:39:43.066Z</time></trkpt><trkpt lat="44.916548" lon="9.7727342"><ele>110.0</ele><time>2026-04-19T09:39:44.083Z</time></trkpt><trkpt lat="44.9166201" lon="9.77275"><ele>109.99999999999999</ele><time>2026-04-19T09:39:45.086Z</time></trkpt><trkpt lat="44.9166908" lon="9.7727711"><ele>110.0</ele><time>2026-04-19T09:39:46.081Z</time></trkpt><trkpt lat="44.916761" lon="9.7727883"><ele>110.0</ele><time>2026-04-19T09:39:47.081Z</time></trkpt><trkpt lat="44.9168337" lon="9.7728042"><ele>110.0</ele><time>2026-04-19T09:39:48.093Z</time></trkpt><trkpt lat="44.9169045" lon="9.772824"><ele>110.0</ele><time>2026-04-19T09:39:49.084Z</time></trkpt><trkpt lat="44.9169726" lon="9.7728425"><ele>109.99999999999999</ele><time>2026-04-19T09:39:50.093Z</time></trkpt><trkpt lat="44.9170437" lon="9.7728613"><ele>110.0</ele><time>2026-04-19T09:39:51.089Z</time></trkpt><trkpt lat="44.9171106" lon="9.7728797"><ele>109.71428571428571</ele><time>2026-04-19T09:39:52.082Z</time></trkpt><trkpt lat="44.9171799" lon="9.7728938"><ele>109.42857142857143</ele><time>2026-04-19T09:39:53.081Z</time></trkpt><trkpt lat="44.9172523" lon="9.7729108"><ele>109.14285714285714</ele><time>2026-04-19T09:39:54.08Z</time></trkpt><trkpt lat="44.9173193" lon="9.772928"><ele>108.85714285714286</ele><time>2026-04-19T09:39:55.082Z</time></trkpt><trkpt lat="44.9173897" lon="9.7729448"><ele>108.57142857142857</ele><time>2026-04-19T09:39:56.09Z</time></trkpt><trkpt lat="44.9174608" lon="9.7729647"><ele>108.28571428571428</ele><time>2026-04-19T09:39:57.084Z</time></trkpt><trkpt lat="44.9175279" lon="9.7729834"><ele>108.0</ele><time>2026-04-19T09:39:58.086Z</time></trkpt><trkpt lat="44.9175983" lon="9.7730036"><ele>108.0</ele><time>2026-04-19T09:39:59.09Z</time></trkpt><trkpt lat="44.9176646" lon="9.7730253"><ele>108.0</ele><time>2026-04-19T09:40:00.09Z</time></trkpt><trkpt lat="44.917732" lon="9.7730419"><ele>108.0</ele><time>2026-04-19T09:40:01.086Z</time></trkpt><trkpt lat="44.9177985" lon="9.7730579"><ele>108.0</ele><time>2026-04-19T09:40:02.09Z</time></trkpt><trkpt lat="44.9178651" lon="9.7730769"><ele>108.0</ele><time>2026-04-19T09:40:03.083Z</time></trkpt><trkpt lat="44.9179309" lon="9.7730934"><ele>108.0</ele><time>2026-04-19T09:40:04.078Z</time></trkpt><trkpt lat="44.9179944" lon="9.7731051"><ele>108.0</ele><time>2026-04-19T09:40:05.077Z</time></trkpt><trkpt lat="44.9181183" lon="9.7731414"><ele>108.0</ele><time>2026-04-19T09:40:07.072Z</time></trkpt><trkpt lat="44.9182314" lon="9.7731821"><ele>108.00000000000001</ele><time>2026-04-19T09:40:09.08Z</time></trkpt><trkpt lat="44.9183406" lon="9.7732381"><ele>108.00000000000001</ele><time>2026-04-19T09:40:11.07Z</time></trkpt><trkpt lat="44.9184311" lon="9.7732825"><ele>108.0</ele><time>2026-04-19T09:40:13.086Z</time></trkpt><trkpt lat="44.9185184" lon="9.7732971"><ele>108.0</ele><time>2026-04-19T09:40:16.08Z</time></trkpt><trkpt lat="44.9185786" lon="9.7732348"><ele>107.4</ele><time>2026-04-19T09:40:21.084Z</time></trkpt><trkpt lat="44.9186164" lon="9.7731257"><ele>106.80000000000001</ele><time>2026-04-19T09:40:24.071Z</time></trkpt><trkpt lat="44.9186375" lon="9.7730111"><ele>106.2</ele><time>2026-04-19T09:40:27.07Z</time></trkpt><trkpt lat="44.9186686" lon="9.7728937"><ele>105.6</ele><time>2026-04-19T09:40:30.077Z</time></trkpt><trkpt lat="44.9187073" lon="9.7727904"><ele>105.0</ele><time>2026-04-19T09:40:32.085Z</time></trkpt><trkpt lat="44.9187634" lon="9.7726549"><ele>105.0</ele><time>2026-04-19T09:40:34.086Z</time></trkpt><trkpt lat="44.91879" lon="9.7725031"><ele>105.0</ele><time>2026-04-19T09:40:36.067Z</time></trkpt><trkpt lat="44.9188091" lon="9.7723428"><ele>105.0</ele><time>2026-04-19T09:40:38.076Z</time></trkpt><trkpt lat="44.9188268" lon="9.7721808"><ele>105.0</ele><time>2026-04-19T09:40:40.072Z</time></trkpt><trkpt lat="44.9188539" lon="9.7720271"><ele>105.25</ele><time>2026-04-19T09:40:42.082Z</time></trkpt><trkpt lat="44.9188757" lon="9.7718489"><ele>105.5</ele><time>2026-04-19T09:40:44.08Z</time></trkpt><trkpt lat="44.91889" lon="9.7716797"><ele>105.75</ele><time>2026-04-19T09:40:46.077Z</time></trkpt><trkpt lat="44.9189153" lon="9.7715189"><ele>106.0</ele><time>2026-04-19T09:40:48.08Z</time></trkpt><trkpt lat="44.9189426" lon="9.7713568"><ele>106.0</ele><time>2026-04-19T09:40:50.082Z</time></trkpt><trkpt lat="44.918955" lon="9.7712687"><ele>106.0</ele><time>2026-04-19T09:40:51.079Z</time></trkpt><trkpt lat="44.9189713" lon="9.7711825"><ele>106.0</ele><time>2026-04-19T09:40:52.089Z</time></trkpt><trkpt lat="44.9190021" lon="9.7710147"><ele>106.0</ele><time>2026-04-19T09:40:54.09Z</time></trkpt><trkpt lat="44.9190497" lon="9.7708865"><ele>106.0</ele><time>2026-04-19T09:40:56.094Z</time></trkpt><trkpt lat="44.9191641" lon="9.7709379"><ele>106.8</ele><time>2026-04-19T09:40:58.077Z</time></trkpt><trkpt lat="44.9192718" lon="9.7709815"><ele>107.6</ele><time>2026-04-19T09:41:00.088Z</time></trkpt><trkpt lat="44.9193793" lon="9.7710072"><ele>108.4</ele><time>2026-04-19T09:41:02.081Z</time></trkpt><trkpt lat="44.9194879" lon="9.7710382"><ele>109.2</ele><time>2026-04-19T09:41:04.085Z</time></trkpt><trkpt lat="44.919589" lon="9.7710698"><ele>110.0</ele><time>2026-04-19T09:41:06.088Z</time></trkpt><trkpt lat="44.9196939" lon="9.7710978"><ele>110.0</ele><time>2026-04-19T09:41:08.084Z</time></trkpt><trkpt lat="44.9197904" lon="9.7711287"><ele>110.0</ele><time>2026-04-19T09:41:10.084Z</time></trkpt><trkpt lat="44.9198902" lon="9.771167"><ele>110.0</ele><time>2026-04-19T09:41:12.078Z</time></trkpt><trkpt lat="44.9199949" lon="9.7711934"><ele>110.0</ele><time>2026-04-19T09:41:14.082Z</time></trkpt><trkpt lat="44.9201124" lon="9.7712102"><ele>110.0</ele><time>2026-04-19T09:41:16.072Z</time></trkpt><trkpt lat="44.9202273" lon="9.7712445"><ele>109.8</ele><time>2026-04-19T09:41:18.096Z</time></trkpt><trkpt lat="44.9202928" lon="9.7712596"><ele>109.6</ele><time>2026-04-19T09:41:19.094Z</time></trkpt><trkpt lat="44.920356" lon="9.7712783"><ele>109.4</ele><time>2026-04-19T09:41:20.085Z</time></trkpt><trkpt lat="44.9204671" lon="9.7713113"><ele>109.2</ele><time>2026-04-19T09:41:22.1Z</time></trkpt><trkpt lat="44.9205803" lon="9.7713429"><ele>109.0</ele><time>2026-04-19T09:41:24.101Z</time></trkpt><trkpt lat="44.9206974" lon="9.7713927"><ele>109.00000000000001</ele><time>2026-04-19T09:41:26.084Z</time></trkpt><trkpt lat="44.9207589" lon="9.7714134"><ele>109.0</ele><time>2026-04-19T09:41:27.083Z</time></trkpt><trkpt lat="44.920822" lon="9.7714319"><ele>109.0</ele><time>2026-04-19T09:41:28.08Z</time></trkpt><trkpt lat="44.920886" lon="9.7714475"><ele>109.0</ele><time>2026-04-19T09:41:29.083Z</time></trkpt><trkpt lat="44.9209566" lon="9.7714793"><ele>109.00000000000001</ele><time>2026-04-19T09:41:30.09Z</time></trkpt><trkpt lat="44.921073" lon="9.7715147"><ele>109.0</ele><time>2026-04-19T09:41:32.077Z</time></trkpt><trkpt lat="44.9211945" lon="9.7715404"><ele>108.4</ele><time>2026-04-19T09:41:34.084Z</time></trkpt><trkpt lat="44.9213151" lon="9.7715737"><ele>107.80000000000001</ele><time>2026-04-19T09:41:36.071Z</time></trkpt><trkpt lat="44.921378" lon="9.7715891"><ele>107.19999999999999</ele><time>2026-04-19T09:41:37.089Z</time></trkpt><trkpt lat="44.9215073" lon="9.7716189"><ele>106.6</ele><time>2026-04-19T09:41:39.078Z</time></trkpt><trkpt lat="44.921574" lon="9.7716334"><ele>106.0</ele><time>2026-04-19T09:41:40.083Z</time></trkpt><trkpt lat="44.921637" lon="9.7716547"><ele>106.00000000000001</ele><time>2026-04-19T09:41:41.083Z</time></trkpt><trkpt lat="44.9216992" lon="9.771677"><ele>106.0</ele><time>2026-04-19T09:41:42.077Z</time></trkpt><trkpt lat="44.9217633" lon="9.7716961"><ele>106.0</ele><time>2026-04-19T09:41:43.089Z</time></trkpt><trkpt lat="44.9218289" lon="9.7717099"><ele>106.0</ele><time>2026-04-19T09:41:44.101Z</time></trkpt><trkpt lat="44.9218931" lon="9.771729"><ele>106.00000000000001</ele><time>2026-04-19T09:41:45.089Z</time></trkpt><trkpt lat="44.922018" lon="9.7717629"><ele>106.0</ele><time>2026-04-19T09:41:47.084Z</time></trkpt><trkpt lat="44.9220815" lon="9.771782"><ele>106.00000000000001</ele><time>2026-04-19T09:41:48.081Z</time></trkpt><trkpt lat="44.9221456" lon="9.7717976"><ele>106.0</ele><time>2026-04-19T09:41:49.086Z</time></trkpt><trkpt lat="44.9222669" lon="9.7718213"><ele>106.0</ele><time>2026-04-19T09:41:51.09Z</time></trkpt><trkpt lat="44.92233" lon="9.7718323"><ele>106.0</ele><time>2026-04-19T09:41:52.077Z</time></trkpt><trkpt lat="44.922394" lon="9.7718469"><ele>106.00000000000001</ele><time>2026-04-19T09:41:53.086Z</time></trkpt><trkpt lat="44.9225156" lon="9.7718641"><ele>106.0</ele><time>2026-04-19T09:41:55.086Z</time></trkpt><trkpt lat="44.9225805" lon="9.771864"><ele>105.57142857142857</ele><time>2026-04-19T09:41:56.086Z</time></trkpt><trkpt lat="44.9226452" lon="9.7718646"><ele>105.14285714285714</ele><time>2026-04-19T09:41:57.057Z</time></trkpt><trkpt lat="44.9227109" lon="9.7718767"><ele>104.71428571428571</ele><time>2026-04-19T09:41:58.06Z</time></trkpt><trkpt lat="44.922774" lon="9.7718904"><ele>104.28571428571428</ele><time>2026-04-19T09:41:59.064Z</time></trkpt><trkpt lat="44.9228385" lon="9.7718985"><ele>103.85714285714286</ele><time>2026-04-19T09:42:00.087Z</time></trkpt><trkpt lat="44.9229026" lon="9.7719084"><ele>103.42857142857142</ele><time>2026-04-19T09:42:01.085Z</time></trkpt><trkpt lat="44.9229687" lon="9.7719178"><ele>103.0</ele><time>2026-04-19T09:42:02.087Z</time></trkpt><trkpt lat="44.9230331" lon="9.7719345"><ele>103.0</ele><time>2026-04-19T09:42:03.087Z</time></trkpt><trkpt lat="44.9231586" lon="9.7719616"><ele>103.0</ele><time>2026-04-19T09:42:05.099Z</time></trkpt><trkpt lat="44.9232755" lon="9.7719919"><ele>103.0</ele><time>2026-04-19T09:42:07.085Z</time></trkpt><trkpt lat="44.9233963" lon="9.7720201"><ele>103.0</ele><time>2026-04-19T09:42:09.085Z</time></trkpt><trkpt lat="44.9234593" lon="9.772035"><ele>103.0</ele><time>2026-04-19T09:42:10.083Z</time></trkpt><trkpt lat="44.9235225" lon="9.7720492"><ele>102.50000000000001</ele><time>2026-04-19T09:42:11.094Z</time></trkpt><trkpt lat="44.9235894" lon="9.7720649"><ele>102.0</ele><time>2026-04-19T09:42:12.087Z</time></trkpt><trkpt lat="44.9236547" lon="9.7720845"><ele>101.5</ele><time>2026-04-19T09:42:13.094Z</time></trkpt><trkpt lat="44.9237195" lon="9.7721026"><ele>101.0</ele><time>2026-04-19T09:42:14.09Z</time></trkpt><trkpt lat="44.923784" lon="9.7721191"><ele>100.50000000000001</ele><time>2026-04-19T09:42:15.084Z</time></trkpt><trkpt lat="44.9239053" lon="9.7721416"><ele>100.0</ele><time>2026-04-19T09:42:17.094Z</time></trkpt><trkpt lat="44.9240243" lon="9.7721607"><ele>100.0</ele><time>2026-04-19T09:42:19.095Z</time></trkpt><trkpt lat="44.9240868" lon="9.7721741"><ele>100.0</ele><time>2026-04-19T09:42:20.092Z</time></trkpt><trkpt lat="44.92421" lon="9.7722038"><ele>100.0</ele><time>2026-04-19T09:42:22.093Z</time></trkpt><trkpt lat="44.9243264" lon="9.7722277"><ele>100.0</ele><time>2026-04-19T09:42:24.089Z</time></trkpt><trkpt lat="44.9244428" lon="9.77226"><ele>100.0</ele><time>2026-04-19T09:42:26.08Z</time></trkpt><trkpt lat="44.9245537" lon="9.7722822"><ele>100.33333333333334</ele><time>2026-04-19T09:42:28.087Z</time></trkpt><trkpt lat="44.9246698" lon="9.7723099"><ele>100.66666666666667</ele><time>2026-04-19T09:42:30.056Z</time></trkpt><trkpt lat="44.9247891" lon="9.7723344"><ele>101.0</ele><time>2026-04-19T09:42:32.095Z</time></trkpt><trkpt lat="44.9248525" lon="9.77235"><ele>101.33333333333334</ele><time>2026-04-19T09:42:33.092Z</time></trkpt><trkpt lat="44.9249167" lon="9.7723687"><ele>101.66666666666667</ele><time>2026-04-19T09:42:34.096Z</time></trkpt><trkpt lat="44.9249824" lon="9.7723782"><ele>102.0</ele><time>2026-04-19T09:42:35.074Z</time></trkpt><trkpt lat="44.9250482" lon="9.7723955"><ele>102.16666666666667</ele><time>2026-04-19T09:42:36.088Z</time></trkpt><trkpt lat="44.9251727" lon="9.7724298"><ele>102.33333333333334</ele><time>2026-04-19T09:42:38.091Z</time></trkpt><trkpt lat="44.9252354" lon="9.772452"><ele>102.5</ele><time>2026-04-19T09:42:39.086Z</time></trkpt><trkpt lat="44.925302" lon="9.7724648"><ele>102.66666666666667</ele><time>2026-04-19T09:42:40.087Z</time></trkpt><trkpt lat="44.9253706" lon="9.7724791"><ele>102.83333333333334</ele><time>2026-04-19T09:42:41.093Z</time></trkpt><trkpt lat="44.9254413" lon="9.7724913"><ele>103.0</ele><time>2026-04-19T09:42:42.09Z</time></trkpt><trkpt lat="44.9255117" lon="9.7725019"><ele>103.00000000000001</ele><time>2026-04-19T09:42:43.088Z</time></trkpt><trkpt lat="44.9255785" lon="9.7725181"><ele>103.0</ele><time>2026-04-19T09:42:44.09Z</time></trkpt><trkpt lat="44.9256427" lon="9.7725298"><ele>103.0</ele><time>2026-04-19T09:42:45.092Z</time></trkpt><trkpt lat="44.9257058" lon="9.7725414"><ele>103.0</ele><time>2026-04-19T09:42:46.09Z</time></trkpt><trkpt lat="44.9258267" lon="9.7725674"><ele>103.00000000000001</ele><time>2026-04-19T09:42:48.081Z</time></trkpt><trkpt lat="44.9259417" lon="9.7725885"><ele>103.0</ele><time>2026-04-19T09:42:50.087Z</time></trkpt><trkpt lat="44.9260508" lon="9.7726162"><ele>102.83333333333334</ele><time>2026-04-19T09:42:52.077Z</time></trkpt><trkpt lat="44.9261629" lon="9.7726588"><ele>102.66666666666667</ele><time>2026-04-19T09:42:54.096Z</time></trkpt><trkpt lat="44.9262271" lon="9.7726759"><ele>102.5</ele><time>2026-04-19T09:42:55.098Z</time></trkpt><trkpt lat="44.9263535" lon="9.7726974"><ele>102.33333333333334</ele><time>2026-04-19T09:42:57.093Z</time></trkpt><trkpt lat="44.9264162" lon="9.7727174"><ele>102.16666666666667</ele><time>2026-04-19T09:42:58.082Z</time></trkpt><trkpt lat="44.92648" lon="9.77273"><ele>102.0</ele><time>2026-04-19T09:42:59.076Z</time></trkpt><trkpt lat="44.9265442" lon="9.7727389"><ele>101.66666666666667</ele><time>2026-04-19T09:43:00.078Z</time></trkpt><trkpt lat="44.9266612" lon="9.7727689"><ele>101.33333333333334</ele><time>2026-04-19T09:43:02.092Z</time></trkpt><trkpt lat="44.9267847" lon="9.7728013"><ele>101.0</ele><time>2026-04-19T09:43:04.077Z</time></trkpt><trkpt lat="44.9268493" lon="9.7728127"><ele>100.66666666666667</ele><time>2026-04-19T09:43:05.078Z</time></trkpt><trkpt lat="44.9269131" lon="9.7728259"><ele>100.33333333333334</ele><time>2026-04-19T09:43:06.085Z</time></trkpt><trkpt lat="44.9269758" lon="9.7728352"><ele>100.0</ele><time>2026-04-19T09:43:07.085Z</time></trkpt><trkpt lat="44.9270408" lon="9.7728513"><ele>100.00000000000001</ele><time>2026-04-19T09:43:08.087Z</time></trkpt><trkpt lat="44.9271096" lon="9.7728695"><ele>100.0</ele><time>2026-04-19T09:43:09.084Z</time></trkpt><trkpt lat="44.9271761" lon="9.77288"><ele>100.0</ele><time>2026-04-19T09:43:10.088Z</time></trkpt><trkpt lat="44.9272434" lon="9.7728865"><ele>100.0</ele><time>2026-04-19T09:43:11.084Z</time></trkpt><trkpt lat="44.9273086" lon="9.7728987"><ele>100.00000000000001</ele><time>2026-04-19T09:43:12.082Z</time></trkpt><trkpt lat="44.9274302" lon="9.7729306"><ele>100.0</ele><time>2026-04-19T09:43:14.093Z</time></trkpt><trkpt lat="44.9275514" lon="9.7729461"><ele>99.83333333333334</ele><time>2026-04-19T09:43:16.092Z</time></trkpt><trkpt lat="44.9276738" lon="9.7729839"><ele>99.66666666666667</ele><time>2026-04-19T09:43:18.094Z</time></trkpt><trkpt lat="44.9277415" lon="9.7730016"><ele>99.5</ele><time>2026-04-19T09:43:19.107Z</time></trkpt><trkpt lat="44.9278088" lon="9.7730131"><ele>99.33333333333334</ele><time>2026-04-19T09:43:20.098Z</time></trkpt><trkpt lat="44.9278733" lon="9.7730257"><ele>99.16666666666667</ele><time>2026-04-19T09:43:21.083Z</time></trkpt><trkpt lat="44.9279366" lon="9.7730421"><ele>99.0</ele><time>2026-04-19T09:43:22.088Z</time></trkpt><trkpt lat="44.928" lon="9.7730557"><ele>99.0</ele><time>2026-04-19T09:43:23.088Z</time></trkpt><trkpt lat="44.928064" lon="9.7730704"><ele>99.0</ele><time>2026-04-19T09:43:24.087Z</time></trkpt><trkpt lat="44.928129" lon="9.7730799"><ele>99.0</ele><time>2026-04-19T09:43:25.093Z</time></trkpt><trkpt lat="44.9281919" lon="9.7731008"><ele>99.0</ele><time>2026-04-19T09:43:26.091Z</time></trkpt><trkpt lat="44.9282552" lon="9.7731172"><ele>99.0</ele><time>2026-04-19T09:43:27.088Z</time></trkpt><trkpt lat="44.9283212" lon="9.7731263"><ele>99.0</ele><time>2026-04-19T09:43:28.074Z</time></trkpt><trkpt lat="44.9283902" lon="9.7731324"><ele>99.0</ele><time>2026-04-19T09:43:29.086Z</time></trkpt><trkpt lat="44.9284572" lon="9.77314"><ele>99.6</ele><time>2026-04-19T09:43:30.084Z</time></trkpt><trkpt lat="44.9285211" lon="9.7731465"><ele>100.2</ele><time>2026-04-19T09:43:31.086Z</time></trkpt><trkpt lat="44.9286408" lon="9.7731733"><ele>100.8</ele><time>2026-04-19T09:43:33.083Z</time></trkpt><trkpt lat="44.9287535" lon="9.7731983"><ele>101.39999999999999</ele><time>2026-04-19T09:43:35.093Z</time></trkpt><trkpt lat="44.9288674" lon="9.7732313"><ele>102.0</ele><time>2026-04-19T09:43:37.09Z</time></trkpt><trkpt lat="44.9289744" lon="9.7732652"><ele>102.0</ele><time>2026-04-19T09:43:39.09Z</time></trkpt><trkpt lat="44.9290837" lon="9.7733029"><ele>102.0</ele><time>2026-04-19T09:43:41.093Z</time></trkpt><trkpt lat="44.929138" lon="9.7733532"><ele>102.0</ele><time>2026-04-19T09:43:42.095Z</time></trkpt><trkpt lat="44.9291976" lon="9.7734079"><ele>102.0</ele><time>2026-04-19T09:43:43.099Z</time></trkpt><trkpt lat="44.929256" lon="9.7734616"><ele>102.0</ele><time>2026-04-19T09:43:44.091Z</time></trkpt><trkpt lat="44.9293204" lon="9.7735205"><ele>102.0</ele><time>2026-04-19T09:43:45.089Z</time></trkpt><trkpt lat="44.9293859" lon="9.7735656"><ele>101.33333333333333</ele><time>2026-04-19T09:43:46.082Z</time></trkpt><trkpt lat="44.9294455" lon="9.77361"><ele>100.66666666666666</ele><time>2026-04-19T09:43:47.082Z</time></trkpt><trkpt lat="44.9295607" lon="9.7736897"><ele>100.0</ele><time>2026-04-19T09:43:49.077Z</time></trkpt><trkpt lat="44.9296224" lon="9.7737256"><ele>99.33333333333333</ele><time>2026-04-19T09:43:50.084Z</time></trkpt><trkpt lat="44.9296857" lon="9.7737604"><ele>98.66666666666666</ele><time>2026-04-19T09:43:51.087Z</time></trkpt><trkpt lat="44.9297445" lon="9.7737922"><ele>98.0</ele><time>2026-04-19T09:43:52.083Z</time></trkpt><trkpt lat="44.9298079" lon="9.7738097"><ele>98.0</ele><time>2026-04-19T09:43:53.089Z</time></trkpt><trkpt lat="44.9299234" lon="9.7738418"><ele>98.0</ele><time>2026-04-19T09:43:55.1Z</time></trkpt><trkpt lat="44.9300383" lon="9.7738582"><ele>98.0</ele><time>2026-04-19T09:43:57.067Z</time></trkpt><trkpt lat="44.9301012" lon="9.7738696"><ele>98.0</ele><time>2026-04-19T09:43:58.062Z</time></trkpt><trkpt lat="44.9302189" lon="9.7738918"><ele>98.0</ele><time>2026-04-19T09:44:00.086Z</time></trkpt><trkpt lat="44.9303287" lon="9.7739189"><ele>97.80000000000001</ele><time>2026-04-19T09:44:02.077Z</time></trkpt><trkpt lat="44.9304365" lon="9.7739476"><ele>97.6</ele><time>2026-04-19T09:44:04.084Z</time></trkpt><trkpt lat="44.9304996" lon="9.7739736"><ele>97.4</ele><time>2026-04-19T09:44:05.088Z</time></trkpt><trkpt lat="44.9306105" lon="9.7740035"><ele>97.19999999999999</ele><time>2026-04-19T09:44:07.084Z</time></trkpt><trkpt lat="44.9307223" lon="9.7740354"><ele>97.0</ele><time>2026-04-19T09:44:09.096Z</time></trkpt><trkpt lat="44.9308385" lon="9.7740633"><ele>96.75</ele><time>2026-04-19T09:44:11.09Z</time></trkpt><trkpt lat="44.9309574" lon="9.7740903"><ele>96.5</ele><time>2026-04-19T09:44:13.09Z</time></trkpt><trkpt lat="44.9310756" lon="9.7741224"><ele>96.25</ele><time>2026-04-19T09:44:15.086Z</time></trkpt><trkpt lat="44.9311917" lon="9.7741476"><ele>96.0</ele><time>2026-04-19T09:44:17.095Z</time></trkpt><trkpt lat="44.9313" lon="9.7741891"><ele>96.0</ele><time>2026-04-19T09:44:19.088Z</time></trkpt><trkpt lat="44.9314254" lon="9.7742105"><ele>96.0</ele><time>2026-04-19T09:44:21.088Z</time></trkpt><trkpt lat="44.9314887" lon="9.7742312"><ele>96.0</ele><time>2026-04-19T09:44:22.091Z</time></trkpt><trkpt lat="44.9315503" lon="9.774253"><ele>96.0</ele><time>2026-04-19T09:44:23.091Z</time></trkpt><trkpt lat="44.9316734" lon="9.7742853"><ele>96.0</ele><time>2026-04-19T09:44:25.097Z</time></trkpt><trkpt lat="44.9317383" lon="9.7743012"><ele>96.0</ele><time>2026-04-19T09:44:26.094Z</time></trkpt><trkpt lat="44.931801" lon="9.7743214"><ele>96.0</ele><time>2026-04-19T09:44:27.069Z</time></trkpt><trkpt lat="44.9318648" lon="9.7743411"><ele>96.0</ele><time>2026-04-19T09:44:28.093Z</time></trkpt><trkpt lat="44.9319884" lon="9.7743819"><ele>96.0</ele><time>2026-04-19T09:44:30.075Z</time></trkpt><trkpt lat="44.9320516" lon="9.774403"><ele>96.0</ele><time>2026-04-19T09:44:31.084Z</time></trkpt><trkpt lat="44.9321155" lon="9.774429"><ele>96.0</ele><time>2026-04-19T09:44:32.093Z</time></trkpt><trkpt lat="44.9321826" lon="9.774456"><ele>96.0</ele><time>2026-04-19T09:44:33.084Z</time></trkpt><trkpt lat="44.9322472" lon="9.7744741"><ele>95.99999999999999</ele><time>2026-04-19T09:44:34.086Z</time></trkpt><trkpt lat="44.9323113" lon="9.7744888"><ele>96.0</ele><time>2026-04-19T09:44:35.091Z</time></trkpt><trkpt lat="44.9323746" lon="9.774505"><ele>96.0</ele><time>2026-04-19T09:44:36.085Z</time></trkpt><trkpt lat="44.9324399" lon="9.7745199"><ele>96.0</ele><time>2026-04-19T09:44:37.091Z</time></trkpt><trkpt lat="44.9325064" lon="9.7745326"><ele>96.0</ele><time>2026-04-19T09:44:38.101Z</time></trkpt><trkpt lat="44.9325718" lon="9.7745422"><ele>95.99999999999999</ele><time>2026-04-19T09:44:39.099Z</time></trkpt><trkpt lat="44.932639" lon="9.7745499"><ele>96.0</ele><time>2026-04-19T09:44:40.086Z</time></trkpt><trkpt lat="44.9327123" lon="9.7745509"><ele>96.0</ele><time>2026-04-19T09:44:41.093Z</time></trkpt><trkpt lat="44.9327797" lon="9.774555"><ele>96.0</ele><time>2026-04-19T09:44:42.086Z</time></trkpt><trkpt lat="44.9329061" lon="9.7745739"><ele>96.0</ele><time>2026-04-19T09:44:44.088Z</time></trkpt><trkpt lat="44.9330333" lon="9.7745876"><ele>96.0</ele><time>2026-04-19T09:44:46.09Z</time></trkpt><trkpt lat="44.9330998" lon="9.774594"><ele>96.0</ele><time>2026-04-19T09:44:47.091Z</time></trkpt><trkpt lat="44.9331633" lon="9.7746049"><ele>95.99999999999999</ele><time>2026-04-19T09:44:48.094Z</time></trkpt><trkpt lat="44.9332289" lon="9.7746138"><ele>96.0</ele><time>2026-04-19T09:44:49.088Z</time></trkpt><trkpt lat="44.9332989" lon="9.7746245"><ele>96.0</ele><time>2026-04-19T09:44:50.09Z</time></trkpt><trkpt lat="44.933366" lon="9.7746294"><ele>96.0</ele><time>2026-04-19T09:44:51.088Z</time></trkpt><trkpt lat="44.9334323" lon="9.7746317"><ele>96.0</ele><time>2026-04-19T09:44:52.091Z</time></trkpt><trkpt lat="44.9335018" lon="9.7746331"><ele>95.99999999999999</ele><time>2026-04-19T09:44:53.065Z</time></trkpt><trkpt lat="44.9335681" lon="9.7746351"><ele>96.0</ele><time>2026-04-19T09:44:54.088Z</time></trkpt><trkpt lat="44.9336341" lon="9.7746472"><ele>96.14285714285714</ele><time>2026-04-19T09:44:55.1Z</time></trkpt><trkpt lat="44.9336989" lon="9.7746602"><ele>96.28571428571428</ele><time>2026-04-19T09:44:56.08Z</time></trkpt><trkpt lat="44.9337676" lon="9.7746691"><ele>96.42857142857142</ele><time>2026-04-19T09:44:57.087Z</time></trkpt><trkpt lat="44.9338318" lon="9.7746804"><ele>96.57142857142857</ele><time>2026-04-19T09:44:58.082Z</time></trkpt><trkpt lat="44.9339009" lon="9.7746897"><ele>96.71428571428572</ele><time>2026-04-19T09:44:59.09Z</time></trkpt><trkpt lat="44.9339639" lon="9.7746953"><ele>96.85714285714285</ele><time>2026-04-19T09:45:00.08Z</time></trkpt><trkpt lat="44.9340318" lon="9.7746959"><ele>97.0</ele><time>2026-04-19T09:45:01.092Z</time></trkpt><trkpt lat="44.9341027" lon="9.7747056"><ele>97.0</ele><time>2026-04-19T09:45:02.079Z</time></trkpt><trkpt lat="44.9341661" lon="9.774713"><ele>97.0</ele><time>2026-04-19T09:45:03.081Z</time></trkpt><trkpt lat="44.9342977" lon="9.7747268"><ele>97.0</ele><time>2026-04-19T09:45:05.082Z</time></trkpt><trkpt lat="44.9343677" lon="9.7747415"><ele>97.0</ele><time>2026-04-19T09:45:06.087Z</time></trkpt><trkpt lat="44.9344982" lon="9.7747514"><ele>97.0</ele><time>2026-04-19T09:45:08.081Z</time></trkpt><trkpt lat="44.9345613" lon="9.7747566"><ele>96.57142857142857</ele><time>2026-04-19T09:45:09.087Z</time></trkpt><trkpt lat="44.9346258" lon="9.774768"><ele>96.14285714285715</ele><time>2026-04-19T09:45:10.094Z</time></trkpt><trkpt lat="44.9346908" lon="9.7747826"><ele>95.71428571428572</ele><time>2026-04-19T09:45:11.068Z</time></trkpt><trkpt lat="44.934761" lon="9.7747912"><ele>95.28571428571428</ele><time>2026-04-19T09:45:12.093Z</time></trkpt><trkpt lat="44.9348292" lon="9.7748043"><ele>94.85714285714286</ele><time>2026-04-19T09:45:13.101Z</time></trkpt><trkpt lat="44.9348967" lon="9.7748146"><ele>94.42857142857143</ele><time>2026-04-19T09:45:14.09Z</time></trkpt><trkpt lat="44.9349633" lon="9.7748205"><ele>94.0</ele><time>2026-04-19T09:45:15.09Z</time></trkpt><trkpt lat="44.9350291" lon="9.7748261"><ele>93.66666666666666</ele><time>2026-04-19T09:45:16.09Z</time></trkpt><trkpt lat="44.9350934" lon="9.7748359"><ele>93.33333333333333</ele><time>2026-04-19T09:45:17.086Z</time></trkpt><trkpt lat="44.935157" lon="9.7748469"><ele>93.0</ele><time>2026-04-19T09:45:18.087Z</time></trkpt><trkpt lat="44.93522" lon="9.7748529"><ele>92.66666666666667</ele><time>2026-04-19T09:45:19.082Z</time></trkpt><trkpt lat="44.9353461" lon="9.7748597"><ele>92.33333333333334</ele><time>2026-04-19T09:45:21.085Z</time></trkpt><trkpt lat="44.9354104" lon="9.7748723"><ele>92.0</ele><time>2026-04-19T09:45:22.059Z</time></trkpt><trkpt lat="44.9355337" lon="9.7748886"><ele>92.0</ele><time>2026-04-19T09:45:24.082Z</time></trkpt><trkpt lat="44.9356592" lon="9.7749098"><ele>92.0</ele><time>2026-04-19T09:45:26.065Z</time></trkpt><trkpt lat="44.9357239" lon="9.7749197"><ele>92.0</ele><time>2026-04-19T09:45:27.098Z</time></trkpt><trkpt lat="44.9357867" lon="9.7749272"><ele>92.0</ele><time>2026-04-19T09:45:28.087Z</time></trkpt><trkpt lat="44.9358507" lon="9.774934"><ele>92.0</ele><time>2026-04-19T09:45:29.06Z</time></trkpt><trkpt lat="44.9359147" lon="9.7749421"><ele>92.0</ele><time>2026-04-19T09:45:30.088Z</time></trkpt><trkpt lat="44.9360373" lon="9.7749567"><ele>92.0</ele><time>2026-04-19T09:45:32.089Z</time></trkpt><trkpt lat="44.9361608" lon="9.7749737"><ele>92.0</ele><time>2026-04-19T09:45:34.093Z</time></trkpt><trkpt lat="44.9362282" lon="9.7749853"><ele>92.0</ele><time>2026-04-19T09:45:35.087Z</time></trkpt><trkpt lat="44.9362911" lon="9.7750071"><ele>92.0</ele><time>2026-04-19T09:45:36.09Z</time></trkpt><trkpt lat="44.9364131" lon="9.7750371"><ele>92.0</ele><time>2026-04-19T09:45:38.087Z</time></trkpt><trkpt lat="44.9364755" lon="9.7750541"><ele>92.0</ele><time>2026-04-19T09:45:39.08Z</time></trkpt><trkpt lat="44.9365995" lon="9.7750826"><ele>92.39999999999999</ele><time>2026-04-19T09:45:41.099Z</time></trkpt><trkpt lat="44.9367217" lon="9.7751222"><ele>92.8</ele><time>2026-04-19T09:45:43.096Z</time></trkpt><trkpt lat="44.9367847" lon="9.7751428"><ele>93.2</ele><time>2026-04-19T09:45:44.071Z</time></trkpt><trkpt lat="44.9369028" lon="9.775171"><ele>93.6</ele><time>2026-04-19T09:45:46.089Z</time></trkpt><trkpt lat="44.9370236" lon="9.7752145"><ele>94.0</ele><time>2026-04-19T09:45:48.092Z</time></trkpt><trkpt lat="44.9371448" lon="9.775254"><ele>94.0</ele><time>2026-04-19T09:45:50.092Z</time></trkpt><trkpt lat="44.9372641" lon="9.7752978"><ele>94.0</ele><time>2026-04-19T09:45:52.084Z</time></trkpt><trkpt lat="44.9373837" lon="9.775344"><ele>94.0</ele><time>2026-04-19T09:45:54.09Z</time></trkpt><trkpt lat="44.9375054" lon="9.7753884"><ele>94.0</ele><time>2026-04-19T09:45:56.085Z</time></trkpt><trkpt lat="44.9375679" lon="9.7754139"><ele>94.0</ele><time>2026-04-19T09:45:57.094Z</time></trkpt><trkpt lat="44.9376891" lon="9.7754607"><ele>94.0</ele><time>2026-04-19T09:45:59.1Z</time></trkpt><trkpt lat="44.9377506" lon="9.7754839"><ele>94.0</ele><time>2026-04-19T09:46:00.086Z</time></trkpt><trkpt lat="44.9378745" lon="9.7755264"><ele>94.0</ele><time>2026-04-19T09:46:02.083Z</time></trkpt><trkpt lat="44.9379937" lon="9.7755735"><ele>94.0</ele><time>2026-04-19T09:46:04.082Z</time></trkpt><trkpt lat="44.9381147" lon="9.775613"><ele>94.0</ele><time>2026-04-19T09:46:06.092Z</time></trkpt><trkpt lat="44.9381796" lon="9.7756299"><ele>94.0</ele><time>2026-04-19T09:46:07.091Z</time></trkpt><trkpt lat="44.9382417" lon="9.7756505"><ele>94.0</ele><time>2026-04-19T09:46:08.088Z</time></trkpt><trkpt lat="44.9383053" lon="9.7756723"><ele>94.0</ele><time>2026-04-19T09:46:09.088Z</time></trkpt><trkpt lat="44.9383712" lon="9.7756878"><ele>94.0</ele><time>2026-04-19T09:46:10.084Z</time></trkpt><trkpt lat="44.9384396" lon="9.7757107"><ele>94.0</ele><time>2026-04-19T09:46:11.087Z</time></trkpt><trkpt lat="44.9385034" lon="9.7757243"><ele>94.0</ele><time>2026-04-19T09:46:12.091Z</time></trkpt><trkpt lat="44.9385682" lon="9.7757386"><ele>94.0</ele><time>2026-04-19T09:46:13.089Z</time></trkpt><trkpt lat="44.9386948" lon="9.7757598"><ele>93.83333333333333</ele><time>2026-04-19T09:46:15.093Z</time></trkpt><trkpt lat="44.9387585" lon="9.775776"><ele>93.66666666666666</ele><time>2026-04-19T09:46:16.098Z</time></trkpt><trkpt lat="44.9388232" lon="9.7758011"><ele>93.5</ele><time>2026-04-19T09:46:17.091Z</time></trkpt><trkpt lat="44.9389458" lon="9.7758332"><ele>93.33333333333333</ele><time>2026-04-19T09:46:19.087Z</time></trkpt><trkpt lat="44.9390678" lon="9.7758683"><ele>93.16666666666667</ele><time>2026-04-19T09:46:21.068Z</time></trkpt><trkpt lat="44.9391298" lon="9.7758858"><ele>93.0</ele><time>2026-04-19T09:46:22.086Z</time></trkpt><trkpt lat="44.9391968" lon="9.7759039"><ele>93.0</ele><time>2026-04-19T09:46:23.103Z</time></trkpt><trkpt lat="44.9392606" lon="9.7759218"><ele>93.0</ele><time>2026-04-19T09:46:24.085Z</time></trkpt><trkpt lat="44.939377" lon="9.7759506"><ele>93.0</ele><time>2026-04-19T09:46:26.09Z</time></trkpt><trkpt lat="44.9394927" lon="9.7759797"><ele>93.0</ele><time>2026-04-19T09:46:28.068Z</time></trkpt><trkpt lat="44.9396092" lon="9.7760157"><ele>93.0</ele><time>2026-04-19T09:46:30.092Z</time></trkpt><trkpt lat="44.9397308" lon="9.7760417"><ele>93.0</ele><time>2026-04-19T09:46:32.085Z</time></trkpt><trkpt lat="44.9398539" lon="9.7760564"><ele>93.0</ele><time>2026-04-19T09:46:34.096Z</time></trkpt><trkpt lat="44.9399737" lon="9.7760713"><ele>93.0</ele><time>2026-04-19T09:46:36.102Z</time></trkpt><trkpt lat="44.9400366" lon="9.7760765"><ele>93.0</ele><time>2026-04-19T09:46:37.085Z</time></trkpt><trkpt lat="44.9401549" lon="9.7760901"><ele>93.0</ele><time>2026-04-19T09:46:39.092Z</time></trkpt><trkpt lat="44.9402179" lon="9.7760917"><ele>92.4</ele><time>2026-04-19T09:46:40.083Z</time></trkpt><trkpt lat="44.9403329" lon="9.7761147"><ele>91.80000000000001</ele><time>2026-04-19T09:46:42.087Z</time></trkpt><trkpt lat="44.9404517" lon="9.7761215"><ele>91.2</ele><time>2026-04-19T09:46:44.091Z</time></trkpt><trkpt lat="44.9405182" lon="9.7761281"><ele>90.6</ele><time>2026-04-19T09:46:45.088Z</time></trkpt><trkpt lat="44.9405806" lon="9.7761427"><ele>90.0</ele><time>2026-04-19T09:46:46.09Z</time></trkpt><trkpt lat="44.9407016" lon="9.7761856"><ele>90.0</ele><time>2026-04-19T09:46:48.09Z</time></trkpt><trkpt lat="44.9408229" lon="9.776235"><ele>90.0</ele><time>2026-04-19T09:46:50.083Z</time></trkpt><trkpt lat="44.9409457" lon="9.7762857"><ele>90.0</ele><time>2026-04-19T09:46:52.089Z</time></trkpt><trkpt lat="44.9410096" lon="9.7763104"><ele>90.0</ele><time>2026-04-19T09:46:53.082Z</time></trkpt><trkpt lat="44.9411294" lon="9.7763608"><ele>90.0</ele><time>2026-04-19T09:46:55.089Z</time></trkpt><trkpt lat="44.9412492" lon="9.7763995"><ele>89.75</ele><time>2026-04-19T09:46:57.087Z</time></trkpt><trkpt lat="44.9413716" lon="9.7764311"><ele>89.5</ele><time>2026-04-19T09:46:59.09Z</time></trkpt><trkpt lat="44.9414913" lon="9.7764566"><ele>89.25</ele><time>2026-04-19T09:47:01.094Z</time></trkpt><trkpt lat="44.9416084" lon="9.7764903"><ele>89.0</ele><time>2026-04-19T09:47:03.085Z</time></trkpt><trkpt lat="44.941726" lon="9.7765203"><ele>88.75</ele><time>2026-04-19T09:47:05.092Z</time></trkpt><trkpt lat="44.941845" lon="9.7765361"><ele>88.5</ele><time>2026-04-19T09:47:07.096Z</time></trkpt><trkpt lat="44.9419644" lon="9.7765633"><ele>88.25</ele><time>2026-04-19T09:47:09.087Z</time></trkpt><trkpt lat="44.9420787" lon="9.7765921"><ele>88.0</ele><time>2026-04-19T09:47:11.088Z</time></trkpt><trkpt lat="44.9421979" lon="9.7766201"><ele>88.0</ele><time>2026-04-19T09:47:13.096Z</time></trkpt><trkpt lat="44.9422608" lon="9.7766266"><ele>88.0</ele><time>2026-04-19T09:47:14.089Z</time></trkpt><trkpt lat="44.9423785" lon="9.7766461"><ele>88.0</ele><time>2026-04-19T09:47:16.089Z</time></trkpt><trkpt lat="44.9425003" lon="9.77667"><ele>88.0</ele><time>2026-04-19T09:47:18.093Z</time></trkpt><trkpt lat="44.9425649" lon="9.776682"><ele>88.0</ele><time>2026-04-19T09:47:19.098Z</time></trkpt><trkpt lat="44.9426278" lon="9.7766934"><ele>88.0</ele><time>2026-04-19T09:47:20.098Z</time></trkpt><trkpt lat="44.9427522" lon="9.7767364"><ele>88.2</ele><time>2026-04-19T09:47:22.092Z</time></trkpt><trkpt lat="44.9428741" lon="9.7767784"><ele>88.4</ele><time>2026-04-19T09:47:24.103Z</time></trkpt><trkpt lat="44.9430015" lon="9.7768037"><ele>88.60000000000001</ele><time>2026-04-19T09:47:26.09Z</time></trkpt><trkpt lat="44.9430683" lon="9.7768135"><ele>88.80000000000001</ele><time>2026-04-19T09:47:27.091Z</time></trkpt><trkpt lat="44.9431313" lon="9.7768223"><ele>89.0</ele><time>2026-04-19T09:47:28.072Z</time></trkpt><trkpt lat="44.9432579" lon="9.7768306"><ele>89.0</ele><time>2026-04-19T09:47:30.092Z</time></trkpt><trkpt lat="44.9433839" lon="9.7768296"><ele>89.0</ele><time>2026-04-19T09:47:32.094Z</time></trkpt><trkpt lat="44.9435075" lon="9.7768277"><ele>89.0</ele><time>2026-04-19T09:47:34.085Z</time></trkpt><trkpt lat="44.9436292" lon="9.7768307"><ele>89.0</ele><time>2026-04-19T09:47:36.092Z</time></trkpt><trkpt lat="44.9436939" lon="9.7768394"><ele>89.0</ele><time>2026-04-19T09:47:37.087Z</time></trkpt><trkpt lat="44.9438193" lon="9.7768783"><ele>88.80000000000001</ele><time>2026-04-19T09:47:39.087Z</time></trkpt><trkpt lat="44.9439355" lon="9.7769358"><ele>88.60000000000001</ele><time>2026-04-19T09:47:41.091Z</time></trkpt><trkpt lat="44.9440533" lon="9.7769866"><ele>88.4</ele><time>2026-04-19T09:47:43.092Z</time></trkpt><trkpt lat="44.9441144" lon="9.7770086"><ele>88.2</ele><time>2026-04-19T09:47:44.083Z</time></trkpt><trkpt lat="44.9442279" lon="9.7770591"><ele>88.0</ele><time>2026-04-19T09:47:46.088Z</time></trkpt><trkpt lat="44.9443463" lon="9.7771035"><ele>88.0</ele><time>2026-04-19T09:47:48.09Z</time></trkpt><trkpt lat="44.9444632" lon="9.7771175"><ele>88.0</ele><time>2026-04-19T09:47:50.086Z</time></trkpt><trkpt lat="44.9445785" lon="9.7770979"><ele>88.0</ele><time>2026-04-19T09:47:52.091Z</time></trkpt><trkpt lat="44.9446982" lon="9.7770618"><ele>88.0</ele><time>2026-04-19T09:47:54.092Z</time></trkpt><trkpt lat="44.9448162" lon="9.7770175"><ele>88.0</ele><time>2026-04-19T09:47:56.084Z</time></trkpt><trkpt lat="44.9449323" lon="9.776975"><ele>88.0</ele><time>2026-04-19T09:47:58.093Z</time></trkpt><trkpt lat="44.9449975" lon="9.7769554"><ele>88.0</ele><time>2026-04-19T09:47:59.101Z</time></trkpt><trkpt lat="44.9450627" lon="9.7769353"><ele>88.0</ele><time>2026-04-19T09:48:00.068Z</time></trkpt><trkpt lat="44.9451794" lon="9.7769296"><ele>88.0</ele><time>2026-04-19T09:48:02.091Z</time></trkpt><trkpt lat="44.9453002" lon="9.7769259"><ele>88.0</ele><time>2026-04-19T09:48:04.095Z</time></trkpt><trkpt lat="44.945421" lon="9.776937"><ele>88.0</ele><time>2026-04-19T09:48:06.097Z</time></trkpt><trkpt lat="44.9455421" lon="9.7769648"><ele>88.0</ele><time>2026-04-19T09:48:08.086Z</time></trkpt><trkpt lat="44.9456597" lon="9.7770229"><ele>88.0</ele><time>2026-04-19T09:48:10.086Z</time></trkpt><trkpt lat="44.9457701" lon="9.7770915"><ele>88.0</ele><time>2026-04-19T09:48:12.099Z</time></trkpt><trkpt lat="44.9458823" lon="9.7771461"><ele>88.0</ele><time>2026-04-19T09:48:14.089Z</time></trkpt><trkpt lat="44.9459431" lon="9.7771782"><ele>88.0</ele><time>2026-04-19T09:48:15.075Z</time></trkpt><trkpt lat="44.9460014" lon="9.7772196"><ele>88.0</ele><time>2026-04-19T09:48:16.086Z</time></trkpt><trkpt lat="44.9460601" lon="9.777257"><ele>88.0</ele><time>2026-04-19T09:48:17.09Z</time></trkpt><trkpt lat="44.9461195" lon="9.7772991"><ele>88.0</ele><time>2026-04-19T09:48:18.091Z</time></trkpt><trkpt lat="44.9461774" lon="9.7773398"><ele>88.0</ele><time>2026-04-19T09:48:19.084Z</time></trkpt><trkpt lat="44.9462342" lon="9.7773798"><ele>88.0</ele><time>2026-04-19T09:48:20.084Z</time></trkpt><trkpt lat="44.9462941" lon="9.7774087"><ele>88.0</ele><time>2026-04-19T09:48:21.081Z</time></trkpt><trkpt lat="44.9463541" lon="9.7774435"><ele>88.0</ele><time>2026-04-19T09:48:22.088Z</time></trkpt><trkpt lat="44.9464143" lon="9.7774749"><ele>88.0</ele><time>2026-04-19T09:48:23.095Z</time></trkpt><trkpt lat="44.946532" lon="9.7775334"><ele>88.0</ele><time>2026-04-19T09:48:25.077Z</time></trkpt><trkpt lat="44.9466499" lon="9.7775867"><ele>88.0</ele><time>2026-04-19T09:48:27.095Z</time></trkpt><trkpt lat="44.9467652" lon="9.7776399"><ele>87.5</ele><time>2026-04-19T09:48:29.09Z</time></trkpt><trkpt lat="44.9468745" lon="9.7776884"><ele>87.0</ele><time>2026-04-19T09:48:31.08Z</time></trkpt><trkpt lat="44.9469848" lon="9.7777403"><ele>86.5</ele><time>2026-04-19T09:48:33.085Z</time></trkpt><trkpt lat="44.947096" lon="9.7777991"><ele>86.0</ele><time>2026-04-19T09:48:35.091Z</time></trkpt><trkpt lat="44.9472011" lon="9.7778576"><ele>86.0</ele><time>2026-04-19T09:48:37.096Z</time></trkpt><trkpt lat="44.9473095" lon="9.7779131"><ele>86.0</ele><time>2026-04-19T09:48:39.089Z</time></trkpt><trkpt lat="44.9474122" lon="9.7779603"><ele>86.0</ele><time>2026-04-19T09:48:41.093Z</time></trkpt><trkpt lat="44.9475142" lon="9.7780112"><ele>86.0</ele><time>2026-04-19T09:48:43.085Z</time></trkpt><trkpt lat="44.9476117" lon="9.7780661"><ele>86.0</ele><time>2026-04-19T09:48:45.083Z</time></trkpt><trkpt lat="44.947704" lon="9.7781115"><ele>85.66666666666667</ele><time>2026-04-19T09:48:47.08Z</time></trkpt><trkpt lat="44.9477957" lon="9.7781531"><ele>85.33333333333334</ele><time>2026-04-19T09:48:49.076Z</time></trkpt><trkpt lat="44.9478808" lon="9.7782004"><ele>85.0</ele><time>2026-04-19T09:48:51.084Z</time></trkpt><trkpt lat="44.9479556" lon="9.7782355"><ele>84.66666666666667</ele><time>2026-04-19T09:48:53.085Z</time></trkpt><trkpt lat="44.9480131" lon="9.7782729"><ele>84.33333333333333</ele><time>2026-04-19T09:48:56.089Z</time></trkpt><trkpt lat="44.9480813" lon="9.778307"><ele>84.0</ele><time>2026-04-19T09:49:00.085Z</time></trkpt><trkpt lat="44.9481448" lon="9.7783537"><ele>84.0</ele><time>2026-04-19T09:49:04.091Z</time></trkpt><trkpt lat="44.9481522" lon="9.7784447"><ele>84.0</ele><time>2026-04-19T09:49:09.086Z</time></trkpt><trkpt lat="44.9481537" lon="9.7785613"><ele>84.0</ele><time>2026-04-19T09:49:12.089Z</time></trkpt><trkpt lat="44.948144" lon="9.7786623"><ele>84.0</ele><time>2026-04-19T09:49:14.087Z</time></trkpt><trkpt lat="44.9481304" lon="9.778784"><ele>84.0</ele><time>2026-04-19T09:49:17.084Z</time></trkpt><trkpt lat="44.9481164" lon="9.7788843"><ele>84.0</ele><time>2026-04-19T09:49:19.089Z</time></trkpt><trkpt lat="44.9480979" lon="9.7790177"><ele>84.16666666666667</ele><time>2026-04-19T09:49:21.087Z</time></trkpt><trkpt lat="44.9480788" lon="9.7791436"><ele>84.33333333333333</ele><time>2026-04-19T09:49:23.086Z</time></trkpt><trkpt lat="44.9480648" lon="9.7792697"><ele>84.5</ele><time>2026-04-19T09:49:25.082Z</time></trkpt><trkpt lat="44.948054" lon="9.7793896"><ele>84.66666666666666</ele><time>2026-04-19T09:49:27.093Z</time></trkpt><trkpt lat="44.9480343" lon="9.7795162"><ele>84.83333333333333</ele><time>2026-04-19T09:49:29.082Z</time></trkpt><trkpt lat="44.9480264" lon="9.7796351"><ele>85.0</ele><time>2026-04-19T09:49:31.081Z</time></trkpt><trkpt lat="44.9480087" lon="9.7797627"><ele>85.0</ele><time>2026-04-19T09:49:33.088Z</time></trkpt><trkpt lat="44.9479915" lon="9.7799042"><ele>85.0</ele><time>2026-04-19T09:49:35.088Z</time></trkpt><trkpt lat="44.9479798" lon="9.7800342"><ele>85.0</ele><time>2026-04-19T09:49:37.091Z</time></trkpt><trkpt lat="44.9479609" lon="9.7801715"><ele>85.0</ele><time>2026-04-19T09:49:39.077Z</time></trkpt><trkpt lat="44.9479396" lon="9.7802987"><ele>85.0</ele><time>2026-04-19T09:49:41.096Z</time></trkpt><trkpt lat="44.9479224" lon="9.780427"><ele>84.6</ele><time>2026-04-19T09:49:43.085Z</time></trkpt><trkpt lat="44.9479097" lon="9.780568"><ele>84.2</ele><time>2026-04-19T09:49:45.097Z</time></trkpt><trkpt lat="44.9478905" lon="9.7807"><ele>83.80000000000001</ele><time>2026-04-19T09:49:47.081Z</time></trkpt><trkpt lat="44.9478712" lon="9.780832"><ele>83.4</ele><time>2026-04-19T09:49:49.094Z</time></trkpt><trkpt lat="44.9478606" lon="9.7809748"><ele>83.0</ele><time>2026-04-19T09:49:51.088Z</time></trkpt><trkpt lat="44.9478428" lon="9.7811163"><ele>83.0</ele><time>2026-04-19T09:49:53.078Z</time></trkpt><trkpt lat="44.9478261" lon="9.7812559"><ele>83.0</ele><time>2026-04-19T09:49:55.093Z</time></trkpt><trkpt lat="44.9478147" lon="9.781406"><ele>83.0</ele><time>2026-04-19T09:49:57.081Z</time></trkpt><trkpt lat="44.9477958" lon="9.7815367"><ele>83.0</ele><time>2026-04-19T09:49:59.087Z</time></trkpt><trkpt lat="44.9477779" lon="9.7816763"><ele>83.0</ele><time>2026-04-19T09:50:01.082Z</time></trkpt><trkpt lat="44.9477611" lon="9.7818206"><ele>83.2</ele><time>2026-04-19T09:50:03.085Z</time></trkpt><trkpt lat="44.9477465" lon="9.7819584"><ele>83.4</ele><time>2026-04-19T09:50:05.092Z</time></trkpt><trkpt lat="44.9477397" lon="9.7820977"><ele>83.60000000000001</ele><time>2026-04-19T09:50:07.085Z</time></trkpt><trkpt lat="44.9477754" lon="9.7822101"><ele>83.80000000000001</ele><time>2026-04-19T09:50:09.086Z</time></trkpt><trkpt lat="44.9478604" lon="9.7822497"><ele>84.0</ele><time>2026-04-19T09:50:11.069Z</time></trkpt><trkpt lat="44.94796" lon="9.7822875"><ele>84.0</ele><time>2026-04-19T09:50:13.08Z</time></trkpt><trkpt lat="44.9480589" lon="9.7823237"><ele>84.0</ele><time>2026-04-19T09:50:15.095Z</time></trkpt><trkpt lat="44.9481487" lon="9.7823614"><ele>84.0</ele><time>2026-04-19T09:50:17.084Z</time></trkpt><trkpt lat="44.9482495" lon="9.7824025"><ele>84.0</ele><time>2026-04-19T09:50:19.077Z</time></trkpt><trkpt lat="44.948352" lon="9.7824355"><ele>84.0</ele><time>2026-04-19T09:50:21.089Z</time></trkpt><trkpt lat="44.9484549" lon="9.7824951"><ele>83.80000000000001</ele><time>2026-04-19T09:50:23.084Z</time></trkpt><trkpt lat="44.9485589" lon="9.7825273"><ele>83.60000000000001</ele><time>2026-04-19T09:50:25.094Z</time></trkpt><trkpt lat="44.9486624" lon="9.7825622"><ele>83.4</ele><time>2026-04-19T09:50:27.088Z</time></trkpt><trkpt lat="44.9487646" lon="9.7825996"><ele>83.2</ele><time>2026-04-19T09:50:29.088Z</time></trkpt><trkpt lat="44.9488693" lon="9.7826402"><ele>83.0</ele><time>2026-04-19T09:50:31.092Z</time></trkpt><trkpt lat="44.9489745" lon="9.7826753"><ele>83.0</ele><time>2026-04-19T09:50:33.089Z</time></trkpt><trkpt lat="44.9490786" lon="9.7827177"><ele>83.0</ele><time>2026-04-19T09:50:35.095Z</time></trkpt><trkpt lat="44.9491835" lon="9.7827535"><ele>83.0</ele><time>2026-04-19T09:50:37.099Z</time></trkpt><trkpt lat="44.9492868" lon="9.7827957"><ele>83.0</ele><time>2026-04-19T09:50:39.09Z</time></trkpt><trkpt lat="44.9493936" lon="9.7828451"><ele>83.0</ele><time>2026-04-19T09:50:41.089Z</time></trkpt><trkpt lat="44.9495028" lon="9.7828845"><ele>83.0</ele><time>2026-04-19T09:50:43.099Z</time></trkpt><trkpt lat="44.9496131" lon="9.782931"><ele>83.0</ele><time>2026-04-19T09:50:45.083Z</time></trkpt><trkpt lat="44.9497171" lon="9.7829696"><ele>83.0</ele><time>2026-04-19T09:50:47.091Z</time></trkpt><trkpt lat="44.9498281" lon="9.7830088"><ele>83.0</ele><time>2026-04-19T09:50:49.084Z</time></trkpt><trkpt lat="44.9499312" lon="9.7830366"><ele>83.0</ele><time>2026-04-19T09:50:51.084Z</time></trkpt><trkpt lat="44.9500352" lon="9.7830789"><ele>83.0</ele><time>2026-04-19T09:50:53.102Z</time></trkpt><trkpt lat="44.9501407" lon="9.7831239"><ele>83.0</ele><time>2026-04-19T09:50:55.087Z</time></trkpt><trkpt lat="44.9502468" lon="9.7831742"><ele>83.0</ele><time>2026-04-19T09:50:57.088Z</time></trkpt><trkpt lat="44.9503564" lon="9.7832043"><ele>83.0</ele><time>2026-04-19T09:50:59.088Z</time></trkpt><trkpt lat="44.9504694" lon="9.7832386"><ele>83.0</ele><time>2026-04-19T09:51:01.086Z</time></trkpt><trkpt lat="44.9505807" lon="9.7832674"><ele>83.0</ele><time>2026-04-19T09:51:03.084Z</time></trkpt><trkpt lat="44.9506889" lon="9.7832884"><ele>83.0</ele><time>2026-04-19T09:51:05.069Z</time></trkpt><trkpt lat="44.9507974" lon="9.7833016"><ele>83.0</ele><time>2026-04-19T09:51:07.088Z</time></trkpt><trkpt lat="44.9509087" lon="9.7833191"><ele>83.0</ele><time>2026-04-19T09:51:09.087Z</time></trkpt><trkpt lat="44.9510177" lon="9.783327"><ele>83.0</ele><time>2026-04-19T09:51:11.088Z</time></trkpt><trkpt lat="44.9511225" lon="9.7833407"><ele>83.2</ele><time>2026-04-19T09:51:13.099Z</time></trkpt><trkpt lat="44.9512244" lon="9.7833523"><ele>83.4</ele><time>2026-04-19T09:51:15.084Z</time></trkpt><trkpt lat="44.9513333" lon="9.783351"><ele>83.60000000000001</ele><time>2026-04-19T09:51:17.095Z</time></trkpt><trkpt lat="44.9514337" lon="9.7833529"><ele>83.80000000000001</ele><time>2026-04-19T09:51:19.091Z</time></trkpt><trkpt lat="44.9515319" lon="9.7833575"><ele>84.0</ele><time>2026-04-19T09:51:21.087Z</time></trkpt><trkpt lat="44.9516358" lon="9.7833715"><ele>83.4</ele><time>2026-04-19T09:51:23.086Z</time></trkpt><trkpt lat="44.9517334" lon="9.7833866"><ele>82.80000000000001</ele><time>2026-04-19T09:51:25.084Z</time></trkpt><trkpt lat="44.951838" lon="9.7834079"><ele>82.19999999999999</ele><time>2026-04-19T09:51:27.087Z</time></trkpt><trkpt lat="44.9519442" lon="9.7834301"><ele>81.6</ele><time>2026-04-19T09:51:29.092Z</time></trkpt><trkpt lat="44.952047" lon="9.783459"><ele>81.0</ele><time>2026-04-19T09:51:31.089Z</time></trkpt><trkpt lat="44.9521618" lon="9.7834908"><ele>81.0</ele><time>2026-04-19T09:51:33.092Z</time></trkpt><trkpt lat="44.9522766" lon="9.7835175"><ele>81.0</ele><time>2026-04-19T09:51:35.091Z</time></trkpt><trkpt lat="44.9523913" lon="9.7835458"><ele>81.0</ele><time>2026-04-19T09:51:37.103Z</time></trkpt><trkpt lat="44.952498" lon="9.7835685"><ele>81.0</ele><time>2026-04-19T09:51:39.091Z</time></trkpt><trkpt lat="44.9526031" lon="9.7835974"><ele>81.0</ele><time>2026-04-19T09:51:41.096Z</time></trkpt><trkpt lat="44.9527143" lon="9.7836165"><ele>81.0</ele><time>2026-04-19T09:51:43.097Z</time></trkpt><trkpt lat="44.9528281" lon="9.7836414"><ele>81.0</ele><time>2026-04-19T09:51:45.095Z</time></trkpt><trkpt lat="44.9529336" lon="9.783664"><ele>81.0</ele><time>2026-04-19T09:51:47.081Z</time></trkpt><trkpt lat="44.9530349" lon="9.783686"><ele>81.0</ele><time>2026-04-19T09:51:49.093Z</time></trkpt><trkpt lat="44.9531386" lon="9.7837106"><ele>81.0</ele><time>2026-04-19T09:51:51.089Z</time></trkpt><trkpt lat="44.9532483" lon="9.7837332"><ele>81.0</ele><time>2026-04-19T09:51:53.086Z</time></trkpt><trkpt lat="44.9533553" lon="9.7837557"><ele>81.0</ele><time>2026-04-19T09:51:55.093Z</time></trkpt><trkpt lat="44.9534515" lon="9.7837809"><ele>81.0</ele><time>2026-04-19T09:51:57.069Z</time></trkpt><trkpt lat="44.9535461" lon="9.7838107"><ele>81.0</ele><time>2026-04-19T09:51:59.088Z</time></trkpt><trkpt lat="44.953635" lon="9.7838144"><ele>81.0</ele><time>2026-04-19T09:52:01.087Z</time></trkpt><trkpt lat="44.9537187" lon="9.7838335"><ele>81.0</ele><time>2026-04-19T09:52:03.093Z</time></trkpt><trkpt lat="44.953811" lon="9.7838559"><ele>81.0</ele><time>2026-04-19T09:52:05.092Z</time></trkpt><trkpt lat="44.9539043" lon="9.7838707"><ele>81.0</ele><time>2026-04-19T09:52:07.078Z</time></trkpt><trkpt lat="44.9539976" lon="9.7838817"><ele>81.0</ele><time>2026-04-19T09:52:09.055Z</time></trkpt><trkpt lat="44.9540921" lon="9.7839069"><ele>81.0</ele><time>2026-04-19T09:52:11.087Z</time></trkpt><trkpt lat="44.9541866" lon="9.7839269"><ele>81.0</ele><time>2026-04-19T09:52:13.094Z</time></trkpt><trkpt lat="44.9542812" lon="9.7839535"><ele>81.0</ele><time>2026-04-19T09:52:15.083Z</time></trkpt><trkpt lat="44.9543799" lon="9.7839759"><ele>81.0</ele><time>2026-04-19T09:52:17.052Z</time></trkpt><trkpt lat="44.9544759" lon="9.7839959"><ele>81.0</ele><time>2026-04-19T09:52:19.063Z</time></trkpt><trkpt lat="44.9545741" lon="9.7840196"><ele>81.0</ele><time>2026-04-19T09:52:21.047Z</time></trkpt><trkpt lat="44.9546749" lon="9.7840357"><ele>81.0</ele><time>2026-04-19T09:52:23.048Z</time></trkpt><trkpt lat="44.9547723" lon="9.7840539"><ele>81.0</ele><time>2026-04-19T09:52:25.053Z</time></trkpt><trkpt lat="44.9548639" lon="9.7840755"><ele>81.0</ele><time>2026-04-19T09:52:27.061Z</time></trkpt><trkpt lat="44.9549575" lon="9.7841053"><ele>81.0</ele><time>2026-04-19T09:52:29.074Z</time></trkpt><trkpt lat="44.9550384" lon="9.7840959"><ele>81.0</ele><time>2026-04-19T09:52:31.074Z</time></trkpt><trkpt lat="44.9550522" lon="9.7840011"><ele>81.0</ele><time>2026-04-19T09:52:33.049Z</time></trkpt><trkpt lat="44.955068" lon="9.7838947"><ele>81.0</ele><time>2026-04-19T09:52:35.064Z</time></trkpt><trkpt lat="44.9550935" lon="9.7837842"><ele>81.0</ele><time>2026-04-19T09:52:37.062Z</time></trkpt><trkpt lat="44.9551195" lon="9.7836618"><ele>81.0</ele><time>2026-04-19T09:52:39.061Z</time></trkpt><trkpt lat="44.9551427" lon="9.7835307"><ele>81.0</ele><time>2026-04-19T09:52:41.088Z</time></trkpt><trkpt lat="44.9551748" lon="9.7833966"><ele>81.0</ele><time>2026-04-19T09:52:43.074Z</time></trkpt><trkpt lat="44.9551975" lon="9.7832572"><ele>81.0</ele><time>2026-04-19T09:52:45.078Z</time></trkpt><trkpt lat="44.9552253" lon="9.7831243"><ele>81.0</ele><time>2026-04-19T09:52:47.049Z</time></trkpt><trkpt lat="44.9552516" lon="9.7829778"><ele>81.0</ele><time>2026-04-19T09:52:49.091Z</time></trkpt><trkpt lat="44.9552752" lon="9.7828362"><ele>81.0</ele><time>2026-04-19T09:52:51.071Z</time></trkpt><trkpt lat="44.9553097" lon="9.7826997"><ele>81.0</ele><time>2026-04-19T09:52:53.081Z</time></trkpt><trkpt lat="44.9553407" lon="9.7825536"><ele>81.0</ele><time>2026-04-19T09:52:55.053Z</time></trkpt><trkpt lat="44.9553682" lon="9.7824069"><ele>81.0</ele><time>2026-04-19T09:52:57.051Z</time></trkpt><trkpt lat="44.955396" lon="9.7822564"><ele>81.0</ele><time>2026-04-19T09:52:59.079Z</time></trkpt><trkpt lat="44.9554165" lon="9.782105"><ele>81.0</ele><time>2026-04-19T09:53:01.076Z</time></trkpt><trkpt lat="44.9554347" lon="9.781947"><ele>81.0</ele><time>2026-04-19T09:53:03.083Z</time></trkpt><trkpt lat="44.9554594" lon="9.7817925"><ele>81.0</ele><time>2026-04-19T09:53:05.079Z</time></trkpt><trkpt lat="44.9554915" lon="9.7816424"><ele>81.0</ele><time>2026-04-19T09:53:07.091Z</time></trkpt><trkpt lat="44.9555168" lon="9.7814916"><ele>81.0</ele><time>2026-04-19T09:53:09.096Z</time></trkpt><trkpt lat="44.9555343" lon="9.7813343"><ele>81.0</ele><time>2026-04-19T09:53:11.083Z</time></trkpt><trkpt lat="44.9555592" lon="9.7811842"><ele>81.0</ele><time>2026-04-19T09:53:13.072Z</time></trkpt><trkpt lat="44.9555899" lon="9.7810271"><ele>81.25</ele><time>2026-04-19T09:53:15.084Z</time></trkpt><trkpt lat="44.9556206" lon="9.7808633"><ele>81.5</ele><time>2026-04-19T09:53:17.091Z</time></trkpt><trkpt lat="44.9556501" lon="9.7806963"><ele>81.75</ele><time>2026-04-19T09:53:19.081Z</time></trkpt><trkpt lat="44.9556831" lon="9.7805337"><ele>82.0</ele><time>2026-04-19T09:53:21.095Z</time></trkpt><trkpt lat="44.9557187" lon="9.7803757"><ele>82.0</ele><time>2026-04-19T09:53:23.091Z</time></trkpt><trkpt lat="44.9557691" lon="9.7802242"><ele>82.0</ele><time>2026-04-19T09:53:25.072Z</time></trkpt><trkpt lat="44.9558487" lon="9.7800868"><ele>82.0</ele><time>2026-04-19T09:53:27.082Z</time></trkpt><trkpt lat="44.9559432" lon="9.7799893"><ele>82.0</ele><time>2026-04-19T09:53:29.094Z</time></trkpt><trkpt lat="44.9560644" lon="9.7799571"><ele>81.75</ele><time>2026-04-19T09:53:31.085Z</time></trkpt><trkpt lat="44.9561826" lon="9.7799804"><ele>81.5</ele><time>2026-04-19T09:53:33.073Z</time></trkpt><trkpt lat="44.9562941" lon="9.7800155"><ele>81.25</ele><time>2026-04-19T09:53:35.087Z</time></trkpt><trkpt lat="44.9564154" lon="9.7800542"><ele>81.0</ele><time>2026-04-19T09:53:37.089Z</time></trkpt><trkpt lat="44.9565367" lon="9.7800897"><ele>81.0</ele><time>2026-04-19T09:53:39.106Z</time></trkpt><trkpt lat="44.9566571" lon="9.7801329"><ele>81.0</ele><time>2026-04-19T09:53:41.089Z</time></trkpt><trkpt lat="44.9567778" lon="9.7801619"><ele>81.0</ele><time>2026-04-19T09:53:43.088Z</time></trkpt><trkpt lat="44.956842" lon="9.7801713"><ele>81.0</ele><time>2026-04-19T09:53:44.072Z</time></trkpt><trkpt lat="44.9569053" lon="9.7801805"><ele>81.0</ele><time>2026-04-19T09:53:45.085Z</time></trkpt><trkpt lat="44.9570308" lon="9.7801954"><ele>81.0</ele><time>2026-04-19T09:53:47.086Z</time></trkpt><trkpt lat="44.9570966" lon="9.7802085"><ele>81.0</ele><time>2026-04-19T09:53:48.098Z</time></trkpt><trkpt lat="44.9571612" lon="9.7802274"><ele>81.0</ele><time>2026-04-19T09:53:49.092Z</time></trkpt><trkpt lat="44.957289" lon="9.780247"><ele>81.0</ele><time>2026-04-19T09:53:51.087Z</time></trkpt><trkpt lat="44.9573521" lon="9.7802645"><ele>81.0</ele><time>2026-04-19T09:53:52.093Z</time></trkpt><trkpt lat="44.9574709" lon="9.7802936"><ele>81.0</ele><time>2026-04-19T09:53:54.069Z</time></trkpt><trkpt lat="44.9575959" lon="9.7803173"><ele>80.6</ele><time>2026-04-19T09:53:56.073Z</time></trkpt><trkpt lat="44.9576589" lon="9.7803277"><ele>80.19999999999999</ele><time>2026-04-19T09:53:57.065Z</time></trkpt><trkpt lat="44.9577749" lon="9.7803652"><ele>79.80000000000001</ele><time>2026-04-19T09:53:59.083Z</time></trkpt><trkpt lat="44.9578974" lon="9.7804013"><ele>79.4</ele><time>2026-04-19T09:54:01.079Z</time></trkpt><trkpt lat="44.9580185" lon="9.7804337"><ele>79.0</ele><time>2026-04-19T09:54:03.089Z</time></trkpt><trkpt lat="44.9580815" lon="9.7804441"><ele>79.0</ele><time>2026-04-19T09:54:04.08Z</time></trkpt><trkpt lat="44.9582034" lon="9.7804805"><ele>79.0</ele><time>2026-04-19T09:54:06.078Z</time></trkpt><trkpt lat="44.9583226" lon="9.7805116"><ele>79.0</ele><time>2026-04-19T09:54:08.081Z</time></trkpt><trkpt lat="44.9584432" lon="9.7805417"><ele>79.0</ele><time>2026-04-19T09:54:10.087Z</time></trkpt><trkpt lat="44.958564" lon="9.7805712"><ele>78.83333333333333</ele><time>2026-04-19T09:54:12.075Z</time></trkpt><trkpt lat="44.9586824" lon="9.7806147"><ele>78.66666666666666</ele><time>2026-04-19T09:54:14.092Z</time></trkpt><trkpt lat="44.9587445" lon="9.7806307"><ele>78.5</ele><time>2026-04-19T09:54:15.083Z</time></trkpt><trkpt lat="44.9588076" lon="9.7806457"><ele>78.33333333333333</ele><time>2026-04-19T09:54:16.101Z</time></trkpt><trkpt lat="44.9588696" lon="9.7806614"><ele>78.16666666666667</ele><time>2026-04-19T09:54:17.086Z</time></trkpt><trkpt lat="44.9589912" lon="9.7806903"><ele>78.0</ele><time>2026-04-19T09:54:19.083Z</time></trkpt><trkpt lat="44.9591061" lon="9.7807238"><ele>78.5</ele><time>2026-04-19T09:54:21.096Z</time></trkpt><trkpt lat="44.9592238" lon="9.7807471"><ele>79.0</ele><time>2026-04-19T09:54:23.077Z</time></trkpt><trkpt lat="44.9593369" lon="9.7807725"><ele>79.5</ele><time>2026-04-19T09:54:25.075Z</time></trkpt><trkpt lat="44.9594511" lon="9.7807979"><ele>80.0</ele><time>2026-04-19T09:54:27.082Z</time></trkpt><trkpt lat="44.9595692" lon="9.7808239"><ele>80.0</ele><time>2026-04-19T09:54:29.071Z</time></trkpt><trkpt lat="44.9596841" lon="9.7808532"><ele>80.0</ele><time>2026-04-19T09:54:31.08Z</time></trkpt><trkpt lat="44.9598007" lon="9.7808796"><ele>80.0</ele><time>2026-04-19T09:54:33.095Z</time></trkpt><trkpt lat="44.9599147" lon="9.780912"><ele>80.0</ele><time>2026-04-19T09:54:35.07Z</time></trkpt><trkpt lat="44.9600301" lon="9.7809457"><ele>79.75</ele><time>2026-04-19T09:54:37.084Z</time></trkpt><trkpt lat="44.960147" lon="9.7809746"><ele>79.5</ele><time>2026-04-19T09:54:39.082Z</time></trkpt><trkpt lat="44.9602645" lon="9.7810045"><ele>79.25</ele><time>2026-04-19T09:54:41.089Z</time></trkpt><trkpt lat="44.9603768" lon="9.7810389"><ele>79.0</ele><time>2026-04-19T09:54:43.092Z</time></trkpt><trkpt lat="44.9604935" lon="9.7810641"><ele>78.75</ele><time>2026-04-19T09:54:45.084Z</time></trkpt><trkpt lat="44.9606034" lon="9.7810872"><ele>78.5</ele><time>2026-04-19T09:54:47.092Z</time></trkpt><trkpt lat="44.9607184" lon="9.7811072"><ele>78.25</ele><time>2026-04-19T09:54:49.086Z</time></trkpt><trkpt lat="44.9608366" lon="9.7811352"><ele>78.0</ele><time>2026-04-19T09:54:51.071Z</time></trkpt><trkpt lat="44.9609572" lon="9.7811586"><ele>77.5</ele><time>2026-04-19T09:54:53.083Z</time></trkpt><trkpt lat="44.9610754" lon="9.7811842"><ele>77.0</ele><time>2026-04-19T09:54:55.085Z</time></trkpt><trkpt lat="44.9611883" lon="9.7812118"><ele>76.5</ele><time>2026-04-19T09:54:57.083Z</time></trkpt><trkpt lat="44.961301" lon="9.7812312"><ele>76.0</ele><time>2026-04-19T09:54:59.071Z</time></trkpt><trkpt lat="44.9614171" lon="9.7812442"><ele>76.0</ele><time>2026-04-19T09:55:01.083Z</time></trkpt><trkpt lat="44.9615262" lon="9.7812632"><ele>76.0</ele><time>2026-04-19T09:55:03.091Z</time></trkpt><trkpt lat="44.96164" lon="9.7812874"><ele>76.0</ele><time>2026-04-19T09:55:05.089Z</time></trkpt><trkpt lat="44.961753" lon="9.781313"><ele>76.0</ele><time>2026-04-19T09:55:07.084Z</time></trkpt><trkpt lat="44.9618676" lon="9.7813295"><ele>76.0</ele><time>2026-04-19T09:55:09.09Z</time></trkpt><trkpt lat="44.9619833" lon="9.7813541"><ele>76.0</ele><time>2026-04-19T09:55:11.087Z</time></trkpt><trkpt lat="44.9620946" lon="9.7813817"><ele>76.0</ele><time>2026-04-19T09:55:13.084Z</time></trkpt><trkpt lat="44.9622089" lon="9.7813999"><ele>76.0</ele><time>2026-04-19T09:55:15.085Z</time></trkpt><trkpt lat="44.9623213" lon="9.7814188"><ele>76.0</ele><time>2026-04-19T09:55:17.084Z</time></trkpt><trkpt lat="44.9624406" lon="9.7814394"><ele>76.0</ele><time>2026-04-19T09:55:19.089Z</time></trkpt><trkpt lat="44.9625596" lon="9.7814671"><ele>76.0</ele><time>2026-04-19T09:55:21.092Z</time></trkpt><trkpt lat="44.9626784" lon="9.781488"><ele>76.0</ele><time>2026-04-19T09:55:23.086Z</time></trkpt><trkpt lat="44.9627979" lon="9.7815127"><ele>76.5</ele><time>2026-04-19T09:55:25.083Z</time></trkpt><trkpt lat="44.9629196" lon="9.7815336"><ele>77.0</ele><time>2026-04-19T09:55:27.086Z</time></trkpt><trkpt lat="44.963038" lon="9.7815585"><ele>77.5</ele><time>2026-04-19T09:55:29.091Z</time></trkpt><trkpt lat="44.9631596" lon="9.7815847"><ele>78.0</ele><time>2026-04-19T09:55:31.09Z</time></trkpt><trkpt lat="44.9632796" lon="9.7816108"><ele>77.5</ele><time>2026-04-19T09:55:33.087Z</time></trkpt><trkpt lat="44.963401" lon="9.7816244"><ele>77.0</ele><time>2026-04-19T09:55:35.085Z</time></trkpt><trkpt lat="44.9635112" lon="9.7816486"><ele>76.5</ele><time>2026-04-19T09:55:37.094Z</time></trkpt><trkpt lat="44.9636194" lon="9.7816745"><ele>76.0</ele><time>2026-04-19T09:55:39.087Z</time></trkpt><trkpt lat="44.9637334" lon="9.7816978"><ele>76.0</ele><time>2026-04-19T09:55:41.087Z</time></trkpt><trkpt lat="44.9638463" lon="9.7817248"><ele>76.0</ele><time>2026-04-19T09:55:43.087Z</time></trkpt><trkpt lat="44.9639542" lon="9.781731"><ele>76.0</ele><time>2026-04-19T09:55:45.08Z</time></trkpt><trkpt lat="44.9640582" lon="9.7817558"><ele>76.0</ele><time>2026-04-19T09:55:47.089Z</time></trkpt><trkpt lat="44.9641651" lon="9.7817922"><ele>76.0</ele><time>2026-04-19T09:55:49.081Z</time></trkpt><trkpt lat="44.9642768" lon="9.7818151"><ele>76.39999999999999</ele><time>2026-04-19T09:55:51.085Z</time></trkpt><trkpt lat="44.9643912" lon="9.7818411"><ele>76.8</ele><time>2026-04-19T09:55:53.081Z</time></trkpt><trkpt lat="44.9644561" lon="9.7818521"><ele>77.19999999999999</ele><time>2026-04-19T09:55:54.084Z</time></trkpt><trkpt lat="44.9645776" lon="9.7818763"><ele>77.6</ele><time>2026-04-19T09:55:56.079Z</time></trkpt><trkpt lat="44.9646917" lon="9.7818996"><ele>78.0</ele><time>2026-04-19T09:55:58.082Z</time></trkpt><trkpt lat="44.9648065" lon="9.7819163"><ele>78.0</ele><time>2026-04-19T09:56:00.08Z</time></trkpt><trkpt lat="44.964923" lon="9.7819489"><ele>78.0</ele><time>2026-04-19T09:56:02.085Z</time></trkpt><trkpt lat="44.9650267" lon="9.7819738"><ele>78.0</ele><time>2026-04-19T09:56:04.085Z</time></trkpt><trkpt lat="44.9651259" lon="9.7819888"><ele>78.0</ele><time>2026-04-19T09:56:06.078Z</time></trkpt><trkpt lat="44.9652241" lon="9.7820097"><ele>78.0</ele><time>2026-04-19T09:56:08.077Z</time></trkpt><trkpt lat="44.9653165" lon="9.7820269"><ele>78.0</ele><time>2026-04-19T09:56:10.083Z</time></trkpt><trkpt lat="44.965423" lon="9.7820351"><ele>78.0</ele><time>2026-04-19T09:56:12.076Z</time></trkpt><trkpt lat="44.96553" lon="9.782034"><ele>78.0</ele><time>2026-04-19T09:56:14.09Z</time></trkpt><trkpt lat="44.9656295" lon="9.782047"><ele>78.0</ele><time>2026-04-19T09:56:16.09Z</time></trkpt><trkpt lat="44.9657236" lon="9.7820573"><ele>78.0</ele><time>2026-04-19T09:56:18.095Z</time></trkpt><trkpt lat="44.9658238" lon="9.7820817"><ele>77.8</ele><time>2026-04-19T09:56:20.081Z</time></trkpt><trkpt lat="44.9659193" lon="9.7821071"><ele>77.6</ele><time>2026-04-19T09:56:22.097Z</time></trkpt><trkpt lat="44.9660125" lon="9.7821126"><ele>77.4</ele><time>2026-04-19T09:56:24.095Z</time></trkpt><trkpt lat="44.9661031" lon="9.7821356"><ele>77.2</ele><time>2026-04-19T09:56:26.09Z</time></trkpt><trkpt lat="44.9661923" lon="9.7821516"><ele>77.0</ele><time>2026-04-19T09:56:28.084Z</time></trkpt><trkpt lat="44.9662876" lon="9.7821837"><ele>77.0</ele><time>2026-04-19T09:56:30.092Z</time></trkpt><trkpt lat="44.9663806" lon="9.7821855"><ele>77.0</ele><time>2026-04-19T09:56:32.085Z</time></trkpt><trkpt lat="44.966457" lon="9.7821516"><ele>77.0</ele><time>2026-04-19T09:56:34.085Z</time></trkpt><trkpt lat="44.9665217" lon="9.782082"><ele>77.0</ele><time>2026-04-19T09:56:36.084Z</time></trkpt><trkpt lat="44.9665813" lon="9.7819917"><ele>77.0</ele><time>2026-04-19T09:56:38.08Z</time></trkpt><trkpt lat="44.9666157" lon="9.7819115"><ele>77.0</ele><time>2026-04-19T09:56:40.093Z</time></trkpt><trkpt lat="44.9666523" lon="9.7818353"><ele>77.0</ele><time>2026-04-19T09:56:42.088Z</time></trkpt><trkpt lat="44.9667098" lon="9.7817772"><ele>77.0</ele><time>2026-04-19T09:56:44.07Z</time></trkpt><trkpt lat="44.9667541" lon="9.7817121"><ele>77.0</ele><time>2026-04-19T09:56:46.074Z</time></trkpt><trkpt lat="44.966817" lon="9.7816945"><ele>77.0</ele><time>2026-04-19T09:56:48.084Z</time></trkpt><trkpt lat="44.9668806" lon="9.7817246"><ele>77.0</ele><time>2026-04-19T09:56:50.072Z</time></trkpt><trkpt lat="44.9669619" lon="9.781754"><ele>77.0</ele><time>2026-04-19T09:56:52.079Z</time></trkpt><trkpt lat="44.967059" lon="9.7817814"><ele>77.0</ele><time>2026-04-19T09:56:54.08Z</time></trkpt><trkpt lat="44.9671689" lon="9.7818352"><ele>77.0</ele><time>2026-04-19T09:56:56.066Z</time></trkpt><trkpt lat="44.967284" lon="9.7818908"><ele>77.0</ele><time>2026-04-19T09:56:58.067Z</time></trkpt><trkpt lat="44.9673952" lon="9.7819438"><ele>77.0</ele><time>2026-04-19T09:57:00.076Z</time></trkpt><trkpt lat="44.967499" lon="9.7819971"><ele>77.0</ele><time>2026-04-19T09:57:02.075Z</time></trkpt><trkpt lat="44.9676183" lon="9.7820504"><ele>77.0</ele><time>2026-04-19T09:57:04.074Z</time></trkpt><trkpt lat="44.9677335" lon="9.782105"><ele>77.0</ele><time>2026-04-19T09:57:06.077Z</time></trkpt><trkpt lat="44.9678486" lon="9.782163"><ele>77.0</ele><time>2026-04-19T09:57:08.076Z</time></trkpt><trkpt lat="44.9679102" lon="9.7821916"><ele>77.0</ele><time>2026-04-19T09:57:09.085Z</time></trkpt><trkpt lat="44.9679738" lon="9.7822214"><ele>77.0</ele><time>2026-04-19T09:57:10.082Z</time></trkpt><trkpt lat="44.9680352" lon="9.7822512"><ele>77.0</ele><time>2026-04-19T09:57:11.084Z</time></trkpt><trkpt lat="44.9681561" lon="9.7823122"><ele>77.0</ele><time>2026-04-19T09:57:13.058Z</time></trkpt><trkpt lat="44.9682189" lon="9.7823414"><ele>77.0</ele><time>2026-04-19T09:57:14.082Z</time></trkpt><trkpt lat="44.9682835" lon="9.7823718"><ele>77.0</ele><time>2026-04-19T09:57:15.094Z</time></trkpt><trkpt lat="44.9683489" lon="9.7824117"><ele>77.0</ele><time>2026-04-19T09:57:16.08Z</time></trkpt><trkpt lat="44.9684104" lon="9.7824426"><ele>77.0</ele><time>2026-04-19T09:57:17.068Z</time></trkpt><trkpt lat="44.9684755" lon="9.7824666"><ele>77.0</ele><time>2026-04-19T09:57:18.075Z</time></trkpt><trkpt lat="44.9685391" lon="9.7824966"><ele>77.0</ele><time>2026-04-19T09:57:19.087Z</time></trkpt><trkpt lat="44.9686044" lon="9.7825262"><ele>77.2</ele><time>2026-04-19T09:57:20.076Z</time></trkpt><trkpt lat="44.9687178" lon="9.7825958"><ele>77.4</ele><time>2026-04-19T09:57:22.087Z</time></trkpt><trkpt lat="44.968786" lon="9.7826178"><ele>77.6</ele><time>2026-04-19T09:57:23.09Z</time></trkpt><trkpt lat="44.9688464" lon="9.7826525"><ele>77.8</ele><time>2026-04-19T09:57:24.093Z</time></trkpt><trkpt lat="44.9689675" lon="9.7826988"><ele>78.0</ele><time>2026-04-19T09:57:26.085Z</time></trkpt><trkpt lat="44.9690298" lon="9.7827294"><ele>78.0</ele><time>2026-04-19T09:57:27.091Z</time></trkpt><trkpt lat="44.9690911" lon="9.7827592"><ele>78.0</ele><time>2026-04-19T09:57:28.086Z</time></trkpt><trkpt lat="44.9691551" lon="9.7827911"><ele>78.0</ele><time>2026-04-19T09:57:29.091Z</time></trkpt><trkpt lat="44.9692705" lon="9.7828413"><ele>78.0</ele><time>2026-04-19T09:57:31.08Z</time></trkpt><trkpt lat="44.9693375" lon="9.7828618"><ele>78.0</ele><time>2026-04-19T09:57:32.085Z</time></trkpt><trkpt lat="44.969461" lon="9.7828976"><ele>78.0</ele><time>2026-04-19T09:57:34.083Z</time></trkpt><trkpt lat="44.9695795" lon="9.7829392"><ele>77.8</ele><time>2026-04-19T09:57:36.084Z</time></trkpt><trkpt lat="44.9697012" lon="9.7829666"><ele>77.6</ele><time>2026-04-19T09:57:38.08Z</time></trkpt><trkpt lat="44.9697647" lon="9.7829854"><ele>77.4</ele><time>2026-04-19T09:57:39.09Z</time></trkpt><trkpt lat="44.9698889" lon="9.7830209"><ele>77.2</ele><time>2026-04-19T09:57:41.088Z</time></trkpt><trkpt lat="44.969954" lon="9.7830369"><ele>77.0</ele><time>2026-04-19T09:57:42.088Z</time></trkpt><trkpt lat="44.9700779" lon="9.7830786"><ele>76.5</ele><time>2026-04-19T09:57:44.086Z</time></trkpt><trkpt lat="44.9701401" lon="9.7830944"><ele>76.0</ele><time>2026-04-19T09:57:45.081Z</time></trkpt><trkpt lat="44.9702635" lon="9.783123"><ele>75.5</ele><time>2026-04-19T09:57:47.085Z</time></trkpt><trkpt lat="44.9703782" lon="9.7831472"><ele>75.0</ele><time>2026-04-19T09:57:49.061Z</time></trkpt><trkpt lat="44.9704413" lon="9.7831729"><ele>74.5</ele><time>2026-04-19T09:57:50.087Z</time></trkpt><trkpt lat="44.970505" lon="9.7831879"><ele>74.0</ele><time>2026-04-19T09:57:51.085Z</time></trkpt><trkpt lat="44.9706296" lon="9.7832404"><ele>74.0</ele><time>2026-04-19T09:57:53.083Z</time></trkpt><trkpt lat="44.9706936" lon="9.7832664"><ele>74.0</ele><time>2026-04-19T09:57:54.096Z</time></trkpt><trkpt lat="44.9708041" lon="9.7833341"><ele>74.0</ele><time>2026-04-19T09:57:56.083Z</time></trkpt><trkpt lat="44.9708601" lon="9.783379"><ele>74.0</ele><time>2026-04-19T09:57:57.094Z</time></trkpt><trkpt lat="44.970973" lon="9.7834511"><ele>74.0</ele><time>2026-04-19T09:57:59.08Z</time></trkpt><trkpt lat="44.9710797" lon="9.7835331"><ele>73.66666666666667</ele><time>2026-04-19T09:58:01.093Z</time></trkpt><trkpt lat="44.9711384" lon="9.7835767"><ele>73.33333333333334</ele><time>2026-04-19T09:58:02.084Z</time></trkpt><trkpt lat="44.9712539" lon="9.7836482"><ele>73.0</ele><time>2026-04-19T09:58:04.089Z</time></trkpt><trkpt lat="44.9713682" lon="9.7837148"><ele>72.66666666666667</ele><time>2026-04-19T09:58:06.084Z</time></trkpt><trkpt lat="44.9714266" lon="9.7837525"><ele>72.33333333333333</ele><time>2026-04-19T09:58:07.074Z</time></trkpt><trkpt lat="44.9714891" lon="9.7837869"><ele>72.0</ele><time>2026-04-19T09:58:08.079Z</time></trkpt><trkpt lat="44.9715509" lon="9.7838205"><ele>72.00000000000001</ele><time>2026-04-19T09:58:09.08Z</time></trkpt><trkpt lat="44.9716195" lon="9.7838547"><ele>72.0</ele><time>2026-04-19T09:58:10.078Z</time></trkpt><trkpt lat="44.971687" lon="9.7838781"><ele>72.0</ele><time>2026-04-19T09:58:11.09Z</time></trkpt><trkpt lat="44.9717546" lon="9.7839025"><ele>72.0</ele><time>2026-04-19T09:58:12.078Z</time></trkpt><trkpt lat="44.9718218" lon="9.7839219"><ele>72.0</ele><time>2026-04-19T09:58:13.086Z</time></trkpt><trkpt lat="44.971886" lon="9.7839442"><ele>72.00000000000001</ele><time>2026-04-19T09:58:14.094Z</time></trkpt><trkpt lat="44.9719526" lon="9.7839637"><ele>72.0</ele><time>2026-04-19T09:58:15.088Z</time></trkpt><trkpt lat="44.9720193" lon="9.7839809"><ele>71.85714285714286</ele><time>2026-04-19T09:58:16.087Z</time></trkpt><trkpt lat="44.9720813" lon="9.784002"><ele>71.71428571428572</ele><time>2026-04-19T09:58:17.09Z</time></trkpt><trkpt lat="44.9721446" lon="9.7840214"><ele>71.57142857142857</ele><time>2026-04-19T09:58:18.068Z</time></trkpt><trkpt lat="44.9722075" lon="9.7840429"><ele>71.42857142857143</ele><time>2026-04-19T09:58:19.08Z</time></trkpt><trkpt lat="44.9722728" lon="9.7840615"><ele>71.28571428571428</ele><time>2026-04-19T09:58:20.078Z</time></trkpt><trkpt lat="44.9723362" lon="9.7840769"><ele>71.14285714285714</ele><time>2026-04-19T09:58:21.08Z</time></trkpt><trkpt lat="44.9723998" lon="9.7841001"><ele>71.0</ele><time>2026-04-19T09:58:22.081Z</time></trkpt><trkpt lat="44.9724673" lon="9.7841213"><ele>70.85714285714286</ele><time>2026-04-19T09:58:23.082Z</time></trkpt><trkpt lat="44.9725322" lon="9.784139"><ele>70.71428571428571</ele><time>2026-04-19T09:58:24.115Z</time></trkpt><trkpt lat="44.9725983" lon="9.7841549"><ele>70.57142857142857</ele><time>2026-04-19T09:58:25.083Z</time></trkpt><trkpt lat="44.9726631" lon="9.7841781"><ele>70.42857142857143</ele><time>2026-04-19T09:58:26.08Z</time></trkpt><trkpt lat="44.9727258" lon="9.7841997"><ele>70.28571428571428</ele><time>2026-04-19T09:58:27.08Z</time></trkpt><trkpt lat="44.972792" lon="9.7842252"><ele>70.14285714285714</ele><time>2026-04-19T09:58:28.081Z</time></trkpt><trkpt lat="44.9728602" lon="9.784249"><ele>70.0</ele><time>2026-04-19T09:58:29.092Z</time></trkpt><trkpt lat="44.9729278" lon="9.7842719"><ele>70.0</ele><time>2026-04-19T09:58:30.086Z</time></trkpt><trkpt lat="44.9729944" lon="9.7842943"><ele>70.0</ele><time>2026-04-19T09:58:31.089Z</time></trkpt><trkpt lat="44.973059" lon="9.7843174"><ele>70.0</ele><time>2026-04-19T09:58:32.068Z</time></trkpt><trkpt lat="44.9731222" lon="9.7843408"><ele>70.0</ele><time>2026-04-19T09:58:33.086Z</time></trkpt><trkpt lat="44.9731835" lon="9.7843674"><ele>70.0</ele><time>2026-04-19T09:58:34.081Z</time></trkpt><trkpt lat="44.9732491" lon="9.7843906"><ele>70.0</ele><time>2026-04-19T09:58:35.079Z</time></trkpt><trkpt lat="44.973315" lon="9.7844158"><ele>70.0</ele><time>2026-04-19T09:58:36.077Z</time></trkpt><trkpt lat="44.9733826" lon="9.7844388"><ele>70.0</ele><time>2026-04-19T09:58:37.083Z</time></trkpt><trkpt lat="44.9734476" lon="9.7844614"><ele>70.0</ele><time>2026-04-19T09:58:38.093Z</time></trkpt><trkpt lat="44.9735111" lon="9.7844901"><ele>70.0</ele><time>2026-04-19T09:58:39.083Z</time></trkpt><trkpt lat="44.9735761" lon="9.7845176"><ele>70.0</ele><time>2026-04-19T09:58:40.081Z</time></trkpt><trkpt lat="44.9736365" lon="9.7845448"><ele>70.0</ele><time>2026-04-19T09:58:41.09Z</time></trkpt><trkpt lat="44.9737007" lon="9.7845703"><ele>70.0</ele><time>2026-04-19T09:58:42.087Z</time></trkpt><trkpt lat="44.9737681" lon="9.7846013"><ele>70.0</ele><time>2026-04-19T09:58:43.084Z</time></trkpt><trkpt lat="44.9738315" lon="9.7846298"><ele>70.0</ele><time>2026-04-19T09:58:44.081Z</time></trkpt><trkpt lat="44.973899" lon="9.7846576"><ele>70.0</ele><time>2026-04-19T09:58:45.087Z</time></trkpt><trkpt lat="44.9739672" lon="9.7846842"><ele>70.0</ele><time>2026-04-19T09:58:46.082Z</time></trkpt><trkpt lat="44.9740297" lon="9.7847158"><ele>70.0</ele><time>2026-04-19T09:58:47.085Z</time></trkpt><trkpt lat="44.9740989" lon="9.7847505"><ele>70.0</ele><time>2026-04-19T09:58:48.095Z</time></trkpt><trkpt lat="44.9741637" lon="9.784779"><ele>70.0</ele><time>2026-04-19T09:58:49.083Z</time></trkpt><trkpt lat="44.9742296" lon="9.7848026"><ele>70.0</ele><time>2026-04-19T09:58:50.092Z</time></trkpt><trkpt lat="44.9742955" lon="9.784831"><ele>69.85714285714286</ele><time>2026-04-19T09:58:51.093Z</time></trkpt><trkpt lat="44.9743586" lon="9.7848586"><ele>69.71428571428572</ele><time>2026-04-19T09:58:52.083Z</time></trkpt><trkpt lat="44.9744232" lon="9.7848876"><ele>69.57142857142857</ele><time>2026-04-19T09:58:53.085Z</time></trkpt><trkpt lat="44.9744888" lon="9.784916"><ele>69.42857142857143</ele><time>2026-04-19T09:58:54.088Z</time></trkpt><trkpt lat="44.9745531" lon="9.7849449"><ele>69.28571428571429</ele><time>2026-04-19T09:58:55.088Z</time></trkpt><trkpt lat="44.9746212" lon="9.7849725"><ele>69.14285714285714</ele><time>2026-04-19T09:58:56.081Z</time></trkpt><trkpt lat="44.9746893" lon="9.7850023"><ele>69.0</ele><time>2026-04-19T09:58:57.087Z</time></trkpt><trkpt lat="44.9747553" lon="9.7850284"><ele>69.0</ele><time>2026-04-19T09:58:58.082Z</time></trkpt><trkpt lat="44.9748236" lon="9.7850625"><ele>69.0</ele><time>2026-04-19T09:58:59.08Z</time></trkpt><trkpt lat="44.9748921" lon="9.7850952"><ele>69.0</ele><time>2026-04-19T09:59:00.083Z</time></trkpt><trkpt lat="44.9749595" lon="9.7851285"><ele>69.0</ele><time>2026-04-19T09:59:01.081Z</time></trkpt><trkpt lat="44.9750241" lon="9.7851561"><ele>69.0</ele><time>2026-04-19T09:59:02.087Z</time></trkpt><trkpt lat="44.9750867" lon="9.7851861"><ele>69.0</ele><time>2026-04-19T09:59:03.086Z</time></trkpt><trkpt lat="44.9751568" lon="9.7852199"><ele>69.0</ele><time>2026-04-19T09:59:04.087Z</time></trkpt><trkpt lat="44.9752242" lon="9.7852505"><ele>69.0</ele><time>2026-04-19T09:59:05.069Z</time></trkpt><trkpt lat="44.9752909" lon="9.785284"><ele>69.0</ele><time>2026-04-19T09:59:06.09Z</time></trkpt><trkpt lat="44.975358" lon="9.785316"><ele>69.0</ele><time>2026-04-19T09:59:07.079Z</time></trkpt><trkpt lat="44.9754241" lon="9.7853458"><ele>69.0</ele><time>2026-04-19T09:59:08.079Z</time></trkpt><trkpt lat="44.9754883" lon="9.7853793"><ele>69.0</ele><time>2026-04-19T09:59:09.081Z</time></trkpt><trkpt lat="44.975555" lon="9.7854124"><ele>69.0</ele><time>2026-04-19T09:59:10.082Z</time></trkpt><trkpt lat="44.9756253" lon="9.7854416"><ele>69.0</ele><time>2026-04-19T09:59:11.088Z</time></trkpt><trkpt lat="44.9756916" lon="9.7854684"><ele>69.0</ele><time>2026-04-19T09:59:12.089Z</time></trkpt><trkpt lat="44.9757595" lon="9.7855028"><ele>69.0</ele><time>2026-04-19T09:59:13.093Z</time></trkpt><trkpt lat="44.975827" lon="9.7855343"><ele>69.0</ele><time>2026-04-19T09:59:14.091Z</time></trkpt><trkpt lat="44.9758901" lon="9.7855663"><ele>69.0</ele><time>2026-04-19T09:59:15.084Z</time></trkpt><trkpt lat="44.9759548" lon="9.7856005"><ele>69.0</ele><time>2026-04-19T09:59:16.084Z</time></trkpt><trkpt lat="44.9760226" lon="9.7856415"><ele>69.0</ele><time>2026-04-19T09:59:17.089Z</time></trkpt><trkpt lat="44.9760862" lon="9.7856772"><ele>69.0</ele><time>2026-04-19T09:59:18.074Z</time></trkpt><trkpt lat="44.9761532" lon="9.7857122"><ele>69.16666666666667</ele><time>2026-04-19T09:59:19.09Z</time></trkpt><trkpt lat="44.9762189" lon="9.7857442"><ele>69.33333333333333</ele><time>2026-04-19T09:59:20.083Z</time></trkpt><trkpt lat="44.9762838" lon="9.7857835"><ele>69.5</ele><time>2026-04-19T09:59:21.08Z</time></trkpt><trkpt lat="44.9763464" lon="9.7858136"><ele>69.66666666666666</ele><time>2026-04-19T09:59:22.086Z</time></trkpt><trkpt lat="44.9764691" lon="9.7858821"><ele>69.83333333333333</ele><time>2026-04-19T09:59:24.087Z</time></trkpt><trkpt lat="44.9765326" lon="9.7859183"><ele>70.0</ele><time>2026-04-19T09:59:25.095Z</time></trkpt><trkpt lat="44.9765943" lon="9.7859497"><ele>70.0</ele><time>2026-04-19T09:59:26.081Z</time></trkpt><trkpt lat="44.9766559" lon="9.7859844"><ele>70.0</ele><time>2026-04-19T09:59:27.085Z</time></trkpt><trkpt lat="44.9767253" lon="9.7860182"><ele>70.0</ele><time>2026-04-19T09:59:28.096Z</time></trkpt><trkpt lat="44.9767881" lon="9.7860476"><ele>70.0</ele><time>2026-04-19T09:59:29.093Z</time></trkpt><trkpt lat="44.9768523" lon="9.7860847"><ele>70.0</ele><time>2026-04-19T09:59:30.083Z</time></trkpt><trkpt lat="44.9769183" lon="9.7861142"><ele>70.0</ele><time>2026-04-19T09:59:31.096Z</time></trkpt><trkpt lat="44.9769814" lon="9.78615"><ele>70.0</ele><time>2026-04-19T09:59:32.085Z</time></trkpt><trkpt lat="44.9770485" lon="9.7861794"><ele>69.83333333333333</ele><time>2026-04-19T09:59:33.084Z</time></trkpt><trkpt lat="44.9771112" lon="9.7862117"><ele>69.66666666666666</ele><time>2026-04-19T09:59:34.087Z</time></trkpt><trkpt lat="44.9772316" lon="9.7862743"><ele>69.5</ele><time>2026-04-19T09:59:36.089Z</time></trkpt><trkpt lat="44.9772955" lon="9.7863025"><ele>69.33333333333333</ele><time>2026-04-19T09:59:37.089Z</time></trkpt><trkpt lat="44.9773562" lon="9.7863385"><ele>69.16666666666667</ele><time>2026-04-19T09:59:38.086Z</time></trkpt><trkpt lat="44.9774166" lon="9.7863698"><ele>69.0</ele><time>2026-04-19T09:59:39.089Z</time></trkpt><trkpt lat="44.9774824" lon="9.7864025"><ele>69.28571428571429</ele><time>2026-04-19T09:59:40.09Z</time></trkpt><trkpt lat="44.9775472" lon="9.7864333"><ele>69.57142857142858</ele><time>2026-04-19T09:59:41.092Z</time></trkpt><trkpt lat="44.9776148" lon="9.786471"><ele>69.85714285714286</ele><time>2026-04-19T09:59:42.102Z</time></trkpt><trkpt lat="44.9776766" lon="9.7865022"><ele>70.14285714285714</ele><time>2026-04-19T09:59:43.08Z</time></trkpt><trkpt lat="44.9777452" lon="9.7865314"><ele>70.42857142857142</ele><time>2026-04-19T09:59:44.088Z</time></trkpt><trkpt lat="44.9778069" lon="9.7865624"><ele>70.71428571428571</ele><time>2026-04-19T09:59:45.085Z</time></trkpt><trkpt lat="44.977866" lon="9.7865984"><ele>71.0</ele><time>2026-04-19T09:59:46.081Z</time></trkpt><trkpt lat="44.977932" lon="9.7866296"><ele>71.0</ele><time>2026-04-19T09:59:47.087Z</time></trkpt><trkpt lat="44.977996" lon="9.786663"><ele>71.0</ele><time>2026-04-19T09:59:48.082Z</time></trkpt><trkpt lat="44.9780579" lon="9.7866975"><ele>71.0</ele><time>2026-04-19T09:59:49.079Z</time></trkpt><trkpt lat="44.9781188" lon="9.786735"><ele>71.0</ele><time>2026-04-19T09:59:50.066Z</time></trkpt><trkpt lat="44.9781783" lon="9.7867666"><ele>71.0</ele><time>2026-04-19T09:59:51.088Z</time></trkpt><trkpt lat="44.9782401" lon="9.7868018"><ele>71.0</ele><time>2026-04-19T09:59:52.089Z</time></trkpt><trkpt lat="44.9783" lon="9.7868296"><ele>71.0</ele><time>2026-04-19T09:59:53.08Z</time></trkpt><trkpt lat="44.9783619" lon="9.7868593"><ele>70.71428571428571</ele><time>2026-04-19T09:59:54.084Z</time></trkpt><trkpt lat="44.978422" lon="9.7868906"><ele>70.42857142857142</ele><time>2026-04-19T09:59:55.078Z</time></trkpt><trkpt lat="44.978485" lon="9.7869246"><ele>70.14285714285714</ele><time>2026-04-19T09:59:56.088Z</time></trkpt><trkpt lat="44.9785492" lon="9.7869587"><ele>69.85714285714286</ele><time>2026-04-19T09:59:57.093Z</time></trkpt><trkpt lat="44.9786095" lon="9.7869904"><ele>69.57142857142858</ele><time>2026-04-19T09:59:58.085Z</time></trkpt><trkpt lat="44.9786716" lon="9.7870261"><ele>69.28571428571429</ele><time>2026-04-19T09:59:59.088Z</time></trkpt><trkpt lat="44.9787336" lon="9.7870627"><ele>69.0</ele><time>2026-04-19T10:00:00.086Z</time></trkpt><trkpt lat="44.9787947" lon="9.7870906"><ele>69.0</ele><time>2026-04-19T10:00:01.092Z</time></trkpt><trkpt lat="44.9788558" lon="9.7871266"><ele>69.0</ele><time>2026-04-19T10:00:02.088Z</time></trkpt><trkpt lat="44.978921" lon="9.7871577"><ele>69.0</ele><time>2026-04-19T10:00:03.087Z</time></trkpt><trkpt lat="44.9789828" lon="9.7871869"><ele>69.0</ele><time>2026-04-19T10:00:04.088Z</time></trkpt><trkpt lat="44.9790441" lon="9.7872199"><ele>69.0</ele><time>2026-04-19T10:00:05.091Z</time></trkpt><trkpt lat="44.9791052" lon="9.7872564"><ele>69.0</ele><time>2026-04-19T10:00:06.093Z</time></trkpt><trkpt lat="44.9791696" lon="9.7872815"><ele>69.0</ele><time>2026-04-19T10:00:07.082Z</time></trkpt><trkpt lat="44.9792299" lon="9.7873135"><ele>68.85714285714286</ele><time>2026-04-19T10:00:08.071Z</time></trkpt><trkpt lat="44.9792938" lon="9.7873452"><ele>68.71428571428572</ele><time>2026-04-19T10:00:09.085Z</time></trkpt><trkpt lat="44.9793562" lon="9.787379"><ele>68.57142857142857</ele><time>2026-04-19T10:00:10.103Z</time></trkpt><trkpt lat="44.979417" lon="9.7874094"><ele>68.42857142857143</ele><time>2026-04-19T10:00:11.087Z</time></trkpt><trkpt lat="44.9794793" lon="9.7874286"><ele>68.28571428571428</ele><time>2026-04-19T10:00:12.093Z</time></trkpt><trkpt lat="44.9795468" lon="9.7874334"><ele>68.14285714285714</ele><time>2026-04-19T10:00:13.082Z</time></trkpt><trkpt lat="44.9796096" lon="9.7874194"><ele>68.0</ele><time>2026-04-19T10:00:14.089Z</time></trkpt><trkpt lat="44.9796724" lon="9.7873836"><ele>67.99999999999999</ele><time>2026-04-19T10:00:15.083Z</time></trkpt><trkpt lat="44.9797272" lon="9.7873296"><ele>68.0</ele><time>2026-04-19T10:00:16.085Z</time></trkpt><trkpt lat="44.9797738" lon="9.7872566"><ele>68.0</ele><time>2026-04-19T10:00:17.084Z</time></trkpt><trkpt lat="44.9798127" lon="9.7871732"><ele>68.0</ele><time>2026-04-19T10:00:18.088Z</time></trkpt><trkpt lat="44.9798516" lon="9.7870945"><ele>68.0</ele><time>2026-04-19T10:00:19.088Z</time></trkpt><trkpt lat="44.9798978" lon="9.7870243"><ele>67.99999999999999</ele><time>2026-04-19T10:00:20.092Z</time></trkpt><trkpt lat="44.9799603" lon="9.7869726"><ele>68.0</ele><time>2026-04-19T10:00:21.082Z</time></trkpt><trkpt lat="44.980021" lon="9.7869409"><ele>67.71428571428571</ele><time>2026-04-19T10:00:22.066Z</time></trkpt><trkpt lat="44.9800873" lon="9.7869183"><ele>67.42857142857143</ele><time>2026-04-19T10:00:23.082Z</time></trkpt><trkpt lat="44.9801569" lon="9.7869147"><ele>67.14285714285714</ele><time>2026-04-19T10:00:24.086Z</time></trkpt><trkpt lat="44.9802254" lon="9.7869306"><ele>66.85714285714286</ele><time>2026-04-19T10:00:25.087Z</time></trkpt><trkpt lat="44.9803007" lon="9.7869582"><ele>66.57142857142857</ele><time>2026-04-19T10:00:26.067Z</time></trkpt><trkpt lat="44.9803595" lon="9.7869999"><ele>66.28571428571428</ele><time>2026-04-19T10:00:27.087Z</time></trkpt><trkpt lat="44.9804165" lon="9.7870432"><ele>66.0</ele><time>2026-04-19T10:00:28.095Z</time></trkpt><trkpt lat="44.9805276" lon="9.7871332"><ele>66.0</ele><time>2026-04-19T10:00:30.089Z</time></trkpt><trkpt lat="44.9806366" lon="9.7872164"><ele>66.0</ele><time>2026-04-19T10:00:32.091Z</time></trkpt><trkpt lat="44.9807446" lon="9.7872995"><ele>66.0</ele><time>2026-04-19T10:00:34.086Z</time></trkpt><trkpt lat="44.9808021" lon="9.7873421"><ele>66.0</ele><time>2026-04-19T10:00:35.097Z</time></trkpt><trkpt lat="44.9808611" lon="9.7873875"><ele>66.0</ele><time>2026-04-19T10:00:36.09Z</time></trkpt><trkpt lat="44.9809706" lon="9.7874694"><ele>66.0</ele><time>2026-04-19T10:00:38.088Z</time></trkpt><trkpt lat="44.9810265" lon="9.7875149"><ele>66.0</ele><time>2026-04-19T10:00:39.087Z</time></trkpt><trkpt lat="44.9810835" lon="9.7875584"><ele>66.0</ele><time>2026-04-19T10:00:40.085Z</time></trkpt><trkpt lat="44.9811411" lon="9.7876032"><ele>66.0</ele><time>2026-04-19T10:00:41.089Z</time></trkpt><trkpt lat="44.9811978" lon="9.7876472"><ele>66.0</ele><time>2026-04-19T10:00:42.079Z</time></trkpt><trkpt lat="44.9812582" lon="9.7876911"><ele>66.0</ele><time>2026-04-19T10:00:43.082Z</time></trkpt><trkpt lat="44.9813175" lon="9.7877339"><ele>66.0</ele><time>2026-04-19T10:00:44.084Z</time></trkpt><trkpt lat="44.9813757" lon="9.7877784"><ele>66.0</ele><time>2026-04-19T10:00:45.081Z</time></trkpt><trkpt lat="44.9814339" lon="9.7878284"><ele>66.0</ele><time>2026-04-19T10:00:46.082Z</time></trkpt><trkpt lat="44.9814891" lon="9.7878723"><ele>66.0</ele><time>2026-04-19T10:00:47.085Z</time></trkpt><trkpt lat="44.9815472" lon="9.7879189"><ele>66.0</ele><time>2026-04-19T10:00:48.079Z</time></trkpt><trkpt lat="44.9816045" lon="9.7879577"><ele>66.0</ele><time>2026-04-19T10:00:49.095Z</time></trkpt><trkpt lat="44.9816622" lon="9.7880001"><ele>66.0</ele><time>2026-04-19T10:00:50.092Z</time></trkpt><trkpt lat="44.981716" lon="9.7880466"><ele>66.0</ele><time>2026-04-19T10:00:51.094Z</time></trkpt><trkpt lat="44.9817713" lon="9.7880896"><ele>66.0</ele><time>2026-04-19T10:00:52.085Z</time></trkpt><trkpt lat="44.9818773" lon="9.7881726"><ele>66.0</ele><time>2026-04-19T10:00:54.092Z</time></trkpt><trkpt lat="44.9819333" lon="9.7882171"><ele>66.0</ele><time>2026-04-19T10:00:55.084Z</time></trkpt><trkpt lat="44.9819934" lon="9.7882593"><ele>66.0</ele><time>2026-04-19T10:00:56.092Z</time></trkpt><trkpt lat="44.9820493" lon="9.7883039"><ele>66.0</ele><time>2026-04-19T10:00:57.085Z</time></trkpt><trkpt lat="44.9821064" lon="9.7883518"><ele>66.0</ele><time>2026-04-19T10:00:58.09Z</time></trkpt><trkpt lat="44.9822177" lon="9.7884353"><ele>66.0</ele><time>2026-04-19T10:01:00.082Z</time></trkpt><trkpt lat="44.982329" lon="9.7885194"><ele>66.0</ele><time>2026-04-19T10:01:02.083Z</time></trkpt><trkpt lat="44.9823858" lon="9.7885587"><ele>66.0</ele><time>2026-04-19T10:01:03.091Z</time></trkpt><trkpt lat="44.9824424" lon="9.7886023"><ele>66.0</ele><time>2026-04-19T10:01:04.076Z</time></trkpt><trkpt lat="44.9825514" lon="9.7886894"><ele>66.0</ele><time>2026-04-19T10:01:06.093Z</time></trkpt><trkpt lat="44.9826663" lon="9.788763"><ele>66.0</ele><time>2026-04-19T10:01:08.078Z</time></trkpt><trkpt lat="44.9827272" lon="9.7887961"><ele>66.0</ele><time>2026-04-19T10:01:09.081Z</time></trkpt><trkpt lat="44.9828526" lon="9.7888058"><ele>66.0</ele><time>2026-04-19T10:01:11.086Z</time></trkpt><trkpt lat="44.9829142" lon="9.7887746"><ele>66.0</ele><time>2026-04-19T10:01:12.076Z</time></trkpt><trkpt lat="44.9829742" lon="9.7887282"><ele>66.0</ele><time>2026-04-19T10:01:13.082Z</time></trkpt><trkpt lat="44.9830296" lon="9.7886713"><ele>66.0</ele><time>2026-04-19T10:01:14.081Z</time></trkpt><trkpt lat="44.9830863" lon="9.7886137"><ele>66.0</ele><time>2026-04-19T10:01:15.086Z</time></trkpt><trkpt lat="44.9831472" lon="9.7885649"><ele>66.0</ele><time>2026-04-19T10:01:16.082Z</time></trkpt><trkpt lat="44.983211" lon="9.788532"><ele>66.0</ele><time>2026-04-19T10:01:17.085Z</time></trkpt><trkpt lat="44.9832798" lon="9.7885138"><ele>66.0</ele><time>2026-04-19T10:01:18.092Z</time></trkpt><trkpt lat="44.9833446" lon="9.7885266"><ele>66.0</ele><time>2026-04-19T10:01:19.091Z</time></trkpt><trkpt lat="44.983407" lon="9.7885428"><ele>66.0</ele><time>2026-04-19T10:01:20.082Z</time></trkpt><trkpt lat="44.9834704" lon="9.788562"><ele>66.0</ele><time>2026-04-19T10:01:21.072Z</time></trkpt><trkpt lat="44.9835395" lon="9.7885806"><ele>65.85714285714286</ele><time>2026-04-19T10:01:22.088Z</time></trkpt><trkpt lat="44.9836065" lon="9.7885988"><ele>65.71428571428572</ele><time>2026-04-19T10:01:23.089Z</time></trkpt><trkpt lat="44.9836735" lon="9.788618"><ele>65.57142857142858</ele><time>2026-04-19T10:01:24.092Z</time></trkpt><trkpt lat="44.98374" lon="9.788637"><ele>65.42857142857143</ele><time>2026-04-19T10:01:25.094Z</time></trkpt><trkpt lat="44.9838042" lon="9.7886606"><ele>65.28571428571429</ele><time>2026-04-19T10:01:26.082Z</time></trkpt><trkpt lat="44.9838681" lon="9.7886822"><ele>65.14285714285715</ele><time>2026-04-19T10:01:27.086Z</time></trkpt><trkpt lat="44.9839309" lon="9.7887064"><ele>65.0</ele><time>2026-04-19T10:01:28.085Z</time></trkpt><trkpt lat="44.9839947" lon="9.7887289"><ele>65.00000000000001</ele><time>2026-04-19T10:01:29.092Z</time></trkpt><trkpt lat="44.984058" lon="9.7887497"><ele>65.0</ele><time>2026-04-19T10:01:30.089Z</time></trkpt><trkpt lat="44.9841233" lon="9.7887756"><ele>65.0</ele><time>2026-04-19T10:01:31.085Z</time></trkpt><trkpt lat="44.9841858" lon="9.7887992"><ele>65.0</ele><time>2026-04-19T10:01:32.083Z</time></trkpt><trkpt lat="44.9842495" lon="9.788823"><ele>65.0</ele><time>2026-04-19T10:01:33.084Z</time></trkpt><trkpt lat="44.9843138" lon="9.7888468"><ele>65.00000000000001</ele><time>2026-04-19T10:01:34.086Z</time></trkpt><trkpt lat="44.9843769" lon="9.7888698"><ele>65.0</ele><time>2026-04-19T10:01:35.092Z</time></trkpt><trkpt lat="44.9844397" lon="9.788893"><ele>64.57142857142858</ele><time>2026-04-19T10:01:36.084Z</time></trkpt><trkpt lat="44.984506" lon="9.7889144"><ele>64.14285714285714</ele><time>2026-04-19T10:01:37.087Z</time></trkpt><trkpt lat="44.9845684" lon="9.7889369"><ele>63.71428571428572</ele><time>2026-04-19T10:01:38.089Z</time></trkpt><trkpt lat="44.9846332" lon="9.7889608"><ele>63.28571428571429</ele><time>2026-04-19T10:01:39.085Z</time></trkpt><trkpt lat="44.9846961" lon="9.7889823"><ele>62.85714285714286</ele><time>2026-04-19T10:01:40.085Z</time></trkpt><trkpt lat="44.9847619" lon="9.7890046"><ele>62.42857142857143</ele><time>2026-04-19T10:01:41.092Z</time></trkpt><trkpt lat="44.984829" lon="9.7890268"><ele>62.0</ele><time>2026-04-19T10:01:42.078Z</time></trkpt><trkpt lat="44.9848942" lon="9.7890491"><ele>62.0</ele><time>2026-04-19T10:01:43.09Z</time></trkpt><trkpt lat="44.9849577" lon="9.7890754"><ele>62.00000000000001</ele><time>2026-04-19T10:01:44.093Z</time></trkpt><trkpt lat="44.9850222" lon="9.7891012"><ele>62.0</ele><time>2026-04-19T10:01:45.084Z</time></trkpt><trkpt lat="44.9850882" lon="9.7891253"><ele>62.0</ele><time>2026-04-19T10:01:46.089Z</time></trkpt><trkpt lat="44.9851552" lon="9.7891462"><ele>62.00000000000001</ele><time>2026-04-19T10:01:47.092Z</time></trkpt><trkpt lat="44.985221" lon="9.789166"><ele>62.0</ele><time>2026-04-19T10:01:48.088Z</time></trkpt><trkpt lat="44.9852851" lon="9.7891849"><ele>62.0</ele><time>2026-04-19T10:01:49.081Z</time></trkpt><trkpt lat="44.9853496" lon="9.7892058"><ele>62.28571428571429</ele><time>2026-04-19T10:01:50.089Z</time></trkpt><trkpt lat="44.9854142" lon="9.7892362"><ele>62.57142857142858</ele><time>2026-04-19T10:01:51.055Z</time></trkpt><trkpt lat="44.9854779" lon="9.789254"><ele>62.85714285714286</ele><time>2026-04-19T10:01:52.101Z</time></trkpt><trkpt lat="44.9855403" lon="9.7892671"><ele>63.14285714285714</ele><time>2026-04-19T10:01:53.079Z</time></trkpt><trkpt lat="44.9856063" lon="9.7892706"><ele>63.42857142857142</ele><time>2026-04-19T10:01:54.084Z</time></trkpt><trkpt lat="44.9856701" lon="9.7892616"><ele>63.71428571428571</ele><time>2026-04-19T10:01:55.085Z</time></trkpt><trkpt lat="44.9857311" lon="9.789238"><ele>64.0</ele><time>2026-04-19T10:01:56.092Z</time></trkpt><trkpt lat="44.9857919" lon="9.7891997"><ele>64.28571428571428</ele><time>2026-04-19T10:01:57.062Z</time></trkpt><trkpt lat="44.985848" lon="9.7891556"><ele>64.57142857142857</ele><time>2026-04-19T10:01:58.076Z</time></trkpt><trkpt lat="44.9858977" lon="9.7890955"><ele>64.85714285714286</ele><time>2026-04-19T10:01:59.084Z</time></trkpt><trkpt lat="44.9859391" lon="9.7890258"><ele>65.14285714285714</ele><time>2026-04-19T10:02:00.087Z</time></trkpt><trkpt lat="44.9859682" lon="9.7889464"><ele>65.42857142857143</ele><time>2026-04-19T10:02:01.089Z</time></trkpt><trkpt lat="44.9859946" lon="9.7888479"><ele>65.71428571428571</ele><time>2026-04-19T10:02:02.08Z</time></trkpt><trkpt lat="44.9860153" lon="9.788757"><ele>66.0</ele><time>2026-04-19T10:02:03.087Z</time></trkpt><trkpt lat="44.9860349" lon="9.7886598"><ele>66.0</ele><time>2026-04-19T10:02:04.086Z</time></trkpt><trkpt lat="44.9860499" lon="9.7885643"><ele>66.0</ele><time>2026-04-19T10:02:05.082Z</time></trkpt><trkpt lat="44.9860658" lon="9.7884748"><ele>66.0</ele><time>2026-04-19T10:02:06.085Z</time></trkpt><trkpt lat="44.9860772" lon="9.7883786"><ele>66.0</ele><time>2026-04-19T10:02:07.088Z</time></trkpt><trkpt lat="44.9860925" lon="9.7882881"><ele>66.0</ele><time>2026-04-19T10:02:08.086Z</time></trkpt><trkpt lat="44.9861073" lon="9.7882004"><ele>66.0</ele><time>2026-04-19T10:02:09.085Z</time></trkpt><trkpt lat="44.9861202" lon="9.7881075"><ele>66.0</ele><time>2026-04-19T10:02:10.094Z</time></trkpt><trkpt lat="44.9861329" lon="9.7880122"><ele>66.0</ele><time>2026-04-19T10:02:11.085Z</time></trkpt><trkpt lat="44.9861479" lon="9.7879177"><ele>66.0</ele><time>2026-04-19T10:02:12.081Z</time></trkpt><trkpt lat="44.9861622" lon="9.7878251"><ele>66.0</ele><time>2026-04-19T10:02:13.086Z</time></trkpt><trkpt lat="44.9861736" lon="9.7877375"><ele>66.0</ele><time>2026-04-19T10:02:14.078Z</time></trkpt><trkpt lat="44.9861885" lon="9.7876478"><ele>66.0</ele><time>2026-04-19T10:02:15.093Z</time></trkpt><trkpt lat="44.9862055" lon="9.7875578"><ele>66.0</ele><time>2026-04-19T10:02:16.077Z</time></trkpt><trkpt lat="44.9862293" lon="9.7874695"><ele>66.0</ele><time>2026-04-19T10:02:17.077Z</time></trkpt><trkpt lat="44.9862577" lon="9.787384"><ele>65.5</ele><time>2026-04-19T10:02:18.088Z</time></trkpt><trkpt lat="44.9862952" lon="9.7873027"><ele>65.0</ele><time>2026-04-19T10:02:19.085Z</time></trkpt><trkpt lat="44.9863453" lon="9.7872388"><ele>64.5</ele><time>2026-04-19T10:02:20.085Z</time></trkpt><trkpt lat="44.9864047" lon="9.7871902"><ele>64.0</ele><time>2026-04-19T10:02:21.088Z</time></trkpt><trkpt lat="44.9864711" lon="9.7871535"><ele>63.5</ele><time>2026-04-19T10:02:22.093Z</time></trkpt><trkpt lat="44.9865358" lon="9.7871317"><ele>63.0</ele><time>2026-04-19T10:02:23.086Z</time></trkpt><trkpt lat="44.9866644" lon="9.7871333"><ele>62.85714285714286</ele><time>2026-04-19T10:02:25.091Z</time></trkpt><trkpt lat="44.9867271" lon="9.7871546"><ele>62.714285714285715</ele><time>2026-04-19T10:02:26.085Z</time></trkpt><trkpt lat="44.9867918" lon="9.7871785"><ele>62.57142857142857</ele><time>2026-04-19T10:02:27.087Z</time></trkpt><trkpt lat="44.9868555" lon="9.7872026"><ele>62.42857142857143</ele><time>2026-04-19T10:02:28.091Z</time></trkpt><trkpt lat="44.9869197" lon="9.7872195"><ele>62.28571428571429</ele><time>2026-04-19T10:02:29.083Z</time></trkpt><trkpt lat="44.9869838" lon="9.7872376"><ele>62.142857142857146</ele><time>2026-04-19T10:02:30.086Z</time></trkpt><trkpt lat="44.9870499" lon="9.7872618"><ele>62.0</ele><time>2026-04-19T10:02:31.089Z</time></trkpt><trkpt lat="44.987114" lon="9.7872825"><ele>62.00000000000001</ele><time>2026-04-19T10:02:32.086Z</time></trkpt><trkpt lat="44.9871782" lon="9.7873076"><ele>62.0</ele><time>2026-04-19T10:02:33.087Z</time></trkpt><trkpt lat="44.9872428" lon="9.7873265"><ele>62.0</ele><time>2026-04-19T10:02:34.077Z</time></trkpt><trkpt lat="44.9873055" lon="9.7873467"><ele>62.0</ele><time>2026-04-19T10:02:35.087Z</time></trkpt><trkpt lat="44.9873692" lon="9.7873668"><ele>62.00000000000001</ele><time>2026-04-19T10:02:36.086Z</time></trkpt><trkpt lat="44.9874313" lon="9.7873928"><ele>62.0</ele><time>2026-04-19T10:02:37.085Z</time></trkpt><trkpt lat="44.9875533" lon="9.7874405"><ele>62.0</ele><time>2026-04-19T10:02:39.072Z</time></trkpt><trkpt lat="44.9876172" lon="9.7874607"><ele>62.00000000000001</ele><time>2026-04-19T10:02:40.09Z</time></trkpt><trkpt lat="44.9876792" lon="9.7874874"><ele>62.0</ele><time>2026-04-19T10:02:41.093Z</time></trkpt><trkpt lat="44.9877427" lon="9.7875115"><ele>62.0</ele><time>2026-04-19T10:02:42.088Z</time></trkpt><trkpt lat="44.9878068" lon="9.7875308"><ele>62.00000000000001</ele><time>2026-04-19T10:02:43.083Z</time></trkpt><trkpt lat="44.9878718" lon="9.7875519"><ele>62.0</ele><time>2026-04-19T10:02:44.083Z</time></trkpt><trkpt lat="44.9879353" lon="9.7875798"><ele>62.0</ele><time>2026-04-19T10:02:45.096Z</time></trkpt><trkpt lat="44.9880005" lon="9.7876114"><ele>62.00000000000001</ele><time>2026-04-19T10:02:46.074Z</time></trkpt><trkpt lat="44.9880636" lon="9.7876358"><ele>62.0</ele><time>2026-04-19T10:02:47.069Z</time></trkpt><trkpt lat="44.9881304" lon="9.7876534"><ele>62.0</ele><time>2026-04-19T10:02:48.083Z</time></trkpt><trkpt lat="44.9881949" lon="9.7876767"><ele>62.0</ele><time>2026-04-19T10:02:49.09Z</time></trkpt><trkpt lat="44.9882581" lon="9.7876977"><ele>62.00000000000001</ele><time>2026-04-19T10:02:50.088Z</time></trkpt><trkpt lat="44.9883819" lon="9.7877391"><ele>62.0</ele><time>2026-04-19T10:02:52.092Z</time></trkpt><trkpt lat="44.9884481" lon="9.787758"><ele>62.16666666666667</ele><time>2026-04-19T10:02:53.077Z</time></trkpt><trkpt lat="44.9885117" lon="9.7877782"><ele>62.333333333333336</ele><time>2026-04-19T10:02:54.083Z</time></trkpt><trkpt lat="44.9885774" lon="9.7878026"><ele>62.5</ele><time>2026-04-19T10:02:55.084Z</time></trkpt><trkpt lat="44.98864" lon="9.7878268"><ele>62.66666666666667</ele><time>2026-04-19T10:02:56.064Z</time></trkpt><trkpt lat="44.9887028" lon="9.7878497"><ele>62.833333333333336</ele><time>2026-04-19T10:02:57.092Z</time></trkpt><trkpt lat="44.9888187" lon="9.7878951"><ele>63.0</ele><time>2026-04-19T10:02:59.087Z</time></trkpt><trkpt lat="44.9889355" lon="9.7879348"><ele>63.0</ele><time>2026-04-19T10:03:01.074Z</time></trkpt><trkpt lat="44.9889982" lon="9.7879544"><ele>63.0</ele><time>2026-04-19T10:03:02.088Z</time></trkpt><trkpt lat="44.9890596" lon="9.787975"><ele>63.0</ele><time>2026-04-19T10:03:03.081Z</time></trkpt><trkpt lat="44.9891231" lon="9.7879963"><ele>63.0</ele><time>2026-04-19T10:03:04.081Z</time></trkpt><trkpt lat="44.9891865" lon="9.7880147"><ele>63.0</ele><time>2026-04-19T10:03:05.084Z</time></trkpt><trkpt lat="44.9892518" lon="9.7880326"><ele>63.0</ele><time>2026-04-19T10:03:06.065Z</time></trkpt><trkpt lat="44.989317" lon="9.788048"><ele>63.0</ele><time>2026-04-19T10:03:07.083Z</time></trkpt><trkpt lat="44.9893812" lon="9.7880621"><ele>63.0</ele><time>2026-04-19T10:03:08.096Z</time></trkpt><trkpt lat="44.9894437" lon="9.788078"><ele>63.0</ele><time>2026-04-19T10:03:09.089Z</time></trkpt><trkpt lat="44.9895054" lon="9.7880972"><ele>63.0</ele><time>2026-04-19T10:03:10.086Z</time></trkpt><trkpt lat="44.9896301" lon="9.788128"><ele>63.0</ele><time>2026-04-19T10:03:12.089Z</time></trkpt><trkpt lat="44.9897488" lon="9.7881587"><ele>63.0</ele><time>2026-04-19T10:03:14.094Z</time></trkpt><trkpt lat="44.9898737" lon="9.7881803"><ele>63.0</ele><time>2026-04-19T10:03:16.088Z</time></trkpt><trkpt lat="44.9899971" lon="9.7882105"><ele>63.0</ele><time>2026-04-19T10:03:18.091Z</time></trkpt><trkpt lat="44.990064" lon="9.7882227"><ele>63.0</ele><time>2026-04-19T10:03:19.093Z</time></trkpt><trkpt lat="44.9901293" lon="9.7882369"><ele>63.0</ele><time>2026-04-19T10:03:20.087Z</time></trkpt><trkpt lat="44.9901959" lon="9.788251"><ele>63.0</ele><time>2026-04-19T10:03:21.094Z</time></trkpt><trkpt lat="44.99026" lon="9.7882641"><ele>63.0</ele><time>2026-04-19T10:03:22.091Z</time></trkpt><trkpt lat="44.990323" lon="9.788276"><ele>63.333333333333336</ele><time>2026-04-19T10:03:23.084Z</time></trkpt><trkpt lat="44.990387" lon="9.7882866"><ele>63.66666666666667</ele><time>2026-04-19T10:03:24.084Z</time></trkpt><trkpt lat="44.9904527" lon="9.7882976"><ele>64.0</ele><time>2026-04-19T10:03:25.093Z</time></trkpt><trkpt lat="44.9905198" lon="9.7883178"><ele>64.33333333333334</ele><time>2026-04-19T10:03:26.086Z</time></trkpt><trkpt lat="44.9906455" lon="9.7883456"><ele>64.66666666666667</ele><time>2026-04-19T10:03:28.087Z</time></trkpt><trkpt lat="44.990711" lon="9.7883582"><ele>65.0</ele><time>2026-04-19T10:03:29.084Z</time></trkpt><trkpt lat="44.9907761" lon="9.7883694"><ele>65.0</ele><time>2026-04-19T10:03:30.091Z</time></trkpt><trkpt lat="44.9908432" lon="9.7883772"><ele>65.0</ele><time>2026-04-19T10:03:31.089Z</time></trkpt><trkpt lat="44.99097" lon="9.7883967"><ele>65.0</ele><time>2026-04-19T10:03:33.067Z</time></trkpt><trkpt lat="44.9910397" lon="9.7884092"><ele>65.0</ele><time>2026-04-19T10:03:34.063Z</time></trkpt><trkpt lat="44.9911047" lon="9.7884195"><ele>65.0</ele><time>2026-04-19T10:03:35.096Z</time></trkpt><trkpt lat="44.9911722" lon="9.7884311"><ele>65.0</ele><time>2026-04-19T10:03:36.089Z</time></trkpt><trkpt lat="44.991236" lon="9.7884406"><ele>65.00000000000001</ele><time>2026-04-19T10:03:37.078Z</time></trkpt><trkpt lat="44.9913004" lon="9.7884499"><ele>65.0</ele><time>2026-04-19T10:03:38.083Z</time></trkpt><trkpt lat="44.9913645" lon="9.7884553"><ele>65.0</ele><time>2026-04-19T10:03:39.074Z</time></trkpt><trkpt lat="44.9914282" lon="9.7884657"><ele>65.0</ele><time>2026-04-19T10:03:40.093Z</time></trkpt><trkpt lat="44.9914946" lon="9.7884708"><ele>65.0</ele><time>2026-04-19T10:03:41.094Z</time></trkpt><trkpt lat="44.991557" lon="9.7884833"><ele>65.00000000000001</ele><time>2026-04-19T10:03:42.071Z</time></trkpt><trkpt lat="44.9916225" lon="9.7884895"><ele>65.0</ele><time>2026-04-19T10:03:43.088Z</time></trkpt><trkpt lat="44.9916867" lon="9.7885003"><ele>64.85714285714286</ele><time>2026-04-19T10:03:44.091Z</time></trkpt><trkpt lat="44.9917505" lon="9.7885133"><ele>64.71428571428572</ele><time>2026-04-19T10:03:45.081Z</time></trkpt><trkpt lat="44.9918167" lon="9.7885303"><ele>64.57142857142857</ele><time>2026-04-19T10:03:46.088Z</time></trkpt><trkpt lat="44.9918822" lon="9.7885454"><ele>64.42857142857143</ele><time>2026-04-19T10:03:47.077Z</time></trkpt><trkpt lat="44.9919482" lon="9.788554"><ele>64.28571428571428</ele><time>2026-04-19T10:03:48.072Z</time></trkpt><trkpt lat="44.9920177" lon="9.7885661"><ele>64.14285714285714</ele><time>2026-04-19T10:03:49.092Z</time></trkpt><trkpt lat="44.9920919" lon="9.7885778"><ele>64.0</ele><time>2026-04-19T10:03:50.081Z</time></trkpt><trkpt lat="44.9921556" lon="9.7885927"><ele>64.0</ele><time>2026-04-19T10:03:51.081Z</time></trkpt><trkpt lat="44.9922235" lon="9.788605"><ele>64.0</ele><time>2026-04-19T10:03:52.087Z</time></trkpt><trkpt lat="44.9922908" lon="9.7886169"><ele>64.0</ele><time>2026-04-19T10:03:53.082Z</time></trkpt><trkpt lat="44.9924094" lon="9.7886578"><ele>64.0</ele><time>2026-04-19T10:03:55.083Z</time></trkpt><trkpt lat="44.992526" lon="9.7886746"><ele>64.0</ele><time>2026-04-19T10:03:57.081Z</time></trkpt><trkpt lat="44.9926408" lon="9.7886851"><ele>64.0</ele><time>2026-04-19T10:03:59.076Z</time></trkpt><trkpt lat="44.9927503" lon="9.7886829"><ele>64.0</ele><time>2026-04-19T10:04:01.094Z</time></trkpt><trkpt lat="44.9928543" lon="9.7887014"><ele>64.0</ele><time>2026-04-19T10:04:03.084Z</time></trkpt><trkpt lat="44.9929555" lon="9.7887086"><ele>64.0</ele><time>2026-04-19T10:04:05.087Z</time></trkpt><trkpt lat="44.993062" lon="9.7887262"><ele>64.0</ele><time>2026-04-19T10:04:07.084Z</time></trkpt><trkpt lat="44.9931635" lon="9.7887566"><ele>63.99999999999999</ele><time>2026-04-19T10:04:09.082Z</time></trkpt><trkpt lat="44.9932388" lon="9.788741"><ele>64.0</ele><time>2026-04-19T10:04:11.086Z</time></trkpt><trkpt lat="44.993282" lon="9.7886547"><ele>64.0</ele><time>2026-04-19T10:04:15.084Z</time></trkpt><trkpt lat="44.9932959" lon="9.7885354"><ele>64.0</ele><time>2026-04-19T10:04:18.09Z</time></trkpt><trkpt lat="44.9932827" lon="9.7884217"><ele>63.99999999999999</ele><time>2026-04-19T10:04:20.085Z</time></trkpt><trkpt lat="44.9932959" lon="9.7882895"><ele>64.0</ele><time>2026-04-19T10:04:22.093Z</time></trkpt><trkpt lat="44.9933669" lon="9.7881498"><ele>64.2</ele><time>2026-04-19T10:04:24.082Z</time></trkpt><trkpt lat="44.9934363" lon="9.7880264"><ele>64.4</ele><time>2026-04-19T10:04:26.097Z</time></trkpt><trkpt lat="44.993491" lon="9.7878955"><ele>64.6</ele><time>2026-04-19T10:04:28.076Z</time></trkpt><trkpt lat="44.9935313" lon="9.7878249"><ele>64.8</ele><time>2026-04-19T10:04:29.072Z</time></trkpt><trkpt lat="44.9936206" lon="9.7877078"><ele>65.0</ele><time>2026-04-19T10:04:31.072Z</time></trkpt><trkpt lat="44.9936568" lon="9.7876292"><ele>65.2</ele><time>2026-04-19T10:04:32.09Z</time></trkpt><trkpt lat="44.9937406" lon="9.787517"><ele>65.4</ele><time>2026-04-19T10:04:34.096Z</time></trkpt><trkpt lat="44.9938199" lon="9.7873883"><ele>65.6</ele><time>2026-04-19T10:04:36.087Z</time></trkpt><trkpt lat="44.9939025" lon="9.7872511"><ele>65.8</ele><time>2026-04-19T10:04:38.089Z</time></trkpt><trkpt lat="44.9939415" lon="9.7871776"><ele>66.0</ele><time>2026-04-19T10:04:39.09Z</time></trkpt><trkpt lat="44.9940362" lon="9.7870515"><ele>66.0</ele><time>2026-04-19T10:04:41.096Z</time></trkpt><trkpt lat="44.9940824" lon="9.7869837"><ele>66.0</ele><time>2026-04-19T10:04:42.077Z</time></trkpt><trkpt lat="44.994122" lon="9.7869101"><ele>66.0</ele><time>2026-04-19T10:04:43.093Z</time></trkpt><trkpt lat="44.9941553" lon="9.7868322"><ele>66.0</ele><time>2026-04-19T10:04:44.075Z</time></trkpt><trkpt lat="44.9941928" lon="9.7867586"><ele>66.0</ele><time>2026-04-19T10:04:45.085Z</time></trkpt><trkpt lat="44.9942782" lon="9.7866228"><ele>66.0</ele><time>2026-04-19T10:04:47.079Z</time></trkpt><trkpt lat="44.9943234" lon="9.7865563"><ele>66.39999999999999</ele><time>2026-04-19T10:04:48.076Z</time></trkpt><trkpt lat="44.9944039" lon="9.7864211"><ele>66.8</ele><time>2026-04-19T10:04:50.078Z</time></trkpt><trkpt lat="44.9944446" lon="9.7863485"><ele>67.19999999999999</ele><time>2026-04-19T10:04:51.094Z</time></trkpt><trkpt lat="44.9945304" lon="9.7862117"><ele>67.6</ele><time>2026-04-19T10:04:53.089Z</time></trkpt><trkpt lat="44.9945706" lon="9.7861369"><ele>68.0</ele><time>2026-04-19T10:04:54.085Z</time></trkpt><trkpt lat="44.9946774" lon="9.7860407"><ele>68.0</ele><time>2026-04-19T10:04:56.085Z</time></trkpt><trkpt lat="44.9947929" lon="9.786032"><ele>68.0</ele><time>2026-04-19T10:04:58.089Z</time></trkpt><trkpt lat="44.9949043" lon="9.7860882"><ele>68.0</ele><time>2026-04-19T10:05:00.078Z</time></trkpt><trkpt lat="44.9950142" lon="9.786133"><ele>68.0</ele><time>2026-04-19T10:05:02.087Z</time></trkpt><trkpt lat="44.9951259" lon="9.7861983"><ele>67.8</ele><time>2026-04-19T10:05:04.087Z</time></trkpt><trkpt lat="44.9951851" lon="9.7862337"><ele>67.6</ele><time>2026-04-19T10:05:05.083Z</time></trkpt><trkpt lat="44.9953047" lon="9.7862914"><ele>67.4</ele><time>2026-04-19T10:05:07.086Z</time></trkpt><trkpt lat="44.9954071" lon="9.7863568"><ele>67.2</ele><time>2026-04-19T10:05:09.088Z</time></trkpt><trkpt lat="44.9955117" lon="9.7864301"><ele>67.0</ele><time>2026-04-19T10:05:11.082Z</time></trkpt><trkpt lat="44.9956156" lon="9.7865175"><ele>67.0</ele><time>2026-04-19T10:05:13.086Z</time></trkpt><trkpt lat="44.9957104" lon="9.7865959"><ele>67.0</ele><time>2026-04-19T10:05:15.084Z</time></trkpt><trkpt lat="44.9958072" lon="9.7866531"><ele>67.0</ele><time>2026-04-19T10:05:17.09Z</time></trkpt><trkpt lat="44.9959059" lon="9.7867168"><ele>67.0</ele><time>2026-04-19T10:05:19.086Z</time></trkpt><trkpt lat="44.9959918" lon="9.7867877"><ele>67.0</ele><time>2026-04-19T10:05:21.083Z</time></trkpt><trkpt lat="44.9960844" lon="9.7868696"><ele>66.8</ele><time>2026-04-19T10:05:23.087Z</time></trkpt><trkpt lat="44.9961832" lon="9.7869516"><ele>66.6</ele><time>2026-04-19T10:05:25.09Z</time></trkpt><trkpt lat="44.996275" lon="9.7870463"><ele>66.39999999999999</ele><time>2026-04-19T10:05:27.068Z</time></trkpt><trkpt lat="44.996355" lon="9.7871352"><ele>66.2</ele><time>2026-04-19T10:05:29.085Z</time></trkpt><trkpt lat="44.9964364" lon="9.787253"><ele>66.0</ele><time>2026-04-19T10:05:31.095Z</time></trkpt><trkpt lat="44.9965169" lon="9.7873721"><ele>66.0</ele><time>2026-04-19T10:05:33.091Z</time></trkpt><trkpt lat="44.9966054" lon="9.7874844"><ele>66.0</ele><time>2026-04-19T10:05:35.083Z</time></trkpt><trkpt lat="44.9966856" lon="9.7875729"><ele>66.0</ele><time>2026-04-19T10:05:37.084Z</time></trkpt><trkpt lat="44.9967591" lon="9.7876393"><ele>66.0</ele><time>2026-04-19T10:05:39.082Z</time></trkpt><trkpt lat="44.9968052" lon="9.7877186"><ele>66.0</ele><time>2026-04-19T10:05:41.092Z</time></trkpt><trkpt lat="44.9968456" lon="9.7877918"><ele>66.0</ele><time>2026-04-19T10:05:43.087Z</time></trkpt><trkpt lat="44.9969071" lon="9.787875"><ele>66.16666666666667</ele><time>2026-04-19T10:05:46.1Z</time></trkpt><trkpt lat="44.9969584" lon="9.7879292"><ele>66.33333333333333</ele><time>2026-04-19T10:05:49.089Z</time></trkpt><trkpt lat="44.9970161" lon="9.7880065"><ele>66.5</ele><time>2026-04-19T10:05:53.071Z</time></trkpt><trkpt lat="44.9970838" lon="9.7880946"><ele>66.66666666666666</ele><time>2026-04-19T10:05:56.086Z</time></trkpt><trkpt lat="44.9971448" lon="9.7881739"><ele>66.83333333333333</ele><time>2026-04-19T10:05:58.089Z</time></trkpt><trkpt lat="44.9971805" lon="9.7882572"><ele>67.0</ele><time>2026-04-19T10:06:00.086Z</time></trkpt><trkpt lat="44.9971406" lon="9.7883386"><ele>67.0</ele><time>2026-04-19T10:06:03.091Z</time></trkpt><trkpt lat="44.9971323" lon="9.7884316"><ele>67.0</ele><time>2026-04-19T10:07:36.047Z</time></trkpt></trkseg></trk></gpx>